<?xml version="1.0" encoding="UTF-8" standalone="no" ?><gpx xmlns="http://www.topografix.com/GPX/1/1" xmlns:gpxx="http://www.garmin.com/xmlschemas/GpxExtensions/v3" xmlns:wptx1="http://www.garmin.com/xmlschemas/WaypointExtension/v1" xmlns:gpxtpx="http://www.garmin.com/xmlschemas/TrackPointExtension/v1" creator="Alpha 50 EU" version="1.1" xmlns:xsi="http://www.w3.org/2001/XMLSchema-instance" xsi:schemaLocation="http://www.topografix.com/GPX/1/1 http://www.topografix.com/GPX/1/1/gpx.xsd http://www.garmin.com/xmlschemas/GpxExtensions/v3 http://www8.garmin.com/xmlschemas/GpxExtensionsv3.xsd http://www.garmin.com/xmlschemas/WaypointExtension/v1 http://www8.garmin.com/xmlschemas/WaypointExtensionv1.xsd http://www.garmin.com/xmlschemas/TrackPointExtension/v1 http://www.garmin.com/xmlschemas/TrackPointExtensionv1.xsd"><metadata><link href="http://www.garmin.com"><text>Garmin International</text></link><time>2026-09-02T14:48:41Z</time></metadata><trk><name>2026-09-02 17:48:38</name><extensions><gpxx:TrackExtension><gpxx:DisplayColor>DarkGreen</gpxx:DisplayColor></gpxx:TrackExtension></extensions><trkseg><trkpt lat="59.4550037384" lon="31.0868453979"><time>2026-09-02T09:43:24Z</time></trkpt><trkpt lat="59.4550037384" lon="31.0868453979"><time>2026-09-02T09:43:16Z</time></trkpt><trkpt lat="59.4548964500" lon="31.0865235329"><time>2026-09-02T09:43:26Z</time></trkpt><trkpt lat="59.4548964500" lon="31.0865235329"><time>2026-09-02T09:43:31Z</time></trkpt><trkpt lat="59.4548964500" lon="31.0865235329"><time>2026-09-02T09:43:33Z</time></trkpt><trkpt lat="59.4548964500" lon="31.0865235329"><time>2026-09-02T09:43:36Z</time></trkpt><trkpt lat="59.4548964500" lon="31.0865235329"><time>2026-09-02T09:43:38Z</time></trkpt><trkpt lat="59.4548964500" lon="31.0865235329"><time>2026-09-02T09:43:41Z</time></trkpt><trkpt lat="59.4548964500" lon="31.0865235329"><time>2026-09-02T09:43:43Z</time></trkpt><trkpt lat="59.4548964500" lon="31.0865235329"><time>2026-09-02T09:43:46Z</time></trkpt><trkpt lat="59.4548964500" lon="31.0865235329"><time>2026-09-02T09:43:48Z</time></trkpt><trkpt lat="59.4548964500" lon="31.0865235329"><time>2026-09-02T09:43:51Z</time></trkpt><trkpt lat="59.4548964500" lon="31.0865235329"><time>2026-09-02T09:43:53Z</time></trkpt><trkpt lat="59.4548964500" lon="31.0865235329"><time>2026-09-02T09:43:56Z</time></trkpt><trkpt lat="59.4548964500" lon="31.0865235329"><time>2026-09-02T09:43:58Z</time></trkpt><trkpt lat="59.4548964500" lon="31.0865235329"><time>2026-09-02T09:44:01Z</time></trkpt><trkpt lat="59.4549393654" lon="31.0866093636"><time>2026-09-02T09:44:03Z</time></trkpt><trkpt lat="59.4549393654" lon="31.0865879059"><time>2026-09-02T09:44:06Z</time></trkpt><trkpt lat="59.4549179077" lon="31.0865235329"><time>2026-09-02T09:44:08Z</time></trkpt><trkpt lat="59.4549608231" lon="31.0864806175"><time>2026-09-02T09:44:11Z</time></trkpt><trkpt lat="59.4550251961" lon="31.0864377022"><time>2026-09-02T09:44:13Z</time></trkpt><trkpt lat="59.4550681114" lon="31.0863947868"><time>2026-09-02T09:44:16Z</time></trkpt><trkpt lat="59.4551324844" lon="31.0863304138"><time>2026-09-02T09:44:18Z</time></trkpt><trkpt lat="59.4551539421" lon="31.0863304138"><time>2026-09-02T09:44:21Z</time></trkpt><trkpt lat="59.4551110268" lon="31.0863733292"><time>2026-09-02T09:44:23Z</time></trkpt><trkpt lat="59.4550251961" lon="31.0864162445"><time>2026-09-02T09:44:26Z</time></trkpt><trkpt lat="59.4549393654" lon="31.0865664482"><time>2026-09-02T09:44:28Z</time></trkpt><trkpt lat="59.4550037384" lon="31.0868024826"><time>2026-09-02T09:44:31Z</time></trkpt><trkpt lat="59.4550681114" lon="31.0871243477"><time>2026-09-02T09:44:33Z</time></trkpt><trkpt lat="59.4551110268" lon="31.0872530937"><time>2026-09-02T09:44:36Z</time></trkpt><trkpt lat="59.4551110268" lon="31.0872960091"><time>2026-09-02T09:44:38Z</time></trkpt><trkpt lat="59.4551110268" lon="31.0872960091"><time>2026-09-02T09:44:41Z</time></trkpt><trkpt lat="59.4550895691" lon="31.0872960091"><time>2026-09-02T09:44:43Z</time></trkpt><trkpt lat="59.4550895691" lon="31.0872960091"><time>2026-09-02T09:44:46Z</time></trkpt><trkpt lat="59.4550895691" lon="31.0872745514"><time>2026-09-02T09:44:48Z</time></trkpt><trkpt lat="59.4550895691" lon="31.0872530937"><time>2026-09-02T09:44:51Z</time></trkpt><trkpt lat="59.4550681114" lon="31.0872316360"><time>2026-09-02T09:44:53Z</time></trkpt><trkpt lat="59.4550681114" lon="31.0872316360"><time>2026-09-02T09:44:56Z</time></trkpt><trkpt lat="59.4550681114" lon="31.0872316360"><time>2026-09-02T09:44:58Z</time></trkpt><trkpt lat="59.4550681114" lon="31.0872316360"><time>2026-09-02T09:45:01Z</time></trkpt><trkpt lat="59.4550681114" lon="31.0872530937"><time>2026-09-02T09:45:03Z</time></trkpt><trkpt lat="59.4550466537" lon="31.0872745514"><time>2026-09-02T09:45:06Z</time></trkpt><trkpt lat="59.4550681114" lon="31.0872530937"><time>2026-09-02T09:45:08Z</time></trkpt><trkpt lat="59.4550681114" lon="31.0872745514"><time>2026-09-02T09:45:11Z</time></trkpt><trkpt lat="59.4550681114" lon="31.0872745514"><time>2026-09-02T09:45:13Z</time></trkpt><trkpt lat="59.4550895691" lon="31.0873174667"><time>2026-09-02T09:45:16Z</time></trkpt><trkpt lat="59.4550681114" lon="31.0873818398"><time>2026-09-02T09:45:18Z</time></trkpt><trkpt lat="59.4550466537" lon="31.0874247551"><time>2026-09-02T09:45:21Z</time></trkpt><trkpt lat="59.4550251961" lon="31.0874676704"><time>2026-09-02T09:45:23Z</time></trkpt><trkpt lat="59.4550251961" lon="31.0874676704"><time>2026-09-02T09:45:26Z</time></trkpt><trkpt lat="59.4550251961" lon="31.0874676704"><time>2026-09-02T09:45:28Z</time></trkpt><trkpt lat="59.4550251961" lon="31.0874032974"><time>2026-09-02T09:45:31Z</time></trkpt><trkpt lat="59.4550681114" lon="31.0872316360"><time>2026-09-02T09:45:33Z</time></trkpt><trkpt lat="59.4550681114" lon="31.0871672630"><time>2026-09-02T09:45:36Z</time></trkpt><trkpt lat="59.4550895691" lon="31.0871887207"><time>2026-09-02T09:45:38Z</time></trkpt><trkpt lat="59.4551110268" lon="31.0872101784"><time>2026-09-02T09:45:41Z</time></trkpt><trkpt lat="59.4551539421" lon="31.0872101784"><time>2026-09-02T09:45:43Z</time></trkpt><trkpt lat="59.4551324844" lon="31.0871887207"><time>2026-09-02T09:45:46Z</time></trkpt><trkpt lat="59.4551324844" lon="31.0871887207"><time>2026-09-02T09:45:48Z</time></trkpt><trkpt lat="59.4551324844" lon="31.0871887207"><time>2026-09-02T09:45:51Z</time></trkpt><trkpt lat="59.4551324844" lon="31.0871887207"><time>2026-09-02T09:45:53Z</time></trkpt><trkpt lat="59.4551753998" lon="31.0871887207"><time>2026-09-02T09:45:56Z</time></trkpt><trkpt lat="59.4552397728" lon="31.0871672630"><time>2026-09-02T09:45:58Z</time></trkpt><trkpt lat="59.4552826881" lon="31.0872101784"><time>2026-09-02T09:46:01Z</time></trkpt><trkpt lat="59.4553256035" lon="31.0873389244"><time>2026-09-02T09:46:03Z</time></trkpt><trkpt lat="59.4553256035" lon="31.0873818398"><time>2026-09-02T09:46:06Z</time></trkpt><trkpt lat="59.4553470612" lon="31.0873389244"><time>2026-09-02T09:46:08Z</time></trkpt><trkpt lat="59.4553470612" lon="31.0873389244"><time>2026-09-02T09:46:11Z</time></trkpt><trkpt lat="59.4553470612" lon="31.0873389244"><time>2026-09-02T09:46:13Z</time></trkpt><trkpt lat="59.4553470612" lon="31.0873389244"><time>2026-09-02T09:46:16Z</time></trkpt><trkpt lat="59.4553256035" lon="31.0872745514"><time>2026-09-02T09:46:18Z</time></trkpt><trkpt lat="59.4553256035" lon="31.0872101784"><time>2026-09-02T09:46:21Z</time></trkpt><trkpt lat="59.4553256035" lon="31.0871672630"><time>2026-09-02T09:46:23Z</time></trkpt><trkpt lat="59.4553256035" lon="31.0871672630"><time>2026-09-02T09:46:26Z</time></trkpt><trkpt lat="59.4553256035" lon="31.0871887207"><time>2026-09-02T09:46:28Z</time></trkpt><trkpt lat="59.4553256035" lon="31.0871887207"><time>2026-09-02T09:46:31Z</time></trkpt><trkpt lat="59.4553041458" lon="31.0871672630"><time>2026-09-02T09:46:33Z</time></trkpt><trkpt lat="59.4553041458" lon="31.0871672630"><time>2026-09-02T09:46:36Z</time></trkpt><trkpt lat="59.4553041458" lon="31.0871672630"><time>2026-09-02T09:46:38Z</time></trkpt><trkpt lat="59.4553041458" lon="31.0871672630"><time>2026-09-02T09:46:41Z</time></trkpt><trkpt lat="59.4553041458" lon="31.0871672630"><time>2026-09-02T09:46:43Z</time></trkpt><trkpt lat="59.4552826881" lon="31.0871887207"><time>2026-09-02T09:47:10Z</time></trkpt><trkpt lat="59.4552612305" lon="31.0871887207"><time>2026-09-02T09:47:13Z</time></trkpt><trkpt lat="59.4552612305" lon="31.0871887207"><time>2026-09-02T09:47:15Z</time></trkpt><trkpt lat="59.4552612305" lon="31.0872101784"><time>2026-09-02T09:47:21Z</time></trkpt><trkpt lat="59.4552612305" lon="31.0872101784"><time>2026-09-02T09:47:23Z</time></trkpt><trkpt lat="59.4552612305" lon="31.0872101784"><time>2026-09-02T09:47:26Z</time></trkpt><trkpt lat="59.4552612305" lon="31.0872101784"><time>2026-09-02T09:47:28Z</time></trkpt><trkpt lat="59.4552612305" lon="31.0872101784"><time>2026-09-02T09:47:31Z</time></trkpt><trkpt lat="59.4552397728" lon="31.0872101784"><time>2026-09-02T09:47:33Z</time></trkpt><trkpt lat="59.4552612305" lon="31.0872316360"><time>2026-09-02T09:47:36Z</time></trkpt><trkpt lat="59.4552612305" lon="31.0872745514"><time>2026-09-02T09:47:38Z</time></trkpt><trkpt lat="59.4552612305" lon="31.0872745514"><time>2026-09-02T09:47:41Z</time></trkpt><trkpt lat="59.4552826881" lon="31.0872960091"><time>2026-09-02T09:47:46Z</time></trkpt><trkpt lat="59.4552826881" lon="31.0872960091"><time>2026-09-02T09:47:48Z</time></trkpt><trkpt lat="59.4552826881" lon="31.0872960091"><time>2026-09-02T09:47:51Z</time></trkpt><trkpt lat="59.4552826881" lon="31.0873174667"><time>2026-09-02T09:47:53Z</time></trkpt><trkpt lat="59.4552826881" lon="31.0873174667"><time>2026-09-02T09:47:56Z</time></trkpt><trkpt lat="59.4552826881" lon="31.0873174667"><time>2026-09-02T09:47:58Z</time></trkpt><trkpt lat="59.4553041458" lon="31.0872960091"><time>2026-09-02T09:48:01Z</time></trkpt><trkpt lat="59.4553256035" lon="31.0872960091"><time>2026-09-02T09:48:03Z</time></trkpt><trkpt lat="59.4553685188" lon="31.0872960091"><time>2026-09-02T09:48:06Z</time></trkpt><trkpt lat="59.4554758072" lon="31.0873603821"><time>2026-09-02T09:48:08Z</time></trkpt><trkpt lat="59.4554972649" lon="31.0874247551"><time>2026-09-02T09:48:11Z</time></trkpt><trkpt lat="59.4555616379" lon="31.0874032974"><time>2026-09-02T09:48:13Z</time></trkpt><trkpt lat="59.4555187225" lon="31.0872101784"><time>2026-09-02T09:48:23Z</time></trkpt><trkpt lat="59.4555187225" lon="31.0872960091"><time>2026-09-02T09:48:26Z</time></trkpt><trkpt lat="59.4554972649" lon="31.0874676704"><time>2026-09-02T09:48:28Z</time></trkpt><trkpt lat="59.4554758072" lon="31.0875749588"><time>2026-09-02T09:48:31Z</time></trkpt><trkpt lat="59.4554972649" lon="31.0876393318"><time>2026-09-02T09:48:33Z</time></trkpt><trkpt lat="59.4554972649" lon="31.0876393318"><time>2026-09-02T09:48:36Z</time></trkpt><trkpt lat="59.4554972649" lon="31.0876393318"><time>2026-09-02T09:48:38Z</time></trkpt><trkpt lat="59.4554972649" lon="31.0876393318"><time>2026-09-02T09:48:41Z</time></trkpt><trkpt lat="59.4554758072" lon="31.0876393318"><time>2026-09-02T09:48:43Z</time></trkpt><trkpt lat="59.4554758072" lon="31.0876393318"><time>2026-09-02T09:48:46Z</time></trkpt><trkpt lat="59.4554758072" lon="31.0876393318"><time>2026-09-02T09:48:48Z</time></trkpt><trkpt lat="59.4554758072" lon="31.0876393318"><time>2026-09-02T09:48:51Z</time></trkpt><trkpt lat="59.4554758072" lon="31.0876393318"><time>2026-09-02T09:48:53Z</time></trkpt><trkpt lat="59.4554758072" lon="31.0876393318"><time>2026-09-02T09:48:56Z</time></trkpt><trkpt lat="59.4554758072" lon="31.0876393318"><time>2026-09-02T09:48:58Z</time></trkpt><trkpt lat="59.4555187225" lon="31.0876393318"><time>2026-09-02T09:49:01Z</time></trkpt><trkpt lat="59.4555401802" lon="31.0875964165"><time>2026-09-02T09:49:03Z</time></trkpt><trkpt lat="59.4555401802" lon="31.0875964165"><time>2026-09-02T09:49:06Z</time></trkpt><trkpt lat="59.4555401802" lon="31.0875964165"><time>2026-09-02T09:49:08Z</time></trkpt><trkpt lat="59.4555401802" lon="31.0875964165"><time>2026-09-02T09:49:11Z</time></trkpt><trkpt lat="59.4555401802" lon="31.0875964165"><time>2026-09-02T09:49:13Z</time></trkpt><trkpt lat="59.4555401802" lon="31.0875964165"><time>2026-09-02T09:49:16Z</time></trkpt><trkpt lat="59.4555401802" lon="31.0875964165"><time>2026-09-02T09:49:18Z</time></trkpt><trkpt lat="59.4555401802" lon="31.0875964165"><time>2026-09-02T09:49:21Z</time></trkpt><trkpt lat="59.4555401802" lon="31.0875964165"><time>2026-09-02T09:49:23Z</time></trkpt><trkpt lat="59.4555401802" lon="31.0875964165"><time>2026-09-02T09:49:26Z</time></trkpt><trkpt lat="59.4555401802" lon="31.0875964165"><time>2026-09-02T09:49:28Z</time></trkpt><trkpt lat="59.4555401802" lon="31.0875964165"><time>2026-09-02T09:49:31Z</time></trkpt><trkpt lat="59.4555401802" lon="31.0875964165"><time>2026-09-02T09:49:33Z</time></trkpt><trkpt lat="59.4555401802" lon="31.0875964165"><time>2026-09-02T09:49:36Z</time></trkpt><trkpt lat="59.4555401802" lon="31.0875964165"><time>2026-09-02T09:49:38Z</time></trkpt><trkpt lat="59.4555401802" lon="31.0875964165"><time>2026-09-02T09:49:41Z</time></trkpt><trkpt lat="59.4555401802" lon="31.0875964165"><time>2026-09-02T09:49:43Z</time></trkpt><trkpt lat="59.4555401802" lon="31.0875964165"><time>2026-09-02T09:49:46Z</time></trkpt><trkpt lat="59.4555401802" lon="31.0875964165"><time>2026-09-02T09:49:48Z</time></trkpt><trkpt lat="59.4555401802" lon="31.0875964165"><time>2026-09-02T09:49:51Z</time></trkpt><trkpt lat="59.4555401802" lon="31.0875964165"><time>2026-09-02T09:49:53Z</time></trkpt><trkpt lat="59.4555401802" lon="31.0875964165"><time>2026-09-02T09:49:56Z</time></trkpt><trkpt lat="59.4555401802" lon="31.0875964165"><time>2026-09-02T09:49:58Z</time></trkpt><trkpt lat="59.4555401802" lon="31.0875964165"><time>2026-09-02T09:50:01Z</time></trkpt><trkpt lat="59.4555401802" lon="31.0875964165"><time>2026-09-02T09:50:03Z</time></trkpt><trkpt lat="59.4555401802" lon="31.0875964165"><time>2026-09-02T09:50:06Z</time></trkpt><trkpt lat="59.4555401802" lon="31.0875964165"><time>2026-09-02T09:50:08Z</time></trkpt><trkpt lat="59.4555401802" lon="31.0875964165"><time>2026-09-02T09:50:13Z</time></trkpt><trkpt lat="59.4555401802" lon="31.0875964165"><time>2026-09-02T09:50:16Z</time></trkpt><trkpt lat="59.4555401802" lon="31.0875964165"><time>2026-09-02T09:50:18Z</time></trkpt><trkpt lat="59.4555401802" lon="31.0875964165"><time>2026-09-02T09:50:21Z</time></trkpt><trkpt lat="59.4555401802" lon="31.0875964165"><time>2026-09-02T09:50:23Z</time></trkpt><trkpt lat="59.4555401802" lon="31.0875964165"><time>2026-09-02T09:50:26Z</time></trkpt><trkpt lat="59.4555401802" lon="31.0875964165"><time>2026-09-02T09:50:28Z</time></trkpt><trkpt lat="59.4555401802" lon="31.0875964165"><time>2026-09-02T09:50:31Z</time></trkpt><trkpt lat="59.4555401802" lon="31.0875964165"><time>2026-09-02T09:50:33Z</time></trkpt><trkpt lat="59.4555401802" lon="31.0875964165"><time>2026-09-02T09:50:36Z</time></trkpt><trkpt lat="59.4555401802" lon="31.0875964165"><time>2026-09-02T09:50:38Z</time></trkpt><trkpt lat="59.4555187225" lon="31.0875749588"><time>2026-09-02T09:50:41Z</time></trkpt><trkpt lat="59.4555187225" lon="31.0875749588"><time>2026-09-02T09:50:43Z</time></trkpt><trkpt lat="59.4555187225" lon="31.0875749588"><time>2026-09-02T09:50:46Z</time></trkpt><trkpt lat="59.4555187225" lon="31.0875749588"><time>2026-09-02T09:50:48Z</time></trkpt><trkpt lat="59.4555187225" lon="31.0875749588"><time>2026-09-02T09:50:51Z</time></trkpt><trkpt lat="59.4555187225" lon="31.0875749588"><time>2026-09-02T09:50:53Z</time></trkpt><trkpt lat="59.4555187225" lon="31.0875749588"><time>2026-09-02T09:50:56Z</time></trkpt><trkpt lat="59.4555187225" lon="31.0875749588"><time>2026-09-02T09:50:58Z</time></trkpt><trkpt lat="59.4555187225" lon="31.0875749588"><time>2026-09-02T09:51:01Z</time></trkpt><trkpt lat="59.4555187225" lon="31.0875749588"><time>2026-09-02T09:51:03Z</time></trkpt><trkpt lat="59.4555187225" lon="31.0875749588"><time>2026-09-02T09:51:06Z</time></trkpt><trkpt lat="59.4555187225" lon="31.0875749588"><time>2026-09-02T09:51:08Z</time></trkpt><trkpt lat="59.4555187225" lon="31.0875749588"><time>2026-09-02T09:51:11Z</time></trkpt><trkpt lat="59.4555187225" lon="31.0875749588"><time>2026-09-02T09:51:13Z</time></trkpt><trkpt lat="59.4555187225" lon="31.0875749588"><time>2026-09-02T09:51:16Z</time></trkpt><trkpt lat="59.4555187225" lon="31.0875749588"><time>2026-09-02T09:51:18Z</time></trkpt><trkpt lat="59.4555187225" lon="31.0875749588"><time>2026-09-02T09:51:21Z</time></trkpt><trkpt lat="59.4555187225" lon="31.0875749588"><time>2026-09-02T09:51:23Z</time></trkpt><trkpt lat="59.4555187225" lon="31.0875749588"><time>2026-09-02T09:51:26Z</time></trkpt><trkpt lat="59.4555187225" lon="31.0875749588"><time>2026-09-02T09:51:28Z</time></trkpt><trkpt lat="59.4555187225" lon="31.0875749588"><time>2026-09-02T09:51:31Z</time></trkpt><trkpt lat="59.4555187225" lon="31.0875749588"><time>2026-09-02T09:51:33Z</time></trkpt><trkpt lat="59.4555187225" lon="31.0875749588"><time>2026-09-02T09:51:36Z</time></trkpt><trkpt lat="59.4555187225" lon="31.0875749588"><time>2026-09-02T09:51:38Z</time></trkpt><trkpt lat="59.4555187225" lon="31.0875749588"><time>2026-09-02T09:51:41Z</time></trkpt><trkpt lat="59.4555187225" lon="31.0875749588"><time>2026-09-02T09:51:43Z</time></trkpt><trkpt lat="59.4555187225" lon="31.0875749588"><time>2026-09-02T09:51:46Z</time></trkpt><trkpt lat="59.4555187225" lon="31.0875749588"><time>2026-09-02T09:51:48Z</time></trkpt><trkpt lat="59.4555187225" lon="31.0875749588"><time>2026-09-02T09:51:51Z</time></trkpt><trkpt lat="59.4555187225" lon="31.0875749588"><time>2026-09-02T09:51:53Z</time></trkpt><trkpt lat="59.4555187225" lon="31.0875749588"><time>2026-09-02T09:51:56Z</time></trkpt><trkpt lat="59.4555187225" lon="31.0875749588"><time>2026-09-02T09:52:01Z</time></trkpt><trkpt lat="59.4555187225" lon="31.0875749588"><time>2026-09-02T09:52:03Z</time></trkpt><trkpt lat="59.4555187225" lon="31.0875749588"><time>2026-09-02T09:52:06Z</time></trkpt><trkpt lat="59.4555187225" lon="31.0875749588"><time>2026-09-02T09:52:08Z</time></trkpt><trkpt lat="59.4555187225" lon="31.0875749588"><time>2026-09-02T09:52:11Z</time></trkpt><trkpt lat="59.4555187225" lon="31.0875749588"><time>2026-09-02T09:52:13Z</time></trkpt><trkpt lat="59.4555187225" lon="31.0875749588"><time>2026-09-02T09:52:16Z</time></trkpt><trkpt lat="59.4555187225" lon="31.0875749588"><time>2026-09-02T09:52:18Z</time></trkpt><trkpt lat="59.4555187225" lon="31.0875749588"><time>2026-09-02T09:52:21Z</time></trkpt><trkpt lat="59.4555187225" lon="31.0875749588"><time>2026-09-02T09:52:23Z</time></trkpt><trkpt lat="59.4555187225" lon="31.0875749588"><time>2026-09-02T09:52:26Z</time></trkpt><trkpt lat="59.4555187225" lon="31.0875749588"><time>2026-09-02T09:52:28Z</time></trkpt><trkpt lat="59.4555401802" lon="31.0875964165"><time>2026-09-02T09:52:31Z</time></trkpt><trkpt lat="59.4555616379" lon="31.0876178741"><time>2026-09-02T09:52:33Z</time></trkpt><trkpt lat="59.4555616379" lon="31.0876178741"><time>2026-09-02T09:52:36Z</time></trkpt><trkpt lat="59.4555616379" lon="31.0876178741"><time>2026-09-02T09:52:38Z</time></trkpt><trkpt lat="59.4555616379" lon="31.0876178741"><time>2026-09-02T09:52:41Z</time></trkpt><trkpt lat="59.4555616379" lon="31.0876178741"><time>2026-09-02T09:52:43Z</time></trkpt><trkpt lat="59.4555616379" lon="31.0876178741"><time>2026-09-02T09:52:46Z</time></trkpt><trkpt lat="59.4555616379" lon="31.0876178741"><time>2026-09-02T09:52:48Z</time></trkpt><trkpt lat="59.4555616379" lon="31.0876178741"><time>2026-09-02T09:52:51Z</time></trkpt><trkpt lat="59.4555616379" lon="31.0876178741"><time>2026-09-02T09:52:53Z</time></trkpt><trkpt lat="59.4555616379" lon="31.0876178741"><time>2026-09-02T09:52:56Z</time></trkpt><trkpt lat="59.4555616379" lon="31.0876178741"><time>2026-09-02T09:52:58Z</time></trkpt><trkpt lat="59.4555616379" lon="31.0876178741"><time>2026-09-02T09:53:01Z</time></trkpt><trkpt lat="59.4555616379" lon="31.0876178741"><time>2026-09-02T09:53:03Z</time></trkpt><trkpt lat="59.4555616379" lon="31.0876178741"><time>2026-09-02T09:53:06Z</time></trkpt><trkpt lat="59.4555616379" lon="31.0876178741"><time>2026-09-02T09:53:08Z</time></trkpt><trkpt lat="59.4555616379" lon="31.0876178741"><time>2026-09-02T09:53:11Z</time></trkpt><trkpt lat="59.4555616379" lon="31.0876178741"><time>2026-09-02T09:53:13Z</time></trkpt><trkpt lat="59.4555830956" lon="31.0876178741"><time>2026-09-02T09:53:16Z</time></trkpt><trkpt lat="59.4555830956" lon="31.0876178741"><time>2026-09-02T09:53:18Z</time></trkpt><trkpt lat="59.4555830956" lon="31.0876178741"><time>2026-09-02T09:53:21Z</time></trkpt><trkpt lat="59.4555830956" lon="31.0876178741"><time>2026-09-02T09:53:23Z</time></trkpt><trkpt lat="59.4555830956" lon="31.0876178741"><time>2026-09-02T09:53:26Z</time></trkpt><trkpt lat="59.4555830956" lon="31.0876178741"><time>2026-09-02T09:53:28Z</time></trkpt><trkpt lat="59.4555830956" lon="31.0876178741"><time>2026-09-02T09:53:31Z</time></trkpt><trkpt lat="59.4555830956" lon="31.0876178741"><time>2026-09-02T09:53:33Z</time></trkpt><trkpt lat="59.4555830956" lon="31.0876178741"><time>2026-09-02T09:53:36Z</time></trkpt><trkpt lat="59.4555830956" lon="31.0876178741"><time>2026-09-02T09:53:38Z</time></trkpt><trkpt lat="59.4555830956" lon="31.0876178741"><time>2026-09-02T09:53:41Z</time></trkpt><trkpt lat="59.4555830956" lon="31.0876178741"><time>2026-09-02T09:53:43Z</time></trkpt><trkpt lat="59.4555830956" lon="31.0876178741"><time>2026-09-02T09:53:46Z</time></trkpt><trkpt lat="59.4555830956" lon="31.0876178741"><time>2026-09-02T09:53:48Z</time></trkpt><trkpt lat="59.4555830956" lon="31.0876178741"><time>2026-09-02T09:53:51Z</time></trkpt><trkpt lat="59.4555830956" lon="31.0876178741"><time>2026-09-02T09:53:53Z</time></trkpt><trkpt lat="59.4555830956" lon="31.0876178741"><time>2026-09-02T09:53:56Z</time></trkpt><trkpt lat="59.4555830956" lon="31.0876178741"><time>2026-09-02T09:53:58Z</time></trkpt><trkpt lat="59.4555830956" lon="31.0876178741"><time>2026-09-02T09:54:01Z</time></trkpt><trkpt lat="59.4555830956" lon="31.0876178741"><time>2026-09-02T09:54:03Z</time></trkpt><trkpt lat="59.4555830956" lon="31.0876178741"><time>2026-09-02T09:54:06Z</time></trkpt><trkpt lat="59.4555830956" lon="31.0876178741"><time>2026-09-02T09:54:08Z</time></trkpt><trkpt lat="59.4555830956" lon="31.0876178741"><time>2026-09-02T09:54:11Z</time></trkpt><trkpt lat="59.4555830956" lon="31.0876178741"><time>2026-09-02T09:54:13Z</time></trkpt><trkpt lat="59.4555830956" lon="31.0876178741"><time>2026-09-02T09:54:16Z</time></trkpt><trkpt lat="59.4555830956" lon="31.0876178741"><time>2026-09-02T09:54:18Z</time></trkpt><trkpt lat="59.4555830956" lon="31.0876178741"><time>2026-09-02T09:54:21Z</time></trkpt><trkpt lat="59.4555830956" lon="31.0876178741"><time>2026-09-02T09:54:23Z</time></trkpt><trkpt lat="59.4555830956" lon="31.0876178741"><time>2026-09-02T09:54:26Z</time></trkpt><trkpt lat="59.4555830956" lon="31.0876178741"><time>2026-09-02T09:54:28Z</time></trkpt><trkpt lat="59.4555830956" lon="31.0876178741"><time>2026-09-02T09:54:31Z</time></trkpt><trkpt lat="59.4555830956" lon="31.0876178741"><time>2026-09-02T09:54:33Z</time></trkpt><trkpt lat="59.4555830956" lon="31.0876178741"><time>2026-09-02T09:54:36Z</time></trkpt><trkpt lat="59.4555830956" lon="31.0876178741"><time>2026-09-02T09:54:38Z</time></trkpt><trkpt lat="59.4555830956" lon="31.0876178741"><time>2026-09-02T09:54:41Z</time></trkpt><trkpt lat="59.4555830956" lon="31.0876178741"><time>2026-09-02T09:54:43Z</time></trkpt><trkpt lat="59.4555830956" lon="31.0876178741"><time>2026-09-02T09:54:46Z</time></trkpt><trkpt lat="59.4555830956" lon="31.0876178741"><time>2026-09-02T09:54:48Z</time></trkpt><trkpt lat="59.4555830956" lon="31.0876178741"><time>2026-09-02T09:54:51Z</time></trkpt><trkpt lat="59.4555830956" lon="31.0876178741"><time>2026-09-02T09:54:53Z</time></trkpt><trkpt lat="59.4555830956" lon="31.0876178741"><time>2026-09-02T09:54:56Z</time></trkpt><trkpt lat="59.4555830956" lon="31.0876178741"><time>2026-09-02T09:54:58Z</time></trkpt><trkpt lat="59.4555830956" lon="31.0876178741"><time>2026-09-02T09:55:01Z</time></trkpt><trkpt lat="59.4555830956" lon="31.0876178741"><time>2026-09-02T09:55:03Z</time></trkpt><trkpt lat="59.4555830956" lon="31.0876178741"><time>2026-09-02T09:55:06Z</time></trkpt><trkpt lat="59.4555830956" lon="31.0876178741"><time>2026-09-02T09:55:08Z</time></trkpt><trkpt lat="59.4555830956" lon="31.0876178741"><time>2026-09-02T09:55:11Z</time></trkpt><trkpt lat="59.4555830956" lon="31.0876178741"><time>2026-09-02T09:55:13Z</time></trkpt><trkpt lat="59.4555830956" lon="31.0876178741"><time>2026-09-02T09:55:16Z</time></trkpt><trkpt lat="59.4555830956" lon="31.0876178741"><time>2026-09-02T09:55:18Z</time></trkpt><trkpt lat="59.4555830956" lon="31.0876178741"><time>2026-09-02T09:55:21Z</time></trkpt><trkpt lat="59.4555830956" lon="31.0876178741"><time>2026-09-02T09:55:23Z</time></trkpt><trkpt lat="59.4555830956" lon="31.0876178741"><time>2026-09-02T09:55:26Z</time></trkpt><trkpt lat="59.4555830956" lon="31.0876178741"><time>2026-09-02T09:55:28Z</time></trkpt><trkpt lat="59.4555830956" lon="31.0876178741"><time>2026-09-02T09:55:31Z</time></trkpt><trkpt lat="59.4555830956" lon="31.0876178741"><time>2026-09-02T09:55:33Z</time></trkpt><trkpt lat="59.4555830956" lon="31.0876178741"><time>2026-09-02T09:55:36Z</time></trkpt><trkpt lat="59.4555830956" lon="31.0876178741"><time>2026-09-02T09:55:38Z</time></trkpt><trkpt lat="59.4555830956" lon="31.0876178741"><time>2026-09-02T09:55:41Z</time></trkpt><trkpt lat="59.4555830956" lon="31.0876178741"><time>2026-09-02T09:55:43Z</time></trkpt><trkpt lat="59.4555830956" lon="31.0876178741"><time>2026-09-02T09:55:46Z</time></trkpt><trkpt lat="59.4555830956" lon="31.0876178741"><time>2026-09-02T09:55:48Z</time></trkpt><trkpt lat="59.4555830956" lon="31.0876178741"><time>2026-09-02T09:55:51Z</time></trkpt><trkpt lat="59.4555830956" lon="31.0876178741"><time>2026-09-02T09:55:53Z</time></trkpt><trkpt lat="59.4555830956" lon="31.0876178741"><time>2026-09-02T09:55:56Z</time></trkpt><trkpt lat="59.4555830956" lon="31.0876178741"><time>2026-09-02T09:55:58Z</time></trkpt><trkpt lat="59.4555830956" lon="31.0876178741"><time>2026-09-02T09:56:01Z</time></trkpt><trkpt lat="59.4555830956" lon="31.0876178741"><time>2026-09-02T09:56:03Z</time></trkpt><trkpt lat="59.4555830956" lon="31.0876178741"><time>2026-09-02T09:56:06Z</time></trkpt><trkpt lat="59.4555830956" lon="31.0876178741"><time>2026-09-02T09:56:08Z</time></trkpt><trkpt lat="59.4555830956" lon="31.0876178741"><time>2026-09-02T09:56:11Z</time></trkpt><trkpt lat="59.4555830956" lon="31.0876178741"><time>2026-09-02T09:56:13Z</time></trkpt><trkpt lat="59.4555830956" lon="31.0876178741"><time>2026-09-02T09:56:16Z</time></trkpt><trkpt lat="59.4555830956" lon="31.0876178741"><time>2026-09-02T09:56:18Z</time></trkpt><trkpt lat="59.4555830956" lon="31.0876178741"><time>2026-09-02T09:56:21Z</time></trkpt><trkpt lat="59.4555830956" lon="31.0876178741"><time>2026-09-02T09:56:23Z</time></trkpt><trkpt lat="59.4555830956" lon="31.0876178741"><time>2026-09-02T09:56:26Z</time></trkpt><trkpt lat="59.4555830956" lon="31.0876178741"><time>2026-09-02T09:56:28Z</time></trkpt><trkpt lat="59.4555830956" lon="31.0876178741"><time>2026-09-02T09:56:31Z</time></trkpt><trkpt lat="59.4555830956" lon="31.0876178741"><time>2026-09-02T09:56:33Z</time></trkpt><trkpt lat="59.4555830956" lon="31.0876178741"><time>2026-09-02T09:56:36Z</time></trkpt><trkpt lat="59.4555830956" lon="31.0876178741"><time>2026-09-02T09:56:38Z</time></trkpt><trkpt lat="59.4555830956" lon="31.0876178741"><time>2026-09-02T09:56:41Z</time></trkpt><trkpt lat="59.4555830956" lon="31.0876178741"><time>2026-09-02T09:56:43Z</time></trkpt><trkpt lat="59.4555830956" lon="31.0876178741"><time>2026-09-02T09:56:46Z</time></trkpt><trkpt lat="59.4555830956" lon="31.0876178741"><time>2026-09-02T09:56:48Z</time></trkpt><trkpt lat="59.4555830956" lon="31.0876178741"><time>2026-09-02T09:56:51Z</time></trkpt><trkpt lat="59.4555830956" lon="31.0876178741"><time>2026-09-02T09:56:53Z</time></trkpt><trkpt lat="59.4555830956" lon="31.0876178741"><time>2026-09-02T09:56:56Z</time></trkpt><trkpt lat="59.4555830956" lon="31.0876178741"><time>2026-09-02T09:56:58Z</time></trkpt><trkpt lat="59.4555830956" lon="31.0876178741"><time>2026-09-02T09:57:01Z</time></trkpt><trkpt lat="59.4555830956" lon="31.0876607895"><time>2026-09-02T09:57:03Z</time></trkpt><trkpt lat="59.4555830956" lon="31.0876607895"><time>2026-09-02T09:57:06Z</time></trkpt><trkpt lat="59.4555830956" lon="31.0876607895"><time>2026-09-02T09:57:08Z</time></trkpt><trkpt lat="59.4555616379" lon="31.0877037048"><time>2026-09-02T09:57:11Z</time></trkpt><trkpt lat="59.4555616379" lon="31.0877251625"><time>2026-09-02T09:57:13Z</time></trkpt><trkpt lat="59.4555830956" lon="31.0878109932"><time>2026-09-02T09:57:16Z</time></trkpt><trkpt lat="59.4556045532" lon="31.0879611969"><time>2026-09-02T09:57:18Z</time></trkpt><trkpt lat="59.4556045532" lon="31.0880470276"><time>2026-09-02T09:57:21Z</time></trkpt><trkpt lat="59.4555830956" lon="31.0881328583"><time>2026-09-02T09:57:23Z</time></trkpt><trkpt lat="59.4555830956" lon="31.0881543159"><time>2026-09-02T09:57:26Z</time></trkpt><trkpt lat="59.4555830956" lon="31.0881757736"><time>2026-09-02T09:57:28Z</time></trkpt><trkpt lat="59.4555830956" lon="31.0881757736"><time>2026-09-02T09:57:31Z</time></trkpt><trkpt lat="59.4555830956" lon="31.0881757736"><time>2026-09-02T09:57:33Z</time></trkpt><trkpt lat="59.4555830956" lon="31.0881757736"><time>2026-09-02T09:57:36Z</time></trkpt><trkpt lat="59.4555830956" lon="31.0881757736"><time>2026-09-02T09:57:38Z</time></trkpt><trkpt lat="59.4556045532" lon="31.0881543159"><time>2026-09-02T09:57:41Z</time></trkpt><trkpt lat="59.4556045532" lon="31.0881114006"><time>2026-09-02T09:57:43Z</time></trkpt><trkpt lat="59.4556260109" lon="31.0881114006"><time>2026-09-02T09:57:46Z</time></trkpt><trkpt lat="59.4556689262" lon="31.0880684853"><time>2026-09-02T09:57:48Z</time></trkpt><trkpt lat="59.4557118416" lon="31.0880255699"><time>2026-09-02T09:57:51Z</time></trkpt><trkpt lat="59.4556903839" lon="31.0879826546"><time>2026-09-02T09:57:53Z</time></trkpt><trkpt lat="59.4556903839" lon="31.0880041122"><time>2026-09-02T09:57:56Z</time></trkpt><trkpt lat="59.4556689262" lon="31.0881972313"><time>2026-09-02T09:57:58Z</time></trkpt><trkpt lat="59.4556689262" lon="31.0882616043"><time>2026-09-02T09:58:01Z</time></trkpt><trkpt lat="59.4556689262" lon="31.0883259773"><time>2026-09-02T09:58:03Z</time></trkpt><trkpt lat="59.4556689262" lon="31.0883688927"><time>2026-09-02T09:58:06Z</time></trkpt><trkpt lat="59.4556689262" lon="31.0883903503"><time>2026-09-02T09:58:08Z</time></trkpt><trkpt lat="59.4556903839" lon="31.0883903503"><time>2026-09-02T09:58:11Z</time></trkpt><trkpt lat="59.4557332993" lon="31.0883688927"><time>2026-09-02T09:58:13Z</time></trkpt><trkpt lat="59.4557976723" lon="31.0883474350"><time>2026-09-02T09:58:16Z</time></trkpt><trkpt lat="59.4559264183" lon="31.0883688927"><time>2026-09-02T09:58:18Z</time></trkpt><trkpt lat="59.4560122490" lon="31.0883903503"><time>2026-09-02T09:58:21Z</time></trkpt><trkpt lat="59.4560551643" lon="31.0884761810"><time>2026-09-02T09:58:23Z</time></trkpt><trkpt lat="59.4560551643" lon="31.0885405540"><time>2026-09-02T09:58:26Z</time></trkpt><trkpt lat="59.4560551643" lon="31.0885834694"><time>2026-09-02T09:58:28Z</time></trkpt><trkpt lat="59.4560337067" lon="31.0886049271"><time>2026-09-02T09:58:31Z</time></trkpt><trkpt lat="59.4560122490" lon="31.0886049271"><time>2026-09-02T09:58:33Z</time></trkpt><trkpt lat="59.4559693336" lon="31.0886049271"><time>2026-09-02T09:58:36Z</time></trkpt><trkpt lat="59.4558835030" lon="31.0886907578"><time>2026-09-02T09:58:38Z</time></trkpt><trkpt lat="59.4558191299" lon="31.0886478424"><time>2026-09-02T09:58:41Z</time></trkpt><trkpt lat="59.4557762146" lon="31.0885405540"><time>2026-09-02T09:58:43Z</time></trkpt><trkpt lat="59.4557332993" lon="31.0885405540"><time>2026-09-02T09:58:46Z</time></trkpt><trkpt lat="59.4557118416" lon="31.0885405540"><time>2026-09-02T09:58:48Z</time></trkpt><trkpt lat="59.4556903839" lon="31.0884547234"><time>2026-09-02T09:58:51Z</time></trkpt><trkpt lat="59.4556903839" lon="31.0883474350"><time>2026-09-02T09:58:53Z</time></trkpt><trkpt lat="59.4557118416" lon="31.0882830620"><time>2026-09-02T09:58:56Z</time></trkpt><trkpt lat="59.4557547569" lon="31.0882186890"><time>2026-09-02T09:58:58Z</time></trkpt><trkpt lat="59.4558191299" lon="31.0881757736"><time>2026-09-02T09:59:01Z</time></trkpt><trkpt lat="59.4559049606" lon="31.0881972313"><time>2026-09-02T09:59:03Z</time></trkpt><trkpt lat="59.4559693336" lon="31.0881972313"><time>2026-09-02T09:59:06Z</time></trkpt><trkpt lat="59.4560980797" lon="31.0882401466"><time>2026-09-02T09:59:08Z</time></trkpt><trkpt lat="59.4561624527" lon="31.0882616043"><time>2026-09-02T09:59:11Z</time></trkpt><trkpt lat="59.4562482834" lon="31.0883259773"><time>2026-09-02T09:59:13Z</time></trkpt><trkpt lat="59.4563126564" lon="31.0883474350"><time>2026-09-02T09:59:16Z</time></trkpt><trkpt lat="59.4563984871" lon="31.0883903503"><time>2026-09-02T09:59:18Z</time></trkpt><trkpt lat="59.4563984871" lon="31.0884761810"><time>2026-09-02T09:59:21Z</time></trkpt><trkpt lat="59.4564414024" lon="31.0886049271"><time>2026-09-02T09:59:23Z</time></trkpt><trkpt lat="59.4564414024" lon="31.0887122154"><time>2026-09-02T09:59:26Z</time></trkpt><trkpt lat="59.4564843178" lon="31.0887336731"><time>2026-09-02T09:59:28Z</time></trkpt><trkpt lat="59.4565272331" lon="31.0887122154"><time>2026-09-02T09:59:31Z</time></trkpt><trkpt lat="59.4566345215" lon="31.0886693001"><time>2026-09-02T09:59:33Z</time></trkpt><trkpt lat="59.4566559792" lon="31.0886263847"><time>2026-09-02T09:59:36Z</time></trkpt><trkpt lat="59.4566559792" lon="31.0884976387"><time>2026-09-02T09:59:38Z</time></trkpt><trkpt lat="59.4566988945" lon="31.0884761810"><time>2026-09-02T09:59:41Z</time></trkpt><trkpt lat="59.4567632675" lon="31.0884547234"><time>2026-09-02T09:59:43Z</time></trkpt><trkpt lat="59.4568061829" lon="31.0884976387"><time>2026-09-02T09:59:46Z</time></trkpt><trkpt lat="59.4568920135" lon="31.0886263847"><time>2026-09-02T09:59:48Z</time></trkpt><trkpt lat="59.4569134712" lon="31.0886907578"><time>2026-09-02T09:59:51Z</time></trkpt><trkpt lat="59.4569349289" lon="31.0888195038"><time>2026-09-02T09:59:53Z</time></trkpt><trkpt lat="59.4569349289" lon="31.0888838768"><time>2026-09-02T09:59:56Z</time></trkpt><trkpt lat="59.4569778442" lon="31.0889911652"><time>2026-09-02T09:59:58Z</time></trkpt><trkpt lat="59.4569993019" lon="31.0890769958"><time>2026-09-02T10:00:01Z</time></trkpt><trkpt lat="59.4569778442" lon="31.0892915726"><time>2026-09-02T10:00:03Z</time></trkpt><trkpt lat="59.4569563866" lon="31.0893988609"><time>2026-09-02T10:00:06Z</time></trkpt><trkpt lat="59.4569349289" lon="31.0895276070"><time>2026-09-02T10:00:08Z</time></trkpt><trkpt lat="59.4569349289" lon="31.0895061493"><time>2026-09-02T10:00:11Z</time></trkpt><trkpt lat="59.4568920135" lon="31.0893130302"><time>2026-09-02T10:00:13Z</time></trkpt><trkpt lat="59.4567632675" lon="31.0892057419"><time>2026-09-02T10:00:16Z</time></trkpt><trkpt lat="59.4566559792" lon="31.0890340805"><time>2026-09-02T10:00:18Z</time></trkpt><trkpt lat="59.4566130638" lon="31.0889482498"><time>2026-09-02T10:00:21Z</time></trkpt><trkpt lat="59.4565486908" lon="31.0888195038"><time>2026-09-02T10:00:23Z</time></trkpt><trkpt lat="59.4565057755" lon="31.0886263847"><time>2026-09-02T10:00:26Z</time></trkpt><trkpt lat="59.4564414024" lon="31.0884547234"><time>2026-09-02T10:00:28Z</time></trkpt><trkpt lat="59.4563984871" lon="31.0884332657"><time>2026-09-02T10:00:31Z</time></trkpt><trkpt lat="59.4562911987" lon="31.0884118080"><time>2026-09-02T10:00:33Z</time></trkpt><trkpt lat="59.4562268257" lon="31.0884118080"><time>2026-09-02T10:00:36Z</time></trkpt><trkpt lat="59.4561409950" lon="31.0884761810"><time>2026-09-02T10:00:38Z</time></trkpt><trkpt lat="59.4561624527" lon="31.0885620117"><time>2026-09-02T10:00:41Z</time></trkpt><trkpt lat="59.4562482834" lon="31.0886693001"><time>2026-09-02T10:00:43Z</time></trkpt><trkpt lat="59.4562482834" lon="31.0887336731"><time>2026-09-02T10:00:46Z</time></trkpt><trkpt lat="59.4562911987" lon="31.0887765884"><time>2026-09-02T10:00:48Z</time></trkpt><trkpt lat="59.4563126564" lon="31.0887980461"><time>2026-09-02T10:00:51Z</time></trkpt><trkpt lat="59.4563555717" lon="31.0888409615"><time>2026-09-02T10:00:53Z</time></trkpt><trkpt lat="59.4563555717" lon="31.0888624191"><time>2026-09-02T10:00:56Z</time></trkpt><trkpt lat="59.4563770294" lon="31.0889053345"><time>2026-09-02T10:00:58Z</time></trkpt><trkpt lat="59.4563984871" lon="31.0889482498"><time>2026-09-02T10:01:01Z</time></trkpt><trkpt lat="59.4564414024" lon="31.0890126228"><time>2026-09-02T10:01:03Z</time></trkpt><trkpt lat="59.4564843178" lon="31.0890340805"><time>2026-09-02T10:01:06Z</time></trkpt><trkpt lat="59.4565057755" lon="31.0890126228"><time>2026-09-02T10:01:08Z</time></trkpt><trkpt lat="59.4565057755" lon="31.0889911652"><time>2026-09-02T10:01:11Z</time></trkpt><trkpt lat="59.4564843178" lon="31.0890340805"><time>2026-09-02T10:01:13Z</time></trkpt><trkpt lat="59.4564843178" lon="31.0890126228"><time>2026-09-02T10:01:16Z</time></trkpt><trkpt lat="59.4565057755" lon="31.0889697075"><time>2026-09-02T10:01:18Z</time></trkpt><trkpt lat="59.4565272331" lon="31.0889267921"><time>2026-09-02T10:01:21Z</time></trkpt><trkpt lat="59.4565701485" lon="31.0888195038"><time>2026-09-02T10:01:23Z</time></trkpt><trkpt lat="59.4565701485" lon="31.0887551308"><time>2026-09-02T10:01:26Z</time></trkpt><trkpt lat="59.4565486908" lon="31.0887122154"><time>2026-09-02T10:01:28Z</time></trkpt><trkpt lat="59.4565486908" lon="31.0887122154"><time>2026-09-02T10:01:31Z</time></trkpt><trkpt lat="59.4565916061" lon="31.0886693001"><time>2026-09-02T10:01:33Z</time></trkpt><trkpt lat="59.4565916061" lon="31.0886693001"><time>2026-09-02T10:01:36Z</time></trkpt><trkpt lat="59.4565916061" lon="31.0886263847"><time>2026-09-02T10:01:38Z</time></trkpt><trkpt lat="59.4565916061" lon="31.0886263847"><time>2026-09-02T10:01:41Z</time></trkpt><trkpt lat="59.4565916061" lon="31.0886049271"><time>2026-09-02T10:01:43Z</time></trkpt><trkpt lat="59.4566130638" lon="31.0886263847"><time>2026-09-02T10:01:46Z</time></trkpt><trkpt lat="59.4566130638" lon="31.0886263847"><time>2026-09-02T10:01:48Z</time></trkpt><trkpt lat="59.4566130638" lon="31.0886049271"><time>2026-09-02T10:01:51Z</time></trkpt><trkpt lat="59.4566130638" lon="31.0886049271"><time>2026-09-02T10:01:53Z</time></trkpt><trkpt lat="59.4566130638" lon="31.0886049271"><time>2026-09-02T10:01:56Z</time></trkpt><trkpt lat="59.4566345215" lon="31.0886478424"><time>2026-09-02T10:01:58Z</time></trkpt><trkpt lat="59.4566559792" lon="31.0886693001"><time>2026-09-02T10:02:01Z</time></trkpt><trkpt lat="59.4566559792" lon="31.0886478424"><time>2026-09-02T10:02:03Z</time></trkpt><trkpt lat="59.4566559792" lon="31.0886478424"><time>2026-09-02T10:02:06Z</time></trkpt><trkpt lat="59.4566559792" lon="31.0886478424"><time>2026-09-02T10:02:08Z</time></trkpt><trkpt lat="59.4566559792" lon="31.0886478424"><time>2026-09-02T10:02:11Z</time></trkpt><trkpt lat="59.4566559792" lon="31.0886478424"><time>2026-09-02T10:02:13Z</time></trkpt><trkpt lat="59.4566559792" lon="31.0886478424"><time>2026-09-02T10:02:16Z</time></trkpt><trkpt lat="59.4566774368" lon="31.0886693001"><time>2026-09-02T10:02:18Z</time></trkpt><trkpt lat="59.4566774368" lon="31.0886907578"><time>2026-09-02T10:02:21Z</time></trkpt><trkpt lat="59.4566988945" lon="31.0887336731"><time>2026-09-02T10:02:23Z</time></trkpt><trkpt lat="59.4566988945" lon="31.0887336731"><time>2026-09-02T10:02:26Z</time></trkpt><trkpt lat="59.4566988945" lon="31.0887336731"><time>2026-09-02T10:02:28Z</time></trkpt><trkpt lat="59.4566988945" lon="31.0887551308"><time>2026-09-02T10:02:31Z</time></trkpt><trkpt lat="59.4566345215" lon="31.0887551308"><time>2026-09-02T10:02:33Z</time></trkpt><trkpt lat="59.4566130638" lon="31.0887551308"><time>2026-09-02T10:02:36Z</time></trkpt><trkpt lat="59.4566345215" lon="31.0887336731"><time>2026-09-02T10:02:38Z</time></trkpt><trkpt lat="59.4566345215" lon="31.0887336731"><time>2026-09-02T10:02:41Z</time></trkpt><trkpt lat="59.4566345215" lon="31.0887336731"><time>2026-09-02T10:02:43Z</time></trkpt><trkpt lat="59.4566345215" lon="31.0887336731"><time>2026-09-02T10:02:46Z</time></trkpt><trkpt lat="59.4566345215" lon="31.0887336731"><time>2026-09-02T10:02:48Z</time></trkpt><trkpt lat="59.4566345215" lon="31.0887336731"><time>2026-09-02T10:02:51Z</time></trkpt><trkpt lat="59.4566345215" lon="31.0887336731"><time>2026-09-02T10:02:53Z</time></trkpt><trkpt lat="59.4566345215" lon="31.0887336731"><time>2026-09-02T10:02:56Z</time></trkpt><trkpt lat="59.4566345215" lon="31.0887336731"><time>2026-09-02T10:02:58Z</time></trkpt><trkpt lat="59.4566345215" lon="31.0887336731"><time>2026-09-02T10:03:01Z</time></trkpt><trkpt lat="59.4566345215" lon="31.0887122154"><time>2026-09-02T10:03:03Z</time></trkpt><trkpt lat="59.4566559792" lon="31.0886263847"><time>2026-09-02T10:03:06Z</time></trkpt><trkpt lat="59.4567418098" lon="31.0885620117"><time>2026-09-02T10:03:08Z</time></trkpt><trkpt lat="59.4568061829" lon="31.0886478424"><time>2026-09-02T10:03:11Z</time></trkpt><trkpt lat="59.4569349289" lon="31.0885834694"><time>2026-09-02T10:03:13Z</time></trkpt><trkpt lat="59.4569349289" lon="31.0885834694"><time>2026-09-02T10:03:16Z</time></trkpt><trkpt lat="59.4568920135" lon="31.0884976387"><time>2026-09-02T10:03:18Z</time></trkpt><trkpt lat="59.4568490982" lon="31.0884547234"><time>2026-09-02T10:03:21Z</time></trkpt><trkpt lat="59.4568276405" lon="31.0883688927"><time>2026-09-02T10:03:23Z</time></trkpt><trkpt lat="59.4568276405" lon="31.0883259773"><time>2026-09-02T10:03:26Z</time></trkpt><trkpt lat="59.4568490982" lon="31.0882830620"><time>2026-09-02T10:03:28Z</time></trkpt><trkpt lat="59.4568276405" lon="31.0882830620"><time>2026-09-02T10:03:31Z</time></trkpt><trkpt lat="59.4568061829" lon="31.0882830620"><time>2026-09-02T10:03:33Z</time></trkpt><trkpt lat="59.4567847252" lon="31.0883045197"><time>2026-09-02T10:03:36Z</time></trkpt><trkpt lat="59.4568061829" lon="31.0883045197"><time>2026-09-02T10:03:38Z</time></trkpt><trkpt lat="59.4568061829" lon="31.0882830620"><time>2026-09-02T10:03:41Z</time></trkpt><trkpt lat="59.4568276405" lon="31.0882830620"><time>2026-09-02T10:03:43Z</time></trkpt><trkpt lat="59.4568276405" lon="31.0882830620"><time>2026-09-02T10:03:46Z</time></trkpt><trkpt lat="59.4568490982" lon="31.0882616043"><time>2026-09-02T10:03:48Z</time></trkpt><trkpt lat="59.4568705559" lon="31.0882616043"><time>2026-09-02T10:03:51Z</time></trkpt><trkpt lat="59.4569134712" lon="31.0882401466"><time>2026-09-02T10:03:53Z</time></trkpt><trkpt lat="59.4569134712" lon="31.0882186890"><time>2026-09-02T10:03:56Z</time></trkpt><trkpt lat="59.4568920135" lon="31.0881972313"><time>2026-09-02T10:03:58Z</time></trkpt><trkpt lat="59.4568920135" lon="31.0881972313"><time>2026-09-02T10:04:01Z</time></trkpt><trkpt lat="59.4568920135" lon="31.0881972313"><time>2026-09-02T10:04:03Z</time></trkpt><trkpt lat="59.4568920135" lon="31.0881543159"><time>2026-09-02T10:04:06Z</time></trkpt><trkpt lat="59.4568920135" lon="31.0881328583"><time>2026-09-02T10:04:08Z</time></trkpt><trkpt lat="59.4568920135" lon="31.0881328583"><time>2026-09-02T10:04:11Z</time></trkpt><trkpt lat="59.4568920135" lon="31.0881328583"><time>2026-09-02T10:04:13Z</time></trkpt><trkpt lat="59.4568920135" lon="31.0881328583"><time>2026-09-02T10:04:16Z</time></trkpt><trkpt lat="59.4568920135" lon="31.0881328583"><time>2026-09-02T10:04:18Z</time></trkpt><trkpt lat="59.4568920135" lon="31.0881328583"><time>2026-09-02T10:04:21Z</time></trkpt><trkpt lat="59.4568920135" lon="31.0881328583"><time>2026-09-02T10:04:23Z</time></trkpt><trkpt lat="59.4569134712" lon="31.0881114006"><time>2026-09-02T10:04:26Z</time></trkpt><trkpt lat="59.4569134712" lon="31.0881114006"><time>2026-09-02T10:04:28Z</time></trkpt><trkpt lat="59.4569134712" lon="31.0881114006"><time>2026-09-02T10:04:31Z</time></trkpt><trkpt lat="59.4569134712" lon="31.0881114006"><time>2026-09-02T10:04:33Z</time></trkpt><trkpt lat="59.4569134712" lon="31.0881114006"><time>2026-09-02T10:04:36Z</time></trkpt><trkpt lat="59.4569134712" lon="31.0880899429"><time>2026-09-02T10:04:38Z</time></trkpt><trkpt lat="59.4569134712" lon="31.0880684853"><time>2026-09-02T10:04:41Z</time></trkpt><trkpt lat="59.4569134712" lon="31.0880684853"><time>2026-09-02T10:04:43Z</time></trkpt><trkpt lat="59.4569134712" lon="31.0880684853"><time>2026-09-02T10:04:46Z</time></trkpt><trkpt lat="59.4569134712" lon="31.0880684853"><time>2026-09-02T10:04:48Z</time></trkpt><trkpt lat="59.4569134712" lon="31.0880684853"><time>2026-09-02T10:04:51Z</time></trkpt><trkpt lat="59.4569134712" lon="31.0880684853"><time>2026-09-02T10:04:53Z</time></trkpt><trkpt lat="59.4569134712" lon="31.0880684853"><time>2026-09-02T10:04:56Z</time></trkpt><trkpt lat="59.4569134712" lon="31.0880684853"><time>2026-09-02T10:04:58Z</time></trkpt><trkpt lat="59.4569134712" lon="31.0880684853"><time>2026-09-02T10:05:01Z</time></trkpt><trkpt lat="59.4569134712" lon="31.0880684853"><time>2026-09-02T10:05:03Z</time></trkpt><trkpt lat="59.4569134712" lon="31.0880684853"><time>2026-09-02T10:05:06Z</time></trkpt><trkpt lat="59.4569134712" lon="31.0880470276"><time>2026-09-02T10:05:08Z</time></trkpt><trkpt lat="59.4569349289" lon="31.0880255699"><time>2026-09-02T10:05:11Z</time></trkpt><trkpt lat="59.4569349289" lon="31.0880255699"><time>2026-09-02T10:05:13Z</time></trkpt><trkpt lat="59.4569349289" lon="31.0880255699"><time>2026-09-02T10:05:16Z</time></trkpt><trkpt lat="59.4569563866" lon="31.0879826546"><time>2026-09-02T10:05:18Z</time></trkpt><trkpt lat="59.4569993019" lon="31.0879397392"><time>2026-09-02T10:05:21Z</time></trkpt><trkpt lat="59.4569993019" lon="31.0879397392"><time>2026-09-02T10:05:23Z</time></trkpt><trkpt lat="59.4569993019" lon="31.0879397392"><time>2026-09-02T10:05:26Z</time></trkpt><trkpt lat="59.4569993019" lon="31.0879397392"><time>2026-09-02T10:05:28Z</time></trkpt><trkpt lat="59.4570207596" lon="31.0879182816"><time>2026-09-02T10:05:31Z</time></trkpt><trkpt lat="59.4570636749" lon="31.0878539085"><time>2026-09-02T10:05:33Z</time></trkpt><trkpt lat="59.4570636749" lon="31.0878539085"><time>2026-09-02T10:05:36Z</time></trkpt><trkpt lat="59.4570636749" lon="31.0878539085"><time>2026-09-02T10:05:38Z</time></trkpt><trkpt lat="59.4570636749" lon="31.0878539085"><time>2026-09-02T10:05:41Z</time></trkpt><trkpt lat="59.4571280479" lon="31.0878753662"><time>2026-09-02T10:05:43Z</time></trkpt><trkpt lat="59.4571495056" lon="31.0878753662"><time>2026-09-02T10:05:46Z</time></trkpt><trkpt lat="59.4571709633" lon="31.0878753662"><time>2026-09-02T10:05:48Z</time></trkpt><trkpt lat="59.4571924210" lon="31.0878753662"><time>2026-09-02T10:05:51Z</time></trkpt><trkpt lat="59.4572138786" lon="31.0878753662"><time>2026-09-02T10:05:53Z</time></trkpt><trkpt lat="59.4572567940" lon="31.0879182816"><time>2026-09-02T10:05:56Z</time></trkpt><trkpt lat="59.4572782516" lon="31.0879397392"><time>2026-09-02T10:05:58Z</time></trkpt><trkpt lat="59.4572997093" lon="31.0879611969"><time>2026-09-02T10:06:01Z</time></trkpt><trkpt lat="59.4572997093" lon="31.0879611969"><time>2026-09-02T10:06:03Z</time></trkpt><trkpt lat="59.4572997093" lon="31.0879611969"><time>2026-09-02T10:06:06Z</time></trkpt><trkpt lat="59.4572997093" lon="31.0879611969"><time>2026-09-02T10:06:08Z</time></trkpt><trkpt lat="59.4572997093" lon="31.0879611969"><time>2026-09-02T10:06:11Z</time></trkpt><trkpt lat="59.4572997093" lon="31.0879611969"><time>2026-09-02T10:06:13Z</time></trkpt><trkpt lat="59.4572997093" lon="31.0879611969"><time>2026-09-02T10:06:16Z</time></trkpt><trkpt lat="59.4572997093" lon="31.0879611969"><time>2026-09-02T10:06:18Z</time></trkpt><trkpt lat="59.4572997093" lon="31.0879611969"><time>2026-09-02T10:06:21Z</time></trkpt><trkpt lat="59.4573211670" lon="31.0879826546"><time>2026-09-02T10:06:23Z</time></trkpt><trkpt lat="59.4573426247" lon="31.0879826546"><time>2026-09-02T10:06:26Z</time></trkpt><trkpt lat="59.4573426247" lon="31.0879826546"><time>2026-09-02T10:06:28Z</time></trkpt><trkpt lat="59.4573426247" lon="31.0879826546"><time>2026-09-02T10:06:31Z</time></trkpt><trkpt lat="59.4573426247" lon="31.0879826546"><time>2026-09-02T10:06:33Z</time></trkpt><trkpt lat="59.4573426247" lon="31.0879826546"><time>2026-09-02T10:06:36Z</time></trkpt><trkpt lat="59.4573426247" lon="31.0879826546"><time>2026-09-02T10:06:38Z</time></trkpt><trkpt lat="59.4573426247" lon="31.0879826546"><time>2026-09-02T10:06:41Z</time></trkpt><trkpt lat="59.4573426247" lon="31.0879826546"><time>2026-09-02T10:06:43Z</time></trkpt><trkpt lat="59.4573426247" lon="31.0879826546"><time>2026-09-02T10:06:46Z</time></trkpt><trkpt lat="59.4573426247" lon="31.0880041122"><time>2026-09-02T10:06:48Z</time></trkpt><trkpt lat="59.4573426247" lon="31.0880041122"><time>2026-09-02T10:06:51Z</time></trkpt><trkpt lat="59.4573426247" lon="31.0880041122"><time>2026-09-02T10:06:53Z</time></trkpt><trkpt lat="59.4573426247" lon="31.0880041122"><time>2026-09-02T10:06:56Z</time></trkpt><trkpt lat="59.4573426247" lon="31.0880041122"><time>2026-09-02T10:06:58Z</time></trkpt><trkpt lat="59.4573426247" lon="31.0880255699"><time>2026-09-02T10:07:01Z</time></trkpt><trkpt lat="59.4573426247" lon="31.0880684853"><time>2026-09-02T10:07:03Z</time></trkpt><trkpt lat="59.4573640823" lon="31.0881114006"><time>2026-09-02T10:07:06Z</time></trkpt><trkpt lat="59.4574069977" lon="31.0881114006"><time>2026-09-02T10:07:08Z</time></trkpt><trkpt lat="59.4574284554" lon="31.0881328583"><time>2026-09-02T10:07:11Z</time></trkpt><trkpt lat="59.4574499130" lon="31.0881114006"><time>2026-09-02T10:07:13Z</time></trkpt><trkpt lat="59.4574499130" lon="31.0881328583"><time>2026-09-02T10:07:16Z</time></trkpt><trkpt lat="59.4574499130" lon="31.0881543159"><time>2026-09-02T10:07:18Z</time></trkpt><trkpt lat="59.4574499130" lon="31.0881543159"><time>2026-09-02T10:07:21Z</time></trkpt><trkpt lat="59.4574499130" lon="31.0881543159"><time>2026-09-02T10:07:23Z</time></trkpt><trkpt lat="59.4574499130" lon="31.0881543159"><time>2026-09-02T10:07:26Z</time></trkpt><trkpt lat="59.4574499130" lon="31.0881757736"><time>2026-09-02T10:07:28Z</time></trkpt><trkpt lat="59.4574499130" lon="31.0881757736"><time>2026-09-02T10:07:31Z</time></trkpt><trkpt lat="59.4574713707" lon="31.0881543159"><time>2026-09-02T10:07:33Z</time></trkpt><trkpt lat="59.4574713707" lon="31.0881543159"><time>2026-09-02T10:07:36Z</time></trkpt><trkpt lat="59.4574713707" lon="31.0881543159"><time>2026-09-02T10:07:38Z</time></trkpt><trkpt lat="59.4574713707" lon="31.0881543159"><time>2026-09-02T10:07:41Z</time></trkpt><trkpt lat="59.4574713707" lon="31.0881543159"><time>2026-09-02T10:07:43Z</time></trkpt><trkpt lat="59.4574713707" lon="31.0881543159"><time>2026-09-02T10:07:46Z</time></trkpt><trkpt lat="59.4574713707" lon="31.0881328583"><time>2026-09-02T10:07:48Z</time></trkpt><trkpt lat="59.4574713707" lon="31.0881328583"><time>2026-09-02T10:07:51Z</time></trkpt><trkpt lat="59.4574713707" lon="31.0881328583"><time>2026-09-02T10:07:53Z</time></trkpt><trkpt lat="59.4574713707" lon="31.0881328583"><time>2026-09-02T10:07:56Z</time></trkpt><trkpt lat="59.4574713707" lon="31.0881328583"><time>2026-09-02T10:07:58Z</time></trkpt><trkpt lat="59.4574713707" lon="31.0881328583"><time>2026-09-02T10:08:01Z</time></trkpt><trkpt lat="59.4574713707" lon="31.0881328583"><time>2026-09-02T10:08:03Z</time></trkpt><trkpt lat="59.4574713707" lon="31.0881328583"><time>2026-09-02T10:08:06Z</time></trkpt><trkpt lat="59.4575142860" lon="31.0880684853"><time>2026-09-02T10:08:08Z</time></trkpt><trkpt lat="59.4575142860" lon="31.0880470276"><time>2026-09-02T10:08:11Z</time></trkpt><trkpt lat="59.4575357437" lon="31.0880470276"><time>2026-09-02T10:08:13Z</time></trkpt><trkpt lat="59.4575357437" lon="31.0880255699"><time>2026-09-02T10:08:16Z</time></trkpt><trkpt lat="59.4575357437" lon="31.0880255699"><time>2026-09-02T10:08:18Z</time></trkpt><trkpt lat="59.4575357437" lon="31.0880255699"><time>2026-09-02T10:08:21Z</time></trkpt><trkpt lat="59.4575786591" lon="31.0880255699"><time>2026-09-02T10:08:23Z</time></trkpt><trkpt lat="59.4576001167" lon="31.0880255699"><time>2026-09-02T10:08:26Z</time></trkpt><trkpt lat="59.4576001167" lon="31.0880041122"><time>2026-09-02T10:08:28Z</time></trkpt><trkpt lat="59.4576001167" lon="31.0880255699"><time>2026-09-02T10:08:31Z</time></trkpt><trkpt lat="59.4576430321" lon="31.0880470276"><time>2026-09-02T10:08:33Z</time></trkpt><trkpt lat="59.4576430321" lon="31.0880684853"><time>2026-09-02T10:08:36Z</time></trkpt><trkpt lat="59.4576430321" lon="31.0880684853"><time>2026-09-02T10:08:38Z</time></trkpt><trkpt lat="59.4576430321" lon="31.0880684853"><time>2026-09-02T10:08:41Z</time></trkpt><trkpt lat="59.4576430321" lon="31.0880684853"><time>2026-09-02T10:08:43Z</time></trkpt><trkpt lat="59.4576430321" lon="31.0880684853"><time>2026-09-02T10:08:46Z</time></trkpt><trkpt lat="59.4576430321" lon="31.0880684853"><time>2026-09-02T10:08:48Z</time></trkpt><trkpt lat="59.4576430321" lon="31.0880684853"><time>2026-09-02T10:08:51Z</time></trkpt><trkpt lat="59.4576430321" lon="31.0880684853"><time>2026-09-02T10:08:53Z</time></trkpt><trkpt lat="59.4576430321" lon="31.0880684853"><time>2026-09-02T10:08:56Z</time></trkpt><trkpt lat="59.4576430321" lon="31.0880684853"><time>2026-09-02T10:08:58Z</time></trkpt><trkpt lat="59.4576430321" lon="31.0880684853"><time>2026-09-02T10:09:01Z</time></trkpt><trkpt lat="59.4576430321" lon="31.0880684853"><time>2026-09-02T10:09:03Z</time></trkpt><trkpt lat="59.4576430321" lon="31.0880684853"><time>2026-09-02T10:09:06Z</time></trkpt><trkpt lat="59.4576430321" lon="31.0880684853"><time>2026-09-02T10:09:08Z</time></trkpt><trkpt lat="59.4576430321" lon="31.0880684853"><time>2026-09-02T10:09:11Z</time></trkpt><trkpt lat="59.4576430321" lon="31.0880255699"><time>2026-09-02T10:09:13Z</time></trkpt><trkpt lat="59.4576430321" lon="31.0880255699"><time>2026-09-02T10:09:16Z</time></trkpt><trkpt lat="59.4576430321" lon="31.0880255699"><time>2026-09-02T10:09:18Z</time></trkpt><trkpt lat="59.4576430321" lon="31.0880255699"><time>2026-09-02T10:09:21Z</time></trkpt><trkpt lat="59.4576430321" lon="31.0880255699"><time>2026-09-02T10:09:23Z</time></trkpt><trkpt lat="59.4576430321" lon="31.0880255699"><time>2026-09-02T10:09:26Z</time></trkpt><trkpt lat="59.4576215744" lon="31.0879826546"><time>2026-09-02T10:09:28Z</time></trkpt><trkpt lat="59.4576215744" lon="31.0879826546"><time>2026-09-02T10:09:31Z</time></trkpt><trkpt lat="59.4576215744" lon="31.0879826546"><time>2026-09-02T10:09:33Z</time></trkpt><trkpt lat="59.4576215744" lon="31.0879826546"><time>2026-09-02T10:09:36Z</time></trkpt><trkpt lat="59.4576001167" lon="31.0880255699"><time>2026-09-02T10:09:38Z</time></trkpt><trkpt lat="59.4576001167" lon="31.0880684853"><time>2026-09-02T10:09:41Z</time></trkpt><trkpt lat="59.4576001167" lon="31.0881543159"><time>2026-09-02T10:09:43Z</time></trkpt><trkpt lat="59.4576001167" lon="31.0881972313"><time>2026-09-02T10:09:46Z</time></trkpt><trkpt lat="59.4576215744" lon="31.0882401466"><time>2026-09-02T10:09:48Z</time></trkpt><trkpt lat="59.4576215744" lon="31.0882616043"><time>2026-09-02T10:09:51Z</time></trkpt><trkpt lat="59.4576215744" lon="31.0882616043"><time>2026-09-02T10:09:53Z</time></trkpt><trkpt lat="59.4576215744" lon="31.0882616043"><time>2026-09-02T10:09:56Z</time></trkpt><trkpt lat="59.4576215744" lon="31.0882616043"><time>2026-09-02T10:09:58Z</time></trkpt><trkpt lat="59.4576215744" lon="31.0882616043"><time>2026-09-02T10:10:01Z</time></trkpt><trkpt lat="59.4576215744" lon="31.0882616043"><time>2026-09-02T10:10:03Z</time></trkpt><trkpt lat="59.4576215744" lon="31.0882616043"><time>2026-09-02T10:10:06Z</time></trkpt><trkpt lat="59.4576215744" lon="31.0882616043"><time>2026-09-02T10:10:08Z</time></trkpt><trkpt lat="59.4576215744" lon="31.0882616043"><time>2026-09-02T10:10:11Z</time></trkpt><trkpt lat="59.4576215744" lon="31.0882616043"><time>2026-09-02T10:10:13Z</time></trkpt><trkpt lat="59.4576215744" lon="31.0882616043"><time>2026-09-02T10:10:16Z</time></trkpt><trkpt lat="59.4576001167" lon="31.0882616043"><time>2026-09-02T10:10:18Z</time></trkpt><trkpt lat="59.4576001167" lon="31.0882616043"><time>2026-09-02T10:10:21Z</time></trkpt><trkpt lat="59.4576001167" lon="31.0882616043"><time>2026-09-02T10:10:23Z</time></trkpt><trkpt lat="59.4576001167" lon="31.0882616043"><time>2026-09-02T10:10:26Z</time></trkpt><trkpt lat="59.4576001167" lon="31.0882616043"><time>2026-09-02T10:10:28Z</time></trkpt><trkpt lat="59.4576001167" lon="31.0882616043"><time>2026-09-02T10:10:31Z</time></trkpt><trkpt lat="59.4576001167" lon="31.0882616043"><time>2026-09-02T10:10:33Z</time></trkpt><trkpt lat="59.4576001167" lon="31.0882616043"><time>2026-09-02T10:10:36Z</time></trkpt><trkpt lat="59.4576001167" lon="31.0882616043"><time>2026-09-02T10:10:38Z</time></trkpt><trkpt lat="59.4576001167" lon="31.0882616043"><time>2026-09-02T10:10:41Z</time></trkpt><trkpt lat="59.4576001167" lon="31.0882616043"><time>2026-09-02T10:10:43Z</time></trkpt><trkpt lat="59.4576001167" lon="31.0882616043"><time>2026-09-02T10:10:46Z</time></trkpt><trkpt lat="59.4576001167" lon="31.0882616043"><time>2026-09-02T10:10:48Z</time></trkpt><trkpt lat="59.4576001167" lon="31.0882616043"><time>2026-09-02T10:10:51Z</time></trkpt><trkpt lat="59.4576001167" lon="31.0882616043"><time>2026-09-02T10:10:53Z</time></trkpt><trkpt lat="59.4576001167" lon="31.0882616043"><time>2026-09-02T10:10:56Z</time></trkpt><trkpt lat="59.4576001167" lon="31.0882830620"><time>2026-09-02T10:10:58Z</time></trkpt><trkpt lat="59.4576001167" lon="31.0883045197"><time>2026-09-02T10:11:01Z</time></trkpt><trkpt lat="59.4576215744" lon="31.0883259773"><time>2026-09-02T10:11:03Z</time></trkpt><trkpt lat="59.4576215744" lon="31.0883259773"><time>2026-09-02T10:11:06Z</time></trkpt><trkpt lat="59.4576215744" lon="31.0883259773"><time>2026-09-02T10:11:08Z</time></trkpt><trkpt lat="59.4576215744" lon="31.0883259773"><time>2026-09-02T10:11:11Z</time></trkpt><trkpt lat="59.4576215744" lon="31.0883259773"><time>2026-09-02T10:11:13Z</time></trkpt><trkpt lat="59.4576215744" lon="31.0883259773"><time>2026-09-02T10:11:16Z</time></trkpt><trkpt lat="59.4576215744" lon="31.0883259773"><time>2026-09-02T10:11:18Z</time></trkpt><trkpt lat="59.4576215744" lon="31.0883259773"><time>2026-09-02T10:11:21Z</time></trkpt><trkpt lat="59.4576215744" lon="31.0883259773"><time>2026-09-02T10:11:23Z</time></trkpt><trkpt lat="59.4576215744" lon="31.0883259773"><time>2026-09-02T10:11:26Z</time></trkpt><trkpt lat="59.4576215744" lon="31.0883259773"><time>2026-09-02T10:11:28Z</time></trkpt><trkpt lat="59.4576215744" lon="31.0883259773"><time>2026-09-02T10:11:31Z</time></trkpt><trkpt lat="59.4576215744" lon="31.0883259773"><time>2026-09-02T10:11:33Z</time></trkpt><trkpt lat="59.4576215744" lon="31.0883474350"><time>2026-09-02T10:11:36Z</time></trkpt><trkpt lat="59.4576215744" lon="31.0883688927"><time>2026-09-02T10:11:38Z</time></trkpt><trkpt lat="59.4576215744" lon="31.0883688927"><time>2026-09-02T10:11:41Z</time></trkpt><trkpt lat="59.4576215744" lon="31.0883688927"><time>2026-09-02T10:11:43Z</time></trkpt><trkpt lat="59.4576215744" lon="31.0883688927"><time>2026-09-02T10:11:46Z</time></trkpt><trkpt lat="59.4576215744" lon="31.0883688927"><time>2026-09-02T10:11:48Z</time></trkpt><trkpt lat="59.4576215744" lon="31.0883688927"><time>2026-09-02T10:11:51Z</time></trkpt><trkpt lat="59.4576215744" lon="31.0883688927"><time>2026-09-02T10:11:53Z</time></trkpt><trkpt lat="59.4576215744" lon="31.0883903503"><time>2026-09-02T10:11:56Z</time></trkpt><trkpt lat="59.4576430321" lon="31.0884332657"><time>2026-09-02T10:11:58Z</time></trkpt><trkpt lat="59.4576644897" lon="31.0884547234"><time>2026-09-02T10:12:01Z</time></trkpt><trkpt lat="59.4576859474" lon="31.0884761810"><time>2026-09-02T10:12:03Z</time></trkpt><trkpt lat="59.4576859474" lon="31.0884761810"><time>2026-09-02T10:12:06Z</time></trkpt><trkpt lat="59.4576859474" lon="31.0884761810"><time>2026-09-02T10:12:08Z</time></trkpt><trkpt lat="59.4576859474" lon="31.0884761810"><time>2026-09-02T10:12:11Z</time></trkpt><trkpt lat="59.4576859474" lon="31.0884761810"><time>2026-09-02T10:12:13Z</time></trkpt><trkpt lat="59.4576859474" lon="31.0884761810"><time>2026-09-02T10:12:16Z</time></trkpt><trkpt lat="59.4576859474" lon="31.0884761810"><time>2026-09-02T10:12:18Z</time></trkpt><trkpt lat="59.4576859474" lon="31.0884761810"><time>2026-09-02T10:12:21Z</time></trkpt><trkpt lat="59.4576859474" lon="31.0884761810"><time>2026-09-02T10:12:23Z</time></trkpt><trkpt lat="59.4576859474" lon="31.0884761810"><time>2026-09-02T10:12:26Z</time></trkpt><trkpt lat="59.4576859474" lon="31.0884761810"><time>2026-09-02T10:12:28Z</time></trkpt><trkpt lat="59.4576859474" lon="31.0884761810"><time>2026-09-02T10:12:31Z</time></trkpt><trkpt lat="59.4576859474" lon="31.0884761810"><time>2026-09-02T10:12:33Z</time></trkpt><trkpt lat="59.4576859474" lon="31.0884761810"><time>2026-09-02T10:12:36Z</time></trkpt><trkpt lat="59.4576859474" lon="31.0884761810"><time>2026-09-02T10:12:38Z</time></trkpt><trkpt lat="59.4576859474" lon="31.0884761810"><time>2026-09-02T10:12:41Z</time></trkpt><trkpt lat="59.4576859474" lon="31.0884761810"><time>2026-09-02T10:12:43Z</time></trkpt><trkpt lat="59.4576859474" lon="31.0884761810"><time>2026-09-02T10:12:46Z</time></trkpt><trkpt lat="59.4576859474" lon="31.0884761810"><time>2026-09-02T10:12:48Z</time></trkpt><trkpt lat="59.4577074051" lon="31.0884976387"><time>2026-09-02T10:12:51Z</time></trkpt><trkpt lat="59.4577288628" lon="31.0884761810"><time>2026-09-02T10:12:53Z</time></trkpt><trkpt lat="59.4577503204" lon="31.0884976387"><time>2026-09-02T10:12:56Z</time></trkpt><trkpt lat="59.4577717781" lon="31.0885190964"><time>2026-09-02T10:12:58Z</time></trkpt><trkpt lat="59.4578146935" lon="31.0884976387"><time>2026-09-02T10:13:01Z</time></trkpt><trkpt lat="59.4578576088" lon="31.0884976387"><time>2026-09-02T10:13:03Z</time></trkpt><trkpt lat="59.4578790665" lon="31.0884976387"><time>2026-09-02T10:13:06Z</time></trkpt><trkpt lat="59.4579434395" lon="31.0885190964"><time>2026-09-02T10:13:08Z</time></trkpt><trkpt lat="59.4579863548" lon="31.0884976387"><time>2026-09-02T10:13:11Z</time></trkpt><trkpt lat="59.4580721855" lon="31.0884547234"><time>2026-09-02T10:13:13Z</time></trkpt><trkpt lat="59.4581151009" lon="31.0884332657"><time>2026-09-02T10:13:16Z</time></trkpt><trkpt lat="59.4581580162" lon="31.0883903503"><time>2026-09-02T10:13:18Z</time></trkpt><trkpt lat="59.4581794739" lon="31.0883903503"><time>2026-09-02T10:13:21Z</time></trkpt><trkpt lat="59.4581794739" lon="31.0883903503"><time>2026-09-02T10:13:23Z</time></trkpt><trkpt lat="59.4581794739" lon="31.0883903503"><time>2026-09-02T10:13:26Z</time></trkpt><trkpt lat="59.4581794739" lon="31.0883903503"><time>2026-09-02T10:13:28Z</time></trkpt><trkpt lat="59.4581794739" lon="31.0883903503"><time>2026-09-02T10:13:31Z</time></trkpt><trkpt lat="59.4581580162" lon="31.0884332657"><time>2026-09-02T10:13:33Z</time></trkpt><trkpt lat="59.4581580162" lon="31.0885190964"><time>2026-09-02T10:13:36Z</time></trkpt><trkpt lat="59.4581365585" lon="31.0886049271"><time>2026-09-02T10:13:38Z</time></trkpt><trkpt lat="59.4581365585" lon="31.0886049271"><time>2026-09-02T10:13:41Z</time></trkpt><trkpt lat="59.4581151009" lon="31.0885405540"><time>2026-09-02T10:13:43Z</time></trkpt><trkpt lat="59.4580936432" lon="31.0884976387"><time>2026-09-02T10:13:46Z</time></trkpt><trkpt lat="59.4580721855" lon="31.0884547234"><time>2026-09-02T10:13:48Z</time></trkpt><trkpt lat="59.4580507278" lon="31.0884547234"><time>2026-09-02T10:13:51Z</time></trkpt><trkpt lat="59.4580507278" lon="31.0884547234"><time>2026-09-02T10:13:53Z</time></trkpt><trkpt lat="59.4580507278" lon="31.0884547234"><time>2026-09-02T10:13:56Z</time></trkpt><trkpt lat="59.4580507278" lon="31.0883903503"><time>2026-09-02T10:13:58Z</time></trkpt><trkpt lat="59.4580507278" lon="31.0883474350"><time>2026-09-02T10:14:01Z</time></trkpt><trkpt lat="59.4580507278" lon="31.0883474350"><time>2026-09-02T10:14:03Z</time></trkpt><trkpt lat="59.4580507278" lon="31.0883474350"><time>2026-09-02T10:14:06Z</time></trkpt><trkpt lat="59.4580507278" lon="31.0883688927"><time>2026-09-02T10:14:08Z</time></trkpt><trkpt lat="59.4580507278" lon="31.0883903503"><time>2026-09-02T10:14:11Z</time></trkpt><trkpt lat="59.4580507278" lon="31.0883903503"><time>2026-09-02T10:14:13Z</time></trkpt><trkpt lat="59.4580507278" lon="31.0883903503"><time>2026-09-02T10:14:16Z</time></trkpt><trkpt lat="59.4580507278" lon="31.0883903503"><time>2026-09-02T10:14:18Z</time></trkpt><trkpt lat="59.4580507278" lon="31.0883903503"><time>2026-09-02T10:14:21Z</time></trkpt><trkpt lat="59.4580507278" lon="31.0883903503"><time>2026-09-02T10:14:23Z</time></trkpt><trkpt lat="59.4580507278" lon="31.0883903503"><time>2026-09-02T10:14:26Z</time></trkpt><trkpt lat="59.4580507278" lon="31.0883903503"><time>2026-09-02T10:14:28Z</time></trkpt><trkpt lat="59.4580507278" lon="31.0883903503"><time>2026-09-02T10:14:31Z</time></trkpt><trkpt lat="59.4580507278" lon="31.0883903503"><time>2026-09-02T10:14:33Z</time></trkpt><trkpt lat="59.4580507278" lon="31.0883903503"><time>2026-09-02T10:14:36Z</time></trkpt><trkpt lat="59.4580507278" lon="31.0883903503"><time>2026-09-02T10:14:38Z</time></trkpt><trkpt lat="59.4580507278" lon="31.0883903503"><time>2026-09-02T10:14:41Z</time></trkpt><trkpt lat="59.4580507278" lon="31.0883903503"><time>2026-09-02T10:14:43Z</time></trkpt><trkpt lat="59.4580507278" lon="31.0883903503"><time>2026-09-02T10:14:46Z</time></trkpt><trkpt lat="59.4580507278" lon="31.0883903503"><time>2026-09-02T10:14:48Z</time></trkpt><trkpt lat="59.4580507278" lon="31.0883688927"><time>2026-09-02T10:14:51Z</time></trkpt><trkpt lat="59.4580721855" lon="31.0884332657"><time>2026-09-02T10:14:53Z</time></trkpt><trkpt lat="59.4580721855" lon="31.0884761810"><time>2026-09-02T10:14:56Z</time></trkpt><trkpt lat="59.4580936432" lon="31.0885190964"><time>2026-09-02T10:14:58Z</time></trkpt><trkpt lat="59.4580936432" lon="31.0885190964"><time>2026-09-02T10:15:01Z</time></trkpt><trkpt lat="59.4580936432" lon="31.0885190964"><time>2026-09-02T10:15:03Z</time></trkpt><trkpt lat="59.4580936432" lon="31.0885190964"><time>2026-09-02T10:15:06Z</time></trkpt><trkpt lat="59.4580936432" lon="31.0885190964"><time>2026-09-02T10:15:08Z</time></trkpt><trkpt lat="59.4580936432" lon="31.0885190964"><time>2026-09-02T10:15:11Z</time></trkpt><trkpt lat="59.4580936432" lon="31.0885190964"><time>2026-09-02T10:15:13Z</time></trkpt><trkpt lat="59.4580936432" lon="31.0885190964"><time>2026-09-02T10:15:16Z</time></trkpt><trkpt lat="59.4580936432" lon="31.0885190964"><time>2026-09-02T10:15:18Z</time></trkpt><trkpt lat="59.4580936432" lon="31.0885190964"><time>2026-09-02T10:15:21Z</time></trkpt><trkpt lat="59.4580936432" lon="31.0885190964"><time>2026-09-02T10:15:23Z</time></trkpt><trkpt lat="59.4580936432" lon="31.0885190964"><time>2026-09-02T10:15:26Z</time></trkpt><trkpt lat="59.4580936432" lon="31.0885190964"><time>2026-09-02T10:15:28Z</time></trkpt><trkpt lat="59.4580936432" lon="31.0885190964"><time>2026-09-02T10:15:31Z</time></trkpt><trkpt lat="59.4580936432" lon="31.0885190964"><time>2026-09-02T10:15:33Z</time></trkpt><trkpt lat="59.4580936432" lon="31.0885190964"><time>2026-09-02T10:15:36Z</time></trkpt><trkpt lat="59.4580936432" lon="31.0885190964"><time>2026-09-02T10:15:38Z</time></trkpt><trkpt lat="59.4580936432" lon="31.0885190964"><time>2026-09-02T10:15:41Z</time></trkpt><trkpt lat="59.4580936432" lon="31.0885190964"><time>2026-09-02T10:15:43Z</time></trkpt><trkpt lat="59.4580936432" lon="31.0885190964"><time>2026-09-02T10:15:46Z</time></trkpt><trkpt lat="59.4580936432" lon="31.0885190964"><time>2026-09-02T10:15:48Z</time></trkpt><trkpt lat="59.4580936432" lon="31.0885190964"><time>2026-09-02T10:15:51Z</time></trkpt><trkpt lat="59.4580936432" lon="31.0885190964"><time>2026-09-02T10:15:53Z</time></trkpt><trkpt lat="59.4580936432" lon="31.0885190964"><time>2026-09-02T10:15:56Z</time></trkpt><trkpt lat="59.4580936432" lon="31.0885190964"><time>2026-09-02T10:15:58Z</time></trkpt><trkpt lat="59.4580936432" lon="31.0885190964"><time>2026-09-02T10:16:01Z</time></trkpt><trkpt lat="59.4580936432" lon="31.0885190964"><time>2026-09-02T10:16:03Z</time></trkpt><trkpt lat="59.4580936432" lon="31.0885190964"><time>2026-09-02T10:16:06Z</time></trkpt><trkpt lat="59.4581151009" lon="31.0885405540"><time>2026-09-02T10:16:08Z</time></trkpt><trkpt lat="59.4581151009" lon="31.0885834694"><time>2026-09-02T10:16:11Z</time></trkpt><trkpt lat="59.4581151009" lon="31.0886049271"><time>2026-09-02T10:16:13Z</time></trkpt><trkpt lat="59.4581151009" lon="31.0886049271"><time>2026-09-02T10:16:16Z</time></trkpt><trkpt lat="59.4581151009" lon="31.0886049271"><time>2026-09-02T10:16:18Z</time></trkpt><trkpt lat="59.4581151009" lon="31.0886049271"><time>2026-09-02T10:16:21Z</time></trkpt><trkpt lat="59.4581151009" lon="31.0886049271"><time>2026-09-02T10:16:23Z</time></trkpt><trkpt lat="59.4581151009" lon="31.0886049271"><time>2026-09-02T10:16:26Z</time></trkpt><trkpt lat="59.4581151009" lon="31.0886049271"><time>2026-09-02T10:16:28Z</time></trkpt><trkpt lat="59.4581151009" lon="31.0886049271"><time>2026-09-02T10:16:31Z</time></trkpt><trkpt lat="59.4581151009" lon="31.0886263847"><time>2026-09-02T10:16:33Z</time></trkpt><trkpt lat="59.4581151009" lon="31.0886263847"><time>2026-09-02T10:16:36Z</time></trkpt><trkpt lat="59.4581365585" lon="31.0886049271"><time>2026-09-02T10:16:38Z</time></trkpt><trkpt lat="59.4581365585" lon="31.0886049271"><time>2026-09-02T10:16:41Z</time></trkpt><trkpt lat="59.4581365585" lon="31.0886049271"><time>2026-09-02T10:16:43Z</time></trkpt><trkpt lat="59.4581151009" lon="31.0886478424"><time>2026-09-02T10:16:46Z</time></trkpt><trkpt lat="59.4581365585" lon="31.0887122154"><time>2026-09-02T10:16:48Z</time></trkpt><trkpt lat="59.4581365585" lon="31.0887122154"><time>2026-09-02T10:16:51Z</time></trkpt><trkpt lat="59.4581365585" lon="31.0887122154"><time>2026-09-02T10:16:53Z</time></trkpt><trkpt lat="59.4581365585" lon="31.0887122154"><time>2026-09-02T10:16:56Z</time></trkpt><trkpt lat="59.4581365585" lon="31.0887122154"><time>2026-09-02T10:16:58Z</time></trkpt><trkpt lat="59.4581365585" lon="31.0887122154"><time>2026-09-02T10:17:01Z</time></trkpt><trkpt lat="59.4581365585" lon="31.0887122154"><time>2026-09-02T10:17:03Z</time></trkpt><trkpt lat="59.4581365585" lon="31.0887122154"><time>2026-09-02T10:17:06Z</time></trkpt><trkpt lat="59.4581365585" lon="31.0887122154"><time>2026-09-02T10:17:08Z</time></trkpt><trkpt lat="59.4581580162" lon="31.0887122154"><time>2026-09-02T10:17:11Z</time></trkpt><trkpt lat="59.4581794739" lon="31.0887336731"><time>2026-09-02T10:17:13Z</time></trkpt><trkpt lat="59.4581794739" lon="31.0887551308"><time>2026-09-02T10:17:16Z</time></trkpt><trkpt lat="59.4582223892" lon="31.0887980461"><time>2026-09-02T10:17:18Z</time></trkpt><trkpt lat="59.4582223892" lon="31.0887980461"><time>2026-09-02T10:17:21Z</time></trkpt><trkpt lat="59.4582223892" lon="31.0887980461"><time>2026-09-02T10:17:23Z</time></trkpt><trkpt lat="59.4582223892" lon="31.0887980461"><time>2026-09-02T10:17:26Z</time></trkpt><trkpt lat="59.4582438469" lon="31.0888195038"><time>2026-09-02T10:17:28Z</time></trkpt><trkpt lat="59.4582438469" lon="31.0888195038"><time>2026-09-02T10:17:31Z</time></trkpt><trkpt lat="59.4582438469" lon="31.0888195038"><time>2026-09-02T10:17:33Z</time></trkpt><trkpt lat="59.4582438469" lon="31.0888195038"><time>2026-09-02T10:17:36Z</time></trkpt><trkpt lat="59.4582653046" lon="31.0887980461"><time>2026-09-02T10:17:38Z</time></trkpt><trkpt lat="59.4582653046" lon="31.0887765884"><time>2026-09-02T10:17:41Z</time></trkpt><trkpt lat="59.4582653046" lon="31.0887551308"><time>2026-09-02T10:17:43Z</time></trkpt><trkpt lat="59.4582867622" lon="31.0887551308"><time>2026-09-02T10:17:46Z</time></trkpt><trkpt lat="59.4583082199" lon="31.0887765884"><time>2026-09-02T10:17:48Z</time></trkpt><trkpt lat="59.4583511353" lon="31.0887765884"><time>2026-09-02T10:17:51Z</time></trkpt><trkpt lat="59.4584155083" lon="31.0887765884"><time>2026-09-02T10:17:53Z</time></trkpt><trkpt lat="59.4584584236" lon="31.0887765884"><time>2026-09-02T10:17:56Z</time></trkpt><trkpt lat="59.4584798813" lon="31.0887551308"><time>2026-09-02T10:17:58Z</time></trkpt><trkpt lat="59.4584798813" lon="31.0887765884"><time>2026-09-02T10:18:01Z</time></trkpt><trkpt lat="59.4584798813" lon="31.0887765884"><time>2026-09-02T10:18:03Z</time></trkpt><trkpt lat="59.4584798813" lon="31.0887765884"><time>2026-09-02T10:18:06Z</time></trkpt><trkpt lat="59.4585227966" lon="31.0888195038"><time>2026-09-02T10:18:08Z</time></trkpt><trkpt lat="59.4585657120" lon="31.0888624191"><time>2026-09-02T10:18:11Z</time></trkpt><trkpt lat="59.4586300850" lon="31.0889697075"><time>2026-09-02T10:18:13Z</time></trkpt><trkpt lat="59.4586515427" lon="31.0890340805"><time>2026-09-02T10:18:16Z</time></trkpt><trkpt lat="59.4586515427" lon="31.0890769958"><time>2026-09-02T10:18:18Z</time></trkpt><trkpt lat="59.4586515427" lon="31.0891199112"><time>2026-09-02T10:18:21Z</time></trkpt><trkpt lat="59.4586515427" lon="31.0891199112"><time>2026-09-02T10:18:23Z</time></trkpt><trkpt lat="59.4586515427" lon="31.0891199112"><time>2026-09-02T10:18:26Z</time></trkpt><trkpt lat="59.4586515427" lon="31.0891199112"><time>2026-09-02T10:18:28Z</time></trkpt><trkpt lat="59.4586515427" lon="31.0891199112"><time>2026-09-02T10:18:31Z</time></trkpt><trkpt lat="59.4586515427" lon="31.0891199112"><time>2026-09-02T10:18:33Z</time></trkpt><trkpt lat="59.4586300850" lon="31.0890984535"><time>2026-09-02T10:18:36Z</time></trkpt><trkpt lat="59.4586730003" lon="31.0890984535"><time>2026-09-02T10:18:38Z</time></trkpt><trkpt lat="59.4586730003" lon="31.0890984535"><time>2026-09-02T10:18:41Z</time></trkpt><trkpt lat="59.4586730003" lon="31.0890984535"><time>2026-09-02T10:18:43Z</time></trkpt><trkpt lat="59.4586944580" lon="31.0890555382"><time>2026-09-02T10:18:46Z</time></trkpt><trkpt lat="59.4587588310" lon="31.0890555382"><time>2026-09-02T10:18:48Z</time></trkpt><trkpt lat="59.4588232040" lon="31.0890340805"><time>2026-09-02T10:18:51Z</time></trkpt><trkpt lat="59.4588875771" lon="31.0890126228"><time>2026-09-02T10:18:53Z</time></trkpt><trkpt lat="59.4589304924" lon="31.0889911652"><time>2026-09-02T10:18:56Z</time></trkpt><trkpt lat="59.4589304924" lon="31.0889267921"><time>2026-09-02T10:18:58Z</time></trkpt><trkpt lat="59.4589304924" lon="31.0889053345"><time>2026-09-02T10:19:01Z</time></trkpt><trkpt lat="59.4589304924" lon="31.0889053345"><time>2026-09-02T10:19:03Z</time></trkpt><trkpt lat="59.4589304924" lon="31.0889053345"><time>2026-09-02T10:19:06Z</time></trkpt><trkpt lat="59.4589304924" lon="31.0889053345"><time>2026-09-02T10:19:08Z</time></trkpt><trkpt lat="59.4589304924" lon="31.0888838768"><time>2026-09-02T10:19:11Z</time></trkpt><trkpt lat="59.4589304924" lon="31.0888838768"><time>2026-09-02T10:19:13Z</time></trkpt><trkpt lat="59.4589304924" lon="31.0888838768"><time>2026-09-02T10:19:16Z</time></trkpt><trkpt lat="59.4589304924" lon="31.0888838768"><time>2026-09-02T10:19:18Z</time></trkpt><trkpt lat="59.4589304924" lon="31.0888838768"><time>2026-09-02T10:19:21Z</time></trkpt><trkpt lat="59.4589304924" lon="31.0888838768"><time>2026-09-02T10:19:23Z</time></trkpt><trkpt lat="59.4589519501" lon="31.0888624191"><time>2026-09-02T10:19:26Z</time></trkpt><trkpt lat="59.4589734077" lon="31.0888624191"><time>2026-09-02T10:19:28Z</time></trkpt><trkpt lat="59.4589948654" lon="31.0888624191"><time>2026-09-02T10:19:31Z</time></trkpt><trkpt lat="59.4590377808" lon="31.0889053345"><time>2026-09-02T10:19:33Z</time></trkpt><trkpt lat="59.4590592384" lon="31.0888838768"><time>2026-09-02T10:19:36Z</time></trkpt><trkpt lat="59.4591236115" lon="31.0888838768"><time>2026-09-02T10:19:38Z</time></trkpt><trkpt lat="59.4591236115" lon="31.0888624191"><time>2026-09-02T10:19:41Z</time></trkpt><trkpt lat="59.4591236115" lon="31.0888624191"><time>2026-09-02T10:19:43Z</time></trkpt><trkpt lat="59.4591450691" lon="31.0888838768"><time>2026-09-02T10:19:46Z</time></trkpt><trkpt lat="59.4591665268" lon="31.0889482498"><time>2026-09-02T10:19:48Z</time></trkpt><trkpt lat="59.4591879845" lon="31.0889267921"><time>2026-09-02T10:19:51Z</time></trkpt><trkpt lat="59.4591879845" lon="31.0888195038"><time>2026-09-02T10:19:53Z</time></trkpt><trkpt lat="59.4592094421" lon="31.0887551308"><time>2026-09-02T10:19:56Z</time></trkpt><trkpt lat="59.4592308998" lon="31.0886907578"><time>2026-09-02T10:19:58Z</time></trkpt><trkpt lat="59.4592308998" lon="31.0886478424"><time>2026-09-02T10:20:01Z</time></trkpt><trkpt lat="59.4592523575" lon="31.0886478424"><time>2026-09-02T10:20:03Z</time></trkpt><trkpt lat="59.4592523575" lon="31.0886263847"><time>2026-09-02T10:20:06Z</time></trkpt><trkpt lat="59.4592523575" lon="31.0886263847"><time>2026-09-02T10:20:08Z</time></trkpt><trkpt lat="59.4592738152" lon="31.0886693001"><time>2026-09-02T10:20:11Z</time></trkpt><trkpt lat="59.4592738152" lon="31.0887765884"><time>2026-09-02T10:20:13Z</time></trkpt><trkpt lat="59.4592952728" lon="31.0888838768"><time>2026-09-02T10:20:16Z</time></trkpt><trkpt lat="59.4593381882" lon="31.0890126228"><time>2026-09-02T10:20:18Z</time></trkpt><trkpt lat="59.4593811035" lon="31.0890555382"><time>2026-09-02T10:20:21Z</time></trkpt><trkpt lat="59.4594025612" lon="31.0890984535"><time>2026-09-02T10:20:23Z</time></trkpt><trkpt lat="59.4594454765" lon="31.0891199112"><time>2026-09-02T10:20:26Z</time></trkpt><trkpt lat="59.4594669342" lon="31.0891199112"><time>2026-09-02T10:20:28Z</time></trkpt><trkpt lat="59.4594883919" lon="31.0890984535"><time>2026-09-02T10:20:31Z</time></trkpt><trkpt lat="59.4594669342" lon="31.0890555382"><time>2026-09-02T10:20:33Z</time></trkpt><trkpt lat="59.4594240189" lon="31.0889911652"><time>2026-09-02T10:20:36Z</time></trkpt><trkpt lat="59.4594240189" lon="31.0889697075"><time>2026-09-02T10:20:38Z</time></trkpt><trkpt lat="59.4594240189" lon="31.0889697075"><time>2026-09-02T10:20:41Z</time></trkpt><trkpt lat="59.4594240189" lon="31.0889697075"><time>2026-09-02T10:20:43Z</time></trkpt><trkpt lat="59.4594240189" lon="31.0889697075"><time>2026-09-02T10:20:46Z</time></trkpt><trkpt lat="59.4594240189" lon="31.0889697075"><time>2026-09-02T10:20:48Z</time></trkpt><trkpt lat="59.4594240189" lon="31.0889697075"><time>2026-09-02T10:20:51Z</time></trkpt><trkpt lat="59.4594240189" lon="31.0889697075"><time>2026-09-02T10:20:53Z</time></trkpt><trkpt lat="59.4594240189" lon="31.0889697075"><time>2026-09-02T10:20:56Z</time></trkpt><trkpt lat="59.4594240189" lon="31.0889697075"><time>2026-09-02T10:20:58Z</time></trkpt><trkpt lat="59.4594454765" lon="31.0889482498"><time>2026-09-02T10:21:01Z</time></trkpt><trkpt lat="59.4594454765" lon="31.0889267921"><time>2026-09-02T10:21:03Z</time></trkpt><trkpt lat="59.4594454765" lon="31.0889053345"><time>2026-09-02T10:21:06Z</time></trkpt><trkpt lat="59.4594454765" lon="31.0889053345"><time>2026-09-02T10:21:08Z</time></trkpt><trkpt lat="59.4594454765" lon="31.0889053345"><time>2026-09-02T10:21:11Z</time></trkpt><trkpt lat="59.4594883919" lon="31.0889053345"><time>2026-09-02T10:21:13Z</time></trkpt><trkpt lat="59.4595313072" lon="31.0889267921"><time>2026-09-02T10:21:16Z</time></trkpt><trkpt lat="59.4595742226" lon="31.0889053345"><time>2026-09-02T10:21:18Z</time></trkpt><trkpt lat="59.4595956802" lon="31.0889053345"><time>2026-09-02T10:21:21Z</time></trkpt><trkpt lat="59.4595956802" lon="31.0889053345"><time>2026-09-02T10:21:23Z</time></trkpt><trkpt lat="59.4596171379" lon="31.0889053345"><time>2026-09-02T10:21:26Z</time></trkpt><trkpt lat="59.4596171379" lon="31.0889053345"><time>2026-09-02T10:21:28Z</time></trkpt><trkpt lat="59.4595956802" lon="31.0889482498"><time>2026-09-02T10:21:31Z</time></trkpt><trkpt lat="59.4595956802" lon="31.0890126228"><time>2026-09-02T10:21:33Z</time></trkpt><trkpt lat="59.4596600533" lon="31.0891199112"><time>2026-09-02T10:21:36Z</time></trkpt><trkpt lat="59.4596815109" lon="31.0892271996"><time>2026-09-02T10:21:38Z</time></trkpt><trkpt lat="59.4597029686" lon="31.0893559456"><time>2026-09-02T10:21:41Z</time></trkpt><trkpt lat="59.4597029686" lon="31.0893774033"><time>2026-09-02T10:21:43Z</time></trkpt><trkpt lat="59.4596815109" lon="31.0894846916"><time>2026-09-02T10:21:46Z</time></trkpt><trkpt lat="59.4596815109" lon="31.0895490646"><time>2026-09-02T10:21:48Z</time></trkpt><trkpt lat="59.4596815109" lon="31.0896778107"><time>2026-09-02T10:21:51Z</time></trkpt><trkpt lat="59.4596815109" lon="31.0897207260"><time>2026-09-02T10:21:53Z</time></trkpt><trkpt lat="59.4596815109" lon="31.0897207260"><time>2026-09-02T10:21:56Z</time></trkpt><trkpt lat="59.4596815109" lon="31.0897207260"><time>2026-09-02T10:21:58Z</time></trkpt><trkpt lat="59.4596815109" lon="31.0897207260"><time>2026-09-02T10:22:01Z</time></trkpt><trkpt lat="59.4596815109" lon="31.0897207260"><time>2026-09-02T10:22:03Z</time></trkpt><trkpt lat="59.4596815109" lon="31.0897207260"><time>2026-09-02T10:22:06Z</time></trkpt><trkpt lat="59.4596815109" lon="31.0896992683"><time>2026-09-02T10:22:08Z</time></trkpt><trkpt lat="59.4597244263" lon="31.0896348953"><time>2026-09-02T10:22:11Z</time></trkpt><trkpt lat="59.4597458839" lon="31.0895490646"><time>2026-09-02T10:22:13Z</time></trkpt><trkpt lat="59.4597458839" lon="31.0895490646"><time>2026-09-02T10:22:16Z</time></trkpt><trkpt lat="59.4597244263" lon="31.0895490646"><time>2026-09-02T10:22:18Z</time></trkpt><trkpt lat="59.4597244263" lon="31.0895276070"><time>2026-09-02T10:22:21Z</time></trkpt><trkpt lat="59.4597244263" lon="31.0895276070"><time>2026-09-02T10:22:23Z</time></trkpt><trkpt lat="59.4597244263" lon="31.0895276070"><time>2026-09-02T10:22:26Z</time></trkpt><trkpt lat="59.4597458839" lon="31.0895276070"><time>2026-09-02T10:22:28Z</time></trkpt><trkpt lat="59.4597458839" lon="31.0895276070"><time>2026-09-02T10:22:31Z</time></trkpt><trkpt lat="59.4597458839" lon="31.0895276070"><time>2026-09-02T10:22:33Z</time></trkpt><trkpt lat="59.4597458839" lon="31.0895061493"><time>2026-09-02T10:22:36Z</time></trkpt><trkpt lat="59.4597244263" lon="31.0895705223"><time>2026-09-02T10:22:38Z</time></trkpt><trkpt lat="59.4597244263" lon="31.0896348953"><time>2026-09-02T10:22:41Z</time></trkpt><trkpt lat="59.4597029686" lon="31.0896778107"><time>2026-09-02T10:22:43Z</time></trkpt><trkpt lat="59.4597029686" lon="31.0896778107"><time>2026-09-02T10:22:46Z</time></trkpt><trkpt lat="59.4597029686" lon="31.0896992683"><time>2026-09-02T10:22:48Z</time></trkpt><trkpt lat="59.4597029686" lon="31.0896992683"><time>2026-09-02T10:22:51Z</time></trkpt><trkpt lat="59.4597029686" lon="31.0897207260"><time>2026-09-02T10:22:53Z</time></trkpt><trkpt lat="59.4596815109" lon="31.0897207260"><time>2026-09-02T10:22:56Z</time></trkpt><trkpt lat="59.4596815109" lon="31.0897636414"><time>2026-09-02T10:22:58Z</time></trkpt><trkpt lat="59.4596815109" lon="31.0898065567"><time>2026-09-02T10:23:01Z</time></trkpt><trkpt lat="59.4597029686" lon="31.0898494720"><time>2026-09-02T10:23:03Z</time></trkpt><trkpt lat="59.4597029686" lon="31.0898923874"><time>2026-09-02T10:23:06Z</time></trkpt><trkpt lat="59.4597029686" lon="31.0898923874"><time>2026-09-02T10:23:08Z</time></trkpt><trkpt lat="59.4597029686" lon="31.0898923874"><time>2026-09-02T10:23:11Z</time></trkpt><trkpt lat="59.4597029686" lon="31.0898923874"><time>2026-09-02T10:23:13Z</time></trkpt><trkpt lat="59.4597029686" lon="31.0898923874"><time>2026-09-02T10:23:16Z</time></trkpt><trkpt lat="59.4597029686" lon="31.0898923874"><time>2026-09-02T10:23:18Z</time></trkpt><trkpt lat="59.4597029686" lon="31.0898923874"><time>2026-09-02T10:23:21Z</time></trkpt><trkpt lat="59.4596815109" lon="31.0899353027"><time>2026-09-02T10:23:23Z</time></trkpt><trkpt lat="59.4596815109" lon="31.0899567604"><time>2026-09-02T10:23:26Z</time></trkpt><trkpt lat="59.4597029686" lon="31.0900640488"><time>2026-09-02T10:23:28Z</time></trkpt><trkpt lat="59.4597244263" lon="31.0901069641"><time>2026-09-02T10:23:31Z</time></trkpt><trkpt lat="59.4597458839" lon="31.0901927948"><time>2026-09-02T10:23:33Z</time></trkpt><trkpt lat="59.4597458839" lon="31.0902357101"><time>2026-09-02T10:23:36Z</time></trkpt><trkpt lat="59.4597458839" lon="31.0903215408"><time>2026-09-02T10:23:38Z</time></trkpt><trkpt lat="59.4597673416" lon="31.0903429985"><time>2026-09-02T10:23:41Z</time></trkpt><trkpt lat="59.4597673416" lon="31.0903429985"><time>2026-09-02T10:23:43Z</time></trkpt><trkpt lat="59.4597673416" lon="31.0903429985"><time>2026-09-02T10:23:46Z</time></trkpt><trkpt lat="59.4597673416" lon="31.0903429985"><time>2026-09-02T10:23:48Z</time></trkpt><trkpt lat="59.4597673416" lon="31.0903644562"><time>2026-09-02T10:23:51Z</time></trkpt><trkpt lat="59.4597887993" lon="31.0904288292"><time>2026-09-02T10:23:53Z</time></trkpt><trkpt lat="59.4597887993" lon="31.0904932022"><time>2026-09-02T10:23:56Z</time></trkpt><trkpt lat="59.4597887993" lon="31.0905790329"><time>2026-09-02T10:23:58Z</time></trkpt><trkpt lat="59.4597887993" lon="31.0905790329"><time>2026-09-02T10:24:01Z</time></trkpt><trkpt lat="59.4597673416" lon="31.0906004906"><time>2026-09-02T10:24:03Z</time></trkpt><trkpt lat="59.4597458839" lon="31.0906004906"><time>2026-09-02T10:24:06Z</time></trkpt><trkpt lat="59.4597244263" lon="31.0906219482"><time>2026-09-02T10:24:08Z</time></trkpt><trkpt lat="59.4597244263" lon="31.0906219482"><time>2026-09-02T10:24:11Z</time></trkpt><trkpt lat="59.4597244263" lon="31.0906219482"><time>2026-09-02T10:24:13Z</time></trkpt><trkpt lat="59.4597244263" lon="31.0906219482"><time>2026-09-02T10:24:16Z</time></trkpt><trkpt lat="59.4597244263" lon="31.0906219482"><time>2026-09-02T10:24:18Z</time></trkpt><trkpt lat="59.4597244263" lon="31.0906219482"><time>2026-09-02T10:24:21Z</time></trkpt><trkpt lat="59.4597244263" lon="31.0906219482"><time>2026-09-02T10:24:23Z</time></trkpt><trkpt lat="59.4597244263" lon="31.0906219482"><time>2026-09-02T10:24:26Z</time></trkpt><trkpt lat="59.4597244263" lon="31.0906219482"><time>2026-09-02T10:24:28Z</time></trkpt><trkpt lat="59.4597244263" lon="31.0906219482"><time>2026-09-02T10:24:31Z</time></trkpt><trkpt lat="59.4597244263" lon="31.0906219482"><time>2026-09-02T10:24:33Z</time></trkpt><trkpt lat="59.4597244263" lon="31.0906219482"><time>2026-09-02T10:24:36Z</time></trkpt><trkpt lat="59.4597458839" lon="31.0906219482"><time>2026-09-02T10:24:38Z</time></trkpt><trkpt lat="59.4597887993" lon="31.0906219482"><time>2026-09-02T10:24:41Z</time></trkpt><trkpt lat="59.4598317146" lon="31.0905790329"><time>2026-09-02T10:24:43Z</time></trkpt><trkpt lat="59.4598531723" lon="31.0905790329"><time>2026-09-02T10:24:46Z</time></trkpt><trkpt lat="59.4598531723" lon="31.0905790329"><time>2026-09-02T10:24:48Z</time></trkpt><trkpt lat="59.4598531723" lon="31.0905790329"><time>2026-09-02T10:24:51Z</time></trkpt><trkpt lat="59.4598531723" lon="31.0906004906"><time>2026-09-02T10:24:53Z</time></trkpt><trkpt lat="59.4598531723" lon="31.0906219482"><time>2026-09-02T10:24:56Z</time></trkpt><trkpt lat="59.4598531723" lon="31.0906219482"><time>2026-09-02T10:24:58Z</time></trkpt><trkpt lat="59.4598531723" lon="31.0906219482"><time>2026-09-02T10:25:01Z</time></trkpt><trkpt lat="59.4598746300" lon="31.0907077789"><time>2026-09-02T10:25:03Z</time></trkpt><trkpt lat="59.4598960876" lon="31.0907292366"><time>2026-09-02T10:25:06Z</time></trkpt><trkpt lat="59.4598746300" lon="31.0907721519"><time>2026-09-02T10:25:08Z</time></trkpt><trkpt lat="59.4598746300" lon="31.0908150673"><time>2026-09-02T10:25:11Z</time></trkpt><trkpt lat="59.4598746300" lon="31.0909652710"><time>2026-09-02T10:25:13Z</time></trkpt><trkpt lat="59.4598746300" lon="31.0910511017"><time>2026-09-02T10:25:16Z</time></trkpt><trkpt lat="59.4599175453" lon="31.0911154747"><time>2026-09-02T10:25:18Z</time></trkpt><trkpt lat="59.4599175453" lon="31.0911583900"><time>2026-09-02T10:25:21Z</time></trkpt><trkpt lat="59.4599604607" lon="31.0912442207"><time>2026-09-02T10:25:23Z</time></trkpt><trkpt lat="59.4599819183" lon="31.0913085938"><time>2026-09-02T10:25:26Z</time></trkpt><trkpt lat="59.4600033760" lon="31.0913944244"><time>2026-09-02T10:25:28Z</time></trkpt><trkpt lat="59.4600248337" lon="31.0914587975"><time>2026-09-02T10:25:31Z</time></trkpt><trkpt lat="59.4600677490" lon="31.0915660858"><time>2026-09-02T10:25:33Z</time></trkpt><trkpt lat="59.4600892067" lon="31.0916090012"><time>2026-09-02T10:25:36Z</time></trkpt><trkpt lat="59.4601535797" lon="31.0916733742"><time>2026-09-02T10:25:38Z</time></trkpt><trkpt lat="59.4601750374" lon="31.0916948318"><time>2026-09-02T10:25:41Z</time></trkpt><trkpt lat="59.4601964951" lon="31.0916948318"><time>2026-09-02T10:25:43Z</time></trkpt><trkpt lat="59.4601964951" lon="31.0916519165"><time>2026-09-02T10:25:46Z</time></trkpt><trkpt lat="59.4601964951" lon="31.0915660858"><time>2026-09-02T10:25:48Z</time></trkpt><trkpt lat="59.4601750374" lon="31.0915231705"><time>2026-09-02T10:25:51Z</time></trkpt><trkpt lat="59.4601535797" lon="31.0915231705"><time>2026-09-02T10:25:53Z</time></trkpt><trkpt lat="59.4601321220" lon="31.0915231705"><time>2026-09-02T10:25:56Z</time></trkpt><trkpt lat="59.4600677490" lon="31.0915231705"><time>2026-09-02T10:25:58Z</time></trkpt><trkpt lat="59.4600248337" lon="31.0915231705"><time>2026-09-02T10:26:01Z</time></trkpt><trkpt lat="59.4600248337" lon="31.0915017128"><time>2026-09-02T10:26:03Z</time></trkpt><trkpt lat="59.4600248337" lon="31.0915017128"><time>2026-09-02T10:26:06Z</time></trkpt><trkpt lat="59.4599604607" lon="31.0914587975"><time>2026-09-02T10:26:08Z</time></trkpt><trkpt lat="59.4599175453" lon="31.0914587975"><time>2026-09-02T10:26:11Z</time></trkpt><trkpt lat="59.4598960876" lon="31.0914802551"><time>2026-09-02T10:26:13Z</time></trkpt><trkpt lat="59.4598531723" lon="31.0914587975"><time>2026-09-02T10:26:16Z</time></trkpt><trkpt lat="59.4598531723" lon="31.0913944244"><time>2026-09-02T10:26:18Z</time></trkpt><trkpt lat="59.4598317146" lon="31.0913300514"><time>2026-09-02T10:26:21Z</time></trkpt><trkpt lat="59.4597673416" lon="31.0912656784"><time>2026-09-02T10:26:23Z</time></trkpt><trkpt lat="59.4597458839" lon="31.0912442207"><time>2026-09-02T10:26:26Z</time></trkpt><trkpt lat="59.4597029686" lon="31.0913729668"><time>2026-09-02T10:26:28Z</time></trkpt><trkpt lat="59.4597029686" lon="31.0914802551"><time>2026-09-02T10:26:31Z</time></trkpt><trkpt lat="59.4596600533" lon="31.0915875435"><time>2026-09-02T10:26:33Z</time></trkpt><trkpt lat="59.4596171379" lon="31.0916733742"><time>2026-09-02T10:26:36Z</time></trkpt><trkpt lat="59.4595742226" lon="31.0918450356"><time>2026-09-02T10:26:38Z</time></trkpt><trkpt lat="59.4595527649" lon="31.0919308662"><time>2026-09-02T10:26:41Z</time></trkpt><trkpt lat="59.4595098495" lon="31.0920166969"><time>2026-09-02T10:26:43Z</time></trkpt><trkpt lat="59.4594669342" lon="31.0920381546"><time>2026-09-02T10:26:46Z</time></trkpt><trkpt lat="59.4594240189" lon="31.0921025276"><time>2026-09-02T10:26:48Z</time></trkpt><trkpt lat="59.4594025612" lon="31.0921669006"><time>2026-09-02T10:26:51Z</time></trkpt><trkpt lat="59.4593811035" lon="31.0922098160"><time>2026-09-02T10:26:53Z</time></trkpt><trkpt lat="59.4593811035" lon="31.0922098160"><time>2026-09-02T10:26:56Z</time></trkpt><trkpt lat="59.4593811035" lon="31.0922098160"><time>2026-09-02T10:26:58Z</time></trkpt><trkpt lat="59.4593811035" lon="31.0922098160"><time>2026-09-02T10:27:01Z</time></trkpt><trkpt lat="59.4594240189" lon="31.0921883583"><time>2026-09-02T10:27:03Z</time></trkpt><trkpt lat="59.4594669342" lon="31.0921669006"><time>2026-09-02T10:27:06Z</time></trkpt><trkpt lat="59.4595098495" lon="31.0921025276"><time>2026-09-02T10:27:08Z</time></trkpt><trkpt lat="59.4595313072" lon="31.0920596123"><time>2026-09-02T10:27:11Z</time></trkpt><trkpt lat="59.4595527649" lon="31.0919952393"><time>2026-09-02T10:27:13Z</time></trkpt><trkpt lat="59.4595956802" lon="31.0919308662"><time>2026-09-02T10:27:16Z</time></trkpt><trkpt lat="59.4596385956" lon="31.0918235779"><time>2026-09-02T10:27:18Z</time></trkpt><trkpt lat="59.4596600533" lon="31.0917377472"><time>2026-09-02T10:27:21Z</time></trkpt><trkpt lat="59.4596815109" lon="31.0917162895"><time>2026-09-02T10:27:23Z</time></trkpt><trkpt lat="59.4596815109" lon="31.0917162895"><time>2026-09-02T10:27:26Z</time></trkpt><trkpt lat="59.4596815109" lon="31.0917162895"><time>2026-09-02T10:27:28Z</time></trkpt><trkpt lat="59.4596815109" lon="31.0916948318"><time>2026-09-02T10:27:31Z</time></trkpt><trkpt lat="59.4596600533" lon="31.0916304588"><time>2026-09-02T10:27:33Z</time></trkpt><trkpt lat="59.4596385956" lon="31.0915875435"><time>2026-09-02T10:27:36Z</time></trkpt><trkpt lat="59.4596385956" lon="31.0915875435"><time>2026-09-02T10:27:38Z</time></trkpt><trkpt lat="59.4596385956" lon="31.0915875435"><time>2026-09-02T10:27:41Z</time></trkpt><trkpt lat="59.4596385956" lon="31.0915875435"><time>2026-09-02T10:27:43Z</time></trkpt><trkpt lat="59.4596385956" lon="31.0915875435"><time>2026-09-02T10:27:46Z</time></trkpt><trkpt lat="59.4596385956" lon="31.0915660858"><time>2026-09-02T10:27:48Z</time></trkpt><trkpt lat="59.4596385956" lon="31.0915660858"><time>2026-09-02T10:27:51Z</time></trkpt><trkpt lat="59.4596600533" lon="31.0915660858"><time>2026-09-02T10:27:53Z</time></trkpt><trkpt lat="59.4596600533" lon="31.0915660858"><time>2026-09-02T10:27:56Z</time></trkpt><trkpt lat="59.4596600533" lon="31.0915660858"><time>2026-09-02T10:27:58Z</time></trkpt><trkpt lat="59.4596600533" lon="31.0915660858"><time>2026-09-02T10:28:01Z</time></trkpt><trkpt lat="59.4596600533" lon="31.0915875435"><time>2026-09-02T10:28:03Z</time></trkpt><trkpt lat="59.4596815109" lon="31.0915875435"><time>2026-09-02T10:28:06Z</time></trkpt><trkpt lat="59.4596815109" lon="31.0915875435"><time>2026-09-02T10:28:08Z</time></trkpt><trkpt lat="59.4596815109" lon="31.0916304588"><time>2026-09-02T10:28:11Z</time></trkpt><trkpt lat="59.4596815109" lon="31.0916733742"><time>2026-09-02T10:28:13Z</time></trkpt><trkpt lat="59.4596815109" lon="31.0916948318"><time>2026-09-02T10:28:16Z</time></trkpt><trkpt lat="59.4597029686" lon="31.0917377472"><time>2026-09-02T10:28:18Z</time></trkpt><trkpt lat="59.4597029686" lon="31.0917377472"><time>2026-09-02T10:28:21Z</time></trkpt><trkpt lat="59.4597029686" lon="31.0917377472"><time>2026-09-02T10:28:23Z</time></trkpt><trkpt lat="59.4597029686" lon="31.0917377472"><time>2026-09-02T10:28:26Z</time></trkpt><trkpt lat="59.4597244263" lon="31.0917377472"><time>2026-09-02T10:28:28Z</time></trkpt><trkpt lat="59.4597244263" lon="31.0917377472"><time>2026-09-02T10:28:31Z</time></trkpt><trkpt lat="59.4597458839" lon="31.0917592049"><time>2026-09-02T10:28:33Z</time></trkpt><trkpt lat="59.4597458839" lon="31.0917592049"><time>2026-09-02T10:28:36Z</time></trkpt><trkpt lat="59.4597458839" lon="31.0917592049"><time>2026-09-02T10:28:38Z</time></trkpt><trkpt lat="59.4597458839" lon="31.0917592049"><time>2026-09-02T10:28:41Z</time></trkpt><trkpt lat="59.4597673416" lon="31.0917806625"><time>2026-09-02T10:28:43Z</time></trkpt><trkpt lat="59.4597673416" lon="31.0918235779"><time>2026-09-02T10:28:46Z</time></trkpt><trkpt lat="59.4597673416" lon="31.0918664932"><time>2026-09-02T10:28:48Z</time></trkpt><trkpt lat="59.4597673416" lon="31.0919094086"><time>2026-09-02T10:28:51Z</time></trkpt><trkpt lat="59.4597673416" lon="31.0919094086"><time>2026-09-02T10:28:53Z</time></trkpt><trkpt lat="59.4597673416" lon="31.0919094086"><time>2026-09-02T10:28:56Z</time></trkpt><trkpt lat="59.4597887993" lon="31.0919308662"><time>2026-09-02T10:28:58Z</time></trkpt><trkpt lat="59.4597887993" lon="31.0919308662"><time>2026-09-02T10:29:01Z</time></trkpt><trkpt lat="59.4597887993" lon="31.0919308662"><time>2026-09-02T10:29:03Z</time></trkpt><trkpt lat="59.4597887993" lon="31.0919308662"><time>2026-09-02T10:29:06Z</time></trkpt><trkpt lat="59.4597887993" lon="31.0919308662"><time>2026-09-02T10:29:08Z</time></trkpt><trkpt lat="59.4597887993" lon="31.0919523239"><time>2026-09-02T10:29:11Z</time></trkpt><trkpt lat="59.4598102570" lon="31.0920381546"><time>2026-09-02T10:29:13Z</time></trkpt><trkpt lat="59.4598317146" lon="31.0921025276"><time>2026-09-02T10:29:16Z</time></trkpt><trkpt lat="59.4598317146" lon="31.0921669006"><time>2026-09-02T10:29:18Z</time></trkpt><trkpt lat="59.4598317146" lon="31.0921669006"><time>2026-09-02T10:29:21Z</time></trkpt><trkpt lat="59.4598531723" lon="31.0921883583"><time>2026-09-02T10:29:23Z</time></trkpt><trkpt lat="59.4598531723" lon="31.0921669006"><time>2026-09-02T10:29:26Z</time></trkpt><trkpt lat="59.4598531723" lon="31.0921669006"><time>2026-09-02T10:29:28Z</time></trkpt><trkpt lat="59.4598531723" lon="31.0921669006"><time>2026-09-02T10:29:31Z</time></trkpt><trkpt lat="59.4598531723" lon="31.0921025276"><time>2026-09-02T10:29:33Z</time></trkpt><trkpt lat="59.4598531723" lon="31.0920596123"><time>2026-09-02T10:29:36Z</time></trkpt><trkpt lat="59.4598746300" lon="31.0920166969"><time>2026-09-02T10:29:38Z</time></trkpt><trkpt lat="59.4598746300" lon="31.0919952393"><time>2026-09-02T10:29:41Z</time></trkpt><trkpt lat="59.4598746300" lon="31.0919952393"><time>2026-09-02T10:29:43Z</time></trkpt><trkpt lat="59.4598746300" lon="31.0919952393"><time>2026-09-02T10:29:46Z</time></trkpt><trkpt lat="59.4598746300" lon="31.0919952393"><time>2026-09-02T10:29:48Z</time></trkpt><trkpt lat="59.4598746300" lon="31.0919952393"><time>2026-09-02T10:29:51Z</time></trkpt><trkpt lat="59.4598746300" lon="31.0919952393"><time>2026-09-02T10:29:53Z</time></trkpt><trkpt lat="59.4598746300" lon="31.0919952393"><time>2026-09-02T10:29:56Z</time></trkpt><trkpt lat="59.4598746300" lon="31.0919952393"><time>2026-09-02T10:29:58Z</time></trkpt><trkpt lat="59.4598746300" lon="31.0919952393"><time>2026-09-02T10:30:01Z</time></trkpt><trkpt lat="59.4598746300" lon="31.0919952393"><time>2026-09-02T10:30:03Z</time></trkpt><trkpt lat="59.4598746300" lon="31.0919952393"><time>2026-09-02T10:30:06Z</time></trkpt><trkpt lat="59.4598746300" lon="31.0919952393"><time>2026-09-02T10:30:08Z</time></trkpt><trkpt lat="59.4598746300" lon="31.0919952393"><time>2026-09-02T10:30:11Z</time></trkpt><trkpt lat="59.4598746300" lon="31.0919952393"><time>2026-09-02T10:30:13Z</time></trkpt><trkpt lat="59.4598746300" lon="31.0919952393"><time>2026-09-02T10:30:16Z</time></trkpt><trkpt lat="59.4598746300" lon="31.0920166969"><time>2026-09-02T10:30:18Z</time></trkpt><trkpt lat="59.4598746300" lon="31.0920166969"><time>2026-09-02T10:30:21Z</time></trkpt><trkpt lat="59.4598746300" lon="31.0920166969"><time>2026-09-02T10:30:23Z</time></trkpt><trkpt lat="59.4598746300" lon="31.0920166969"><time>2026-09-02T10:30:26Z</time></trkpt><trkpt lat="59.4598960876" lon="31.0919952393"><time>2026-09-02T10:30:28Z</time></trkpt><trkpt lat="59.4599175453" lon="31.0919952393"><time>2026-09-02T10:30:31Z</time></trkpt><trkpt lat="59.4599175453" lon="31.0919952393"><time>2026-09-02T10:30:33Z</time></trkpt><trkpt lat="59.4599175453" lon="31.0919952393"><time>2026-09-02T10:30:36Z</time></trkpt><trkpt lat="59.4599175453" lon="31.0919952393"><time>2026-09-02T10:30:38Z</time></trkpt><trkpt lat="59.4599175453" lon="31.0919952393"><time>2026-09-02T10:30:41Z</time></trkpt><trkpt lat="59.4599175453" lon="31.0919737816"><time>2026-09-02T10:30:43Z</time></trkpt><trkpt lat="59.4599175453" lon="31.0918879509"><time>2026-09-02T10:30:46Z</time></trkpt><trkpt lat="59.4599390030" lon="31.0917377472"><time>2026-09-02T10:30:48Z</time></trkpt><trkpt lat="59.4599390030" lon="31.0916519165"><time>2026-09-02T10:30:51Z</time></trkpt><trkpt lat="59.4599390030" lon="31.0916304588"><time>2026-09-02T10:30:53Z</time></trkpt><trkpt lat="59.4599390030" lon="31.0916304588"><time>2026-09-02T10:30:56Z</time></trkpt><trkpt lat="59.4599604607" lon="31.0916304588"><time>2026-09-02T10:30:58Z</time></trkpt><trkpt lat="59.4599604607" lon="31.0916304588"><time>2026-09-02T10:31:01Z</time></trkpt><trkpt lat="59.4599604607" lon="31.0916304588"><time>2026-09-02T10:31:03Z</time></trkpt><trkpt lat="59.4599604607" lon="31.0916304588"><time>2026-09-02T10:31:06Z</time></trkpt><trkpt lat="59.4599604607" lon="31.0915875435"><time>2026-09-02T10:31:08Z</time></trkpt><trkpt lat="59.4599819183" lon="31.0915231705"><time>2026-09-02T10:31:11Z</time></trkpt><trkpt lat="59.4600033760" lon="31.0914802551"><time>2026-09-02T10:31:13Z</time></trkpt><trkpt lat="59.4600033760" lon="31.0914802551"><time>2026-09-02T10:31:16Z</time></trkpt><trkpt lat="59.4600033760" lon="31.0914802551"><time>2026-09-02T10:31:18Z</time></trkpt><trkpt lat="59.4600033760" lon="31.0914802551"><time>2026-09-02T10:31:21Z</time></trkpt><trkpt lat="59.4600033760" lon="31.0914802551"><time>2026-09-02T10:31:23Z</time></trkpt><trkpt lat="59.4600033760" lon="31.0914802551"><time>2026-09-02T10:31:26Z</time></trkpt><trkpt lat="59.4600033760" lon="31.0914802551"><time>2026-09-02T10:31:28Z</time></trkpt><trkpt lat="59.4600033760" lon="31.0914802551"><time>2026-09-02T10:31:31Z</time></trkpt><trkpt lat="59.4600033760" lon="31.0914802551"><time>2026-09-02T10:31:33Z</time></trkpt><trkpt lat="59.4600033760" lon="31.0914802551"><time>2026-09-02T10:31:36Z</time></trkpt><trkpt lat="59.4600033760" lon="31.0914587975"><time>2026-09-02T10:31:38Z</time></trkpt><trkpt lat="59.4600033760" lon="31.0913729668"><time>2026-09-02T10:31:41Z</time></trkpt><trkpt lat="59.4600033760" lon="31.0912656784"><time>2026-09-02T10:31:43Z</time></trkpt><trkpt lat="59.4600033760" lon="31.0912013054"><time>2026-09-02T10:31:46Z</time></trkpt><trkpt lat="59.4600033760" lon="31.0912013054"><time>2026-09-02T10:31:48Z</time></trkpt><trkpt lat="59.4600033760" lon="31.0912013054"><time>2026-09-02T10:31:51Z</time></trkpt><trkpt lat="59.4600033760" lon="31.0912013054"><time>2026-09-02T10:31:53Z</time></trkpt><trkpt lat="59.4600033760" lon="31.0912013054"><time>2026-09-02T10:31:56Z</time></trkpt><trkpt lat="59.4600033760" lon="31.0912013054"><time>2026-09-02T10:31:58Z</time></trkpt><trkpt lat="59.4600033760" lon="31.0912013054"><time>2026-09-02T10:32:01Z</time></trkpt><trkpt lat="59.4600033760" lon="31.0912013054"><time>2026-09-02T10:32:03Z</time></trkpt><trkpt lat="59.4600033760" lon="31.0911583900"><time>2026-09-02T10:32:06Z</time></trkpt><trkpt lat="59.4600462914" lon="31.0910511017"><time>2026-09-02T10:32:08Z</time></trkpt><trkpt lat="59.4600462914" lon="31.0910511017"><time>2026-09-02T10:32:11Z</time></trkpt><trkpt lat="59.4600462914" lon="31.0910511017"><time>2026-09-02T10:32:13Z</time></trkpt><trkpt lat="59.4600462914" lon="31.0910511017"><time>2026-09-02T10:32:16Z</time></trkpt><trkpt lat="59.4600462914" lon="31.0910511017"><time>2026-09-02T10:32:18Z</time></trkpt><trkpt lat="59.4600462914" lon="31.0910511017"><time>2026-09-02T10:32:21Z</time></trkpt><trkpt lat="59.4600462914" lon="31.0910511017"><time>2026-09-02T10:32:23Z</time></trkpt><trkpt lat="59.4600462914" lon="31.0910511017"><time>2026-09-02T10:32:26Z</time></trkpt><trkpt lat="59.4600462914" lon="31.0910511017"><time>2026-09-02T10:32:28Z</time></trkpt><trkpt lat="59.4600462914" lon="31.0910511017"><time>2026-09-02T10:32:31Z</time></trkpt><trkpt lat="59.4600462914" lon="31.0910296440"><time>2026-09-02T10:32:33Z</time></trkpt><trkpt lat="59.4600677490" lon="31.0909008980"><time>2026-09-02T10:32:36Z</time></trkpt><trkpt lat="59.4600677490" lon="31.0908365250"><time>2026-09-02T10:32:38Z</time></trkpt><trkpt lat="59.4600677490" lon="31.0908365250"><time>2026-09-02T10:32:41Z</time></trkpt><trkpt lat="59.4600677490" lon="31.0908365250"><time>2026-09-02T10:32:43Z</time></trkpt><trkpt lat="59.4600677490" lon="31.0908365250"><time>2026-09-02T10:32:46Z</time></trkpt><trkpt lat="59.4600677490" lon="31.0908150673"><time>2026-09-02T10:32:48Z</time></trkpt><trkpt lat="59.4600892067" lon="31.0907936096"><time>2026-09-02T10:32:51Z</time></trkpt><trkpt lat="59.4600892067" lon="31.0907721519"><time>2026-09-02T10:32:53Z</time></trkpt><trkpt lat="59.4600892067" lon="31.0907721519"><time>2026-09-02T10:32:56Z</time></trkpt><trkpt lat="59.4600892067" lon="31.0907721519"><time>2026-09-02T10:32:58Z</time></trkpt><trkpt lat="59.4600892067" lon="31.0907721519"><time>2026-09-02T10:33:01Z</time></trkpt><trkpt lat="59.4600892067" lon="31.0907721519"><time>2026-09-02T10:33:03Z</time></trkpt><trkpt lat="59.4600892067" lon="31.0907721519"><time>2026-09-02T10:33:06Z</time></trkpt><trkpt lat="59.4600892067" lon="31.0907721519"><time>2026-09-02T10:33:08Z</time></trkpt><trkpt lat="59.4600892067" lon="31.0907721519"><time>2026-09-02T10:33:11Z</time></trkpt><trkpt lat="59.4600892067" lon="31.0907721519"><time>2026-09-02T10:33:13Z</time></trkpt><trkpt lat="59.4600892067" lon="31.0907721519"><time>2026-09-02T10:33:16Z</time></trkpt><trkpt lat="59.4600892067" lon="31.0907721519"><time>2026-09-02T10:33:18Z</time></trkpt><trkpt lat="59.4600892067" lon="31.0907721519"><time>2026-09-02T10:33:21Z</time></trkpt><trkpt lat="59.4600892067" lon="31.0907721519"><time>2026-09-02T10:33:23Z</time></trkpt><trkpt lat="59.4600892067" lon="31.0907721519"><time>2026-09-02T10:33:26Z</time></trkpt><trkpt lat="59.4600892067" lon="31.0907721519"><time>2026-09-02T10:33:28Z</time></trkpt><trkpt lat="59.4600892067" lon="31.0907721519"><time>2026-09-02T10:33:31Z</time></trkpt><trkpt lat="59.4600677490" lon="31.0907721519"><time>2026-09-02T10:33:33Z</time></trkpt><trkpt lat="59.4600677490" lon="31.0907721519"><time>2026-09-02T10:33:36Z</time></trkpt><trkpt lat="59.4600677490" lon="31.0907721519"><time>2026-09-02T10:33:38Z</time></trkpt><trkpt lat="59.4600677490" lon="31.0907721519"><time>2026-09-02T10:33:41Z</time></trkpt><trkpt lat="59.4600677490" lon="31.0907721519"><time>2026-09-02T10:33:43Z</time></trkpt><trkpt lat="59.4600677490" lon="31.0907721519"><time>2026-09-02T10:33:46Z</time></trkpt><trkpt lat="59.4600677490" lon="31.0907721519"><time>2026-09-02T10:33:48Z</time></trkpt><trkpt lat="59.4600677490" lon="31.0907721519"><time>2026-09-02T10:33:51Z</time></trkpt><trkpt lat="59.4600677490" lon="31.0907721519"><time>2026-09-02T10:33:53Z</time></trkpt><trkpt lat="59.4600677490" lon="31.0907721519"><time>2026-09-02T10:33:56Z</time></trkpt><trkpt lat="59.4600677490" lon="31.0907721519"><time>2026-09-02T10:33:58Z</time></trkpt><trkpt lat="59.4600677490" lon="31.0907721519"><time>2026-09-02T10:34:01Z</time></trkpt><trkpt lat="59.4600892067" lon="31.0907506943"><time>2026-09-02T10:34:03Z</time></trkpt><trkpt lat="59.4600892067" lon="31.0907721519"><time>2026-09-02T10:34:06Z</time></trkpt><trkpt lat="59.4600892067" lon="31.0907721519"><time>2026-09-02T10:34:08Z</time></trkpt><trkpt lat="59.4600892067" lon="31.0907506943"><time>2026-09-02T10:34:11Z</time></trkpt><trkpt lat="59.4601321220" lon="31.0907077789"><time>2026-09-02T10:34:13Z</time></trkpt><trkpt lat="59.4601535797" lon="31.0907077789"><time>2026-09-02T10:34:16Z</time></trkpt><trkpt lat="59.4601964951" lon="31.0907077789"><time>2026-09-02T10:34:18Z</time></trkpt><trkpt lat="59.4601964951" lon="31.0907077789"><time>2026-09-02T10:34:21Z</time></trkpt><trkpt lat="59.4601964951" lon="31.0907077789"><time>2026-09-02T10:34:23Z</time></trkpt><trkpt lat="59.4601964951" lon="31.0907292366"><time>2026-09-02T10:34:26Z</time></trkpt><trkpt lat="59.4601964951" lon="31.0907292366"><time>2026-09-02T10:34:28Z</time></trkpt><trkpt lat="59.4601964951" lon="31.0907292366"><time>2026-09-02T10:34:31Z</time></trkpt><trkpt lat="59.4602179527" lon="31.0907506943"><time>2026-09-02T10:34:33Z</time></trkpt><trkpt lat="59.4602608681" lon="31.0907721519"><time>2026-09-02T10:34:36Z</time></trkpt><trkpt lat="59.4602608681" lon="31.0907721519"><time>2026-09-02T10:34:38Z</time></trkpt><trkpt lat="59.4602608681" lon="31.0907721519"><time>2026-09-02T10:34:41Z</time></trkpt><trkpt lat="59.4602608681" lon="31.0907721519"><time>2026-09-02T10:34:43Z</time></trkpt><trkpt lat="59.4602608681" lon="31.0907721519"><time>2026-09-02T10:34:46Z</time></trkpt><trkpt lat="59.4603037834" lon="31.0907936096"><time>2026-09-02T10:34:48Z</time></trkpt><trkpt lat="59.4603466988" lon="31.0908365250"><time>2026-09-02T10:34:51Z</time></trkpt><trkpt lat="59.4604110718" lon="31.0908579826"><time>2026-09-02T10:34:53Z</time></trkpt><trkpt lat="59.4604325294" lon="31.0909008980"><time>2026-09-02T10:34:56Z</time></trkpt><trkpt lat="59.4604539871" lon="31.0909008980"><time>2026-09-02T10:34:58Z</time></trkpt><trkpt lat="59.4604539871" lon="31.0909008980"><time>2026-09-02T10:35:01Z</time></trkpt><trkpt lat="59.4604539871" lon="31.0909223557"><time>2026-09-02T10:35:03Z</time></trkpt><trkpt lat="59.4604539871" lon="31.0909223557"><time>2026-09-02T10:35:06Z</time></trkpt><trkpt lat="59.4604539871" lon="31.0909223557"><time>2026-09-02T10:35:08Z</time></trkpt><trkpt lat="59.4604539871" lon="31.0909223557"><time>2026-09-02T10:35:11Z</time></trkpt><trkpt lat="59.4604539871" lon="31.0909223557"><time>2026-09-02T10:35:13Z</time></trkpt><trkpt lat="59.4604539871" lon="31.0909223557"><time>2026-09-02T10:35:16Z</time></trkpt><trkpt lat="59.4604969025" lon="31.0910081863"><time>2026-09-02T10:35:18Z</time></trkpt><trkpt lat="59.4605183601" lon="31.0910511017"><time>2026-09-02T10:35:21Z</time></trkpt><trkpt lat="59.4606041908" lon="31.0911154747"><time>2026-09-02T10:35:23Z</time></trkpt><trkpt lat="59.4606256485" lon="31.0911369324"><time>2026-09-02T10:35:26Z</time></trkpt><trkpt lat="59.4606256485" lon="31.0911369324"><time>2026-09-02T10:35:28Z</time></trkpt><trkpt lat="59.4606471062" lon="31.0911369324"><time>2026-09-02T10:35:31Z</time></trkpt><trkpt lat="59.4606471062" lon="31.0911798477"><time>2026-09-02T10:35:33Z</time></trkpt><trkpt lat="59.4606471062" lon="31.0912013054"><time>2026-09-02T10:35:36Z</time></trkpt><trkpt lat="59.4606471062" lon="31.0912013054"><time>2026-09-02T10:35:38Z</time></trkpt><trkpt lat="59.4606471062" lon="31.0912013054"><time>2026-09-02T10:35:41Z</time></trkpt><trkpt lat="59.4606471062" lon="31.0912013054"><time>2026-09-02T10:35:43Z</time></trkpt><trkpt lat="59.4606471062" lon="31.0912013054"><time>2026-09-02T10:35:46Z</time></trkpt><trkpt lat="59.4606471062" lon="31.0912013054"><time>2026-09-02T10:35:48Z</time></trkpt><trkpt lat="59.4606471062" lon="31.0912013054"><time>2026-09-02T10:35:51Z</time></trkpt><trkpt lat="59.4606471062" lon="31.0912013054"><time>2026-09-02T10:35:53Z</time></trkpt><trkpt lat="59.4606471062" lon="31.0912013054"><time>2026-09-02T10:35:56Z</time></trkpt><trkpt lat="59.4606471062" lon="31.0912013054"><time>2026-09-02T10:35:58Z</time></trkpt><trkpt lat="59.4606471062" lon="31.0912013054"><time>2026-09-02T10:36:01Z</time></trkpt><trkpt lat="59.4606471062" lon="31.0912013054"><time>2026-09-02T10:36:03Z</time></trkpt><trkpt lat="59.4606471062" lon="31.0912013054"><time>2026-09-02T10:36:06Z</time></trkpt><trkpt lat="59.4606471062" lon="31.0912013054"><time>2026-09-02T10:36:08Z</time></trkpt><trkpt lat="59.4606471062" lon="31.0912227631"><time>2026-09-02T10:36:11Z</time></trkpt><trkpt lat="59.4606685638" lon="31.0912871361"><time>2026-09-02T10:36:13Z</time></trkpt><trkpt lat="59.4606685638" lon="31.0912871361"><time>2026-09-02T10:36:16Z</time></trkpt><trkpt lat="59.4606685638" lon="31.0913085938"><time>2026-09-02T10:36:18Z</time></trkpt><trkpt lat="59.4606900215" lon="31.0913085938"><time>2026-09-02T10:36:21Z</time></trkpt><trkpt lat="59.4607114792" lon="31.0913944244"><time>2026-09-02T10:36:23Z</time></trkpt><trkpt lat="59.4607114792" lon="31.0914802551"><time>2026-09-02T10:36:26Z</time></trkpt><trkpt lat="59.4607543945" lon="31.0915446281"><time>2026-09-02T10:36:28Z</time></trkpt><trkpt lat="59.4607543945" lon="31.0915446281"><time>2026-09-02T10:36:31Z</time></trkpt><trkpt lat="59.4607543945" lon="31.0915660858"><time>2026-09-02T10:36:33Z</time></trkpt><trkpt lat="59.4607758522" lon="31.0916304588"><time>2026-09-02T10:36:36Z</time></trkpt><trkpt lat="59.4608187675" lon="31.0917377472"><time>2026-09-02T10:36:38Z</time></trkpt><trkpt lat="59.4608187675" lon="31.0917806625"><time>2026-09-02T10:36:41Z</time></trkpt><trkpt lat="59.4608616829" lon="31.0918235779"><time>2026-09-02T10:36:43Z</time></trkpt><trkpt lat="59.4608616829" lon="31.0918235779"><time>2026-09-02T10:36:46Z</time></trkpt><trkpt lat="59.4608616829" lon="31.0918235779"><time>2026-09-02T10:36:48Z</time></trkpt><trkpt lat="59.4608831406" lon="31.0918021202"><time>2026-09-02T10:36:51Z</time></trkpt><trkpt lat="59.4608831406" lon="31.0918664932"><time>2026-09-02T10:36:53Z</time></trkpt><trkpt lat="59.4609045982" lon="31.0919308662"><time>2026-09-02T10:36:56Z</time></trkpt><trkpt lat="59.4609260559" lon="31.0919737816"><time>2026-09-02T10:36:58Z</time></trkpt><trkpt lat="59.4609260559" lon="31.0919737816"><time>2026-09-02T10:37:01Z</time></trkpt><trkpt lat="59.4609260559" lon="31.0919737816"><time>2026-09-02T10:37:03Z</time></trkpt><trkpt lat="59.4609260559" lon="31.0920166969"><time>2026-09-02T10:37:06Z</time></trkpt><trkpt lat="59.4609260559" lon="31.0920166969"><time>2026-09-02T10:37:08Z</time></trkpt><trkpt lat="59.4608831406" lon="31.0920381546"><time>2026-09-02T10:37:11Z</time></trkpt><trkpt lat="59.4608831406" lon="31.0920381546"><time>2026-09-02T10:37:13Z</time></trkpt><trkpt lat="59.4608831406" lon="31.0920381546"><time>2026-09-02T10:37:16Z</time></trkpt><trkpt lat="59.4608831406" lon="31.0920381546"><time>2026-09-02T10:37:18Z</time></trkpt><trkpt lat="59.4608831406" lon="31.0920381546"><time>2026-09-02T10:37:21Z</time></trkpt><trkpt lat="59.4608831406" lon="31.0920381546"><time>2026-09-02T10:37:23Z</time></trkpt><trkpt lat="59.4609045982" lon="31.0919952393"><time>2026-09-02T10:37:26Z</time></trkpt><trkpt lat="59.4609045982" lon="31.0919523239"><time>2026-09-02T10:37:28Z</time></trkpt><trkpt lat="59.4609045982" lon="31.0919523239"><time>2026-09-02T10:37:31Z</time></trkpt><trkpt lat="59.4609045982" lon="31.0919523239"><time>2026-09-02T10:37:33Z</time></trkpt><trkpt lat="59.4609045982" lon="31.0919523239"><time>2026-09-02T10:37:36Z</time></trkpt><trkpt lat="59.4609045982" lon="31.0919523239"><time>2026-09-02T10:37:38Z</time></trkpt><trkpt lat="59.4609045982" lon="31.0919523239"><time>2026-09-02T10:37:41Z</time></trkpt><trkpt lat="59.4609045982" lon="31.0919523239"><time>2026-09-02T10:37:43Z</time></trkpt><trkpt lat="59.4609045982" lon="31.0919523239"><time>2026-09-02T10:37:46Z</time></trkpt><trkpt lat="59.4609045982" lon="31.0919523239"><time>2026-09-02T10:37:48Z</time></trkpt><trkpt lat="59.4609045982" lon="31.0919523239"><time>2026-09-02T10:37:51Z</time></trkpt><trkpt lat="59.4609045982" lon="31.0919523239"><time>2026-09-02T10:37:53Z</time></trkpt><trkpt lat="59.4609045982" lon="31.0919523239"><time>2026-09-02T10:37:56Z</time></trkpt><trkpt lat="59.4609045982" lon="31.0919523239"><time>2026-09-02T10:37:58Z</time></trkpt><trkpt lat="59.4609045982" lon="31.0919523239"><time>2026-09-02T10:38:01Z</time></trkpt><trkpt lat="59.4609045982" lon="31.0919523239"><time>2026-09-02T10:38:03Z</time></trkpt><trkpt lat="59.4609045982" lon="31.0919523239"><time>2026-09-02T10:38:06Z</time></trkpt><trkpt lat="59.4609045982" lon="31.0919523239"><time>2026-09-02T10:38:08Z</time></trkpt><trkpt lat="59.4609045982" lon="31.0919523239"><time>2026-09-02T10:38:11Z</time></trkpt><trkpt lat="59.4609045982" lon="31.0919523239"><time>2026-09-02T10:38:13Z</time></trkpt><trkpt lat="59.4609045982" lon="31.0919308662"><time>2026-09-02T10:38:16Z</time></trkpt><trkpt lat="59.4609045982" lon="31.0919308662"><time>2026-09-02T10:38:18Z</time></trkpt><trkpt lat="59.4609045982" lon="31.0919308662"><time>2026-09-02T10:38:21Z</time></trkpt><trkpt lat="59.4609045982" lon="31.0919308662"><time>2026-09-02T10:38:23Z</time></trkpt><trkpt lat="59.4609045982" lon="31.0919308662"><time>2026-09-02T10:38:26Z</time></trkpt><trkpt lat="59.4609045982" lon="31.0919308662"><time>2026-09-02T10:38:28Z</time></trkpt><trkpt lat="59.4609045982" lon="31.0919308662"><time>2026-09-02T10:38:31Z</time></trkpt><trkpt lat="59.4609045982" lon="31.0919308662"><time>2026-09-02T10:38:33Z</time></trkpt><trkpt lat="59.4609045982" lon="31.0919308662"><time>2026-09-02T10:38:36Z</time></trkpt><trkpt lat="59.4609045982" lon="31.0919308662"><time>2026-09-02T10:38:38Z</time></trkpt><trkpt lat="59.4609045982" lon="31.0919308662"><time>2026-09-02T10:38:41Z</time></trkpt><trkpt lat="59.4609045982" lon="31.0919308662"><time>2026-09-02T10:38:43Z</time></trkpt><trkpt lat="59.4609045982" lon="31.0919308662"><time>2026-09-02T10:38:46Z</time></trkpt><trkpt lat="59.4609045982" lon="31.0919308662"><time>2026-09-02T10:38:48Z</time></trkpt><trkpt lat="59.4609045982" lon="31.0919308662"><time>2026-09-02T10:38:51Z</time></trkpt><trkpt lat="59.4609045982" lon="31.0919308662"><time>2026-09-02T10:38:53Z</time></trkpt><trkpt lat="59.4609045982" lon="31.0919308662"><time>2026-09-02T10:38:56Z</time></trkpt><trkpt lat="59.4609045982" lon="31.0919308662"><time>2026-09-02T10:38:58Z</time></trkpt><trkpt lat="59.4609045982" lon="31.0919308662"><time>2026-09-02T10:39:01Z</time></trkpt><trkpt lat="59.4609045982" lon="31.0919308662"><time>2026-09-02T10:39:03Z</time></trkpt><trkpt lat="59.4609045982" lon="31.0919308662"><time>2026-09-02T10:39:06Z</time></trkpt><trkpt lat="59.4609045982" lon="31.0919308662"><time>2026-09-02T10:39:08Z</time></trkpt><trkpt lat="59.4609045982" lon="31.0919308662"><time>2026-09-02T10:39:11Z</time></trkpt><trkpt lat="59.4609045982" lon="31.0919308662"><time>2026-09-02T10:39:13Z</time></trkpt><trkpt lat="59.4609045982" lon="31.0919308662"><time>2026-09-02T10:39:16Z</time></trkpt><trkpt lat="59.4609045982" lon="31.0919308662"><time>2026-09-02T10:39:18Z</time></trkpt><trkpt lat="59.4609045982" lon="31.0919308662"><time>2026-09-02T10:39:21Z</time></trkpt><trkpt lat="59.4609045982" lon="31.0919308662"><time>2026-09-02T10:39:23Z</time></trkpt><trkpt lat="59.4609045982" lon="31.0919308662"><time>2026-09-02T10:39:26Z</time></trkpt><trkpt lat="59.4609045982" lon="31.0919308662"><time>2026-09-02T10:39:28Z</time></trkpt><trkpt lat="59.4609045982" lon="31.0919308662"><time>2026-09-02T10:39:31Z</time></trkpt><trkpt lat="59.4609045982" lon="31.0919308662"><time>2026-09-02T10:39:33Z</time></trkpt><trkpt lat="59.4609045982" lon="31.0919308662"><time>2026-09-02T10:39:36Z</time></trkpt><trkpt lat="59.4609045982" lon="31.0919308662"><time>2026-09-02T10:39:38Z</time></trkpt><trkpt lat="59.4609045982" lon="31.0919308662"><time>2026-09-02T10:39:41Z</time></trkpt><trkpt lat="59.4609045982" lon="31.0919308662"><time>2026-09-02T10:39:43Z</time></trkpt><trkpt lat="59.4609045982" lon="31.0919308662"><time>2026-09-02T10:39:46Z</time></trkpt><trkpt lat="59.4609045982" lon="31.0919308662"><time>2026-09-02T10:39:48Z</time></trkpt><trkpt lat="59.4609045982" lon="31.0919308662"><time>2026-09-02T10:39:51Z</time></trkpt><trkpt lat="59.4609045982" lon="31.0919308662"><time>2026-09-02T10:39:53Z</time></trkpt><trkpt lat="59.4609045982" lon="31.0919308662"><time>2026-09-02T10:39:56Z</time></trkpt><trkpt lat="59.4609045982" lon="31.0919308662"><time>2026-09-02T10:39:58Z</time></trkpt><trkpt lat="59.4609045982" lon="31.0919308662"><time>2026-09-02T10:40:01Z</time></trkpt><trkpt lat="59.4609045982" lon="31.0919308662"><time>2026-09-02T10:40:03Z</time></trkpt><trkpt lat="59.4609045982" lon="31.0919308662"><time>2026-09-02T10:40:06Z</time></trkpt><trkpt lat="59.4609045982" lon="31.0919308662"><time>2026-09-02T10:40:08Z</time></trkpt><trkpt lat="59.4609045982" lon="31.0919308662"><time>2026-09-02T10:40:11Z</time></trkpt><trkpt lat="59.4609045982" lon="31.0919308662"><time>2026-09-02T10:40:13Z</time></trkpt><trkpt lat="59.4609045982" lon="31.0919308662"><time>2026-09-02T10:40:16Z</time></trkpt><trkpt lat="59.4609045982" lon="31.0919308662"><time>2026-09-02T10:40:18Z</time></trkpt><trkpt lat="59.4609045982" lon="31.0919308662"><time>2026-09-02T10:40:21Z</time></trkpt><trkpt lat="59.4609045982" lon="31.0919308662"><time>2026-09-02T10:40:23Z</time></trkpt><trkpt lat="59.4609045982" lon="31.0919308662"><time>2026-09-02T10:40:26Z</time></trkpt><trkpt lat="59.4609045982" lon="31.0919308662"><time>2026-09-02T10:40:28Z</time></trkpt><trkpt lat="59.4609045982" lon="31.0919308662"><time>2026-09-02T10:40:31Z</time></trkpt><trkpt lat="59.4609045982" lon="31.0919308662"><time>2026-09-02T10:40:33Z</time></trkpt><trkpt lat="59.4609045982" lon="31.0919308662"><time>2026-09-02T10:40:36Z</time></trkpt><trkpt lat="59.4609045982" lon="31.0919308662"><time>2026-09-02T10:40:38Z</time></trkpt><trkpt lat="59.4609045982" lon="31.0919308662"><time>2026-09-02T10:40:41Z</time></trkpt><trkpt lat="59.4609045982" lon="31.0919308662"><time>2026-09-02T10:40:43Z</time></trkpt><trkpt lat="59.4609045982" lon="31.0919308662"><time>2026-09-02T10:40:46Z</time></trkpt><trkpt lat="59.4609045982" lon="31.0919308662"><time>2026-09-02T10:40:48Z</time></trkpt><trkpt lat="59.4609045982" lon="31.0919308662"><time>2026-09-02T10:40:51Z</time></trkpt><trkpt lat="59.4609045982" lon="31.0919308662"><time>2026-09-02T10:40:53Z</time></trkpt><trkpt lat="59.4609260559" lon="31.0919094086"><time>2026-09-02T10:40:56Z</time></trkpt><trkpt lat="59.4609260559" lon="31.0919094086"><time>2026-09-02T10:40:58Z</time></trkpt><trkpt lat="59.4609260559" lon="31.0919094086"><time>2026-09-02T10:41:01Z</time></trkpt><trkpt lat="59.4609260559" lon="31.0919094086"><time>2026-09-02T10:41:03Z</time></trkpt><trkpt lat="59.4609260559" lon="31.0919094086"><time>2026-09-02T10:41:06Z</time></trkpt><trkpt lat="59.4609260559" lon="31.0919094086"><time>2026-09-02T10:41:08Z</time></trkpt><trkpt lat="59.4609260559" lon="31.0919094086"><time>2026-09-02T10:41:11Z</time></trkpt><trkpt lat="59.4609260559" lon="31.0919094086"><time>2026-09-02T10:41:13Z</time></trkpt><trkpt lat="59.4609260559" lon="31.0919094086"><time>2026-09-02T10:41:16Z</time></trkpt><trkpt lat="59.4609260559" lon="31.0919094086"><time>2026-09-02T10:41:18Z</time></trkpt><trkpt lat="59.4609260559" lon="31.0919094086"><time>2026-09-02T10:41:21Z</time></trkpt><trkpt lat="59.4609260559" lon="31.0919094086"><time>2026-09-02T10:41:23Z</time></trkpt><trkpt lat="59.4609260559" lon="31.0919094086"><time>2026-09-02T10:41:26Z</time></trkpt><trkpt lat="59.4609260559" lon="31.0919094086"><time>2026-09-02T10:41:28Z</time></trkpt><trkpt lat="59.4609260559" lon="31.0919094086"><time>2026-09-02T10:41:31Z</time></trkpt><trkpt lat="59.4609045982" lon="31.0919094086"><time>2026-09-02T10:41:33Z</time></trkpt><trkpt lat="59.4609045982" lon="31.0919094086"><time>2026-09-02T10:41:36Z</time></trkpt><trkpt lat="59.4609045982" lon="31.0919094086"><time>2026-09-02T10:41:38Z</time></trkpt><trkpt lat="59.4609045982" lon="31.0919094086"><time>2026-09-02T10:41:41Z</time></trkpt><trkpt lat="59.4609045982" lon="31.0919094086"><time>2026-09-02T10:41:43Z</time></trkpt><trkpt lat="59.4609045982" lon="31.0919094086"><time>2026-09-02T10:41:46Z</time></trkpt><trkpt lat="59.4609045982" lon="31.0919094086"><time>2026-09-02T10:41:48Z</time></trkpt><trkpt lat="59.4609045982" lon="31.0919094086"><time>2026-09-02T10:41:51Z</time></trkpt><trkpt lat="59.4609045982" lon="31.0919094086"><time>2026-09-02T10:41:53Z</time></trkpt><trkpt lat="59.4609045982" lon="31.0919094086"><time>2026-09-02T10:41:56Z</time></trkpt><trkpt lat="59.4609045982" lon="31.0919094086"><time>2026-09-02T10:41:58Z</time></trkpt><trkpt lat="59.4609045982" lon="31.0919094086"><time>2026-09-02T10:42:01Z</time></trkpt><trkpt lat="59.4609045982" lon="31.0919094086"><time>2026-09-02T10:42:03Z</time></trkpt><trkpt lat="59.4609045982" lon="31.0919094086"><time>2026-09-02T10:42:06Z</time></trkpt><trkpt lat="59.4609045982" lon="31.0919094086"><time>2026-09-02T10:42:08Z</time></trkpt><trkpt lat="59.4609045982" lon="31.0919094086"><time>2026-09-02T10:42:11Z</time></trkpt><trkpt lat="59.4609045982" lon="31.0919094086"><time>2026-09-02T10:42:13Z</time></trkpt><trkpt lat="59.4609045982" lon="31.0919094086"><time>2026-09-02T10:42:16Z</time></trkpt><trkpt lat="59.4609045982" lon="31.0919094086"><time>2026-09-02T10:42:18Z</time></trkpt><trkpt lat="59.4609045982" lon="31.0919094086"><time>2026-09-02T10:42:21Z</time></trkpt><trkpt lat="59.4609045982" lon="31.0919094086"><time>2026-09-02T10:42:23Z</time></trkpt><trkpt lat="59.4609045982" lon="31.0919094086"><time>2026-09-02T10:42:26Z</time></trkpt><trkpt lat="59.4609045982" lon="31.0919094086"><time>2026-09-02T10:42:28Z</time></trkpt><trkpt lat="59.4609045982" lon="31.0919094086"><time>2026-09-02T10:42:31Z</time></trkpt><trkpt lat="59.4609045982" lon="31.0919094086"><time>2026-09-02T10:42:33Z</time></trkpt><trkpt lat="59.4609045982" lon="31.0919094086"><time>2026-09-02T10:42:36Z</time></trkpt><trkpt lat="59.4609045982" lon="31.0919094086"><time>2026-09-02T10:42:38Z</time></trkpt><trkpt lat="59.4609045982" lon="31.0919094086"><time>2026-09-02T10:42:41Z</time></trkpt><trkpt lat="59.4609045982" lon="31.0919094086"><time>2026-09-02T10:42:43Z</time></trkpt><trkpt lat="59.4609045982" lon="31.0919094086"><time>2026-09-02T10:42:46Z</time></trkpt><trkpt lat="59.4609045982" lon="31.0919094086"><time>2026-09-02T10:42:48Z</time></trkpt><trkpt lat="59.4609045982" lon="31.0919094086"><time>2026-09-02T10:42:51Z</time></trkpt><trkpt lat="59.4609045982" lon="31.0919094086"><time>2026-09-02T10:42:53Z</time></trkpt><trkpt lat="59.4609045982" lon="31.0919094086"><time>2026-09-02T10:42:56Z</time></trkpt><trkpt lat="59.4609045982" lon="31.0919094086"><time>2026-09-02T10:43:01Z</time></trkpt><trkpt lat="59.4609045982" lon="31.0919094086"><time>2026-09-02T10:43:03Z</time></trkpt><trkpt lat="59.4609045982" lon="31.0919094086"><time>2026-09-02T10:43:06Z</time></trkpt><trkpt lat="59.4609045982" lon="31.0919094086"><time>2026-09-02T10:43:08Z</time></trkpt><trkpt lat="59.4609045982" lon="31.0919094086"><time>2026-09-02T10:43:11Z</time></trkpt><trkpt lat="59.4609045982" lon="31.0919094086"><time>2026-09-02T10:43:13Z</time></trkpt><trkpt lat="59.4609045982" lon="31.0919094086"><time>2026-09-02T10:43:16Z</time></trkpt><trkpt lat="59.4609045982" lon="31.0919094086"><time>2026-09-02T10:43:18Z</time></trkpt><trkpt lat="59.4609045982" lon="31.0919094086"><time>2026-09-02T10:43:21Z</time></trkpt><trkpt lat="59.4609045982" lon="31.0918879509"><time>2026-09-02T10:43:23Z</time></trkpt><trkpt lat="59.4609045982" lon="31.0918879509"><time>2026-09-02T10:43:26Z</time></trkpt><trkpt lat="59.4608831406" lon="31.0918450356"><time>2026-09-02T10:43:28Z</time></trkpt><trkpt lat="59.4608831406" lon="31.0918021202"><time>2026-09-02T10:43:31Z</time></trkpt><trkpt lat="59.4608831406" lon="31.0917592049"><time>2026-09-02T10:43:33Z</time></trkpt><trkpt lat="59.4608831406" lon="31.0917162895"><time>2026-09-02T10:43:36Z</time></trkpt><trkpt lat="59.4608616829" lon="31.0916948318"><time>2026-09-02T10:43:38Z</time></trkpt><trkpt lat="59.4608616829" lon="31.0916948318"><time>2026-09-02T10:43:41Z</time></trkpt><trkpt lat="59.4608831406" lon="31.0916948318"><time>2026-09-02T10:43:43Z</time></trkpt><trkpt lat="59.4608831406" lon="31.0916948318"><time>2026-09-02T10:43:46Z</time></trkpt><trkpt lat="59.4608831406" lon="31.0916948318"><time>2026-09-02T10:43:48Z</time></trkpt><trkpt lat="59.4608831406" lon="31.0916948318"><time>2026-09-02T10:43:51Z</time></trkpt><trkpt lat="59.4608831406" lon="31.0917162895"><time>2026-09-02T10:43:53Z</time></trkpt><trkpt lat="59.4608831406" lon="31.0917377472"><time>2026-09-02T10:43:56Z</time></trkpt><trkpt lat="59.4608831406" lon="31.0917377472"><time>2026-09-02T10:43:58Z</time></trkpt><trkpt lat="59.4608831406" lon="31.0917377472"><time>2026-09-02T10:44:01Z</time></trkpt><trkpt lat="59.4608831406" lon="31.0917377472"><time>2026-09-02T10:44:03Z</time></trkpt><trkpt lat="59.4608831406" lon="31.0917377472"><time>2026-09-02T10:44:06Z</time></trkpt><trkpt lat="59.4608831406" lon="31.0917377472"><time>2026-09-02T10:44:08Z</time></trkpt><trkpt lat="59.4608831406" lon="31.0917377472"><time>2026-09-02T10:44:11Z</time></trkpt><trkpt lat="59.4608831406" lon="31.0917377472"><time>2026-09-02T10:44:13Z</time></trkpt><trkpt lat="59.4608831406" lon="31.0917377472"><time>2026-09-02T10:44:16Z</time></trkpt><trkpt lat="59.4608831406" lon="31.0917377472"><time>2026-09-02T10:44:18Z</time></trkpt><trkpt lat="59.4608831406" lon="31.0917377472"><time>2026-09-02T10:44:21Z</time></trkpt><trkpt lat="59.4608831406" lon="31.0917377472"><time>2026-09-02T10:44:23Z</time></trkpt><trkpt lat="59.4608831406" lon="31.0917377472"><time>2026-09-02T10:44:26Z</time></trkpt><trkpt lat="59.4608831406" lon="31.0917377472"><time>2026-09-02T10:44:28Z</time></trkpt><trkpt lat="59.4608831406" lon="31.0917377472"><time>2026-09-02T10:44:31Z</time></trkpt><trkpt lat="59.4608831406" lon="31.0917377472"><time>2026-09-02T10:44:33Z</time></trkpt><trkpt lat="59.4608831406" lon="31.0917377472"><time>2026-09-02T10:44:36Z</time></trkpt><trkpt lat="59.4608831406" lon="31.0917377472"><time>2026-09-02T10:44:38Z</time></trkpt><trkpt lat="59.4608831406" lon="31.0917377472"><time>2026-09-02T10:44:41Z</time></trkpt><trkpt lat="59.4608831406" lon="31.0917377472"><time>2026-09-02T10:44:43Z</time></trkpt><trkpt lat="59.4608831406" lon="31.0917377472"><time>2026-09-02T10:44:46Z</time></trkpt><trkpt lat="59.4608831406" lon="31.0917377472"><time>2026-09-02T10:44:48Z</time></trkpt><trkpt lat="59.4608831406" lon="31.0917377472"><time>2026-09-02T10:44:51Z</time></trkpt><trkpt lat="59.4608831406" lon="31.0917377472"><time>2026-09-02T10:44:53Z</time></trkpt><trkpt lat="59.4608831406" lon="31.0917377472"><time>2026-09-02T10:44:56Z</time></trkpt><trkpt lat="59.4608831406" lon="31.0917377472"><time>2026-09-02T10:44:58Z</time></trkpt><trkpt lat="59.4608831406" lon="31.0917377472"><time>2026-09-02T10:45:01Z</time></trkpt><trkpt lat="59.4608831406" lon="31.0917377472"><time>2026-09-02T10:45:03Z</time></trkpt><trkpt lat="59.4608831406" lon="31.0917377472"><time>2026-09-02T10:45:06Z</time></trkpt><trkpt lat="59.4608831406" lon="31.0917377472"><time>2026-09-02T10:45:08Z</time></trkpt><trkpt lat="59.4608831406" lon="31.0917377472"><time>2026-09-02T10:45:11Z</time></trkpt><trkpt lat="59.4608831406" lon="31.0917377472"><time>2026-09-02T10:45:13Z</time></trkpt><trkpt lat="59.4608831406" lon="31.0917377472"><time>2026-09-02T10:45:16Z</time></trkpt><trkpt lat="59.4608831406" lon="31.0917377472"><time>2026-09-02T10:45:18Z</time></trkpt><trkpt lat="59.4608831406" lon="31.0917377472"><time>2026-09-02T10:45:21Z</time></trkpt><trkpt lat="59.4608831406" lon="31.0917377472"><time>2026-09-02T10:45:23Z</time></trkpt><trkpt lat="59.4608831406" lon="31.0917377472"><time>2026-09-02T10:45:26Z</time></trkpt><trkpt lat="59.4608831406" lon="31.0917377472"><time>2026-09-02T10:45:28Z</time></trkpt><trkpt lat="59.4608831406" lon="31.0917377472"><time>2026-09-02T10:45:31Z</time></trkpt><trkpt lat="59.4608831406" lon="31.0917377472"><time>2026-09-02T10:45:33Z</time></trkpt><trkpt lat="59.4608831406" lon="31.0917377472"><time>2026-09-02T10:45:36Z</time></trkpt><trkpt lat="59.4608831406" lon="31.0917377472"><time>2026-09-02T10:45:41Z</time></trkpt><trkpt lat="59.4608831406" lon="31.0917377472"><time>2026-09-02T10:45:43Z</time></trkpt><trkpt lat="59.4608831406" lon="31.0917377472"><time>2026-09-02T10:45:46Z</time></trkpt><trkpt lat="59.4608831406" lon="31.0917377472"><time>2026-09-02T10:45:48Z</time></trkpt><trkpt lat="59.4608831406" lon="31.0917377472"><time>2026-09-02T10:45:51Z</time></trkpt><trkpt lat="59.4608831406" lon="31.0917377472"><time>2026-09-02T10:45:53Z</time></trkpt><trkpt lat="59.4608831406" lon="31.0917377472"><time>2026-09-02T10:45:56Z</time></trkpt><trkpt lat="59.4608831406" lon="31.0917377472"><time>2026-09-02T10:45:58Z</time></trkpt><trkpt lat="59.4608831406" lon="31.0917377472"><time>2026-09-02T10:46:01Z</time></trkpt><trkpt lat="59.4608831406" lon="31.0917377472"><time>2026-09-02T10:46:03Z</time></trkpt><trkpt lat="59.4608831406" lon="31.0917377472"><time>2026-09-02T10:46:06Z</time></trkpt><trkpt lat="59.4608831406" lon="31.0917377472"><time>2026-09-02T10:46:08Z</time></trkpt><trkpt lat="59.4608831406" lon="31.0917377472"><time>2026-09-02T10:46:11Z</time></trkpt><trkpt lat="59.4608831406" lon="31.0917377472"><time>2026-09-02T10:46:13Z</time></trkpt><trkpt lat="59.4608831406" lon="31.0917377472"><time>2026-09-02T10:46:16Z</time></trkpt><trkpt lat="59.4608831406" lon="31.0917377472"><time>2026-09-02T10:46:18Z</time></trkpt><trkpt lat="59.4608831406" lon="31.0917377472"><time>2026-09-02T10:46:21Z</time></trkpt><trkpt lat="59.4608831406" lon="31.0917377472"><time>2026-09-02T10:46:23Z</time></trkpt><trkpt lat="59.4608831406" lon="31.0917377472"><time>2026-09-02T10:46:26Z</time></trkpt><trkpt lat="59.4608831406" lon="31.0917377472"><time>2026-09-02T10:46:28Z</time></trkpt><trkpt lat="59.4608831406" lon="31.0917377472"><time>2026-09-02T10:46:31Z</time></trkpt><trkpt lat="59.4608831406" lon="31.0917377472"><time>2026-09-02T10:46:33Z</time></trkpt><trkpt lat="59.4608831406" lon="31.0917377472"><time>2026-09-02T10:46:36Z</time></trkpt><trkpt lat="59.4608831406" lon="31.0917377472"><time>2026-09-02T10:46:38Z</time></trkpt><trkpt lat="59.4608831406" lon="31.0917377472"><time>2026-09-02T10:46:41Z</time></trkpt><trkpt lat="59.4608831406" lon="31.0917377472"><time>2026-09-02T10:46:43Z</time></trkpt><trkpt lat="59.4608831406" lon="31.0917377472"><time>2026-09-02T10:46:46Z</time></trkpt><trkpt lat="59.4608831406" lon="31.0917377472"><time>2026-09-02T10:46:48Z</time></trkpt><trkpt lat="59.4608831406" lon="31.0917377472"><time>2026-09-02T10:46:51Z</time></trkpt><trkpt lat="59.4608831406" lon="31.0917377472"><time>2026-09-02T10:46:53Z</time></trkpt><trkpt lat="59.4608831406" lon="31.0917377472"><time>2026-09-02T10:46:56Z</time></trkpt><trkpt lat="59.4608831406" lon="31.0917377472"><time>2026-09-02T10:46:58Z</time></trkpt><trkpt lat="59.4608831406" lon="31.0917377472"><time>2026-09-02T10:47:01Z</time></trkpt><trkpt lat="59.4608831406" lon="31.0917377472"><time>2026-09-02T10:47:03Z</time></trkpt><trkpt lat="59.4608831406" lon="31.0917377472"><time>2026-09-02T10:47:06Z</time></trkpt><trkpt lat="59.4608831406" lon="31.0917377472"><time>2026-09-02T10:47:08Z</time></trkpt><trkpt lat="59.4608831406" lon="31.0917377472"><time>2026-09-02T10:47:11Z</time></trkpt><trkpt lat="59.4608831406" lon="31.0917377472"><time>2026-09-02T10:47:13Z</time></trkpt><trkpt lat="59.4608831406" lon="31.0917377472"><time>2026-09-02T10:47:16Z</time></trkpt><trkpt lat="59.4608831406" lon="31.0917162895"><time>2026-09-02T10:47:18Z</time></trkpt><trkpt lat="59.4608831406" lon="31.0917162895"><time>2026-09-02T10:47:21Z</time></trkpt><trkpt lat="59.4608831406" lon="31.0917162895"><time>2026-09-02T10:47:23Z</time></trkpt><trkpt lat="59.4608831406" lon="31.0917162895"><time>2026-09-02T10:47:26Z</time></trkpt><trkpt lat="59.4608831406" lon="31.0917162895"><time>2026-09-02T10:47:28Z</time></trkpt><trkpt lat="59.4608831406" lon="31.0917162895"><time>2026-09-02T10:47:31Z</time></trkpt><trkpt lat="59.4608831406" lon="31.0917162895"><time>2026-09-02T10:47:33Z</time></trkpt><trkpt lat="59.4608831406" lon="31.0917162895"><time>2026-09-02T10:47:36Z</time></trkpt><trkpt lat="59.4608831406" lon="31.0917162895"><time>2026-09-02T10:47:38Z</time></trkpt><trkpt lat="59.4608831406" lon="31.0917162895"><time>2026-09-02T10:47:41Z</time></trkpt><trkpt lat="59.4608831406" lon="31.0917162895"><time>2026-09-02T10:47:43Z</time></trkpt><trkpt lat="59.4608831406" lon="31.0917162895"><time>2026-09-02T10:47:46Z</time></trkpt><trkpt lat="59.4608831406" lon="31.0917162895"><time>2026-09-02T10:47:48Z</time></trkpt><trkpt lat="59.4608831406" lon="31.0917162895"><time>2026-09-02T10:47:51Z</time></trkpt><trkpt lat="59.4608831406" lon="31.0917162895"><time>2026-09-02T10:47:53Z</time></trkpt><trkpt lat="59.4608831406" lon="31.0917162895"><time>2026-09-02T10:47:56Z</time></trkpt><trkpt lat="59.4608831406" lon="31.0917162895"><time>2026-09-02T10:47:58Z</time></trkpt><trkpt lat="59.4608831406" lon="31.0917162895"><time>2026-09-02T10:48:01Z</time></trkpt><trkpt lat="59.4608831406" lon="31.0917377472"><time>2026-09-02T10:48:03Z</time></trkpt><trkpt lat="59.4609045982" lon="31.0917377472"><time>2026-09-02T10:48:06Z</time></trkpt><trkpt lat="59.4609045982" lon="31.0917377472"><time>2026-09-02T10:48:08Z</time></trkpt><trkpt lat="59.4609045982" lon="31.0917377472"><time>2026-09-02T10:48:11Z</time></trkpt><trkpt lat="59.4609045982" lon="31.0917377472"><time>2026-09-02T10:48:13Z</time></trkpt><trkpt lat="59.4609045982" lon="31.0917377472"><time>2026-09-02T10:48:16Z</time></trkpt><trkpt lat="59.4609045982" lon="31.0917377472"><time>2026-09-02T10:48:18Z</time></trkpt><trkpt lat="59.4609045982" lon="31.0917377472"><time>2026-09-02T10:48:21Z</time></trkpt><trkpt lat="59.4609045982" lon="31.0917377472"><time>2026-09-02T10:48:23Z</time></trkpt><trkpt lat="59.4609045982" lon="31.0917377472"><time>2026-09-02T10:48:26Z</time></trkpt><trkpt lat="59.4609045982" lon="31.0917377472"><time>2026-09-02T10:48:28Z</time></trkpt><trkpt lat="59.4609045982" lon="31.0917377472"><time>2026-09-02T10:48:31Z</time></trkpt><trkpt lat="59.4609045982" lon="31.0917377472"><time>2026-09-02T10:48:33Z</time></trkpt><trkpt lat="59.4609045982" lon="31.0917377472"><time>2026-09-02T10:48:36Z</time></trkpt><trkpt lat="59.4609045982" lon="31.0917377472"><time>2026-09-02T10:48:38Z</time></trkpt><trkpt lat="59.4609045982" lon="31.0917377472"><time>2026-09-02T10:48:41Z</time></trkpt><trkpt lat="59.4609045982" lon="31.0917377472"><time>2026-09-02T10:48:43Z</time></trkpt><trkpt lat="59.4609045982" lon="31.0917377472"><time>2026-09-02T10:48:46Z</time></trkpt><trkpt lat="59.4609045982" lon="31.0917592049"><time>2026-09-02T10:48:48Z</time></trkpt><trkpt lat="59.4609045982" lon="31.0917592049"><time>2026-09-02T10:48:51Z</time></trkpt><trkpt lat="59.4609045982" lon="31.0917592049"><time>2026-09-02T10:48:53Z</time></trkpt><trkpt lat="59.4609045982" lon="31.0917592049"><time>2026-09-02T10:48:56Z</time></trkpt><trkpt lat="59.4609045982" lon="31.0917592049"><time>2026-09-02T10:48:58Z</time></trkpt><trkpt lat="59.4609045982" lon="31.0917592049"><time>2026-09-02T10:49:01Z</time></trkpt><trkpt lat="59.4609045982" lon="31.0917592049"><time>2026-09-02T10:49:03Z</time></trkpt><trkpt lat="59.4609045982" lon="31.0917592049"><time>2026-09-02T10:49:06Z</time></trkpt><trkpt lat="59.4609045982" lon="31.0917592049"><time>2026-09-02T10:49:08Z</time></trkpt><trkpt lat="59.4609045982" lon="31.0917592049"><time>2026-09-02T10:49:11Z</time></trkpt><trkpt lat="59.4609045982" lon="31.0917592049"><time>2026-09-02T10:49:13Z</time></trkpt><trkpt lat="59.4609045982" lon="31.0917592049"><time>2026-09-02T10:49:16Z</time></trkpt><trkpt lat="59.4609045982" lon="31.0917592049"><time>2026-09-02T10:49:18Z</time></trkpt><trkpt lat="59.4609045982" lon="31.0917592049"><time>2026-09-02T10:49:21Z</time></trkpt><trkpt lat="59.4609045982" lon="31.0917592049"><time>2026-09-02T10:49:23Z</time></trkpt><trkpt lat="59.4609045982" lon="31.0917592049"><time>2026-09-02T10:49:26Z</time></trkpt><trkpt lat="59.4609045982" lon="31.0917592049"><time>2026-09-02T10:49:28Z</time></trkpt><trkpt lat="59.4609045982" lon="31.0917592049"><time>2026-09-02T10:49:31Z</time></trkpt><trkpt lat="59.4609045982" lon="31.0917592049"><time>2026-09-02T10:49:36Z</time></trkpt><trkpt lat="59.4609045982" lon="31.0917592049"><time>2026-09-02T10:49:38Z</time></trkpt><trkpt lat="59.4609045982" lon="31.0917592049"><time>2026-09-02T10:49:41Z</time></trkpt><trkpt lat="59.4609045982" lon="31.0917592049"><time>2026-09-02T10:49:43Z</time></trkpt><trkpt lat="59.4609045982" lon="31.0917592049"><time>2026-09-02T10:49:46Z</time></trkpt><trkpt lat="59.4609045982" lon="31.0917592049"><time>2026-09-02T10:49:48Z</time></trkpt><trkpt lat="59.4609045982" lon="31.0917592049"><time>2026-09-02T10:49:51Z</time></trkpt><trkpt lat="59.4609045982" lon="31.0917592049"><time>2026-09-02T10:49:53Z</time></trkpt><trkpt lat="59.4609045982" lon="31.0917592049"><time>2026-09-02T10:49:56Z</time></trkpt><trkpt lat="59.4609045982" lon="31.0917592049"><time>2026-09-02T10:49:58Z</time></trkpt><trkpt lat="59.4609045982" lon="31.0917592049"><time>2026-09-02T10:50:01Z</time></trkpt><trkpt lat="59.4609045982" lon="31.0917592049"><time>2026-09-02T10:50:03Z</time></trkpt><trkpt lat="59.4609045982" lon="31.0917592049"><time>2026-09-02T10:50:06Z</time></trkpt><trkpt lat="59.4609045982" lon="31.0917592049"><time>2026-09-02T10:50:08Z</time></trkpt><trkpt lat="59.4609045982" lon="31.0917592049"><time>2026-09-02T10:50:11Z</time></trkpt><trkpt lat="59.4609045982" lon="31.0917592049"><time>2026-09-02T10:50:13Z</time></trkpt><trkpt lat="59.4609045982" lon="31.0917592049"><time>2026-09-02T10:50:16Z</time></trkpt><trkpt lat="59.4609045982" lon="31.0917592049"><time>2026-09-02T10:50:18Z</time></trkpt><trkpt lat="59.4609045982" lon="31.0917592049"><time>2026-09-02T10:50:21Z</time></trkpt><trkpt lat="59.4609260559" lon="31.0917592049"><time>2026-09-02T10:50:23Z</time></trkpt><trkpt lat="59.4609045982" lon="31.0917592049"><time>2026-09-02T10:50:26Z</time></trkpt><trkpt lat="59.4608831406" lon="31.0917377472"><time>2026-09-02T10:50:28Z</time></trkpt><trkpt lat="59.4608831406" lon="31.0917162895"><time>2026-09-02T10:50:31Z</time></trkpt><trkpt lat="59.4608831406" lon="31.0916733742"><time>2026-09-02T10:50:33Z</time></trkpt><trkpt lat="59.4608616829" lon="31.0916304588"><time>2026-09-02T10:50:36Z</time></trkpt><trkpt lat="59.4608402252" lon="31.0915875435"><time>2026-09-02T10:50:38Z</time></trkpt><trkpt lat="59.4608402252" lon="31.0915446281"><time>2026-09-02T10:50:41Z</time></trkpt><trkpt lat="59.4608187675" lon="31.0915446281"><time>2026-09-02T10:50:43Z</time></trkpt><trkpt lat="59.4608187675" lon="31.0915017128"><time>2026-09-02T10:50:46Z</time></trkpt><trkpt lat="59.4607758522" lon="31.0914158821"><time>2026-09-02T10:50:48Z</time></trkpt><trkpt lat="59.4607543945" lon="31.0913300514"><time>2026-09-02T10:50:51Z</time></trkpt><trkpt lat="59.4607114792" lon="31.0913085938"><time>2026-09-02T10:50:53Z</time></trkpt><trkpt lat="59.4606685638" lon="31.0912442207"><time>2026-09-02T10:50:56Z</time></trkpt><trkpt lat="59.4606471062" lon="31.0911154747"><time>2026-09-02T10:50:58Z</time></trkpt><trkpt lat="59.4606471062" lon="31.0910296440"><time>2026-09-02T10:51:01Z</time></trkpt><trkpt lat="59.4606256485" lon="31.0909867287"><time>2026-09-02T10:51:03Z</time></trkpt><trkpt lat="59.4606041908" lon="31.0909438133"><time>2026-09-02T10:51:06Z</time></trkpt><trkpt lat="59.4605612755" lon="31.0909008980"><time>2026-09-02T10:51:08Z</time></trkpt><trkpt lat="59.4605827332" lon="31.0909008980"><time>2026-09-02T10:51:11Z</time></trkpt><trkpt lat="59.4606041908" lon="31.0909652710"><time>2026-09-02T10:51:13Z</time></trkpt><trkpt lat="59.4606256485" lon="31.0909652710"><time>2026-09-02T10:51:16Z</time></trkpt><trkpt lat="59.4606256485" lon="31.0909652710"><time>2026-09-02T10:51:18Z</time></trkpt><trkpt lat="59.4606256485" lon="31.0909652710"><time>2026-09-02T10:51:21Z</time></trkpt><trkpt lat="59.4606256485" lon="31.0909652710"><time>2026-09-02T10:51:23Z</time></trkpt><trkpt lat="59.4606041908" lon="31.0909438133"><time>2026-09-02T10:51:26Z</time></trkpt><trkpt lat="59.4606041908" lon="31.0909223557"><time>2026-09-02T10:51:28Z</time></trkpt><trkpt lat="59.4606041908" lon="31.0909008980"><time>2026-09-02T10:51:31Z</time></trkpt><trkpt lat="59.4606041908" lon="31.0908794403"><time>2026-09-02T10:51:33Z</time></trkpt><trkpt lat="59.4606041908" lon="31.0908579826"><time>2026-09-02T10:51:36Z</time></trkpt><trkpt lat="59.4606041908" lon="31.0908579826"><time>2026-09-02T10:51:38Z</time></trkpt><trkpt lat="59.4606041908" lon="31.0908579826"><time>2026-09-02T10:51:41Z</time></trkpt><trkpt lat="59.4606041908" lon="31.0908579826"><time>2026-09-02T10:51:43Z</time></trkpt><trkpt lat="59.4606041908" lon="31.0908579826"><time>2026-09-02T10:51:46Z</time></trkpt><trkpt lat="59.4606041908" lon="31.0908579826"><time>2026-09-02T10:51:48Z</time></trkpt><trkpt lat="59.4606041908" lon="31.0908579826"><time>2026-09-02T10:51:51Z</time></trkpt><trkpt lat="59.4606041908" lon="31.0908579826"><time>2026-09-02T10:51:53Z</time></trkpt><trkpt lat="59.4606041908" lon="31.0908150673"><time>2026-09-02T10:51:56Z</time></trkpt><trkpt lat="59.4605827332" lon="31.0907506943"><time>2026-09-02T10:51:58Z</time></trkpt><trkpt lat="59.4606041908" lon="31.0907077789"><time>2026-09-02T10:52:01Z</time></trkpt><trkpt lat="59.4606041908" lon="31.0907077789"><time>2026-09-02T10:52:03Z</time></trkpt><trkpt lat="59.4605827332" lon="31.0906863213"><time>2026-09-02T10:52:06Z</time></trkpt><trkpt lat="59.4605827332" lon="31.0906219482"><time>2026-09-02T10:52:08Z</time></trkpt><trkpt lat="59.4605612755" lon="31.0906004906"><time>2026-09-02T10:52:11Z</time></trkpt><trkpt lat="59.4605398178" lon="31.0905146599"><time>2026-09-02T10:52:13Z</time></trkpt><trkpt lat="59.4605398178" lon="31.0905146599"><time>2026-09-02T10:52:16Z</time></trkpt><trkpt lat="59.4605183601" lon="31.0904717445"><time>2026-09-02T10:52:18Z</time></trkpt><trkpt lat="59.4604969025" lon="31.0904502869"><time>2026-09-02T10:52:21Z</time></trkpt><trkpt lat="59.4604754448" lon="31.0904288292"><time>2026-09-02T10:52:23Z</time></trkpt><trkpt lat="59.4604754448" lon="31.0904288292"><time>2026-09-02T10:52:26Z</time></trkpt><trkpt lat="59.4604754448" lon="31.0904288292"><time>2026-09-02T10:52:28Z</time></trkpt><trkpt lat="59.4604754448" lon="31.0904288292"><time>2026-09-02T10:52:31Z</time></trkpt><trkpt lat="59.4604754448" lon="31.0904288292"><time>2026-09-02T10:52:33Z</time></trkpt><trkpt lat="59.4604754448" lon="31.0904288292"><time>2026-09-02T10:52:36Z</time></trkpt><trkpt lat="59.4604754448" lon="31.0904288292"><time>2026-09-02T10:52:38Z</time></trkpt><trkpt lat="59.4604754448" lon="31.0904073715"><time>2026-09-02T10:52:41Z</time></trkpt><trkpt lat="59.4604754448" lon="31.0904073715"><time>2026-09-02T10:52:43Z</time></trkpt><trkpt lat="59.4604754448" lon="31.0904073715"><time>2026-09-02T10:52:46Z</time></trkpt><trkpt lat="59.4604754448" lon="31.0903215408"><time>2026-09-02T10:52:48Z</time></trkpt><trkpt lat="59.4604539871" lon="31.0903000832"><time>2026-09-02T10:52:51Z</time></trkpt><trkpt lat="59.4603896141" lon="31.0902786255"><time>2026-09-02T10:52:53Z</time></trkpt><trkpt lat="59.4603896141" lon="31.0902571678"><time>2026-09-02T10:52:56Z</time></trkpt><trkpt lat="59.4603466988" lon="31.0902357101"><time>2026-09-02T10:52:58Z</time></trkpt><trkpt lat="59.4603466988" lon="31.0902357101"><time>2026-09-02T10:53:01Z</time></trkpt><trkpt lat="59.4603466988" lon="31.0902357101"><time>2026-09-02T10:53:03Z</time></trkpt><trkpt lat="59.4603466988" lon="31.0902142525"><time>2026-09-02T10:53:06Z</time></trkpt><trkpt lat="59.4603466988" lon="31.0902142525"><time>2026-09-02T10:53:08Z</time></trkpt><trkpt lat="59.4603466988" lon="31.0902142525"><time>2026-09-02T10:53:11Z</time></trkpt><trkpt lat="59.4603252411" lon="31.0901713371"><time>2026-09-02T10:53:13Z</time></trkpt><trkpt lat="59.4603037834" lon="31.0901498795"><time>2026-09-02T10:53:16Z</time></trkpt><trkpt lat="59.4603037834" lon="31.0900211334"><time>2026-09-02T10:53:18Z</time></trkpt><trkpt lat="59.4603252411" lon="31.0899567604"><time>2026-09-02T10:53:21Z</time></trkpt><trkpt lat="59.4602823257" lon="31.0898923874"><time>2026-09-02T10:53:23Z</time></trkpt><trkpt lat="59.4603252411" lon="31.0898065567"><time>2026-09-02T10:53:26Z</time></trkpt><trkpt lat="59.4603466988" lon="31.0897636414"><time>2026-09-02T10:53:28Z</time></trkpt><trkpt lat="59.4603466988" lon="31.0897636414"><time>2026-09-02T10:53:31Z</time></trkpt><trkpt lat="59.4603252411" lon="31.0897207260"><time>2026-09-02T10:53:33Z</time></trkpt><trkpt lat="59.4602179527" lon="31.0896563530"><time>2026-09-02T10:53:36Z</time></trkpt><trkpt lat="59.4601964951" lon="31.0896563530"><time>2026-09-02T10:53:38Z</time></trkpt><trkpt lat="59.4601964951" lon="31.0896563530"><time>2026-09-02T10:53:41Z</time></trkpt><trkpt lat="59.4601750374" lon="31.0896563530"><time>2026-09-02T10:53:43Z</time></trkpt><trkpt lat="59.4601535797" lon="31.0896563530"><time>2026-09-02T10:53:46Z</time></trkpt><trkpt lat="59.4600677490" lon="31.0896778107"><time>2026-09-02T10:53:48Z</time></trkpt><trkpt lat="59.4600462914" lon="31.0896778107"><time>2026-09-02T10:53:51Z</time></trkpt><trkpt lat="59.4599819183" lon="31.0896563530"><time>2026-09-02T10:53:53Z</time></trkpt><trkpt lat="59.4599604607" lon="31.0896348953"><time>2026-09-02T10:53:56Z</time></trkpt><trkpt lat="59.4599175453" lon="31.0896348953"><time>2026-09-02T10:53:58Z</time></trkpt><trkpt lat="59.4599175453" lon="31.0896348953"><time>2026-09-02T10:54:01Z</time></trkpt><trkpt lat="59.4599390030" lon="31.0896134377"><time>2026-09-02T10:54:03Z</time></trkpt><trkpt lat="59.4599390030" lon="31.0895705223"><time>2026-09-02T10:54:06Z</time></trkpt><trkpt lat="59.4599390030" lon="31.0895061493"><time>2026-09-02T10:54:08Z</time></trkpt><trkpt lat="59.4599390030" lon="31.0894632339"><time>2026-09-02T10:54:11Z</time></trkpt><trkpt lat="59.4599390030" lon="31.0894632339"><time>2026-09-02T10:54:13Z</time></trkpt><trkpt lat="59.4599390030" lon="31.0894632339"><time>2026-09-02T10:54:16Z</time></trkpt><trkpt lat="59.4599390030" lon="31.0894632339"><time>2026-09-02T10:54:18Z</time></trkpt><trkpt lat="59.4599390030" lon="31.0894632339"><time>2026-09-02T10:54:21Z</time></trkpt><trkpt lat="59.4599390030" lon="31.0894632339"><time>2026-09-02T10:54:23Z</time></trkpt><trkpt lat="59.4599390030" lon="31.0894632339"><time>2026-09-02T10:54:26Z</time></trkpt><trkpt lat="59.4599390030" lon="31.0894632339"><time>2026-09-02T10:54:28Z</time></trkpt><trkpt lat="59.4599390030" lon="31.0894417763"><time>2026-09-02T10:54:31Z</time></trkpt><trkpt lat="59.4599390030" lon="31.0894417763"><time>2026-09-02T10:54:33Z</time></trkpt><trkpt lat="59.4599390030" lon="31.0894203186"><time>2026-09-02T10:54:36Z</time></trkpt><trkpt lat="59.4599390030" lon="31.0893774033"><time>2026-09-02T10:54:38Z</time></trkpt><trkpt lat="59.4599390030" lon="31.0893774033"><time>2026-09-02T10:54:41Z</time></trkpt><trkpt lat="59.4599390030" lon="31.0893774033"><time>2026-09-02T10:54:43Z</time></trkpt><trkpt lat="59.4599390030" lon="31.0893774033"><time>2026-09-02T10:54:46Z</time></trkpt><trkpt lat="59.4599390030" lon="31.0893774033"><time>2026-09-02T10:54:48Z</time></trkpt><trkpt lat="59.4599390030" lon="31.0893774033"><time>2026-09-02T10:54:51Z</time></trkpt><trkpt lat="59.4599390030" lon="31.0893774033"><time>2026-09-02T10:54:53Z</time></trkpt><trkpt lat="59.4599175453" lon="31.0893559456"><time>2026-09-02T10:54:56Z</time></trkpt><trkpt lat="59.4599175453" lon="31.0893344879"><time>2026-09-02T10:54:58Z</time></trkpt><trkpt lat="59.4599175453" lon="31.0893344879"><time>2026-09-02T10:55:01Z</time></trkpt><trkpt lat="59.4599175453" lon="31.0893344879"><time>2026-09-02T10:55:03Z</time></trkpt><trkpt lat="59.4598960876" lon="31.0893344879"><time>2026-09-02T10:55:06Z</time></trkpt><trkpt lat="59.4598531723" lon="31.0893130302"><time>2026-09-02T10:55:08Z</time></trkpt><trkpt lat="59.4598531723" lon="31.0893130302"><time>2026-09-02T10:55:11Z</time></trkpt><trkpt lat="59.4598531723" lon="31.0893130302"><time>2026-09-02T10:55:13Z</time></trkpt><trkpt lat="59.4598531723" lon="31.0893130302"><time>2026-09-02T10:55:16Z</time></trkpt><trkpt lat="59.4598531723" lon="31.0893130302"><time>2026-09-02T10:55:18Z</time></trkpt><trkpt lat="59.4598531723" lon="31.0893130302"><time>2026-09-02T10:55:21Z</time></trkpt><trkpt lat="59.4598531723" lon="31.0892915726"><time>2026-09-02T10:55:23Z</time></trkpt><trkpt lat="59.4598531723" lon="31.0892701149"><time>2026-09-02T10:55:26Z</time></trkpt><trkpt lat="59.4598317146" lon="31.0892701149"><time>2026-09-02T10:55:28Z</time></trkpt><trkpt lat="59.4598317146" lon="31.0892701149"><time>2026-09-02T10:55:31Z</time></trkpt><trkpt lat="59.4598317146" lon="31.0892701149"><time>2026-09-02T10:55:33Z</time></trkpt><trkpt lat="59.4598317146" lon="31.0892701149"><time>2026-09-02T10:55:36Z</time></trkpt><trkpt lat="59.4598317146" lon="31.0892701149"><time>2026-09-02T10:55:38Z</time></trkpt><trkpt lat="59.4598317146" lon="31.0892701149"><time>2026-09-02T10:55:41Z</time></trkpt><trkpt lat="59.4598317146" lon="31.0892701149"><time>2026-09-02T10:55:43Z</time></trkpt><trkpt lat="59.4598317146" lon="31.0892701149"><time>2026-09-02T10:55:46Z</time></trkpt><trkpt lat="59.4598317146" lon="31.0892486572"><time>2026-09-02T10:55:48Z</time></trkpt><trkpt lat="59.4598317146" lon="31.0892486572"><time>2026-09-02T10:55:51Z</time></trkpt><trkpt lat="59.4598317146" lon="31.0892486572"><time>2026-09-02T10:55:53Z</time></trkpt><trkpt lat="59.4598317146" lon="31.0892486572"><time>2026-09-02T10:55:56Z</time></trkpt><trkpt lat="59.4598317146" lon="31.0892486572"><time>2026-09-02T10:55:58Z</time></trkpt><trkpt lat="59.4598317146" lon="31.0892486572"><time>2026-09-02T10:56:01Z</time></trkpt><trkpt lat="59.4598317146" lon="31.0892486572"><time>2026-09-02T10:56:03Z</time></trkpt><trkpt lat="59.4598317146" lon="31.0892486572"><time>2026-09-02T10:56:06Z</time></trkpt><trkpt lat="59.4598317146" lon="31.0892486572"><time>2026-09-02T10:56:08Z</time></trkpt><trkpt lat="59.4598317146" lon="31.0892486572"><time>2026-09-02T10:56:11Z</time></trkpt><trkpt lat="59.4598317146" lon="31.0892486572"><time>2026-09-02T10:56:13Z</time></trkpt><trkpt lat="59.4598317146" lon="31.0892486572"><time>2026-09-02T10:56:16Z</time></trkpt><trkpt lat="59.4598317146" lon="31.0892486572"><time>2026-09-02T10:56:18Z</time></trkpt><trkpt lat="59.4598317146" lon="31.0892486572"><time>2026-09-02T10:56:21Z</time></trkpt><trkpt lat="59.4598317146" lon="31.0892486572"><time>2026-09-02T10:56:23Z</time></trkpt><trkpt lat="59.4598317146" lon="31.0892486572"><time>2026-09-02T10:56:26Z</time></trkpt><trkpt lat="59.4598317146" lon="31.0892486572"><time>2026-09-02T10:56:28Z</time></trkpt><trkpt lat="59.4598317146" lon="31.0892486572"><time>2026-09-02T10:56:31Z</time></trkpt><trkpt lat="59.4598317146" lon="31.0892486572"><time>2026-09-02T10:56:33Z</time></trkpt><trkpt lat="59.4598317146" lon="31.0892486572"><time>2026-09-02T10:56:36Z</time></trkpt><trkpt lat="59.4598317146" lon="31.0892486572"><time>2026-09-02T10:56:38Z</time></trkpt><trkpt lat="59.4598317146" lon="31.0892486572"><time>2026-09-02T10:56:41Z</time></trkpt><trkpt lat="59.4598317146" lon="31.0892271996"><time>2026-09-02T10:56:43Z</time></trkpt><trkpt lat="59.4598317146" lon="31.0892271996"><time>2026-09-02T10:56:46Z</time></trkpt><trkpt lat="59.4598317146" lon="31.0892271996"><time>2026-09-02T10:56:48Z</time></trkpt><trkpt lat="59.4598317146" lon="31.0892271996"><time>2026-09-02T10:56:51Z</time></trkpt><trkpt lat="59.4598317146" lon="31.0892271996"><time>2026-09-02T10:56:53Z</time></trkpt><trkpt lat="59.4598317146" lon="31.0892271996"><time>2026-09-02T10:56:56Z</time></trkpt><trkpt lat="59.4598317146" lon="31.0892271996"><time>2026-09-02T10:56:58Z</time></trkpt><trkpt lat="59.4598317146" lon="31.0892271996"><time>2026-09-02T10:57:01Z</time></trkpt><trkpt lat="59.4598317146" lon="31.0892271996"><time>2026-09-02T10:57:03Z</time></trkpt><trkpt lat="59.4598317146" lon="31.0892271996"><time>2026-09-02T10:57:06Z</time></trkpt><trkpt lat="59.4598317146" lon="31.0892271996"><time>2026-09-02T10:57:08Z</time></trkpt><trkpt lat="59.4598317146" lon="31.0892271996"><time>2026-09-02T10:57:11Z</time></trkpt><trkpt lat="59.4598317146" lon="31.0892271996"><time>2026-09-02T10:57:13Z</time></trkpt><trkpt lat="59.4598317146" lon="31.0892271996"><time>2026-09-02T10:57:16Z</time></trkpt><trkpt lat="59.4598317146" lon="31.0892271996"><time>2026-09-02T10:57:18Z</time></trkpt><trkpt lat="59.4598317146" lon="31.0892271996"><time>2026-09-02T10:57:21Z</time></trkpt><trkpt lat="59.4598317146" lon="31.0892271996"><time>2026-09-02T10:57:23Z</time></trkpt><trkpt lat="59.4598317146" lon="31.0892271996"><time>2026-09-02T10:57:26Z</time></trkpt><trkpt lat="59.4598317146" lon="31.0892271996"><time>2026-09-02T10:57:28Z</time></trkpt><trkpt lat="59.4598317146" lon="31.0892057419"><time>2026-09-02T10:57:31Z</time></trkpt><trkpt lat="59.4598102570" lon="31.0891842842"><time>2026-09-02T10:57:33Z</time></trkpt><trkpt lat="59.4597673416" lon="31.0891628265"><time>2026-09-02T10:57:36Z</time></trkpt><trkpt lat="59.4597244263" lon="31.0891413689"><time>2026-09-02T10:57:38Z</time></trkpt><trkpt lat="59.4596815109" lon="31.0891199112"><time>2026-09-02T10:57:41Z</time></trkpt><trkpt lat="59.4596600533" lon="31.0890769958"><time>2026-09-02T10:57:43Z</time></trkpt><trkpt lat="59.4596600533" lon="31.0890340805"><time>2026-09-02T10:57:46Z</time></trkpt><trkpt lat="59.4596600533" lon="31.0890340805"><time>2026-09-02T10:57:48Z</time></trkpt><trkpt lat="59.4596600533" lon="31.0890340805"><time>2026-09-02T10:57:51Z</time></trkpt><trkpt lat="59.4596600533" lon="31.0890340805"><time>2026-09-02T10:57:53Z</time></trkpt><trkpt lat="59.4596600533" lon="31.0890340805"><time>2026-09-02T10:57:56Z</time></trkpt><trkpt lat="59.4596171379" lon="31.0889911652"><time>2026-09-02T10:57:58Z</time></trkpt><trkpt lat="59.4596171379" lon="31.0889911652"><time>2026-09-02T10:58:01Z</time></trkpt><trkpt lat="59.4596171379" lon="31.0889911652"><time>2026-09-02T10:58:03Z</time></trkpt><trkpt lat="59.4596171379" lon="31.0889911652"><time>2026-09-02T10:58:06Z</time></trkpt><trkpt lat="59.4596171379" lon="31.0889482498"><time>2026-09-02T10:58:08Z</time></trkpt><trkpt lat="59.4596171379" lon="31.0889053345"><time>2026-09-02T10:58:11Z</time></trkpt><trkpt lat="59.4595956802" lon="31.0888409615"><time>2026-09-02T10:58:13Z</time></trkpt><trkpt lat="59.4595956802" lon="31.0887765884"><time>2026-09-02T10:58:16Z</time></trkpt><trkpt lat="59.4595956802" lon="31.0887551308"><time>2026-09-02T10:58:18Z</time></trkpt><trkpt lat="59.4595956802" lon="31.0887551308"><time>2026-09-02T10:58:21Z</time></trkpt><trkpt lat="59.4595956802" lon="31.0887551308"><time>2026-09-02T10:58:23Z</time></trkpt><trkpt lat="59.4595956802" lon="31.0887336731"><time>2026-09-02T10:58:26Z</time></trkpt><trkpt lat="59.4595956802" lon="31.0887336731"><time>2026-09-02T10:58:28Z</time></trkpt><trkpt lat="59.4595527649" lon="31.0887551308"><time>2026-09-02T10:58:31Z</time></trkpt><trkpt lat="59.4595313072" lon="31.0887765884"><time>2026-09-02T10:58:33Z</time></trkpt><trkpt lat="59.4595313072" lon="31.0887765884"><time>2026-09-02T10:58:36Z</time></trkpt><trkpt lat="59.4595098495" lon="31.0887765884"><time>2026-09-02T10:58:38Z</time></trkpt><trkpt lat="59.4595098495" lon="31.0887336731"><time>2026-09-02T10:58:41Z</time></trkpt><trkpt lat="59.4594883919" lon="31.0887122154"><time>2026-09-02T10:58:43Z</time></trkpt><trkpt lat="59.4594883919" lon="31.0887122154"><time>2026-09-02T10:58:46Z</time></trkpt><trkpt lat="59.4594883919" lon="31.0887122154"><time>2026-09-02T10:58:48Z</time></trkpt><trkpt lat="59.4594883919" lon="31.0886693001"><time>2026-09-02T10:58:51Z</time></trkpt><trkpt lat="59.4594883919" lon="31.0886478424"><time>2026-09-02T10:58:53Z</time></trkpt><trkpt lat="59.4594883919" lon="31.0886478424"><time>2026-09-02T10:58:56Z</time></trkpt><trkpt lat="59.4594883919" lon="31.0886478424"><time>2026-09-02T10:58:58Z</time></trkpt><trkpt lat="59.4594883919" lon="31.0886478424"><time>2026-09-02T10:59:01Z</time></trkpt><trkpt lat="59.4594883919" lon="31.0886478424"><time>2026-09-02T10:59:03Z</time></trkpt><trkpt lat="59.4594883919" lon="31.0886478424"><time>2026-09-02T10:59:06Z</time></trkpt><trkpt lat="59.4594883919" lon="31.0886478424"><time>2026-09-02T10:59:08Z</time></trkpt><trkpt lat="59.4594883919" lon="31.0886478424"><time>2026-09-02T10:59:11Z</time></trkpt><trkpt lat="59.4595098495" lon="31.0886263847"><time>2026-09-02T10:59:13Z</time></trkpt><trkpt lat="59.4595098495" lon="31.0886049271"><time>2026-09-02T10:59:16Z</time></trkpt><trkpt lat="59.4594669342" lon="31.0885190964"><time>2026-09-02T10:59:18Z</time></trkpt><trkpt lat="59.4594454765" lon="31.0884547234"><time>2026-09-02T10:59:21Z</time></trkpt><trkpt lat="59.4594025612" lon="31.0883474350"><time>2026-09-02T10:59:23Z</time></trkpt><trkpt lat="59.4594025612" lon="31.0883045197"><time>2026-09-02T10:59:26Z</time></trkpt><trkpt lat="59.4593811035" lon="31.0882830620"><time>2026-09-02T10:59:28Z</time></trkpt><trkpt lat="59.4593596458" lon="31.0882616043"><time>2026-09-02T10:59:31Z</time></trkpt><trkpt lat="59.4593596458" lon="31.0882616043"><time>2026-09-02T10:59:33Z</time></trkpt><trkpt lat="59.4593596458" lon="31.0882616043"><time>2026-09-02T10:59:36Z</time></trkpt><trkpt lat="59.4593596458" lon="31.0882830620"><time>2026-09-02T10:59:38Z</time></trkpt><trkpt lat="59.4594025612" lon="31.0883474350"><time>2026-09-02T10:59:41Z</time></trkpt><trkpt lat="59.4594454765" lon="31.0883688927"><time>2026-09-02T10:59:43Z</time></trkpt><trkpt lat="59.4594454765" lon="31.0883688927"><time>2026-09-02T10:59:46Z</time></trkpt><trkpt lat="59.4594454765" lon="31.0883688927"><time>2026-09-02T10:59:48Z</time></trkpt><trkpt lat="59.4594454765" lon="31.0883688927"><time>2026-09-02T10:59:51Z</time></trkpt><trkpt lat="59.4594454765" lon="31.0883688927"><time>2026-09-02T10:59:53Z</time></trkpt><trkpt lat="59.4594454765" lon="31.0883688927"><time>2026-09-02T10:59:56Z</time></trkpt><trkpt lat="59.4594454765" lon="31.0883688927"><time>2026-09-02T10:59:58Z</time></trkpt><trkpt lat="59.4594454765" lon="31.0883688927"><time>2026-09-02T11:00:01Z</time></trkpt><trkpt lat="59.4594454765" lon="31.0883688927"><time>2026-09-02T11:00:03Z</time></trkpt><trkpt lat="59.4594454765" lon="31.0883688927"><time>2026-09-02T11:00:06Z</time></trkpt><trkpt lat="59.4594454765" lon="31.0883688927"><time>2026-09-02T11:00:08Z</time></trkpt><trkpt lat="59.4594454765" lon="31.0883688927"><time>2026-09-02T11:00:13Z</time></trkpt><trkpt lat="59.4594454765" lon="31.0883688927"><time>2026-09-02T11:00:16Z</time></trkpt><trkpt lat="59.4594454765" lon="31.0883903503"><time>2026-09-02T11:00:18Z</time></trkpt><trkpt lat="59.4594240189" lon="31.0883903503"><time>2026-09-02T11:00:21Z</time></trkpt><trkpt lat="59.4594240189" lon="31.0883903503"><time>2026-09-02T11:00:23Z</time></trkpt><trkpt lat="59.4594240189" lon="31.0883903503"><time>2026-09-02T11:00:26Z</time></trkpt><trkpt lat="59.4594240189" lon="31.0883903503"><time>2026-09-02T11:00:28Z</time></trkpt><trkpt lat="59.4594240189" lon="31.0884118080"><time>2026-09-02T11:00:31Z</time></trkpt><trkpt lat="59.4594240189" lon="31.0884118080"><time>2026-09-02T11:00:33Z</time></trkpt><trkpt lat="59.4594240189" lon="31.0884118080"><time>2026-09-02T11:00:36Z</time></trkpt><trkpt lat="59.4594025612" lon="31.0884118080"><time>2026-09-02T11:00:38Z</time></trkpt><trkpt lat="59.4594025612" lon="31.0884118080"><time>2026-09-02T11:00:41Z</time></trkpt><trkpt lat="59.4594025612" lon="31.0883903503"><time>2026-09-02T11:00:43Z</time></trkpt><trkpt lat="59.4594025612" lon="31.0883903503"><time>2026-09-02T11:00:46Z</time></trkpt><trkpt lat="59.4593811035" lon="31.0883688927"><time>2026-09-02T11:00:48Z</time></trkpt><trkpt lat="59.4593381882" lon="31.0883474350"><time>2026-09-02T11:00:51Z</time></trkpt><trkpt lat="59.4593381882" lon="31.0883474350"><time>2026-09-02T11:00:53Z</time></trkpt><trkpt lat="59.4593381882" lon="31.0883259773"><time>2026-09-02T11:00:56Z</time></trkpt><trkpt lat="59.4593381882" lon="31.0883259773"><time>2026-09-02T11:00:58Z</time></trkpt><trkpt lat="59.4593167305" lon="31.0883045197"><time>2026-09-02T11:01:01Z</time></trkpt><trkpt lat="59.4592952728" lon="31.0882830620"><time>2026-09-02T11:01:03Z</time></trkpt><trkpt lat="59.4592952728" lon="31.0882830620"><time>2026-09-02T11:01:06Z</time></trkpt><trkpt lat="59.4592952728" lon="31.0882830620"><time>2026-09-02T11:01:08Z</time></trkpt><trkpt lat="59.4592523575" lon="31.0882616043"><time>2026-09-02T11:01:11Z</time></trkpt><trkpt lat="59.4592094421" lon="31.0882401466"><time>2026-09-02T11:01:13Z</time></trkpt><trkpt lat="59.4591021538" lon="31.0881543159"><time>2026-09-02T11:01:16Z</time></trkpt><trkpt lat="59.4590806961" lon="31.0880041122"><time>2026-09-02T11:01:18Z</time></trkpt><trkpt lat="59.4590592384" lon="31.0878968239"><time>2026-09-02T11:01:21Z</time></trkpt><trkpt lat="59.4590377808" lon="31.0877037048"><time>2026-09-02T11:01:23Z</time></trkpt><trkpt lat="59.4590377808" lon="31.0876393318"><time>2026-09-02T11:01:26Z</time></trkpt><trkpt lat="59.4590377808" lon="31.0875964165"><time>2026-09-02T11:01:28Z</time></trkpt><trkpt lat="59.4590377808" lon="31.0875964165"><time>2026-09-02T11:01:31Z</time></trkpt><trkpt lat="59.4590377808" lon="31.0876178741"><time>2026-09-02T11:01:33Z</time></trkpt><trkpt lat="59.4590592384" lon="31.0876607895"><time>2026-09-02T11:01:36Z</time></trkpt><trkpt lat="59.4590806961" lon="31.0877466202"><time>2026-09-02T11:01:38Z</time></trkpt><trkpt lat="59.4590806961" lon="31.0877895355"><time>2026-09-02T11:01:41Z</time></trkpt><trkpt lat="59.4590806961" lon="31.0878109932"><time>2026-09-02T11:01:43Z</time></trkpt><trkpt lat="59.4591021538" lon="31.0878324509"><time>2026-09-02T11:01:46Z</time></trkpt><trkpt lat="59.4591021538" lon="31.0878539085"><time>2026-09-02T11:01:48Z</time></trkpt><trkpt lat="59.4591021538" lon="31.0878539085"><time>2026-09-02T11:01:51Z</time></trkpt><trkpt lat="59.4591021538" lon="31.0878539085"><time>2026-09-02T11:01:53Z</time></trkpt><trkpt lat="59.4591021538" lon="31.0878324509"><time>2026-09-02T11:01:56Z</time></trkpt><trkpt lat="59.4591021538" lon="31.0878109932"><time>2026-09-02T11:01:58Z</time></trkpt><trkpt lat="59.4591021538" lon="31.0878109932"><time>2026-09-02T11:02:01Z</time></trkpt><trkpt lat="59.4590806961" lon="31.0877680779"><time>2026-09-02T11:02:03Z</time></trkpt><trkpt lat="59.4590377808" lon="31.0877466202"><time>2026-09-02T11:02:06Z</time></trkpt><trkpt lat="59.4590163231" lon="31.0877037048"><time>2026-09-02T11:02:08Z</time></trkpt><trkpt lat="59.4590163231" lon="31.0877037048"><time>2026-09-02T11:02:11Z</time></trkpt><trkpt lat="59.4590163231" lon="31.0877037048"><time>2026-09-02T11:02:13Z</time></trkpt><trkpt lat="59.4590163231" lon="31.0877037048"><time>2026-09-02T11:02:16Z</time></trkpt><trkpt lat="59.4590163231" lon="31.0876822472"><time>2026-09-02T11:02:18Z</time></trkpt><trkpt lat="59.4590163231" lon="31.0876607895"><time>2026-09-02T11:02:21Z</time></trkpt><trkpt lat="59.4590163231" lon="31.0876607895"><time>2026-09-02T11:02:23Z</time></trkpt><trkpt lat="59.4590163231" lon="31.0876607895"><time>2026-09-02T11:02:26Z</time></trkpt><trkpt lat="59.4590163231" lon="31.0876607895"><time>2026-09-02T11:02:28Z</time></trkpt><trkpt lat="59.4590163231" lon="31.0876607895"><time>2026-09-02T11:02:31Z</time></trkpt><trkpt lat="59.4590163231" lon="31.0876607895"><time>2026-09-02T11:02:33Z</time></trkpt><trkpt lat="59.4590163231" lon="31.0876607895"><time>2026-09-02T11:02:36Z</time></trkpt><trkpt lat="59.4590163231" lon="31.0876607895"><time>2026-09-02T11:02:38Z</time></trkpt><trkpt lat="59.4590163231" lon="31.0876607895"><time>2026-09-02T11:02:41Z</time></trkpt><trkpt lat="59.4590163231" lon="31.0876607895"><time>2026-09-02T11:02:43Z</time></trkpt><trkpt lat="59.4590163231" lon="31.0876607895"><time>2026-09-02T11:02:46Z</time></trkpt><trkpt lat="59.4590163231" lon="31.0876607895"><time>2026-09-02T11:02:48Z</time></trkpt><trkpt lat="59.4590163231" lon="31.0876607895"><time>2026-09-02T11:02:51Z</time></trkpt><trkpt lat="59.4590163231" lon="31.0876607895"><time>2026-09-02T11:02:53Z</time></trkpt><trkpt lat="59.4590163231" lon="31.0876607895"><time>2026-09-02T11:02:56Z</time></trkpt><trkpt lat="59.4590163231" lon="31.0876607895"><time>2026-09-02T11:02:58Z</time></trkpt><trkpt lat="59.4590377808" lon="31.0876607895"><time>2026-09-02T11:03:01Z</time></trkpt><trkpt lat="59.4590377808" lon="31.0876607895"><time>2026-09-02T11:03:03Z</time></trkpt><trkpt lat="59.4590377808" lon="31.0876607895"><time>2026-09-02T11:03:06Z</time></trkpt><trkpt lat="59.4590377808" lon="31.0876607895"><time>2026-09-02T11:03:08Z</time></trkpt><trkpt lat="59.4590377808" lon="31.0876607895"><time>2026-09-02T11:03:11Z</time></trkpt><trkpt lat="59.4590377808" lon="31.0876607895"><time>2026-09-02T11:03:13Z</time></trkpt><trkpt lat="59.4590377808" lon="31.0876607895"><time>2026-09-02T11:03:16Z</time></trkpt><trkpt lat="59.4590377808" lon="31.0876607895"><time>2026-09-02T11:03:18Z</time></trkpt><trkpt lat="59.4590377808" lon="31.0876607895"><time>2026-09-02T11:03:21Z</time></trkpt><trkpt lat="59.4590377808" lon="31.0876607895"><time>2026-09-02T11:03:23Z</time></trkpt><trkpt lat="59.4590377808" lon="31.0876607895"><time>2026-09-02T11:03:26Z</time></trkpt><trkpt lat="59.4590377808" lon="31.0876607895"><time>2026-09-02T11:03:28Z</time></trkpt><trkpt lat="59.4590377808" lon="31.0876607895"><time>2026-09-02T11:03:31Z</time></trkpt><trkpt lat="59.4590377808" lon="31.0876607895"><time>2026-09-02T11:03:33Z</time></trkpt><trkpt lat="59.4590377808" lon="31.0876607895"><time>2026-09-02T11:03:36Z</time></trkpt><trkpt lat="59.4590377808" lon="31.0876607895"><time>2026-09-02T11:03:38Z</time></trkpt><trkpt lat="59.4590163231" lon="31.0876607895"><time>2026-09-02T11:03:41Z</time></trkpt><trkpt lat="59.4590163231" lon="31.0876607895"><time>2026-09-02T11:03:43Z</time></trkpt><trkpt lat="59.4590163231" lon="31.0876607895"><time>2026-09-02T11:03:46Z</time></trkpt><trkpt lat="59.4590163231" lon="31.0876607895"><time>2026-09-02T11:03:48Z</time></trkpt><trkpt lat="59.4590163231" lon="31.0876607895"><time>2026-09-02T11:03:51Z</time></trkpt><trkpt lat="59.4590163231" lon="31.0876607895"><time>2026-09-02T11:03:53Z</time></trkpt><trkpt lat="59.4589948654" lon="31.0876178741"><time>2026-09-02T11:03:56Z</time></trkpt><trkpt lat="59.4589734077" lon="31.0876393318"><time>2026-09-02T11:03:58Z</time></trkpt><trkpt lat="59.4589519501" lon="31.0876178741"><time>2026-09-02T11:04:01Z</time></trkpt><trkpt lat="59.4589304924" lon="31.0876178741"><time>2026-09-02T11:04:03Z</time></trkpt><trkpt lat="59.4589090347" lon="31.0876178741"><time>2026-09-02T11:04:06Z</time></trkpt><trkpt lat="59.4588875771" lon="31.0876178741"><time>2026-09-02T11:04:08Z</time></trkpt><trkpt lat="59.4588017464" lon="31.0875964165"><time>2026-09-02T11:04:11Z</time></trkpt><trkpt lat="59.4587373734" lon="31.0875535011"><time>2026-09-02T11:04:13Z</time></trkpt><trkpt lat="59.4586730003" lon="31.0874462128"><time>2026-09-02T11:04:16Z</time></trkpt><trkpt lat="59.4586515427" lon="31.0873818398"><time>2026-09-02T11:04:18Z</time></trkpt><trkpt lat="59.4586300850" lon="31.0872745514"><time>2026-09-02T11:04:21Z</time></trkpt><trkpt lat="59.4586300850" lon="31.0872316360"><time>2026-09-02T11:04:23Z</time></trkpt><trkpt lat="59.4586515427" lon="31.0871672630"><time>2026-09-02T11:04:26Z</time></trkpt><trkpt lat="59.4586515427" lon="31.0871458054"><time>2026-09-02T11:04:28Z</time></trkpt><trkpt lat="59.4586515427" lon="31.0871028900"><time>2026-09-02T11:04:31Z</time></trkpt><trkpt lat="59.4586515427" lon="31.0871028900"><time>2026-09-02T11:04:33Z</time></trkpt><trkpt lat="59.4586515427" lon="31.0871672630"><time>2026-09-02T11:04:36Z</time></trkpt><trkpt lat="59.4586300850" lon="31.0873389244"><time>2026-09-02T11:04:38Z</time></trkpt><trkpt lat="59.4585871696" lon="31.0875320435"><time>2026-09-02T11:04:41Z</time></trkpt><trkpt lat="59.4585657120" lon="31.0878109932"><time>2026-09-02T11:04:43Z</time></trkpt><trkpt lat="59.4585657120" lon="31.0878968239"><time>2026-09-02T11:04:46Z</time></trkpt><trkpt lat="59.4586086273" lon="31.0877466202"><time>2026-09-02T11:04:48Z</time></trkpt><trkpt lat="59.4586300850" lon="31.0876393318"><time>2026-09-02T11:04:51Z</time></trkpt><trkpt lat="59.4586515427" lon="31.0875105858"><time>2026-09-02T11:04:53Z</time></trkpt><trkpt lat="59.4586730003" lon="31.0874462128"><time>2026-09-02T11:04:56Z</time></trkpt><trkpt lat="59.4586944580" lon="31.0874032974"><time>2026-09-02T11:04:58Z</time></trkpt><trkpt lat="59.4586944580" lon="31.0873603821"><time>2026-09-02T11:05:01Z</time></trkpt><trkpt lat="59.4586944580" lon="31.0873603821"><time>2026-09-02T11:05:03Z</time></trkpt><trkpt lat="59.4586944580" lon="31.0873389244"><time>2026-09-02T11:05:06Z</time></trkpt><trkpt lat="59.4586944580" lon="31.0872960091"><time>2026-09-02T11:05:08Z</time></trkpt><trkpt lat="59.4586944580" lon="31.0872530937"><time>2026-09-02T11:05:11Z</time></trkpt><trkpt lat="59.4586944580" lon="31.0872101784"><time>2026-09-02T11:05:13Z</time></trkpt><trkpt lat="59.4586730003" lon="31.0871458054"><time>2026-09-02T11:05:16Z</time></trkpt><trkpt lat="59.4585657120" lon="31.0870814323"><time>2026-09-02T11:05:18Z</time></trkpt><trkpt lat="59.4585227966" lon="31.0869956017"><time>2026-09-02T11:05:21Z</time></trkpt><trkpt lat="59.4585227966" lon="31.0869741440"><time>2026-09-02T11:05:23Z</time></trkpt><trkpt lat="59.4585227966" lon="31.0869741440"><time>2026-09-02T11:05:26Z</time></trkpt><trkpt lat="59.4585227966" lon="31.0869741440"><time>2026-09-02T11:05:28Z</time></trkpt><trkpt lat="59.4585227966" lon="31.0869741440"><time>2026-09-02T11:05:31Z</time></trkpt><trkpt lat="59.4585013390" lon="31.0869956017"><time>2026-09-02T11:05:33Z</time></trkpt><trkpt lat="59.4584798813" lon="31.0869956017"><time>2026-09-02T11:05:36Z</time></trkpt><trkpt lat="59.4584584236" lon="31.0868883133"><time>2026-09-02T11:05:38Z</time></trkpt><trkpt lat="59.4584369659" lon="31.0868453979"><time>2026-09-02T11:05:41Z</time></trkpt><trkpt lat="59.4584369659" lon="31.0868024826"><time>2026-09-02T11:05:43Z</time></trkpt><trkpt lat="59.4584369659" lon="31.0868024826"><time>2026-09-02T11:05:46Z</time></trkpt><trkpt lat="59.4584369659" lon="31.0868024826"><time>2026-09-02T11:05:48Z</time></trkpt><trkpt lat="59.4584369659" lon="31.0868024826"><time>2026-09-02T11:05:51Z</time></trkpt><trkpt lat="59.4584155083" lon="31.0867595673"><time>2026-09-02T11:05:53Z</time></trkpt><trkpt lat="59.4584155083" lon="31.0866951942"><time>2026-09-02T11:05:56Z</time></trkpt><trkpt lat="59.4584155083" lon="31.0866308212"><time>2026-09-02T11:05:58Z</time></trkpt><trkpt lat="59.4584369659" lon="31.0866522789"><time>2026-09-02T11:06:01Z</time></trkpt><trkpt lat="59.4584369659" lon="31.0866522789"><time>2026-09-02T11:06:03Z</time></trkpt><trkpt lat="59.4584155083" lon="31.0866308212"><time>2026-09-02T11:06:06Z</time></trkpt><trkpt lat="59.4584155083" lon="31.0866093636"><time>2026-09-02T11:06:08Z</time></trkpt><trkpt lat="59.4584155083" lon="31.0866093636"><time>2026-09-02T11:06:11Z</time></trkpt><trkpt lat="59.4584155083" lon="31.0866093636"><time>2026-09-02T11:06:13Z</time></trkpt><trkpt lat="59.4584155083" lon="31.0866093636"><time>2026-09-02T11:06:16Z</time></trkpt><trkpt lat="59.4584155083" lon="31.0866093636"><time>2026-09-02T11:06:18Z</time></trkpt><trkpt lat="59.4584155083" lon="31.0866093636"><time>2026-09-02T11:06:21Z</time></trkpt><trkpt lat="59.4584155083" lon="31.0866093636"><time>2026-09-02T11:06:23Z</time></trkpt><trkpt lat="59.4584155083" lon="31.0866093636"><time>2026-09-02T11:06:26Z</time></trkpt><trkpt lat="59.4584155083" lon="31.0866093636"><time>2026-09-02T11:06:28Z</time></trkpt><trkpt lat="59.4584155083" lon="31.0866093636"><time>2026-09-02T11:06:31Z</time></trkpt><trkpt lat="59.4584155083" lon="31.0866093636"><time>2026-09-02T11:06:33Z</time></trkpt><trkpt lat="59.4584155083" lon="31.0866093636"><time>2026-09-02T11:06:36Z</time></trkpt><trkpt lat="59.4584155083" lon="31.0866093636"><time>2026-09-02T11:06:38Z</time></trkpt><trkpt lat="59.4584155083" lon="31.0866093636"><time>2026-09-02T11:06:41Z</time></trkpt><trkpt lat="59.4584155083" lon="31.0866308212"><time>2026-09-02T11:06:43Z</time></trkpt><trkpt lat="59.4584155083" lon="31.0866308212"><time>2026-09-02T11:06:46Z</time></trkpt><trkpt lat="59.4584155083" lon="31.0866308212"><time>2026-09-02T11:06:48Z</time></trkpt><trkpt lat="59.4584155083" lon="31.0865879059"><time>2026-09-02T11:06:51Z</time></trkpt><trkpt lat="59.4584155083" lon="31.0865664482"><time>2026-09-02T11:06:53Z</time></trkpt><trkpt lat="59.4584155083" lon="31.0865664482"><time>2026-09-02T11:06:56Z</time></trkpt><trkpt lat="59.4584155083" lon="31.0865664482"><time>2026-09-02T11:06:58Z</time></trkpt><trkpt lat="59.4584155083" lon="31.0865664482"><time>2026-09-02T11:07:01Z</time></trkpt><trkpt lat="59.4584155083" lon="31.0865664482"><time>2026-09-02T11:07:03Z</time></trkpt><trkpt lat="59.4584155083" lon="31.0865449905"><time>2026-09-02T11:07:06Z</time></trkpt><trkpt lat="59.4584155083" lon="31.0865449905"><time>2026-09-02T11:07:08Z</time></trkpt><trkpt lat="59.4584155083" lon="31.0865449905"><time>2026-09-02T11:07:11Z</time></trkpt><trkpt lat="59.4584155083" lon="31.0865449905"><time>2026-09-02T11:07:13Z</time></trkpt><trkpt lat="59.4584155083" lon="31.0865449905"><time>2026-09-02T11:07:16Z</time></trkpt><trkpt lat="59.4584155083" lon="31.0865449905"><time>2026-09-02T11:07:18Z</time></trkpt><trkpt lat="59.4584155083" lon="31.0865449905"><time>2026-09-02T11:07:21Z</time></trkpt><trkpt lat="59.4584155083" lon="31.0865235329"><time>2026-09-02T11:07:23Z</time></trkpt><trkpt lat="59.4584155083" lon="31.0865235329"><time>2026-09-02T11:07:26Z</time></trkpt><trkpt lat="59.4584155083" lon="31.0865235329"><time>2026-09-02T11:07:28Z</time></trkpt><trkpt lat="59.4584155083" lon="31.0865235329"><time>2026-09-02T11:07:31Z</time></trkpt><trkpt lat="59.4583940506" lon="31.0865020752"><time>2026-09-02T11:07:33Z</time></trkpt><trkpt lat="59.4584155083" lon="31.0864806175"><time>2026-09-02T11:07:36Z</time></trkpt><trkpt lat="59.4584155083" lon="31.0864806175"><time>2026-09-02T11:07:38Z</time></trkpt><trkpt lat="59.4584155083" lon="31.0864591599"><time>2026-09-02T11:07:41Z</time></trkpt><trkpt lat="59.4584155083" lon="31.0864591599"><time>2026-09-02T11:07:43Z</time></trkpt><trkpt lat="59.4583725929" lon="31.0864591599"><time>2026-09-02T11:07:46Z</time></trkpt><trkpt lat="59.4583296776" lon="31.0864377022"><time>2026-09-02T11:07:48Z</time></trkpt><trkpt lat="59.4583296776" lon="31.0864162445"><time>2026-09-02T11:07:51Z</time></trkpt><trkpt lat="59.4583296776" lon="31.0863947868"><time>2026-09-02T11:07:53Z</time></trkpt><trkpt lat="59.4583296776" lon="31.0863947868"><time>2026-09-02T11:07:56Z</time></trkpt><trkpt lat="59.4583296776" lon="31.0863947868"><time>2026-09-02T11:07:58Z</time></trkpt><trkpt lat="59.4583082199" lon="31.0863947868"><time>2026-09-02T11:08:01Z</time></trkpt><trkpt lat="59.4583082199" lon="31.0863733292"><time>2026-09-02T11:08:03Z</time></trkpt><trkpt lat="59.4583082199" lon="31.0863733292"><time>2026-09-02T11:08:06Z</time></trkpt><trkpt lat="59.4583082199" lon="31.0863733292"><time>2026-09-02T11:08:08Z</time></trkpt><trkpt lat="59.4583082199" lon="31.0863733292"><time>2026-09-02T11:08:11Z</time></trkpt><trkpt lat="59.4582867622" lon="31.0863518715"><time>2026-09-02T11:08:13Z</time></trkpt><trkpt lat="59.4582867622" lon="31.0863089561"><time>2026-09-02T11:08:16Z</time></trkpt><trkpt lat="59.4582653046" lon="31.0862445831"><time>2026-09-02T11:08:18Z</time></trkpt><trkpt lat="59.4582653046" lon="31.0862445831"><time>2026-09-02T11:08:21Z</time></trkpt><trkpt lat="59.4582653046" lon="31.0862445831"><time>2026-09-02T11:08:23Z</time></trkpt><trkpt lat="59.4582438469" lon="31.0861802101"><time>2026-09-02T11:08:26Z</time></trkpt><trkpt lat="59.4582223892" lon="31.0861158371"><time>2026-09-02T11:08:28Z</time></trkpt><trkpt lat="59.4582009315" lon="31.0860514641"><time>2026-09-02T11:08:31Z</time></trkpt><trkpt lat="59.4582009315" lon="31.0860085487"><time>2026-09-02T11:08:33Z</time></trkpt><trkpt lat="59.4582009315" lon="31.0859870911"><time>2026-09-02T11:08:36Z</time></trkpt><trkpt lat="59.4582009315" lon="31.0859656334"><time>2026-09-02T11:08:38Z</time></trkpt><trkpt lat="59.4582009315" lon="31.0859656334"><time>2026-09-02T11:08:41Z</time></trkpt><trkpt lat="59.4581794739" lon="31.0859441757"><time>2026-09-02T11:08:43Z</time></trkpt><trkpt lat="59.4582009315" lon="31.0859227180"><time>2026-09-02T11:08:46Z</time></trkpt><trkpt lat="59.4581794739" lon="31.0859227180"><time>2026-09-02T11:08:48Z</time></trkpt><trkpt lat="59.4581794739" lon="31.0859012604"><time>2026-09-02T11:08:51Z</time></trkpt><trkpt lat="59.4582009315" lon="31.0859012604"><time>2026-09-02T11:08:53Z</time></trkpt><trkpt lat="59.4582009315" lon="31.0859012604"><time>2026-09-02T11:08:56Z</time></trkpt><trkpt lat="59.4582009315" lon="31.0859012604"><time>2026-09-02T11:08:58Z</time></trkpt><trkpt lat="59.4581794739" lon="31.0859012604"><time>2026-09-02T11:09:01Z</time></trkpt><trkpt lat="59.4581794739" lon="31.0859227180"><time>2026-09-02T11:09:03Z</time></trkpt><trkpt lat="59.4581580162" lon="31.0859227180"><time>2026-09-02T11:09:06Z</time></trkpt><trkpt lat="59.4581365585" lon="31.0859441757"><time>2026-09-02T11:09:08Z</time></trkpt><trkpt lat="59.4581365585" lon="31.0859656334"><time>2026-09-02T11:09:11Z</time></trkpt><trkpt lat="59.4580936432" lon="31.0859441757"><time>2026-09-02T11:09:13Z</time></trkpt><trkpt lat="59.4580507278" lon="31.0859441757"><time>2026-09-02T11:09:16Z</time></trkpt><trkpt lat="59.4580507278" lon="31.0859441757"><time>2026-09-02T11:09:18Z</time></trkpt><trkpt lat="59.4580292702" lon="31.0859012604"><time>2026-09-02T11:09:21Z</time></trkpt><trkpt lat="59.4579863548" lon="31.0858154297"><time>2026-09-02T11:09:23Z</time></trkpt><trkpt lat="59.4579219818" lon="31.0857510567"><time>2026-09-02T11:09:26Z</time></trkpt><trkpt lat="59.4579005241" lon="31.0856866837"><time>2026-09-02T11:09:28Z</time></trkpt><trkpt lat="59.4578790665" lon="31.0856652260"><time>2026-09-02T11:09:31Z</time></trkpt><trkpt lat="59.4578146935" lon="31.0857081413"><time>2026-09-02T11:09:33Z</time></trkpt><trkpt lat="59.4577717781" lon="31.0857081413"><time>2026-09-02T11:09:36Z</time></trkpt><trkpt lat="59.4577288628" lon="31.0856866837"><time>2026-09-02T11:09:38Z</time></trkpt><trkpt lat="59.4577288628" lon="31.0855793953"><time>2026-09-02T11:09:41Z</time></trkpt><trkpt lat="59.4576859474" lon="31.0854721069"><time>2026-09-02T11:09:43Z</time></trkpt><trkpt lat="59.4576430321" lon="31.0854077339"><time>2026-09-02T11:09:46Z</time></trkpt><trkpt lat="59.4575786591" lon="31.0853433609"><time>2026-09-02T11:09:48Z</time></trkpt><trkpt lat="59.4575786591" lon="31.0853433609"><time>2026-09-02T11:09:51Z</time></trkpt><trkpt lat="59.4575572014" lon="31.0853004456"><time>2026-09-02T11:09:53Z</time></trkpt><trkpt lat="59.4575786591" lon="31.0852789879"><time>2026-09-02T11:09:56Z</time></trkpt><trkpt lat="59.4576215744" lon="31.0852360725"><time>2026-09-02T11:09:58Z</time></trkpt><trkpt lat="59.4576430321" lon="31.0852789879"><time>2026-09-02T11:10:01Z</time></trkpt><trkpt lat="59.4577288628" lon="31.0853648186"><time>2026-09-02T11:10:03Z</time></trkpt><trkpt lat="59.4577717781" lon="31.0854077339"><time>2026-09-02T11:10:06Z</time></trkpt><trkpt lat="59.4578361511" lon="31.0854721069"><time>2026-09-02T11:10:08Z</time></trkpt><trkpt lat="59.4578790665" lon="31.0855364799"><time>2026-09-02T11:10:11Z</time></trkpt><trkpt lat="59.4579219818" lon="31.0856223106"><time>2026-09-02T11:10:13Z</time></trkpt><trkpt lat="59.4579648972" lon="31.0856223106"><time>2026-09-02T11:10:16Z</time></trkpt><trkpt lat="59.4579648972" lon="31.0856437683"><time>2026-09-02T11:10:18Z</time></trkpt><trkpt lat="59.4579648972" lon="31.0856437683"><time>2026-09-02T11:10:21Z</time></trkpt><trkpt lat="59.4579648972" lon="31.0856437683"><time>2026-09-02T11:10:23Z</time></trkpt><trkpt lat="59.4579648972" lon="31.0856437683"><time>2026-09-02T11:10:26Z</time></trkpt><trkpt lat="59.4579648972" lon="31.0856223106"><time>2026-09-02T11:10:28Z</time></trkpt><trkpt lat="59.4579648972" lon="31.0856437683"><time>2026-09-02T11:10:31Z</time></trkpt><trkpt lat="59.4579648972" lon="31.0856437683"><time>2026-09-02T11:10:33Z</time></trkpt><trkpt lat="59.4579648972" lon="31.0856437683"><time>2026-09-02T11:10:36Z</time></trkpt><trkpt lat="59.4579648972" lon="31.0856437683"><time>2026-09-02T11:10:38Z</time></trkpt><trkpt lat="59.4579648972" lon="31.0856437683"><time>2026-09-02T11:10:41Z</time></trkpt><trkpt lat="59.4579648972" lon="31.0856437683"><time>2026-09-02T11:10:43Z</time></trkpt><trkpt lat="59.4579648972" lon="31.0856223106"><time>2026-09-02T11:10:46Z</time></trkpt><trkpt lat="59.4579648972" lon="31.0856223106"><time>2026-09-02T11:10:48Z</time></trkpt><trkpt lat="59.4579648972" lon="31.0856223106"><time>2026-09-02T11:10:51Z</time></trkpt><trkpt lat="59.4579648972" lon="31.0856008530"><time>2026-09-02T11:10:53Z</time></trkpt><trkpt lat="59.4579648972" lon="31.0856008530"><time>2026-09-02T11:10:56Z</time></trkpt><trkpt lat="59.4579648972" lon="31.0855793953"><time>2026-09-02T11:10:58Z</time></trkpt><trkpt lat="59.4579648972" lon="31.0855793953"><time>2026-09-02T11:11:01Z</time></trkpt><trkpt lat="59.4579434395" lon="31.0854935646"><time>2026-09-02T11:11:03Z</time></trkpt><trkpt lat="59.4579648972" lon="31.0854506493"><time>2026-09-02T11:11:06Z</time></trkpt><trkpt lat="59.4579648972" lon="31.0854077339"><time>2026-09-02T11:11:08Z</time></trkpt><trkpt lat="59.4579648972" lon="31.0854077339"><time>2026-09-02T11:11:11Z</time></trkpt><trkpt lat="59.4579648972" lon="31.0854077339"><time>2026-09-02T11:11:13Z</time></trkpt><trkpt lat="59.4579648972" lon="31.0854077339"><time>2026-09-02T11:11:16Z</time></trkpt><trkpt lat="59.4579648972" lon="31.0854077339"><time>2026-09-02T11:11:18Z</time></trkpt><trkpt lat="59.4579648972" lon="31.0854077339"><time>2026-09-02T11:11:21Z</time></trkpt><trkpt lat="59.4579434395" lon="31.0853862762"><time>2026-09-02T11:11:23Z</time></trkpt><trkpt lat="59.4579219818" lon="31.0853433609"><time>2026-09-02T11:11:26Z</time></trkpt><trkpt lat="59.4578790665" lon="31.0852575302"><time>2026-09-02T11:11:28Z</time></trkpt><trkpt lat="59.4578576088" lon="31.0852575302"><time>2026-09-02T11:11:31Z</time></trkpt><trkpt lat="59.4578576088" lon="31.0852575302"><time>2026-09-02T11:11:33Z</time></trkpt><trkpt lat="59.4578576088" lon="31.0852575302"><time>2026-09-02T11:11:36Z</time></trkpt><trkpt lat="59.4578576088" lon="31.0852575302"><time>2026-09-02T11:11:38Z</time></trkpt><trkpt lat="59.4578576088" lon="31.0852575302"><time>2026-09-02T11:11:41Z</time></trkpt><trkpt lat="59.4578576088" lon="31.0852575302"><time>2026-09-02T11:11:43Z</time></trkpt><trkpt lat="59.4578576088" lon="31.0852575302"><time>2026-09-02T11:11:46Z</time></trkpt><trkpt lat="59.4578576088" lon="31.0852575302"><time>2026-09-02T11:11:48Z</time></trkpt><trkpt lat="59.4578576088" lon="31.0852575302"><time>2026-09-02T11:11:51Z</time></trkpt><trkpt lat="59.4578576088" lon="31.0852575302"><time>2026-09-02T11:11:53Z</time></trkpt><trkpt lat="59.4578576088" lon="31.0852575302"><time>2026-09-02T11:11:56Z</time></trkpt><trkpt lat="59.4578576088" lon="31.0852575302"><time>2026-09-02T11:11:58Z</time></trkpt><trkpt lat="59.4578576088" lon="31.0852575302"><time>2026-09-02T11:12:01Z</time></trkpt><trkpt lat="59.4578361511" lon="31.0851931572"><time>2026-09-02T11:12:03Z</time></trkpt><trkpt lat="59.4578361511" lon="31.0851716995"><time>2026-09-02T11:12:06Z</time></trkpt><trkpt lat="59.4578361511" lon="31.0851716995"><time>2026-09-02T11:12:08Z</time></trkpt><trkpt lat="59.4578361511" lon="31.0851716995"><time>2026-09-02T11:12:11Z</time></trkpt><trkpt lat="59.4578361511" lon="31.0851931572"><time>2026-09-02T11:12:13Z</time></trkpt><trkpt lat="59.4578361511" lon="31.0851931572"><time>2026-09-02T11:12:16Z</time></trkpt><trkpt lat="59.4578361511" lon="31.0851716995"><time>2026-09-02T11:12:18Z</time></trkpt><trkpt lat="59.4578361511" lon="31.0851931572"><time>2026-09-02T11:12:21Z</time></trkpt><trkpt lat="59.4578361511" lon="31.0851931572"><time>2026-09-02T11:12:23Z</time></trkpt><trkpt lat="59.4578361511" lon="31.0851931572"><time>2026-09-02T11:12:26Z</time></trkpt><trkpt lat="59.4578361511" lon="31.0851931572"><time>2026-09-02T11:12:28Z</time></trkpt><trkpt lat="59.4578361511" lon="31.0851931572"><time>2026-09-02T11:12:31Z</time></trkpt><trkpt lat="59.4578576088" lon="31.0852146149"><time>2026-09-02T11:12:33Z</time></trkpt><trkpt lat="59.4578576088" lon="31.0852575302"><time>2026-09-02T11:12:36Z</time></trkpt><trkpt lat="59.4578576088" lon="31.0852575302"><time>2026-09-02T11:12:38Z</time></trkpt><trkpt lat="59.4578576088" lon="31.0852575302"><time>2026-09-02T11:12:41Z</time></trkpt><trkpt lat="59.4578576088" lon="31.0852575302"><time>2026-09-02T11:12:43Z</time></trkpt><trkpt lat="59.4578576088" lon="31.0852575302"><time>2026-09-02T11:12:46Z</time></trkpt><trkpt lat="59.4578576088" lon="31.0852575302"><time>2026-09-02T11:12:48Z</time></trkpt><trkpt lat="59.4578576088" lon="31.0852575302"><time>2026-09-02T11:12:51Z</time></trkpt><trkpt lat="59.4578576088" lon="31.0852575302"><time>2026-09-02T11:12:53Z</time></trkpt><trkpt lat="59.4578576088" lon="31.0852575302"><time>2026-09-02T11:12:56Z</time></trkpt><trkpt lat="59.4578576088" lon="31.0852575302"><time>2026-09-02T11:12:58Z</time></trkpt><trkpt lat="59.4578576088" lon="31.0852575302"><time>2026-09-02T11:13:01Z</time></trkpt><trkpt lat="59.4578576088" lon="31.0852575302"><time>2026-09-02T11:13:03Z</time></trkpt><trkpt lat="59.4578576088" lon="31.0852575302"><time>2026-09-02T11:13:06Z</time></trkpt><trkpt lat="59.4578576088" lon="31.0852575302"><time>2026-09-02T11:13:08Z</time></trkpt><trkpt lat="59.4578576088" lon="31.0852575302"><time>2026-09-02T11:13:11Z</time></trkpt><trkpt lat="59.4578576088" lon="31.0852575302"><time>2026-09-02T11:13:13Z</time></trkpt><trkpt lat="59.4578576088" lon="31.0852575302"><time>2026-09-02T11:13:16Z</time></trkpt><trkpt lat="59.4578576088" lon="31.0852575302"><time>2026-09-02T11:13:18Z</time></trkpt><trkpt lat="59.4578576088" lon="31.0852360725"><time>2026-09-02T11:13:21Z</time></trkpt><trkpt lat="59.4578576088" lon="31.0852360725"><time>2026-09-02T11:13:23Z</time></trkpt><trkpt lat="59.4578576088" lon="31.0852360725"><time>2026-09-02T11:13:26Z</time></trkpt><trkpt lat="59.4578576088" lon="31.0852360725"><time>2026-09-02T11:13:28Z</time></trkpt><trkpt lat="59.4578576088" lon="31.0852360725"><time>2026-09-02T11:13:31Z</time></trkpt><trkpt lat="59.4578576088" lon="31.0852360725"><time>2026-09-02T11:13:33Z</time></trkpt><trkpt lat="59.4578576088" lon="31.0852360725"><time>2026-09-02T11:13:36Z</time></trkpt><trkpt lat="59.4578576088" lon="31.0852360725"><time>2026-09-02T11:13:38Z</time></trkpt><trkpt lat="59.4578576088" lon="31.0852360725"><time>2026-09-02T11:13:41Z</time></trkpt><trkpt lat="59.4578576088" lon="31.0852360725"><time>2026-09-02T11:13:43Z</time></trkpt><trkpt lat="59.4578576088" lon="31.0852360725"><time>2026-09-02T11:13:46Z</time></trkpt><trkpt lat="59.4578576088" lon="31.0852360725"><time>2026-09-02T11:13:48Z</time></trkpt><trkpt lat="59.4578576088" lon="31.0852360725"><time>2026-09-02T11:13:51Z</time></trkpt><trkpt lat="59.4578576088" lon="31.0852360725"><time>2026-09-02T11:13:53Z</time></trkpt><trkpt lat="59.4578576088" lon="31.0852360725"><time>2026-09-02T11:13:56Z</time></trkpt><trkpt lat="59.4578576088" lon="31.0852360725"><time>2026-09-02T11:13:58Z</time></trkpt><trkpt lat="59.4578576088" lon="31.0852360725"><time>2026-09-02T11:14:01Z</time></trkpt><trkpt lat="59.4578790665" lon="31.0852360725"><time>2026-09-02T11:14:03Z</time></trkpt><trkpt lat="59.4578790665" lon="31.0852360725"><time>2026-09-02T11:14:06Z</time></trkpt><trkpt lat="59.4578790665" lon="31.0852360725"><time>2026-09-02T11:14:08Z</time></trkpt><trkpt lat="59.4578790665" lon="31.0852360725"><time>2026-09-02T11:14:11Z</time></trkpt><trkpt lat="59.4578790665" lon="31.0852360725"><time>2026-09-02T11:14:13Z</time></trkpt><trkpt lat="59.4578790665" lon="31.0852360725"><time>2026-09-02T11:14:16Z</time></trkpt><trkpt lat="59.4578790665" lon="31.0852360725"><time>2026-09-02T11:14:18Z</time></trkpt><trkpt lat="59.4578790665" lon="31.0852360725"><time>2026-09-02T11:14:21Z</time></trkpt><trkpt lat="59.4578790665" lon="31.0852360725"><time>2026-09-02T11:14:23Z</time></trkpt><trkpt lat="59.4578790665" lon="31.0852360725"><time>2026-09-02T11:14:26Z</time></trkpt><trkpt lat="59.4578790665" lon="31.0852360725"><time>2026-09-02T11:14:28Z</time></trkpt><trkpt lat="59.4578790665" lon="31.0852360725"><time>2026-09-02T11:14:31Z</time></trkpt><trkpt lat="59.4578576088" lon="31.0851931572"><time>2026-09-02T11:14:33Z</time></trkpt><trkpt lat="59.4578576088" lon="31.0851716995"><time>2026-09-02T11:14:36Z</time></trkpt><trkpt lat="59.4578576088" lon="31.0851716995"><time>2026-09-02T11:14:38Z</time></trkpt><trkpt lat="59.4578576088" lon="31.0851716995"><time>2026-09-02T11:14:41Z</time></trkpt><trkpt lat="59.4578576088" lon="31.0851716995"><time>2026-09-02T11:14:43Z</time></trkpt><trkpt lat="59.4578361511" lon="31.0851716995"><time>2026-09-02T11:14:46Z</time></trkpt><trkpt lat="59.4577717781" lon="31.0851287842"><time>2026-09-02T11:14:48Z</time></trkpt><trkpt lat="59.4577074051" lon="31.0850858688"><time>2026-09-02T11:14:51Z</time></trkpt><trkpt lat="59.4576644897" lon="31.0850858688"><time>2026-09-02T11:14:53Z</time></trkpt><trkpt lat="59.4576644897" lon="31.0850858688"><time>2026-09-02T11:14:56Z</time></trkpt><trkpt lat="59.4577074051" lon="31.0850429535"><time>2026-09-02T11:14:58Z</time></trkpt><trkpt lat="59.4577503204" lon="31.0850429535"><time>2026-09-02T11:15:01Z</time></trkpt><trkpt lat="59.4577717781" lon="31.0850214958"><time>2026-09-02T11:15:03Z</time></trkpt><trkpt lat="59.4577717781" lon="31.0849785805"><time>2026-09-02T11:15:06Z</time></trkpt><trkpt lat="59.4577932358" lon="31.0849785805"><time>2026-09-02T11:15:08Z</time></trkpt><trkpt lat="59.4577932358" lon="31.0849785805"><time>2026-09-02T11:15:11Z</time></trkpt><trkpt lat="59.4577932358" lon="31.0849785805"><time>2026-09-02T11:15:13Z</time></trkpt><trkpt lat="59.4577932358" lon="31.0849785805"><time>2026-09-02T11:15:16Z</time></trkpt><trkpt lat="59.4577932358" lon="31.0849571228"><time>2026-09-02T11:15:18Z</time></trkpt><trkpt lat="59.4577932358" lon="31.0849356651"><time>2026-09-02T11:15:21Z</time></trkpt><trkpt lat="59.4578146935" lon="31.0849356651"><time>2026-09-02T11:15:23Z</time></trkpt><trkpt lat="59.4578146935" lon="31.0849356651"><time>2026-09-02T11:15:26Z</time></trkpt><trkpt lat="59.4578361511" lon="31.0848712921"><time>2026-09-02T11:15:28Z</time></trkpt><trkpt lat="59.4578361511" lon="31.0848712921"><time>2026-09-02T11:15:31Z</time></trkpt><trkpt lat="59.4578790665" lon="31.0847854614"><time>2026-09-02T11:15:33Z</time></trkpt><trkpt lat="59.4579005241" lon="31.0847425461"><time>2026-09-02T11:15:36Z</time></trkpt><trkpt lat="59.4579005241" lon="31.0847425461"><time>2026-09-02T11:15:38Z</time></trkpt><trkpt lat="59.4579005241" lon="31.0847425461"><time>2026-09-02T11:15:41Z</time></trkpt><trkpt lat="59.4579005241" lon="31.0847210884"><time>2026-09-02T11:15:43Z</time></trkpt><trkpt lat="59.4579219818" lon="31.0847210884"><time>2026-09-02T11:15:46Z</time></trkpt><trkpt lat="59.4579648972" lon="31.0846781731"><time>2026-09-02T11:15:48Z</time></trkpt><trkpt lat="59.4579863548" lon="31.0846567154"><time>2026-09-02T11:15:51Z</time></trkpt><trkpt lat="59.4580292702" lon="31.0846352577"><time>2026-09-02T11:15:53Z</time></trkpt><trkpt lat="59.4580292702" lon="31.0846352577"><time>2026-09-02T11:15:56Z</time></trkpt><trkpt lat="59.4580292702" lon="31.0846138000"><time>2026-09-02T11:15:58Z</time></trkpt><trkpt lat="59.4580292702" lon="31.0846138000"><time>2026-09-02T11:16:01Z</time></trkpt><trkpt lat="59.4580292702" lon="31.0846138000"><time>2026-09-02T11:16:03Z</time></trkpt><trkpt lat="59.4580292702" lon="31.0846138000"><time>2026-09-02T11:16:06Z</time></trkpt><trkpt lat="59.4580078125" lon="31.0846352577"><time>2026-09-02T11:16:08Z</time></trkpt><trkpt lat="59.4579648972" lon="31.0846781731"><time>2026-09-02T11:16:11Z</time></trkpt><trkpt lat="59.4579648972" lon="31.0846567154"><time>2026-09-02T11:16:13Z</time></trkpt><trkpt lat="59.4579648972" lon="31.0846567154"><time>2026-09-02T11:16:16Z</time></trkpt><trkpt lat="59.4579648972" lon="31.0846567154"><time>2026-09-02T11:16:18Z</time></trkpt><trkpt lat="59.4579648972" lon="31.0846567154"><time>2026-09-02T11:16:21Z</time></trkpt><trkpt lat="59.4579648972" lon="31.0846567154"><time>2026-09-02T11:16:23Z</time></trkpt><trkpt lat="59.4579648972" lon="31.0846567154"><time>2026-09-02T11:16:26Z</time></trkpt><trkpt lat="59.4579648972" lon="31.0846567154"><time>2026-09-02T11:16:28Z</time></trkpt><trkpt lat="59.4579648972" lon="31.0846781731"><time>2026-09-02T11:16:31Z</time></trkpt><trkpt lat="59.4579648972" lon="31.0846781731"><time>2026-09-02T11:16:33Z</time></trkpt><trkpt lat="59.4579648972" lon="31.0846781731"><time>2026-09-02T11:16:36Z</time></trkpt><trkpt lat="59.4579648972" lon="31.0846781731"><time>2026-09-02T11:16:38Z</time></trkpt><trkpt lat="59.4579648972" lon="31.0846781731"><time>2026-09-02T11:16:41Z</time></trkpt><trkpt lat="59.4579863548" lon="31.0846567154"><time>2026-09-02T11:16:43Z</time></trkpt><trkpt lat="59.4580078125" lon="31.0845923424"><time>2026-09-02T11:16:46Z</time></trkpt><trkpt lat="59.4580507278" lon="31.0845494270"><time>2026-09-02T11:16:48Z</time></trkpt><trkpt lat="59.4580936432" lon="31.0845279694"><time>2026-09-02T11:16:51Z</time></trkpt><trkpt lat="59.4581151009" lon="31.0844635963"><time>2026-09-02T11:16:53Z</time></trkpt><trkpt lat="59.4581365585" lon="31.0844421387"><time>2026-09-02T11:16:56Z</time></trkpt><trkpt lat="59.4581365585" lon="31.0844421387"><time>2026-09-02T11:16:58Z</time></trkpt><trkpt lat="59.4581365585" lon="31.0844421387"><time>2026-09-02T11:17:01Z</time></trkpt><trkpt lat="59.4581365585" lon="31.0844421387"><time>2026-09-02T11:17:03Z</time></trkpt><trkpt lat="59.4581365585" lon="31.0844421387"><time>2026-09-02T11:17:06Z</time></trkpt><trkpt lat="59.4581794739" lon="31.0843992233"><time>2026-09-02T11:17:08Z</time></trkpt><trkpt lat="59.4581794739" lon="31.0843992233"><time>2026-09-02T11:17:11Z</time></trkpt><trkpt lat="59.4581794739" lon="31.0843992233"><time>2026-09-02T11:17:13Z</time></trkpt><trkpt lat="59.4581794739" lon="31.0843992233"><time>2026-09-02T11:17:16Z</time></trkpt><trkpt lat="59.4581794739" lon="31.0843992233"><time>2026-09-02T11:17:18Z</time></trkpt><trkpt lat="59.4581794739" lon="31.0843992233"><time>2026-09-02T11:17:21Z</time></trkpt><trkpt lat="59.4581794739" lon="31.0843992233"><time>2026-09-02T11:17:23Z</time></trkpt><trkpt lat="59.4581794739" lon="31.0843992233"><time>2026-09-02T11:17:26Z</time></trkpt><trkpt lat="59.4581794739" lon="31.0843992233"><time>2026-09-02T11:17:28Z</time></trkpt><trkpt lat="59.4581794739" lon="31.0843992233"><time>2026-09-02T11:17:31Z</time></trkpt><trkpt lat="59.4581794739" lon="31.0843992233"><time>2026-09-02T11:17:33Z</time></trkpt><trkpt lat="59.4581794739" lon="31.0843992233"><time>2026-09-02T11:17:36Z</time></trkpt><trkpt lat="59.4581794739" lon="31.0843992233"><time>2026-09-02T11:17:38Z</time></trkpt><trkpt lat="59.4581794739" lon="31.0843992233"><time>2026-09-02T11:17:41Z</time></trkpt><trkpt lat="59.4581794739" lon="31.0843992233"><time>2026-09-02T11:17:43Z</time></trkpt><trkpt lat="59.4581794739" lon="31.0843992233"><time>2026-09-02T11:17:46Z</time></trkpt><trkpt lat="59.4581794739" lon="31.0843992233"><time>2026-09-02T11:17:48Z</time></trkpt><trkpt lat="59.4581794739" lon="31.0843992233"><time>2026-09-02T11:17:51Z</time></trkpt><trkpt lat="59.4581794739" lon="31.0843563080"><time>2026-09-02T11:17:53Z</time></trkpt><trkpt lat="59.4582009315" lon="31.0843133926"><time>2026-09-02T11:17:58Z</time></trkpt><trkpt lat="59.4582009315" lon="31.0843133926"><time>2026-09-02T11:18:01Z</time></trkpt><trkpt lat="59.4582009315" lon="31.0843133926"><time>2026-09-02T11:18:03Z</time></trkpt><trkpt lat="59.4582009315" lon="31.0843133926"><time>2026-09-02T11:18:06Z</time></trkpt><trkpt lat="59.4582009315" lon="31.0843133926"><time>2026-09-02T11:18:08Z</time></trkpt><trkpt lat="59.4582009315" lon="31.0843133926"><time>2026-09-02T11:18:11Z</time></trkpt><trkpt lat="59.4582009315" lon="31.0843133926"><time>2026-09-02T11:18:13Z</time></trkpt><trkpt lat="59.4582009315" lon="31.0843133926"><time>2026-09-02T11:18:16Z</time></trkpt><trkpt lat="59.4582009315" lon="31.0843133926"><time>2026-09-02T11:18:18Z</time></trkpt><trkpt lat="59.4582009315" lon="31.0843133926"><time>2026-09-02T11:18:21Z</time></trkpt><trkpt lat="59.4582009315" lon="31.0843133926"><time>2026-09-02T11:18:23Z</time></trkpt><trkpt lat="59.4582009315" lon="31.0843133926"><time>2026-09-02T11:18:26Z</time></trkpt><trkpt lat="59.4582009315" lon="31.0843133926"><time>2026-09-02T11:18:28Z</time></trkpt><trkpt lat="59.4582009315" lon="31.0843133926"><time>2026-09-02T11:18:31Z</time></trkpt><trkpt lat="59.4582009315" lon="31.0843133926"><time>2026-09-02T11:18:33Z</time></trkpt><trkpt lat="59.4582009315" lon="31.0843348503"><time>2026-09-02T11:18:36Z</time></trkpt><trkpt lat="59.4582009315" lon="31.0843348503"><time>2026-09-02T11:18:38Z</time></trkpt><trkpt lat="59.4582009315" lon="31.0843348503"><time>2026-09-02T11:18:41Z</time></trkpt><trkpt lat="59.4582009315" lon="31.0843348503"><time>2026-09-02T11:18:43Z</time></trkpt><trkpt lat="59.4582009315" lon="31.0843348503"><time>2026-09-02T11:18:46Z</time></trkpt><trkpt lat="59.4582009315" lon="31.0843348503"><time>2026-09-02T11:18:48Z</time></trkpt><trkpt lat="59.4582009315" lon="31.0843348503"><time>2026-09-02T11:18:51Z</time></trkpt><trkpt lat="59.4582009315" lon="31.0843348503"><time>2026-09-02T11:18:53Z</time></trkpt><trkpt lat="59.4582009315" lon="31.0843348503"><time>2026-09-02T11:18:56Z</time></trkpt><trkpt lat="59.4582009315" lon="31.0843348503"><time>2026-09-02T11:18:58Z</time></trkpt><trkpt lat="59.4582009315" lon="31.0843348503"><time>2026-09-02T11:19:01Z</time></trkpt><trkpt lat="59.4582009315" lon="31.0843348503"><time>2026-09-02T11:19:03Z</time></trkpt><trkpt lat="59.4582009315" lon="31.0843348503"><time>2026-09-02T11:19:06Z</time></trkpt><trkpt lat="59.4582009315" lon="31.0843348503"><time>2026-09-02T11:19:08Z</time></trkpt><trkpt lat="59.4582009315" lon="31.0843348503"><time>2026-09-02T11:19:11Z</time></trkpt><trkpt lat="59.4582009315" lon="31.0843348503"><time>2026-09-02T11:19:13Z</time></trkpt><trkpt lat="59.4582223892" lon="31.0843348503"><time>2026-09-02T11:19:16Z</time></trkpt><trkpt lat="59.4582223892" lon="31.0843348503"><time>2026-09-02T11:19:18Z</time></trkpt><trkpt lat="59.4582223892" lon="31.0843348503"><time>2026-09-02T11:19:21Z</time></trkpt><trkpt lat="59.4582223892" lon="31.0843348503"><time>2026-09-02T11:19:23Z</time></trkpt><trkpt lat="59.4582223892" lon="31.0843348503"><time>2026-09-02T11:19:26Z</time></trkpt><trkpt lat="59.4582223892" lon="31.0843348503"><time>2026-09-02T11:19:28Z</time></trkpt><trkpt lat="59.4582223892" lon="31.0843348503"><time>2026-09-02T11:19:31Z</time></trkpt><trkpt lat="59.4582223892" lon="31.0843348503"><time>2026-09-02T11:19:33Z</time></trkpt><trkpt lat="59.4582223892" lon="31.0843348503"><time>2026-09-02T11:19:36Z</time></trkpt><trkpt lat="59.4582223892" lon="31.0843348503"><time>2026-09-02T11:19:38Z</time></trkpt><trkpt lat="59.4582223892" lon="31.0843348503"><time>2026-09-02T11:19:41Z</time></trkpt><trkpt lat="59.4582223892" lon="31.0843348503"><time>2026-09-02T11:19:43Z</time></trkpt><trkpt lat="59.4582223892" lon="31.0843348503"><time>2026-09-02T11:19:46Z</time></trkpt><trkpt lat="59.4582223892" lon="31.0843348503"><time>2026-09-02T11:19:48Z</time></trkpt><trkpt lat="59.4582438469" lon="31.0843563080"><time>2026-09-02T11:19:51Z</time></trkpt><trkpt lat="59.4582653046" lon="31.0843777657"><time>2026-09-02T11:19:53Z</time></trkpt><trkpt lat="59.4582867622" lon="31.0844206810"><time>2026-09-02T11:19:56Z</time></trkpt><trkpt lat="59.4582867622" lon="31.0844206810"><time>2026-09-02T11:19:58Z</time></trkpt><trkpt lat="59.4582867622" lon="31.0844206810"><time>2026-09-02T11:20:01Z</time></trkpt><trkpt lat="59.4582867622" lon="31.0844206810"><time>2026-09-02T11:20:03Z</time></trkpt><trkpt lat="59.4582867622" lon="31.0844206810"><time>2026-09-02T11:20:06Z</time></trkpt><trkpt lat="59.4582867622" lon="31.0844206810"><time>2026-09-02T11:20:08Z</time></trkpt><trkpt lat="59.4582867622" lon="31.0844206810"><time>2026-09-02T11:20:11Z</time></trkpt><trkpt lat="59.4582867622" lon="31.0844206810"><time>2026-09-02T11:20:13Z</time></trkpt><trkpt lat="59.4582867622" lon="31.0844206810"><time>2026-09-02T11:20:16Z</time></trkpt><trkpt lat="59.4582867622" lon="31.0844206810"><time>2026-09-02T11:20:18Z</time></trkpt><trkpt lat="59.4582867622" lon="31.0844206810"><time>2026-09-02T11:20:21Z</time></trkpt><trkpt lat="59.4582867622" lon="31.0843992233"><time>2026-09-02T11:20:23Z</time></trkpt><trkpt lat="59.4583082199" lon="31.0843777657"><time>2026-09-02T11:20:26Z</time></trkpt><trkpt lat="59.4583082199" lon="31.0843777657"><time>2026-09-02T11:20:28Z</time></trkpt><trkpt lat="59.4583082199" lon="31.0843777657"><time>2026-09-02T11:20:31Z</time></trkpt><trkpt lat="59.4583082199" lon="31.0843777657"><time>2026-09-02T11:20:33Z</time></trkpt><trkpt lat="59.4583082199" lon="31.0843777657"><time>2026-09-02T11:20:36Z</time></trkpt><trkpt lat="59.4583082199" lon="31.0843777657"><time>2026-09-02T11:20:38Z</time></trkpt><trkpt lat="59.4583082199" lon="31.0843777657"><time>2026-09-02T11:20:41Z</time></trkpt><trkpt lat="59.4583082199" lon="31.0843777657"><time>2026-09-02T11:20:43Z</time></trkpt><trkpt lat="59.4583082199" lon="31.0843777657"><time>2026-09-02T11:20:46Z</time></trkpt><trkpt lat="59.4583082199" lon="31.0843777657"><time>2026-09-02T11:20:48Z</time></trkpt><trkpt lat="59.4583082199" lon="31.0843777657"><time>2026-09-02T11:20:51Z</time></trkpt><trkpt lat="59.4583082199" lon="31.0843777657"><time>2026-09-02T11:20:53Z</time></trkpt><trkpt lat="59.4583082199" lon="31.0843777657"><time>2026-09-02T11:20:56Z</time></trkpt><trkpt lat="59.4583082199" lon="31.0843777657"><time>2026-09-02T11:20:58Z</time></trkpt><trkpt lat="59.4583082199" lon="31.0843777657"><time>2026-09-02T11:21:01Z</time></trkpt><trkpt lat="59.4583082199" lon="31.0843777657"><time>2026-09-02T11:21:03Z</time></trkpt><trkpt lat="59.4582867622" lon="31.0843777657"><time>2026-09-02T11:21:06Z</time></trkpt><trkpt lat="59.4582867622" lon="31.0843777657"><time>2026-09-02T11:21:08Z</time></trkpt><trkpt lat="59.4582867622" lon="31.0843777657"><time>2026-09-02T11:21:11Z</time></trkpt><trkpt lat="59.4582867622" lon="31.0843777657"><time>2026-09-02T11:21:13Z</time></trkpt><trkpt lat="59.4582867622" lon="31.0843777657"><time>2026-09-02T11:21:16Z</time></trkpt><trkpt lat="59.4582867622" lon="31.0843777657"><time>2026-09-02T11:21:18Z</time></trkpt><trkpt lat="59.4582867622" lon="31.0843777657"><time>2026-09-02T11:21:21Z</time></trkpt><trkpt lat="59.4582867622" lon="31.0843777657"><time>2026-09-02T11:21:23Z</time></trkpt><trkpt lat="59.4582867622" lon="31.0843777657"><time>2026-09-02T11:21:26Z</time></trkpt><trkpt lat="59.4582867622" lon="31.0843777657"><time>2026-09-02T11:21:28Z</time></trkpt><trkpt lat="59.4582867622" lon="31.0843777657"><time>2026-09-02T11:21:31Z</time></trkpt><trkpt lat="59.4582867622" lon="31.0843777657"><time>2026-09-02T11:21:33Z</time></trkpt><trkpt lat="59.4582867622" lon="31.0843777657"><time>2026-09-02T11:21:36Z</time></trkpt><trkpt lat="59.4582867622" lon="31.0843777657"><time>2026-09-02T11:21:38Z</time></trkpt><trkpt lat="59.4582867622" lon="31.0843777657"><time>2026-09-02T11:21:41Z</time></trkpt><trkpt lat="59.4582867622" lon="31.0843777657"><time>2026-09-02T11:21:43Z</time></trkpt><trkpt lat="59.4582867622" lon="31.0843777657"><time>2026-09-02T11:21:46Z</time></trkpt><trkpt lat="59.4582867622" lon="31.0843777657"><time>2026-09-02T11:21:48Z</time></trkpt><trkpt lat="59.4582867622" lon="31.0843777657"><time>2026-09-02T11:21:51Z</time></trkpt><trkpt lat="59.4582867622" lon="31.0843777657"><time>2026-09-02T11:21:53Z</time></trkpt><trkpt lat="59.4583296776" lon="31.0844421387"><time>2026-09-02T11:21:56Z</time></trkpt><trkpt lat="59.4583725929" lon="31.0844850540"><time>2026-09-02T11:21:58Z</time></trkpt><trkpt lat="59.4584155083" lon="31.0845494270"><time>2026-09-02T11:22:01Z</time></trkpt><trkpt lat="59.4584155083" lon="31.0845494270"><time>2026-09-02T11:22:03Z</time></trkpt><trkpt lat="59.4584155083" lon="31.0845494270"><time>2026-09-02T11:22:06Z</time></trkpt><trkpt lat="59.4584155083" lon="31.0845494270"><time>2026-09-02T11:22:08Z</time></trkpt><trkpt lat="59.4584155083" lon="31.0845708847"><time>2026-09-02T11:22:11Z</time></trkpt><trkpt lat="59.4584155083" lon="31.0845708847"><time>2026-09-02T11:22:13Z</time></trkpt><trkpt lat="59.4584369659" lon="31.0845708847"><time>2026-09-02T11:22:16Z</time></trkpt><trkpt lat="59.4584584236" lon="31.0846138000"><time>2026-09-02T11:22:18Z</time></trkpt><trkpt lat="59.4585227966" lon="31.0846996307"><time>2026-09-02T11:22:21Z</time></trkpt><trkpt lat="59.4585657120" lon="31.0847425461"><time>2026-09-02T11:22:23Z</time></trkpt><trkpt lat="59.4586086273" lon="31.0847854614"><time>2026-09-02T11:22:26Z</time></trkpt><trkpt lat="59.4586086273" lon="31.0847854614"><time>2026-09-02T11:22:28Z</time></trkpt><trkpt lat="59.4586300850" lon="31.0847854614"><time>2026-09-02T11:22:31Z</time></trkpt><trkpt lat="59.4586300850" lon="31.0847854614"><time>2026-09-02T11:22:33Z</time></trkpt><trkpt lat="59.4586300850" lon="31.0847854614"><time>2026-09-02T11:22:36Z</time></trkpt><trkpt lat="59.4586300850" lon="31.0847854614"><time>2026-09-02T11:22:38Z</time></trkpt><trkpt lat="59.4586300850" lon="31.0847854614"><time>2026-09-02T11:22:41Z</time></trkpt><trkpt lat="59.4586300850" lon="31.0847854614"><time>2026-09-02T11:22:43Z</time></trkpt><trkpt lat="59.4586300850" lon="31.0847854614"><time>2026-09-02T11:22:46Z</time></trkpt><trkpt lat="59.4586515427" lon="31.0848498344"><time>2026-09-02T11:22:48Z</time></trkpt><trkpt lat="59.4586515427" lon="31.0850000381"><time>2026-09-02T11:22:51Z</time></trkpt><trkpt lat="59.4586944580" lon="31.0851716995"><time>2026-09-02T11:22:53Z</time></trkpt><trkpt lat="59.4587159157" lon="31.0852575302"><time>2026-09-02T11:22:56Z</time></trkpt><trkpt lat="59.4586944580" lon="31.0853648186"><time>2026-09-02T11:22:58Z</time></trkpt><trkpt lat="59.4586944580" lon="31.0853433609"><time>2026-09-02T11:23:01Z</time></trkpt><trkpt lat="59.4586730003" lon="31.0853433609"><time>2026-09-02T11:23:03Z</time></trkpt><trkpt lat="59.4586730003" lon="31.0853433609"><time>2026-09-02T11:23:06Z</time></trkpt><trkpt lat="59.4586300850" lon="31.0852789879"><time>2026-09-02T11:23:08Z</time></trkpt><trkpt lat="59.4586300850" lon="31.0852575302"><time>2026-09-02T11:23:11Z</time></trkpt><trkpt lat="59.4587159157" lon="31.0851931572"><time>2026-09-02T11:23:13Z</time></trkpt><trkpt lat="59.4587802887" lon="31.0851931572"><time>2026-09-02T11:23:16Z</time></trkpt><trkpt lat="59.4588446617" lon="31.0852575302"><time>2026-09-02T11:23:18Z</time></trkpt><trkpt lat="59.4588875771" lon="31.0853219032"><time>2026-09-02T11:23:21Z</time></trkpt><trkpt lat="59.4589948654" lon="31.0853862762"><time>2026-09-02T11:23:23Z</time></trkpt><trkpt lat="59.4590377808" lon="31.0853862762"><time>2026-09-02T11:23:26Z</time></trkpt><trkpt lat="59.4590592384" lon="31.0854077339"><time>2026-09-02T11:23:28Z</time></trkpt><trkpt lat="59.4590592384" lon="31.0853648186"><time>2026-09-02T11:23:31Z</time></trkpt><trkpt lat="59.4590377808" lon="31.0852575302"><time>2026-09-02T11:23:33Z</time></trkpt><trkpt lat="59.4590163231" lon="31.0852360725"><time>2026-09-02T11:23:36Z</time></trkpt><trkpt lat="59.4589304924" lon="31.0852789879"><time>2026-09-02T11:23:38Z</time></trkpt><trkpt lat="59.4589090347" lon="31.0853219032"><time>2026-09-02T11:23:41Z</time></trkpt><trkpt lat="59.4589090347" lon="31.0853433609"><time>2026-09-02T11:23:43Z</time></trkpt><trkpt lat="59.4589090347" lon="31.0853862762"><time>2026-09-02T11:23:46Z</time></trkpt><trkpt lat="59.4589090347" lon="31.0854077339"><time>2026-09-02T11:23:48Z</time></trkpt><trkpt lat="59.4589304924" lon="31.0854291916"><time>2026-09-02T11:23:51Z</time></trkpt><trkpt lat="59.4589519501" lon="31.0854506493"><time>2026-09-02T11:23:53Z</time></trkpt><trkpt lat="59.4589519501" lon="31.0854506493"><time>2026-09-02T11:23:56Z</time></trkpt><trkpt lat="59.4589519501" lon="31.0854506493"><time>2026-09-02T11:23:58Z</time></trkpt><trkpt lat="59.4589519501" lon="31.0854506493"><time>2026-09-02T11:24:01Z</time></trkpt><trkpt lat="59.4589519501" lon="31.0854506493"><time>2026-09-02T11:24:03Z</time></trkpt><trkpt lat="59.4589519501" lon="31.0854506493"><time>2026-09-02T11:24:06Z</time></trkpt><trkpt lat="59.4589519501" lon="31.0854506493"><time>2026-09-02T11:24:08Z</time></trkpt><trkpt lat="59.4589519501" lon="31.0854506493"><time>2026-09-02T11:24:11Z</time></trkpt><trkpt lat="59.4589519501" lon="31.0854721069"><time>2026-09-02T11:24:13Z</time></trkpt><trkpt lat="59.4589948654" lon="31.0855579376"><time>2026-09-02T11:24:16Z</time></trkpt><trkpt lat="59.4590163231" lon="31.0856866837"><time>2026-09-02T11:24:18Z</time></trkpt><trkpt lat="59.4590592384" lon="31.0857725143"><time>2026-09-02T11:24:21Z</time></trkpt><trkpt lat="59.4590806961" lon="31.0858368874"><time>2026-09-02T11:24:23Z</time></trkpt><trkpt lat="59.4591021538" lon="31.0858583450"><time>2026-09-02T11:24:26Z</time></trkpt><trkpt lat="59.4591021538" lon="31.0859012604"><time>2026-09-02T11:24:28Z</time></trkpt><trkpt lat="59.4591021538" lon="31.0859012604"><time>2026-09-02T11:24:31Z</time></trkpt><trkpt lat="59.4591236115" lon="31.0859227180"><time>2026-09-02T11:24:33Z</time></trkpt><trkpt lat="59.4591236115" lon="31.0859656334"><time>2026-09-02T11:24:36Z</time></trkpt><trkpt lat="59.4591236115" lon="31.0860085487"><time>2026-09-02T11:24:38Z</time></trkpt><trkpt lat="59.4591236115" lon="31.0860085487"><time>2026-09-02T11:24:41Z</time></trkpt><trkpt lat="59.4591450691" lon="31.0860514641"><time>2026-09-02T11:24:43Z</time></trkpt><trkpt lat="59.4591450691" lon="31.0860514641"><time>2026-09-02T11:24:46Z</time></trkpt><trkpt lat="59.4591450691" lon="31.0860514641"><time>2026-09-02T11:24:48Z</time></trkpt><trkpt lat="59.4591450691" lon="31.0860729218"><time>2026-09-02T11:24:51Z</time></trkpt><trkpt lat="59.4591450691" lon="31.0861158371"><time>2026-09-02T11:24:53Z</time></trkpt><trkpt lat="59.4591665268" lon="31.0861802101"><time>2026-09-02T11:24:56Z</time></trkpt><trkpt lat="59.4591665268" lon="31.0862016678"><time>2026-09-02T11:24:58Z</time></trkpt><trkpt lat="59.4591665268" lon="31.0862016678"><time>2026-09-02T11:25:01Z</time></trkpt><trkpt lat="59.4591665268" lon="31.0862016678"><time>2026-09-02T11:25:03Z</time></trkpt><trkpt lat="59.4591879845" lon="31.0862445831"><time>2026-09-02T11:25:06Z</time></trkpt><trkpt lat="59.4592094421" lon="31.0863304138"><time>2026-09-02T11:25:08Z</time></trkpt><trkpt lat="59.4592523575" lon="31.0863947868"><time>2026-09-02T11:25:11Z</time></trkpt><trkpt lat="59.4592952728" lon="31.0864591599"><time>2026-09-02T11:25:13Z</time></trkpt><trkpt lat="59.4593381882" lon="31.0865020752"><time>2026-09-02T11:25:16Z</time></trkpt><trkpt lat="59.4593596458" lon="31.0865879059"><time>2026-09-02T11:25:18Z</time></trkpt><trkpt lat="59.4593811035" lon="31.0866522789"><time>2026-09-02T11:25:21Z</time></trkpt><trkpt lat="59.4594025612" lon="31.0867381096"><time>2026-09-02T11:25:23Z</time></trkpt><trkpt lat="59.4594240189" lon="31.0868024826"><time>2026-09-02T11:25:26Z</time></trkpt><trkpt lat="59.4594240189" lon="31.0867810249"><time>2026-09-02T11:25:28Z</time></trkpt><trkpt lat="59.4594240189" lon="31.0867595673"><time>2026-09-02T11:25:31Z</time></trkpt><trkpt lat="59.4594240189" lon="31.0867166519"><time>2026-09-02T11:25:33Z</time></trkpt><trkpt lat="59.4594454765" lon="31.0866737366"><time>2026-09-02T11:25:36Z</time></trkpt><trkpt lat="59.4594454765" lon="31.0866308212"><time>2026-09-02T11:25:38Z</time></trkpt><trkpt lat="59.4594454765" lon="31.0866308212"><time>2026-09-02T11:25:41Z</time></trkpt><trkpt lat="59.4594454765" lon="31.0866308212"><time>2026-09-02T11:25:43Z</time></trkpt><trkpt lat="59.4594454765" lon="31.0866308212"><time>2026-09-02T11:25:46Z</time></trkpt><trkpt lat="59.4594454765" lon="31.0866308212"><time>2026-09-02T11:25:48Z</time></trkpt><trkpt lat="59.4594454765" lon="31.0866308212"><time>2026-09-02T11:25:51Z</time></trkpt><trkpt lat="59.4594454765" lon="31.0866308212"><time>2026-09-02T11:25:53Z</time></trkpt><trkpt lat="59.4594454765" lon="31.0866308212"><time>2026-09-02T11:25:56Z</time></trkpt><trkpt lat="59.4594454765" lon="31.0866308212"><time>2026-09-02T11:25:58Z</time></trkpt><trkpt lat="59.4594454765" lon="31.0866308212"><time>2026-09-02T11:26:01Z</time></trkpt><trkpt lat="59.4594454765" lon="31.0866093636"><time>2026-09-02T11:26:03Z</time></trkpt><trkpt lat="59.4594454765" lon="31.0866093636"><time>2026-09-02T11:26:06Z</time></trkpt><trkpt lat="59.4594454765" lon="31.0866093636"><time>2026-09-02T11:26:08Z</time></trkpt><trkpt lat="59.4594454765" lon="31.0866093636"><time>2026-09-02T11:26:11Z</time></trkpt><trkpt lat="59.4594669342" lon="31.0865449905"><time>2026-09-02T11:26:13Z</time></trkpt><trkpt lat="59.4594669342" lon="31.0865449905"><time>2026-09-02T11:26:16Z</time></trkpt><trkpt lat="59.4594454765" lon="31.0865664482"><time>2026-09-02T11:26:18Z</time></trkpt><trkpt lat="59.4594454765" lon="31.0865664482"><time>2026-09-02T11:26:21Z</time></trkpt><trkpt lat="59.4594454765" lon="31.0865664482"><time>2026-09-02T11:26:23Z</time></trkpt><trkpt lat="59.4594454765" lon="31.0865664482"><time>2026-09-02T11:26:26Z</time></trkpt><trkpt lat="59.4594454765" lon="31.0865664482"><time>2026-09-02T11:26:28Z</time></trkpt><trkpt lat="59.4594454765" lon="31.0865664482"><time>2026-09-02T11:26:31Z</time></trkpt><trkpt lat="59.4594454765" lon="31.0865664482"><time>2026-09-02T11:26:33Z</time></trkpt><trkpt lat="59.4594454765" lon="31.0865664482"><time>2026-09-02T11:26:36Z</time></trkpt><trkpt lat="59.4594454765" lon="31.0865664482"><time>2026-09-02T11:26:38Z</time></trkpt><trkpt lat="59.4594454765" lon="31.0865664482"><time>2026-09-02T11:26:43Z</time></trkpt><trkpt lat="59.4594454765" lon="31.0865664482"><time>2026-09-02T11:26:46Z</time></trkpt><trkpt lat="59.4594454765" lon="31.0865664482"><time>2026-09-02T11:26:48Z</time></trkpt><trkpt lat="59.4594454765" lon="31.0865664482"><time>2026-09-02T11:26:51Z</time></trkpt><trkpt lat="59.4594454765" lon="31.0865664482"><time>2026-09-02T11:26:53Z</time></trkpt><trkpt lat="59.4594454765" lon="31.0865664482"><time>2026-09-02T11:26:56Z</time></trkpt><trkpt lat="59.4594454765" lon="31.0865664482"><time>2026-09-02T11:26:58Z</time></trkpt><trkpt lat="59.4594454765" lon="31.0865664482"><time>2026-09-02T11:27:01Z</time></trkpt><trkpt lat="59.4594454765" lon="31.0865664482"><time>2026-09-02T11:27:03Z</time></trkpt><trkpt lat="59.4594454765" lon="31.0865664482"><time>2026-09-02T11:27:06Z</time></trkpt><trkpt lat="59.4594454765" lon="31.0865664482"><time>2026-09-02T11:27:08Z</time></trkpt><trkpt lat="59.4594454765" lon="31.0865664482"><time>2026-09-02T11:27:11Z</time></trkpt><trkpt lat="59.4594454765" lon="31.0866093636"><time>2026-09-02T11:27:13Z</time></trkpt><trkpt lat="59.4594454765" lon="31.0866093636"><time>2026-09-02T11:27:16Z</time></trkpt><trkpt lat="59.4594454765" lon="31.0866093636"><time>2026-09-02T11:27:18Z</time></trkpt><trkpt lat="59.4594454765" lon="31.0866093636"><time>2026-09-02T11:27:21Z</time></trkpt><trkpt lat="59.4594454765" lon="31.0866308212"><time>2026-09-02T11:27:23Z</time></trkpt><trkpt lat="59.4594454765" lon="31.0866522789"><time>2026-09-02T11:27:26Z</time></trkpt><trkpt lat="59.4594454765" lon="31.0866308212"><time>2026-09-02T11:27:28Z</time></trkpt><trkpt lat="59.4594240189" lon="31.0866093636"><time>2026-09-02T11:27:31Z</time></trkpt><trkpt lat="59.4594240189" lon="31.0866522789"><time>2026-09-02T11:27:33Z</time></trkpt><trkpt lat="59.4594454765" lon="31.0866951942"><time>2026-09-02T11:27:36Z</time></trkpt><trkpt lat="59.4594669342" lon="31.0867595673"><time>2026-09-02T11:27:38Z</time></trkpt><trkpt lat="59.4594669342" lon="31.0867595673"><time>2026-09-02T11:27:41Z</time></trkpt><trkpt lat="59.4594669342" lon="31.0867595673"><time>2026-09-02T11:27:43Z</time></trkpt><trkpt lat="59.4594454765" lon="31.0867595673"><time>2026-09-02T11:27:46Z</time></trkpt><trkpt lat="59.4594669342" lon="31.0867810249"><time>2026-09-02T11:27:48Z</time></trkpt><trkpt lat="59.4594669342" lon="31.0868024826"><time>2026-09-02T11:27:51Z</time></trkpt><trkpt lat="59.4594883919" lon="31.0868453979"><time>2026-09-02T11:27:53Z</time></trkpt><trkpt lat="59.4594883919" lon="31.0868453979"><time>2026-09-02T11:27:56Z</time></trkpt><trkpt lat="59.4594883919" lon="31.0868453979"><time>2026-09-02T11:27:58Z</time></trkpt><trkpt lat="59.4594883919" lon="31.0868453979"><time>2026-09-02T11:28:01Z</time></trkpt><trkpt lat="59.4594883919" lon="31.0868668556"><time>2026-09-02T11:28:03Z</time></trkpt><trkpt lat="59.4595098495" lon="31.0868883133"><time>2026-09-02T11:28:06Z</time></trkpt><trkpt lat="59.4595313072" lon="31.0869097710"><time>2026-09-02T11:28:08Z</time></trkpt><trkpt lat="59.4595527649" lon="31.0869097710"><time>2026-09-02T11:28:11Z</time></trkpt><trkpt lat="59.4595742226" lon="31.0869097710"><time>2026-09-02T11:28:13Z</time></trkpt><trkpt lat="59.4595956802" lon="31.0869312286"><time>2026-09-02T11:28:16Z</time></trkpt><trkpt lat="59.4595956802" lon="31.0869526863"><time>2026-09-02T11:28:18Z</time></trkpt><trkpt lat="59.4595956802" lon="31.0869526863"><time>2026-09-02T11:28:21Z</time></trkpt><trkpt lat="59.4596385956" lon="31.0869741440"><time>2026-09-02T11:28:23Z</time></trkpt><trkpt lat="59.4596600533" lon="31.0870170593"><time>2026-09-02T11:28:26Z</time></trkpt><trkpt lat="59.4597244263" lon="31.0870814323"><time>2026-09-02T11:28:28Z</time></trkpt><trkpt lat="59.4597458839" lon="31.0871028900"><time>2026-09-02T11:28:31Z</time></trkpt><trkpt lat="59.4597887993" lon="31.0871672630"><time>2026-09-02T11:28:33Z</time></trkpt><trkpt lat="59.4598102570" lon="31.0871887207"><time>2026-09-02T11:28:36Z</time></trkpt><trkpt lat="59.4598531723" lon="31.0872316360"><time>2026-09-02T11:28:38Z</time></trkpt><trkpt lat="59.4598531723" lon="31.0872316360"><time>2026-09-02T11:28:41Z</time></trkpt><trkpt lat="59.4598531723" lon="31.0872316360"><time>2026-09-02T11:28:43Z</time></trkpt><trkpt lat="59.4598531723" lon="31.0872316360"><time>2026-09-02T11:28:46Z</time></trkpt><trkpt lat="59.4598531723" lon="31.0872316360"><time>2026-09-02T11:28:48Z</time></trkpt><trkpt lat="59.4598531723" lon="31.0872530937"><time>2026-09-02T11:28:51Z</time></trkpt><trkpt lat="59.4597887993" lon="31.0873174667"><time>2026-09-02T11:28:53Z</time></trkpt><trkpt lat="59.4597458839" lon="31.0873818398"><time>2026-09-02T11:28:56Z</time></trkpt><trkpt lat="59.4597458839" lon="31.0874676704"><time>2026-09-02T11:28:58Z</time></trkpt><trkpt lat="59.4597458839" lon="31.0874676704"><time>2026-09-02T11:29:01Z</time></trkpt><trkpt lat="59.4597458839" lon="31.0874676704"><time>2026-09-02T11:29:03Z</time></trkpt><trkpt lat="59.4597458839" lon="31.0874676704"><time>2026-09-02T11:29:06Z</time></trkpt><trkpt lat="59.4597458839" lon="31.0874676704"><time>2026-09-02T11:29:08Z</time></trkpt><trkpt lat="59.4597458839" lon="31.0874676704"><time>2026-09-02T11:29:11Z</time></trkpt><trkpt lat="59.4597458839" lon="31.0874676704"><time>2026-09-02T11:29:13Z</time></trkpt><trkpt lat="59.4597458839" lon="31.0874676704"><time>2026-09-02T11:29:16Z</time></trkpt><trkpt lat="59.4597458839" lon="31.0874676704"><time>2026-09-02T11:29:18Z</time></trkpt><trkpt lat="59.4597673416" lon="31.0875320435"><time>2026-09-02T11:29:21Z</time></trkpt><trkpt lat="59.4597887993" lon="31.0876393318"><time>2026-09-02T11:29:23Z</time></trkpt><trkpt lat="59.4597887993" lon="31.0876393318"><time>2026-09-02T11:29:26Z</time></trkpt><trkpt lat="59.4597887993" lon="31.0876393318"><time>2026-09-02T11:29:28Z</time></trkpt><trkpt lat="59.4597887993" lon="31.0876393318"><time>2026-09-02T11:29:31Z</time></trkpt><trkpt lat="59.4597887993" lon="31.0876393318"><time>2026-09-02T11:29:33Z</time></trkpt><trkpt lat="59.4598531723" lon="31.0876822472"><time>2026-09-02T11:29:36Z</time></trkpt><trkpt lat="59.4599390030" lon="31.0877466202"><time>2026-09-02T11:29:38Z</time></trkpt><trkpt lat="59.4599819183" lon="31.0877466202"><time>2026-09-02T11:29:41Z</time></trkpt><trkpt lat="59.4600033760" lon="31.0877895355"><time>2026-09-02T11:29:43Z</time></trkpt><trkpt lat="59.4600033760" lon="31.0877895355"><time>2026-09-02T11:29:46Z</time></trkpt><trkpt lat="59.4600033760" lon="31.0877895355"><time>2026-09-02T11:29:48Z</time></trkpt><trkpt lat="59.4600033760" lon="31.0877895355"><time>2026-09-02T11:29:51Z</time></trkpt><trkpt lat="59.4600033760" lon="31.0877895355"><time>2026-09-02T11:29:53Z</time></trkpt><trkpt lat="59.4600033760" lon="31.0877895355"><time>2026-09-02T11:29:56Z</time></trkpt><trkpt lat="59.4600033760" lon="31.0877895355"><time>2026-09-02T11:30:01Z</time></trkpt><trkpt lat="59.4600248337" lon="31.0878324509"><time>2026-09-02T11:30:03Z</time></trkpt><trkpt lat="59.4600892067" lon="31.0879397392"><time>2026-09-02T11:30:06Z</time></trkpt><trkpt lat="59.4601106644" lon="31.0879397392"><time>2026-09-02T11:30:08Z</time></trkpt><trkpt lat="59.4601535797" lon="31.0880470276"><time>2026-09-02T11:30:11Z</time></trkpt><trkpt lat="59.4600892067" lon="31.0880255699"><time>2026-09-02T11:30:13Z</time></trkpt><trkpt lat="59.4600677490" lon="31.0879182816"><time>2026-09-02T11:30:16Z</time></trkpt><trkpt lat="59.4600677490" lon="31.0879182816"><time>2026-09-02T11:30:18Z</time></trkpt><trkpt lat="59.4600677490" lon="31.0879182816"><time>2026-09-02T11:30:21Z</time></trkpt><trkpt lat="59.4600677490" lon="31.0879182816"><time>2026-09-02T11:30:23Z</time></trkpt><trkpt lat="59.4600677490" lon="31.0879182816"><time>2026-09-02T11:30:26Z</time></trkpt><trkpt lat="59.4600677490" lon="31.0879182816"><time>2026-09-02T11:30:28Z</time></trkpt><trkpt lat="59.4600892067" lon="31.0879182816"><time>2026-09-02T11:30:31Z</time></trkpt><trkpt lat="59.4600892067" lon="31.0879182816"><time>2026-09-02T11:30:33Z</time></trkpt><trkpt lat="59.4600892067" lon="31.0879182816"><time>2026-09-02T11:30:36Z</time></trkpt><trkpt lat="59.4600892067" lon="31.0879611969"><time>2026-09-02T11:30:38Z</time></trkpt><trkpt lat="59.4600892067" lon="31.0880041122"><time>2026-09-02T11:30:41Z</time></trkpt><trkpt lat="59.4601106644" lon="31.0880255699"><time>2026-09-02T11:30:43Z</time></trkpt><trkpt lat="59.4601106644" lon="31.0880255699"><time>2026-09-02T11:30:46Z</time></trkpt><trkpt lat="59.4601535797" lon="31.0880684853"><time>2026-09-02T11:30:48Z</time></trkpt><trkpt lat="59.4601964951" lon="31.0881543159"><time>2026-09-02T11:30:51Z</time></trkpt><trkpt lat="59.4601964951" lon="31.0881757736"><time>2026-09-02T11:30:53Z</time></trkpt><trkpt lat="59.4601964951" lon="31.0881757736"><time>2026-09-02T11:30:56Z</time></trkpt><trkpt lat="59.4601964951" lon="31.0881757736"><time>2026-09-02T11:30:58Z</time></trkpt><trkpt lat="59.4601964951" lon="31.0881757736"><time>2026-09-02T11:31:01Z</time></trkpt><trkpt lat="59.4601964951" lon="31.0881757736"><time>2026-09-02T11:31:03Z</time></trkpt><trkpt lat="59.4601964951" lon="31.0881757736"><time>2026-09-02T11:31:06Z</time></trkpt><trkpt lat="59.4601964951" lon="31.0881757736"><time>2026-09-02T11:31:08Z</time></trkpt><trkpt lat="59.4601964951" lon="31.0881757736"><time>2026-09-02T11:31:11Z</time></trkpt><trkpt lat="59.4601964951" lon="31.0881757736"><time>2026-09-02T11:31:13Z</time></trkpt><trkpt lat="59.4602179527" lon="31.0882186890"><time>2026-09-02T11:31:16Z</time></trkpt><trkpt lat="59.4602608681" lon="31.0882616043"><time>2026-09-02T11:31:18Z</time></trkpt><trkpt lat="59.4603037834" lon="31.0883045197"><time>2026-09-02T11:31:21Z</time></trkpt><trkpt lat="59.4603252411" lon="31.0883259773"><time>2026-09-02T11:31:23Z</time></trkpt><trkpt lat="59.4603252411" lon="31.0883259773"><time>2026-09-02T11:31:26Z</time></trkpt><trkpt lat="59.4603252411" lon="31.0883259773"><time>2026-09-02T11:31:28Z</time></trkpt><trkpt lat="59.4603252411" lon="31.0883259773"><time>2026-09-02T11:31:31Z</time></trkpt><trkpt lat="59.4603252411" lon="31.0883259773"><time>2026-09-02T11:31:33Z</time></trkpt><trkpt lat="59.4603252411" lon="31.0883259773"><time>2026-09-02T11:31:36Z</time></trkpt><trkpt lat="59.4603252411" lon="31.0883259773"><time>2026-09-02T11:31:38Z</time></trkpt><trkpt lat="59.4603252411" lon="31.0883259773"><time>2026-09-02T11:31:41Z</time></trkpt><trkpt lat="59.4603252411" lon="31.0883259773"><time>2026-09-02T11:31:43Z</time></trkpt><trkpt lat="59.4603252411" lon="31.0883259773"><time>2026-09-02T11:31:46Z</time></trkpt><trkpt lat="59.4603681564" lon="31.0884547234"><time>2026-09-02T11:31:48Z</time></trkpt><trkpt lat="59.4603896141" lon="31.0885190964"><time>2026-09-02T11:31:51Z</time></trkpt><trkpt lat="59.4603896141" lon="31.0886049271"><time>2026-09-02T11:31:53Z</time></trkpt><trkpt lat="59.4603896141" lon="31.0886263847"><time>2026-09-02T11:31:56Z</time></trkpt><trkpt lat="59.4604110718" lon="31.0886478424"><time>2026-09-02T11:31:58Z</time></trkpt><trkpt lat="59.4604110718" lon="31.0886478424"><time>2026-09-02T11:32:01Z</time></trkpt><trkpt lat="59.4604110718" lon="31.0886693001"><time>2026-09-02T11:32:03Z</time></trkpt><trkpt lat="59.4604110718" lon="31.0886693001"><time>2026-09-02T11:32:06Z</time></trkpt><trkpt lat="59.4604110718" lon="31.0886693001"><time>2026-09-02T11:32:08Z</time></trkpt><trkpt lat="59.4604110718" lon="31.0886693001"><time>2026-09-02T11:32:11Z</time></trkpt><trkpt lat="59.4604110718" lon="31.0886693001"><time>2026-09-02T11:32:13Z</time></trkpt><trkpt lat="59.4604110718" lon="31.0886693001"><time>2026-09-02T11:32:16Z</time></trkpt><trkpt lat="59.4604110718" lon="31.0886693001"><time>2026-09-02T11:32:18Z</time></trkpt><trkpt lat="59.4604110718" lon="31.0886693001"><time>2026-09-02T11:32:21Z</time></trkpt><trkpt lat="59.4604110718" lon="31.0886693001"><time>2026-09-02T11:32:23Z</time></trkpt><trkpt lat="59.4604110718" lon="31.0886693001"><time>2026-09-02T11:32:26Z</time></trkpt><trkpt lat="59.4604110718" lon="31.0886693001"><time>2026-09-02T11:32:28Z</time></trkpt><trkpt lat="59.4604110718" lon="31.0886693001"><time>2026-09-02T11:32:31Z</time></trkpt><trkpt lat="59.4604110718" lon="31.0886693001"><time>2026-09-02T11:32:33Z</time></trkpt><trkpt lat="59.4604325294" lon="31.0886907578"><time>2026-09-02T11:32:36Z</time></trkpt><trkpt lat="59.4604325294" lon="31.0887336731"><time>2026-09-02T11:32:38Z</time></trkpt><trkpt lat="59.4604325294" lon="31.0887336731"><time>2026-09-02T11:32:41Z</time></trkpt><trkpt lat="59.4604325294" lon="31.0887336731"><time>2026-09-02T11:32:43Z</time></trkpt><trkpt lat="59.4604325294" lon="31.0887336731"><time>2026-09-02T11:32:46Z</time></trkpt><trkpt lat="59.4604325294" lon="31.0887336731"><time>2026-09-02T11:32:48Z</time></trkpt><trkpt lat="59.4604539871" lon="31.0887980461"><time>2026-09-02T11:32:51Z</time></trkpt><trkpt lat="59.4604754448" lon="31.0888409615"><time>2026-09-02T11:32:53Z</time></trkpt><trkpt lat="59.4604754448" lon="31.0888838768"><time>2026-09-02T11:32:56Z</time></trkpt><trkpt lat="59.4604754448" lon="31.0889267921"><time>2026-09-02T11:32:58Z</time></trkpt><trkpt lat="59.4604754448" lon="31.0889267921"><time>2026-09-02T11:33:01Z</time></trkpt><trkpt lat="59.4604754448" lon="31.0889267921"><time>2026-09-02T11:33:03Z</time></trkpt><trkpt lat="59.4604754448" lon="31.0889482498"><time>2026-09-02T11:33:06Z</time></trkpt><trkpt lat="59.4604754448" lon="31.0889482498"><time>2026-09-02T11:33:08Z</time></trkpt><trkpt lat="59.4604969025" lon="31.0889267921"><time>2026-09-02T11:33:11Z</time></trkpt><trkpt lat="59.4604969025" lon="31.0888624191"><time>2026-09-02T11:33:13Z</time></trkpt><trkpt lat="59.4604969025" lon="31.0888624191"><time>2026-09-02T11:33:16Z</time></trkpt><trkpt lat="59.4604754448" lon="31.0889053345"><time>2026-09-02T11:33:18Z</time></trkpt><trkpt lat="59.4604754448" lon="31.0889267921"><time>2026-09-02T11:33:21Z</time></trkpt><trkpt lat="59.4604539871" lon="31.0889482498"><time>2026-09-02T11:33:23Z</time></trkpt><trkpt lat="59.4604539871" lon="31.0889697075"><time>2026-09-02T11:33:26Z</time></trkpt><trkpt lat="59.4604539871" lon="31.0889911652"><time>2026-09-02T11:33:28Z</time></trkpt><trkpt lat="59.4604754448" lon="31.0890126228"><time>2026-09-02T11:33:31Z</time></trkpt><trkpt lat="59.4604754448" lon="31.0890340805"><time>2026-09-02T11:33:33Z</time></trkpt><trkpt lat="59.4604754448" lon="31.0890340805"><time>2026-09-02T11:33:36Z</time></trkpt><trkpt lat="59.4604754448" lon="31.0890340805"><time>2026-09-02T11:33:38Z</time></trkpt><trkpt lat="59.4604754448" lon="31.0890340805"><time>2026-09-02T11:33:41Z</time></trkpt><trkpt lat="59.4604754448" lon="31.0890340805"><time>2026-09-02T11:33:43Z</time></trkpt><trkpt lat="59.4604754448" lon="31.0890340805"><time>2026-09-02T11:33:46Z</time></trkpt><trkpt lat="59.4604754448" lon="31.0890340805"><time>2026-09-02T11:33:48Z</time></trkpt><trkpt lat="59.4604754448" lon="31.0890340805"><time>2026-09-02T11:33:51Z</time></trkpt><trkpt lat="59.4604754448" lon="31.0890340805"><time>2026-09-02T11:33:53Z</time></trkpt><trkpt lat="59.4604754448" lon="31.0890340805"><time>2026-09-02T11:33:56Z</time></trkpt><trkpt lat="59.4604754448" lon="31.0890340805"><time>2026-09-02T11:33:58Z</time></trkpt><trkpt lat="59.4604754448" lon="31.0890340805"><time>2026-09-02T11:34:01Z</time></trkpt><trkpt lat="59.4604754448" lon="31.0890340805"><time>2026-09-02T11:34:03Z</time></trkpt><trkpt lat="59.4604754448" lon="31.0890340805"><time>2026-09-02T11:34:06Z</time></trkpt><trkpt lat="59.4604754448" lon="31.0890340805"><time>2026-09-02T11:34:08Z</time></trkpt><trkpt lat="59.4604754448" lon="31.0890340805"><time>2026-09-02T11:34:11Z</time></trkpt><trkpt lat="59.4604754448" lon="31.0890340805"><time>2026-09-02T11:34:13Z</time></trkpt><trkpt lat="59.4604754448" lon="31.0890340805"><time>2026-09-02T11:34:16Z</time></trkpt><trkpt lat="59.4604754448" lon="31.0890340805"><time>2026-09-02T11:34:18Z</time></trkpt><trkpt lat="59.4604754448" lon="31.0890340805"><time>2026-09-02T11:34:21Z</time></trkpt><trkpt lat="59.4604754448" lon="31.0890555382"><time>2026-09-02T11:34:23Z</time></trkpt><trkpt lat="59.4604969025" lon="31.0890555382"><time>2026-09-02T11:34:26Z</time></trkpt><trkpt lat="59.4604969025" lon="31.0890555382"><time>2026-09-02T11:34:28Z</time></trkpt><trkpt lat="59.4604969025" lon="31.0890555382"><time>2026-09-02T11:34:31Z</time></trkpt><trkpt lat="59.4604969025" lon="31.0890555382"><time>2026-09-02T11:34:33Z</time></trkpt><trkpt lat="59.4604969025" lon="31.0890555382"><time>2026-09-02T11:34:36Z</time></trkpt><trkpt lat="59.4604969025" lon="31.0890555382"><time>2026-09-02T11:34:38Z</time></trkpt><trkpt lat="59.4604969025" lon="31.0890555382"><time>2026-09-02T11:34:41Z</time></trkpt><trkpt lat="59.4604969025" lon="31.0890555382"><time>2026-09-02T11:34:43Z</time></trkpt><trkpt lat="59.4604969025" lon="31.0890555382"><time>2026-09-02T11:34:46Z</time></trkpt><trkpt lat="59.4604754448" lon="31.0890340805"><time>2026-09-02T11:34:48Z</time></trkpt><trkpt lat="59.4604539871" lon="31.0890340805"><time>2026-09-02T11:34:51Z</time></trkpt><trkpt lat="59.4604539871" lon="31.0890340805"><time>2026-09-02T11:34:53Z</time></trkpt><trkpt lat="59.4604539871" lon="31.0890340805"><time>2026-09-02T11:34:56Z</time></trkpt><trkpt lat="59.4604539871" lon="31.0890340805"><time>2026-09-02T11:34:58Z</time></trkpt><trkpt lat="59.4604539871" lon="31.0890340805"><time>2026-09-02T11:35:01Z</time></trkpt><trkpt lat="59.4604539871" lon="31.0890340805"><time>2026-09-02T11:35:03Z</time></trkpt><trkpt lat="59.4604539871" lon="31.0890984535"><time>2026-09-02T11:35:06Z</time></trkpt><trkpt lat="59.4604539871" lon="31.0890984535"><time>2026-09-02T11:35:08Z</time></trkpt><trkpt lat="59.4604539871" lon="31.0890984535"><time>2026-09-02T11:35:11Z</time></trkpt><trkpt lat="59.4604539871" lon="31.0890984535"><time>2026-09-02T11:35:13Z</time></trkpt><trkpt lat="59.4604539871" lon="31.0890984535"><time>2026-09-02T11:35:16Z</time></trkpt><trkpt lat="59.4604539871" lon="31.0890984535"><time>2026-09-02T11:35:18Z</time></trkpt><trkpt lat="59.4604539871" lon="31.0890984535"><time>2026-09-02T11:35:21Z</time></trkpt><trkpt lat="59.4604539871" lon="31.0890984535"><time>2026-09-02T11:35:23Z</time></trkpt><trkpt lat="59.4604539871" lon="31.0890984535"><time>2026-09-02T11:35:26Z</time></trkpt><trkpt lat="59.4604539871" lon="31.0890984535"><time>2026-09-02T11:35:28Z</time></trkpt><trkpt lat="59.4604539871" lon="31.0890984535"><time>2026-09-02T11:35:31Z</time></trkpt><trkpt lat="59.4604539871" lon="31.0890984535"><time>2026-09-02T11:35:33Z</time></trkpt><trkpt lat="59.4604539871" lon="31.0890984535"><time>2026-09-02T11:35:36Z</time></trkpt><trkpt lat="59.4604539871" lon="31.0890984535"><time>2026-09-02T11:35:38Z</time></trkpt><trkpt lat="59.4604539871" lon="31.0890984535"><time>2026-09-02T11:35:41Z</time></trkpt><trkpt lat="59.4604539871" lon="31.0890984535"><time>2026-09-02T11:35:43Z</time></trkpt><trkpt lat="59.4604539871" lon="31.0890984535"><time>2026-09-02T11:35:46Z</time></trkpt><trkpt lat="59.4604539871" lon="31.0891199112"><time>2026-09-02T11:35:51Z</time></trkpt><trkpt lat="59.4604539871" lon="31.0891199112"><time>2026-09-02T11:35:53Z</time></trkpt><trkpt lat="59.4604539871" lon="31.0891199112"><time>2026-09-02T11:35:56Z</time></trkpt><trkpt lat="59.4604539871" lon="31.0891199112"><time>2026-09-02T11:35:58Z</time></trkpt><trkpt lat="59.4604539871" lon="31.0891199112"><time>2026-09-02T11:36:01Z</time></trkpt><trkpt lat="59.4604539871" lon="31.0891199112"><time>2026-09-02T11:36:03Z</time></trkpt><trkpt lat="59.4604539871" lon="31.0891199112"><time>2026-09-02T11:36:06Z</time></trkpt><trkpt lat="59.4604539871" lon="31.0891199112"><time>2026-09-02T11:36:08Z</time></trkpt><trkpt lat="59.4604539871" lon="31.0891199112"><time>2026-09-02T11:36:11Z</time></trkpt><trkpt lat="59.4604539871" lon="31.0891199112"><time>2026-09-02T11:36:13Z</time></trkpt><trkpt lat="59.4604539871" lon="31.0891199112"><time>2026-09-02T11:36:16Z</time></trkpt><trkpt lat="59.4604539871" lon="31.0891199112"><time>2026-09-02T11:36:18Z</time></trkpt><trkpt lat="59.4604539871" lon="31.0891199112"><time>2026-09-02T11:36:21Z</time></trkpt><trkpt lat="59.4604539871" lon="31.0891199112"><time>2026-09-02T11:36:23Z</time></trkpt><trkpt lat="59.4604539871" lon="31.0891199112"><time>2026-09-02T11:36:26Z</time></trkpt><trkpt lat="59.4604539871" lon="31.0891199112"><time>2026-09-02T11:36:28Z</time></trkpt><trkpt lat="59.4604539871" lon="31.0891199112"><time>2026-09-02T11:36:31Z</time></trkpt><trkpt lat="59.4604539871" lon="31.0891199112"><time>2026-09-02T11:36:33Z</time></trkpt><trkpt lat="59.4604539871" lon="31.0891199112"><time>2026-09-02T11:36:36Z</time></trkpt><trkpt lat="59.4604539871" lon="31.0891199112"><time>2026-09-02T11:36:38Z</time></trkpt><trkpt lat="59.4604539871" lon="31.0891199112"><time>2026-09-02T11:36:41Z</time></trkpt><trkpt lat="59.4604539871" lon="31.0891199112"><time>2026-09-02T11:36:43Z</time></trkpt><trkpt lat="59.4604539871" lon="31.0891199112"><time>2026-09-02T11:36:46Z</time></trkpt><trkpt lat="59.4604539871" lon="31.0891199112"><time>2026-09-02T11:36:48Z</time></trkpt><trkpt lat="59.4604539871" lon="31.0891199112"><time>2026-09-02T11:36:51Z</time></trkpt><trkpt lat="59.4604539871" lon="31.0891199112"><time>2026-09-02T11:36:53Z</time></trkpt><trkpt lat="59.4604539871" lon="31.0891199112"><time>2026-09-02T11:36:56Z</time></trkpt><trkpt lat="59.4604539871" lon="31.0891199112"><time>2026-09-02T11:36:58Z</time></trkpt><trkpt lat="59.4604539871" lon="31.0891199112"><time>2026-09-02T11:37:01Z</time></trkpt><trkpt lat="59.4604539871" lon="31.0891199112"><time>2026-09-02T11:37:03Z</time></trkpt><trkpt lat="59.4604539871" lon="31.0891199112"><time>2026-09-02T11:37:06Z</time></trkpt><trkpt lat="59.4604539871" lon="31.0891199112"><time>2026-09-02T11:37:08Z</time></trkpt><trkpt lat="59.4604539871" lon="31.0891199112"><time>2026-09-02T11:37:11Z</time></trkpt><trkpt lat="59.4604539871" lon="31.0891199112"><time>2026-09-02T11:37:16Z</time></trkpt><trkpt lat="59.4604539871" lon="31.0891199112"><time>2026-09-02T11:37:18Z</time></trkpt><trkpt lat="59.4604539871" lon="31.0891199112"><time>2026-09-02T11:37:21Z</time></trkpt><trkpt lat="59.4604539871" lon="31.0891199112"><time>2026-09-02T11:37:23Z</time></trkpt><trkpt lat="59.4604539871" lon="31.0891199112"><time>2026-09-02T11:37:26Z</time></trkpt><trkpt lat="59.4604539871" lon="31.0891199112"><time>2026-09-02T11:37:28Z</time></trkpt><trkpt lat="59.4604539871" lon="31.0891199112"><time>2026-09-02T11:37:31Z</time></trkpt><trkpt lat="59.4604539871" lon="31.0891199112"><time>2026-09-02T11:37:33Z</time></trkpt><trkpt lat="59.4604539871" lon="31.0891199112"><time>2026-09-02T11:37:36Z</time></trkpt><trkpt lat="59.4604539871" lon="31.0891199112"><time>2026-09-02T11:37:38Z</time></trkpt><trkpt lat="59.4604539871" lon="31.0891199112"><time>2026-09-02T11:37:41Z</time></trkpt><trkpt lat="59.4604539871" lon="31.0891199112"><time>2026-09-02T11:37:43Z</time></trkpt><trkpt lat="59.4604539871" lon="31.0891199112"><time>2026-09-02T11:37:46Z</time></trkpt><trkpt lat="59.4604754448" lon="31.0891199112"><time>2026-09-02T11:37:48Z</time></trkpt><trkpt lat="59.4604754448" lon="31.0891199112"><time>2026-09-02T11:37:51Z</time></trkpt><trkpt lat="59.4604754448" lon="31.0891199112"><time>2026-09-02T11:37:53Z</time></trkpt><trkpt lat="59.4604754448" lon="31.0891199112"><time>2026-09-02T11:37:56Z</time></trkpt><trkpt lat="59.4604754448" lon="31.0891199112"><time>2026-09-02T11:37:58Z</time></trkpt><trkpt lat="59.4604754448" lon="31.0891199112"><time>2026-09-02T11:38:01Z</time></trkpt><trkpt lat="59.4604754448" lon="31.0891199112"><time>2026-09-02T11:38:03Z</time></trkpt><trkpt lat="59.4604754448" lon="31.0891199112"><time>2026-09-02T11:38:06Z</time></trkpt><trkpt lat="59.4604754448" lon="31.0891199112"><time>2026-09-02T11:38:08Z</time></trkpt><trkpt lat="59.4604754448" lon="31.0891199112"><time>2026-09-02T11:38:11Z</time></trkpt><trkpt lat="59.4604754448" lon="31.0891199112"><time>2026-09-02T11:38:13Z</time></trkpt><trkpt lat="59.4604754448" lon="31.0891628265"><time>2026-09-02T11:38:16Z</time></trkpt><trkpt lat="59.4604754448" lon="31.0891413689"><time>2026-09-02T11:38:18Z</time></trkpt><trkpt lat="59.4604969025" lon="31.0891199112"><time>2026-09-02T11:38:21Z</time></trkpt><trkpt lat="59.4605183601" lon="31.0891413689"><time>2026-09-02T11:38:23Z</time></trkpt><trkpt lat="59.4605398178" lon="31.0891413689"><time>2026-09-02T11:38:26Z</time></trkpt><trkpt lat="59.4605398178" lon="31.0891413689"><time>2026-09-02T11:38:28Z</time></trkpt><trkpt lat="59.4605398178" lon="31.0891413689"><time>2026-09-02T11:38:31Z</time></trkpt><trkpt lat="59.4605398178" lon="31.0891413689"><time>2026-09-02T11:38:33Z</time></trkpt><trkpt lat="59.4605398178" lon="31.0891413689"><time>2026-09-02T11:38:36Z</time></trkpt><trkpt lat="59.4605612755" lon="31.0891413689"><time>2026-09-02T11:38:38Z</time></trkpt><trkpt lat="59.4606041908" lon="31.0891628265"><time>2026-09-02T11:38:41Z</time></trkpt><trkpt lat="59.4606256485" lon="31.0891842842"><time>2026-09-02T11:38:43Z</time></trkpt><trkpt lat="59.4606471062" lon="31.0891842842"><time>2026-09-02T11:38:46Z</time></trkpt><trkpt lat="59.4606900215" lon="31.0891628265"><time>2026-09-02T11:38:48Z</time></trkpt><trkpt lat="59.4607114792" lon="31.0891413689"><time>2026-09-02T11:38:51Z</time></trkpt><trkpt lat="59.4607329369" lon="31.0891413689"><time>2026-09-02T11:38:53Z</time></trkpt><trkpt lat="59.4607329369" lon="31.0891413689"><time>2026-09-02T11:38:56Z</time></trkpt><trkpt lat="59.4607329369" lon="31.0891413689"><time>2026-09-02T11:38:58Z</time></trkpt><trkpt lat="59.4607329369" lon="31.0891413689"><time>2026-09-02T11:39:01Z</time></trkpt><trkpt lat="59.4607329369" lon="31.0891413689"><time>2026-09-02T11:39:03Z</time></trkpt><trkpt lat="59.4607329369" lon="31.0891413689"><time>2026-09-02T11:39:06Z</time></trkpt><trkpt lat="59.4607329369" lon="31.0891413689"><time>2026-09-02T11:39:08Z</time></trkpt><trkpt lat="59.4607329369" lon="31.0891413689"><time>2026-09-02T11:39:11Z</time></trkpt><trkpt lat="59.4607329369" lon="31.0891413689"><time>2026-09-02T11:39:13Z</time></trkpt><trkpt lat="59.4607758522" lon="31.0891628265"><time>2026-09-02T11:39:16Z</time></trkpt><trkpt lat="59.4607973099" lon="31.0892271996"><time>2026-09-02T11:39:18Z</time></trkpt><trkpt lat="59.4608187675" lon="31.0892701149"><time>2026-09-02T11:39:21Z</time></trkpt><trkpt lat="59.4608402252" lon="31.0893130302"><time>2026-09-02T11:39:23Z</time></trkpt><trkpt lat="59.4608402252" lon="31.0893130302"><time>2026-09-02T11:39:26Z</time></trkpt><trkpt lat="59.4608402252" lon="31.0893130302"><time>2026-09-02T11:39:28Z</time></trkpt><trkpt lat="59.4608402252" lon="31.0893130302"><time>2026-09-02T11:39:31Z</time></trkpt><trkpt lat="59.4608402252" lon="31.0893559456"><time>2026-09-02T11:39:33Z</time></trkpt><trkpt lat="59.4608616829" lon="31.0893988609"><time>2026-09-02T11:39:36Z</time></trkpt><trkpt lat="59.4608831406" lon="31.0894846916"><time>2026-09-02T11:39:38Z</time></trkpt><trkpt lat="59.4609045982" lon="31.0895490646"><time>2026-09-02T11:39:41Z</time></trkpt><trkpt lat="59.4609260559" lon="31.0896348953"><time>2026-09-02T11:39:43Z</time></trkpt><trkpt lat="59.4609475136" lon="31.0896778107"><time>2026-09-02T11:39:46Z</time></trkpt><trkpt lat="59.4609904289" lon="31.0897421837"><time>2026-09-02T11:39:48Z</time></trkpt><trkpt lat="59.4609904289" lon="31.0897636414"><time>2026-09-02T11:39:51Z</time></trkpt><trkpt lat="59.4610118866" lon="31.0897636414"><time>2026-09-02T11:39:53Z</time></trkpt><trkpt lat="59.4609904289" lon="31.0897636414"><time>2026-09-02T11:39:56Z</time></trkpt><trkpt lat="59.4609904289" lon="31.0897636414"><time>2026-09-02T11:39:58Z</time></trkpt><trkpt lat="59.4609904289" lon="31.0897636414"><time>2026-09-02T11:40:01Z</time></trkpt><trkpt lat="59.4609904289" lon="31.0897636414"><time>2026-09-02T11:40:03Z</time></trkpt><trkpt lat="59.4609904289" lon="31.0897636414"><time>2026-09-02T11:40:06Z</time></trkpt><trkpt lat="59.4609904289" lon="31.0897636414"><time>2026-09-02T11:40:08Z</time></trkpt><trkpt lat="59.4609904289" lon="31.0897636414"><time>2026-09-02T11:40:11Z</time></trkpt><trkpt lat="59.4609904289" lon="31.0897636414"><time>2026-09-02T11:40:13Z</time></trkpt><trkpt lat="59.4609904289" lon="31.0897636414"><time>2026-09-02T11:40:16Z</time></trkpt><trkpt lat="59.4609904289" lon="31.0897636414"><time>2026-09-02T11:40:18Z</time></trkpt><trkpt lat="59.4609904289" lon="31.0897636414"><time>2026-09-02T11:40:21Z</time></trkpt><trkpt lat="59.4609904289" lon="31.0897636414"><time>2026-09-02T11:40:23Z</time></trkpt><trkpt lat="59.4609904289" lon="31.0897636414"><time>2026-09-02T11:40:26Z</time></trkpt><trkpt lat="59.4609904289" lon="31.0897636414"><time>2026-09-02T11:40:28Z</time></trkpt><trkpt lat="59.4609904289" lon="31.0897636414"><time>2026-09-02T11:40:31Z</time></trkpt><trkpt lat="59.4609904289" lon="31.0897636414"><time>2026-09-02T11:40:33Z</time></trkpt><trkpt lat="59.4609904289" lon="31.0897636414"><time>2026-09-02T11:40:36Z</time></trkpt><trkpt lat="59.4610118866" lon="31.0898065567"><time>2026-09-02T11:40:38Z</time></trkpt><trkpt lat="59.4610548019" lon="31.0898923874"><time>2026-09-02T11:40:41Z</time></trkpt><trkpt lat="59.4610762596" lon="31.0899353027"><time>2026-09-02T11:40:43Z</time></trkpt><trkpt lat="59.4610762596" lon="31.0899567604"><time>2026-09-02T11:40:46Z</time></trkpt><trkpt lat="59.4610762596" lon="31.0899567604"><time>2026-09-02T11:40:48Z</time></trkpt><trkpt lat="59.4610762596" lon="31.0899567604"><time>2026-09-02T11:40:51Z</time></trkpt><trkpt lat="59.4610762596" lon="31.0899567604"><time>2026-09-02T11:40:53Z</time></trkpt><trkpt lat="59.4610762596" lon="31.0899567604"><time>2026-09-02T11:40:56Z</time></trkpt><trkpt lat="59.4610762596" lon="31.0899996758"><time>2026-09-02T11:40:58Z</time></trkpt><trkpt lat="59.4611191750" lon="31.0901069641"><time>2026-09-02T11:41:01Z</time></trkpt><trkpt lat="59.4611620903" lon="31.0901927948"><time>2026-09-02T11:41:03Z</time></trkpt><trkpt lat="59.4612050056" lon="31.0903215408"><time>2026-09-02T11:41:06Z</time></trkpt><trkpt lat="59.4612050056" lon="31.0904073715"><time>2026-09-02T11:41:08Z</time></trkpt><trkpt lat="59.4612264633" lon="31.0904288292"><time>2026-09-02T11:41:11Z</time></trkpt><trkpt lat="59.4612264633" lon="31.0904288292"><time>2026-09-02T11:41:13Z</time></trkpt><trkpt lat="59.4612050056" lon="31.0904717445"><time>2026-09-02T11:41:16Z</time></trkpt><trkpt lat="59.4612050056" lon="31.0904502869"><time>2026-09-02T11:41:18Z</time></trkpt><trkpt lat="59.4612050056" lon="31.0904717445"><time>2026-09-02T11:41:21Z</time></trkpt><trkpt lat="59.4612050056" lon="31.0904717445"><time>2026-09-02T11:41:23Z</time></trkpt><trkpt lat="59.4612050056" lon="31.0904717445"><time>2026-09-02T11:41:26Z</time></trkpt><trkpt lat="59.4612050056" lon="31.0904717445"><time>2026-09-02T11:41:28Z</time></trkpt><trkpt lat="59.4612264633" lon="31.0904717445"><time>2026-09-02T11:41:31Z</time></trkpt><trkpt lat="59.4612479210" lon="31.0904073715"><time>2026-09-02T11:41:33Z</time></trkpt><trkpt lat="59.4612479210" lon="31.0903859138"><time>2026-09-02T11:41:36Z</time></trkpt><trkpt lat="59.4612479210" lon="31.0903859138"><time>2026-09-02T11:41:38Z</time></trkpt><trkpt lat="59.4612479210" lon="31.0903859138"><time>2026-09-02T11:41:41Z</time></trkpt><trkpt lat="59.4612693787" lon="31.0903859138"><time>2026-09-02T11:41:43Z</time></trkpt><trkpt lat="59.4612908363" lon="31.0903644562"><time>2026-09-02T11:41:46Z</time></trkpt><trkpt lat="59.4613337517" lon="31.0903644562"><time>2026-09-02T11:41:48Z</time></trkpt><trkpt lat="59.4613766670" lon="31.0903644562"><time>2026-09-02T11:41:51Z</time></trkpt><trkpt lat="59.4613766670" lon="31.0903859138"><time>2026-09-02T11:41:53Z</time></trkpt><trkpt lat="59.4613766670" lon="31.0903859138"><time>2026-09-02T11:41:56Z</time></trkpt><trkpt lat="59.4613981247" lon="31.0904073715"><time>2026-09-02T11:41:58Z</time></trkpt><trkpt lat="59.4613981247" lon="31.0904073715"><time>2026-09-02T11:42:01Z</time></trkpt><trkpt lat="59.4613981247" lon="31.0904073715"><time>2026-09-02T11:42:03Z</time></trkpt><trkpt lat="59.4613981247" lon="31.0904288292"><time>2026-09-02T11:42:06Z</time></trkpt><trkpt lat="59.4614195824" lon="31.0904717445"><time>2026-09-02T11:42:08Z</time></trkpt><trkpt lat="59.4613981247" lon="31.0904932022"><time>2026-09-02T11:42:11Z</time></trkpt><trkpt lat="59.4613981247" lon="31.0904932022"><time>2026-09-02T11:42:13Z</time></trkpt><trkpt lat="59.4613981247" lon="31.0904932022"><time>2026-09-02T11:42:16Z</time></trkpt><trkpt lat="59.4613981247" lon="31.0904932022"><time>2026-09-02T11:42:18Z</time></trkpt><trkpt lat="59.4613981247" lon="31.0904932022"><time>2026-09-02T11:42:21Z</time></trkpt><trkpt lat="59.4614195824" lon="31.0904502869"><time>2026-09-02T11:42:23Z</time></trkpt><trkpt lat="59.4614410400" lon="31.0904288292"><time>2026-09-02T11:42:26Z</time></trkpt><trkpt lat="59.4614624977" lon="31.0904502869"><time>2026-09-02T11:42:28Z</time></trkpt><trkpt lat="59.4614624977" lon="31.0904717445"><time>2026-09-02T11:42:31Z</time></trkpt><trkpt lat="59.4614839554" lon="31.0904717445"><time>2026-09-02T11:42:33Z</time></trkpt><trkpt lat="59.4614839554" lon="31.0904717445"><time>2026-09-02T11:42:36Z</time></trkpt><trkpt lat="59.4614839554" lon="31.0904717445"><time>2026-09-02T11:42:38Z</time></trkpt><trkpt lat="59.4614839554" lon="31.0904717445"><time>2026-09-02T11:42:41Z</time></trkpt><trkpt lat="59.4614839554" lon="31.0904717445"><time>2026-09-02T11:42:43Z</time></trkpt><trkpt lat="59.4614839554" lon="31.0904717445"><time>2026-09-02T11:42:46Z</time></trkpt><trkpt lat="59.4614839554" lon="31.0904717445"><time>2026-09-02T11:42:48Z</time></trkpt><trkpt lat="59.4614839554" lon="31.0904717445"><time>2026-09-02T11:42:51Z</time></trkpt><trkpt lat="59.4614839554" lon="31.0904717445"><time>2026-09-02T11:42:53Z</time></trkpt><trkpt lat="59.4614624977" lon="31.0905146599"><time>2026-09-02T11:42:56Z</time></trkpt><trkpt lat="59.4614624977" lon="31.0905361176"><time>2026-09-02T11:42:58Z</time></trkpt><trkpt lat="59.4614624977" lon="31.0905361176"><time>2026-09-02T11:43:01Z</time></trkpt><trkpt lat="59.4614624977" lon="31.0905361176"><time>2026-09-02T11:43:03Z</time></trkpt><trkpt lat="59.4614624977" lon="31.0905361176"><time>2026-09-02T11:43:06Z</time></trkpt><trkpt lat="59.4614624977" lon="31.0905361176"><time>2026-09-02T11:43:08Z</time></trkpt><trkpt lat="59.4614624977" lon="31.0905361176"><time>2026-09-02T11:43:11Z</time></trkpt><trkpt lat="59.4615054131" lon="31.0905361176"><time>2026-09-02T11:43:13Z</time></trkpt><trkpt lat="59.4615268707" lon="31.0905575752"><time>2026-09-02T11:43:16Z</time></trkpt><trkpt lat="59.4615268707" lon="31.0905575752"><time>2026-09-02T11:43:18Z</time></trkpt><trkpt lat="59.4615268707" lon="31.0905361176"><time>2026-09-02T11:43:21Z</time></trkpt><trkpt lat="59.4615268707" lon="31.0905361176"><time>2026-09-02T11:43:23Z</time></trkpt><trkpt lat="59.4615268707" lon="31.0905361176"><time>2026-09-02T11:43:26Z</time></trkpt><trkpt lat="59.4615268707" lon="31.0905361176"><time>2026-09-02T11:43:28Z</time></trkpt><trkpt lat="59.4615268707" lon="31.0905361176"><time>2026-09-02T11:43:31Z</time></trkpt><trkpt lat="59.4615268707" lon="31.0905361176"><time>2026-09-02T11:43:33Z</time></trkpt><trkpt lat="59.4615268707" lon="31.0905361176"><time>2026-09-02T11:43:36Z</time></trkpt><trkpt lat="59.4615268707" lon="31.0905361176"><time>2026-09-02T11:43:38Z</time></trkpt><trkpt lat="59.4615268707" lon="31.0905361176"><time>2026-09-02T11:43:41Z</time></trkpt><trkpt lat="59.4615268707" lon="31.0905361176"><time>2026-09-02T11:43:43Z</time></trkpt><trkpt lat="59.4615483284" lon="31.0905146599"><time>2026-09-02T11:43:46Z</time></trkpt><trkpt lat="59.4615483284" lon="31.0905575752"><time>2026-09-02T11:43:48Z</time></trkpt><trkpt lat="59.4615483284" lon="31.0905361176"><time>2026-09-02T11:43:51Z</time></trkpt><trkpt lat="59.4615483284" lon="31.0905361176"><time>2026-09-02T11:43:53Z</time></trkpt><trkpt lat="59.4615483284" lon="31.0905361176"><time>2026-09-02T11:43:56Z</time></trkpt><trkpt lat="59.4615697861" lon="31.0904932022"><time>2026-09-02T11:43:58Z</time></trkpt><trkpt lat="59.4616127014" lon="31.0904717445"><time>2026-09-02T11:44:01Z</time></trkpt><trkpt lat="59.4616556168" lon="31.0904288292"><time>2026-09-02T11:44:03Z</time></trkpt><trkpt lat="59.4616985321" lon="31.0904073715"><time>2026-09-02T11:44:06Z</time></trkpt><trkpt lat="59.4617629051" lon="31.0903429985"><time>2026-09-02T11:44:08Z</time></trkpt><trkpt lat="59.4617843628" lon="31.0903429985"><time>2026-09-02T11:44:11Z</time></trkpt><trkpt lat="59.4618058205" lon="31.0903644562"><time>2026-09-02T11:44:13Z</time></trkpt><trkpt lat="59.4618058205" lon="31.0903644562"><time>2026-09-02T11:44:16Z</time></trkpt><trkpt lat="59.4618272781" lon="31.0903644562"><time>2026-09-02T11:44:18Z</time></trkpt><trkpt lat="59.4618272781" lon="31.0903644562"><time>2026-09-02T11:44:21Z</time></trkpt><trkpt lat="59.4618272781" lon="31.0903644562"><time>2026-09-02T11:44:23Z</time></trkpt><trkpt lat="59.4618272781" lon="31.0903644562"><time>2026-09-02T11:44:26Z</time></trkpt><trkpt lat="59.4618272781" lon="31.0903644562"><time>2026-09-02T11:44:28Z</time></trkpt><trkpt lat="59.4618272781" lon="31.0903429985"><time>2026-09-02T11:44:31Z</time></trkpt><trkpt lat="59.4618272781" lon="31.0903000832"><time>2026-09-02T11:44:33Z</time></trkpt><trkpt lat="59.4618701935" lon="31.0902571678"><time>2026-09-02T11:44:36Z</time></trkpt><trkpt lat="59.4619131088" lon="31.0901498795"><time>2026-09-02T11:44:38Z</time></trkpt><trkpt lat="59.4619560242" lon="31.0901284218"><time>2026-09-02T11:44:41Z</time></trkpt><trkpt lat="59.4619989395" lon="31.0901069641"><time>2026-09-02T11:44:43Z</time></trkpt><trkpt lat="59.4619989395" lon="31.0900855064"><time>2026-09-02T11:44:46Z</time></trkpt><trkpt lat="59.4619989395" lon="31.0900855064"><time>2026-09-02T11:44:48Z</time></trkpt><trkpt lat="59.4619989395" lon="31.0900855064"><time>2026-09-02T11:44:51Z</time></trkpt><trkpt lat="59.4620203972" lon="31.0900855064"><time>2026-09-02T11:44:53Z</time></trkpt><trkpt lat="59.4620203972" lon="31.0900855064"><time>2026-09-02T11:44:56Z</time></trkpt><trkpt lat="59.4620203972" lon="31.0900855064"><time>2026-09-02T11:44:58Z</time></trkpt><trkpt lat="59.4620203972" lon="31.0900855064"><time>2026-09-02T11:45:01Z</time></trkpt><trkpt lat="59.4620203972" lon="31.0900855064"><time>2026-09-02T11:45:03Z</time></trkpt><trkpt lat="59.4620203972" lon="31.0900855064"><time>2026-09-02T11:45:06Z</time></trkpt><trkpt lat="59.4620203972" lon="31.0900855064"><time>2026-09-02T11:45:08Z</time></trkpt><trkpt lat="59.4620203972" lon="31.0900855064"><time>2026-09-02T11:45:11Z</time></trkpt><trkpt lat="59.4620203972" lon="31.0900855064"><time>2026-09-02T11:45:13Z</time></trkpt><trkpt lat="59.4620203972" lon="31.0900855064"><time>2026-09-02T11:45:16Z</time></trkpt><trkpt lat="59.4620203972" lon="31.0900855064"><time>2026-09-02T11:45:18Z</time></trkpt><trkpt lat="59.4620203972" lon="31.0900855064"><time>2026-09-02T11:45:21Z</time></trkpt><trkpt lat="59.4620203972" lon="31.0900855064"><time>2026-09-02T11:45:23Z</time></trkpt><trkpt lat="59.4620203972" lon="31.0900855064"><time>2026-09-02T11:45:26Z</time></trkpt><trkpt lat="59.4620203972" lon="31.0900855064"><time>2026-09-02T11:45:28Z</time></trkpt><trkpt lat="59.4620203972" lon="31.0900855064"><time>2026-09-02T11:45:31Z</time></trkpt><trkpt lat="59.4620203972" lon="31.0900855064"><time>2026-09-02T11:45:33Z</time></trkpt><trkpt lat="59.4620203972" lon="31.0900855064"><time>2026-09-02T11:45:36Z</time></trkpt><trkpt lat="59.4620203972" lon="31.0900855064"><time>2026-09-02T11:45:38Z</time></trkpt><trkpt lat="59.4620203972" lon="31.0900855064"><time>2026-09-02T11:45:41Z</time></trkpt><trkpt lat="59.4620203972" lon="31.0900855064"><time>2026-09-02T11:45:43Z</time></trkpt><trkpt lat="59.4620203972" lon="31.0900855064"><time>2026-09-02T11:45:46Z</time></trkpt><trkpt lat="59.4620203972" lon="31.0900855064"><time>2026-09-02T11:45:48Z</time></trkpt><trkpt lat="59.4620203972" lon="31.0900855064"><time>2026-09-02T11:45:51Z</time></trkpt><trkpt lat="59.4620203972" lon="31.0901069641"><time>2026-09-02T11:45:53Z</time></trkpt><trkpt lat="59.4620203972" lon="31.0901069641"><time>2026-09-02T11:45:56Z</time></trkpt><trkpt lat="59.4620203972" lon="31.0901069641"><time>2026-09-02T11:45:58Z</time></trkpt><trkpt lat="59.4620203972" lon="31.0901069641"><time>2026-09-02T11:46:01Z</time></trkpt><trkpt lat="59.4620203972" lon="31.0901069641"><time>2026-09-02T11:46:03Z</time></trkpt><trkpt lat="59.4620203972" lon="31.0901069641"><time>2026-09-02T11:46:06Z</time></trkpt><trkpt lat="59.4620203972" lon="31.0901069641"><time>2026-09-02T11:46:08Z</time></trkpt><trkpt lat="59.4620203972" lon="31.0901069641"><time>2026-09-02T11:46:11Z</time></trkpt><trkpt lat="59.4620203972" lon="31.0901069641"><time>2026-09-02T11:46:13Z</time></trkpt><trkpt lat="59.4620203972" lon="31.0901069641"><time>2026-09-02T11:46:16Z</time></trkpt><trkpt lat="59.4620203972" lon="31.0901069641"><time>2026-09-02T11:46:18Z</time></trkpt><trkpt lat="59.4620203972" lon="31.0901069641"><time>2026-09-02T11:46:21Z</time></trkpt><trkpt lat="59.4620203972" lon="31.0901069641"><time>2026-09-02T11:46:23Z</time></trkpt><trkpt lat="59.4620203972" lon="31.0901069641"><time>2026-09-02T11:46:26Z</time></trkpt><trkpt lat="59.4620203972" lon="31.0901069641"><time>2026-09-02T11:46:28Z</time></trkpt><trkpt lat="59.4620203972" lon="31.0901069641"><time>2026-09-02T11:46:31Z</time></trkpt><trkpt lat="59.4620203972" lon="31.0901069641"><time>2026-09-02T11:46:33Z</time></trkpt><trkpt lat="59.4620203972" lon="31.0901069641"><time>2026-09-02T11:46:36Z</time></trkpt><trkpt lat="59.4620203972" lon="31.0901069641"><time>2026-09-02T11:46:38Z</time></trkpt><trkpt lat="59.4620203972" lon="31.0901069641"><time>2026-09-02T11:46:41Z</time></trkpt><trkpt lat="59.4620203972" lon="31.0901069641"><time>2026-09-02T11:46:43Z</time></trkpt><trkpt lat="59.4620203972" lon="31.0901069641"><time>2026-09-02T11:46:46Z</time></trkpt><trkpt lat="59.4620203972" lon="31.0901069641"><time>2026-09-02T11:46:48Z</time></trkpt><trkpt lat="59.4620203972" lon="31.0901069641"><time>2026-09-02T11:46:51Z</time></trkpt><trkpt lat="59.4620203972" lon="31.0901069641"><time>2026-09-02T11:46:53Z</time></trkpt><trkpt lat="59.4620203972" lon="31.0901069641"><time>2026-09-02T11:46:56Z</time></trkpt><trkpt lat="59.4620203972" lon="31.0901069641"><time>2026-09-02T11:46:58Z</time></trkpt><trkpt lat="59.4620203972" lon="31.0901069641"><time>2026-09-02T11:47:01Z</time></trkpt><trkpt lat="59.4620203972" lon="31.0901069641"><time>2026-09-02T11:47:03Z</time></trkpt><trkpt lat="59.4620203972" lon="31.0901069641"><time>2026-09-02T11:47:06Z</time></trkpt><trkpt lat="59.4620203972" lon="31.0901069641"><time>2026-09-02T11:47:08Z</time></trkpt><trkpt lat="59.4620203972" lon="31.0901069641"><time>2026-09-02T11:47:11Z</time></trkpt><trkpt lat="59.4620203972" lon="31.0901069641"><time>2026-09-02T11:47:13Z</time></trkpt><trkpt lat="59.4620203972" lon="31.0901069641"><time>2026-09-02T11:47:16Z</time></trkpt><trkpt lat="59.4620203972" lon="31.0901069641"><time>2026-09-02T11:47:18Z</time></trkpt><trkpt lat="59.4620203972" lon="31.0901069641"><time>2026-09-02T11:47:21Z</time></trkpt><trkpt lat="59.4620203972" lon="31.0901069641"><time>2026-09-02T11:47:23Z</time></trkpt><trkpt lat="59.4620203972" lon="31.0900640488"><time>2026-09-02T11:47:26Z</time></trkpt><trkpt lat="59.4620203972" lon="31.0900211334"><time>2026-09-02T11:47:28Z</time></trkpt><trkpt lat="59.4620203972" lon="31.0899567604"><time>2026-09-02T11:47:31Z</time></trkpt><trkpt lat="59.4620418549" lon="31.0899353027"><time>2026-09-02T11:47:33Z</time></trkpt><trkpt lat="59.4620418549" lon="31.0899138451"><time>2026-09-02T11:47:36Z</time></trkpt><trkpt lat="59.4620418549" lon="31.0898923874"><time>2026-09-02T11:47:38Z</time></trkpt><trkpt lat="59.4620418549" lon="31.0898923874"><time>2026-09-02T11:47:41Z</time></trkpt><trkpt lat="59.4620418549" lon="31.0898923874"><time>2026-09-02T11:47:43Z</time></trkpt><trkpt lat="59.4620418549" lon="31.0898923874"><time>2026-09-02T11:47:46Z</time></trkpt><trkpt lat="59.4620633125" lon="31.0898923874"><time>2026-09-02T11:47:48Z</time></trkpt><trkpt lat="59.4620633125" lon="31.0898709297"><time>2026-09-02T11:47:51Z</time></trkpt><trkpt lat="59.4620633125" lon="31.0898494720"><time>2026-09-02T11:47:53Z</time></trkpt><trkpt lat="59.4620633125" lon="31.0898065567"><time>2026-09-02T11:47:56Z</time></trkpt><trkpt lat="59.4620633125" lon="31.0897850990"><time>2026-09-02T11:47:58Z</time></trkpt><trkpt lat="59.4620633125" lon="31.0897421837"><time>2026-09-02T11:48:01Z</time></trkpt><trkpt lat="59.4620847702" lon="31.0896778107"><time>2026-09-02T11:48:03Z</time></trkpt><trkpt lat="59.4620847702" lon="31.0896778107"><time>2026-09-02T11:48:06Z</time></trkpt><trkpt lat="59.4620847702" lon="31.0896778107"><time>2026-09-02T11:48:08Z</time></trkpt><trkpt lat="59.4620847702" lon="31.0896348953"><time>2026-09-02T11:48:11Z</time></trkpt><trkpt lat="59.4620633125" lon="31.0896134377"><time>2026-09-02T11:48:13Z</time></trkpt><trkpt lat="59.4620633125" lon="31.0895919800"><time>2026-09-02T11:48:16Z</time></trkpt><trkpt lat="59.4620418549" lon="31.0895490646"><time>2026-09-02T11:48:18Z</time></trkpt><trkpt lat="59.4620633125" lon="31.0895276070"><time>2026-09-02T11:48:21Z</time></trkpt><trkpt lat="59.4620633125" lon="31.0895276070"><time>2026-09-02T11:48:23Z</time></trkpt><trkpt lat="59.4620418549" lon="31.0895061493"><time>2026-09-02T11:48:26Z</time></trkpt><trkpt lat="59.4620418549" lon="31.0894632339"><time>2026-09-02T11:48:28Z</time></trkpt><trkpt lat="59.4620203972" lon="31.0894203186"><time>2026-09-02T11:48:31Z</time></trkpt><trkpt lat="59.4619989395" lon="31.0893559456"><time>2026-09-02T11:48:33Z</time></trkpt><trkpt lat="59.4619774818" lon="31.0892915726"><time>2026-09-02T11:48:36Z</time></trkpt><trkpt lat="59.4619774818" lon="31.0892057419"><time>2026-09-02T11:48:38Z</time></trkpt><trkpt lat="59.4619989395" lon="31.0891413689"><time>2026-09-02T11:48:41Z</time></trkpt><trkpt lat="59.4619989395" lon="31.0891413689"><time>2026-09-02T11:48:43Z</time></trkpt><trkpt lat="59.4619989395" lon="31.0891413689"><time>2026-09-02T11:48:46Z</time></trkpt><trkpt lat="59.4619989395" lon="31.0891413689"><time>2026-09-02T11:48:48Z</time></trkpt><trkpt lat="59.4619774818" lon="31.0891413689"><time>2026-09-02T11:48:51Z</time></trkpt><trkpt lat="59.4619560242" lon="31.0891842842"><time>2026-09-02T11:48:53Z</time></trkpt><trkpt lat="59.4619560242" lon="31.0891842842"><time>2026-09-02T11:48:56Z</time></trkpt><trkpt lat="59.4619560242" lon="31.0892057419"><time>2026-09-02T11:48:58Z</time></trkpt><trkpt lat="59.4619560242" lon="31.0892057419"><time>2026-09-02T11:49:01Z</time></trkpt><trkpt lat="59.4619560242" lon="31.0892057419"><time>2026-09-02T11:49:03Z</time></trkpt><trkpt lat="59.4619560242" lon="31.0892057419"><time>2026-09-02T11:49:06Z</time></trkpt><trkpt lat="59.4619560242" lon="31.0892057419"><time>2026-09-02T11:49:08Z</time></trkpt><trkpt lat="59.4619560242" lon="31.0892057419"><time>2026-09-02T11:49:11Z</time></trkpt><trkpt lat="59.4619560242" lon="31.0892057419"><time>2026-09-02T11:49:13Z</time></trkpt><trkpt lat="59.4619560242" lon="31.0892057419"><time>2026-09-02T11:49:16Z</time></trkpt><trkpt lat="59.4619560242" lon="31.0892057419"><time>2026-09-02T11:49:21Z</time></trkpt><trkpt lat="59.4619560242" lon="31.0892057419"><time>2026-09-02T11:49:23Z</time></trkpt><trkpt lat="59.4619560242" lon="31.0892057419"><time>2026-09-02T11:49:26Z</time></trkpt><trkpt lat="59.4619560242" lon="31.0892057419"><time>2026-09-02T11:49:28Z</time></trkpt><trkpt lat="59.4619560242" lon="31.0892057419"><time>2026-09-02T11:49:31Z</time></trkpt><trkpt lat="59.4619560242" lon="31.0892057419"><time>2026-09-02T11:49:33Z</time></trkpt><trkpt lat="59.4619560242" lon="31.0892057419"><time>2026-09-02T11:49:36Z</time></trkpt><trkpt lat="59.4619560242" lon="31.0892057419"><time>2026-09-02T11:49:38Z</time></trkpt><trkpt lat="59.4619560242" lon="31.0892057419"><time>2026-09-02T11:49:41Z</time></trkpt><trkpt lat="59.4619560242" lon="31.0892057419"><time>2026-09-02T11:49:43Z</time></trkpt><trkpt lat="59.4619560242" lon="31.0892057419"><time>2026-09-02T11:49:46Z</time></trkpt><trkpt lat="59.4619560242" lon="31.0892057419"><time>2026-09-02T11:49:48Z</time></trkpt><trkpt lat="59.4619560242" lon="31.0892057419"><time>2026-09-02T11:49:51Z</time></trkpt><trkpt lat="59.4619560242" lon="31.0892057419"><time>2026-09-02T11:49:53Z</time></trkpt><trkpt lat="59.4619560242" lon="31.0892057419"><time>2026-09-02T11:49:56Z</time></trkpt><trkpt lat="59.4619560242" lon="31.0892057419"><time>2026-09-02T11:49:58Z</time></trkpt><trkpt lat="59.4619560242" lon="31.0892057419"><time>2026-09-02T11:50:01Z</time></trkpt><trkpt lat="59.4619560242" lon="31.0892057419"><time>2026-09-02T11:50:03Z</time></trkpt><trkpt lat="59.4619560242" lon="31.0892057419"><time>2026-09-02T11:50:06Z</time></trkpt><trkpt lat="59.4619560242" lon="31.0892057419"><time>2026-09-02T11:50:08Z</time></trkpt><trkpt lat="59.4619560242" lon="31.0892057419"><time>2026-09-02T11:50:11Z</time></trkpt><trkpt lat="59.4619560242" lon="31.0892057419"><time>2026-09-02T11:50:13Z</time></trkpt><trkpt lat="59.4619560242" lon="31.0892057419"><time>2026-09-02T11:50:16Z</time></trkpt><trkpt lat="59.4619774818" lon="31.0892057419"><time>2026-09-02T11:50:18Z</time></trkpt><trkpt lat="59.4619774818" lon="31.0892057419"><time>2026-09-02T11:50:21Z</time></trkpt><trkpt lat="59.4619774818" lon="31.0892057419"><time>2026-09-02T11:50:23Z</time></trkpt><trkpt lat="59.4619774818" lon="31.0892057419"><time>2026-09-02T11:50:26Z</time></trkpt><trkpt lat="59.4619774818" lon="31.0892057419"><time>2026-09-02T11:50:28Z</time></trkpt><trkpt lat="59.4619774818" lon="31.0892057419"><time>2026-09-02T11:50:31Z</time></trkpt><trkpt lat="59.4619774818" lon="31.0892057419"><time>2026-09-02T11:50:33Z</time></trkpt><trkpt lat="59.4619774818" lon="31.0892057419"><time>2026-09-02T11:50:36Z</time></trkpt><trkpt lat="59.4619774818" lon="31.0892057419"><time>2026-09-02T11:50:38Z</time></trkpt><trkpt lat="59.4619774818" lon="31.0892057419"><time>2026-09-02T11:50:41Z</time></trkpt><trkpt lat="59.4619774818" lon="31.0892057419"><time>2026-09-02T11:50:43Z</time></trkpt><trkpt lat="59.4619774818" lon="31.0892057419"><time>2026-09-02T11:50:46Z</time></trkpt><trkpt lat="59.4619774818" lon="31.0892057419"><time>2026-09-02T11:50:48Z</time></trkpt><trkpt lat="59.4619774818" lon="31.0892057419"><time>2026-09-02T11:50:51Z</time></trkpt><trkpt lat="59.4619774818" lon="31.0892057419"><time>2026-09-02T11:50:53Z</time></trkpt><trkpt lat="59.4619774818" lon="31.0892057419"><time>2026-09-02T11:50:56Z</time></trkpt><trkpt lat="59.4619774818" lon="31.0892057419"><time>2026-09-02T11:50:58Z</time></trkpt><trkpt lat="59.4619774818" lon="31.0892057419"><time>2026-09-02T11:51:01Z</time></trkpt><trkpt lat="59.4619774818" lon="31.0892057419"><time>2026-09-02T11:51:03Z</time></trkpt><trkpt lat="59.4619774818" lon="31.0892057419"><time>2026-09-02T11:51:06Z</time></trkpt><trkpt lat="59.4619774818" lon="31.0892057419"><time>2026-09-02T11:51:08Z</time></trkpt><trkpt lat="59.4619774818" lon="31.0892057419"><time>2026-09-02T11:51:11Z</time></trkpt><trkpt lat="59.4619774818" lon="31.0892057419"><time>2026-09-02T11:51:13Z</time></trkpt><trkpt lat="59.4619774818" lon="31.0892057419"><time>2026-09-02T11:51:16Z</time></trkpt><trkpt lat="59.4619774818" lon="31.0892057419"><time>2026-09-02T11:51:18Z</time></trkpt><trkpt lat="59.4619774818" lon="31.0892057419"><time>2026-09-02T11:51:21Z</time></trkpt><trkpt lat="59.4619774818" lon="31.0892057419"><time>2026-09-02T11:51:23Z</time></trkpt><trkpt lat="59.4619774818" lon="31.0892057419"><time>2026-09-02T11:51:26Z</time></trkpt><trkpt lat="59.4619774818" lon="31.0892057419"><time>2026-09-02T11:51:28Z</time></trkpt><trkpt lat="59.4619774818" lon="31.0892057419"><time>2026-09-02T11:51:31Z</time></trkpt><trkpt lat="59.4619774818" lon="31.0892057419"><time>2026-09-02T11:51:33Z</time></trkpt><trkpt lat="59.4619774818" lon="31.0892057419"><time>2026-09-02T11:51:36Z</time></trkpt><trkpt lat="59.4619774818" lon="31.0892057419"><time>2026-09-02T11:51:38Z</time></trkpt><trkpt lat="59.4619774818" lon="31.0892057419"><time>2026-09-02T11:51:41Z</time></trkpt><trkpt lat="59.4619774818" lon="31.0892057419"><time>2026-09-02T11:51:43Z</time></trkpt><trkpt lat="59.4619774818" lon="31.0892057419"><time>2026-09-02T11:51:46Z</time></trkpt><trkpt lat="59.4619774818" lon="31.0892057419"><time>2026-09-02T11:51:48Z</time></trkpt><trkpt lat="59.4619774818" lon="31.0892057419"><time>2026-09-02T11:51:51Z</time></trkpt><trkpt lat="59.4619774818" lon="31.0892057419"><time>2026-09-02T11:51:53Z</time></trkpt><trkpt lat="59.4619774818" lon="31.0892057419"><time>2026-09-02T11:51:56Z</time></trkpt><trkpt lat="59.4619774818" lon="31.0892057419"><time>2026-09-02T11:51:58Z</time></trkpt><trkpt lat="59.4619774818" lon="31.0892057419"><time>2026-09-02T11:52:01Z</time></trkpt><trkpt lat="59.4619774818" lon="31.0892057419"><time>2026-09-02T11:52:03Z</time></trkpt><trkpt lat="59.4619774818" lon="31.0892057419"><time>2026-09-02T11:52:06Z</time></trkpt><trkpt lat="59.4619774818" lon="31.0892057419"><time>2026-09-02T11:52:08Z</time></trkpt><trkpt lat="59.4619774818" lon="31.0892057419"><time>2026-09-02T11:52:11Z</time></trkpt><trkpt lat="59.4619774818" lon="31.0892057419"><time>2026-09-02T11:52:13Z</time></trkpt><trkpt lat="59.4619774818" lon="31.0892057419"><time>2026-09-02T11:52:16Z</time></trkpt><trkpt lat="59.4619774818" lon="31.0892057419"><time>2026-09-02T11:52:18Z</time></trkpt><trkpt lat="59.4619774818" lon="31.0892057419"><time>2026-09-02T11:52:21Z</time></trkpt><trkpt lat="59.4619774818" lon="31.0892057419"><time>2026-09-02T11:52:23Z</time></trkpt><trkpt lat="59.4619774818" lon="31.0892057419"><time>2026-09-02T11:52:26Z</time></trkpt><trkpt lat="59.4619774818" lon="31.0892057419"><time>2026-09-02T11:52:28Z</time></trkpt><trkpt lat="59.4619774818" lon="31.0892057419"><time>2026-09-02T11:52:31Z</time></trkpt><trkpt lat="59.4619774818" lon="31.0892057419"><time>2026-09-02T11:52:33Z</time></trkpt><trkpt lat="59.4619774818" lon="31.0892057419"><time>2026-09-02T11:52:36Z</time></trkpt><trkpt lat="59.4619560242" lon="31.0892057419"><time>2026-09-02T11:52:38Z</time></trkpt><trkpt lat="59.4619560242" lon="31.0892057419"><time>2026-09-02T11:52:41Z</time></trkpt><trkpt lat="59.4619560242" lon="31.0892057419"><time>2026-09-02T11:52:43Z</time></trkpt><trkpt lat="59.4619560242" lon="31.0892057419"><time>2026-09-02T11:52:46Z</time></trkpt><trkpt lat="59.4619560242" lon="31.0892057419"><time>2026-09-02T11:52:48Z</time></trkpt><trkpt lat="59.4619560242" lon="31.0892057419"><time>2026-09-02T11:52:51Z</time></trkpt><trkpt lat="59.4619560242" lon="31.0892057419"><time>2026-09-02T11:52:53Z</time></trkpt><trkpt lat="59.4619560242" lon="31.0892057419"><time>2026-09-02T11:52:56Z</time></trkpt><trkpt lat="59.4619560242" lon="31.0892057419"><time>2026-09-02T11:52:58Z</time></trkpt><trkpt lat="59.4619560242" lon="31.0892057419"><time>2026-09-02T11:53:01Z</time></trkpt><trkpt lat="59.4619560242" lon="31.0892057419"><time>2026-09-02T11:53:03Z</time></trkpt><trkpt lat="59.4619560242" lon="31.0892057419"><time>2026-09-02T11:53:06Z</time></trkpt><trkpt lat="59.4619560242" lon="31.0892057419"><time>2026-09-02T11:53:08Z</time></trkpt><trkpt lat="59.4619560242" lon="31.0892057419"><time>2026-09-02T11:53:11Z</time></trkpt><trkpt lat="59.4619560242" lon="31.0892057419"><time>2026-09-02T11:53:13Z</time></trkpt><trkpt lat="59.4619560242" lon="31.0892057419"><time>2026-09-02T11:53:16Z</time></trkpt><trkpt lat="59.4619560242" lon="31.0892057419"><time>2026-09-02T11:53:18Z</time></trkpt><trkpt lat="59.4619560242" lon="31.0892057419"><time>2026-09-02T11:53:21Z</time></trkpt><trkpt lat="59.4619560242" lon="31.0892057419"><time>2026-09-02T11:53:23Z</time></trkpt><trkpt lat="59.4619560242" lon="31.0892057419"><time>2026-09-02T11:53:26Z</time></trkpt><trkpt lat="59.4619560242" lon="31.0892057419"><time>2026-09-02T11:53:28Z</time></trkpt><trkpt lat="59.4619345665" lon="31.0891842842"><time>2026-09-02T11:53:31Z</time></trkpt><trkpt lat="59.4619131088" lon="31.0891628265"><time>2026-09-02T11:53:33Z</time></trkpt><trkpt lat="59.4619131088" lon="31.0891413689"><time>2026-09-02T11:53:36Z</time></trkpt><trkpt lat="59.4619131088" lon="31.0891413689"><time>2026-09-02T11:53:38Z</time></trkpt><trkpt lat="59.4619131088" lon="31.0891413689"><time>2026-09-02T11:53:41Z</time></trkpt><trkpt lat="59.4619131088" lon="31.0891413689"><time>2026-09-02T11:53:43Z</time></trkpt><trkpt lat="59.4619131088" lon="31.0890555382"><time>2026-09-02T11:53:46Z</time></trkpt><trkpt lat="59.4618701935" lon="31.0889911652"><time>2026-09-02T11:53:48Z</time></trkpt><trkpt lat="59.4618701935" lon="31.0890126228"><time>2026-09-02T11:53:51Z</time></trkpt><trkpt lat="59.4618487358" lon="31.0890126228"><time>2026-09-02T11:53:53Z</time></trkpt><trkpt lat="59.4618487358" lon="31.0890126228"><time>2026-09-02T11:53:56Z</time></trkpt><trkpt lat="59.4618272781" lon="31.0889911652"><time>2026-09-02T11:53:58Z</time></trkpt><trkpt lat="59.4618272781" lon="31.0889911652"><time>2026-09-02T11:54:01Z</time></trkpt><trkpt lat="59.4618058205" lon="31.0889911652"><time>2026-09-02T11:54:03Z</time></trkpt><trkpt lat="59.4618058205" lon="31.0889911652"><time>2026-09-02T11:54:06Z</time></trkpt><trkpt lat="59.4617629051" lon="31.0889267921"><time>2026-09-02T11:54:08Z</time></trkpt><trkpt lat="59.4617629051" lon="31.0889267921"><time>2026-09-02T11:54:11Z</time></trkpt><trkpt lat="59.4617414474" lon="31.0888838768"><time>2026-09-02T11:54:13Z</time></trkpt><trkpt lat="59.4617199898" lon="31.0888624191"><time>2026-09-02T11:54:16Z</time></trkpt><trkpt lat="59.4617199898" lon="31.0888624191"><time>2026-09-02T11:54:18Z</time></trkpt><trkpt lat="59.4616985321" lon="31.0888409615"><time>2026-09-02T11:54:21Z</time></trkpt><trkpt lat="59.4616770744" lon="31.0888195038"><time>2026-09-02T11:54:23Z</time></trkpt><trkpt lat="59.4616770744" lon="31.0887980461"><time>2026-09-02T11:54:26Z</time></trkpt><trkpt lat="59.4616770744" lon="31.0887765884"><time>2026-09-02T11:54:28Z</time></trkpt><trkpt lat="59.4616556168" lon="31.0887551308"><time>2026-09-02T11:54:31Z</time></trkpt><trkpt lat="59.4616341591" lon="31.0887336731"><time>2026-09-02T11:54:33Z</time></trkpt><trkpt lat="59.4616127014" lon="31.0887122154"><time>2026-09-02T11:54:36Z</time></trkpt><trkpt lat="59.4616341591" lon="31.0886693001"><time>2026-09-02T11:54:38Z</time></trkpt><trkpt lat="59.4616341591" lon="31.0886693001"><time>2026-09-02T11:54:41Z</time></trkpt><trkpt lat="59.4616341591" lon="31.0886693001"><time>2026-09-02T11:54:43Z</time></trkpt><trkpt lat="59.4616341591" lon="31.0886478424"><time>2026-09-02T11:54:46Z</time></trkpt><trkpt lat="59.4616127014" lon="31.0885620117"><time>2026-09-02T11:54:48Z</time></trkpt><trkpt lat="59.4616127014" lon="31.0885405540"><time>2026-09-02T11:54:51Z</time></trkpt><trkpt lat="59.4616127014" lon="31.0885190964"><time>2026-09-02T11:54:53Z</time></trkpt><trkpt lat="59.4615912437" lon="31.0884761810"><time>2026-09-02T11:54:56Z</time></trkpt><trkpt lat="59.4615912437" lon="31.0884332657"><time>2026-09-02T11:54:58Z</time></trkpt><trkpt lat="59.4615697861" lon="31.0884118080"><time>2026-09-02T11:55:01Z</time></trkpt><trkpt lat="59.4615483284" lon="31.0883903503"><time>2026-09-02T11:55:03Z</time></trkpt><trkpt lat="59.4615483284" lon="31.0883903503"><time>2026-09-02T11:55:06Z</time></trkpt><trkpt lat="59.4615483284" lon="31.0883688927"><time>2026-09-02T11:55:08Z</time></trkpt><trkpt lat="59.4615268707" lon="31.0883474350"><time>2026-09-02T11:55:11Z</time></trkpt><trkpt lat="59.4615054131" lon="31.0883474350"><time>2026-09-02T11:55:13Z</time></trkpt><trkpt lat="59.4614839554" lon="31.0883688927"><time>2026-09-02T11:55:16Z</time></trkpt><trkpt lat="59.4614624977" lon="31.0883903503"><time>2026-09-02T11:55:18Z</time></trkpt><trkpt lat="59.4614410400" lon="31.0884332657"><time>2026-09-02T11:55:21Z</time></trkpt><trkpt lat="59.4614195824" lon="31.0884976387"><time>2026-09-02T11:55:23Z</time></trkpt><trkpt lat="59.4614195824" lon="31.0885190964"><time>2026-09-02T11:55:26Z</time></trkpt><trkpt lat="59.4614195824" lon="31.0885190964"><time>2026-09-02T11:55:28Z</time></trkpt><trkpt lat="59.4614195824" lon="31.0885405540"><time>2026-09-02T11:55:31Z</time></trkpt><trkpt lat="59.4614410400" lon="31.0885620117"><time>2026-09-02T11:55:33Z</time></trkpt><trkpt lat="59.4614410400" lon="31.0885620117"><time>2026-09-02T11:55:36Z</time></trkpt><trkpt lat="59.4614410400" lon="31.0885620117"><time>2026-09-02T11:55:38Z</time></trkpt><trkpt lat="59.4614410400" lon="31.0885405540"><time>2026-09-02T11:55:41Z</time></trkpt><trkpt lat="59.4614410400" lon="31.0885405540"><time>2026-09-02T11:55:43Z</time></trkpt><trkpt lat="59.4614195824" lon="31.0885190964"><time>2026-09-02T11:55:46Z</time></trkpt><trkpt lat="59.4613981247" lon="31.0885190964"><time>2026-09-02T11:55:48Z</time></trkpt><trkpt lat="59.4613766670" lon="31.0884976387"><time>2026-09-02T11:55:51Z</time></trkpt><trkpt lat="59.4613766670" lon="31.0884547234"><time>2026-09-02T11:55:53Z</time></trkpt><trkpt lat="59.4613766670" lon="31.0884332657"><time>2026-09-02T11:55:56Z</time></trkpt><trkpt lat="59.4613766670" lon="31.0884118080"><time>2026-09-02T11:55:58Z</time></trkpt><trkpt lat="59.4613766670" lon="31.0884118080"><time>2026-09-02T11:56:01Z</time></trkpt><trkpt lat="59.4613766670" lon="31.0884118080"><time>2026-09-02T11:56:03Z</time></trkpt><trkpt lat="59.4613766670" lon="31.0884118080"><time>2026-09-02T11:56:06Z</time></trkpt><trkpt lat="59.4613552094" lon="31.0883903503"><time>2026-09-02T11:56:08Z</time></trkpt><trkpt lat="59.4613337517" lon="31.0884118080"><time>2026-09-02T11:56:11Z</time></trkpt><trkpt lat="59.4612908363" lon="31.0883903503"><time>2026-09-02T11:56:13Z</time></trkpt><trkpt lat="59.4612693787" lon="31.0883903503"><time>2026-09-02T11:56:16Z</time></trkpt><trkpt lat="59.4612264633" lon="31.0883688927"><time>2026-09-02T11:56:18Z</time></trkpt><trkpt lat="59.4611835480" lon="31.0883474350"><time>2026-09-02T11:56:21Z</time></trkpt><trkpt lat="59.4611406326" lon="31.0883259773"><time>2026-09-02T11:56:23Z</time></trkpt><trkpt lat="59.4611191750" lon="31.0882830620"><time>2026-09-02T11:56:26Z</time></trkpt><trkpt lat="59.4611191750" lon="31.0882186890"><time>2026-09-02T11:56:28Z</time></trkpt><trkpt lat="59.4610977173" lon="31.0881757736"><time>2026-09-02T11:56:31Z</time></trkpt><trkpt lat="59.4610762596" lon="31.0881543159"><time>2026-09-02T11:56:33Z</time></trkpt><trkpt lat="59.4610762596" lon="31.0881543159"><time>2026-09-02T11:56:36Z</time></trkpt><trkpt lat="59.4610762596" lon="31.0881543159"><time>2026-09-02T11:56:38Z</time></trkpt><trkpt lat="59.4610762596" lon="31.0881543159"><time>2026-09-02T11:56:41Z</time></trkpt><trkpt lat="59.4610762596" lon="31.0881543159"><time>2026-09-02T11:56:43Z</time></trkpt><trkpt lat="59.4610762596" lon="31.0881543159"><time>2026-09-02T11:56:46Z</time></trkpt><trkpt lat="59.4610118866" lon="31.0880684853"><time>2026-09-02T11:56:48Z</time></trkpt><trkpt lat="59.4610118866" lon="31.0880470276"><time>2026-09-02T11:56:51Z</time></trkpt><trkpt lat="59.4610548019" lon="31.0879826546"><time>2026-09-02T11:56:53Z</time></trkpt><trkpt lat="59.4610762596" lon="31.0879611969"><time>2026-09-02T11:56:56Z</time></trkpt><trkpt lat="59.4611191750" lon="31.0879611969"><time>2026-09-02T11:56:58Z</time></trkpt><trkpt lat="59.4611620903" lon="31.0879182816"><time>2026-09-02T11:57:01Z</time></trkpt><trkpt lat="59.4611835480" lon="31.0878753662"><time>2026-09-02T11:57:03Z</time></trkpt><trkpt lat="59.4612050056" lon="31.0878753662"><time>2026-09-02T11:57:06Z</time></trkpt><trkpt lat="59.4612264633" lon="31.0878539085"><time>2026-09-02T11:57:08Z</time></trkpt><trkpt lat="59.4612264633" lon="31.0878539085"><time>2026-09-02T11:57:11Z</time></trkpt><trkpt lat="59.4612264633" lon="31.0878539085"><time>2026-09-02T11:57:13Z</time></trkpt><trkpt lat="59.4612264633" lon="31.0878539085"><time>2026-09-02T11:57:16Z</time></trkpt><trkpt lat="59.4612264633" lon="31.0878539085"><time>2026-09-02T11:57:18Z</time></trkpt><trkpt lat="59.4612264633" lon="31.0878539085"><time>2026-09-02T11:57:21Z</time></trkpt><trkpt lat="59.4612264633" lon="31.0878324509"><time>2026-09-02T11:57:23Z</time></trkpt><trkpt lat="59.4612264633" lon="31.0878324509"><time>2026-09-02T11:57:26Z</time></trkpt><trkpt lat="59.4612264633" lon="31.0878109932"><time>2026-09-02T11:57:28Z</time></trkpt><trkpt lat="59.4612264633" lon="31.0877895355"><time>2026-09-02T11:57:31Z</time></trkpt><trkpt lat="59.4612479210" lon="31.0876822472"><time>2026-09-02T11:57:33Z</time></trkpt><trkpt lat="59.4612693787" lon="31.0875964165"><time>2026-09-02T11:57:36Z</time></trkpt><trkpt lat="59.4612908363" lon="31.0875105858"><time>2026-09-02T11:57:38Z</time></trkpt><trkpt lat="59.4612908363" lon="31.0874247551"><time>2026-09-02T11:57:41Z</time></trkpt><trkpt lat="59.4613122940" lon="31.0873818398"><time>2026-09-02T11:57:43Z</time></trkpt><trkpt lat="59.4613337517" lon="31.0873174667"><time>2026-09-02T11:57:46Z</time></trkpt><trkpt lat="59.4613337517" lon="31.0873174667"><time>2026-09-02T11:57:48Z</time></trkpt><trkpt lat="59.4613552094" lon="31.0873174667"><time>2026-09-02T11:57:51Z</time></trkpt><trkpt lat="59.4613981247" lon="31.0872960091"><time>2026-09-02T11:57:53Z</time></trkpt><trkpt lat="59.4614195824" lon="31.0873174667"><time>2026-09-02T11:57:56Z</time></trkpt><trkpt lat="59.4614195824" lon="31.0873389244"><time>2026-09-02T11:57:58Z</time></trkpt><trkpt lat="59.4614195824" lon="31.0873603821"><time>2026-09-02T11:58:01Z</time></trkpt><trkpt lat="59.4614410400" lon="31.0874676704"><time>2026-09-02T11:58:03Z</time></trkpt><trkpt lat="59.4614624977" lon="31.0875320435"><time>2026-09-02T11:58:06Z</time></trkpt><trkpt lat="59.4613981247" lon="31.0875535011"><time>2026-09-02T11:58:08Z</time></trkpt><trkpt lat="59.4613766670" lon="31.0875749588"><time>2026-09-02T11:58:11Z</time></trkpt><trkpt lat="59.4613337517" lon="31.0876393318"><time>2026-09-02T11:58:13Z</time></trkpt><trkpt lat="59.4613122940" lon="31.0876607895"><time>2026-09-02T11:58:16Z</time></trkpt><trkpt lat="59.4612693787" lon="31.0877251625"><time>2026-09-02T11:58:18Z</time></trkpt><trkpt lat="59.4612479210" lon="31.0877466202"><time>2026-09-02T11:58:21Z</time></trkpt><trkpt lat="59.4612479210" lon="31.0877466202"><time>2026-09-02T11:58:23Z</time></trkpt><trkpt lat="59.4612479210" lon="31.0877466202"><time>2026-09-02T11:58:26Z</time></trkpt><trkpt lat="59.4612479210" lon="31.0877466202"><time>2026-09-02T11:58:28Z</time></trkpt><trkpt lat="59.4612479210" lon="31.0877466202"><time>2026-09-02T11:58:31Z</time></trkpt><trkpt lat="59.4612479210" lon="31.0877466202"><time>2026-09-02T11:58:33Z</time></trkpt><trkpt lat="59.4612479210" lon="31.0877466202"><time>2026-09-02T11:58:36Z</time></trkpt><trkpt lat="59.4612479210" lon="31.0877466202"><time>2026-09-02T11:58:38Z</time></trkpt><trkpt lat="59.4612479210" lon="31.0877466202"><time>2026-09-02T11:58:41Z</time></trkpt><trkpt lat="59.4612479210" lon="31.0877466202"><time>2026-09-02T11:58:43Z</time></trkpt><trkpt lat="59.4612479210" lon="31.0877466202"><time>2026-09-02T11:58:46Z</time></trkpt><trkpt lat="59.4612479210" lon="31.0877466202"><time>2026-09-02T11:58:48Z</time></trkpt><trkpt lat="59.4612479210" lon="31.0877466202"><time>2026-09-02T11:58:51Z</time></trkpt><trkpt lat="59.4612479210" lon="31.0877466202"><time>2026-09-02T11:58:53Z</time></trkpt><trkpt lat="59.4612479210" lon="31.0877466202"><time>2026-09-02T11:58:56Z</time></trkpt><trkpt lat="59.4612479210" lon="31.0877466202"><time>2026-09-02T11:58:58Z</time></trkpt><trkpt lat="59.4612479210" lon="31.0877466202"><time>2026-09-02T11:59:01Z</time></trkpt><trkpt lat="59.4612479210" lon="31.0877466202"><time>2026-09-02T11:59:03Z</time></trkpt><trkpt lat="59.4612479210" lon="31.0877466202"><time>2026-09-02T11:59:06Z</time></trkpt><trkpt lat="59.4612479210" lon="31.0877466202"><time>2026-09-02T11:59:08Z</time></trkpt><trkpt lat="59.4612479210" lon="31.0877466202"><time>2026-09-02T11:59:11Z</time></trkpt><trkpt lat="59.4612479210" lon="31.0877466202"><time>2026-09-02T11:59:13Z</time></trkpt><trkpt lat="59.4612479210" lon="31.0877466202"><time>2026-09-02T11:59:16Z</time></trkpt><trkpt lat="59.4612479210" lon="31.0877466202"><time>2026-09-02T11:59:18Z</time></trkpt><trkpt lat="59.4612479210" lon="31.0877466202"><time>2026-09-02T11:59:21Z</time></trkpt><trkpt lat="59.4612479210" lon="31.0877466202"><time>2026-09-02T11:59:23Z</time></trkpt><trkpt lat="59.4612479210" lon="31.0877466202"><time>2026-09-02T11:59:26Z</time></trkpt><trkpt lat="59.4612479210" lon="31.0877466202"><time>2026-09-02T11:59:28Z</time></trkpt><trkpt lat="59.4612479210" lon="31.0877251625"><time>2026-09-02T11:59:31Z</time></trkpt><trkpt lat="59.4612479210" lon="31.0877251625"><time>2026-09-02T11:59:33Z</time></trkpt><trkpt lat="59.4612479210" lon="31.0877251625"><time>2026-09-02T11:59:36Z</time></trkpt><trkpt lat="59.4612479210" lon="31.0877251625"><time>2026-09-02T11:59:38Z</time></trkpt><trkpt lat="59.4612479210" lon="31.0877251625"><time>2026-09-02T11:59:41Z</time></trkpt><trkpt lat="59.4612479210" lon="31.0876822472"><time>2026-09-02T11:59:43Z</time></trkpt><trkpt lat="59.4612479210" lon="31.0876822472"><time>2026-09-02T11:59:46Z</time></trkpt><trkpt lat="59.4612479210" lon="31.0876822472"><time>2026-09-02T11:59:48Z</time></trkpt><trkpt lat="59.4612479210" lon="31.0876822472"><time>2026-09-02T11:59:51Z</time></trkpt><trkpt lat="59.4612479210" lon="31.0876822472"><time>2026-09-02T11:59:53Z</time></trkpt><trkpt lat="59.4612479210" lon="31.0876607895"><time>2026-09-02T11:59:56Z</time></trkpt><trkpt lat="59.4612479210" lon="31.0876607895"><time>2026-09-02T11:59:58Z</time></trkpt><trkpt lat="59.4612479210" lon="31.0876607895"><time>2026-09-02T12:00:01Z</time></trkpt><trkpt lat="59.4612479210" lon="31.0876607895"><time>2026-09-02T12:00:03Z</time></trkpt><trkpt lat="59.4612479210" lon="31.0876607895"><time>2026-09-02T12:00:06Z</time></trkpt><trkpt lat="59.4612479210" lon="31.0876607895"><time>2026-09-02T12:00:11Z</time></trkpt><trkpt lat="59.4612264633" lon="31.0876393318"><time>2026-09-02T12:00:13Z</time></trkpt><trkpt lat="59.4612264633" lon="31.0876393318"><time>2026-09-02T12:00:16Z</time></trkpt><trkpt lat="59.4612264633" lon="31.0876393318"><time>2026-09-02T12:00:18Z</time></trkpt><trkpt lat="59.4612264633" lon="31.0876393318"><time>2026-09-02T12:00:21Z</time></trkpt><trkpt lat="59.4612264633" lon="31.0876393318"><time>2026-09-02T12:00:23Z</time></trkpt><trkpt lat="59.4612264633" lon="31.0876393318"><time>2026-09-02T12:00:26Z</time></trkpt><trkpt lat="59.4612264633" lon="31.0876393318"><time>2026-09-02T12:00:28Z</time></trkpt><trkpt lat="59.4612264633" lon="31.0876393318"><time>2026-09-02T12:00:31Z</time></trkpt><trkpt lat="59.4612264633" lon="31.0876393318"><time>2026-09-02T12:00:33Z</time></trkpt><trkpt lat="59.4612264633" lon="31.0876393318"><time>2026-09-02T12:00:36Z</time></trkpt><trkpt lat="59.4612264633" lon="31.0876393318"><time>2026-09-02T12:00:38Z</time></trkpt><trkpt lat="59.4612264633" lon="31.0876393318"><time>2026-09-02T12:00:41Z</time></trkpt><trkpt lat="59.4612264633" lon="31.0876393318"><time>2026-09-02T12:00:43Z</time></trkpt><trkpt lat="59.4612264633" lon="31.0876178741"><time>2026-09-02T12:00:46Z</time></trkpt><trkpt lat="59.4612264633" lon="31.0876178741"><time>2026-09-02T12:00:48Z</time></trkpt><trkpt lat="59.4612264633" lon="31.0876178741"><time>2026-09-02T12:00:51Z</time></trkpt><trkpt lat="59.4612264633" lon="31.0876178741"><time>2026-09-02T12:00:53Z</time></trkpt><trkpt lat="59.4612264633" lon="31.0876178741"><time>2026-09-02T12:00:56Z</time></trkpt><trkpt lat="59.4612264633" lon="31.0876178741"><time>2026-09-02T12:00:58Z</time></trkpt><trkpt lat="59.4612264633" lon="31.0876178741"><time>2026-09-02T12:01:01Z</time></trkpt><trkpt lat="59.4612264633" lon="31.0876178741"><time>2026-09-02T12:01:03Z</time></trkpt><trkpt lat="59.4612264633" lon="31.0876178741"><time>2026-09-02T12:01:06Z</time></trkpt><trkpt lat="59.4612264633" lon="31.0876178741"><time>2026-09-02T12:01:08Z</time></trkpt><trkpt lat="59.4612264633" lon="31.0876178741"><time>2026-09-02T12:01:11Z</time></trkpt><trkpt lat="59.4612264633" lon="31.0876178741"><time>2026-09-02T12:01:13Z</time></trkpt><trkpt lat="59.4612264633" lon="31.0876178741"><time>2026-09-02T12:01:16Z</time></trkpt><trkpt lat="59.4612264633" lon="31.0876178741"><time>2026-09-02T12:01:18Z</time></trkpt><trkpt lat="59.4612264633" lon="31.0876178741"><time>2026-09-02T12:01:21Z</time></trkpt><trkpt lat="59.4612264633" lon="31.0875964165"><time>2026-09-02T12:01:23Z</time></trkpt><trkpt lat="59.4612264633" lon="31.0875964165"><time>2026-09-02T12:01:26Z</time></trkpt><trkpt lat="59.4612264633" lon="31.0875964165"><time>2026-09-02T12:01:28Z</time></trkpt><trkpt lat="59.4612264633" lon="31.0875964165"><time>2026-09-02T12:01:31Z</time></trkpt><trkpt lat="59.4612264633" lon="31.0875964165"><time>2026-09-02T12:01:33Z</time></trkpt><trkpt lat="59.4612264633" lon="31.0875964165"><time>2026-09-02T12:01:36Z</time></trkpt><trkpt lat="59.4612264633" lon="31.0875964165"><time>2026-09-02T12:01:38Z</time></trkpt><trkpt lat="59.4612264633" lon="31.0875964165"><time>2026-09-02T12:01:41Z</time></trkpt><trkpt lat="59.4612264633" lon="31.0875964165"><time>2026-09-02T12:01:43Z</time></trkpt><trkpt lat="59.4612264633" lon="31.0875964165"><time>2026-09-02T12:01:46Z</time></trkpt><trkpt lat="59.4612264633" lon="31.0875964165"><time>2026-09-02T12:01:48Z</time></trkpt><trkpt lat="59.4612264633" lon="31.0875964165"><time>2026-09-02T12:01:51Z</time></trkpt><trkpt lat="59.4612264633" lon="31.0875964165"><time>2026-09-02T12:01:53Z</time></trkpt><trkpt lat="59.4612264633" lon="31.0875964165"><time>2026-09-02T12:01:56Z</time></trkpt><trkpt lat="59.4612264633" lon="31.0875964165"><time>2026-09-02T12:01:58Z</time></trkpt><trkpt lat="59.4612264633" lon="31.0875964165"><time>2026-09-02T12:02:01Z</time></trkpt><trkpt lat="59.4612264633" lon="31.0875964165"><time>2026-09-02T12:02:03Z</time></trkpt><trkpt lat="59.4612264633" lon="31.0875964165"><time>2026-09-02T12:02:06Z</time></trkpt><trkpt lat="59.4612264633" lon="31.0875964165"><time>2026-09-02T12:02:08Z</time></trkpt><trkpt lat="59.4612264633" lon="31.0875964165"><time>2026-09-02T12:02:11Z</time></trkpt><trkpt lat="59.4612264633" lon="31.0875964165"><time>2026-09-02T12:02:13Z</time></trkpt><trkpt lat="59.4612264633" lon="31.0875964165"><time>2026-09-02T12:02:16Z</time></trkpt><trkpt lat="59.4612264633" lon="31.0875964165"><time>2026-09-02T12:02:18Z</time></trkpt><trkpt lat="59.4612264633" lon="31.0875964165"><time>2026-09-02T12:02:21Z</time></trkpt><trkpt lat="59.4612264633" lon="31.0875964165"><time>2026-09-02T12:02:23Z</time></trkpt><trkpt lat="59.4612264633" lon="31.0875964165"><time>2026-09-02T12:02:26Z</time></trkpt><trkpt lat="59.4612264633" lon="31.0875964165"><time>2026-09-02T12:02:28Z</time></trkpt><trkpt lat="59.4612264633" lon="31.0875964165"><time>2026-09-02T12:02:31Z</time></trkpt><trkpt lat="59.4612264633" lon="31.0875964165"><time>2026-09-02T12:02:33Z</time></trkpt><trkpt lat="59.4612264633" lon="31.0875964165"><time>2026-09-02T12:02:36Z</time></trkpt><trkpt lat="59.4612264633" lon="31.0875964165"><time>2026-09-02T12:02:38Z</time></trkpt><trkpt lat="59.4612264633" lon="31.0875964165"><time>2026-09-02T12:02:41Z</time></trkpt><trkpt lat="59.4612264633" lon="31.0875964165"><time>2026-09-02T12:02:43Z</time></trkpt><trkpt lat="59.4612264633" lon="31.0875964165"><time>2026-09-02T12:02:46Z</time></trkpt><trkpt lat="59.4612264633" lon="31.0875964165"><time>2026-09-02T12:02:48Z</time></trkpt><trkpt lat="59.4612264633" lon="31.0875964165"><time>2026-09-02T12:02:51Z</time></trkpt><trkpt lat="59.4612264633" lon="31.0875964165"><time>2026-09-02T12:02:53Z</time></trkpt><trkpt lat="59.4612264633" lon="31.0875964165"><time>2026-09-02T12:02:56Z</time></trkpt><trkpt lat="59.4612264633" lon="31.0875964165"><time>2026-09-02T12:02:58Z</time></trkpt><trkpt lat="59.4612264633" lon="31.0875964165"><time>2026-09-02T12:03:01Z</time></trkpt><trkpt lat="59.4612264633" lon="31.0875964165"><time>2026-09-02T12:03:03Z</time></trkpt><trkpt lat="59.4612264633" lon="31.0875964165"><time>2026-09-02T12:03:06Z</time></trkpt><trkpt lat="59.4612264633" lon="31.0875964165"><time>2026-09-02T12:03:08Z</time></trkpt><trkpt lat="59.4612264633" lon="31.0875964165"><time>2026-09-02T12:03:11Z</time></trkpt><trkpt lat="59.4612264633" lon="31.0875964165"><time>2026-09-02T12:03:13Z</time></trkpt><trkpt lat="59.4612264633" lon="31.0875964165"><time>2026-09-02T12:03:16Z</time></trkpt><trkpt lat="59.4612264633" lon="31.0875964165"><time>2026-09-02T12:03:18Z</time></trkpt><trkpt lat="59.4612264633" lon="31.0875964165"><time>2026-09-02T12:03:21Z</time></trkpt><trkpt lat="59.4612264633" lon="31.0875964165"><time>2026-09-02T12:03:23Z</time></trkpt><trkpt lat="59.4612264633" lon="31.0875964165"><time>2026-09-02T12:03:26Z</time></trkpt><trkpt lat="59.4612264633" lon="31.0875964165"><time>2026-09-02T12:03:28Z</time></trkpt><trkpt lat="59.4612264633" lon="31.0875964165"><time>2026-09-02T12:03:31Z</time></trkpt><trkpt lat="59.4612264633" lon="31.0875964165"><time>2026-09-02T12:03:33Z</time></trkpt><trkpt lat="59.4612264633" lon="31.0875964165"><time>2026-09-02T12:03:36Z</time></trkpt><trkpt lat="59.4612264633" lon="31.0875964165"><time>2026-09-02T12:03:38Z</time></trkpt><trkpt lat="59.4612264633" lon="31.0875964165"><time>2026-09-02T12:03:41Z</time></trkpt><trkpt lat="59.4612264633" lon="31.0875964165"><time>2026-09-02T12:03:43Z</time></trkpt><trkpt lat="59.4612264633" lon="31.0875964165"><time>2026-09-02T12:03:46Z</time></trkpt><trkpt lat="59.4612264633" lon="31.0875964165"><time>2026-09-02T12:03:48Z</time></trkpt><trkpt lat="59.4612264633" lon="31.0875964165"><time>2026-09-02T12:03:51Z</time></trkpt><trkpt lat="59.4612264633" lon="31.0875964165"><time>2026-09-02T12:03:53Z</time></trkpt><trkpt lat="59.4612264633" lon="31.0875964165"><time>2026-09-02T12:03:56Z</time></trkpt><trkpt lat="59.4612264633" lon="31.0875964165"><time>2026-09-02T12:03:58Z</time></trkpt><trkpt lat="59.4612050056" lon="31.0875749588"><time>2026-09-02T12:04:01Z</time></trkpt><trkpt lat="59.4611620903" lon="31.0874891281"><time>2026-09-02T12:04:03Z</time></trkpt><trkpt lat="59.4611406326" lon="31.0874891281"><time>2026-09-02T12:04:06Z</time></trkpt><trkpt lat="59.4610977173" lon="31.0874891281"><time>2026-09-02T12:04:08Z</time></trkpt><trkpt lat="59.4610762596" lon="31.0875535011"><time>2026-09-02T12:04:11Z</time></trkpt><trkpt lat="59.4610548019" lon="31.0875749588"><time>2026-09-02T12:04:13Z</time></trkpt><trkpt lat="59.4610548019" lon="31.0875749588"><time>2026-09-02T12:04:16Z</time></trkpt><trkpt lat="59.4610548019" lon="31.0875964165"><time>2026-09-02T12:04:18Z</time></trkpt><trkpt lat="59.4610548019" lon="31.0875964165"><time>2026-09-02T12:04:21Z</time></trkpt><trkpt lat="59.4610333443" lon="31.0875964165"><time>2026-09-02T12:04:23Z</time></trkpt><trkpt lat="59.4610333443" lon="31.0875964165"><time>2026-09-02T12:04:26Z</time></trkpt><trkpt lat="59.4610118866" lon="31.0876393318"><time>2026-09-02T12:04:28Z</time></trkpt><trkpt lat="59.4610118866" lon="31.0876393318"><time>2026-09-02T12:04:31Z</time></trkpt><trkpt lat="59.4609904289" lon="31.0876393318"><time>2026-09-02T12:04:33Z</time></trkpt><trkpt lat="59.4609904289" lon="31.0876393318"><time>2026-09-02T12:04:36Z</time></trkpt><trkpt lat="59.4609689713" lon="31.0876607895"><time>2026-09-02T12:04:38Z</time></trkpt><trkpt lat="59.4609689713" lon="31.0876822472"><time>2026-09-02T12:04:41Z</time></trkpt><trkpt lat="59.4609689713" lon="31.0876822472"><time>2026-09-02T12:04:43Z</time></trkpt><trkpt lat="59.4609475136" lon="31.0876607895"><time>2026-09-02T12:04:46Z</time></trkpt><trkpt lat="59.4609475136" lon="31.0876178741"><time>2026-09-02T12:04:48Z</time></trkpt><trkpt lat="59.4609260559" lon="31.0875964165"><time>2026-09-02T12:04:51Z</time></trkpt><trkpt lat="59.4609260559" lon="31.0875749588"><time>2026-09-02T12:04:53Z</time></trkpt><trkpt lat="59.4609045982" lon="31.0875535011"><time>2026-09-02T12:04:56Z</time></trkpt><trkpt lat="59.4609045982" lon="31.0875535011"><time>2026-09-02T12:04:58Z</time></trkpt><trkpt lat="59.4609045982" lon="31.0875535011"><time>2026-09-02T12:05:01Z</time></trkpt><trkpt lat="59.4609045982" lon="31.0875535011"><time>2026-09-02T12:05:03Z</time></trkpt><trkpt lat="59.4609045982" lon="31.0875320435"><time>2026-09-02T12:05:06Z</time></trkpt><trkpt lat="59.4609045982" lon="31.0875320435"><time>2026-09-02T12:05:08Z</time></trkpt><trkpt lat="59.4609260559" lon="31.0875105858"><time>2026-09-02T12:05:11Z</time></trkpt><trkpt lat="59.4609475136" lon="31.0874676704"><time>2026-09-02T12:05:13Z</time></trkpt><trkpt lat="59.4609689713" lon="31.0874247551"><time>2026-09-02T12:05:16Z</time></trkpt><trkpt lat="59.4610118866" lon="31.0873818398"><time>2026-09-02T12:05:18Z</time></trkpt><trkpt lat="59.4610118866" lon="31.0873818398"><time>2026-09-02T12:05:21Z</time></trkpt><trkpt lat="59.4610118866" lon="31.0873818398"><time>2026-09-02T12:05:23Z</time></trkpt><trkpt lat="59.4610118866" lon="31.0873818398"><time>2026-09-02T12:05:26Z</time></trkpt><trkpt lat="59.4610118866" lon="31.0873818398"><time>2026-09-02T12:05:28Z</time></trkpt><trkpt lat="59.4609689713" lon="31.0873389244"><time>2026-09-02T12:05:31Z</time></trkpt><trkpt lat="59.4609045982" lon="31.0872745514"><time>2026-09-02T12:05:33Z</time></trkpt><trkpt lat="59.4609045982" lon="31.0872745514"><time>2026-09-02T12:05:36Z</time></trkpt><trkpt lat="59.4608616829" lon="31.0872530937"><time>2026-09-02T12:05:38Z</time></trkpt><trkpt lat="59.4608616829" lon="31.0872530937"><time>2026-09-02T12:05:41Z</time></trkpt><trkpt lat="59.4608616829" lon="31.0872316360"><time>2026-09-02T12:05:43Z</time></trkpt><trkpt lat="59.4608616829" lon="31.0872316360"><time>2026-09-02T12:05:46Z</time></trkpt><trkpt lat="59.4608616829" lon="31.0872530937"><time>2026-09-02T12:05:48Z</time></trkpt><trkpt lat="59.4608616829" lon="31.0872530937"><time>2026-09-02T12:05:51Z</time></trkpt><trkpt lat="59.4608616829" lon="31.0872316360"><time>2026-09-02T12:05:53Z</time></trkpt><trkpt lat="59.4608616829" lon="31.0872316360"><time>2026-09-02T12:05:56Z</time></trkpt><trkpt lat="59.4608616829" lon="31.0872101784"><time>2026-09-02T12:05:58Z</time></trkpt><trkpt lat="59.4608616829" lon="31.0872101784"><time>2026-09-02T12:06:01Z</time></trkpt><trkpt lat="59.4608616829" lon="31.0872101784"><time>2026-09-02T12:06:03Z</time></trkpt><trkpt lat="59.4608616829" lon="31.0872101784"><time>2026-09-02T12:06:06Z</time></trkpt><trkpt lat="59.4608402252" lon="31.0871887207"><time>2026-09-02T12:06:08Z</time></trkpt><trkpt lat="59.4608187675" lon="31.0871458054"><time>2026-09-02T12:06:11Z</time></trkpt><trkpt lat="59.4607973099" lon="31.0870814323"><time>2026-09-02T12:06:13Z</time></trkpt><trkpt lat="59.4607973099" lon="31.0870385170"><time>2026-09-02T12:06:16Z</time></trkpt><trkpt lat="59.4607758522" lon="31.0870170593"><time>2026-09-02T12:06:18Z</time></trkpt><trkpt lat="59.4607758522" lon="31.0870170593"><time>2026-09-02T12:06:21Z</time></trkpt><trkpt lat="59.4607758522" lon="31.0870170593"><time>2026-09-02T12:06:23Z</time></trkpt><trkpt lat="59.4607543945" lon="31.0869956017"><time>2026-09-02T12:06:26Z</time></trkpt><trkpt lat="59.4607543945" lon="31.0869097710"><time>2026-09-02T12:06:28Z</time></trkpt><trkpt lat="59.4607329369" lon="31.0868668556"><time>2026-09-02T12:06:31Z</time></trkpt><trkpt lat="59.4607329369" lon="31.0868668556"><time>2026-09-02T12:06:33Z</time></trkpt><trkpt lat="59.4607329369" lon="31.0868668556"><time>2026-09-02T12:06:36Z</time></trkpt><trkpt lat="59.4607114792" lon="31.0868239403"><time>2026-09-02T12:06:38Z</time></trkpt><trkpt lat="59.4607114792" lon="31.0868239403"><time>2026-09-02T12:06:41Z</time></trkpt><trkpt lat="59.4606685638" lon="31.0868239403"><time>2026-09-02T12:06:43Z</time></trkpt><trkpt lat="59.4606471062" lon="31.0868239403"><time>2026-09-02T12:06:46Z</time></trkpt><trkpt lat="59.4606471062" lon="31.0868239403"><time>2026-09-02T12:06:48Z</time></trkpt><trkpt lat="59.4606471062" lon="31.0868239403"><time>2026-09-02T12:06:51Z</time></trkpt><trkpt lat="59.4606471062" lon="31.0868239403"><time>2026-09-02T12:06:53Z</time></trkpt><trkpt lat="59.4606471062" lon="31.0868239403"><time>2026-09-02T12:06:56Z</time></trkpt><trkpt lat="59.4606471062" lon="31.0868239403"><time>2026-09-02T12:06:58Z</time></trkpt><trkpt lat="59.4606256485" lon="31.0868024826"><time>2026-09-02T12:07:01Z</time></trkpt><trkpt lat="59.4606041908" lon="31.0867381096"><time>2026-09-02T12:07:03Z</time></trkpt><trkpt lat="59.4605827332" lon="31.0867166519"><time>2026-09-02T12:07:06Z</time></trkpt><trkpt lat="59.4605612755" lon="31.0866522789"><time>2026-09-02T12:07:08Z</time></trkpt><trkpt lat="59.4605398178" lon="31.0866093636"><time>2026-09-02T12:07:11Z</time></trkpt><trkpt lat="59.4605183601" lon="31.0865449905"><time>2026-09-02T12:07:13Z</time></trkpt><trkpt lat="59.4605183601" lon="31.0865235329"><time>2026-09-02T12:07:16Z</time></trkpt><trkpt lat="59.4605183601" lon="31.0865235329"><time>2026-09-02T12:07:18Z</time></trkpt><trkpt lat="59.4605183601" lon="31.0865235329"><time>2026-09-02T12:07:21Z</time></trkpt><trkpt lat="59.4605183601" lon="31.0864806175"><time>2026-09-02T12:07:23Z</time></trkpt><trkpt lat="59.4605183601" lon="31.0864591599"><time>2026-09-02T12:07:26Z</time></trkpt><trkpt lat="59.4605183601" lon="31.0864377022"><time>2026-09-02T12:07:28Z</time></trkpt><trkpt lat="59.4605183601" lon="31.0864377022"><time>2026-09-02T12:07:31Z</time></trkpt><trkpt lat="59.4604969025" lon="31.0864377022"><time>2026-09-02T12:07:33Z</time></trkpt><trkpt lat="59.4604969025" lon="31.0864377022"><time>2026-09-02T12:07:36Z</time></trkpt><trkpt lat="59.4604969025" lon="31.0864377022"><time>2026-09-02T12:07:38Z</time></trkpt><trkpt lat="59.4604969025" lon="31.0864377022"><time>2026-09-02T12:07:41Z</time></trkpt><trkpt lat="59.4604969025" lon="31.0864377022"><time>2026-09-02T12:07:43Z</time></trkpt><trkpt lat="59.4604969025" lon="31.0864377022"><time>2026-09-02T12:07:46Z</time></trkpt><trkpt lat="59.4604754448" lon="31.0864162445"><time>2026-09-02T12:07:48Z</time></trkpt><trkpt lat="59.4604754448" lon="31.0864162445"><time>2026-09-02T12:07:51Z</time></trkpt><trkpt lat="59.4604754448" lon="31.0863947868"><time>2026-09-02T12:07:53Z</time></trkpt><trkpt lat="59.4604539871" lon="31.0863518715"><time>2026-09-02T12:07:58Z</time></trkpt><trkpt lat="59.4604325294" lon="31.0863304138"><time>2026-09-02T12:08:01Z</time></trkpt><trkpt lat="59.4604110718" lon="31.0862874985"><time>2026-09-02T12:08:03Z</time></trkpt><trkpt lat="59.4603896141" lon="31.0862874985"><time>2026-09-02T12:08:06Z</time></trkpt><trkpt lat="59.4603896141" lon="31.0862874985"><time>2026-09-02T12:08:08Z</time></trkpt><trkpt lat="59.4603896141" lon="31.0862874985"><time>2026-09-02T12:08:11Z</time></trkpt><trkpt lat="59.4603896141" lon="31.0862445831"><time>2026-09-02T12:08:13Z</time></trkpt><trkpt lat="59.4603681564" lon="31.0862016678"><time>2026-09-02T12:08:16Z</time></trkpt><trkpt lat="59.4603252411" lon="31.0860943794"><time>2026-09-02T12:08:18Z</time></trkpt><trkpt lat="59.4603252411" lon="31.0860085487"><time>2026-09-02T12:08:21Z</time></trkpt><trkpt lat="59.4603252411" lon="31.0859656334"><time>2026-09-02T12:08:23Z</time></trkpt><trkpt lat="59.4603252411" lon="31.0859656334"><time>2026-09-02T12:08:26Z</time></trkpt><trkpt lat="59.4603252411" lon="31.0859656334"><time>2026-09-02T12:08:28Z</time></trkpt><trkpt lat="59.4603252411" lon="31.0859870911"><time>2026-09-02T12:08:31Z</time></trkpt><trkpt lat="59.4603037834" lon="31.0859870911"><time>2026-09-02T12:08:33Z</time></trkpt><trkpt lat="59.4602823257" lon="31.0859870911"><time>2026-09-02T12:08:36Z</time></trkpt><trkpt lat="59.4602823257" lon="31.0859870911"><time>2026-09-02T12:08:38Z</time></trkpt><trkpt lat="59.4602823257" lon="31.0859870911"><time>2026-09-02T12:08:41Z</time></trkpt><trkpt lat="59.4601964951" lon="31.0859227180"><time>2026-09-02T12:08:43Z</time></trkpt><trkpt lat="59.4601321220" lon="31.0858583450"><time>2026-09-02T12:08:46Z</time></trkpt><trkpt lat="59.4600677490" lon="31.0857510567"><time>2026-09-02T12:08:48Z</time></trkpt><trkpt lat="59.4600462914" lon="31.0856652260"><time>2026-09-02T12:08:51Z</time></trkpt><trkpt lat="59.4600033760" lon="31.0855793953"><time>2026-09-02T12:08:53Z</time></trkpt><trkpt lat="59.4599819183" lon="31.0855579376"><time>2026-09-02T12:08:56Z</time></trkpt><trkpt lat="59.4599390030" lon="31.0855364799"><time>2026-09-02T12:08:58Z</time></trkpt><trkpt lat="59.4599390030" lon="31.0855364799"><time>2026-09-02T12:09:01Z</time></trkpt><trkpt lat="59.4599390030" lon="31.0855364799"><time>2026-09-02T12:09:03Z</time></trkpt><trkpt lat="59.4599390030" lon="31.0855364799"><time>2026-09-02T12:09:06Z</time></trkpt><trkpt lat="59.4599390030" lon="31.0855364799"><time>2026-09-02T12:09:08Z</time></trkpt><trkpt lat="59.4599390030" lon="31.0855364799"><time>2026-09-02T12:09:11Z</time></trkpt><trkpt lat="59.4598960876" lon="31.0854935646"><time>2026-09-02T12:09:13Z</time></trkpt><trkpt lat="59.4598531723" lon="31.0854721069"><time>2026-09-02T12:09:16Z</time></trkpt><trkpt lat="59.4598531723" lon="31.0854721069"><time>2026-09-02T12:09:18Z</time></trkpt><trkpt lat="59.4598746300" lon="31.0854721069"><time>2026-09-02T12:09:21Z</time></trkpt><trkpt lat="59.4599175453" lon="31.0854506493"><time>2026-09-02T12:09:23Z</time></trkpt><trkpt lat="59.4599175453" lon="31.0854506493"><time>2026-09-02T12:09:26Z</time></trkpt><trkpt lat="59.4599175453" lon="31.0854506493"><time>2026-09-02T12:09:28Z</time></trkpt><trkpt lat="59.4599175453" lon="31.0854291916"><time>2026-09-02T12:09:31Z</time></trkpt><trkpt lat="59.4599390030" lon="31.0854291916"><time>2026-09-02T12:09:33Z</time></trkpt><trkpt lat="59.4599390030" lon="31.0854291916"><time>2026-09-02T12:09:36Z</time></trkpt><trkpt lat="59.4599390030" lon="31.0854291916"><time>2026-09-02T12:09:38Z</time></trkpt><trkpt lat="59.4599604607" lon="31.0854077339"><time>2026-09-02T12:09:41Z</time></trkpt><trkpt lat="59.4599604607" lon="31.0853862762"><time>2026-09-02T12:09:43Z</time></trkpt><trkpt lat="59.4599604607" lon="31.0853862762"><time>2026-09-02T12:09:46Z</time></trkpt><trkpt lat="59.4599604607" lon="31.0853862762"><time>2026-09-02T12:09:48Z</time></trkpt><trkpt lat="59.4599604607" lon="31.0853862762"><time>2026-09-02T12:09:51Z</time></trkpt><trkpt lat="59.4599604607" lon="31.0853862762"><time>2026-09-02T12:09:53Z</time></trkpt><trkpt lat="59.4599819183" lon="31.0853862762"><time>2026-09-02T12:09:56Z</time></trkpt><trkpt lat="59.4599819183" lon="31.0853862762"><time>2026-09-02T12:09:58Z</time></trkpt><trkpt lat="59.4599819183" lon="31.0854077339"><time>2026-09-02T12:10:01Z</time></trkpt><trkpt lat="59.4599819183" lon="31.0854077339"><time>2026-09-02T12:10:03Z</time></trkpt><trkpt lat="59.4599819183" lon="31.0854077339"><time>2026-09-02T12:10:06Z</time></trkpt><trkpt lat="59.4599819183" lon="31.0854077339"><time>2026-09-02T12:10:08Z</time></trkpt><trkpt lat="59.4599819183" lon="31.0854077339"><time>2026-09-02T12:10:11Z</time></trkpt><trkpt lat="59.4599819183" lon="31.0854077339"><time>2026-09-02T12:10:13Z</time></trkpt><trkpt lat="59.4599819183" lon="31.0854077339"><time>2026-09-02T12:10:16Z</time></trkpt><trkpt lat="59.4599819183" lon="31.0854077339"><time>2026-09-02T12:10:18Z</time></trkpt><trkpt lat="59.4599819183" lon="31.0854077339"><time>2026-09-02T12:10:21Z</time></trkpt><trkpt lat="59.4599819183" lon="31.0854077339"><time>2026-09-02T12:10:23Z</time></trkpt><trkpt lat="59.4599819183" lon="31.0854077339"><time>2026-09-02T12:10:26Z</time></trkpt><trkpt lat="59.4599819183" lon="31.0854077339"><time>2026-09-02T12:10:28Z</time></trkpt><trkpt lat="59.4599819183" lon="31.0854077339"><time>2026-09-02T12:10:31Z</time></trkpt><trkpt lat="59.4599819183" lon="31.0854077339"><time>2026-09-02T12:10:33Z</time></trkpt><trkpt lat="59.4599819183" lon="31.0854077339"><time>2026-09-02T12:10:36Z</time></trkpt><trkpt lat="59.4599819183" lon="31.0854077339"><time>2026-09-02T12:10:38Z</time></trkpt><trkpt lat="59.4599819183" lon="31.0854077339"><time>2026-09-02T12:10:41Z</time></trkpt><trkpt lat="59.4599819183" lon="31.0854077339"><time>2026-09-02T12:10:43Z</time></trkpt><trkpt lat="59.4599819183" lon="31.0854077339"><time>2026-09-02T12:10:46Z</time></trkpt><trkpt lat="59.4599819183" lon="31.0854077339"><time>2026-09-02T12:10:48Z</time></trkpt><trkpt lat="59.4599819183" lon="31.0854077339"><time>2026-09-02T12:10:51Z</time></trkpt><trkpt lat="59.4599819183" lon="31.0854077339"><time>2026-09-02T12:10:53Z</time></trkpt><trkpt lat="59.4599819183" lon="31.0854077339"><time>2026-09-02T12:10:56Z</time></trkpt><trkpt lat="59.4599819183" lon="31.0854077339"><time>2026-09-02T12:10:58Z</time></trkpt><trkpt lat="59.4599819183" lon="31.0854077339"><time>2026-09-02T12:11:01Z</time></trkpt><trkpt lat="59.4599819183" lon="31.0854077339"><time>2026-09-02T12:11:03Z</time></trkpt><trkpt lat="59.4599819183" lon="31.0854077339"><time>2026-09-02T12:11:06Z</time></trkpt><trkpt lat="59.4599819183" lon="31.0854077339"><time>2026-09-02T12:11:08Z</time></trkpt><trkpt lat="59.4599819183" lon="31.0854077339"><time>2026-09-02T12:11:11Z</time></trkpt><trkpt lat="59.4599819183" lon="31.0854077339"><time>2026-09-02T12:11:13Z</time></trkpt><trkpt lat="59.4599819183" lon="31.0854077339"><time>2026-09-02T12:11:16Z</time></trkpt><trkpt lat="59.4599819183" lon="31.0854077339"><time>2026-09-02T12:11:18Z</time></trkpt><trkpt lat="59.4599819183" lon="31.0854077339"><time>2026-09-02T12:11:21Z</time></trkpt><trkpt lat="59.4599819183" lon="31.0854077339"><time>2026-09-02T12:11:23Z</time></trkpt><trkpt lat="59.4599819183" lon="31.0854077339"><time>2026-09-02T12:11:26Z</time></trkpt><trkpt lat="59.4599819183" lon="31.0854077339"><time>2026-09-02T12:11:28Z</time></trkpt><trkpt lat="59.4599819183" lon="31.0854077339"><time>2026-09-02T12:11:31Z</time></trkpt><trkpt lat="59.4599819183" lon="31.0854077339"><time>2026-09-02T12:11:33Z</time></trkpt><trkpt lat="59.4599819183" lon="31.0854077339"><time>2026-09-02T12:11:36Z</time></trkpt><trkpt lat="59.4599819183" lon="31.0854077339"><time>2026-09-02T12:11:38Z</time></trkpt><trkpt lat="59.4599819183" lon="31.0854077339"><time>2026-09-02T12:11:41Z</time></trkpt><trkpt lat="59.4599819183" lon="31.0854077339"><time>2026-09-02T12:11:43Z</time></trkpt><trkpt lat="59.4599819183" lon="31.0854077339"><time>2026-09-02T12:11:46Z</time></trkpt><trkpt lat="59.4599819183" lon="31.0854077339"><time>2026-09-02T12:11:48Z</time></trkpt><trkpt lat="59.4599819183" lon="31.0854077339"><time>2026-09-02T12:11:51Z</time></trkpt><trkpt lat="59.4599819183" lon="31.0854077339"><time>2026-09-02T12:11:53Z</time></trkpt><trkpt lat="59.4599819183" lon="31.0854077339"><time>2026-09-02T12:11:56Z</time></trkpt><trkpt lat="59.4599819183" lon="31.0854077339"><time>2026-09-02T12:11:58Z</time></trkpt><trkpt lat="59.4599819183" lon="31.0854077339"><time>2026-09-02T12:12:01Z</time></trkpt><trkpt lat="59.4599819183" lon="31.0854077339"><time>2026-09-02T12:12:03Z</time></trkpt><trkpt lat="59.4599819183" lon="31.0854077339"><time>2026-09-02T12:12:06Z</time></trkpt><trkpt lat="59.4599819183" lon="31.0854077339"><time>2026-09-02T12:12:08Z</time></trkpt><trkpt lat="59.4599819183" lon="31.0854077339"><time>2026-09-02T12:12:11Z</time></trkpt><trkpt lat="59.4599819183" lon="31.0854077339"><time>2026-09-02T12:12:13Z</time></trkpt><trkpt lat="59.4600033760" lon="31.0853862762"><time>2026-09-02T12:12:16Z</time></trkpt><trkpt lat="59.4600033760" lon="31.0853433609"><time>2026-09-02T12:12:18Z</time></trkpt><trkpt lat="59.4600033760" lon="31.0853433609"><time>2026-09-02T12:12:21Z</time></trkpt><trkpt lat="59.4600033760" lon="31.0853433609"><time>2026-09-02T12:12:23Z</time></trkpt><trkpt lat="59.4600033760" lon="31.0853433609"><time>2026-09-02T12:12:26Z</time></trkpt><trkpt lat="59.4599819183" lon="31.0853219032"><time>2026-09-02T12:12:28Z</time></trkpt><trkpt lat="59.4599819183" lon="31.0853219032"><time>2026-09-02T12:12:31Z</time></trkpt><trkpt lat="59.4600033760" lon="31.0852789879"><time>2026-09-02T12:12:33Z</time></trkpt><trkpt lat="59.4600248337" lon="31.0852789879"><time>2026-09-02T12:12:36Z</time></trkpt><trkpt lat="59.4600248337" lon="31.0852789879"><time>2026-09-02T12:12:38Z</time></trkpt><trkpt lat="59.4600248337" lon="31.0852789879"><time>2026-09-02T12:12:41Z</time></trkpt><trkpt lat="59.4600248337" lon="31.0852789879"><time>2026-09-02T12:12:43Z</time></trkpt><trkpt lat="59.4600248337" lon="31.0852789879"><time>2026-09-02T12:12:46Z</time></trkpt><trkpt lat="59.4600248337" lon="31.0852789879"><time>2026-09-02T12:12:48Z</time></trkpt><trkpt lat="59.4600248337" lon="31.0852789879"><time>2026-09-02T12:12:51Z</time></trkpt><trkpt lat="59.4600248337" lon="31.0852789879"><time>2026-09-02T12:12:53Z</time></trkpt><trkpt lat="59.4600248337" lon="31.0852789879"><time>2026-09-02T12:12:56Z</time></trkpt><trkpt lat="59.4600248337" lon="31.0852789879"><time>2026-09-02T12:12:58Z</time></trkpt><trkpt lat="59.4600248337" lon="31.0852789879"><time>2026-09-02T12:13:01Z</time></trkpt><trkpt lat="59.4600248337" lon="31.0852789879"><time>2026-09-02T12:13:03Z</time></trkpt><trkpt lat="59.4600248337" lon="31.0852789879"><time>2026-09-02T12:13:06Z</time></trkpt><trkpt lat="59.4600248337" lon="31.0852789879"><time>2026-09-02T12:13:08Z</time></trkpt><trkpt lat="59.4600248337" lon="31.0852789879"><time>2026-09-02T12:13:11Z</time></trkpt><trkpt lat="59.4600248337" lon="31.0852789879"><time>2026-09-02T12:13:13Z</time></trkpt><trkpt lat="59.4600248337" lon="31.0852789879"><time>2026-09-02T12:13:16Z</time></trkpt><trkpt lat="59.4600248337" lon="31.0852789879"><time>2026-09-02T12:13:18Z</time></trkpt><trkpt lat="59.4600248337" lon="31.0852789879"><time>2026-09-02T12:13:21Z</time></trkpt><trkpt lat="59.4600248337" lon="31.0852789879"><time>2026-09-02T12:13:23Z</time></trkpt><trkpt lat="59.4600248337" lon="31.0852789879"><time>2026-09-02T12:13:26Z</time></trkpt><trkpt lat="59.4600248337" lon="31.0852789879"><time>2026-09-02T12:13:28Z</time></trkpt><trkpt lat="59.4600248337" lon="31.0852789879"><time>2026-09-02T12:13:31Z</time></trkpt><trkpt lat="59.4600248337" lon="31.0852789879"><time>2026-09-02T12:13:33Z</time></trkpt><trkpt lat="59.4600248337" lon="31.0852789879"><time>2026-09-02T12:13:36Z</time></trkpt><trkpt lat="59.4600033760" lon="31.0852789879"><time>2026-09-02T12:13:38Z</time></trkpt><trkpt lat="59.4600033760" lon="31.0852789879"><time>2026-09-02T12:13:41Z</time></trkpt><trkpt lat="59.4599819183" lon="31.0852789879"><time>2026-09-02T12:13:43Z</time></trkpt><trkpt lat="59.4599819183" lon="31.0852575302"><time>2026-09-02T12:13:46Z</time></trkpt><trkpt lat="59.4599819183" lon="31.0852575302"><time>2026-09-02T12:13:48Z</time></trkpt><trkpt lat="59.4599604607" lon="31.0852575302"><time>2026-09-02T12:13:51Z</time></trkpt><trkpt lat="59.4599604607" lon="31.0852575302"><time>2026-09-02T12:13:53Z</time></trkpt><trkpt lat="59.4599390030" lon="31.0852575302"><time>2026-09-02T12:13:56Z</time></trkpt><trkpt lat="59.4598960876" lon="31.0852789879"><time>2026-09-02T12:13:58Z</time></trkpt><trkpt lat="59.4598960876" lon="31.0852789879"><time>2026-09-02T12:14:01Z</time></trkpt><trkpt lat="59.4598746300" lon="31.0852789879"><time>2026-09-02T12:14:03Z</time></trkpt><trkpt lat="59.4598531723" lon="31.0852789879"><time>2026-09-02T12:14:06Z</time></trkpt><trkpt lat="59.4598102570" lon="31.0852789879"><time>2026-09-02T12:14:08Z</time></trkpt><trkpt lat="59.4597673416" lon="31.0852575302"><time>2026-09-02T12:14:11Z</time></trkpt><trkpt lat="59.4597458839" lon="31.0852575302"><time>2026-09-02T12:14:13Z</time></trkpt><trkpt lat="59.4597458839" lon="31.0852575302"><time>2026-09-02T12:14:16Z</time></trkpt><trkpt lat="59.4597244263" lon="31.0852575302"><time>2026-09-02T12:14:18Z</time></trkpt><trkpt lat="59.4597244263" lon="31.0852575302"><time>2026-09-02T12:14:21Z</time></trkpt><trkpt lat="59.4597029686" lon="31.0852146149"><time>2026-09-02T12:14:23Z</time></trkpt><trkpt lat="59.4597029686" lon="31.0851931572"><time>2026-09-02T12:14:26Z</time></trkpt><trkpt lat="59.4597029686" lon="31.0851931572"><time>2026-09-02T12:14:28Z</time></trkpt><trkpt lat="59.4596815109" lon="31.0851716995"><time>2026-09-02T12:14:31Z</time></trkpt><trkpt lat="59.4596600533" lon="31.0851502419"><time>2026-09-02T12:14:33Z</time></trkpt><trkpt lat="59.4596600533" lon="31.0851502419"><time>2026-09-02T12:14:36Z</time></trkpt><trkpt lat="59.4596600533" lon="31.0851502419"><time>2026-09-02T12:14:38Z</time></trkpt><trkpt lat="59.4596600533" lon="31.0851502419"><time>2026-09-02T12:14:41Z</time></trkpt><trkpt lat="59.4596600533" lon="31.0851502419"><time>2026-09-02T12:14:43Z</time></trkpt><trkpt lat="59.4596600533" lon="31.0851502419"><time>2026-09-02T12:14:46Z</time></trkpt><trkpt lat="59.4596385956" lon="31.0851073265"><time>2026-09-02T12:14:48Z</time></trkpt><trkpt lat="59.4596171379" lon="31.0850858688"><time>2026-09-02T12:14:51Z</time></trkpt><trkpt lat="59.4596171379" lon="31.0850858688"><time>2026-09-02T12:14:53Z</time></trkpt><trkpt lat="59.4596171379" lon="31.0850858688"><time>2026-09-02T12:14:56Z</time></trkpt><trkpt lat="59.4595742226" lon="31.0850858688"><time>2026-09-02T12:14:58Z</time></trkpt><trkpt lat="59.4595313072" lon="31.0850429535"><time>2026-09-02T12:15:01Z</time></trkpt><trkpt lat="59.4595313072" lon="31.0850000381"><time>2026-09-02T12:15:03Z</time></trkpt><trkpt lat="59.4595098495" lon="31.0850000381"><time>2026-09-02T12:15:06Z</time></trkpt><trkpt lat="59.4594669342" lon="31.0849571228"><time>2026-09-02T12:15:08Z</time></trkpt><trkpt lat="59.4594669342" lon="31.0849571228"><time>2026-09-02T12:15:11Z</time></trkpt><trkpt lat="59.4594240189" lon="31.0848927498"><time>2026-09-02T12:15:13Z</time></trkpt><trkpt lat="59.4594025612" lon="31.0848069191"><time>2026-09-02T12:15:16Z</time></trkpt><trkpt lat="59.4593811035" lon="31.0847210884"><time>2026-09-02T12:15:18Z</time></trkpt><trkpt lat="59.4593811035" lon="31.0847210884"><time>2026-09-02T12:15:21Z</time></trkpt><trkpt lat="59.4593811035" lon="31.0846567154"><time>2026-09-02T12:15:23Z</time></trkpt><trkpt lat="59.4594025612" lon="31.0846352577"><time>2026-09-02T12:15:26Z</time></trkpt><trkpt lat="59.4594025612" lon="31.0846352577"><time>2026-09-02T12:15:28Z</time></trkpt><trkpt lat="59.4594025612" lon="31.0846352577"><time>2026-09-02T12:15:31Z</time></trkpt><trkpt lat="59.4594025612" lon="31.0845494270"><time>2026-09-02T12:15:33Z</time></trkpt><trkpt lat="59.4594025612" lon="31.0844635963"><time>2026-09-02T12:15:36Z</time></trkpt><trkpt lat="59.4594454765" lon="31.0844206810"><time>2026-09-02T12:15:38Z</time></trkpt><trkpt lat="59.4594669342" lon="31.0843992233"><time>2026-09-02T12:15:41Z</time></trkpt><trkpt lat="59.4594883919" lon="31.0843777657"><time>2026-09-02T12:15:43Z</time></trkpt><trkpt lat="59.4594883919" lon="31.0843992233"><time>2026-09-02T12:15:46Z</time></trkpt><trkpt lat="59.4594883919" lon="31.0843992233"><time>2026-09-02T12:15:48Z</time></trkpt><trkpt lat="59.4594669342" lon="31.0843777657"><time>2026-09-02T12:15:51Z</time></trkpt><trkpt lat="59.4594454765" lon="31.0843348503"><time>2026-09-02T12:15:53Z</time></trkpt><trkpt lat="59.4594454765" lon="31.0843133926"><time>2026-09-02T12:15:56Z</time></trkpt><trkpt lat="59.4594240189" lon="31.0842704773"><time>2026-09-02T12:15:58Z</time></trkpt><trkpt lat="59.4594454765" lon="31.0842704773"><time>2026-09-02T12:16:01Z</time></trkpt><trkpt lat="59.4594454765" lon="31.0842704773"><time>2026-09-02T12:16:03Z</time></trkpt><trkpt lat="59.4594454765" lon="31.0842704773"><time>2026-09-02T12:16:06Z</time></trkpt><trkpt lat="59.4594454765" lon="31.0842704773"><time>2026-09-02T12:16:08Z</time></trkpt><trkpt lat="59.4594240189" lon="31.0842704773"><time>2026-09-02T12:16:11Z</time></trkpt><trkpt lat="59.4594025612" lon="31.0842490196"><time>2026-09-02T12:16:13Z</time></trkpt><trkpt lat="59.4594025612" lon="31.0842490196"><time>2026-09-02T12:16:16Z</time></trkpt><trkpt lat="59.4594025612" lon="31.0842275620"><time>2026-09-02T12:16:18Z</time></trkpt><trkpt lat="59.4594025612" lon="31.0842275620"><time>2026-09-02T12:16:21Z</time></trkpt><trkpt lat="59.4594025612" lon="31.0842275620"><time>2026-09-02T12:16:23Z</time></trkpt><trkpt lat="59.4594025612" lon="31.0842275620"><time>2026-09-02T12:16:26Z</time></trkpt><trkpt lat="59.4593811035" lon="31.0842061043"><time>2026-09-02T12:16:28Z</time></trkpt><trkpt lat="59.4593596458" lon="31.0841631889"><time>2026-09-02T12:16:31Z</time></trkpt><trkpt lat="59.4593596458" lon="31.0840773582"><time>2026-09-02T12:16:33Z</time></trkpt><trkpt lat="59.4593381882" lon="31.0840129852"><time>2026-09-02T12:16:36Z</time></trkpt><trkpt lat="59.4593381882" lon="31.0839056969"><time>2026-09-02T12:16:38Z</time></trkpt><trkpt lat="59.4593381882" lon="31.0838627815"><time>2026-09-02T12:16:41Z</time></trkpt><trkpt lat="59.4593167305" lon="31.0838413239"><time>2026-09-02T12:16:43Z</time></trkpt><trkpt lat="59.4593167305" lon="31.0838198662"><time>2026-09-02T12:16:46Z</time></trkpt><trkpt lat="59.4593167305" lon="31.0838198662"><time>2026-09-02T12:16:48Z</time></trkpt><trkpt lat="59.4593167305" lon="31.0838198662"><time>2026-09-02T12:16:51Z</time></trkpt><trkpt lat="59.4593167305" lon="31.0838198662"><time>2026-09-02T12:16:53Z</time></trkpt><trkpt lat="59.4593167305" lon="31.0838198662"><time>2026-09-02T12:16:56Z</time></trkpt><trkpt lat="59.4593167305" lon="31.0838198662"><time>2026-09-02T12:16:58Z</time></trkpt><trkpt lat="59.4593167305" lon="31.0838198662"><time>2026-09-02T12:17:01Z</time></trkpt><trkpt lat="59.4593167305" lon="31.0838198662"><time>2026-09-02T12:17:03Z</time></trkpt><trkpt lat="59.4593167305" lon="31.0838198662"><time>2026-09-02T12:17:06Z</time></trkpt><trkpt lat="59.4592952728" lon="31.0837984085"><time>2026-09-02T12:17:08Z</time></trkpt><trkpt lat="59.4592738152" lon="31.0837554932"><time>2026-09-02T12:17:11Z</time></trkpt><trkpt lat="59.4592523575" lon="31.0836911201"><time>2026-09-02T12:17:13Z</time></trkpt><trkpt lat="59.4592523575" lon="31.0836267471"><time>2026-09-02T12:17:16Z</time></trkpt><trkpt lat="59.4592523575" lon="31.0835623741"><time>2026-09-02T12:17:18Z</time></trkpt><trkpt lat="59.4592523575" lon="31.0835623741"><time>2026-09-02T12:17:21Z</time></trkpt><trkpt lat="59.4592308998" lon="31.0835409164"><time>2026-09-02T12:17:23Z</time></trkpt><trkpt lat="59.4592308998" lon="31.0835409164"><time>2026-09-02T12:17:26Z</time></trkpt><trkpt lat="59.4592308998" lon="31.0835194588"><time>2026-09-02T12:17:28Z</time></trkpt><trkpt lat="59.4592308998" lon="31.0835409164"><time>2026-09-02T12:17:31Z</time></trkpt><trkpt lat="59.4592308998" lon="31.0835409164"><time>2026-09-02T12:17:33Z</time></trkpt><trkpt lat="59.4592308998" lon="31.0835409164"><time>2026-09-02T12:17:36Z</time></trkpt><trkpt lat="59.4592308998" lon="31.0834980011"><time>2026-09-02T12:17:38Z</time></trkpt><trkpt lat="59.4592094421" lon="31.0834550858"><time>2026-09-02T12:17:41Z</time></trkpt><trkpt lat="59.4591879845" lon="31.0833477974"><time>2026-09-02T12:17:43Z</time></trkpt><trkpt lat="59.4591879845" lon="31.0833048820"><time>2026-09-02T12:17:46Z</time></trkpt><trkpt lat="59.4591236115" lon="31.0833048820"><time>2026-09-02T12:17:48Z</time></trkpt><trkpt lat="59.4591021538" lon="31.0833048820"><time>2026-09-02T12:17:51Z</time></trkpt><trkpt lat="59.4590806961" lon="31.0833477974"><time>2026-09-02T12:17:53Z</time></trkpt><trkpt lat="59.4590592384" lon="31.0833692551"><time>2026-09-02T12:17:56Z</time></trkpt><trkpt lat="59.4590592384" lon="31.0834550858"><time>2026-09-02T12:17:58Z</time></trkpt><trkpt lat="59.4590377808" lon="31.0834765434"><time>2026-09-02T12:18:01Z</time></trkpt><trkpt lat="59.4590377808" lon="31.0834980011"><time>2026-09-02T12:18:03Z</time></trkpt><trkpt lat="59.4590377808" lon="31.0834980011"><time>2026-09-02T12:18:06Z</time></trkpt><trkpt lat="59.4590377808" lon="31.0834980011"><time>2026-09-02T12:18:08Z</time></trkpt><trkpt lat="59.4590377808" lon="31.0834980011"><time>2026-09-02T12:18:11Z</time></trkpt><trkpt lat="59.4589948654" lon="31.0834980011"><time>2026-09-02T12:18:13Z</time></trkpt><trkpt lat="59.4589734077" lon="31.0835194588"><time>2026-09-02T12:18:16Z</time></trkpt><trkpt lat="59.4589734077" lon="31.0835194588"><time>2026-09-02T12:18:18Z</time></trkpt><trkpt lat="59.4589734077" lon="31.0835194588"><time>2026-09-02T12:18:21Z</time></trkpt><trkpt lat="59.4589734077" lon="31.0835194588"><time>2026-09-02T12:18:23Z</time></trkpt><trkpt lat="59.4589734077" lon="31.0835194588"><time>2026-09-02T12:18:26Z</time></trkpt><trkpt lat="59.4589734077" lon="31.0834980011"><time>2026-09-02T12:18:28Z</time></trkpt><trkpt lat="59.4589734077" lon="31.0834980011"><time>2026-09-02T12:18:31Z</time></trkpt><trkpt lat="59.4589734077" lon="31.0834980011"><time>2026-09-02T12:18:33Z</time></trkpt><trkpt lat="59.4589734077" lon="31.0834980011"><time>2026-09-02T12:18:36Z</time></trkpt><trkpt lat="59.4589734077" lon="31.0834980011"><time>2026-09-02T12:18:38Z</time></trkpt><trkpt lat="59.4589734077" lon="31.0834980011"><time>2026-09-02T12:18:41Z</time></trkpt><trkpt lat="59.4589734077" lon="31.0834980011"><time>2026-09-02T12:18:43Z</time></trkpt><trkpt lat="59.4589734077" lon="31.0834980011"><time>2026-09-02T12:18:46Z</time></trkpt><trkpt lat="59.4589734077" lon="31.0834980011"><time>2026-09-02T12:18:48Z</time></trkpt><trkpt lat="59.4589734077" lon="31.0834980011"><time>2026-09-02T12:18:51Z</time></trkpt><trkpt lat="59.4589734077" lon="31.0834980011"><time>2026-09-02T12:18:53Z</time></trkpt><trkpt lat="59.4589734077" lon="31.0834980011"><time>2026-09-02T12:18:56Z</time></trkpt><trkpt lat="59.4589734077" lon="31.0834980011"><time>2026-09-02T12:18:58Z</time></trkpt><trkpt lat="59.4589734077" lon="31.0834980011"><time>2026-09-02T12:19:01Z</time></trkpt><trkpt lat="59.4589734077" lon="31.0834980011"><time>2026-09-02T12:19:03Z</time></trkpt><trkpt lat="59.4589734077" lon="31.0834980011"><time>2026-09-02T12:19:06Z</time></trkpt><trkpt lat="59.4589734077" lon="31.0834980011"><time>2026-09-02T12:19:08Z</time></trkpt><trkpt lat="59.4589734077" lon="31.0834980011"><time>2026-09-02T12:19:11Z</time></trkpt><trkpt lat="59.4589734077" lon="31.0834980011"><time>2026-09-02T12:19:13Z</time></trkpt><trkpt lat="59.4589734077" lon="31.0834980011"><time>2026-09-02T12:19:18Z</time></trkpt><trkpt lat="59.4589734077" lon="31.0834980011"><time>2026-09-02T12:19:21Z</time></trkpt><trkpt lat="59.4589734077" lon="31.0834980011"><time>2026-09-02T12:19:23Z</time></trkpt><trkpt lat="59.4589734077" lon="31.0834980011"><time>2026-09-02T12:19:26Z</time></trkpt><trkpt lat="59.4589734077" lon="31.0834980011"><time>2026-09-02T12:19:28Z</time></trkpt><trkpt lat="59.4589734077" lon="31.0834980011"><time>2026-09-02T12:19:31Z</time></trkpt><trkpt lat="59.4589734077" lon="31.0834980011"><time>2026-09-02T12:19:33Z</time></trkpt><trkpt lat="59.4589734077" lon="31.0834980011"><time>2026-09-02T12:19:36Z</time></trkpt><trkpt lat="59.4589734077" lon="31.0834980011"><time>2026-09-02T12:19:38Z</time></trkpt><trkpt lat="59.4589734077" lon="31.0834980011"><time>2026-09-02T12:19:41Z</time></trkpt><trkpt lat="59.4589734077" lon="31.0834980011"><time>2026-09-02T12:19:43Z</time></trkpt><trkpt lat="59.4589734077" lon="31.0834980011"><time>2026-09-02T12:19:46Z</time></trkpt><trkpt lat="59.4589519501" lon="31.0834980011"><time>2026-09-02T12:19:48Z</time></trkpt><trkpt lat="59.4589519501" lon="31.0834980011"><time>2026-09-02T12:19:51Z</time></trkpt><trkpt lat="59.4589519501" lon="31.0834980011"><time>2026-09-02T12:19:53Z</time></trkpt><trkpt lat="59.4589519501" lon="31.0834980011"><time>2026-09-02T12:19:56Z</time></trkpt><trkpt lat="59.4589519501" lon="31.0834980011"><time>2026-09-02T12:19:58Z</time></trkpt><trkpt lat="59.4589519501" lon="31.0834980011"><time>2026-09-02T12:20:01Z</time></trkpt><trkpt lat="59.4589519501" lon="31.0834980011"><time>2026-09-02T12:20:03Z</time></trkpt><trkpt lat="59.4589519501" lon="31.0834980011"><time>2026-09-02T12:20:06Z</time></trkpt><trkpt lat="59.4589519501" lon="31.0834980011"><time>2026-09-02T12:20:08Z</time></trkpt><trkpt lat="59.4589519501" lon="31.0834980011"><time>2026-09-02T12:20:13Z</time></trkpt><trkpt lat="59.4589519501" lon="31.0834980011"><time>2026-09-02T12:20:16Z</time></trkpt><trkpt lat="59.4589519501" lon="31.0834980011"><time>2026-09-02T12:20:18Z</time></trkpt><trkpt lat="59.4589519501" lon="31.0834980011"><time>2026-09-02T12:20:21Z</time></trkpt><trkpt lat="59.4589519501" lon="31.0834980011"><time>2026-09-02T12:20:23Z</time></trkpt><trkpt lat="59.4589519501" lon="31.0834980011"><time>2026-09-02T12:20:26Z</time></trkpt><trkpt lat="59.4589519501" lon="31.0834980011"><time>2026-09-02T12:20:28Z</time></trkpt><trkpt lat="59.4589519501" lon="31.0834980011"><time>2026-09-02T12:20:31Z</time></trkpt><trkpt lat="59.4589519501" lon="31.0834980011"><time>2026-09-02T12:20:33Z</time></trkpt><trkpt lat="59.4589519501" lon="31.0834980011"><time>2026-09-02T12:20:36Z</time></trkpt><trkpt lat="59.4589519501" lon="31.0834980011"><time>2026-09-02T12:20:38Z</time></trkpt><trkpt lat="59.4589519501" lon="31.0834980011"><time>2026-09-02T12:20:41Z</time></trkpt><trkpt lat="59.4589519501" lon="31.0834980011"><time>2026-09-02T12:20:43Z</time></trkpt><trkpt lat="59.4589519501" lon="31.0834980011"><time>2026-09-02T12:20:46Z</time></trkpt><trkpt lat="59.4589519501" lon="31.0834980011"><time>2026-09-02T12:20:48Z</time></trkpt><trkpt lat="59.4589519501" lon="31.0834980011"><time>2026-09-02T12:20:51Z</time></trkpt><trkpt lat="59.4589519501" lon="31.0834980011"><time>2026-09-02T12:20:53Z</time></trkpt><trkpt lat="59.4589519501" lon="31.0834980011"><time>2026-09-02T12:20:56Z</time></trkpt><trkpt lat="59.4589519501" lon="31.0834980011"><time>2026-09-02T12:20:58Z</time></trkpt><trkpt lat="59.4589734077" lon="31.0834765434"><time>2026-09-02T12:21:01Z</time></trkpt><trkpt lat="59.4589734077" lon="31.0834550858"><time>2026-09-02T12:21:03Z</time></trkpt><trkpt lat="59.4589734077" lon="31.0834121704"><time>2026-09-02T12:21:06Z</time></trkpt><trkpt lat="59.4589734077" lon="31.0833907127"><time>2026-09-02T12:21:08Z</time></trkpt><trkpt lat="59.4589734077" lon="31.0833263397"><time>2026-09-02T12:21:11Z</time></trkpt><trkpt lat="59.4589734077" lon="31.0833048820"><time>2026-09-02T12:21:13Z</time></trkpt><trkpt lat="59.4590163231" lon="31.0832405090"><time>2026-09-02T12:21:16Z</time></trkpt><trkpt lat="59.4591021538" lon="31.0831117630"><time>2026-09-02T12:21:18Z</time></trkpt><trkpt lat="59.4591021538" lon="31.0831117630"><time>2026-09-02T12:21:21Z</time></trkpt><trkpt lat="59.4591021538" lon="31.0831332207"><time>2026-09-02T12:21:23Z</time></trkpt><trkpt lat="59.4591021538" lon="31.0831332207"><time>2026-09-02T12:21:26Z</time></trkpt><trkpt lat="59.4591021538" lon="31.0831332207"><time>2026-09-02T12:21:28Z</time></trkpt><trkpt lat="59.4591021538" lon="31.0831332207"><time>2026-09-02T12:21:31Z</time></trkpt><trkpt lat="59.4591021538" lon="31.0831332207"><time>2026-09-02T12:21:33Z</time></trkpt><trkpt lat="59.4591021538" lon="31.0831332207"><time>2026-09-02T12:21:36Z</time></trkpt><trkpt lat="59.4591021538" lon="31.0831332207"><time>2026-09-02T12:21:38Z</time></trkpt><trkpt lat="59.4591021538" lon="31.0831332207"><time>2026-09-02T12:21:41Z</time></trkpt><trkpt lat="59.4591236115" lon="31.0831117630"><time>2026-09-02T12:21:43Z</time></trkpt><trkpt lat="59.4591236115" lon="31.0831117630"><time>2026-09-02T12:21:46Z</time></trkpt><trkpt lat="59.4591236115" lon="31.0831117630"><time>2026-09-02T12:21:48Z</time></trkpt><trkpt lat="59.4591236115" lon="31.0831117630"><time>2026-09-02T12:21:51Z</time></trkpt><trkpt lat="59.4591021538" lon="31.0830473900"><time>2026-09-02T12:21:53Z</time></trkpt><trkpt lat="59.4591021538" lon="31.0830259323"><time>2026-09-02T12:21:56Z</time></trkpt><trkpt lat="59.4591021538" lon="31.0830044746"><time>2026-09-02T12:21:58Z</time></trkpt><trkpt lat="59.4591236115" lon="31.0829830170"><time>2026-09-02T12:22:01Z</time></trkpt><trkpt lat="59.4591236115" lon="31.0829615593"><time>2026-09-02T12:22:03Z</time></trkpt><trkpt lat="59.4591450691" lon="31.0829186440"><time>2026-09-02T12:22:06Z</time></trkpt><trkpt lat="59.4591879845" lon="31.0828757286"><time>2026-09-02T12:22:08Z</time></trkpt><trkpt lat="59.4592094421" lon="31.0828328133"><time>2026-09-02T12:22:11Z</time></trkpt><trkpt lat="59.4592308998" lon="31.0827898979"><time>2026-09-02T12:22:13Z</time></trkpt><trkpt lat="59.4592308998" lon="31.0827469826"><time>2026-09-02T12:22:16Z</time></trkpt><trkpt lat="59.4592523575" lon="31.0827255249"><time>2026-09-02T12:22:18Z</time></trkpt><trkpt lat="59.4592738152" lon="31.0827469826"><time>2026-09-02T12:22:21Z</time></trkpt><trkpt lat="59.4592738152" lon="31.0827469826"><time>2026-09-02T12:22:23Z</time></trkpt><trkpt lat="59.4592738152" lon="31.0827469826"><time>2026-09-02T12:22:26Z</time></trkpt><trkpt lat="59.4592738152" lon="31.0827469826"><time>2026-09-02T12:22:28Z</time></trkpt><trkpt lat="59.4592738152" lon="31.0827469826"><time>2026-09-02T12:22:31Z</time></trkpt><trkpt lat="59.4592738152" lon="31.0827469826"><time>2026-09-02T12:22:33Z</time></trkpt><trkpt lat="59.4592738152" lon="31.0827469826"><time>2026-09-02T12:22:36Z</time></trkpt><trkpt lat="59.4592738152" lon="31.0827040672"><time>2026-09-02T12:22:38Z</time></trkpt><trkpt lat="59.4592738152" lon="31.0827040672"><time>2026-09-02T12:22:41Z</time></trkpt><trkpt lat="59.4592952728" lon="31.0826396942"><time>2026-09-02T12:22:43Z</time></trkpt><trkpt lat="59.4592952728" lon="31.0825967789"><time>2026-09-02T12:22:46Z</time></trkpt><trkpt lat="59.4592952728" lon="31.0825753212"><time>2026-09-02T12:22:48Z</time></trkpt><trkpt lat="59.4592952728" lon="31.0825753212"><time>2026-09-02T12:22:51Z</time></trkpt><trkpt lat="59.4592738152" lon="31.0826182365"><time>2026-09-02T12:22:53Z</time></trkpt><trkpt lat="59.4592738152" lon="31.0826182365"><time>2026-09-02T12:22:56Z</time></trkpt><trkpt lat="59.4592738152" lon="31.0826182365"><time>2026-09-02T12:22:58Z</time></trkpt><trkpt lat="59.4592738152" lon="31.0826182365"><time>2026-09-02T12:23:01Z</time></trkpt><trkpt lat="59.4592738152" lon="31.0826396942"><time>2026-09-02T12:23:03Z</time></trkpt><trkpt lat="59.4592952728" lon="31.0826611519"><time>2026-09-02T12:23:06Z</time></trkpt><trkpt lat="59.4592952728" lon="31.0826611519"><time>2026-09-02T12:23:08Z</time></trkpt><trkpt lat="59.4592952728" lon="31.0826611519"><time>2026-09-02T12:23:11Z</time></trkpt><trkpt lat="59.4592952728" lon="31.0826611519"><time>2026-09-02T12:23:13Z</time></trkpt><trkpt lat="59.4592952728" lon="31.0826611519"><time>2026-09-02T12:23:16Z</time></trkpt><trkpt lat="59.4592952728" lon="31.0826396942"><time>2026-09-02T12:23:18Z</time></trkpt><trkpt lat="59.4592952728" lon="31.0826396942"><time>2026-09-02T12:23:21Z</time></trkpt><trkpt lat="59.4592952728" lon="31.0826182365"><time>2026-09-02T12:23:23Z</time></trkpt><trkpt lat="59.4592952728" lon="31.0825753212"><time>2026-09-02T12:23:26Z</time></trkpt><trkpt lat="59.4592952728" lon="31.0825538635"><time>2026-09-02T12:23:28Z</time></trkpt><trkpt lat="59.4593167305" lon="31.0825324059"><time>2026-09-02T12:23:31Z</time></trkpt><trkpt lat="59.4593167305" lon="31.0824894905"><time>2026-09-02T12:23:33Z</time></trkpt><trkpt lat="59.4593381882" lon="31.0824251175"><time>2026-09-02T12:23:36Z</time></trkpt><trkpt lat="59.4593811035" lon="31.0824036598"><time>2026-09-02T12:23:38Z</time></trkpt><trkpt lat="59.4593811035" lon="31.0823822021"><time>2026-09-02T12:23:41Z</time></trkpt><trkpt lat="59.4594240189" lon="31.0824465752"><time>2026-09-02T12:23:43Z</time></trkpt><trkpt lat="59.4594454765" lon="31.0825324059"><time>2026-09-02T12:23:46Z</time></trkpt><trkpt lat="59.4594454765" lon="31.0826182365"><time>2026-09-02T12:23:48Z</time></trkpt><trkpt lat="59.4594240189" lon="31.0826396942"><time>2026-09-02T12:23:51Z</time></trkpt><trkpt lat="59.4593811035" lon="31.0825967789"><time>2026-09-02T12:23:53Z</time></trkpt><trkpt lat="59.4593596458" lon="31.0825967789"><time>2026-09-02T12:23:56Z</time></trkpt><trkpt lat="59.4593167305" lon="31.0825967789"><time>2026-09-02T12:23:58Z</time></trkpt><trkpt lat="59.4592952728" lon="31.0826182365"><time>2026-09-02T12:24:01Z</time></trkpt><trkpt lat="59.4592952728" lon="31.0826182365"><time>2026-09-02T12:24:03Z</time></trkpt><trkpt lat="59.4593167305" lon="31.0826182365"><time>2026-09-02T12:24:06Z</time></trkpt><trkpt lat="59.4592952728" lon="31.0826396942"><time>2026-09-02T12:24:08Z</time></trkpt><trkpt lat="59.4592952728" lon="31.0826611519"><time>2026-09-02T12:24:11Z</time></trkpt><trkpt lat="59.4593167305" lon="31.0827469826"><time>2026-09-02T12:24:13Z</time></trkpt><trkpt lat="59.4592952728" lon="31.0827684402"><time>2026-09-02T12:24:16Z</time></trkpt><trkpt lat="59.4592952728" lon="31.0827255249"><time>2026-09-02T12:24:18Z</time></trkpt><trkpt lat="59.4592952728" lon="31.0827040672"><time>2026-09-02T12:24:21Z</time></trkpt><trkpt lat="59.4592738152" lon="31.0826396942"><time>2026-09-02T12:24:23Z</time></trkpt><trkpt lat="59.4592738152" lon="31.0826396942"><time>2026-09-02T12:24:26Z</time></trkpt><trkpt lat="59.4592523575" lon="31.0826611519"><time>2026-09-02T12:24:28Z</time></trkpt><trkpt lat="59.4592738152" lon="31.0826826096"><time>2026-09-02T12:24:31Z</time></trkpt><trkpt lat="59.4592952728" lon="31.0827040672"><time>2026-09-02T12:24:33Z</time></trkpt><trkpt lat="59.4592738152" lon="31.0827469826"><time>2026-09-02T12:24:38Z</time></trkpt><trkpt lat="59.4592952728" lon="31.0827684402"><time>2026-09-02T12:24:41Z</time></trkpt><trkpt lat="59.4593167305" lon="31.0828328133"><time>2026-09-02T12:24:43Z</time></trkpt><trkpt lat="59.4593167305" lon="31.0828542709"><time>2026-09-02T12:24:46Z</time></trkpt><trkpt lat="59.4593167305" lon="31.0828328133"><time>2026-09-02T12:24:48Z</time></trkpt><trkpt lat="59.4593596458" lon="31.0828113556"><time>2026-09-02T12:24:51Z</time></trkpt><trkpt lat="59.4594025612" lon="31.0827040672"><time>2026-09-02T12:24:53Z</time></trkpt><trkpt lat="59.4594025612" lon="31.0825967789"><time>2026-09-02T12:24:56Z</time></trkpt><trkpt lat="59.4594025612" lon="31.0825109482"><time>2026-09-02T12:24:58Z</time></trkpt><trkpt lat="59.4593811035" lon="31.0825324059"><time>2026-09-02T12:25:01Z</time></trkpt><trkpt lat="59.4593596458" lon="31.0825967789"><time>2026-09-02T12:25:03Z</time></trkpt><trkpt lat="59.4593167305" lon="31.0825967789"><time>2026-09-02T12:25:06Z</time></trkpt><trkpt lat="59.4592952728" lon="31.0826611519"><time>2026-09-02T12:25:08Z</time></trkpt><trkpt lat="59.4593167305" lon="31.0827040672"><time>2026-09-02T12:25:11Z</time></trkpt><trkpt lat="59.4593167305" lon="31.0827469826"><time>2026-09-02T12:25:13Z</time></trkpt><trkpt lat="59.4593167305" lon="31.0827469826"><time>2026-09-02T12:25:16Z</time></trkpt><trkpt lat="59.4593167305" lon="31.0827469826"><time>2026-09-02T12:25:18Z</time></trkpt><trkpt lat="59.4593167305" lon="31.0827469826"><time>2026-09-02T12:25:21Z</time></trkpt><trkpt lat="59.4593167305" lon="31.0827469826"><time>2026-09-02T12:25:23Z</time></trkpt><trkpt lat="59.4593167305" lon="31.0827469826"><time>2026-09-02T12:25:26Z</time></trkpt><trkpt lat="59.4593167305" lon="31.0827469826"><time>2026-09-02T12:25:28Z</time></trkpt><trkpt lat="59.4593167305" lon="31.0827469826"><time>2026-09-02T12:25:31Z</time></trkpt><trkpt lat="59.4593167305" lon="31.0827469826"><time>2026-09-02T12:25:33Z</time></trkpt><trkpt lat="59.4593167305" lon="31.0827255249"><time>2026-09-02T12:25:36Z</time></trkpt><trkpt lat="59.4592952728" lon="31.0827255249"><time>2026-09-02T12:25:41Z</time></trkpt><trkpt lat="59.4592952728" lon="31.0827255249"><time>2026-09-02T12:25:43Z</time></trkpt><trkpt lat="59.4592952728" lon="31.0827255249"><time>2026-09-02T12:25:46Z</time></trkpt><trkpt lat="59.4592952728" lon="31.0827255249"><time>2026-09-02T12:25:48Z</time></trkpt><trkpt lat="59.4592952728" lon="31.0827255249"><time>2026-09-02T12:25:51Z</time></trkpt><trkpt lat="59.4592952728" lon="31.0827255249"><time>2026-09-02T12:25:53Z</time></trkpt><trkpt lat="59.4592952728" lon="31.0827255249"><time>2026-09-02T12:25:56Z</time></trkpt><trkpt lat="59.4592952728" lon="31.0827255249"><time>2026-09-02T12:25:58Z</time></trkpt><trkpt lat="59.4592952728" lon="31.0827040672"><time>2026-09-02T12:26:01Z</time></trkpt><trkpt lat="59.4592952728" lon="31.0827040672"><time>2026-09-02T12:26:03Z</time></trkpt><trkpt lat="59.4592952728" lon="31.0826826096"><time>2026-09-02T12:26:06Z</time></trkpt><trkpt lat="59.4592952728" lon="31.0826611519"><time>2026-09-02T12:26:08Z</time></trkpt><trkpt lat="59.4593167305" lon="31.0826396942"><time>2026-09-02T12:26:11Z</time></trkpt><trkpt lat="59.4593167305" lon="31.0826396942"><time>2026-09-02T12:26:13Z</time></trkpt><trkpt lat="59.4593167305" lon="31.0826396942"><time>2026-09-02T12:26:16Z</time></trkpt><trkpt lat="59.4593167305" lon="31.0826396942"><time>2026-09-02T12:26:18Z</time></trkpt><trkpt lat="59.4593167305" lon="31.0825753212"><time>2026-09-02T12:26:21Z</time></trkpt><trkpt lat="59.4593167305" lon="31.0825324059"><time>2026-09-02T12:26:23Z</time></trkpt><trkpt lat="59.4593381882" lon="31.0825109482"><time>2026-09-02T12:26:26Z</time></trkpt><trkpt lat="59.4593381882" lon="31.0825109482"><time>2026-09-02T12:26:28Z</time></trkpt><trkpt lat="59.4593167305" lon="31.0825109482"><time>2026-09-02T12:26:31Z</time></trkpt><trkpt lat="59.4593381882" lon="31.0824680328"><time>2026-09-02T12:26:36Z</time></trkpt><trkpt lat="59.4593596458" lon="31.0824036598"><time>2026-09-02T12:26:38Z</time></trkpt><trkpt lat="59.4594025612" lon="31.0823392868"><time>2026-09-02T12:26:41Z</time></trkpt><trkpt lat="59.4594454765" lon="31.0823178291"><time>2026-09-02T12:26:43Z</time></trkpt><trkpt lat="59.4594669342" lon="31.0822749138"><time>2026-09-02T12:26:46Z</time></trkpt><trkpt lat="59.4595313072" lon="31.0822105408"><time>2026-09-02T12:26:48Z</time></trkpt><trkpt lat="59.4595313072" lon="31.0821247101"><time>2026-09-02T12:26:51Z</time></trkpt><trkpt lat="59.4595313072" lon="31.0820817947"><time>2026-09-02T12:26:53Z</time></trkpt><trkpt lat="59.4595313072" lon="31.0820817947"><time>2026-09-02T12:26:56Z</time></trkpt><trkpt lat="59.4595742226" lon="31.0821461678"><time>2026-09-02T12:26:58Z</time></trkpt><trkpt lat="59.4595527649" lon="31.0821890831"><time>2026-09-02T12:27:01Z</time></trkpt><trkpt lat="59.4595742226" lon="31.0822105408"><time>2026-09-02T12:27:03Z</time></trkpt><trkpt lat="59.4595527649" lon="31.0822534561"><time>2026-09-02T12:27:06Z</time></trkpt><trkpt lat="59.4595527649" lon="31.0822749138"><time>2026-09-02T12:27:08Z</time></trkpt><trkpt lat="59.4595313072" lon="31.0822749138"><time>2026-09-02T12:27:11Z</time></trkpt><trkpt lat="59.4595098495" lon="31.0822749138"><time>2026-09-02T12:27:13Z</time></trkpt><trkpt lat="59.4594883919" lon="31.0822749138"><time>2026-09-02T12:27:16Z</time></trkpt><trkpt lat="59.4594669342" lon="31.0823178291"><time>2026-09-02T12:27:18Z</time></trkpt><trkpt lat="59.4594669342" lon="31.0823178291"><time>2026-09-02T12:27:21Z</time></trkpt><trkpt lat="59.4594454765" lon="31.0823178291"><time>2026-09-02T12:27:23Z</time></trkpt><trkpt lat="59.4594454765" lon="31.0823392868"><time>2026-09-02T12:27:26Z</time></trkpt><trkpt lat="59.4594454765" lon="31.0823392868"><time>2026-09-02T12:27:28Z</time></trkpt><trkpt lat="59.4594454765" lon="31.0823392868"><time>2026-09-02T12:27:31Z</time></trkpt><trkpt lat="59.4594454765" lon="31.0823392868"><time>2026-09-02T12:27:33Z</time></trkpt><trkpt lat="59.4594454765" lon="31.0823392868"><time>2026-09-02T12:27:36Z</time></trkpt><trkpt lat="59.4594454765" lon="31.0823392868"><time>2026-09-02T12:27:38Z</time></trkpt><trkpt lat="59.4594454765" lon="31.0823392868"><time>2026-09-02T12:27:41Z</time></trkpt><trkpt lat="59.4594454765" lon="31.0823392868"><time>2026-09-02T12:27:43Z</time></trkpt><trkpt lat="59.4594454765" lon="31.0823392868"><time>2026-09-02T12:27:46Z</time></trkpt><trkpt lat="59.4594454765" lon="31.0823392868"><time>2026-09-02T12:27:48Z</time></trkpt><trkpt lat="59.4594454765" lon="31.0823392868"><time>2026-09-02T12:27:51Z</time></trkpt><trkpt lat="59.4594454765" lon="31.0823392868"><time>2026-09-02T12:27:53Z</time></trkpt><trkpt lat="59.4594454765" lon="31.0823392868"><time>2026-09-02T12:27:56Z</time></trkpt><trkpt lat="59.4594240189" lon="31.0823822021"><time>2026-09-02T12:27:58Z</time></trkpt><trkpt lat="59.4594240189" lon="31.0823822021"><time>2026-09-02T12:28:01Z</time></trkpt><trkpt lat="59.4594240189" lon="31.0823822021"><time>2026-09-02T12:28:03Z</time></trkpt><trkpt lat="59.4594240189" lon="31.0823822021"><time>2026-09-02T12:28:06Z</time></trkpt><trkpt lat="59.4594240189" lon="31.0823822021"><time>2026-09-02T12:28:08Z</time></trkpt><trkpt lat="59.4594240189" lon="31.0823822021"><time>2026-09-02T12:28:11Z</time></trkpt><trkpt lat="59.4594240189" lon="31.0823822021"><time>2026-09-02T12:28:13Z</time></trkpt><trkpt lat="59.4594240189" lon="31.0824036598"><time>2026-09-02T12:28:16Z</time></trkpt><trkpt lat="59.4594025612" lon="31.0823822021"><time>2026-09-02T12:28:18Z</time></trkpt><trkpt lat="59.4594025612" lon="31.0823822021"><time>2026-09-02T12:28:21Z</time></trkpt><trkpt lat="59.4594025612" lon="31.0823822021"><time>2026-09-02T12:28:23Z</time></trkpt><trkpt lat="59.4594025612" lon="31.0824036598"><time>2026-09-02T12:28:26Z</time></trkpt><trkpt lat="59.4593811035" lon="31.0824251175"><time>2026-09-02T12:28:28Z</time></trkpt><trkpt lat="59.4593811035" lon="31.0824251175"><time>2026-09-02T12:28:31Z</time></trkpt><trkpt lat="59.4593811035" lon="31.0824251175"><time>2026-09-02T12:28:33Z</time></trkpt><trkpt lat="59.4593811035" lon="31.0824251175"><time>2026-09-02T12:28:36Z</time></trkpt><trkpt lat="59.4594025612" lon="31.0824465752"><time>2026-09-02T12:28:38Z</time></trkpt><trkpt lat="59.4594240189" lon="31.0824465752"><time>2026-09-02T12:28:41Z</time></trkpt><trkpt lat="59.4594454765" lon="31.0824680328"><time>2026-09-02T12:28:43Z</time></trkpt><trkpt lat="59.4594454765" lon="31.0824894905"><time>2026-09-02T12:28:46Z</time></trkpt><trkpt lat="59.4594669342" lon="31.0825109482"><time>2026-09-02T12:28:48Z</time></trkpt><trkpt lat="59.4594669342" lon="31.0825324059"><time>2026-09-02T12:28:51Z</time></trkpt><trkpt lat="59.4594669342" lon="31.0825324059"><time>2026-09-02T12:28:53Z</time></trkpt><trkpt lat="59.4594883919" lon="31.0825753212"><time>2026-09-02T12:28:56Z</time></trkpt><trkpt lat="59.4595098495" lon="31.0825753212"><time>2026-09-02T12:28:58Z</time></trkpt><trkpt lat="59.4595313072" lon="31.0825967789"><time>2026-09-02T12:29:01Z</time></trkpt><trkpt lat="59.4595527649" lon="31.0826396942"><time>2026-09-02T12:29:03Z</time></trkpt><trkpt lat="59.4595742226" lon="31.0826826096"><time>2026-09-02T12:29:06Z</time></trkpt><trkpt lat="59.4595956802" lon="31.0827469826"><time>2026-09-02T12:29:08Z</time></trkpt><trkpt lat="59.4595956802" lon="31.0828113556"><time>2026-09-02T12:29:11Z</time></trkpt><trkpt lat="59.4596171379" lon="31.0828113556"><time>2026-09-02T12:29:13Z</time></trkpt><trkpt lat="59.4596385956" lon="31.0828113556"><time>2026-09-02T12:29:16Z</time></trkpt><trkpt lat="59.4596385956" lon="31.0828113556"><time>2026-09-02T12:29:18Z</time></trkpt><trkpt lat="59.4596600533" lon="31.0828113556"><time>2026-09-02T12:29:21Z</time></trkpt><trkpt lat="59.4596815109" lon="31.0827898979"><time>2026-09-02T12:29:23Z</time></trkpt><trkpt lat="59.4596815109" lon="31.0827684402"><time>2026-09-02T12:29:26Z</time></trkpt><trkpt lat="59.4597029686" lon="31.0827684402"><time>2026-09-02T12:29:28Z</time></trkpt><trkpt lat="59.4597029686" lon="31.0827684402"><time>2026-09-02T12:29:31Z</time></trkpt><trkpt lat="59.4596815109" lon="31.0827684402"><time>2026-09-02T12:29:33Z</time></trkpt><trkpt lat="59.4596815109" lon="31.0827898979"><time>2026-09-02T12:29:36Z</time></trkpt><trkpt lat="59.4596815109" lon="31.0828328133"><time>2026-09-02T12:29:38Z</time></trkpt><trkpt lat="59.4596815109" lon="31.0828542709"><time>2026-09-02T12:29:41Z</time></trkpt><trkpt lat="59.4596815109" lon="31.0828757286"><time>2026-09-02T12:29:43Z</time></trkpt><trkpt lat="59.4596815109" lon="31.0828757286"><time>2026-09-02T12:29:46Z</time></trkpt><trkpt lat="59.4597029686" lon="31.0828757286"><time>2026-09-02T12:29:48Z</time></trkpt><trkpt lat="59.4597244263" lon="31.0828971863"><time>2026-09-02T12:29:51Z</time></trkpt><trkpt lat="59.4597244263" lon="31.0829186440"><time>2026-09-02T12:29:56Z</time></trkpt><trkpt lat="59.4597458839" lon="31.0829401016"><time>2026-09-02T12:29:58Z</time></trkpt><trkpt lat="59.4597673416" lon="31.0829615593"><time>2026-09-02T12:30:03Z</time></trkpt><trkpt lat="59.4597887993" lon="31.0829830170"><time>2026-09-02T12:30:06Z</time></trkpt><trkpt lat="59.4598317146" lon="31.0831117630"><time>2026-09-02T12:30:08Z</time></trkpt><trkpt lat="59.4598531723" lon="31.0831546783"><time>2026-09-02T12:30:11Z</time></trkpt><trkpt lat="59.4598531723" lon="31.0831761360"><time>2026-09-02T12:30:13Z</time></trkpt><trkpt lat="59.4598531723" lon="31.0831761360"><time>2026-09-02T12:30:16Z</time></trkpt><trkpt lat="59.4598531723" lon="31.0831975937"><time>2026-09-02T12:30:18Z</time></trkpt><trkpt lat="59.4598317146" lon="31.0831975937"><time>2026-09-02T12:30:21Z</time></trkpt><trkpt lat="59.4598102570" lon="31.0831761360"><time>2026-09-02T12:30:23Z</time></trkpt><trkpt lat="59.4598102570" lon="31.0831975937"><time>2026-09-02T12:30:26Z</time></trkpt><trkpt lat="59.4598102570" lon="31.0831975937"><time>2026-09-02T12:30:28Z</time></trkpt><trkpt lat="59.4598102570" lon="31.0832190514"><time>2026-09-02T12:30:31Z</time></trkpt><trkpt lat="59.4598317146" lon="31.0832405090"><time>2026-09-02T12:30:33Z</time></trkpt><trkpt lat="59.4598317146" lon="31.0832405090"><time>2026-09-02T12:30:36Z</time></trkpt><trkpt lat="59.4598317146" lon="31.0832405090"><time>2026-09-02T12:30:38Z</time></trkpt><trkpt lat="59.4598317146" lon="31.0832405090"><time>2026-09-02T12:30:41Z</time></trkpt><trkpt lat="59.4598746300" lon="31.0832619667"><time>2026-09-02T12:30:43Z</time></trkpt><trkpt lat="59.4598746300" lon="31.0832619667"><time>2026-09-02T12:30:46Z</time></trkpt><trkpt lat="59.4598746300" lon="31.0832619667"><time>2026-09-02T12:30:48Z</time></trkpt><trkpt lat="59.4598746300" lon="31.0832619667"><time>2026-09-02T12:30:51Z</time></trkpt><trkpt lat="59.4598746300" lon="31.0832834244"><time>2026-09-02T12:30:53Z</time></trkpt><trkpt lat="59.4598746300" lon="31.0832834244"><time>2026-09-02T12:30:56Z</time></trkpt><trkpt lat="59.4598960876" lon="31.0833263397"><time>2026-09-02T12:30:58Z</time></trkpt><trkpt lat="59.4599175453" lon="31.0833477974"><time>2026-09-02T12:31:01Z</time></trkpt><trkpt lat="59.4599175453" lon="31.0833477974"><time>2026-09-02T12:31:03Z</time></trkpt><trkpt lat="59.4599390030" lon="31.0833692551"><time>2026-09-02T12:31:06Z</time></trkpt><trkpt lat="59.4599390030" lon="31.0833477974"><time>2026-09-02T12:31:08Z</time></trkpt><trkpt lat="59.4599390030" lon="31.0833477974"><time>2026-09-02T12:31:11Z</time></trkpt><trkpt lat="59.4599390030" lon="31.0833477974"><time>2026-09-02T12:31:13Z</time></trkpt><trkpt lat="59.4599390030" lon="31.0833477974"><time>2026-09-02T12:31:16Z</time></trkpt><trkpt lat="59.4599604607" lon="31.0833692551"><time>2026-09-02T12:31:18Z</time></trkpt><trkpt lat="59.4599819183" lon="31.0834121704"><time>2026-09-02T12:31:21Z</time></trkpt><trkpt lat="59.4600462914" lon="31.0834765434"><time>2026-09-02T12:31:23Z</time></trkpt><trkpt lat="59.4600677490" lon="31.0834980011"><time>2026-09-02T12:31:26Z</time></trkpt><trkpt lat="59.4601106644" lon="31.0835194588"><time>2026-09-02T12:31:28Z</time></trkpt><trkpt lat="59.4601321220" lon="31.0835409164"><time>2026-09-02T12:31:31Z</time></trkpt><trkpt lat="59.4601535797" lon="31.0835838318"><time>2026-09-02T12:31:33Z</time></trkpt><trkpt lat="59.4601964951" lon="31.0836052895"><time>2026-09-02T12:31:36Z</time></trkpt><trkpt lat="59.4602394104" lon="31.0836267471"><time>2026-09-02T12:31:38Z</time></trkpt><trkpt lat="59.4602394104" lon="31.0836267471"><time>2026-09-02T12:31:41Z</time></trkpt><trkpt lat="59.4602394104" lon="31.0836267471"><time>2026-09-02T12:31:43Z</time></trkpt><trkpt lat="59.4602394104" lon="31.0836267471"><time>2026-09-02T12:31:46Z</time></trkpt><trkpt lat="59.4602608681" lon="31.0836267471"><time>2026-09-02T12:31:48Z</time></trkpt><trkpt lat="59.4602608681" lon="31.0836267471"><time>2026-09-02T12:31:51Z</time></trkpt><trkpt lat="59.4602608681" lon="31.0836267471"><time>2026-09-02T12:31:53Z</time></trkpt><trkpt lat="59.4602608681" lon="31.0836267471"><time>2026-09-02T12:31:56Z</time></trkpt><trkpt lat="59.4602608681" lon="31.0836267471"><time>2026-09-02T12:31:58Z</time></trkpt><trkpt lat="59.4602608681" lon="31.0836267471"><time>2026-09-02T12:32:01Z</time></trkpt><trkpt lat="59.4602394104" lon="31.0836482048"><time>2026-09-02T12:32:03Z</time></trkpt><trkpt lat="59.4602179527" lon="31.0836482048"><time>2026-09-02T12:32:06Z</time></trkpt><trkpt lat="59.4601964951" lon="31.0836696625"><time>2026-09-02T12:32:08Z</time></trkpt><trkpt lat="59.4601750374" lon="31.0836696625"><time>2026-09-02T12:32:11Z</time></trkpt><trkpt lat="59.4601321220" lon="31.0836482048"><time>2026-09-02T12:32:13Z</time></trkpt><trkpt lat="59.4601106644" lon="31.0836267471"><time>2026-09-02T12:32:16Z</time></trkpt><trkpt lat="59.4601106644" lon="31.0836267471"><time>2026-09-02T12:32:18Z</time></trkpt><trkpt lat="59.4601106644" lon="31.0836696625"><time>2026-09-02T12:32:21Z</time></trkpt><trkpt lat="59.4601321220" lon="31.0836482048"><time>2026-09-02T12:32:23Z</time></trkpt><trkpt lat="59.4601321220" lon="31.0836696625"><time>2026-09-02T12:32:26Z</time></trkpt><trkpt lat="59.4601321220" lon="31.0836911201"><time>2026-09-02T12:32:28Z</time></trkpt><trkpt lat="59.4601321220" lon="31.0836911201"><time>2026-09-02T12:32:31Z</time></trkpt><trkpt lat="59.4601321220" lon="31.0836911201"><time>2026-09-02T12:32:33Z</time></trkpt><trkpt lat="59.4601321220" lon="31.0836911201"><time>2026-09-02T12:32:36Z</time></trkpt><trkpt lat="59.4601321220" lon="31.0836911201"><time>2026-09-02T12:32:38Z</time></trkpt><trkpt lat="59.4601321220" lon="31.0836911201"><time>2026-09-02T12:32:41Z</time></trkpt><trkpt lat="59.4601321220" lon="31.0836911201"><time>2026-09-02T12:32:43Z</time></trkpt><trkpt lat="59.4601321220" lon="31.0836911201"><time>2026-09-02T12:32:46Z</time></trkpt><trkpt lat="59.4601321220" lon="31.0836911201"><time>2026-09-02T12:32:48Z</time></trkpt><trkpt lat="59.4601321220" lon="31.0836911201"><time>2026-09-02T12:32:51Z</time></trkpt><trkpt lat="59.4601321220" lon="31.0836911201"><time>2026-09-02T12:32:53Z</time></trkpt><trkpt lat="59.4601321220" lon="31.0836911201"><time>2026-09-02T12:32:56Z</time></trkpt><trkpt lat="59.4601321220" lon="31.0836911201"><time>2026-09-02T12:32:58Z</time></trkpt><trkpt lat="59.4601321220" lon="31.0836911201"><time>2026-09-02T12:33:01Z</time></trkpt><trkpt lat="59.4601321220" lon="31.0837125778"><time>2026-09-02T12:33:03Z</time></trkpt><trkpt lat="59.4601321220" lon="31.0837125778"><time>2026-09-02T12:33:06Z</time></trkpt><trkpt lat="59.4601321220" lon="31.0837125778"><time>2026-09-02T12:33:08Z</time></trkpt><trkpt lat="59.4601321220" lon="31.0837125778"><time>2026-09-02T12:33:11Z</time></trkpt><trkpt lat="59.4601321220" lon="31.0837125778"><time>2026-09-02T12:33:13Z</time></trkpt><trkpt lat="59.4601321220" lon="31.0837125778"><time>2026-09-02T12:33:16Z</time></trkpt><trkpt lat="59.4601321220" lon="31.0837125778"><time>2026-09-02T12:33:18Z</time></trkpt><trkpt lat="59.4601321220" lon="31.0837125778"><time>2026-09-02T12:33:21Z</time></trkpt><trkpt lat="59.4601321220" lon="31.0837125778"><time>2026-09-02T12:33:23Z</time></trkpt><trkpt lat="59.4601321220" lon="31.0837125778"><time>2026-09-02T12:33:26Z</time></trkpt><trkpt lat="59.4601321220" lon="31.0837125778"><time>2026-09-02T12:33:28Z</time></trkpt><trkpt lat="59.4601321220" lon="31.0837125778"><time>2026-09-02T12:33:31Z</time></trkpt><trkpt lat="59.4601321220" lon="31.0837125778"><time>2026-09-02T12:33:33Z</time></trkpt><trkpt lat="59.4601321220" lon="31.0837125778"><time>2026-09-02T12:33:36Z</time></trkpt><trkpt lat="59.4601321220" lon="31.0837125778"><time>2026-09-02T12:33:38Z</time></trkpt><trkpt lat="59.4601321220" lon="31.0837125778"><time>2026-09-02T12:33:41Z</time></trkpt><trkpt lat="59.4601321220" lon="31.0837125778"><time>2026-09-02T12:33:43Z</time></trkpt><trkpt lat="59.4601321220" lon="31.0837125778"><time>2026-09-02T12:33:46Z</time></trkpt><trkpt lat="59.4601321220" lon="31.0837125778"><time>2026-09-02T12:33:48Z</time></trkpt><trkpt lat="59.4601321220" lon="31.0837125778"><time>2026-09-02T12:33:51Z</time></trkpt><trkpt lat="59.4601321220" lon="31.0837125778"><time>2026-09-02T12:33:53Z</time></trkpt><trkpt lat="59.4601321220" lon="31.0837125778"><time>2026-09-02T12:33:56Z</time></trkpt><trkpt lat="59.4601321220" lon="31.0837125778"><time>2026-09-02T12:33:58Z</time></trkpt><trkpt lat="59.4601321220" lon="31.0837125778"><time>2026-09-02T12:34:01Z</time></trkpt><trkpt lat="59.4601321220" lon="31.0837125778"><time>2026-09-02T12:34:03Z</time></trkpt><trkpt lat="59.4601321220" lon="31.0837125778"><time>2026-09-02T12:34:06Z</time></trkpt><trkpt lat="59.4601321220" lon="31.0837125778"><time>2026-09-02T12:34:08Z</time></trkpt><trkpt lat="59.4601321220" lon="31.0837125778"><time>2026-09-02T12:34:11Z</time></trkpt><trkpt lat="59.4601321220" lon="31.0837125778"><time>2026-09-02T12:34:13Z</time></trkpt><trkpt lat="59.4601321220" lon="31.0837125778"><time>2026-09-02T12:34:16Z</time></trkpt><trkpt lat="59.4601321220" lon="31.0837125778"><time>2026-09-02T12:34:18Z</time></trkpt><trkpt lat="59.4601321220" lon="31.0837125778"><time>2026-09-02T12:34:21Z</time></trkpt><trkpt lat="59.4601321220" lon="31.0837125778"><time>2026-09-02T12:34:23Z</time></trkpt><trkpt lat="59.4601321220" lon="31.0837125778"><time>2026-09-02T12:34:26Z</time></trkpt><trkpt lat="59.4601321220" lon="31.0837125778"><time>2026-09-02T12:34:28Z</time></trkpt><trkpt lat="59.4601321220" lon="31.0837125778"><time>2026-09-02T12:34:31Z</time></trkpt><trkpt lat="59.4601321220" lon="31.0837125778"><time>2026-09-02T12:34:33Z</time></trkpt><trkpt lat="59.4601321220" lon="31.0837125778"><time>2026-09-02T12:34:36Z</time></trkpt><trkpt lat="59.4601321220" lon="31.0837125778"><time>2026-09-02T12:34:38Z</time></trkpt><trkpt lat="59.4601321220" lon="31.0837125778"><time>2026-09-02T12:34:41Z</time></trkpt><trkpt lat="59.4601321220" lon="31.0837125778"><time>2026-09-02T12:34:43Z</time></trkpt><trkpt lat="59.4601321220" lon="31.0837125778"><time>2026-09-02T12:34:46Z</time></trkpt><trkpt lat="59.4601321220" lon="31.0837125778"><time>2026-09-02T12:34:48Z</time></trkpt><trkpt lat="59.4601321220" lon="31.0837125778"><time>2026-09-02T12:34:51Z</time></trkpt><trkpt lat="59.4601321220" lon="31.0837125778"><time>2026-09-02T12:34:53Z</time></trkpt><trkpt lat="59.4601321220" lon="31.0837125778"><time>2026-09-02T12:34:56Z</time></trkpt><trkpt lat="59.4601321220" lon="31.0837125778"><time>2026-09-02T12:34:58Z</time></trkpt><trkpt lat="59.4601321220" lon="31.0837125778"><time>2026-09-02T12:35:01Z</time></trkpt><trkpt lat="59.4601321220" lon="31.0837125778"><time>2026-09-02T12:35:03Z</time></trkpt><trkpt lat="59.4601321220" lon="31.0837340355"><time>2026-09-02T12:35:06Z</time></trkpt><trkpt lat="59.4601321220" lon="31.0837340355"><time>2026-09-02T12:35:08Z</time></trkpt><trkpt lat="59.4601321220" lon="31.0837340355"><time>2026-09-02T12:35:11Z</time></trkpt><trkpt lat="59.4601321220" lon="31.0837340355"><time>2026-09-02T12:35:13Z</time></trkpt><trkpt lat="59.4601321220" lon="31.0837340355"><time>2026-09-02T12:35:16Z</time></trkpt><trkpt lat="59.4601321220" lon="31.0837340355"><time>2026-09-02T12:35:18Z</time></trkpt><trkpt lat="59.4601321220" lon="31.0837125778"><time>2026-09-02T12:35:21Z</time></trkpt><trkpt lat="59.4601535797" lon="31.0837340355"><time>2026-09-02T12:35:23Z</time></trkpt><trkpt lat="59.4601750374" lon="31.0837340355"><time>2026-09-02T12:35:26Z</time></trkpt><trkpt lat="59.4602179527" lon="31.0837340355"><time>2026-09-02T12:35:28Z</time></trkpt><trkpt lat="59.4602394104" lon="31.0837340355"><time>2026-09-02T12:35:31Z</time></trkpt><trkpt lat="59.4602608681" lon="31.0837125778"><time>2026-09-02T12:35:33Z</time></trkpt><trkpt lat="59.4602823257" lon="31.0836911201"><time>2026-09-02T12:35:36Z</time></trkpt><trkpt lat="59.4602823257" lon="31.0836911201"><time>2026-09-02T12:35:38Z</time></trkpt><trkpt lat="59.4602823257" lon="31.0836911201"><time>2026-09-02T12:35:41Z</time></trkpt><trkpt lat="59.4602823257" lon="31.0836911201"><time>2026-09-02T12:35:43Z</time></trkpt><trkpt lat="59.4602823257" lon="31.0837125778"><time>2026-09-02T12:35:46Z</time></trkpt><trkpt lat="59.4602823257" lon="31.0837125778"><time>2026-09-02T12:35:48Z</time></trkpt><trkpt lat="59.4602823257" lon="31.0837125778"><time>2026-09-02T12:35:51Z</time></trkpt><trkpt lat="59.4602823257" lon="31.0837125778"><time>2026-09-02T12:35:53Z</time></trkpt><trkpt lat="59.4602823257" lon="31.0836911201"><time>2026-09-02T12:35:56Z</time></trkpt><trkpt lat="59.4602823257" lon="31.0836696625"><time>2026-09-02T12:35:58Z</time></trkpt><trkpt lat="59.4602823257" lon="31.0836052895"><time>2026-09-02T12:36:01Z</time></trkpt><trkpt lat="59.4602823257" lon="31.0835838318"><time>2026-09-02T12:36:03Z</time></trkpt><trkpt lat="59.4603037834" lon="31.0835623741"><time>2026-09-02T12:36:06Z</time></trkpt><trkpt lat="59.4602823257" lon="31.0835623741"><time>2026-09-02T12:36:08Z</time></trkpt><trkpt lat="59.4602608681" lon="31.0835623741"><time>2026-09-02T12:36:11Z</time></trkpt><trkpt lat="59.4602608681" lon="31.0835194588"><time>2026-09-02T12:36:13Z</time></trkpt><trkpt lat="59.4602394104" lon="31.0835194588"><time>2026-09-02T12:36:16Z</time></trkpt><trkpt lat="59.4602394104" lon="31.0835194588"><time>2026-09-02T12:36:18Z</time></trkpt><trkpt lat="59.4602394104" lon="31.0835194588"><time>2026-09-02T12:36:21Z</time></trkpt><trkpt lat="59.4602394104" lon="31.0835623741"><time>2026-09-02T12:36:23Z</time></trkpt><trkpt lat="59.4602179527" lon="31.0835838318"><time>2026-09-02T12:36:26Z</time></trkpt><trkpt lat="59.4601964951" lon="31.0836267471"><time>2026-09-02T12:36:28Z</time></trkpt><trkpt lat="59.4601964951" lon="31.0836482048"><time>2026-09-02T12:36:31Z</time></trkpt><trkpt lat="59.4601964951" lon="31.0836482048"><time>2026-09-02T12:36:33Z</time></trkpt><trkpt lat="59.4601964951" lon="31.0836482048"><time>2026-09-02T12:36:36Z</time></trkpt><trkpt lat="59.4601964951" lon="31.0836482048"><time>2026-09-02T12:36:38Z</time></trkpt><trkpt lat="59.4601964951" lon="31.0836696625"><time>2026-09-02T12:36:41Z</time></trkpt><trkpt lat="59.4601964951" lon="31.0836911201"><time>2026-09-02T12:36:43Z</time></trkpt><trkpt lat="59.4601964951" lon="31.0837125778"><time>2026-09-02T12:36:46Z</time></trkpt><trkpt lat="59.4601964951" lon="31.0837554932"><time>2026-09-02T12:36:48Z</time></trkpt><trkpt lat="59.4601964951" lon="31.0837984085"><time>2026-09-02T12:36:51Z</time></trkpt><trkpt lat="59.4601964951" lon="31.0838198662"><time>2026-09-02T12:36:53Z</time></trkpt><trkpt lat="59.4601964951" lon="31.0838198662"><time>2026-09-02T12:36:56Z</time></trkpt><trkpt lat="59.4601964951" lon="31.0838198662"><time>2026-09-02T12:36:58Z</time></trkpt><trkpt lat="59.4601964951" lon="31.0838627815"><time>2026-09-02T12:37:01Z</time></trkpt><trkpt lat="59.4601964951" lon="31.0839056969"><time>2026-09-02T12:37:03Z</time></trkpt><trkpt lat="59.4602179527" lon="31.0839915276"><time>2026-09-02T12:37:06Z</time></trkpt><trkpt lat="59.4602179527" lon="31.0841417313"><time>2026-09-02T12:37:08Z</time></trkpt><trkpt lat="59.4602179527" lon="31.0841846466"><time>2026-09-02T12:37:11Z</time></trkpt><trkpt lat="59.4602394104" lon="31.0842919350"><time>2026-09-02T12:37:13Z</time></trkpt><trkpt lat="59.4602608681" lon="31.0843777657"><time>2026-09-02T12:37:16Z</time></trkpt><trkpt lat="59.4602823257" lon="31.0844850540"><time>2026-09-02T12:37:18Z</time></trkpt><trkpt lat="59.4602823257" lon="31.0844850540"><time>2026-09-02T12:37:21Z</time></trkpt><trkpt lat="59.4602823257" lon="31.0844850540"><time>2026-09-02T12:37:23Z</time></trkpt><trkpt lat="59.4602823257" lon="31.0844850540"><time>2026-09-02T12:37:26Z</time></trkpt><trkpt lat="59.4602823257" lon="31.0844850540"><time>2026-09-02T12:37:28Z</time></trkpt><trkpt lat="59.4602823257" lon="31.0844850540"><time>2026-09-02T12:37:31Z</time></trkpt><trkpt lat="59.4603037834" lon="31.0845708847"><time>2026-09-02T12:37:33Z</time></trkpt><trkpt lat="59.4603037834" lon="31.0846138000"><time>2026-09-02T12:37:36Z</time></trkpt><trkpt lat="59.4603037834" lon="31.0846781731"><time>2026-09-02T12:37:38Z</time></trkpt><trkpt lat="59.4603252411" lon="31.0846567154"><time>2026-09-02T12:37:41Z</time></trkpt><trkpt lat="59.4603252411" lon="31.0846567154"><time>2026-09-02T12:37:43Z</time></trkpt><trkpt lat="59.4603252411" lon="31.0846567154"><time>2026-09-02T12:37:46Z</time></trkpt><trkpt lat="59.4603681564" lon="31.0846352577"><time>2026-09-02T12:37:48Z</time></trkpt><trkpt lat="59.4603681564" lon="31.0846352577"><time>2026-09-02T12:37:51Z</time></trkpt><trkpt lat="59.4603681564" lon="31.0846352577"><time>2026-09-02T12:37:56Z</time></trkpt><trkpt lat="59.4603681564" lon="31.0846352577"><time>2026-09-02T12:37:58Z</time></trkpt><trkpt lat="59.4603681564" lon="31.0846352577"><time>2026-09-02T12:38:01Z</time></trkpt><trkpt lat="59.4603896141" lon="31.0845494270"><time>2026-09-02T12:38:03Z</time></trkpt><trkpt lat="59.4604110718" lon="31.0845065117"><time>2026-09-02T12:38:06Z</time></trkpt><trkpt lat="59.4603681564" lon="31.0845494270"><time>2026-09-02T12:38:08Z</time></trkpt><trkpt lat="59.4603466988" lon="31.0846138000"><time>2026-09-02T12:38:11Z</time></trkpt><trkpt lat="59.4603896141" lon="31.0845494270"><time>2026-09-02T12:38:16Z</time></trkpt><trkpt lat="59.4604110718" lon="31.0845065117"><time>2026-09-02T12:38:18Z</time></trkpt><trkpt lat="59.4604325294" lon="31.0844850540"><time>2026-09-02T12:38:21Z</time></trkpt><trkpt lat="59.4604754448" lon="31.0843563080"><time>2026-09-02T12:38:23Z</time></trkpt><trkpt lat="59.4604754448" lon="31.0843133926"><time>2026-09-02T12:38:26Z</time></trkpt><trkpt lat="59.4604110718" lon="31.0842704773"><time>2026-09-02T12:38:28Z</time></trkpt><trkpt lat="59.4603896141" lon="31.0842919350"><time>2026-09-02T12:38:31Z</time></trkpt><trkpt lat="59.4603896141" lon="31.0842704773"><time>2026-09-02T12:38:33Z</time></trkpt><trkpt lat="59.4603896141" lon="31.0842704773"><time>2026-09-02T12:38:36Z</time></trkpt><trkpt lat="59.4603896141" lon="31.0842704773"><time>2026-09-02T12:38:38Z</time></trkpt><trkpt lat="59.4604110718" lon="31.0842490196"><time>2026-09-02T12:38:41Z</time></trkpt><trkpt lat="59.4604110718" lon="31.0842704773"><time>2026-09-02T12:38:43Z</time></trkpt><trkpt lat="59.4604110718" lon="31.0843348503"><time>2026-09-02T12:38:46Z</time></trkpt><trkpt lat="59.4603896141" lon="31.0844206810"><time>2026-09-02T12:38:48Z</time></trkpt><trkpt lat="59.4603681564" lon="31.0844850540"><time>2026-09-02T12:38:51Z</time></trkpt><trkpt lat="59.4603681564" lon="31.0845708847"><time>2026-09-02T12:38:53Z</time></trkpt><trkpt lat="59.4603681564" lon="31.0846352577"><time>2026-09-02T12:38:56Z</time></trkpt><trkpt lat="59.4603681564" lon="31.0847210884"><time>2026-09-02T12:38:58Z</time></trkpt><trkpt lat="59.4603681564" lon="31.0848069191"><time>2026-09-02T12:39:01Z</time></trkpt><trkpt lat="59.4603896141" lon="31.0847854614"><time>2026-09-02T12:39:03Z</time></trkpt><trkpt lat="59.4603681564" lon="31.0847210884"><time>2026-09-02T12:39:06Z</time></trkpt><trkpt lat="59.4603896141" lon="31.0846781731"><time>2026-09-02T12:39:08Z</time></trkpt><trkpt lat="59.4603896141" lon="31.0846781731"><time>2026-09-02T12:39:11Z</time></trkpt><trkpt lat="59.4604110718" lon="31.0846567154"><time>2026-09-02T12:39:13Z</time></trkpt><trkpt lat="59.4604539871" lon="31.0845923424"><time>2026-09-02T12:39:16Z</time></trkpt><trkpt lat="59.4604754448" lon="31.0844850540"><time>2026-09-02T12:39:18Z</time></trkpt><trkpt lat="59.4605183601" lon="31.0843992233"><time>2026-09-02T12:39:21Z</time></trkpt><trkpt lat="59.4604969025" lon="31.0844206810"><time>2026-09-02T12:39:23Z</time></trkpt><trkpt lat="59.4604539871" lon="31.0844850540"><time>2026-09-02T12:39:26Z</time></trkpt><trkpt lat="59.4604325294" lon="31.0845494270"><time>2026-09-02T12:39:28Z</time></trkpt><trkpt lat="59.4604325294" lon="31.0845708847"><time>2026-09-02T12:39:31Z</time></trkpt><trkpt lat="59.4604325294" lon="31.0845708847"><time>2026-09-02T12:39:33Z</time></trkpt><trkpt lat="59.4604110718" lon="31.0845923424"><time>2026-09-02T12:39:36Z</time></trkpt><trkpt lat="59.4603681564" lon="31.0845708847"><time>2026-09-02T12:39:38Z</time></trkpt><trkpt lat="59.4603252411" lon="31.0846138000"><time>2026-09-02T12:39:41Z</time></trkpt><trkpt lat="59.4603037834" lon="31.0846781731"><time>2026-09-02T12:39:43Z</time></trkpt><trkpt lat="59.4602823257" lon="31.0846996307"><time>2026-09-02T12:39:46Z</time></trkpt><trkpt lat="59.4602823257" lon="31.0848069191"><time>2026-09-02T12:39:48Z</time></trkpt><trkpt lat="59.4602823257" lon="31.0847854614"><time>2026-09-02T12:39:51Z</time></trkpt><trkpt lat="59.4602823257" lon="31.0847640038"><time>2026-09-02T12:39:53Z</time></trkpt><trkpt lat="59.4603037834" lon="31.0847640038"><time>2026-09-02T12:39:56Z</time></trkpt><trkpt lat="59.4603037834" lon="31.0847854614"><time>2026-09-02T12:39:58Z</time></trkpt><trkpt lat="59.4603037834" lon="31.0847854614"><time>2026-09-02T12:40:01Z</time></trkpt><trkpt lat="59.4603252411" lon="31.0848069191"><time>2026-09-02T12:40:03Z</time></trkpt><trkpt lat="59.4603252411" lon="31.0847640038"><time>2026-09-02T12:40:06Z</time></trkpt><trkpt lat="59.4603252411" lon="31.0847210884"><time>2026-09-02T12:40:08Z</time></trkpt><trkpt lat="59.4603252411" lon="31.0846996307"><time>2026-09-02T12:40:11Z</time></trkpt><trkpt lat="59.4603252411" lon="31.0846138000"><time>2026-09-02T12:40:13Z</time></trkpt><trkpt lat="59.4603252411" lon="31.0846352577"><time>2026-09-02T12:40:16Z</time></trkpt><trkpt lat="59.4603252411" lon="31.0846138000"><time>2026-09-02T12:40:18Z</time></trkpt><trkpt lat="59.4603681564" lon="31.0845923424"><time>2026-09-02T12:40:21Z</time></trkpt><trkpt lat="59.4603466988" lon="31.0845279694"><time>2026-09-02T12:40:23Z</time></trkpt><trkpt lat="59.4603466988" lon="31.0845065117"><time>2026-09-02T12:40:26Z</time></trkpt><trkpt lat="59.4603466988" lon="31.0845065117"><time>2026-09-02T12:40:28Z</time></trkpt><trkpt lat="59.4603252411" lon="31.0845065117"><time>2026-09-02T12:40:31Z</time></trkpt><trkpt lat="59.4603466988" lon="31.0844850540"><time>2026-09-02T12:40:33Z</time></trkpt><trkpt lat="59.4603681564" lon="31.0845065117"><time>2026-09-02T12:40:36Z</time></trkpt><trkpt lat="59.4603896141" lon="31.0845065117"><time>2026-09-02T12:40:38Z</time></trkpt><trkpt lat="59.4603896141" lon="31.0845279694"><time>2026-09-02T12:40:41Z</time></trkpt><trkpt lat="59.4603896141" lon="31.0845494270"><time>2026-09-02T12:40:43Z</time></trkpt><trkpt lat="59.4603681564" lon="31.0845708847"><time>2026-09-02T12:40:46Z</time></trkpt><trkpt lat="59.4603681564" lon="31.0845708847"><time>2026-09-02T12:40:48Z</time></trkpt><trkpt lat="59.4603681564" lon="31.0845708847"><time>2026-09-02T12:40:51Z</time></trkpt><trkpt lat="59.4603681564" lon="31.0845923424"><time>2026-09-02T12:40:53Z</time></trkpt><trkpt lat="59.4603681564" lon="31.0845923424"><time>2026-09-02T12:40:56Z</time></trkpt><trkpt lat="59.4603466988" lon="31.0845494270"><time>2026-09-02T12:40:58Z</time></trkpt><trkpt lat="59.4603466988" lon="31.0845065117"><time>2026-09-02T12:41:01Z</time></trkpt><trkpt lat="59.4603681564" lon="31.0844635963"><time>2026-09-02T12:41:03Z</time></trkpt><trkpt lat="59.4603896141" lon="31.0844421387"><time>2026-09-02T12:41:06Z</time></trkpt><trkpt lat="59.4604110718" lon="31.0843992233"><time>2026-09-02T12:41:08Z</time></trkpt><trkpt lat="59.4604325294" lon="31.0843777657"><time>2026-09-02T12:41:11Z</time></trkpt><trkpt lat="59.4604539871" lon="31.0843563080"><time>2026-09-02T12:41:13Z</time></trkpt><trkpt lat="59.4604754448" lon="31.0843563080"><time>2026-09-02T12:41:16Z</time></trkpt><trkpt lat="59.4604754448" lon="31.0843777657"><time>2026-09-02T12:41:18Z</time></trkpt><trkpt lat="59.4604754448" lon="31.0843777657"><time>2026-09-02T12:41:21Z</time></trkpt><trkpt lat="59.4604539871" lon="31.0844421387"><time>2026-09-02T12:41:23Z</time></trkpt><trkpt lat="59.4604539871" lon="31.0844635963"><time>2026-09-02T12:41:26Z</time></trkpt><trkpt lat="59.4604539871" lon="31.0844635963"><time>2026-09-02T12:41:28Z</time></trkpt><trkpt lat="59.4604539871" lon="31.0844635963"><time>2026-09-02T12:41:31Z</time></trkpt><trkpt lat="59.4604539871" lon="31.0844635963"><time>2026-09-02T12:41:33Z</time></trkpt><trkpt lat="59.4604539871" lon="31.0844635963"><time>2026-09-02T12:41:36Z</time></trkpt><trkpt lat="59.4604539871" lon="31.0844635963"><time>2026-09-02T12:41:38Z</time></trkpt><trkpt lat="59.4604539871" lon="31.0844635963"><time>2026-09-02T12:41:41Z</time></trkpt><trkpt lat="59.4604539871" lon="31.0844635963"><time>2026-09-02T12:41:43Z</time></trkpt><trkpt lat="59.4604539871" lon="31.0844635963"><time>2026-09-02T12:41:46Z</time></trkpt><trkpt lat="59.4604539871" lon="31.0844635963"><time>2026-09-02T12:41:48Z</time></trkpt><trkpt lat="59.4604539871" lon="31.0844421387"><time>2026-09-02T12:41:51Z</time></trkpt><trkpt lat="59.4604539871" lon="31.0844421387"><time>2026-09-02T12:41:53Z</time></trkpt><trkpt lat="59.4604539871" lon="31.0844421387"><time>2026-09-02T12:41:56Z</time></trkpt><trkpt lat="59.4604539871" lon="31.0844421387"><time>2026-09-02T12:41:58Z</time></trkpt><trkpt lat="59.4604539871" lon="31.0844421387"><time>2026-09-02T12:42:01Z</time></trkpt><trkpt lat="59.4604539871" lon="31.0844421387"><time>2026-09-02T12:42:03Z</time></trkpt><trkpt lat="59.4604539871" lon="31.0844421387"><time>2026-09-02T12:42:06Z</time></trkpt><trkpt lat="59.4604539871" lon="31.0844421387"><time>2026-09-02T12:42:08Z</time></trkpt><trkpt lat="59.4604539871" lon="31.0844421387"><time>2026-09-02T12:42:11Z</time></trkpt><trkpt lat="59.4604539871" lon="31.0844421387"><time>2026-09-02T12:42:13Z</time></trkpt><trkpt lat="59.4604539871" lon="31.0844421387"><time>2026-09-02T12:42:16Z</time></trkpt><trkpt lat="59.4604539871" lon="31.0844421387"><time>2026-09-02T12:42:18Z</time></trkpt><trkpt lat="59.4604539871" lon="31.0844421387"><time>2026-09-02T12:42:21Z</time></trkpt><trkpt lat="59.4604754448" lon="31.0844850540"><time>2026-09-02T12:42:23Z</time></trkpt><trkpt lat="59.4604754448" lon="31.0844850540"><time>2026-09-02T12:42:26Z</time></trkpt><trkpt lat="59.4604754448" lon="31.0845065117"><time>2026-09-02T12:42:28Z</time></trkpt><trkpt lat="59.4604969025" lon="31.0845494270"><time>2026-09-02T12:42:31Z</time></trkpt><trkpt lat="59.4604969025" lon="31.0846352577"><time>2026-09-02T12:42:33Z</time></trkpt><trkpt lat="59.4605183601" lon="31.0847640038"><time>2026-09-02T12:42:36Z</time></trkpt><trkpt lat="59.4605183601" lon="31.0848712921"><time>2026-09-02T12:42:38Z</time></trkpt><trkpt lat="59.4605183601" lon="31.0849571228"><time>2026-09-02T12:42:41Z</time></trkpt><trkpt lat="59.4605183601" lon="31.0850000381"><time>2026-09-02T12:42:43Z</time></trkpt><trkpt lat="59.4605183601" lon="31.0850000381"><time>2026-09-02T12:42:46Z</time></trkpt><trkpt lat="59.4605183601" lon="31.0850429535"><time>2026-09-02T12:42:48Z</time></trkpt><trkpt lat="59.4605398178" lon="31.0851287842"><time>2026-09-02T12:42:51Z</time></trkpt><trkpt lat="59.4605183601" lon="31.0852146149"><time>2026-09-02T12:42:53Z</time></trkpt><trkpt lat="59.4605183601" lon="31.0852360725"><time>2026-09-02T12:42:56Z</time></trkpt><trkpt lat="59.4605398178" lon="31.0852789879"><time>2026-09-02T12:42:58Z</time></trkpt><trkpt lat="59.4605612755" lon="31.0853219032"><time>2026-09-02T12:43:01Z</time></trkpt><trkpt lat="59.4605612755" lon="31.0853219032"><time>2026-09-02T12:43:03Z</time></trkpt><trkpt lat="59.4605827332" lon="31.0853004456"><time>2026-09-02T12:43:06Z</time></trkpt><trkpt lat="59.4606041908" lon="31.0852789879"><time>2026-09-02T12:43:08Z</time></trkpt><trkpt lat="59.4606256485" lon="31.0852789879"><time>2026-09-02T12:43:11Z</time></trkpt><trkpt lat="59.4606256485" lon="31.0852789879"><time>2026-09-02T12:43:13Z</time></trkpt><trkpt lat="59.4606471062" lon="31.0852575302"><time>2026-09-02T12:43:16Z</time></trkpt><trkpt lat="59.4607114792" lon="31.0852146149"><time>2026-09-02T12:43:18Z</time></trkpt><trkpt lat="59.4607329369" lon="31.0852360725"><time>2026-09-02T12:43:21Z</time></trkpt><trkpt lat="59.4607973099" lon="31.0852575302"><time>2026-09-02T12:43:23Z</time></trkpt><trkpt lat="59.4608187675" lon="31.0852789879"><time>2026-09-02T12:43:26Z</time></trkpt><trkpt lat="59.4608402252" lon="31.0853219032"><time>2026-09-02T12:43:28Z</time></trkpt><trkpt lat="59.4608402252" lon="31.0853219032"><time>2026-09-02T12:43:31Z</time></trkpt><trkpt lat="59.4608616829" lon="31.0853433609"><time>2026-09-02T12:43:33Z</time></trkpt><trkpt lat="59.4608831406" lon="31.0853433609"><time>2026-09-02T12:43:36Z</time></trkpt><trkpt lat="59.4608831406" lon="31.0853433609"><time>2026-09-02T12:43:38Z</time></trkpt><trkpt lat="59.4608616829" lon="31.0853219032"><time>2026-09-02T12:43:41Z</time></trkpt><trkpt lat="59.4608402252" lon="31.0852789879"><time>2026-09-02T12:43:43Z</time></trkpt><trkpt lat="59.4608187675" lon="31.0852575302"><time>2026-09-02T12:43:46Z</time></trkpt><trkpt lat="59.4608187675" lon="31.0852575302"><time>2026-09-02T12:43:48Z</time></trkpt><trkpt lat="59.4608187675" lon="31.0852575302"><time>2026-09-02T12:43:51Z</time></trkpt><trkpt lat="59.4608187675" lon="31.0852360725"><time>2026-09-02T12:43:53Z</time></trkpt><trkpt lat="59.4608187675" lon="31.0852146149"><time>2026-09-02T12:43:56Z</time></trkpt><trkpt lat="59.4608187675" lon="31.0851716995"><time>2026-09-02T12:43:58Z</time></trkpt><trkpt lat="59.4608187675" lon="31.0851716995"><time>2026-09-02T12:44:01Z</time></trkpt><trkpt lat="59.4608187675" lon="31.0851502419"><time>2026-09-02T12:44:03Z</time></trkpt><trkpt lat="59.4608402252" lon="31.0851502419"><time>2026-09-02T12:44:06Z</time></trkpt><trkpt lat="59.4608616829" lon="31.0851716995"><time>2026-09-02T12:44:08Z</time></trkpt><trkpt lat="59.4608616829" lon="31.0851716995"><time>2026-09-02T12:44:11Z</time></trkpt><trkpt lat="59.4608616829" lon="31.0851716995"><time>2026-09-02T12:44:13Z</time></trkpt><trkpt lat="59.4608616829" lon="31.0851716995"><time>2026-09-02T12:44:16Z</time></trkpt><trkpt lat="59.4608616829" lon="31.0851716995"><time>2026-09-02T12:44:18Z</time></trkpt><trkpt lat="59.4608831406" lon="31.0851931572"><time>2026-09-02T12:44:21Z</time></trkpt><trkpt lat="59.4608831406" lon="31.0851931572"><time>2026-09-02T12:44:23Z</time></trkpt><trkpt lat="59.4608831406" lon="31.0852146149"><time>2026-09-02T12:44:26Z</time></trkpt><trkpt lat="59.4608831406" lon="31.0852146149"><time>2026-09-02T12:44:28Z</time></trkpt><trkpt lat="59.4608831406" lon="31.0852146149"><time>2026-09-02T12:44:31Z</time></trkpt><trkpt lat="59.4609045982" lon="31.0852360725"><time>2026-09-02T12:44:33Z</time></trkpt><trkpt lat="59.4609045982" lon="31.0852360725"><time>2026-09-02T12:44:36Z</time></trkpt><trkpt lat="59.4609045982" lon="31.0852360725"><time>2026-09-02T12:44:38Z</time></trkpt><trkpt lat="59.4609045982" lon="31.0852575302"><time>2026-09-02T12:44:41Z</time></trkpt><trkpt lat="59.4609045982" lon="31.0853004456"><time>2026-09-02T12:44:43Z</time></trkpt><trkpt lat="59.4609045982" lon="31.0853004456"><time>2026-09-02T12:44:46Z</time></trkpt><trkpt lat="59.4609045982" lon="31.0853219032"><time>2026-09-02T12:44:48Z</time></trkpt><trkpt lat="59.4609045982" lon="31.0853219032"><time>2026-09-02T12:44:51Z</time></trkpt><trkpt lat="59.4609045982" lon="31.0853219032"><time>2026-09-02T12:44:53Z</time></trkpt><trkpt lat="59.4609045982" lon="31.0853219032"><time>2026-09-02T12:44:56Z</time></trkpt><trkpt lat="59.4609045982" lon="31.0853219032"><time>2026-09-02T12:44:58Z</time></trkpt><trkpt lat="59.4609045982" lon="31.0853219032"><time>2026-09-02T12:45:01Z</time></trkpt><trkpt lat="59.4609260559" lon="31.0853648186"><time>2026-09-02T12:45:03Z</time></trkpt><trkpt lat="59.4609689713" lon="31.0854291916"><time>2026-09-02T12:45:06Z</time></trkpt><trkpt lat="59.4610548019" lon="31.0855150223"><time>2026-09-02T12:45:08Z</time></trkpt><trkpt lat="59.4610762596" lon="31.0855579376"><time>2026-09-02T12:45:11Z</time></trkpt><trkpt lat="59.4611191750" lon="31.0856652260"><time>2026-09-02T12:45:13Z</time></trkpt><trkpt lat="59.4611406326" lon="31.0856866837"><time>2026-09-02T12:45:16Z</time></trkpt><trkpt lat="59.4611406326" lon="31.0856866837"><time>2026-09-02T12:45:18Z</time></trkpt><trkpt lat="59.4611406326" lon="31.0856866837"><time>2026-09-02T12:45:21Z</time></trkpt><trkpt lat="59.4611406326" lon="31.0856866837"><time>2026-09-02T12:45:23Z</time></trkpt><trkpt lat="59.4611406326" lon="31.0856866837"><time>2026-09-02T12:45:26Z</time></trkpt><trkpt lat="59.4611620903" lon="31.0856866837"><time>2026-09-02T12:45:28Z</time></trkpt><trkpt lat="59.4612050056" lon="31.0857081413"><time>2026-09-02T12:45:31Z</time></trkpt><trkpt lat="59.4612479210" lon="31.0857295990"><time>2026-09-02T12:45:33Z</time></trkpt><trkpt lat="59.4612479210" lon="31.0857295990"><time>2026-09-02T12:45:36Z</time></trkpt><trkpt lat="59.4612479210" lon="31.0856866837"><time>2026-09-02T12:45:38Z</time></trkpt><trkpt lat="59.4612479210" lon="31.0856652260"><time>2026-09-02T12:45:41Z</time></trkpt><trkpt lat="59.4612693787" lon="31.0856437683"><time>2026-09-02T12:45:43Z</time></trkpt><trkpt lat="59.4612693787" lon="31.0856437683"><time>2026-09-02T12:45:46Z</time></trkpt><trkpt lat="59.4612908363" lon="31.0856223106"><time>2026-09-02T12:45:48Z</time></trkpt><trkpt lat="59.4612693787" lon="31.0856223106"><time>2026-09-02T12:45:51Z</time></trkpt><trkpt lat="59.4612693787" lon="31.0856223106"><time>2026-09-02T12:45:53Z</time></trkpt><trkpt lat="59.4612693787" lon="31.0856223106"><time>2026-09-02T12:45:56Z</time></trkpt><trkpt lat="59.4612693787" lon="31.0856223106"><time>2026-09-02T12:45:58Z</time></trkpt><trkpt lat="59.4612693787" lon="31.0856223106"><time>2026-09-02T12:46:01Z</time></trkpt><trkpt lat="59.4612693787" lon="31.0857081413"><time>2026-09-02T12:46:06Z</time></trkpt><trkpt lat="59.4612908363" lon="31.0857939720"><time>2026-09-02T12:46:08Z</time></trkpt><trkpt lat="59.4613337517" lon="31.0858583450"><time>2026-09-02T12:46:11Z</time></trkpt><trkpt lat="59.4613552094" lon="31.0859656334"><time>2026-09-02T12:46:13Z</time></trkpt><trkpt lat="59.4613981247" lon="31.0860085487"><time>2026-09-02T12:46:16Z</time></trkpt><trkpt lat="59.4614410400" lon="31.0860943794"><time>2026-09-02T12:46:18Z</time></trkpt><trkpt lat="59.4614624977" lon="31.0861587524"><time>2026-09-02T12:46:21Z</time></trkpt><trkpt lat="59.4614839554" lon="31.0861802101"><time>2026-09-02T12:46:23Z</time></trkpt><trkpt lat="59.4615268707" lon="31.0862231255"><time>2026-09-02T12:46:26Z</time></trkpt><trkpt lat="59.4615697861" lon="31.0862874985"><time>2026-09-02T12:46:28Z</time></trkpt><trkpt lat="59.4615697861" lon="31.0862660408"><time>2026-09-02T12:46:31Z</time></trkpt><trkpt lat="59.4615697861" lon="31.0862445831"><time>2026-09-02T12:46:33Z</time></trkpt><trkpt lat="59.4615483284" lon="31.0862231255"><time>2026-09-02T12:46:36Z</time></trkpt><trkpt lat="59.4615054131" lon="31.0862231255"><time>2026-09-02T12:46:38Z</time></trkpt><trkpt lat="59.4614839554" lon="31.0862660408"><time>2026-09-02T12:46:41Z</time></trkpt><trkpt lat="59.4614624977" lon="31.0862874985"><time>2026-09-02T12:46:43Z</time></trkpt><trkpt lat="59.4614410400" lon="31.0863089561"><time>2026-09-02T12:46:46Z</time></trkpt><trkpt lat="59.4613981247" lon="31.0863089561"><time>2026-09-02T12:46:48Z</time></trkpt><trkpt lat="59.4613766670" lon="31.0863304138"><time>2026-09-02T12:46:51Z</time></trkpt><trkpt lat="59.4613766670" lon="31.0863304138"><time>2026-09-02T12:46:53Z</time></trkpt><trkpt lat="59.4613766670" lon="31.0863304138"><time>2026-09-02T12:46:56Z</time></trkpt><trkpt lat="59.4613766670" lon="31.0863304138"><time>2026-09-02T12:46:58Z</time></trkpt><trkpt lat="59.4613552094" lon="31.0863089561"><time>2026-09-02T12:47:01Z</time></trkpt><trkpt lat="59.4613552094" lon="31.0863089561"><time>2026-09-02T12:47:03Z</time></trkpt><trkpt lat="59.4613552094" lon="31.0863089561"><time>2026-09-02T12:47:06Z</time></trkpt><trkpt lat="59.4613552094" lon="31.0863089561"><time>2026-09-02T12:47:08Z</time></trkpt><trkpt lat="59.4613552094" lon="31.0863089561"><time>2026-09-02T12:47:11Z</time></trkpt><trkpt lat="59.4613552094" lon="31.0863089561"><time>2026-09-02T12:47:13Z</time></trkpt><trkpt lat="59.4613552094" lon="31.0863089561"><time>2026-09-02T12:47:16Z</time></trkpt><trkpt lat="59.4613552094" lon="31.0863089561"><time>2026-09-02T12:47:18Z</time></trkpt><trkpt lat="59.4613552094" lon="31.0863089561"><time>2026-09-02T12:47:21Z</time></trkpt><trkpt lat="59.4613552094" lon="31.0863089561"><time>2026-09-02T12:47:23Z</time></trkpt><trkpt lat="59.4613552094" lon="31.0863089561"><time>2026-09-02T12:47:26Z</time></trkpt><trkpt lat="59.4613552094" lon="31.0863089561"><time>2026-09-02T12:47:28Z</time></trkpt><trkpt lat="59.4613552094" lon="31.0863089561"><time>2026-09-02T12:47:31Z</time></trkpt><trkpt lat="59.4613552094" lon="31.0862874985"><time>2026-09-02T12:47:33Z</time></trkpt><trkpt lat="59.4613766670" lon="31.0862874985"><time>2026-09-02T12:47:36Z</time></trkpt><trkpt lat="59.4613766670" lon="31.0862874985"><time>2026-09-02T12:47:38Z</time></trkpt><trkpt lat="59.4613766670" lon="31.0862874985"><time>2026-09-02T12:47:41Z</time></trkpt><trkpt lat="59.4613766670" lon="31.0862874985"><time>2026-09-02T12:47:43Z</time></trkpt><trkpt lat="59.4613766670" lon="31.0862874985"><time>2026-09-02T12:47:46Z</time></trkpt><trkpt lat="59.4613766670" lon="31.0862874985"><time>2026-09-02T12:47:48Z</time></trkpt><trkpt lat="59.4613766670" lon="31.0862874985"><time>2026-09-02T12:47:51Z</time></trkpt><trkpt lat="59.4613766670" lon="31.0862874985"><time>2026-09-02T12:47:53Z</time></trkpt><trkpt lat="59.4613981247" lon="31.0863089561"><time>2026-09-02T12:47:56Z</time></trkpt><trkpt lat="59.4614195824" lon="31.0863518715"><time>2026-09-02T12:47:58Z</time></trkpt><trkpt lat="59.4614410400" lon="31.0863947868"><time>2026-09-02T12:48:01Z</time></trkpt><trkpt lat="59.4614410400" lon="31.0863947868"><time>2026-09-02T12:48:03Z</time></trkpt><trkpt lat="59.4614624977" lon="31.0864591599"><time>2026-09-02T12:48:06Z</time></trkpt><trkpt lat="59.4614624977" lon="31.0865235329"><time>2026-09-02T12:48:08Z</time></trkpt><trkpt lat="59.4614624977" lon="31.0865879059"><time>2026-09-02T12:48:11Z</time></trkpt><trkpt lat="59.4614839554" lon="31.0866522789"><time>2026-09-02T12:48:13Z</time></trkpt><trkpt lat="59.4615054131" lon="31.0866951942"><time>2026-09-02T12:48:16Z</time></trkpt><trkpt lat="59.4615268707" lon="31.0867166519"><time>2026-09-02T12:48:18Z</time></trkpt><trkpt lat="59.4615268707" lon="31.0867166519"><time>2026-09-02T12:48:21Z</time></trkpt><trkpt lat="59.4615268707" lon="31.0867166519"><time>2026-09-02T12:48:23Z</time></trkpt><trkpt lat="59.4615268707" lon="31.0867166519"><time>2026-09-02T12:48:26Z</time></trkpt><trkpt lat="59.4615268707" lon="31.0867166519"><time>2026-09-02T12:48:28Z</time></trkpt><trkpt lat="59.4615268707" lon="31.0867166519"><time>2026-09-02T12:48:31Z</time></trkpt><trkpt lat="59.4615268707" lon="31.0867166519"><time>2026-09-02T12:48:33Z</time></trkpt><trkpt lat="59.4615268707" lon="31.0867166519"><time>2026-09-02T12:48:36Z</time></trkpt><trkpt lat="59.4615268707" lon="31.0867166519"><time>2026-09-02T12:48:38Z</time></trkpt><trkpt lat="59.4615268707" lon="31.0867166519"><time>2026-09-02T12:48:41Z</time></trkpt><trkpt lat="59.4615268707" lon="31.0867166519"><time>2026-09-02T12:48:43Z</time></trkpt><trkpt lat="59.4615268707" lon="31.0867166519"><time>2026-09-02T12:48:46Z</time></trkpt><trkpt lat="59.4615268707" lon="31.0867166519"><time>2026-09-02T12:48:48Z</time></trkpt><trkpt lat="59.4615268707" lon="31.0867166519"><time>2026-09-02T12:48:51Z</time></trkpt><trkpt lat="59.4615268707" lon="31.0867166519"><time>2026-09-02T12:48:53Z</time></trkpt><trkpt lat="59.4615268707" lon="31.0867166519"><time>2026-09-02T12:48:56Z</time></trkpt><trkpt lat="59.4615912437" lon="31.0867381096"><time>2026-09-02T12:48:58Z</time></trkpt><trkpt lat="59.4616127014" lon="31.0867595673"><time>2026-09-02T12:49:01Z</time></trkpt><trkpt lat="59.4616556168" lon="31.0867810249"><time>2026-09-02T12:49:03Z</time></trkpt><trkpt lat="59.4616985321" lon="31.0868024826"><time>2026-09-02T12:49:06Z</time></trkpt><trkpt lat="59.4617414474" lon="31.0868668556"><time>2026-09-02T12:49:08Z</time></trkpt><trkpt lat="59.4617629051" lon="31.0869097710"><time>2026-09-02T12:49:11Z</time></trkpt><trkpt lat="59.4617843628" lon="31.0869526863"><time>2026-09-02T12:49:13Z</time></trkpt><trkpt lat="59.4617843628" lon="31.0869526863"><time>2026-09-02T12:49:16Z</time></trkpt><trkpt lat="59.4617843628" lon="31.0869526863"><time>2026-09-02T12:49:18Z</time></trkpt><trkpt lat="59.4617843628" lon="31.0869526863"><time>2026-09-02T12:49:21Z</time></trkpt><trkpt lat="59.4617843628" lon="31.0869526863"><time>2026-09-02T12:49:23Z</time></trkpt><trkpt lat="59.4618058205" lon="31.0869956017"><time>2026-09-02T12:49:26Z</time></trkpt><trkpt lat="59.4618272781" lon="31.0871458054"><time>2026-09-02T12:49:28Z</time></trkpt><trkpt lat="59.4618701935" lon="31.0872101784"><time>2026-09-02T12:49:31Z</time></trkpt><trkpt lat="59.4618916512" lon="31.0872316360"><time>2026-09-02T12:49:33Z</time></trkpt><trkpt lat="59.4618916512" lon="31.0872316360"><time>2026-09-02T12:49:36Z</time></trkpt><trkpt lat="59.4618916512" lon="31.0872316360"><time>2026-09-02T12:49:38Z</time></trkpt><trkpt lat="59.4618916512" lon="31.0872316360"><time>2026-09-02T12:49:41Z</time></trkpt><trkpt lat="59.4618916512" lon="31.0872316360"><time>2026-09-02T12:49:43Z</time></trkpt><trkpt lat="59.4618916512" lon="31.0872316360"><time>2026-09-02T12:49:46Z</time></trkpt><trkpt lat="59.4618916512" lon="31.0872316360"><time>2026-09-02T12:49:48Z</time></trkpt><trkpt lat="59.4618916512" lon="31.0872316360"><time>2026-09-02T12:49:51Z</time></trkpt><trkpt lat="59.4618916512" lon="31.0872316360"><time>2026-09-02T12:49:53Z</time></trkpt><trkpt lat="59.4618916512" lon="31.0872316360"><time>2026-09-02T12:49:56Z</time></trkpt><trkpt lat="59.4618916512" lon="31.0872316360"><time>2026-09-02T12:49:58Z</time></trkpt><trkpt lat="59.4618916512" lon="31.0872316360"><time>2026-09-02T12:50:01Z</time></trkpt><trkpt lat="59.4618916512" lon="31.0872316360"><time>2026-09-02T12:50:03Z</time></trkpt><trkpt lat="59.4618916512" lon="31.0872316360"><time>2026-09-02T12:50:06Z</time></trkpt><trkpt lat="59.4618916512" lon="31.0872316360"><time>2026-09-02T12:50:08Z</time></trkpt><trkpt lat="59.4618916512" lon="31.0872316360"><time>2026-09-02T12:50:11Z</time></trkpt><trkpt lat="59.4619131088" lon="31.0872316360"><time>2026-09-02T12:50:13Z</time></trkpt><trkpt lat="59.4619131088" lon="31.0872316360"><time>2026-09-02T12:50:16Z</time></trkpt><trkpt lat="59.4619345665" lon="31.0872530937"><time>2026-09-02T12:50:18Z</time></trkpt><trkpt lat="59.4619560242" lon="31.0872960091"><time>2026-09-02T12:50:21Z</time></trkpt><trkpt lat="59.4619560242" lon="31.0874032974"><time>2026-09-02T12:50:23Z</time></trkpt><trkpt lat="59.4619774818" lon="31.0874462128"><time>2026-09-02T12:50:26Z</time></trkpt><trkpt lat="59.4619989395" lon="31.0875749588"><time>2026-09-02T12:50:28Z</time></trkpt><trkpt lat="59.4620203972" lon="31.0876607895"><time>2026-09-02T12:50:31Z</time></trkpt><trkpt lat="59.4620633125" lon="31.0877895355"><time>2026-09-02T12:50:33Z</time></trkpt><trkpt lat="59.4620633125" lon="31.0878753662"><time>2026-09-02T12:50:36Z</time></trkpt><trkpt lat="59.4620847702" lon="31.0879826546"><time>2026-09-02T12:50:38Z</time></trkpt><trkpt lat="59.4621062279" lon="31.0880255699"><time>2026-09-02T12:50:41Z</time></trkpt><trkpt lat="59.4621062279" lon="31.0881114006"><time>2026-09-02T12:50:43Z</time></trkpt><trkpt lat="59.4621062279" lon="31.0881328583"><time>2026-09-02T12:50:46Z</time></trkpt><trkpt lat="59.4620847702" lon="31.0881543159"><time>2026-09-02T12:50:48Z</time></trkpt><trkpt lat="59.4620847702" lon="31.0881543159"><time>2026-09-02T12:50:51Z</time></trkpt><trkpt lat="59.4620847702" lon="31.0881543159"><time>2026-09-02T12:50:53Z</time></trkpt><trkpt lat="59.4620847702" lon="31.0881543159"><time>2026-09-02T12:50:56Z</time></trkpt><trkpt lat="59.4620847702" lon="31.0881543159"><time>2026-09-02T12:50:58Z</time></trkpt><trkpt lat="59.4620847702" lon="31.0881543159"><time>2026-09-02T12:51:01Z</time></trkpt><trkpt lat="59.4620847702" lon="31.0881543159"><time>2026-09-02T12:51:03Z</time></trkpt><trkpt lat="59.4620847702" lon="31.0881543159"><time>2026-09-02T12:51:06Z</time></trkpt><trkpt lat="59.4621062279" lon="31.0880899429"><time>2026-09-02T12:51:08Z</time></trkpt><trkpt lat="59.4621062279" lon="31.0880255699"><time>2026-09-02T12:51:11Z</time></trkpt><trkpt lat="59.4621276855" lon="31.0880041122"><time>2026-09-02T12:51:13Z</time></trkpt><trkpt lat="59.4621276855" lon="31.0880041122"><time>2026-09-02T12:51:16Z</time></trkpt><trkpt lat="59.4621276855" lon="31.0880041122"><time>2026-09-02T12:51:18Z</time></trkpt><trkpt lat="59.4621276855" lon="31.0880041122"><time>2026-09-02T12:51:21Z</time></trkpt><trkpt lat="59.4621276855" lon="31.0880041122"><time>2026-09-02T12:51:23Z</time></trkpt><trkpt lat="59.4621276855" lon="31.0880041122"><time>2026-09-02T12:51:26Z</time></trkpt><trkpt lat="59.4621706009" lon="31.0879182816"><time>2026-09-02T12:51:31Z</time></trkpt><trkpt lat="59.4621920586" lon="31.0879182816"><time>2026-09-02T12:51:33Z</time></trkpt><trkpt lat="59.4622135162" lon="31.0879611969"><time>2026-09-02T12:51:36Z</time></trkpt><trkpt lat="59.4622564316" lon="31.0879826546"><time>2026-09-02T12:51:38Z</time></trkpt><trkpt lat="59.4622993469" lon="31.0880041122"><time>2026-09-02T12:51:41Z</time></trkpt><trkpt lat="59.4623208046" lon="31.0880041122"><time>2026-09-02T12:51:43Z</time></trkpt><trkpt lat="59.4623637199" lon="31.0880041122"><time>2026-09-02T12:51:46Z</time></trkpt><trkpt lat="59.4623851776" lon="31.0880041122"><time>2026-09-02T12:51:48Z</time></trkpt><trkpt lat="59.4624280930" lon="31.0879826546"><time>2026-09-02T12:51:51Z</time></trkpt><trkpt lat="59.4624495506" lon="31.0879826546"><time>2026-09-02T12:51:53Z</time></trkpt><trkpt lat="59.4624924660" lon="31.0880041122"><time>2026-09-02T12:51:56Z</time></trkpt><trkpt lat="59.4625139236" lon="31.0880041122"><time>2026-09-02T12:51:58Z</time></trkpt><trkpt lat="59.4625353813" lon="31.0880041122"><time>2026-09-02T12:52:01Z</time></trkpt><trkpt lat="59.4625353813" lon="31.0880041122"><time>2026-09-02T12:52:03Z</time></trkpt><trkpt lat="59.4625139236" lon="31.0879826546"><time>2026-09-02T12:52:06Z</time></trkpt><trkpt lat="59.4624924660" lon="31.0879182816"><time>2026-09-02T12:52:08Z</time></trkpt><trkpt lat="59.4624710083" lon="31.0879182816"><time>2026-09-02T12:52:11Z</time></trkpt><trkpt lat="59.4624710083" lon="31.0879397392"><time>2026-09-02T12:52:13Z</time></trkpt><trkpt lat="59.4624710083" lon="31.0879397392"><time>2026-09-02T12:52:16Z</time></trkpt><trkpt lat="59.4624710083" lon="31.0879182816"><time>2026-09-02T12:52:18Z</time></trkpt><trkpt lat="59.4624710083" lon="31.0879182816"><time>2026-09-02T12:52:21Z</time></trkpt><trkpt lat="59.4624710083" lon="31.0879182816"><time>2026-09-02T12:52:23Z</time></trkpt><trkpt lat="59.4624924660" lon="31.0879611969"><time>2026-09-02T12:52:26Z</time></trkpt><trkpt lat="59.4624924660" lon="31.0880041122"><time>2026-09-02T12:52:28Z</time></trkpt><trkpt lat="59.4625139236" lon="31.0880255699"><time>2026-09-02T12:52:31Z</time></trkpt><trkpt lat="59.4625139236" lon="31.0880470276"><time>2026-09-02T12:52:33Z</time></trkpt><trkpt lat="59.4625139236" lon="31.0880470276"><time>2026-09-02T12:52:36Z</time></trkpt><trkpt lat="59.4625139236" lon="31.0880470276"><time>2026-09-02T12:52:38Z</time></trkpt><trkpt lat="59.4625139236" lon="31.0880470276"><time>2026-09-02T12:52:41Z</time></trkpt><trkpt lat="59.4625139236" lon="31.0880470276"><time>2026-09-02T12:52:43Z</time></trkpt><trkpt lat="59.4625353813" lon="31.0880470276"><time>2026-09-02T12:52:46Z</time></trkpt><trkpt lat="59.4625568390" lon="31.0880899429"><time>2026-09-02T12:52:48Z</time></trkpt><trkpt lat="59.4625782967" lon="31.0881114006"><time>2026-09-02T12:52:51Z</time></trkpt><trkpt lat="59.4625782967" lon="31.0881328583"><time>2026-09-02T12:52:53Z</time></trkpt><trkpt lat="59.4625782967" lon="31.0881328583"><time>2026-09-02T12:52:56Z</time></trkpt><trkpt lat="59.4625782967" lon="31.0881328583"><time>2026-09-02T12:52:58Z</time></trkpt><trkpt lat="59.4625568390" lon="31.0881328583"><time>2026-09-02T12:53:01Z</time></trkpt><trkpt lat="59.4625353813" lon="31.0881328583"><time>2026-09-02T12:53:03Z</time></trkpt><trkpt lat="59.4625353813" lon="31.0881328583"><time>2026-09-02T12:53:06Z</time></trkpt><trkpt lat="59.4625353813" lon="31.0881328583"><time>2026-09-02T12:53:08Z</time></trkpt><trkpt lat="59.4625353813" lon="31.0881328583"><time>2026-09-02T12:53:11Z</time></trkpt><trkpt lat="59.4625353813" lon="31.0881328583"><time>2026-09-02T12:53:13Z</time></trkpt><trkpt lat="59.4625353813" lon="31.0881328583"><time>2026-09-02T12:53:16Z</time></trkpt><trkpt lat="59.4625353813" lon="31.0881328583"><time>2026-09-02T12:53:18Z</time></trkpt><trkpt lat="59.4625353813" lon="31.0881328583"><time>2026-09-02T12:53:21Z</time></trkpt><trkpt lat="59.4625353813" lon="31.0881328583"><time>2026-09-02T12:53:23Z</time></trkpt><trkpt lat="59.4625353813" lon="31.0881328583"><time>2026-09-02T12:53:26Z</time></trkpt><trkpt lat="59.4625353813" lon="31.0881328583"><time>2026-09-02T12:53:28Z</time></trkpt><trkpt lat="59.4625353813" lon="31.0881328583"><time>2026-09-02T12:53:31Z</time></trkpt><trkpt lat="59.4625353813" lon="31.0881328583"><time>2026-09-02T12:53:33Z</time></trkpt><trkpt lat="59.4625353813" lon="31.0881328583"><time>2026-09-02T12:53:36Z</time></trkpt><trkpt lat="59.4625353813" lon="31.0881328583"><time>2026-09-02T12:53:38Z</time></trkpt><trkpt lat="59.4625568390" lon="31.0881328583"><time>2026-09-02T12:53:41Z</time></trkpt><trkpt lat="59.4625568390" lon="31.0881328583"><time>2026-09-02T12:53:43Z</time></trkpt><trkpt lat="59.4625782967" lon="31.0881543159"><time>2026-09-02T12:53:46Z</time></trkpt><trkpt lat="59.4625782967" lon="31.0882186890"><time>2026-09-02T12:53:48Z</time></trkpt><trkpt lat="59.4625782967" lon="31.0882186890"><time>2026-09-02T12:53:51Z</time></trkpt><trkpt lat="59.4625997543" lon="31.0882401466"><time>2026-09-02T12:53:53Z</time></trkpt><trkpt lat="59.4625997543" lon="31.0882401466"><time>2026-09-02T12:53:56Z</time></trkpt><trkpt lat="59.4626212120" lon="31.0882616043"><time>2026-09-02T12:53:58Z</time></trkpt><trkpt lat="59.4626212120" lon="31.0882616043"><time>2026-09-02T12:54:01Z</time></trkpt><trkpt lat="59.4626641273" lon="31.0882830620"><time>2026-09-02T12:54:03Z</time></trkpt><trkpt lat="59.4626641273" lon="31.0883045197"><time>2026-09-02T12:54:06Z</time></trkpt><trkpt lat="59.4626641273" lon="31.0883045197"><time>2026-09-02T12:54:08Z</time></trkpt><trkpt lat="59.4626641273" lon="31.0883259773"><time>2026-09-02T12:54:11Z</time></trkpt><trkpt lat="59.4626641273" lon="31.0883474350"><time>2026-09-02T12:54:13Z</time></trkpt><trkpt lat="59.4626641273" lon="31.0883474350"><time>2026-09-02T12:54:16Z</time></trkpt><trkpt lat="59.4626641273" lon="31.0883474350"><time>2026-09-02T12:54:18Z</time></trkpt><trkpt lat="59.4626641273" lon="31.0883474350"><time>2026-09-02T12:54:21Z</time></trkpt><trkpt lat="59.4627070427" lon="31.0883474350"><time>2026-09-02T12:54:23Z</time></trkpt><trkpt lat="59.4627499580" lon="31.0883903503"><time>2026-09-02T12:54:26Z</time></trkpt><trkpt lat="59.4627928734" lon="31.0884761810"><time>2026-09-02T12:54:28Z</time></trkpt><trkpt lat="59.4627928734" lon="31.0885405540"><time>2026-09-02T12:54:31Z</time></trkpt><trkpt lat="59.4628357887" lon="31.0886263847"><time>2026-09-02T12:54:33Z</time></trkpt><trkpt lat="59.4628572464" lon="31.0886478424"><time>2026-09-02T12:54:36Z</time></trkpt><trkpt lat="59.4628787041" lon="31.0886478424"><time>2026-09-02T12:54:38Z</time></trkpt><trkpt lat="59.4629001617" lon="31.0886263847"><time>2026-09-02T12:54:41Z</time></trkpt><trkpt lat="59.4629216194" lon="31.0886049271"><time>2026-09-02T12:54:43Z</time></trkpt><trkpt lat="59.4629430771" lon="31.0886263847"><time>2026-09-02T12:54:46Z</time></trkpt><trkpt lat="59.4629645348" lon="31.0886478424"><time>2026-09-02T12:54:48Z</time></trkpt><trkpt lat="59.4630074501" lon="31.0886907578"><time>2026-09-02T12:54:51Z</time></trkpt><trkpt lat="59.4630289078" lon="31.0887336731"><time>2026-09-02T12:54:53Z</time></trkpt><trkpt lat="59.4630503654" lon="31.0887980461"><time>2026-09-02T12:54:56Z</time></trkpt><trkpt lat="59.4630932808" lon="31.0888624191"><time>2026-09-02T12:54:58Z</time></trkpt><trkpt lat="59.4630932808" lon="31.0889053345"><time>2026-09-02T12:55:01Z</time></trkpt><trkpt lat="59.4630932808" lon="31.0889267921"><time>2026-09-02T12:55:03Z</time></trkpt><trkpt lat="59.4630932808" lon="31.0889267921"><time>2026-09-02T12:55:06Z</time></trkpt><trkpt lat="59.4630503654" lon="31.0888838768"><time>2026-09-02T12:55:08Z</time></trkpt><trkpt lat="59.4629859924" lon="31.0888195038"><time>2026-09-02T12:55:11Z</time></trkpt><trkpt lat="59.4629430771" lon="31.0887336731"><time>2026-09-02T12:55:13Z</time></trkpt><trkpt lat="59.4629216194" lon="31.0887336731"><time>2026-09-02T12:55:16Z</time></trkpt><trkpt lat="59.4628787041" lon="31.0887551308"><time>2026-09-02T12:55:18Z</time></trkpt><trkpt lat="59.4628787041" lon="31.0887551308"><time>2026-09-02T12:55:21Z</time></trkpt><trkpt lat="59.4628787041" lon="31.0887551308"><time>2026-09-02T12:55:23Z</time></trkpt><trkpt lat="59.4628787041" lon="31.0887551308"><time>2026-09-02T12:55:26Z</time></trkpt><trkpt lat="59.4628572464" lon="31.0887336731"><time>2026-09-02T12:55:28Z</time></trkpt><trkpt lat="59.4628357887" lon="31.0887336731"><time>2026-09-02T12:55:31Z</time></trkpt><trkpt lat="59.4628357887" lon="31.0887551308"><time>2026-09-02T12:55:33Z</time></trkpt><trkpt lat="59.4628357887" lon="31.0887551308"><time>2026-09-02T12:55:36Z</time></trkpt><trkpt lat="59.4628357887" lon="31.0887551308"><time>2026-09-02T12:55:38Z</time></trkpt><trkpt lat="59.4628357887" lon="31.0887551308"><time>2026-09-02T12:55:41Z</time></trkpt><trkpt lat="59.4628357887" lon="31.0887551308"><time>2026-09-02T12:55:43Z</time></trkpt><trkpt lat="59.4628357887" lon="31.0887551308"><time>2026-09-02T12:55:46Z</time></trkpt><trkpt lat="59.4628357887" lon="31.0887551308"><time>2026-09-02T12:55:48Z</time></trkpt><trkpt lat="59.4628357887" lon="31.0887551308"><time>2026-09-02T12:55:51Z</time></trkpt><trkpt lat="59.4628357887" lon="31.0887551308"><time>2026-09-02T12:55:53Z</time></trkpt><trkpt lat="59.4628357887" lon="31.0887551308"><time>2026-09-02T12:55:56Z</time></trkpt><trkpt lat="59.4628357887" lon="31.0887551308"><time>2026-09-02T12:55:58Z</time></trkpt><trkpt lat="59.4628357887" lon="31.0887551308"><time>2026-09-02T12:56:01Z</time></trkpt><trkpt lat="59.4628357887" lon="31.0887551308"><time>2026-09-02T12:56:03Z</time></trkpt><trkpt lat="59.4628357887" lon="31.0887551308"><time>2026-09-02T12:56:06Z</time></trkpt><trkpt lat="59.4628357887" lon="31.0887551308"><time>2026-09-02T12:56:08Z</time></trkpt><trkpt lat="59.4628357887" lon="31.0887551308"><time>2026-09-02T12:56:11Z</time></trkpt><trkpt lat="59.4628357887" lon="31.0887551308"><time>2026-09-02T12:56:13Z</time></trkpt><trkpt lat="59.4628357887" lon="31.0887551308"><time>2026-09-02T12:56:16Z</time></trkpt><trkpt lat="59.4628357887" lon="31.0887551308"><time>2026-09-02T12:56:18Z</time></trkpt><trkpt lat="59.4628357887" lon="31.0887551308"><time>2026-09-02T12:56:21Z</time></trkpt><trkpt lat="59.4628357887" lon="31.0887551308"><time>2026-09-02T12:56:23Z</time></trkpt><trkpt lat="59.4628357887" lon="31.0887551308"><time>2026-09-02T12:56:26Z</time></trkpt><trkpt lat="59.4628357887" lon="31.0887551308"><time>2026-09-02T12:56:28Z</time></trkpt><trkpt lat="59.4628357887" lon="31.0887551308"><time>2026-09-02T12:56:31Z</time></trkpt><trkpt lat="59.4628357887" lon="31.0887551308"><time>2026-09-02T12:56:33Z</time></trkpt><trkpt lat="59.4628357887" lon="31.0887551308"><time>2026-09-02T12:56:36Z</time></trkpt><trkpt lat="59.4628357887" lon="31.0887551308"><time>2026-09-02T12:56:38Z</time></trkpt><trkpt lat="59.4627928734" lon="31.0887122154"><time>2026-09-02T12:56:41Z</time></trkpt><trkpt lat="59.4627714157" lon="31.0886693001"><time>2026-09-02T12:56:43Z</time></trkpt><trkpt lat="59.4627714157" lon="31.0885834694"><time>2026-09-02T12:56:46Z</time></trkpt><trkpt lat="59.4628143311" lon="31.0886049271"><time>2026-09-02T12:56:48Z</time></trkpt><trkpt lat="59.4628357887" lon="31.0886478424"><time>2026-09-02T12:56:51Z</time></trkpt><trkpt lat="59.4628357887" lon="31.0886693001"><time>2026-09-02T12:56:53Z</time></trkpt><trkpt lat="59.4628357887" lon="31.0886478424"><time>2026-09-02T12:56:56Z</time></trkpt><trkpt lat="59.4628357887" lon="31.0886478424"><time>2026-09-02T12:56:58Z</time></trkpt><trkpt lat="59.4628357887" lon="31.0886693001"><time>2026-09-02T12:57:01Z</time></trkpt><trkpt lat="59.4628357887" lon="31.0886693001"><time>2026-09-02T12:57:03Z</time></trkpt><trkpt lat="59.4628572464" lon="31.0886478424"><time>2026-09-02T12:57:06Z</time></trkpt><trkpt lat="59.4628572464" lon="31.0886049271"><time>2026-09-02T12:57:08Z</time></trkpt><trkpt lat="59.4628572464" lon="31.0885620117"><time>2026-09-02T12:57:11Z</time></trkpt><trkpt lat="59.4628572464" lon="31.0885405540"><time>2026-09-02T12:57:13Z</time></trkpt><trkpt lat="59.4628787041" lon="31.0885190964"><time>2026-09-02T12:57:16Z</time></trkpt><trkpt lat="59.4629001617" lon="31.0885190964"><time>2026-09-02T12:57:18Z</time></trkpt><trkpt lat="59.4629216194" lon="31.0885190964"><time>2026-09-02T12:57:21Z</time></trkpt><trkpt lat="59.4629216194" lon="31.0884976387"><time>2026-09-02T12:57:23Z</time></trkpt><trkpt lat="59.4629216194" lon="31.0884976387"><time>2026-09-02T12:57:26Z</time></trkpt><trkpt lat="59.4629216194" lon="31.0884976387"><time>2026-09-02T12:57:28Z</time></trkpt><trkpt lat="59.4629216194" lon="31.0884976387"><time>2026-09-02T12:57:31Z</time></trkpt><trkpt lat="59.4629216194" lon="31.0884976387"><time>2026-09-02T12:57:33Z</time></trkpt><trkpt lat="59.4629430771" lon="31.0884761810"><time>2026-09-02T12:57:36Z</time></trkpt><trkpt lat="59.4629645348" lon="31.0884547234"><time>2026-09-02T12:57:38Z</time></trkpt><trkpt lat="59.4629859924" lon="31.0884547234"><time>2026-09-02T12:57:41Z</time></trkpt><trkpt lat="59.4629859924" lon="31.0884118080"><time>2026-09-02T12:57:43Z</time></trkpt><trkpt lat="59.4630074501" lon="31.0883903503"><time>2026-09-02T12:57:46Z</time></trkpt><trkpt lat="59.4630074501" lon="31.0883903503"><time>2026-09-02T12:57:48Z</time></trkpt><trkpt lat="59.4630289078" lon="31.0883903503"><time>2026-09-02T12:57:51Z</time></trkpt><trkpt lat="59.4631147385" lon="31.0883474350"><time>2026-09-02T12:57:53Z</time></trkpt><trkpt lat="59.4631576538" lon="31.0882830620"><time>2026-09-02T12:57:56Z</time></trkpt><trkpt lat="59.4631576538" lon="31.0881972313"><time>2026-09-02T12:57:58Z</time></trkpt><trkpt lat="59.4631576538" lon="31.0881972313"><time>2026-09-02T12:58:01Z</time></trkpt><trkpt lat="59.4631791115" lon="31.0881757736"><time>2026-09-02T12:58:03Z</time></trkpt><trkpt lat="59.4632005692" lon="31.0881757736"><time>2026-09-02T12:58:06Z</time></trkpt><trkpt lat="59.4632005692" lon="31.0881972313"><time>2026-09-02T12:58:08Z</time></trkpt><trkpt lat="59.4631791115" lon="31.0881972313"><time>2026-09-02T12:58:11Z</time></trkpt><trkpt lat="59.4631791115" lon="31.0881757736"><time>2026-09-02T12:58:13Z</time></trkpt><trkpt lat="59.4631791115" lon="31.0881757736"><time>2026-09-02T12:58:16Z</time></trkpt><trkpt lat="59.4631791115" lon="31.0881757736"><time>2026-09-02T12:58:18Z</time></trkpt><trkpt lat="59.4631791115" lon="31.0881757736"><time>2026-09-02T12:58:21Z</time></trkpt><trkpt lat="59.4631791115" lon="31.0881543159"><time>2026-09-02T12:58:23Z</time></trkpt><trkpt lat="59.4631576538" lon="31.0881114006"><time>2026-09-02T12:58:26Z</time></trkpt><trkpt lat="59.4631576538" lon="31.0880899429"><time>2026-09-02T12:58:28Z</time></trkpt><trkpt lat="59.4631576538" lon="31.0880470276"><time>2026-09-02T12:58:31Z</time></trkpt><trkpt lat="59.4631576538" lon="31.0880470276"><time>2026-09-02T12:58:33Z</time></trkpt><trkpt lat="59.4631576538" lon="31.0880470276"><time>2026-09-02T12:58:36Z</time></trkpt><trkpt lat="59.4631576538" lon="31.0880470276"><time>2026-09-02T12:58:38Z</time></trkpt><trkpt lat="59.4631576538" lon="31.0880470276"><time>2026-09-02T12:58:41Z</time></trkpt><trkpt lat="59.4632005692" lon="31.0880041122"><time>2026-09-02T12:58:43Z</time></trkpt><trkpt lat="59.4632220268" lon="31.0879611969"><time>2026-09-02T12:58:46Z</time></trkpt><trkpt lat="59.4632434845" lon="31.0878753662"><time>2026-09-02T12:58:48Z</time></trkpt><trkpt lat="59.4632649422" lon="31.0878324509"><time>2026-09-02T12:58:51Z</time></trkpt><trkpt lat="59.4632863998" lon="31.0877680779"><time>2026-09-02T12:58:53Z</time></trkpt><trkpt lat="59.4632863998" lon="31.0877680779"><time>2026-09-02T12:58:56Z</time></trkpt><trkpt lat="59.4632863998" lon="31.0877680779"><time>2026-09-02T12:58:58Z</time></trkpt><trkpt lat="59.4632863998" lon="31.0877680779"><time>2026-09-02T12:59:01Z</time></trkpt><trkpt lat="59.4632863998" lon="31.0877680779"><time>2026-09-02T12:59:03Z</time></trkpt><trkpt lat="59.4633078575" lon="31.0877680779"><time>2026-09-02T12:59:06Z</time></trkpt><trkpt lat="59.4632863998" lon="31.0877680779"><time>2026-09-02T12:59:08Z</time></trkpt><trkpt lat="59.4632863998" lon="31.0877895355"><time>2026-09-02T12:59:11Z</time></trkpt><trkpt lat="59.4632649422" lon="31.0877895355"><time>2026-09-02T12:59:13Z</time></trkpt><trkpt lat="59.4632649422" lon="31.0877895355"><time>2026-09-02T12:59:16Z</time></trkpt><trkpt lat="59.4632434845" lon="31.0877895355"><time>2026-09-02T12:59:18Z</time></trkpt><trkpt lat="59.4632434845" lon="31.0877895355"><time>2026-09-02T12:59:21Z</time></trkpt><trkpt lat="59.4632434845" lon="31.0877895355"><time>2026-09-02T12:59:23Z</time></trkpt><trkpt lat="59.4632434845" lon="31.0877895355"><time>2026-09-02T12:59:26Z</time></trkpt><trkpt lat="59.4632434845" lon="31.0877895355"><time>2026-09-02T12:59:28Z</time></trkpt><trkpt lat="59.4632434845" lon="31.0877895355"><time>2026-09-02T12:59:31Z</time></trkpt><trkpt lat="59.4632434845" lon="31.0877895355"><time>2026-09-02T12:59:33Z</time></trkpt><trkpt lat="59.4632434845" lon="31.0877895355"><time>2026-09-02T12:59:36Z</time></trkpt><trkpt lat="59.4632434845" lon="31.0877895355"><time>2026-09-02T12:59:38Z</time></trkpt><trkpt lat="59.4632434845" lon="31.0877895355"><time>2026-09-02T12:59:41Z</time></trkpt><trkpt lat="59.4632434845" lon="31.0877895355"><time>2026-09-02T12:59:43Z</time></trkpt><trkpt lat="59.4632434845" lon="31.0877895355"><time>2026-09-02T12:59:46Z</time></trkpt><trkpt lat="59.4632434845" lon="31.0877895355"><time>2026-09-02T12:59:48Z</time></trkpt><trkpt lat="59.4632434845" lon="31.0877895355"><time>2026-09-02T12:59:51Z</time></trkpt><trkpt lat="59.4632434845" lon="31.0877895355"><time>2026-09-02T12:59:53Z</time></trkpt><trkpt lat="59.4632434845" lon="31.0877895355"><time>2026-09-02T12:59:56Z</time></trkpt><trkpt lat="59.4632434845" lon="31.0877895355"><time>2026-09-02T12:59:58Z</time></trkpt><trkpt lat="59.4632434845" lon="31.0877895355"><time>2026-09-02T13:00:01Z</time></trkpt><trkpt lat="59.4632434845" lon="31.0877895355"><time>2026-09-02T13:00:03Z</time></trkpt><trkpt lat="59.4632434845" lon="31.0877895355"><time>2026-09-02T13:00:06Z</time></trkpt><trkpt lat="59.4632434845" lon="31.0877895355"><time>2026-09-02T13:00:08Z</time></trkpt><trkpt lat="59.4632434845" lon="31.0877895355"><time>2026-09-02T13:00:11Z</time></trkpt><trkpt lat="59.4632434845" lon="31.0877895355"><time>2026-09-02T13:00:13Z</time></trkpt><trkpt lat="59.4632434845" lon="31.0877895355"><time>2026-09-02T13:00:16Z</time></trkpt><trkpt lat="59.4632434845" lon="31.0877895355"><time>2026-09-02T13:00:18Z</time></trkpt><trkpt lat="59.4632434845" lon="31.0877895355"><time>2026-09-02T13:00:21Z</time></trkpt><trkpt lat="59.4632434845" lon="31.0877895355"><time>2026-09-02T13:00:23Z</time></trkpt><trkpt lat="59.4632434845" lon="31.0877895355"><time>2026-09-02T13:00:26Z</time></trkpt><trkpt lat="59.4632434845" lon="31.0877895355"><time>2026-09-02T13:00:28Z</time></trkpt><trkpt lat="59.4632434845" lon="31.0877895355"><time>2026-09-02T13:00:31Z</time></trkpt><trkpt lat="59.4632434845" lon="31.0877895355"><time>2026-09-02T13:00:33Z</time></trkpt><trkpt lat="59.4632434845" lon="31.0877895355"><time>2026-09-02T13:00:36Z</time></trkpt><trkpt lat="59.4632649422" lon="31.0877895355"><time>2026-09-02T13:00:38Z</time></trkpt><trkpt lat="59.4632649422" lon="31.0877895355"><time>2026-09-02T13:00:41Z</time></trkpt><trkpt lat="59.4632649422" lon="31.0877895355"><time>2026-09-02T13:00:43Z</time></trkpt><trkpt lat="59.4632649422" lon="31.0877895355"><time>2026-09-02T13:00:46Z</time></trkpt><trkpt lat="59.4632649422" lon="31.0877895355"><time>2026-09-02T13:00:48Z</time></trkpt><trkpt lat="59.4632649422" lon="31.0877895355"><time>2026-09-02T13:00:51Z</time></trkpt><trkpt lat="59.4632649422" lon="31.0877895355"><time>2026-09-02T13:00:53Z</time></trkpt><trkpt lat="59.4632649422" lon="31.0877895355"><time>2026-09-02T13:00:56Z</time></trkpt><trkpt lat="59.4632649422" lon="31.0877895355"><time>2026-09-02T13:00:58Z</time></trkpt><trkpt lat="59.4632649422" lon="31.0877895355"><time>2026-09-02T13:01:01Z</time></trkpt><trkpt lat="59.4632649422" lon="31.0877895355"><time>2026-09-02T13:01:03Z</time></trkpt><trkpt lat="59.4632649422" lon="31.0877895355"><time>2026-09-02T13:01:06Z</time></trkpt><trkpt lat="59.4632649422" lon="31.0877895355"><time>2026-09-02T13:01:08Z</time></trkpt><trkpt lat="59.4632649422" lon="31.0877895355"><time>2026-09-02T13:01:11Z</time></trkpt><trkpt lat="59.4632649422" lon="31.0877895355"><time>2026-09-02T13:01:13Z</time></trkpt><trkpt lat="59.4632649422" lon="31.0877895355"><time>2026-09-02T13:01:16Z</time></trkpt><trkpt lat="59.4632434845" lon="31.0877895355"><time>2026-09-02T13:01:18Z</time></trkpt><trkpt lat="59.4632434845" lon="31.0877895355"><time>2026-09-02T13:01:21Z</time></trkpt><trkpt lat="59.4632434845" lon="31.0878324509"><time>2026-09-02T13:01:23Z</time></trkpt><trkpt lat="59.4632434845" lon="31.0878539085"><time>2026-09-02T13:01:26Z</time></trkpt><trkpt lat="59.4632434845" lon="31.0878539085"><time>2026-09-02T13:01:28Z</time></trkpt><trkpt lat="59.4632434845" lon="31.0878539085"><time>2026-09-02T13:01:31Z</time></trkpt><trkpt lat="59.4632434845" lon="31.0879182816"><time>2026-09-02T13:01:33Z</time></trkpt><trkpt lat="59.4632220268" lon="31.0878968239"><time>2026-09-02T13:01:36Z</time></trkpt><trkpt lat="59.4631791115" lon="31.0878968239"><time>2026-09-02T13:01:38Z</time></trkpt><trkpt lat="59.4631791115" lon="31.0878753662"><time>2026-09-02T13:01:41Z</time></trkpt><trkpt lat="59.4631576538" lon="31.0878324509"><time>2026-09-02T13:01:43Z</time></trkpt><trkpt lat="59.4631791115" lon="31.0877895355"><time>2026-09-02T13:01:46Z</time></trkpt><trkpt lat="59.4631576538" lon="31.0877251625"><time>2026-09-02T13:01:48Z</time></trkpt><trkpt lat="59.4631361961" lon="31.0877037048"><time>2026-09-02T13:01:51Z</time></trkpt><trkpt lat="59.4631361961" lon="31.0877037048"><time>2026-09-02T13:01:53Z</time></trkpt><trkpt lat="59.4631361961" lon="31.0877037048"><time>2026-09-02T13:01:56Z</time></trkpt><trkpt lat="59.4631361961" lon="31.0877466202"><time>2026-09-02T13:01:58Z</time></trkpt><trkpt lat="59.4631361961" lon="31.0877680779"><time>2026-09-02T13:02:01Z</time></trkpt><trkpt lat="59.4631147385" lon="31.0877680779"><time>2026-09-02T13:02:03Z</time></trkpt><trkpt lat="59.4630932808" lon="31.0877466202"><time>2026-09-02T13:02:06Z</time></trkpt><trkpt lat="59.4630718231" lon="31.0877251625"><time>2026-09-02T13:02:08Z</time></trkpt><trkpt lat="59.4630718231" lon="31.0877251625"><time>2026-09-02T13:02:11Z</time></trkpt><trkpt lat="59.4630718231" lon="31.0877037048"><time>2026-09-02T13:02:13Z</time></trkpt><trkpt lat="59.4630503654" lon="31.0877037048"><time>2026-09-02T13:02:16Z</time></trkpt><trkpt lat="59.4630503654" lon="31.0877037048"><time>2026-09-02T13:02:18Z</time></trkpt><trkpt lat="59.4630503654" lon="31.0877037048"><time>2026-09-02T13:02:21Z</time></trkpt><trkpt lat="59.4630289078" lon="31.0876822472"><time>2026-09-02T13:02:23Z</time></trkpt><trkpt lat="59.4630074501" lon="31.0876607895"><time>2026-09-02T13:02:26Z</time></trkpt><trkpt lat="59.4630074501" lon="31.0876607895"><time>2026-09-02T13:02:28Z</time></trkpt><trkpt lat="59.4630074501" lon="31.0876607895"><time>2026-09-02T13:02:31Z</time></trkpt><trkpt lat="59.4630074501" lon="31.0876607895"><time>2026-09-02T13:02:33Z</time></trkpt><trkpt lat="59.4630074501" lon="31.0876607895"><time>2026-09-02T13:02:36Z</time></trkpt><trkpt lat="59.4630074501" lon="31.0876607895"><time>2026-09-02T13:02:38Z</time></trkpt><trkpt lat="59.4630074501" lon="31.0876607895"><time>2026-09-02T13:02:41Z</time></trkpt><trkpt lat="59.4629859924" lon="31.0876607895"><time>2026-09-02T13:02:43Z</time></trkpt><trkpt lat="59.4629859924" lon="31.0876607895"><time>2026-09-02T13:02:46Z</time></trkpt><trkpt lat="59.4630074501" lon="31.0876607895"><time>2026-09-02T13:02:48Z</time></trkpt><trkpt lat="59.4630074501" lon="31.0876178741"><time>2026-09-02T13:02:51Z</time></trkpt><trkpt lat="59.4629859924" lon="31.0875964165"><time>2026-09-02T13:02:53Z</time></trkpt><trkpt lat="59.4629859924" lon="31.0875964165"><time>2026-09-02T13:02:56Z</time></trkpt><trkpt lat="59.4629859924" lon="31.0875964165"><time>2026-09-02T13:02:58Z</time></trkpt><trkpt lat="59.4629859924" lon="31.0875964165"><time>2026-09-02T13:03:01Z</time></trkpt><trkpt lat="59.4629645348" lon="31.0875749588"><time>2026-09-02T13:03:03Z</time></trkpt><trkpt lat="59.4629645348" lon="31.0875535011"><time>2026-09-02T13:03:06Z</time></trkpt><trkpt lat="59.4629430771" lon="31.0875105858"><time>2026-09-02T13:03:08Z</time></trkpt><trkpt lat="59.4629430771" lon="31.0874676704"><time>2026-09-02T13:03:11Z</time></trkpt><trkpt lat="59.4629430771" lon="31.0874247551"><time>2026-09-02T13:03:13Z</time></trkpt><trkpt lat="59.4629216194" lon="31.0873818398"><time>2026-09-02T13:03:16Z</time></trkpt><trkpt lat="59.4629216194" lon="31.0873603821"><time>2026-09-02T13:03:18Z</time></trkpt><trkpt lat="59.4629001617" lon="31.0873603821"><time>2026-09-02T13:03:21Z</time></trkpt><trkpt lat="59.4628787041" lon="31.0872960091"><time>2026-09-02T13:03:23Z</time></trkpt><trkpt lat="59.4628572464" lon="31.0872316360"><time>2026-09-02T13:03:26Z</time></trkpt><trkpt lat="59.4628357887" lon="31.0871672630"><time>2026-09-02T13:03:28Z</time></trkpt><trkpt lat="59.4628572464" lon="31.0871243477"><time>2026-09-02T13:03:31Z</time></trkpt><trkpt lat="59.4628572464" lon="31.0871028900"><time>2026-09-02T13:03:33Z</time></trkpt><trkpt lat="59.4628787041" lon="31.0870599747"><time>2026-09-02T13:03:36Z</time></trkpt><trkpt lat="59.4628787041" lon="31.0870599747"><time>2026-09-02T13:03:38Z</time></trkpt><trkpt lat="59.4628787041" lon="31.0870599747"><time>2026-09-02T13:03:41Z</time></trkpt><trkpt lat="59.4628787041" lon="31.0870599747"><time>2026-09-02T13:03:43Z</time></trkpt><trkpt lat="59.4628572464" lon="31.0870385170"><time>2026-09-02T13:03:46Z</time></trkpt><trkpt lat="59.4628357887" lon="31.0870170593"><time>2026-09-02T13:03:48Z</time></trkpt><trkpt lat="59.4628357887" lon="31.0870170593"><time>2026-09-02T13:03:51Z</time></trkpt><trkpt lat="59.4628357887" lon="31.0870170593"><time>2026-09-02T13:03:53Z</time></trkpt><trkpt lat="59.4628357887" lon="31.0870170593"><time>2026-09-02T13:03:56Z</time></trkpt><trkpt lat="59.4627928734" lon="31.0870170593"><time>2026-09-02T13:03:58Z</time></trkpt><trkpt lat="59.4627714157" lon="31.0869956017"><time>2026-09-02T13:04:01Z</time></trkpt><trkpt lat="59.4627499580" lon="31.0869741440"><time>2026-09-02T13:04:03Z</time></trkpt><trkpt lat="59.4627285004" lon="31.0869526863"><time>2026-09-02T13:04:06Z</time></trkpt><trkpt lat="59.4627499580" lon="31.0869097710"><time>2026-09-02T13:04:08Z</time></trkpt><trkpt lat="59.4627285004" lon="31.0868883133"><time>2026-09-02T13:04:11Z</time></trkpt><trkpt lat="59.4627070427" lon="31.0868239403"><time>2026-09-02T13:04:13Z</time></trkpt><trkpt lat="59.4626855850" lon="31.0867810249"><time>2026-09-02T13:04:16Z</time></trkpt><trkpt lat="59.4626641273" lon="31.0867166519"><time>2026-09-02T13:04:18Z</time></trkpt><trkpt lat="59.4626641273" lon="31.0866737366"><time>2026-09-02T13:04:21Z</time></trkpt><trkpt lat="59.4626426697" lon="31.0866308212"><time>2026-09-02T13:04:23Z</time></trkpt><trkpt lat="59.4626212120" lon="31.0866093636"><time>2026-09-02T13:04:26Z</time></trkpt><trkpt lat="59.4626212120" lon="31.0866093636"><time>2026-09-02T13:04:28Z</time></trkpt><trkpt lat="59.4626212120" lon="31.0866093636"><time>2026-09-02T13:04:31Z</time></trkpt><trkpt lat="59.4626212120" lon="31.0866737366"><time>2026-09-02T13:04:33Z</time></trkpt><trkpt lat="59.4626426697" lon="31.0866951942"><time>2026-09-02T13:04:36Z</time></trkpt><trkpt lat="59.4626426697" lon="31.0867166519"><time>2026-09-02T13:04:38Z</time></trkpt><trkpt lat="59.4626641273" lon="31.0867381096"><time>2026-09-02T13:04:41Z</time></trkpt><trkpt lat="59.4626641273" lon="31.0867381096"><time>2026-09-02T13:04:43Z</time></trkpt><trkpt lat="59.4626641273" lon="31.0867381096"><time>2026-09-02T13:04:46Z</time></trkpt><trkpt lat="59.4626641273" lon="31.0867381096"><time>2026-09-02T13:04:48Z</time></trkpt><trkpt lat="59.4626641273" lon="31.0867381096"><time>2026-09-02T13:04:51Z</time></trkpt><trkpt lat="59.4626426697" lon="31.0867381096"><time>2026-09-02T13:04:53Z</time></trkpt><trkpt lat="59.4626426697" lon="31.0867166519"><time>2026-09-02T13:04:56Z</time></trkpt><trkpt lat="59.4626641273" lon="31.0866951942"><time>2026-09-02T13:04:58Z</time></trkpt><trkpt lat="59.4626641273" lon="31.0866737366"><time>2026-09-02T13:05:01Z</time></trkpt><trkpt lat="59.4626426697" lon="31.0866522789"><time>2026-09-02T13:05:03Z</time></trkpt><trkpt lat="59.4626426697" lon="31.0866093636"><time>2026-09-02T13:05:06Z</time></trkpt><trkpt lat="59.4625997543" lon="31.0865235329"><time>2026-09-02T13:05:08Z</time></trkpt><trkpt lat="59.4625997543" lon="31.0864591599"><time>2026-09-02T13:05:11Z</time></trkpt><trkpt lat="59.4626212120" lon="31.0863733292"><time>2026-09-02T13:05:13Z</time></trkpt><trkpt lat="59.4626212120" lon="31.0863089561"><time>2026-09-02T13:05:16Z</time></trkpt><trkpt lat="59.4626212120" lon="31.0862231255"><time>2026-09-02T13:05:18Z</time></trkpt><trkpt lat="59.4626212120" lon="31.0861802101"><time>2026-09-02T13:05:21Z</time></trkpt><trkpt lat="59.4626212120" lon="31.0861587524"><time>2026-09-02T13:05:23Z</time></trkpt><trkpt lat="59.4626212120" lon="31.0861158371"><time>2026-09-02T13:05:26Z</time></trkpt><trkpt lat="59.4626212120" lon="31.0860729218"><time>2026-09-02T13:05:28Z</time></trkpt><trkpt lat="59.4626212120" lon="31.0860300064"><time>2026-09-02T13:05:31Z</time></trkpt><trkpt lat="59.4626641273" lon="31.0859441757"><time>2026-09-02T13:05:33Z</time></trkpt><trkpt lat="59.4626855850" lon="31.0858798027"><time>2026-09-02T13:05:36Z</time></trkpt><trkpt lat="59.4626855850" lon="31.0858154297"><time>2026-09-02T13:05:38Z</time></trkpt><trkpt lat="59.4626855850" lon="31.0857939720"><time>2026-09-02T13:05:41Z</time></trkpt><trkpt lat="59.4626855850" lon="31.0857510567"><time>2026-09-02T13:05:43Z</time></trkpt><trkpt lat="59.4626855850" lon="31.0857510567"><time>2026-09-02T13:05:46Z</time></trkpt><trkpt lat="59.4626641273" lon="31.0857295990"><time>2026-09-02T13:05:48Z</time></trkpt><trkpt lat="59.4626641273" lon="31.0857295990"><time>2026-09-02T13:05:51Z</time></trkpt><trkpt lat="59.4626641273" lon="31.0857295990"><time>2026-09-02T13:05:53Z</time></trkpt><trkpt lat="59.4626426697" lon="31.0857510567"><time>2026-09-02T13:05:56Z</time></trkpt><trkpt lat="59.4626212120" lon="31.0857510567"><time>2026-09-02T13:05:58Z</time></trkpt><trkpt lat="59.4626212120" lon="31.0857510567"><time>2026-09-02T13:06:01Z</time></trkpt><trkpt lat="59.4626212120" lon="31.0857510567"><time>2026-09-02T13:06:03Z</time></trkpt><trkpt lat="59.4625782967" lon="31.0857939720"><time>2026-09-02T13:06:06Z</time></trkpt><trkpt lat="59.4625568390" lon="31.0858368874"><time>2026-09-02T13:06:08Z</time></trkpt><trkpt lat="59.4625353813" lon="31.0859012604"><time>2026-09-02T13:06:11Z</time></trkpt><trkpt lat="59.4625139236" lon="31.0859656334"><time>2026-09-02T13:06:13Z</time></trkpt><trkpt lat="59.4624924660" lon="31.0859870911"><time>2026-09-02T13:06:16Z</time></trkpt><trkpt lat="59.4624710083" lon="31.0860085487"><time>2026-09-02T13:06:18Z</time></trkpt><trkpt lat="59.4624495506" lon="31.0860300064"><time>2026-09-02T13:06:21Z</time></trkpt><trkpt lat="59.4623851776" lon="31.0860300064"><time>2026-09-02T13:06:23Z</time></trkpt><trkpt lat="59.4623851776" lon="31.0860085487"><time>2026-09-02T13:06:26Z</time></trkpt><trkpt lat="59.4623422623" lon="31.0859656334"><time>2026-09-02T13:06:28Z</time></trkpt><trkpt lat="59.4623422623" lon="31.0859656334"><time>2026-09-02T13:06:31Z</time></trkpt><trkpt lat="59.4623422623" lon="31.0859441757"><time>2026-09-02T13:06:33Z</time></trkpt><trkpt lat="59.4623422623" lon="31.0859441757"><time>2026-09-02T13:06:36Z</time></trkpt><trkpt lat="59.4623422623" lon="31.0859441757"><time>2026-09-02T13:06:38Z</time></trkpt><trkpt lat="59.4623422623" lon="31.0859441757"><time>2026-09-02T13:06:41Z</time></trkpt><trkpt lat="59.4623422623" lon="31.0859441757"><time>2026-09-02T13:06:43Z</time></trkpt><trkpt lat="59.4623422623" lon="31.0859441757"><time>2026-09-02T13:06:46Z</time></trkpt><trkpt lat="59.4623422623" lon="31.0859441757"><time>2026-09-02T13:06:48Z</time></trkpt><trkpt lat="59.4623422623" lon="31.0859441757"><time>2026-09-02T13:06:51Z</time></trkpt><trkpt lat="59.4623208046" lon="31.0859441757"><time>2026-09-02T13:06:53Z</time></trkpt><trkpt lat="59.4623208046" lon="31.0859227180"><time>2026-09-02T13:06:56Z</time></trkpt><trkpt lat="59.4622993469" lon="31.0858583450"><time>2026-09-02T13:06:58Z</time></trkpt><trkpt lat="59.4622564316" lon="31.0858368874"><time>2026-09-02T13:07:01Z</time></trkpt><trkpt lat="59.4622135162" lon="31.0857939720"><time>2026-09-02T13:07:03Z</time></trkpt><trkpt lat="59.4621920586" lon="31.0857510567"><time>2026-09-02T13:07:06Z</time></trkpt><trkpt lat="59.4621706009" lon="31.0857510567"><time>2026-09-02T13:07:08Z</time></trkpt><trkpt lat="59.4621706009" lon="31.0857510567"><time>2026-09-02T13:07:11Z</time></trkpt><trkpt lat="59.4621706009" lon="31.0857510567"><time>2026-09-02T13:07:13Z</time></trkpt><trkpt lat="59.4621706009" lon="31.0857510567"><time>2026-09-02T13:07:16Z</time></trkpt><trkpt lat="59.4621706009" lon="31.0857510567"><time>2026-09-02T13:07:18Z</time></trkpt><trkpt lat="59.4621706009" lon="31.0857295990"><time>2026-09-02T13:07:21Z</time></trkpt><trkpt lat="59.4621706009" lon="31.0857295990"><time>2026-09-02T13:07:23Z</time></trkpt><trkpt lat="59.4621706009" lon="31.0857295990"><time>2026-09-02T13:07:26Z</time></trkpt><trkpt lat="59.4621706009" lon="31.0857295990"><time>2026-09-02T13:07:28Z</time></trkpt><trkpt lat="59.4621491432" lon="31.0857510567"><time>2026-09-02T13:07:31Z</time></trkpt><trkpt lat="59.4621491432" lon="31.0857725143"><time>2026-09-02T13:07:33Z</time></trkpt><trkpt lat="59.4621276855" lon="31.0857725143"><time>2026-09-02T13:07:36Z</time></trkpt><trkpt lat="59.4621062279" lon="31.0857725143"><time>2026-09-02T13:07:38Z</time></trkpt><trkpt lat="59.4620847702" lon="31.0857725143"><time>2026-09-02T13:07:41Z</time></trkpt><trkpt lat="59.4620633125" lon="31.0857725143"><time>2026-09-02T13:07:43Z</time></trkpt><trkpt lat="59.4620633125" lon="31.0857939720"><time>2026-09-02T13:07:46Z</time></trkpt><trkpt lat="59.4620633125" lon="31.0858154297"><time>2026-09-02T13:07:51Z</time></trkpt><trkpt lat="59.4620633125" lon="31.0858154297"><time>2026-09-02T13:07:53Z</time></trkpt><trkpt lat="59.4620418549" lon="31.0858368874"><time>2026-09-02T13:07:56Z</time></trkpt><trkpt lat="59.4620418549" lon="31.0858368874"><time>2026-09-02T13:07:58Z</time></trkpt><trkpt lat="59.4620418549" lon="31.0858368874"><time>2026-09-02T13:08:01Z</time></trkpt><trkpt lat="59.4620418549" lon="31.0858368874"><time>2026-09-02T13:08:03Z</time></trkpt><trkpt lat="59.4620418549" lon="31.0858368874"><time>2026-09-02T13:08:06Z</time></trkpt><trkpt lat="59.4620418549" lon="31.0858368874"><time>2026-09-02T13:08:08Z</time></trkpt><trkpt lat="59.4620633125" lon="31.0858154297"><time>2026-09-02T13:08:11Z</time></trkpt><trkpt lat="59.4620847702" lon="31.0858154297"><time>2026-09-02T13:08:13Z</time></trkpt><trkpt lat="59.4620847702" lon="31.0858368874"><time>2026-09-02T13:08:16Z</time></trkpt><trkpt lat="59.4620847702" lon="31.0858368874"><time>2026-09-02T13:08:18Z</time></trkpt><trkpt lat="59.4621062279" lon="31.0858368874"><time>2026-09-02T13:08:21Z</time></trkpt><trkpt lat="59.4621276855" lon="31.0858154297"><time>2026-09-02T13:08:23Z</time></trkpt><trkpt lat="59.4621276855" lon="31.0857939720"><time>2026-09-02T13:08:26Z</time></trkpt><trkpt lat="59.4621062279" lon="31.0857939720"><time>2026-09-02T13:08:28Z</time></trkpt><trkpt lat="59.4621062279" lon="31.0857939720"><time>2026-09-02T13:08:31Z</time></trkpt><trkpt lat="59.4621062279" lon="31.0857939720"><time>2026-09-02T13:08:33Z</time></trkpt><trkpt lat="59.4621062279" lon="31.0857939720"><time>2026-09-02T13:08:36Z</time></trkpt><trkpt lat="59.4621062279" lon="31.0857939720"><time>2026-09-02T13:08:38Z</time></trkpt><trkpt lat="59.4621062279" lon="31.0857939720"><time>2026-09-02T13:08:41Z</time></trkpt><trkpt lat="59.4621062279" lon="31.0857939720"><time>2026-09-02T13:08:43Z</time></trkpt><trkpt lat="59.4621062279" lon="31.0857939720"><time>2026-09-02T13:08:46Z</time></trkpt><trkpt lat="59.4621062279" lon="31.0857939720"><time>2026-09-02T13:08:48Z</time></trkpt><trkpt lat="59.4621062279" lon="31.0857939720"><time>2026-09-02T13:08:51Z</time></trkpt><trkpt lat="59.4621062279" lon="31.0857939720"><time>2026-09-02T13:08:53Z</time></trkpt><trkpt lat="59.4621062279" lon="31.0857939720"><time>2026-09-02T13:08:56Z</time></trkpt><trkpt lat="59.4621062279" lon="31.0857939720"><time>2026-09-02T13:08:58Z</time></trkpt><trkpt lat="59.4621062279" lon="31.0857725143"><time>2026-09-02T13:09:01Z</time></trkpt><trkpt lat="59.4621062279" lon="31.0857295990"><time>2026-09-02T13:09:03Z</time></trkpt><trkpt lat="59.4621062279" lon="31.0857295990"><time>2026-09-02T13:09:06Z</time></trkpt><trkpt lat="59.4621062279" lon="31.0857295990"><time>2026-09-02T13:09:08Z</time></trkpt><trkpt lat="59.4621062279" lon="31.0857295990"><time>2026-09-02T13:09:11Z</time></trkpt><trkpt lat="59.4621062279" lon="31.0857295990"><time>2026-09-02T13:09:13Z</time></trkpt><trkpt lat="59.4621062279" lon="31.0857295990"><time>2026-09-02T13:09:16Z</time></trkpt><trkpt lat="59.4621062279" lon="31.0857295990"><time>2026-09-02T13:09:18Z</time></trkpt><trkpt lat="59.4621062279" lon="31.0857295990"><time>2026-09-02T13:09:21Z</time></trkpt><trkpt lat="59.4621062279" lon="31.0857295990"><time>2026-09-02T13:09:23Z</time></trkpt><trkpt lat="59.4621062279" lon="31.0857295990"><time>2026-09-02T13:09:26Z</time></trkpt><trkpt lat="59.4621062279" lon="31.0857295990"><time>2026-09-02T13:09:28Z</time></trkpt><trkpt lat="59.4621062279" lon="31.0857295990"><time>2026-09-02T13:09:31Z</time></trkpt><trkpt lat="59.4621062279" lon="31.0857295990"><time>2026-09-02T13:09:33Z</time></trkpt><trkpt lat="59.4621062279" lon="31.0857295990"><time>2026-09-02T13:09:36Z</time></trkpt><trkpt lat="59.4621062279" lon="31.0857295990"><time>2026-09-02T13:09:38Z</time></trkpt><trkpt lat="59.4621062279" lon="31.0857295990"><time>2026-09-02T13:09:41Z</time></trkpt><trkpt lat="59.4621062279" lon="31.0857295990"><time>2026-09-02T13:09:43Z</time></trkpt><trkpt lat="59.4621062279" lon="31.0857295990"><time>2026-09-02T13:09:46Z</time></trkpt><trkpt lat="59.4621062279" lon="31.0857295990"><time>2026-09-02T13:09:48Z</time></trkpt><trkpt lat="59.4621062279" lon="31.0857295990"><time>2026-09-02T13:09:51Z</time></trkpt><trkpt lat="59.4621062279" lon="31.0857295990"><time>2026-09-02T13:09:53Z</time></trkpt><trkpt lat="59.4621062279" lon="31.0857295990"><time>2026-09-02T13:09:56Z</time></trkpt><trkpt lat="59.4621062279" lon="31.0857725143"><time>2026-09-02T13:09:58Z</time></trkpt><trkpt lat="59.4620847702" lon="31.0857510567"><time>2026-09-02T13:10:01Z</time></trkpt><trkpt lat="59.4621062279" lon="31.0857510567"><time>2026-09-02T13:10:03Z</time></trkpt><trkpt lat="59.4621062279" lon="31.0857510567"><time>2026-09-02T13:10:06Z</time></trkpt><trkpt lat="59.4621062279" lon="31.0857510567"><time>2026-09-02T13:10:08Z</time></trkpt><trkpt lat="59.4621062279" lon="31.0857510567"><time>2026-09-02T13:10:11Z</time></trkpt><trkpt lat="59.4621276855" lon="31.0857295990"><time>2026-09-02T13:10:13Z</time></trkpt><trkpt lat="59.4621276855" lon="31.0857295990"><time>2026-09-02T13:10:16Z</time></trkpt><trkpt lat="59.4621276855" lon="31.0857295990"><time>2026-09-02T13:10:18Z</time></trkpt><trkpt lat="59.4621276855" lon="31.0857295990"><time>2026-09-02T13:10:21Z</time></trkpt><trkpt lat="59.4621276855" lon="31.0857295990"><time>2026-09-02T13:10:23Z</time></trkpt><trkpt lat="59.4621276855" lon="31.0857295990"><time>2026-09-02T13:10:26Z</time></trkpt><trkpt lat="59.4621276855" lon="31.0857295990"><time>2026-09-02T13:10:28Z</time></trkpt><trkpt lat="59.4621276855" lon="31.0857295990"><time>2026-09-02T13:10:31Z</time></trkpt><trkpt lat="59.4621062279" lon="31.0857295990"><time>2026-09-02T13:10:33Z</time></trkpt><trkpt lat="59.4620847702" lon="31.0857081413"><time>2026-09-02T13:10:36Z</time></trkpt><trkpt lat="59.4620847702" lon="31.0857081413"><time>2026-09-02T13:10:38Z</time></trkpt><trkpt lat="59.4620847702" lon="31.0857510567"><time>2026-09-02T13:10:41Z</time></trkpt><trkpt lat="59.4620418549" lon="31.0857510567"><time>2026-09-02T13:10:43Z</time></trkpt><trkpt lat="59.4620203972" lon="31.0857510567"><time>2026-09-02T13:10:46Z</time></trkpt><trkpt lat="59.4620203972" lon="31.0857510567"><time>2026-09-02T13:10:48Z</time></trkpt><trkpt lat="59.4620203972" lon="31.0857510567"><time>2026-09-02T13:10:51Z</time></trkpt><trkpt lat="59.4620203972" lon="31.0857510567"><time>2026-09-02T13:10:53Z</time></trkpt><trkpt lat="59.4620203972" lon="31.0857510567"><time>2026-09-02T13:10:56Z</time></trkpt><trkpt lat="59.4620203972" lon="31.0857510567"><time>2026-09-02T13:10:58Z</time></trkpt><trkpt lat="59.4620203972" lon="31.0857510567"><time>2026-09-02T13:11:01Z</time></trkpt><trkpt lat="59.4620203972" lon="31.0857510567"><time>2026-09-02T13:11:03Z</time></trkpt><trkpt lat="59.4620418549" lon="31.0857510567"><time>2026-09-02T13:11:06Z</time></trkpt><trkpt lat="59.4620418549" lon="31.0857295990"><time>2026-09-02T13:11:08Z</time></trkpt><trkpt lat="59.4620418549" lon="31.0857295990"><time>2026-09-02T13:11:11Z</time></trkpt><trkpt lat="59.4620418549" lon="31.0856866837"><time>2026-09-02T13:11:13Z</time></trkpt><trkpt lat="59.4620633125" lon="31.0856223106"><time>2026-09-02T13:11:16Z</time></trkpt><trkpt lat="59.4620847702" lon="31.0855579376"><time>2026-09-02T13:11:18Z</time></trkpt><trkpt lat="59.4621062279" lon="31.0854506493"><time>2026-09-02T13:11:21Z</time></trkpt><trkpt lat="59.4621062279" lon="31.0854077339"><time>2026-09-02T13:11:23Z</time></trkpt><trkpt lat="59.4621276855" lon="31.0853433609"><time>2026-09-02T13:11:26Z</time></trkpt><trkpt lat="59.4621491432" lon="31.0853219032"><time>2026-09-02T13:11:28Z</time></trkpt><trkpt lat="59.4621491432" lon="31.0853004456"><time>2026-09-02T13:11:31Z</time></trkpt><trkpt lat="59.4621706009" lon="31.0852789879"><time>2026-09-02T13:11:33Z</time></trkpt><trkpt lat="59.4621920586" lon="31.0852789879"><time>2026-09-02T13:11:36Z</time></trkpt><trkpt lat="59.4621920586" lon="31.0852789879"><time>2026-09-02T13:11:38Z</time></trkpt><trkpt lat="59.4621920586" lon="31.0852575302"><time>2026-09-02T13:11:41Z</time></trkpt><trkpt lat="59.4621706009" lon="31.0852575302"><time>2026-09-02T13:11:43Z</time></trkpt><trkpt lat="59.4621491432" lon="31.0852146149"><time>2026-09-02T13:11:46Z</time></trkpt><trkpt lat="59.4621491432" lon="31.0851931572"><time>2026-09-02T13:11:48Z</time></trkpt><trkpt lat="59.4621276855" lon="31.0851931572"><time>2026-09-02T13:11:51Z</time></trkpt><trkpt lat="59.4620633125" lon="31.0851502419"><time>2026-09-02T13:11:53Z</time></trkpt><trkpt lat="59.4619989395" lon="31.0850644112"><time>2026-09-02T13:11:56Z</time></trkpt><trkpt lat="59.4619989395" lon="31.0850429535"><time>2026-09-02T13:11:58Z</time></trkpt><trkpt lat="59.4620203972" lon="31.0850214958"><time>2026-09-02T13:12:01Z</time></trkpt><trkpt lat="59.4619989395" lon="31.0850000381"><time>2026-09-02T13:12:03Z</time></trkpt><trkpt lat="59.4619774818" lon="31.0850429535"><time>2026-09-02T13:12:06Z</time></trkpt><trkpt lat="59.4619345665" lon="31.0850644112"><time>2026-09-02T13:12:08Z</time></trkpt><trkpt lat="59.4619131088" lon="31.0850644112"><time>2026-09-02T13:12:11Z</time></trkpt><trkpt lat="59.4619345665" lon="31.0850429535"><time>2026-09-02T13:12:13Z</time></trkpt><trkpt lat="59.4619345665" lon="31.0850000381"><time>2026-09-02T13:12:16Z</time></trkpt><trkpt lat="59.4619989395" lon="31.0848927498"><time>2026-09-02T13:12:18Z</time></trkpt><trkpt lat="59.4620633125" lon="31.0848927498"><time>2026-09-02T13:12:21Z</time></trkpt><trkpt lat="59.4621062279" lon="31.0849142075"><time>2026-09-02T13:12:23Z</time></trkpt><trkpt lat="59.4620847702" lon="31.0849785805"><time>2026-09-02T13:12:26Z</time></trkpt><trkpt lat="59.4620418549" lon="31.0850214958"><time>2026-09-02T13:12:28Z</time></trkpt><trkpt lat="59.4620418549" lon="31.0850644112"><time>2026-09-02T13:12:31Z</time></trkpt><trkpt lat="59.4620203972" lon="31.0851502419"><time>2026-09-02T13:12:33Z</time></trkpt><trkpt lat="59.4619774818" lon="31.0851287842"><time>2026-09-02T13:12:36Z</time></trkpt><trkpt lat="59.4619774818" lon="31.0851287842"><time>2026-09-02T13:12:38Z</time></trkpt><trkpt lat="59.4619560242" lon="31.0850858688"><time>2026-09-02T13:12:41Z</time></trkpt><trkpt lat="59.4619560242" lon="31.0850644112"><time>2026-09-02T13:12:43Z</time></trkpt><trkpt lat="59.4619345665" lon="31.0850429535"><time>2026-09-02T13:12:46Z</time></trkpt><trkpt lat="59.4619131088" lon="31.0850429535"><time>2026-09-02T13:12:48Z</time></trkpt><trkpt lat="59.4619131088" lon="31.0850429535"><time>2026-09-02T13:12:51Z</time></trkpt><trkpt lat="59.4619131088" lon="31.0850214958"><time>2026-09-02T13:12:53Z</time></trkpt><trkpt lat="59.4619345665" lon="31.0850000381"><time>2026-09-02T13:12:56Z</time></trkpt><trkpt lat="59.4619345665" lon="31.0850000381"><time>2026-09-02T13:12:58Z</time></trkpt><trkpt lat="59.4619345665" lon="31.0850000381"><time>2026-09-02T13:13:01Z</time></trkpt><trkpt lat="59.4619345665" lon="31.0850000381"><time>2026-09-02T13:13:03Z</time></trkpt><trkpt lat="59.4619345665" lon="31.0849785805"><time>2026-09-02T13:13:06Z</time></trkpt><trkpt lat="59.4619131088" lon="31.0848927498"><time>2026-09-02T13:13:08Z</time></trkpt><trkpt lat="59.4619131088" lon="31.0848498344"><time>2026-09-02T13:13:11Z</time></trkpt><trkpt lat="59.4618701935" lon="31.0848498344"><time>2026-09-02T13:13:13Z</time></trkpt><trkpt lat="59.4618487358" lon="31.0848712921"><time>2026-09-02T13:13:16Z</time></trkpt><trkpt lat="59.4618272781" lon="31.0849785805"><time>2026-09-02T13:13:18Z</time></trkpt><trkpt lat="59.4618272781" lon="31.0850429535"><time>2026-09-02T13:13:21Z</time></trkpt><trkpt lat="59.4618058205" lon="31.0851073265"><time>2026-09-02T13:13:23Z</time></trkpt><trkpt lat="59.4618272781" lon="31.0851287842"><time>2026-09-02T13:13:26Z</time></trkpt><trkpt lat="59.4618701935" lon="31.0852360725"><time>2026-09-02T13:13:28Z</time></trkpt><trkpt lat="59.4618701935" lon="31.0852146149"><time>2026-09-02T13:13:31Z</time></trkpt><trkpt lat="59.4618701935" lon="31.0851931572"><time>2026-09-02T13:13:33Z</time></trkpt><trkpt lat="59.4618487358" lon="31.0851931572"><time>2026-09-02T13:13:36Z</time></trkpt><trkpt lat="59.4618272781" lon="31.0851073265"><time>2026-09-02T13:13:38Z</time></trkpt><trkpt lat="59.4618272781" lon="31.0850858688"><time>2026-09-02T13:13:41Z</time></trkpt><trkpt lat="59.4618272781" lon="31.0850644112"><time>2026-09-02T13:13:43Z</time></trkpt><trkpt lat="59.4618272781" lon="31.0850644112"><time>2026-09-02T13:13:46Z</time></trkpt><trkpt lat="59.4618272781" lon="31.0850429535"><time>2026-09-02T13:13:48Z</time></trkpt><trkpt lat="59.4618272781" lon="31.0850429535"><time>2026-09-02T13:13:51Z</time></trkpt><trkpt lat="59.4618058205" lon="31.0850644112"><time>2026-09-02T13:13:53Z</time></trkpt><trkpt lat="59.4618058205" lon="31.0850644112"><time>2026-09-02T13:13:56Z</time></trkpt><trkpt lat="59.4617843628" lon="31.0851073265"><time>2026-09-02T13:13:58Z</time></trkpt><trkpt lat="59.4617843628" lon="31.0851502419"><time>2026-09-02T13:14:01Z</time></trkpt><trkpt lat="59.4617629051" lon="31.0852146149"><time>2026-09-02T13:14:03Z</time></trkpt><trkpt lat="59.4617629051" lon="31.0852575302"><time>2026-09-02T13:14:06Z</time></trkpt><trkpt lat="59.4617629051" lon="31.0852789879"><time>2026-09-02T13:14:08Z</time></trkpt><trkpt lat="59.4617629051" lon="31.0852789879"><time>2026-09-02T13:14:11Z</time></trkpt><trkpt lat="59.4617629051" lon="31.0853004456"><time>2026-09-02T13:14:13Z</time></trkpt><trkpt lat="59.4617629051" lon="31.0853004456"><time>2026-09-02T13:14:16Z</time></trkpt><trkpt lat="59.4617629051" lon="31.0853004456"><time>2026-09-02T13:14:18Z</time></trkpt><trkpt lat="59.4617629051" lon="31.0853004456"><time>2026-09-02T13:14:21Z</time></trkpt><trkpt lat="59.4617629051" lon="31.0853004456"><time>2026-09-02T13:14:23Z</time></trkpt><trkpt lat="59.4617629051" lon="31.0853004456"><time>2026-09-02T13:14:26Z</time></trkpt><trkpt lat="59.4617843628" lon="31.0853219032"><time>2026-09-02T13:14:28Z</time></trkpt><trkpt lat="59.4617843628" lon="31.0853433609"><time>2026-09-02T13:14:31Z</time></trkpt><trkpt lat="59.4617843628" lon="31.0853648186"><time>2026-09-02T13:14:33Z</time></trkpt><trkpt lat="59.4617843628" lon="31.0853433609"><time>2026-09-02T13:14:36Z</time></trkpt><trkpt lat="59.4617843628" lon="31.0853219032"><time>2026-09-02T13:14:38Z</time></trkpt><trkpt lat="59.4617843628" lon="31.0852575302"><time>2026-09-02T13:14:41Z</time></trkpt><trkpt lat="59.4617629051" lon="31.0851502419"><time>2026-09-02T13:14:43Z</time></trkpt><trkpt lat="59.4617629051" lon="31.0851502419"><time>2026-09-02T13:14:46Z</time></trkpt><trkpt lat="59.4617629051" lon="31.0851502419"><time>2026-09-02T13:14:48Z</time></trkpt><trkpt lat="59.4617629051" lon="31.0851502419"><time>2026-09-02T13:14:51Z</time></trkpt><trkpt lat="59.4617629051" lon="31.0851287842"><time>2026-09-02T13:14:53Z</time></trkpt><trkpt lat="59.4617629051" lon="31.0851073265"><time>2026-09-02T13:14:56Z</time></trkpt><trkpt lat="59.4617843628" lon="31.0850429535"><time>2026-09-02T13:14:58Z</time></trkpt><trkpt lat="59.4617843628" lon="31.0850429535"><time>2026-09-02T13:15:01Z</time></trkpt><trkpt lat="59.4617843628" lon="31.0850214958"><time>2026-09-02T13:15:03Z</time></trkpt><trkpt lat="59.4617843628" lon="31.0850214958"><time>2026-09-02T13:15:06Z</time></trkpt><trkpt lat="59.4617843628" lon="31.0850214958"><time>2026-09-02T13:15:08Z</time></trkpt><trkpt lat="59.4617843628" lon="31.0850214958"><time>2026-09-02T13:15:11Z</time></trkpt><trkpt lat="59.4617414474" lon="31.0849785805"><time>2026-09-02T13:15:13Z</time></trkpt><trkpt lat="59.4617414474" lon="31.0849785805"><time>2026-09-02T13:15:16Z</time></trkpt><trkpt lat="59.4616985321" lon="31.0849571228"><time>2026-09-02T13:15:18Z</time></trkpt><trkpt lat="59.4616985321" lon="31.0849571228"><time>2026-09-02T13:15:21Z</time></trkpt><trkpt lat="59.4616985321" lon="31.0850000381"><time>2026-09-02T13:15:23Z</time></trkpt><trkpt lat="59.4617199898" lon="31.0850214958"><time>2026-09-02T13:15:26Z</time></trkpt><trkpt lat="59.4617414474" lon="31.0850429535"><time>2026-09-02T13:15:28Z</time></trkpt><trkpt lat="59.4617414474" lon="31.0850858688"><time>2026-09-02T13:15:31Z</time></trkpt><trkpt lat="59.4617199898" lon="31.0850858688"><time>2026-09-02T13:15:33Z</time></trkpt><trkpt lat="59.4617199898" lon="31.0850644112"><time>2026-09-02T13:15:36Z</time></trkpt><trkpt lat="59.4616770744" lon="31.0850644112"><time>2026-09-02T13:15:38Z</time></trkpt><trkpt lat="59.4616770744" lon="31.0850214958"><time>2026-09-02T13:15:41Z</time></trkpt><trkpt lat="59.4616556168" lon="31.0849356651"><time>2026-09-02T13:15:43Z</time></trkpt><trkpt lat="59.4616341591" lon="31.0848927498"><time>2026-09-02T13:15:46Z</time></trkpt><trkpt lat="59.4616127014" lon="31.0848283768"><time>2026-09-02T13:15:48Z</time></trkpt><trkpt lat="59.4616127014" lon="31.0847854614"><time>2026-09-02T13:15:51Z</time></trkpt><trkpt lat="59.4616556168" lon="31.0846781731"><time>2026-09-02T13:15:53Z</time></trkpt><trkpt lat="59.4616985321" lon="31.0846352577"><time>2026-09-02T13:15:56Z</time></trkpt><trkpt lat="59.4616985321" lon="31.0845923424"><time>2026-09-02T13:15:58Z</time></trkpt><trkpt lat="59.4617199898" lon="31.0845708847"><time>2026-09-02T13:16:01Z</time></trkpt><trkpt lat="59.4617199898" lon="31.0845279694"><time>2026-09-02T13:16:03Z</time></trkpt><trkpt lat="59.4616985321" lon="31.0844850540"><time>2026-09-02T13:16:06Z</time></trkpt><trkpt lat="59.4616556168" lon="31.0844421387"><time>2026-09-02T13:16:08Z</time></trkpt><trkpt lat="59.4616341591" lon="31.0843992233"><time>2026-09-02T13:16:11Z</time></trkpt><trkpt lat="59.4616341591" lon="31.0844206810"><time>2026-09-02T13:16:13Z</time></trkpt><trkpt lat="59.4616127014" lon="31.0844206810"><time>2026-09-02T13:16:16Z</time></trkpt><trkpt lat="59.4615912437" lon="31.0844635963"><time>2026-09-02T13:16:18Z</time></trkpt><trkpt lat="59.4615697861" lon="31.0844850540"><time>2026-09-02T13:16:21Z</time></trkpt><trkpt lat="59.4615483284" lon="31.0844635963"><time>2026-09-02T13:16:23Z</time></trkpt><trkpt lat="59.4615268707" lon="31.0844635963"><time>2026-09-02T13:16:26Z</time></trkpt><trkpt lat="59.4615054131" lon="31.0844635963"><time>2026-09-02T13:16:28Z</time></trkpt><trkpt lat="59.4614839554" lon="31.0844421387"><time>2026-09-02T13:16:31Z</time></trkpt><trkpt lat="59.4614839554" lon="31.0843992233"><time>2026-09-02T13:16:33Z</time></trkpt><trkpt lat="59.4614624977" lon="31.0843992233"><time>2026-09-02T13:16:36Z</time></trkpt><trkpt lat="59.4614195824" lon="31.0843777657"><time>2026-09-02T13:16:38Z</time></trkpt><trkpt lat="59.4614195824" lon="31.0843777657"><time>2026-09-02T13:16:41Z</time></trkpt><trkpt lat="59.4613981247" lon="31.0843777657"><time>2026-09-02T13:16:43Z</time></trkpt><trkpt lat="59.4613981247" lon="31.0843777657"><time>2026-09-02T13:16:46Z</time></trkpt><trkpt lat="59.4613981247" lon="31.0843777657"><time>2026-09-02T13:16:48Z</time></trkpt><trkpt lat="59.4613981247" lon="31.0843777657"><time>2026-09-02T13:16:51Z</time></trkpt><trkpt lat="59.4613981247" lon="31.0843777657"><time>2026-09-02T13:16:53Z</time></trkpt><trkpt lat="59.4613981247" lon="31.0843777657"><time>2026-09-02T13:16:56Z</time></trkpt><trkpt lat="59.4613981247" lon="31.0843777657"><time>2026-09-02T13:16:58Z</time></trkpt><trkpt lat="59.4613981247" lon="31.0843563080"><time>2026-09-02T13:17:01Z</time></trkpt><trkpt lat="59.4613552094" lon="31.0843348503"><time>2026-09-02T13:17:03Z</time></trkpt><trkpt lat="59.4613552094" lon="31.0843348503"><time>2026-09-02T13:17:06Z</time></trkpt><trkpt lat="59.4613981247" lon="31.0843348503"><time>2026-09-02T13:17:08Z</time></trkpt><trkpt lat="59.4613981247" lon="31.0843348503"><time>2026-09-02T13:17:11Z</time></trkpt><trkpt lat="59.4613981247" lon="31.0843348503"><time>2026-09-02T13:17:13Z</time></trkpt><trkpt lat="59.4614195824" lon="31.0843133926"><time>2026-09-02T13:17:16Z</time></trkpt><trkpt lat="59.4614195824" lon="31.0842704773"><time>2026-09-02T13:17:18Z</time></trkpt><trkpt lat="59.4614195824" lon="31.0842490196"><time>2026-09-02T13:17:21Z</time></trkpt><trkpt lat="59.4614410400" lon="31.0842061043"><time>2026-09-02T13:17:23Z</time></trkpt><trkpt lat="59.4614410400" lon="31.0841846466"><time>2026-09-02T13:17:26Z</time></trkpt><trkpt lat="59.4614839554" lon="31.0841202736"><time>2026-09-02T13:17:28Z</time></trkpt><trkpt lat="59.4615054131" lon="31.0840988159"><time>2026-09-02T13:17:31Z</time></trkpt><trkpt lat="59.4615054131" lon="31.0840988159"><time>2026-09-02T13:17:33Z</time></trkpt><trkpt lat="59.4615054131" lon="31.0840988159"><time>2026-09-02T13:17:36Z</time></trkpt><trkpt lat="59.4615054131" lon="31.0840773582"><time>2026-09-02T13:17:38Z</time></trkpt><trkpt lat="59.4615054131" lon="31.0840344429"><time>2026-09-02T13:17:41Z</time></trkpt><trkpt lat="59.4614839554" lon="31.0840344429"><time>2026-09-02T13:17:43Z</time></trkpt><trkpt lat="59.4614839554" lon="31.0839915276"><time>2026-09-02T13:17:46Z</time></trkpt><trkpt lat="59.4614839554" lon="31.0839700699"><time>2026-09-02T13:17:48Z</time></trkpt><trkpt lat="59.4614624977" lon="31.0839056969"><time>2026-09-02T13:17:51Z</time></trkpt><trkpt lat="59.4614410400" lon="31.0838842392"><time>2026-09-02T13:17:53Z</time></trkpt><trkpt lat="59.4614195824" lon="31.0838627815"><time>2026-09-02T13:17:56Z</time></trkpt><trkpt lat="59.4613766670" lon="31.0837984085"><time>2026-09-02T13:17:58Z</time></trkpt><trkpt lat="59.4613766670" lon="31.0837340355"><time>2026-09-02T13:18:01Z</time></trkpt><trkpt lat="59.4613981247" lon="31.0837125778"><time>2026-09-02T13:18:03Z</time></trkpt><trkpt lat="59.4613981247" lon="31.0837125778"><time>2026-09-02T13:18:06Z</time></trkpt><trkpt lat="59.4613766670" lon="31.0837125778"><time>2026-09-02T13:18:08Z</time></trkpt><trkpt lat="59.4613766670" lon="31.0836696625"><time>2026-09-02T13:18:11Z</time></trkpt><trkpt lat="59.4613766670" lon="31.0836267471"><time>2026-09-02T13:18:13Z</time></trkpt><trkpt lat="59.4613766670" lon="31.0836267471"><time>2026-09-02T13:18:16Z</time></trkpt><trkpt lat="59.4613766670" lon="31.0836267471"><time>2026-09-02T13:18:18Z</time></trkpt><trkpt lat="59.4613766670" lon="31.0836267471"><time>2026-09-02T13:18:21Z</time></trkpt><trkpt lat="59.4613337517" lon="31.0835623741"><time>2026-09-02T13:18:23Z</time></trkpt><trkpt lat="59.4613337517" lon="31.0834765434"><time>2026-09-02T13:18:26Z</time></trkpt><trkpt lat="59.4612908363" lon="31.0833263397"><time>2026-09-02T13:18:28Z</time></trkpt><trkpt lat="59.4612693787" lon="31.0832405090"><time>2026-09-02T13:18:31Z</time></trkpt><trkpt lat="59.4612479210" lon="31.0831117630"><time>2026-09-02T13:18:33Z</time></trkpt><trkpt lat="59.4612693787" lon="31.0831117630"><time>2026-09-02T13:18:36Z</time></trkpt><trkpt lat="59.4612479210" lon="31.0831761360"><time>2026-09-02T13:18:38Z</time></trkpt><trkpt lat="59.4612264633" lon="31.0832405090"><time>2026-09-02T13:18:41Z</time></trkpt><trkpt lat="59.4612479210" lon="31.0832834244"><time>2026-09-02T13:18:43Z</time></trkpt><trkpt lat="59.4612479210" lon="31.0832405090"><time>2026-09-02T13:18:46Z</time></trkpt><trkpt lat="59.4612693787" lon="31.0832190514"><time>2026-09-02T13:18:48Z</time></trkpt><trkpt lat="59.4613122940" lon="31.0831975937"><time>2026-09-02T13:18:51Z</time></trkpt><trkpt lat="59.4613552094" lon="31.0831117630"><time>2026-09-02T13:18:53Z</time></trkpt><trkpt lat="59.4613981247" lon="31.0830259323"><time>2026-09-02T13:18:56Z</time></trkpt><trkpt lat="59.4614624977" lon="31.0829615593"><time>2026-09-02T13:18:58Z</time></trkpt><trkpt lat="59.4615054131" lon="31.0828971863"><time>2026-09-02T13:19:01Z</time></trkpt><trkpt lat="59.4615054131" lon="31.0829401016"><time>2026-09-02T13:19:03Z</time></trkpt><trkpt lat="59.4615268707" lon="31.0829830170"><time>2026-09-02T13:19:06Z</time></trkpt><trkpt lat="59.4615912437" lon="31.0829401016"><time>2026-09-02T13:19:08Z</time></trkpt><trkpt lat="59.4616985321" lon="31.0829401016"><time>2026-09-02T13:19:11Z</time></trkpt><trkpt lat="59.4617414474" lon="31.0830259323"><time>2026-09-02T13:19:13Z</time></trkpt><trkpt lat="59.4616985321" lon="31.0829615593"><time>2026-09-02T13:19:16Z</time></trkpt><trkpt lat="59.4616341591" lon="31.0828113556"><time>2026-09-02T13:19:18Z</time></trkpt><trkpt lat="59.4616556168" lon="31.0827255249"><time>2026-09-02T13:19:21Z</time></trkpt><trkpt lat="59.4616341591" lon="31.0826826096"><time>2026-09-02T13:19:23Z</time></trkpt><trkpt lat="59.4616341591" lon="31.0826826096"><time>2026-09-02T13:19:26Z</time></trkpt><trkpt lat="59.4616341591" lon="31.0827040672"><time>2026-09-02T13:19:28Z</time></trkpt><trkpt lat="59.4616341591" lon="31.0827255249"><time>2026-09-02T13:19:31Z</time></trkpt><trkpt lat="59.4616341591" lon="31.0827469826"><time>2026-09-02T13:19:33Z</time></trkpt><trkpt lat="59.4616341591" lon="31.0827469826"><time>2026-09-02T13:19:36Z</time></trkpt><trkpt lat="59.4616127014" lon="31.0827684402"><time>2026-09-02T13:19:38Z</time></trkpt><trkpt lat="59.4616127014" lon="31.0827684402"><time>2026-09-02T13:19:41Z</time></trkpt><trkpt lat="59.4616127014" lon="31.0827684402"><time>2026-09-02T13:19:43Z</time></trkpt><trkpt lat="59.4616127014" lon="31.0827684402"><time>2026-09-02T13:19:46Z</time></trkpt><trkpt lat="59.4616127014" lon="31.0827684402"><time>2026-09-02T13:19:48Z</time></trkpt><trkpt lat="59.4616127014" lon="31.0827898979"><time>2026-09-02T13:19:51Z</time></trkpt><trkpt lat="59.4615268707" lon="31.0828113556"><time>2026-09-02T13:19:53Z</time></trkpt><trkpt lat="59.4614624977" lon="31.0827898979"><time>2026-09-02T13:19:56Z</time></trkpt><trkpt lat="59.4613981247" lon="31.0828542709"><time>2026-09-02T13:19:58Z</time></trkpt><trkpt lat="59.4613766670" lon="31.0828757286"><time>2026-09-02T13:20:01Z</time></trkpt><trkpt lat="59.4613552094" lon="31.0828757286"><time>2026-09-02T13:20:03Z</time></trkpt><trkpt lat="59.4613122940" lon="31.0828971863"><time>2026-09-02T13:20:06Z</time></trkpt><trkpt lat="59.4612479210" lon="31.0830259323"><time>2026-09-02T13:20:08Z</time></trkpt><trkpt lat="59.4611835480" lon="31.0831117630"><time>2026-09-02T13:20:11Z</time></trkpt><trkpt lat="59.4612050056" lon="31.0831332207"><time>2026-09-02T13:20:13Z</time></trkpt><trkpt lat="59.4611620903" lon="31.0831975937"><time>2026-09-02T13:20:16Z</time></trkpt><trkpt lat="59.4611406326" lon="31.0832405090"><time>2026-09-02T13:20:18Z</time></trkpt><trkpt lat="59.4611191750" lon="31.0832405090"><time>2026-09-02T13:20:21Z</time></trkpt><trkpt lat="59.4610977173" lon="31.0832405090"><time>2026-09-02T13:20:23Z</time></trkpt><trkpt lat="59.4610977173" lon="31.0832405090"><time>2026-09-02T13:20:26Z</time></trkpt><trkpt lat="59.4610977173" lon="31.0832405090"><time>2026-09-02T13:20:28Z</time></trkpt><trkpt lat="59.4610977173" lon="31.0832405090"><time>2026-09-02T13:20:31Z</time></trkpt><trkpt lat="59.4611191750" lon="31.0832405090"><time>2026-09-02T13:20:33Z</time></trkpt><trkpt lat="59.4611191750" lon="31.0832405090"><time>2026-09-02T13:20:36Z</time></trkpt><trkpt lat="59.4611191750" lon="31.0832619667"><time>2026-09-02T13:20:38Z</time></trkpt><trkpt lat="59.4611191750" lon="31.0832619667"><time>2026-09-02T13:20:41Z</time></trkpt><trkpt lat="59.4611191750" lon="31.0832619667"><time>2026-09-02T13:20:43Z</time></trkpt><trkpt lat="59.4611191750" lon="31.0832619667"><time>2026-09-02T13:20:46Z</time></trkpt><trkpt lat="59.4611406326" lon="31.0833048820"><time>2026-09-02T13:20:48Z</time></trkpt><trkpt lat="59.4611406326" lon="31.0833048820"><time>2026-09-02T13:20:51Z</time></trkpt><trkpt lat="59.4611406326" lon="31.0833048820"><time>2026-09-02T13:20:53Z</time></trkpt><trkpt lat="59.4611406326" lon="31.0833048820"><time>2026-09-02T13:20:56Z</time></trkpt><trkpt lat="59.4611406326" lon="31.0833048820"><time>2026-09-02T13:20:58Z</time></trkpt><trkpt lat="59.4611406326" lon="31.0833048820"><time>2026-09-02T13:21:01Z</time></trkpt><trkpt lat="59.4611406326" lon="31.0833048820"><time>2026-09-02T13:21:03Z</time></trkpt><trkpt lat="59.4611406326" lon="31.0833048820"><time>2026-09-02T13:21:06Z</time></trkpt><trkpt lat="59.4611406326" lon="31.0833048820"><time>2026-09-02T13:21:08Z</time></trkpt><trkpt lat="59.4611406326" lon="31.0833048820"><time>2026-09-02T13:21:11Z</time></trkpt><trkpt lat="59.4611406326" lon="31.0833048820"><time>2026-09-02T13:21:13Z</time></trkpt><trkpt lat="59.4611406326" lon="31.0833048820"><time>2026-09-02T13:21:16Z</time></trkpt><trkpt lat="59.4611406326" lon="31.0833048820"><time>2026-09-02T13:21:18Z</time></trkpt><trkpt lat="59.4611406326" lon="31.0833048820"><time>2026-09-02T13:21:21Z</time></trkpt><trkpt lat="59.4611406326" lon="31.0833048820"><time>2026-09-02T13:21:23Z</time></trkpt><trkpt lat="59.4611406326" lon="31.0833048820"><time>2026-09-02T13:21:26Z</time></trkpt><trkpt lat="59.4611406326" lon="31.0833048820"><time>2026-09-02T13:21:28Z</time></trkpt><trkpt lat="59.4611406326" lon="31.0833048820"><time>2026-09-02T13:21:31Z</time></trkpt><trkpt lat="59.4611406326" lon="31.0833048820"><time>2026-09-02T13:21:33Z</time></trkpt><trkpt lat="59.4611406326" lon="31.0833048820"><time>2026-09-02T13:21:36Z</time></trkpt><trkpt lat="59.4611406326" lon="31.0833048820"><time>2026-09-02T13:21:38Z</time></trkpt><trkpt lat="59.4611406326" lon="31.0833048820"><time>2026-09-02T13:21:41Z</time></trkpt><trkpt lat="59.4611406326" lon="31.0833048820"><time>2026-09-02T13:21:43Z</time></trkpt><trkpt lat="59.4611406326" lon="31.0833048820"><time>2026-09-02T13:21:46Z</time></trkpt><trkpt lat="59.4611406326" lon="31.0833048820"><time>2026-09-02T13:21:48Z</time></trkpt><trkpt lat="59.4611406326" lon="31.0833048820"><time>2026-09-02T13:21:51Z</time></trkpt><trkpt lat="59.4611406326" lon="31.0833048820"><time>2026-09-02T13:21:53Z</time></trkpt><trkpt lat="59.4611406326" lon="31.0833048820"><time>2026-09-02T13:21:56Z</time></trkpt><trkpt lat="59.4611191750" lon="31.0833263397"><time>2026-09-02T13:21:58Z</time></trkpt><trkpt lat="59.4610977173" lon="31.0833048820"><time>2026-09-02T13:22:01Z</time></trkpt><trkpt lat="59.4610762596" lon="31.0833048820"><time>2026-09-02T13:22:03Z</time></trkpt><trkpt lat="59.4610762596" lon="31.0832834244"><time>2026-09-02T13:22:06Z</time></trkpt><trkpt lat="59.4610762596" lon="31.0833048820"><time>2026-09-02T13:22:08Z</time></trkpt><trkpt lat="59.4610762596" lon="31.0832834244"><time>2026-09-02T13:22:11Z</time></trkpt><trkpt lat="59.4610762596" lon="31.0832619667"><time>2026-09-02T13:22:13Z</time></trkpt><trkpt lat="59.4610333443" lon="31.0832405090"><time>2026-09-02T13:22:16Z</time></trkpt><trkpt lat="59.4609689713" lon="31.0832190514"><time>2026-09-02T13:22:18Z</time></trkpt><trkpt lat="59.4609689713" lon="31.0832190514"><time>2026-09-02T13:22:21Z</time></trkpt><trkpt lat="59.4609475136" lon="31.0831975937"><time>2026-09-02T13:22:23Z</time></trkpt><trkpt lat="59.4609260559" lon="31.0831975937"><time>2026-09-02T13:22:26Z</time></trkpt><trkpt lat="59.4609260559" lon="31.0831975937"><time>2026-09-02T13:22:28Z</time></trkpt><trkpt lat="59.4609260559" lon="31.0831975937"><time>2026-09-02T13:22:31Z</time></trkpt><trkpt lat="59.4609045982" lon="31.0831761360"><time>2026-09-02T13:22:33Z</time></trkpt><trkpt lat="59.4608831406" lon="31.0831761360"><time>2026-09-02T13:22:36Z</time></trkpt><trkpt lat="59.4607973099" lon="31.0832619667"><time>2026-09-02T13:22:38Z</time></trkpt><trkpt lat="59.4607543945" lon="31.0833048820"><time>2026-09-02T13:22:41Z</time></trkpt><trkpt lat="59.4606900215" lon="31.0833263397"><time>2026-09-02T13:22:43Z</time></trkpt><trkpt lat="59.4606256485" lon="31.0833477974"><time>2026-09-02T13:22:46Z</time></trkpt><trkpt lat="59.4605612755" lon="31.0833907127"><time>2026-09-02T13:22:48Z</time></trkpt><trkpt lat="59.4605398178" lon="31.0834121704"><time>2026-09-02T13:22:51Z</time></trkpt><trkpt lat="59.4605398178" lon="31.0834121704"><time>2026-09-02T13:22:53Z</time></trkpt><trkpt lat="59.4605183601" lon="31.0833907127"><time>2026-09-02T13:22:56Z</time></trkpt><trkpt lat="59.4605183601" lon="31.0833692551"><time>2026-09-02T13:22:58Z</time></trkpt><trkpt lat="59.4604969025" lon="31.0833477974"><time>2026-09-02T13:23:01Z</time></trkpt><trkpt lat="59.4605183601" lon="31.0832834244"><time>2026-09-02T13:23:03Z</time></trkpt><trkpt lat="59.4605183601" lon="31.0832405090"><time>2026-09-02T13:23:06Z</time></trkpt><trkpt lat="59.4604754448" lon="31.0832619667"><time>2026-09-02T13:23:08Z</time></trkpt><trkpt lat="59.4604754448" lon="31.0832405090"><time>2026-09-02T13:23:11Z</time></trkpt><trkpt lat="59.4604754448" lon="31.0832405090"><time>2026-09-02T13:23:13Z</time></trkpt><trkpt lat="59.4604754448" lon="31.0832190514"><time>2026-09-02T13:23:16Z</time></trkpt><trkpt lat="59.4604539871" lon="31.0831332207"><time>2026-09-02T13:23:18Z</time></trkpt><trkpt lat="59.4604969025" lon="31.0830903053"><time>2026-09-02T13:23:21Z</time></trkpt><trkpt lat="59.4605827332" lon="31.0831546783"><time>2026-09-02T13:23:23Z</time></trkpt><trkpt lat="59.4606256485" lon="31.0831761360"><time>2026-09-02T13:23:26Z</time></trkpt><trkpt lat="59.4606471062" lon="31.0831761360"><time>2026-09-02T13:23:28Z</time></trkpt><trkpt lat="59.4606471062" lon="31.0832190514"><time>2026-09-02T13:23:31Z</time></trkpt><trkpt lat="59.4607114792" lon="31.0833263397"><time>2026-09-02T13:23:33Z</time></trkpt><trkpt lat="59.4607543945" lon="31.0832834244"><time>2026-09-02T13:23:36Z</time></trkpt><trkpt lat="59.4608402252" lon="31.0832190514"><time>2026-09-02T13:23:38Z</time></trkpt><trkpt lat="59.4608402252" lon="31.0832190514"><time>2026-09-02T13:23:41Z</time></trkpt><trkpt lat="59.4608616829" lon="31.0831975937"><time>2026-09-02T13:23:43Z</time></trkpt><trkpt lat="59.4609045982" lon="31.0831546783"><time>2026-09-02T13:23:46Z</time></trkpt><trkpt lat="59.4609260559" lon="31.0831332207"><time>2026-09-02T13:23:48Z</time></trkpt><trkpt lat="59.4609260559" lon="31.0831332207"><time>2026-09-02T13:23:51Z</time></trkpt><trkpt lat="59.4609260559" lon="31.0830473900"><time>2026-09-02T13:23:53Z</time></trkpt><trkpt lat="59.4609260559" lon="31.0829615593"><time>2026-09-02T13:23:56Z</time></trkpt><trkpt lat="59.4609260559" lon="31.0828542709"><time>2026-09-02T13:23:58Z</time></trkpt><trkpt lat="59.4609260559" lon="31.0827898979"><time>2026-09-02T13:24:01Z</time></trkpt><trkpt lat="59.4609260559" lon="31.0827684402"><time>2026-09-02T13:24:03Z</time></trkpt><trkpt lat="59.4609260559" lon="31.0827898979"><time>2026-09-02T13:24:06Z</time></trkpt><trkpt lat="59.4608831406" lon="31.0827684402"><time>2026-09-02T13:24:08Z</time></trkpt><trkpt lat="59.4608616829" lon="31.0827469826"><time>2026-09-02T13:24:11Z</time></trkpt><trkpt lat="59.4607973099" lon="31.0827040672"><time>2026-09-02T13:24:13Z</time></trkpt><trkpt lat="59.4607543945" lon="31.0826826096"><time>2026-09-02T13:24:16Z</time></trkpt><trkpt lat="59.4607114792" lon="31.0827040672"><time>2026-09-02T13:24:18Z</time></trkpt><trkpt lat="59.4606685638" lon="31.0827040672"><time>2026-09-02T13:24:21Z</time></trkpt><trkpt lat="59.4605612755" lon="31.0826182365"><time>2026-09-02T13:24:23Z</time></trkpt><trkpt lat="59.4605183601" lon="31.0825324059"><time>2026-09-02T13:24:26Z</time></trkpt><trkpt lat="59.4604969025" lon="31.0824251175"><time>2026-09-02T13:24:28Z</time></trkpt><trkpt lat="59.4605183601" lon="31.0823607445"><time>2026-09-02T13:24:31Z</time></trkpt><trkpt lat="59.4605612755" lon="31.0822963715"><time>2026-09-02T13:24:33Z</time></trkpt><trkpt lat="59.4605827332" lon="31.0822749138"><time>2026-09-02T13:24:36Z</time></trkpt><trkpt lat="59.4605612755" lon="31.0822534561"><time>2026-09-02T13:24:38Z</time></trkpt><trkpt lat="59.4605827332" lon="31.0822319984"><time>2026-09-02T13:24:41Z</time></trkpt><trkpt lat="59.4605827332" lon="31.0822105408"><time>2026-09-02T13:24:43Z</time></trkpt><trkpt lat="59.4605827332" lon="31.0822105408"><time>2026-09-02T13:24:46Z</time></trkpt><trkpt lat="59.4606041908" lon="31.0822963715"><time>2026-09-02T13:24:48Z</time></trkpt><trkpt lat="59.4606256485" lon="31.0823822021"><time>2026-09-02T13:24:51Z</time></trkpt><trkpt lat="59.4606900215" lon="31.0824465752"><time>2026-09-02T13:24:53Z</time></trkpt><trkpt lat="59.4607114792" lon="31.0824680328"><time>2026-09-02T13:24:56Z</time></trkpt><trkpt lat="59.4607329369" lon="31.0824680328"><time>2026-09-02T13:24:58Z</time></trkpt><trkpt lat="59.4607329369" lon="31.0824680328"><time>2026-09-02T13:25:01Z</time></trkpt><trkpt lat="59.4607543945" lon="31.0824251175"><time>2026-09-02T13:25:03Z</time></trkpt><trkpt lat="59.4607543945" lon="31.0824036598"><time>2026-09-02T13:25:06Z</time></trkpt><trkpt lat="59.4607758522" lon="31.0824036598"><time>2026-09-02T13:25:08Z</time></trkpt><trkpt lat="59.4607758522" lon="31.0824036598"><time>2026-09-02T13:25:11Z</time></trkpt><trkpt lat="59.4607973099" lon="31.0823822021"><time>2026-09-02T13:25:13Z</time></trkpt><trkpt lat="59.4607758522" lon="31.0824036598"><time>2026-09-02T13:25:16Z</time></trkpt><trkpt lat="59.4607543945" lon="31.0824036598"><time>2026-09-02T13:25:18Z</time></trkpt><trkpt lat="59.4607543945" lon="31.0823822021"><time>2026-09-02T13:25:21Z</time></trkpt><trkpt lat="59.4607543945" lon="31.0823607445"><time>2026-09-02T13:25:23Z</time></trkpt><trkpt lat="59.4607543945" lon="31.0823392868"><time>2026-09-02T13:25:26Z</time></trkpt><trkpt lat="59.4607329369" lon="31.0822963715"><time>2026-09-02T13:25:28Z</time></trkpt><trkpt lat="59.4607114792" lon="31.0822963715"><time>2026-09-02T13:25:31Z</time></trkpt><trkpt lat="59.4606900215" lon="31.0822749138"><time>2026-09-02T13:25:33Z</time></trkpt><trkpt lat="59.4606685638" lon="31.0822534561"><time>2026-09-02T13:25:36Z</time></trkpt><trkpt lat="59.4606900215" lon="31.0822319984"><time>2026-09-02T13:25:38Z</time></trkpt><trkpt lat="59.4606900215" lon="31.0822319984"><time>2026-09-02T13:25:41Z</time></trkpt><trkpt lat="59.4606900215" lon="31.0822319984"><time>2026-09-02T13:25:43Z</time></trkpt><trkpt lat="59.4607114792" lon="31.0821676254"><time>2026-09-02T13:25:46Z</time></trkpt><trkpt lat="59.4606900215" lon="31.0821032524"><time>2026-09-02T13:25:48Z</time></trkpt><trkpt lat="59.4606900215" lon="31.0821032524"><time>2026-09-02T13:25:51Z</time></trkpt><trkpt lat="59.4606900215" lon="31.0820817947"><time>2026-09-02T13:25:53Z</time></trkpt><trkpt lat="59.4606900215" lon="31.0820817947"><time>2026-09-02T13:25:56Z</time></trkpt><trkpt lat="59.4606685638" lon="31.0820603371"><time>2026-09-02T13:25:58Z</time></trkpt><trkpt lat="59.4606685638" lon="31.0820603371"><time>2026-09-02T13:26:01Z</time></trkpt><trkpt lat="59.4606900215" lon="31.0819959641"><time>2026-09-02T13:26:03Z</time></trkpt><trkpt lat="59.4606900215" lon="31.0819745064"><time>2026-09-02T13:26:06Z</time></trkpt><trkpt lat="59.4606900215" lon="31.0819530487"><time>2026-09-02T13:26:08Z</time></trkpt><trkpt lat="59.4606900215" lon="31.0819315910"><time>2026-09-02T13:26:11Z</time></trkpt><trkpt lat="59.4606471062" lon="31.0818886757"><time>2026-09-02T13:26:13Z</time></trkpt><trkpt lat="59.4606256485" lon="31.0818672180"><time>2026-09-02T13:26:16Z</time></trkpt><trkpt lat="59.4605827332" lon="31.0818243027"><time>2026-09-02T13:26:18Z</time></trkpt><trkpt lat="59.4605827332" lon="31.0818028450"><time>2026-09-02T13:26:21Z</time></trkpt><trkpt lat="59.4605612755" lon="31.0817813873"><time>2026-09-02T13:26:23Z</time></trkpt><trkpt lat="59.4605183601" lon="31.0817599297"><time>2026-09-02T13:26:26Z</time></trkpt><trkpt lat="59.4604969025" lon="31.0816955566"><time>2026-09-02T13:26:28Z</time></trkpt><trkpt lat="59.4604969025" lon="31.0816740990"><time>2026-09-02T13:26:31Z</time></trkpt><trkpt lat="59.4604110718" lon="31.0816526413"><time>2026-09-02T13:26:33Z</time></trkpt><trkpt lat="59.4603681564" lon="31.0816097260"><time>2026-09-02T13:26:36Z</time></trkpt><trkpt lat="59.4603252411" lon="31.0815882683"><time>2026-09-02T13:26:38Z</time></trkpt><trkpt lat="59.4603252411" lon="31.0815668106"><time>2026-09-02T13:26:41Z</time></trkpt><trkpt lat="59.4603037834" lon="31.0815238953"><time>2026-09-02T13:26:43Z</time></trkpt><trkpt lat="59.4603037834" lon="31.0814809799"><time>2026-09-02T13:26:46Z</time></trkpt><trkpt lat="59.4602823257" lon="31.0814595222"><time>2026-09-02T13:26:48Z</time></trkpt><trkpt lat="59.4602608681" lon="31.0814380646"><time>2026-09-02T13:26:51Z</time></trkpt><trkpt lat="59.4602608681" lon="31.0814166069"><time>2026-09-02T13:26:53Z</time></trkpt><trkpt lat="59.4602823257" lon="31.0814166069"><time>2026-09-02T13:26:56Z</time></trkpt><trkpt lat="59.4602823257" lon="31.0814166069"><time>2026-09-02T13:26:58Z</time></trkpt><trkpt lat="59.4602608681" lon="31.0813951492"><time>2026-09-02T13:27:01Z</time></trkpt><trkpt lat="59.4602394104" lon="31.0813736916"><time>2026-09-02T13:27:03Z</time></trkpt><trkpt lat="59.4601750374" lon="31.0813307762"><time>2026-09-02T13:27:06Z</time></trkpt><trkpt lat="59.4601535797" lon="31.0813093185"><time>2026-09-02T13:27:08Z</time></trkpt><trkpt lat="59.4601535797" lon="31.0813307762"><time>2026-09-02T13:27:11Z</time></trkpt><trkpt lat="59.4601535797" lon="31.0813307762"><time>2026-09-02T13:27:13Z</time></trkpt><trkpt lat="59.4601535797" lon="31.0813307762"><time>2026-09-02T13:27:16Z</time></trkpt><trkpt lat="59.4601535797" lon="31.0813522339"><time>2026-09-02T13:27:18Z</time></trkpt><trkpt lat="59.4601535797" lon="31.0813736916"><time>2026-09-02T13:27:21Z</time></trkpt><trkpt lat="59.4601750374" lon="31.0814166069"><time>2026-09-02T13:27:23Z</time></trkpt><trkpt lat="59.4601750374" lon="31.0814380646"><time>2026-09-02T13:27:26Z</time></trkpt><trkpt lat="59.4601750374" lon="31.0814380646"><time>2026-09-02T13:27:28Z</time></trkpt><trkpt lat="59.4601750374" lon="31.0814380646"><time>2026-09-02T13:27:31Z</time></trkpt><trkpt lat="59.4601750374" lon="31.0814380646"><time>2026-09-02T13:27:33Z</time></trkpt><trkpt lat="59.4601535797" lon="31.0814380646"><time>2026-09-02T13:27:36Z</time></trkpt><trkpt lat="59.4601535797" lon="31.0814166069"><time>2026-09-02T13:27:38Z</time></trkpt><trkpt lat="59.4601750374" lon="31.0813736916"><time>2026-09-02T13:27:41Z</time></trkpt><trkpt lat="59.4601750374" lon="31.0813736916"><time>2026-09-02T13:27:43Z</time></trkpt><trkpt lat="59.4601535797" lon="31.0813736916"><time>2026-09-02T13:27:46Z</time></trkpt><trkpt lat="59.4601535797" lon="31.0813736916"><time>2026-09-02T13:27:48Z</time></trkpt><trkpt lat="59.4601535797" lon="31.0813951492"><time>2026-09-02T13:27:51Z</time></trkpt><trkpt lat="59.4601535797" lon="31.0813736916"><time>2026-09-02T13:27:53Z</time></trkpt><trkpt lat="59.4601535797" lon="31.0813736916"><time>2026-09-02T13:27:56Z</time></trkpt><trkpt lat="59.4601535797" lon="31.0813522339"><time>2026-09-02T13:27:58Z</time></trkpt><trkpt lat="59.4601535797" lon="31.0813522339"><time>2026-09-02T13:28:01Z</time></trkpt><trkpt lat="59.4601535797" lon="31.0813522339"><time>2026-09-02T13:28:03Z</time></trkpt><trkpt lat="59.4601535797" lon="31.0813522339"><time>2026-09-02T13:28:06Z</time></trkpt><trkpt lat="59.4601535797" lon="31.0813522339"><time>2026-09-02T13:28:08Z</time></trkpt><trkpt lat="59.4601535797" lon="31.0813522339"><time>2026-09-02T13:28:11Z</time></trkpt><trkpt lat="59.4601535797" lon="31.0813522339"><time>2026-09-02T13:28:13Z</time></trkpt><trkpt lat="59.4601535797" lon="31.0813522339"><time>2026-09-02T13:28:16Z</time></trkpt><trkpt lat="59.4601535797" lon="31.0813522339"><time>2026-09-02T13:28:18Z</time></trkpt><trkpt lat="59.4601535797" lon="31.0813522339"><time>2026-09-02T13:28:21Z</time></trkpt><trkpt lat="59.4601535797" lon="31.0813522339"><time>2026-09-02T13:28:23Z</time></trkpt><trkpt lat="59.4601535797" lon="31.0813522339"><time>2026-09-02T13:28:26Z</time></trkpt><trkpt lat="59.4601535797" lon="31.0813522339"><time>2026-09-02T13:28:28Z</time></trkpt><trkpt lat="59.4601535797" lon="31.0813522339"><time>2026-09-02T13:28:31Z</time></trkpt><trkpt lat="59.4601535797" lon="31.0813522339"><time>2026-09-02T13:28:33Z</time></trkpt><trkpt lat="59.4601535797" lon="31.0813522339"><time>2026-09-02T13:28:36Z</time></trkpt><trkpt lat="59.4601535797" lon="31.0813522339"><time>2026-09-02T13:28:38Z</time></trkpt><trkpt lat="59.4601535797" lon="31.0813522339"><time>2026-09-02T13:28:41Z</time></trkpt><trkpt lat="59.4601535797" lon="31.0813522339"><time>2026-09-02T13:28:43Z</time></trkpt><trkpt lat="59.4601535797" lon="31.0813522339"><time>2026-09-02T13:28:46Z</time></trkpt><trkpt lat="59.4601535797" lon="31.0813522339"><time>2026-09-02T13:28:48Z</time></trkpt><trkpt lat="59.4601535797" lon="31.0813522339"><time>2026-09-02T13:28:51Z</time></trkpt><trkpt lat="59.4601535797" lon="31.0813522339"><time>2026-09-02T13:28:53Z</time></trkpt><trkpt lat="59.4601535797" lon="31.0813522339"><time>2026-09-02T13:28:56Z</time></trkpt><trkpt lat="59.4601535797" lon="31.0813522339"><time>2026-09-02T13:28:58Z</time></trkpt><trkpt lat="59.4601535797" lon="31.0813522339"><time>2026-09-02T13:29:01Z</time></trkpt><trkpt lat="59.4601535797" lon="31.0813522339"><time>2026-09-02T13:29:03Z</time></trkpt><trkpt lat="59.4601535797" lon="31.0813522339"><time>2026-09-02T13:29:06Z</time></trkpt><trkpt lat="59.4601535797" lon="31.0813522339"><time>2026-09-02T13:29:08Z</time></trkpt><trkpt lat="59.4601535797" lon="31.0813522339"><time>2026-09-02T13:29:11Z</time></trkpt><trkpt lat="59.4601535797" lon="31.0813522339"><time>2026-09-02T13:29:13Z</time></trkpt><trkpt lat="59.4601535797" lon="31.0813522339"><time>2026-09-02T13:29:16Z</time></trkpt><trkpt lat="59.4601535797" lon="31.0813522339"><time>2026-09-02T13:29:18Z</time></trkpt><trkpt lat="59.4601535797" lon="31.0813307762"><time>2026-09-02T13:29:21Z</time></trkpt><trkpt lat="59.4601535797" lon="31.0813307762"><time>2026-09-02T13:29:23Z</time></trkpt><trkpt lat="59.4601535797" lon="31.0813307762"><time>2026-09-02T13:29:26Z</time></trkpt><trkpt lat="59.4601535797" lon="31.0813307762"><time>2026-09-02T13:29:28Z</time></trkpt><trkpt lat="59.4601535797" lon="31.0813307762"><time>2026-09-02T13:29:31Z</time></trkpt><trkpt lat="59.4601535797" lon="31.0813307762"><time>2026-09-02T13:29:33Z</time></trkpt><trkpt lat="59.4601535797" lon="31.0813307762"><time>2026-09-02T13:29:36Z</time></trkpt><trkpt lat="59.4601535797" lon="31.0813307762"><time>2026-09-02T13:29:38Z</time></trkpt><trkpt lat="59.4601535797" lon="31.0813307762"><time>2026-09-02T13:29:41Z</time></trkpt><trkpt lat="59.4601535797" lon="31.0813307762"><time>2026-09-02T13:29:43Z</time></trkpt><trkpt lat="59.4601321220" lon="31.0813093185"><time>2026-09-02T13:29:46Z</time></trkpt><trkpt lat="59.4601106644" lon="31.0812234879"><time>2026-09-02T13:29:48Z</time></trkpt><trkpt lat="59.4600892067" lon="31.0811805725"><time>2026-09-02T13:29:51Z</time></trkpt><trkpt lat="59.4600677490" lon="31.0811591148"><time>2026-09-02T13:29:53Z</time></trkpt><trkpt lat="59.4600677490" lon="31.0811591148"><time>2026-09-02T13:29:56Z</time></trkpt><trkpt lat="59.4600677490" lon="31.0811591148"><time>2026-09-02T13:29:58Z</time></trkpt><trkpt lat="59.4600677490" lon="31.0811591148"><time>2026-09-02T13:30:01Z</time></trkpt><trkpt lat="59.4600892067" lon="31.0811376572"><time>2026-09-02T13:30:03Z</time></trkpt><trkpt lat="59.4600892067" lon="31.0810947418"><time>2026-09-02T13:30:06Z</time></trkpt><trkpt lat="59.4600677490" lon="31.0809659958"><time>2026-09-02T13:30:11Z</time></trkpt><trkpt lat="59.4600892067" lon="31.0809016228"><time>2026-09-02T13:30:13Z</time></trkpt><trkpt lat="59.4601321220" lon="31.0808587074"><time>2026-09-02T13:30:16Z</time></trkpt><trkpt lat="59.4601750374" lon="31.0808372498"><time>2026-09-02T13:30:18Z</time></trkpt><trkpt lat="59.4601750374" lon="31.0808372498"><time>2026-09-02T13:30:21Z</time></trkpt><trkpt lat="59.4601535797" lon="31.0807943344"><time>2026-09-02T13:30:23Z</time></trkpt><trkpt lat="59.4601535797" lon="31.0807728767"><time>2026-09-02T13:30:26Z</time></trkpt><trkpt lat="59.4601535797" lon="31.0807728767"><time>2026-09-02T13:30:28Z</time></trkpt><trkpt lat="59.4601321220" lon="31.0807514191"><time>2026-09-02T13:30:31Z</time></trkpt><trkpt lat="59.4601321220" lon="31.0807514191"><time>2026-09-02T13:30:33Z</time></trkpt><trkpt lat="59.4601321220" lon="31.0807728767"><time>2026-09-02T13:30:36Z</time></trkpt><trkpt lat="59.4601321220" lon="31.0807943344"><time>2026-09-02T13:30:38Z</time></trkpt><trkpt lat="59.4601321220" lon="31.0807943344"><time>2026-09-02T13:30:41Z</time></trkpt><trkpt lat="59.4601321220" lon="31.0807943344"><time>2026-09-02T13:30:43Z</time></trkpt><trkpt lat="59.4601321220" lon="31.0807943344"><time>2026-09-02T13:30:46Z</time></trkpt><trkpt lat="59.4601535797" lon="31.0808157921"><time>2026-09-02T13:30:48Z</time></trkpt><trkpt lat="59.4601321220" lon="31.0807943344"><time>2026-09-02T13:30:51Z</time></trkpt><trkpt lat="59.4601535797" lon="31.0807943344"><time>2026-09-02T13:30:53Z</time></trkpt><trkpt lat="59.4601535797" lon="31.0807943344"><time>2026-09-02T13:30:56Z</time></trkpt><trkpt lat="59.4601535797" lon="31.0807943344"><time>2026-09-02T13:30:58Z</time></trkpt><trkpt lat="59.4601535797" lon="31.0807943344"><time>2026-09-02T13:31:01Z</time></trkpt><trkpt lat="59.4601535797" lon="31.0807943344"><time>2026-09-02T13:31:03Z</time></trkpt><trkpt lat="59.4601535797" lon="31.0807943344"><time>2026-09-02T13:31:06Z</time></trkpt><trkpt lat="59.4601535797" lon="31.0807514191"><time>2026-09-02T13:31:08Z</time></trkpt><trkpt lat="59.4601750374" lon="31.0807085037"><time>2026-09-02T13:31:11Z</time></trkpt><trkpt lat="59.4601964951" lon="31.0806655884"><time>2026-09-02T13:31:13Z</time></trkpt><trkpt lat="59.4601964951" lon="31.0806226730"><time>2026-09-02T13:31:16Z</time></trkpt><trkpt lat="59.4601964951" lon="31.0806226730"><time>2026-09-02T13:31:18Z</time></trkpt><trkpt lat="59.4601964951" lon="31.0806226730"><time>2026-09-02T13:31:21Z</time></trkpt><trkpt lat="59.4601964951" lon="31.0806226730"><time>2026-09-02T13:31:23Z</time></trkpt><trkpt lat="59.4601964951" lon="31.0806226730"><time>2026-09-02T13:31:26Z</time></trkpt><trkpt lat="59.4601964951" lon="31.0806226730"><time>2026-09-02T13:31:28Z</time></trkpt><trkpt lat="59.4601964951" lon="31.0806226730"><time>2026-09-02T13:31:31Z</time></trkpt><trkpt lat="59.4601964951" lon="31.0806226730"><time>2026-09-02T13:31:33Z</time></trkpt><trkpt lat="59.4601964951" lon="31.0806226730"><time>2026-09-02T13:31:36Z</time></trkpt><trkpt lat="59.4601964951" lon="31.0806226730"><time>2026-09-02T13:31:38Z</time></trkpt><trkpt lat="59.4601964951" lon="31.0806226730"><time>2026-09-02T13:31:41Z</time></trkpt><trkpt lat="59.4601964951" lon="31.0806226730"><time>2026-09-02T13:31:43Z</time></trkpt><trkpt lat="59.4601964951" lon="31.0806226730"><time>2026-09-02T13:31:46Z</time></trkpt><trkpt lat="59.4601964951" lon="31.0806226730"><time>2026-09-02T13:31:48Z</time></trkpt><trkpt lat="59.4601964951" lon="31.0806226730"><time>2026-09-02T13:31:51Z</time></trkpt><trkpt lat="59.4601964951" lon="31.0806226730"><time>2026-09-02T13:31:53Z</time></trkpt><trkpt lat="59.4601964951" lon="31.0806226730"><time>2026-09-02T13:31:56Z</time></trkpt><trkpt lat="59.4601964951" lon="31.0806226730"><time>2026-09-02T13:31:58Z</time></trkpt><trkpt lat="59.4602179527" lon="31.0806012154"><time>2026-09-02T13:32:01Z</time></trkpt><trkpt lat="59.4602179527" lon="31.0806012154"><time>2026-09-02T13:32:03Z</time></trkpt><trkpt lat="59.4602179527" lon="31.0806012154"><time>2026-09-02T13:32:06Z</time></trkpt><trkpt lat="59.4602179527" lon="31.0806012154"><time>2026-09-02T13:32:08Z</time></trkpt><trkpt lat="59.4602179527" lon="31.0806012154"><time>2026-09-02T13:32:11Z</time></trkpt><trkpt lat="59.4602179527" lon="31.0806012154"><time>2026-09-02T13:32:13Z</time></trkpt><trkpt lat="59.4602179527" lon="31.0806012154"><time>2026-09-02T13:32:16Z</time></trkpt><trkpt lat="59.4602179527" lon="31.0806012154"><time>2026-09-02T13:32:18Z</time></trkpt><trkpt lat="59.4602179527" lon="31.0806012154"><time>2026-09-02T13:32:21Z</time></trkpt><trkpt lat="59.4602394104" lon="31.0806012154"><time>2026-09-02T13:32:23Z</time></trkpt><trkpt lat="59.4602608681" lon="31.0805797577"><time>2026-09-02T13:32:26Z</time></trkpt><trkpt lat="59.4602608681" lon="31.0805797577"><time>2026-09-02T13:32:28Z</time></trkpt><trkpt lat="59.4602823257" lon="31.0805583000"><time>2026-09-02T13:32:31Z</time></trkpt><trkpt lat="59.4602823257" lon="31.0805368423"><time>2026-09-02T13:32:33Z</time></trkpt><trkpt lat="59.4603037834" lon="31.0805153847"><time>2026-09-02T13:32:36Z</time></trkpt><trkpt lat="59.4603252411" lon="31.0804510117"><time>2026-09-02T13:32:38Z</time></trkpt><trkpt lat="59.4603252411" lon="31.0804510117"><time>2026-09-02T13:32:41Z</time></trkpt><trkpt lat="59.4603252411" lon="31.0804295540"><time>2026-09-02T13:32:43Z</time></trkpt><trkpt lat="59.4603466988" lon="31.0803651810"><time>2026-09-02T13:32:46Z</time></trkpt><trkpt lat="59.4603681564" lon="31.0803222656"><time>2026-09-02T13:32:48Z</time></trkpt><trkpt lat="59.4603681564" lon="31.0802793503"><time>2026-09-02T13:32:51Z</time></trkpt><trkpt lat="59.4603896141" lon="31.0802793503"><time>2026-09-02T13:32:53Z</time></trkpt><trkpt lat="59.4603896141" lon="31.0802793503"><time>2026-09-02T13:32:56Z</time></trkpt><trkpt lat="59.4603896141" lon="31.0802793503"><time>2026-09-02T13:32:58Z</time></trkpt><trkpt lat="59.4603896141" lon="31.0802793503"><time>2026-09-02T13:33:01Z</time></trkpt><trkpt lat="59.4603896141" lon="31.0802793503"><time>2026-09-02T13:33:03Z</time></trkpt><trkpt lat="59.4603896141" lon="31.0802793503"><time>2026-09-02T13:33:06Z</time></trkpt><trkpt lat="59.4603896141" lon="31.0802793503"><time>2026-09-02T13:33:08Z</time></trkpt><trkpt lat="59.4603896141" lon="31.0802793503"><time>2026-09-02T13:33:11Z</time></trkpt><trkpt lat="59.4603896141" lon="31.0802793503"><time>2026-09-02T13:33:13Z</time></trkpt><trkpt lat="59.4603896141" lon="31.0802793503"><time>2026-09-02T13:33:16Z</time></trkpt><trkpt lat="59.4603896141" lon="31.0802793503"><time>2026-09-02T13:33:18Z</time></trkpt><trkpt lat="59.4603896141" lon="31.0802793503"><time>2026-09-02T13:33:21Z</time></trkpt><trkpt lat="59.4603896141" lon="31.0802793503"><time>2026-09-02T13:33:23Z</time></trkpt><trkpt lat="59.4603896141" lon="31.0802793503"><time>2026-09-02T13:33:26Z</time></trkpt><trkpt lat="59.4603896141" lon="31.0802793503"><time>2026-09-02T13:33:28Z</time></trkpt><trkpt lat="59.4603896141" lon="31.0802793503"><time>2026-09-02T13:33:31Z</time></trkpt><trkpt lat="59.4604110718" lon="31.0802793503"><time>2026-09-02T13:33:33Z</time></trkpt><trkpt lat="59.4604110718" lon="31.0802364349"><time>2026-09-02T13:33:36Z</time></trkpt><trkpt lat="59.4604110718" lon="31.0802364349"><time>2026-09-02T13:33:38Z</time></trkpt><trkpt lat="59.4604110718" lon="31.0802364349"><time>2026-09-02T13:33:41Z</time></trkpt><trkpt lat="59.4604110718" lon="31.0801935196"><time>2026-09-02T13:33:43Z</time></trkpt><trkpt lat="59.4604325294" lon="31.0801935196"><time>2026-09-02T13:33:46Z</time></trkpt><trkpt lat="59.4604539871" lon="31.0801506042"><time>2026-09-02T13:33:48Z</time></trkpt><trkpt lat="59.4604539871" lon="31.0801076889"><time>2026-09-02T13:33:51Z</time></trkpt><trkpt lat="59.4604969025" lon="31.0800862312"><time>2026-09-02T13:33:53Z</time></trkpt><trkpt lat="59.4604969025" lon="31.0800647736"><time>2026-09-02T13:33:56Z</time></trkpt><trkpt lat="59.4605183601" lon="31.0800218582"><time>2026-09-02T13:33:58Z</time></trkpt><trkpt lat="59.4605183601" lon="31.0800218582"><time>2026-09-02T13:34:01Z</time></trkpt><trkpt lat="59.4605398178" lon="31.0800004005"><time>2026-09-02T13:34:03Z</time></trkpt><trkpt lat="59.4605612755" lon="31.0800004005"><time>2026-09-02T13:34:06Z</time></trkpt><trkpt lat="59.4605612755" lon="31.0800004005"><time>2026-09-02T13:34:08Z</time></trkpt><trkpt lat="59.4605827332" lon="31.0799789429"><time>2026-09-02T13:34:11Z</time></trkpt><trkpt lat="59.4606041908" lon="31.0799574852"><time>2026-09-02T13:34:13Z</time></trkpt><trkpt lat="59.4606041908" lon="31.0799574852"><time>2026-09-02T13:34:16Z</time></trkpt><trkpt lat="59.4606256485" lon="31.0799360275"><time>2026-09-02T13:34:18Z</time></trkpt><trkpt lat="59.4606256485" lon="31.0799360275"><time>2026-09-02T13:34:21Z</time></trkpt><trkpt lat="59.4606256485" lon="31.0799360275"><time>2026-09-02T13:34:23Z</time></trkpt><trkpt lat="59.4606256485" lon="31.0799360275"><time>2026-09-02T13:34:26Z</time></trkpt><trkpt lat="59.4606256485" lon="31.0799360275"><time>2026-09-02T13:34:28Z</time></trkpt><trkpt lat="59.4606256485" lon="31.0799360275"><time>2026-09-02T13:34:31Z</time></trkpt><trkpt lat="59.4606256485" lon="31.0799360275"><time>2026-09-02T13:34:33Z</time></trkpt><trkpt lat="59.4606256485" lon="31.0799360275"><time>2026-09-02T13:34:36Z</time></trkpt><trkpt lat="59.4605827332" lon="31.0799574852"><time>2026-09-02T13:34:38Z</time></trkpt><trkpt lat="59.4606041908" lon="31.0799574852"><time>2026-09-02T13:34:41Z</time></trkpt><trkpt lat="59.4606041908" lon="31.0799360275"><time>2026-09-02T13:34:43Z</time></trkpt><trkpt lat="59.4606041908" lon="31.0799360275"><time>2026-09-02T13:34:46Z</time></trkpt><trkpt lat="59.4606041908" lon="31.0799360275"><time>2026-09-02T13:34:48Z</time></trkpt><trkpt lat="59.4606041908" lon="31.0799360275"><time>2026-09-02T13:34:51Z</time></trkpt><trkpt lat="59.4606041908" lon="31.0799360275"><time>2026-09-02T13:34:53Z</time></trkpt><trkpt lat="59.4606041908" lon="31.0799360275"><time>2026-09-02T13:34:56Z</time></trkpt><trkpt lat="59.4606041908" lon="31.0799360275"><time>2026-09-02T13:34:58Z</time></trkpt><trkpt lat="59.4606041908" lon="31.0799360275"><time>2026-09-02T13:35:01Z</time></trkpt><trkpt lat="59.4606041908" lon="31.0799360275"><time>2026-09-02T13:35:03Z</time></trkpt><trkpt lat="59.4606041908" lon="31.0799360275"><time>2026-09-02T13:35:06Z</time></trkpt><trkpt lat="59.4606041908" lon="31.0799360275"><time>2026-09-02T13:35:08Z</time></trkpt><trkpt lat="59.4606041908" lon="31.0799360275"><time>2026-09-02T13:35:11Z</time></trkpt><trkpt lat="59.4606041908" lon="31.0799360275"><time>2026-09-02T13:35:13Z</time></trkpt><trkpt lat="59.4606041908" lon="31.0799360275"><time>2026-09-02T13:35:16Z</time></trkpt><trkpt lat="59.4606041908" lon="31.0799360275"><time>2026-09-02T13:35:18Z</time></trkpt><trkpt lat="59.4606041908" lon="31.0799360275"><time>2026-09-02T13:35:21Z</time></trkpt><trkpt lat="59.4605827332" lon="31.0799360275"><time>2026-09-02T13:35:23Z</time></trkpt><trkpt lat="59.4605827332" lon="31.0799360275"><time>2026-09-02T13:35:26Z</time></trkpt><trkpt lat="59.4605827332" lon="31.0799360275"><time>2026-09-02T13:35:28Z</time></trkpt><trkpt lat="59.4605827332" lon="31.0799360275"><time>2026-09-02T13:35:31Z</time></trkpt><trkpt lat="59.4605827332" lon="31.0799360275"><time>2026-09-02T13:35:33Z</time></trkpt><trkpt lat="59.4605827332" lon="31.0799360275"><time>2026-09-02T13:35:36Z</time></trkpt><trkpt lat="59.4605827332" lon="31.0799360275"><time>2026-09-02T13:35:38Z</time></trkpt><trkpt lat="59.4605827332" lon="31.0799360275"><time>2026-09-02T13:35:41Z</time></trkpt><trkpt lat="59.4605827332" lon="31.0799574852"><time>2026-09-02T13:35:43Z</time></trkpt><trkpt lat="59.4605827332" lon="31.0799574852"><time>2026-09-02T13:35:46Z</time></trkpt><trkpt lat="59.4605827332" lon="31.0799574852"><time>2026-09-02T13:35:48Z</time></trkpt><trkpt lat="59.4605827332" lon="31.0799574852"><time>2026-09-02T13:35:51Z</time></trkpt><trkpt lat="59.4605827332" lon="31.0799574852"><time>2026-09-02T13:35:53Z</time></trkpt><trkpt lat="59.4606041908" lon="31.0800004005"><time>2026-09-02T13:35:56Z</time></trkpt><trkpt lat="59.4606041908" lon="31.0800862312"><time>2026-09-02T13:35:58Z</time></trkpt><trkpt lat="59.4606041908" lon="31.0801076889"><time>2026-09-02T13:36:01Z</time></trkpt><trkpt lat="59.4605827332" lon="31.0801076889"><time>2026-09-02T13:36:03Z</time></trkpt><trkpt lat="59.4606041908" lon="31.0801076889"><time>2026-09-02T13:36:06Z</time></trkpt><trkpt lat="59.4606041908" lon="31.0801076889"><time>2026-09-02T13:36:08Z</time></trkpt><trkpt lat="59.4606041908" lon="31.0801076889"><time>2026-09-02T13:36:11Z</time></trkpt><trkpt lat="59.4606041908" lon="31.0801076889"><time>2026-09-02T13:36:13Z</time></trkpt><trkpt lat="59.4606041908" lon="31.0801291466"><time>2026-09-02T13:36:16Z</time></trkpt><trkpt lat="59.4606471062" lon="31.0801720619"><time>2026-09-02T13:36:18Z</time></trkpt><trkpt lat="59.4606685638" lon="31.0801935196"><time>2026-09-02T13:36:21Z</time></trkpt><trkpt lat="59.4606685638" lon="31.0802578926"><time>2026-09-02T13:36:23Z</time></trkpt><trkpt lat="59.4606900215" lon="31.0802793503"><time>2026-09-02T13:36:26Z</time></trkpt><trkpt lat="59.4607114792" lon="31.0803222656"><time>2026-09-02T13:36:28Z</time></trkpt><trkpt lat="59.4607329369" lon="31.0803222656"><time>2026-09-02T13:36:31Z</time></trkpt><trkpt lat="59.4607543945" lon="31.0803222656"><time>2026-09-02T13:36:33Z</time></trkpt><trkpt lat="59.4607758522" lon="31.0803222656"><time>2026-09-02T13:36:36Z</time></trkpt><trkpt lat="59.4607973099" lon="31.0802793503"><time>2026-09-02T13:36:38Z</time></trkpt><trkpt lat="59.4607973099" lon="31.0802793503"><time>2026-09-02T13:36:41Z</time></trkpt><trkpt lat="59.4607973099" lon="31.0802793503"><time>2026-09-02T13:36:43Z</time></trkpt><trkpt lat="59.4607973099" lon="31.0802793503"><time>2026-09-02T13:36:46Z</time></trkpt><trkpt lat="59.4607973099" lon="31.0802793503"><time>2026-09-02T13:36:48Z</time></trkpt><trkpt lat="59.4607973099" lon="31.0802793503"><time>2026-09-02T13:36:51Z</time></trkpt><trkpt lat="59.4608187675" lon="31.0802793503"><time>2026-09-02T13:36:53Z</time></trkpt><trkpt lat="59.4608187675" lon="31.0802793503"><time>2026-09-02T13:36:56Z</time></trkpt><trkpt lat="59.4608187675" lon="31.0802793503"><time>2026-09-02T13:36:58Z</time></trkpt><trkpt lat="59.4608187675" lon="31.0802793503"><time>2026-09-02T13:37:01Z</time></trkpt><trkpt lat="59.4607973099" lon="31.0803008080"><time>2026-09-02T13:37:03Z</time></trkpt><trkpt lat="59.4607973099" lon="31.0803437233"><time>2026-09-02T13:37:06Z</time></trkpt><trkpt lat="59.4607973099" lon="31.0804295540"><time>2026-09-02T13:37:08Z</time></trkpt><trkpt lat="59.4608187675" lon="31.0804510117"><time>2026-09-02T13:37:11Z</time></trkpt><trkpt lat="59.4608187675" lon="31.0804724693"><time>2026-09-02T13:37:13Z</time></trkpt><trkpt lat="59.4608187675" lon="31.0804939270"><time>2026-09-02T13:37:16Z</time></trkpt><trkpt lat="59.4608187675" lon="31.0805153847"><time>2026-09-02T13:37:18Z</time></trkpt><trkpt lat="59.4608187675" lon="31.0805153847"><time>2026-09-02T13:37:21Z</time></trkpt><trkpt lat="59.4608187675" lon="31.0805368423"><time>2026-09-02T13:37:23Z</time></trkpt><trkpt lat="59.4608187675" lon="31.0805368423"><time>2026-09-02T13:37:26Z</time></trkpt><trkpt lat="59.4608187675" lon="31.0805368423"><time>2026-09-02T13:37:28Z</time></trkpt><trkpt lat="59.4608402252" lon="31.0805368423"><time>2026-09-02T13:37:31Z</time></trkpt><trkpt lat="59.4608402252" lon="31.0805153847"><time>2026-09-02T13:37:33Z</time></trkpt><trkpt lat="59.4608616829" lon="31.0805153847"><time>2026-09-02T13:37:36Z</time></trkpt><trkpt lat="59.4608831406" lon="31.0805368423"><time>2026-09-02T13:37:38Z</time></trkpt><trkpt lat="59.4609045982" lon="31.0805583000"><time>2026-09-02T13:37:41Z</time></trkpt><trkpt lat="59.4609260559" lon="31.0805583000"><time>2026-09-02T13:37:43Z</time></trkpt><trkpt lat="59.4609260559" lon="31.0805583000"><time>2026-09-02T13:37:46Z</time></trkpt><trkpt lat="59.4609260559" lon="31.0805368423"><time>2026-09-02T13:37:48Z</time></trkpt><trkpt lat="59.4609260559" lon="31.0805583000"><time>2026-09-02T13:37:51Z</time></trkpt><trkpt lat="59.4609475136" lon="31.0806226730"><time>2026-09-02T13:37:53Z</time></trkpt><trkpt lat="59.4609689713" lon="31.0806441307"><time>2026-09-02T13:37:56Z</time></trkpt><trkpt lat="59.4609689713" lon="31.0806441307"><time>2026-09-02T13:37:58Z</time></trkpt><trkpt lat="59.4609689713" lon="31.0806441307"><time>2026-09-02T13:38:01Z</time></trkpt><trkpt lat="59.4609689713" lon="31.0806441307"><time>2026-09-02T13:38:03Z</time></trkpt><trkpt lat="59.4609689713" lon="31.0806441307"><time>2026-09-02T13:38:06Z</time></trkpt><trkpt lat="59.4609689713" lon="31.0806441307"><time>2026-09-02T13:38:08Z</time></trkpt><trkpt lat="59.4609689713" lon="31.0806441307"><time>2026-09-02T13:38:11Z</time></trkpt><trkpt lat="59.4609904289" lon="31.0807085037"><time>2026-09-02T13:38:13Z</time></trkpt><trkpt lat="59.4609904289" lon="31.0807514191"><time>2026-09-02T13:38:16Z</time></trkpt><trkpt lat="59.4610333443" lon="31.0808372498"><time>2026-09-02T13:38:18Z</time></trkpt><trkpt lat="59.4610333443" lon="31.0809230804"><time>2026-09-02T13:38:21Z</time></trkpt><trkpt lat="59.4610548019" lon="31.0810089111"><time>2026-09-02T13:38:23Z</time></trkpt><trkpt lat="59.4610548019" lon="31.0810732841"><time>2026-09-02T13:38:26Z</time></trkpt><trkpt lat="59.4610977173" lon="31.0811376572"><time>2026-09-02T13:38:28Z</time></trkpt><trkpt lat="59.4610977173" lon="31.0812020302"><time>2026-09-02T13:38:31Z</time></trkpt><trkpt lat="59.4610762596" lon="31.0812449455"><time>2026-09-02T13:38:33Z</time></trkpt><trkpt lat="59.4610977173" lon="31.0812449455"><time>2026-09-02T13:38:36Z</time></trkpt><trkpt lat="59.4610977173" lon="31.0812449455"><time>2026-09-02T13:38:38Z</time></trkpt><trkpt lat="59.4610977173" lon="31.0812449455"><time>2026-09-02T13:38:41Z</time></trkpt><trkpt lat="59.4610977173" lon="31.0812449455"><time>2026-09-02T13:38:43Z</time></trkpt><trkpt lat="59.4610977173" lon="31.0812449455"><time>2026-09-02T13:38:46Z</time></trkpt><trkpt lat="59.4610762596" lon="31.0811805725"><time>2026-09-02T13:38:48Z</time></trkpt><trkpt lat="59.4610762596" lon="31.0811161995"><time>2026-09-02T13:38:51Z</time></trkpt><trkpt lat="59.4610762596" lon="31.0810518265"><time>2026-09-02T13:38:53Z</time></trkpt><trkpt lat="59.4610977173" lon="31.0810732841"><time>2026-09-02T13:38:56Z</time></trkpt><trkpt lat="59.4611191750" lon="31.0811161995"><time>2026-09-02T13:38:58Z</time></trkpt><trkpt lat="59.4611191750" lon="31.0811591148"><time>2026-09-02T13:39:01Z</time></trkpt><trkpt lat="59.4611191750" lon="31.0811591148"><time>2026-09-02T13:39:03Z</time></trkpt><trkpt lat="59.4611406326" lon="31.0811376572"><time>2026-09-02T13:39:06Z</time></trkpt><trkpt lat="59.4611406326" lon="31.0811376572"><time>2026-09-02T13:39:08Z</time></trkpt><trkpt lat="59.4611406326" lon="31.0811376572"><time>2026-09-02T13:39:11Z</time></trkpt><trkpt lat="59.4611406326" lon="31.0811376572"><time>2026-09-02T13:39:13Z</time></trkpt><trkpt lat="59.4611406326" lon="31.0811376572"><time>2026-09-02T13:39:16Z</time></trkpt><trkpt lat="59.4611406326" lon="31.0811376572"><time>2026-09-02T13:39:18Z</time></trkpt><trkpt lat="59.4611406326" lon="31.0811376572"><time>2026-09-02T13:39:21Z</time></trkpt><trkpt lat="59.4611406326" lon="31.0811376572"><time>2026-09-02T13:39:23Z</time></trkpt><trkpt lat="59.4611406326" lon="31.0811376572"><time>2026-09-02T13:39:26Z</time></trkpt><trkpt lat="59.4611406326" lon="31.0811376572"><time>2026-09-02T13:39:28Z</time></trkpt><trkpt lat="59.4611406326" lon="31.0811376572"><time>2026-09-02T13:39:31Z</time></trkpt><trkpt lat="59.4611406326" lon="31.0811376572"><time>2026-09-02T13:39:33Z</time></trkpt><trkpt lat="59.4611406326" lon="31.0811376572"><time>2026-09-02T13:39:36Z</time></trkpt><trkpt lat="59.4611406326" lon="31.0811376572"><time>2026-09-02T13:39:38Z</time></trkpt><trkpt lat="59.4611406326" lon="31.0811376572"><time>2026-09-02T13:39:41Z</time></trkpt><trkpt lat="59.4611406326" lon="31.0811376572"><time>2026-09-02T13:39:43Z</time></trkpt><trkpt lat="59.4611406326" lon="31.0811376572"><time>2026-09-02T13:39:46Z</time></trkpt><trkpt lat="59.4611406326" lon="31.0811376572"><time>2026-09-02T13:39:48Z</time></trkpt><trkpt lat="59.4611406326" lon="31.0811376572"><time>2026-09-02T13:39:51Z</time></trkpt><trkpt lat="59.4611406326" lon="31.0811376572"><time>2026-09-02T13:39:53Z</time></trkpt><trkpt lat="59.4611406326" lon="31.0811376572"><time>2026-09-02T13:39:56Z</time></trkpt><trkpt lat="59.4611406326" lon="31.0811376572"><time>2026-09-02T13:39:58Z</time></trkpt><trkpt lat="59.4611406326" lon="31.0811376572"><time>2026-09-02T13:40:01Z</time></trkpt><trkpt lat="59.4611406326" lon="31.0811376572"><time>2026-09-02T13:40:03Z</time></trkpt><trkpt lat="59.4611406326" lon="31.0811376572"><time>2026-09-02T13:40:06Z</time></trkpt><trkpt lat="59.4611406326" lon="31.0811376572"><time>2026-09-02T13:40:08Z</time></trkpt><trkpt lat="59.4611406326" lon="31.0811376572"><time>2026-09-02T13:40:11Z</time></trkpt><trkpt lat="59.4611406326" lon="31.0811376572"><time>2026-09-02T13:40:13Z</time></trkpt><trkpt lat="59.4611406326" lon="31.0811376572"><time>2026-09-02T13:40:16Z</time></trkpt><trkpt lat="59.4611406326" lon="31.0811376572"><time>2026-09-02T13:40:18Z</time></trkpt><trkpt lat="59.4611406326" lon="31.0811591148"><time>2026-09-02T13:40:21Z</time></trkpt><trkpt lat="59.4611620903" lon="31.0811805725"><time>2026-09-02T13:40:23Z</time></trkpt><trkpt lat="59.4611620903" lon="31.0811805725"><time>2026-09-02T13:40:26Z</time></trkpt><trkpt lat="59.4611620903" lon="31.0811805725"><time>2026-09-02T13:40:28Z</time></trkpt><trkpt lat="59.4611620903" lon="31.0811805725"><time>2026-09-02T13:40:31Z</time></trkpt><trkpt lat="59.4611620903" lon="31.0811805725"><time>2026-09-02T13:40:33Z</time></trkpt><trkpt lat="59.4611620903" lon="31.0811805725"><time>2026-09-02T13:40:36Z</time></trkpt><trkpt lat="59.4611620903" lon="31.0811805725"><time>2026-09-02T13:40:38Z</time></trkpt><trkpt lat="59.4611620903" lon="31.0811805725"><time>2026-09-02T13:40:41Z</time></trkpt><trkpt lat="59.4611620903" lon="31.0811805725"><time>2026-09-02T13:40:43Z</time></trkpt><trkpt lat="59.4611620903" lon="31.0811805725"><time>2026-09-02T13:40:46Z</time></trkpt><trkpt lat="59.4611620903" lon="31.0811805725"><time>2026-09-02T13:40:48Z</time></trkpt><trkpt lat="59.4611620903" lon="31.0811805725"><time>2026-09-02T13:40:51Z</time></trkpt><trkpt lat="59.4611620903" lon="31.0811805725"><time>2026-09-02T13:40:53Z</time></trkpt><trkpt lat="59.4611620903" lon="31.0811805725"><time>2026-09-02T13:40:56Z</time></trkpt><trkpt lat="59.4611620903" lon="31.0811805725"><time>2026-09-02T13:40:58Z</time></trkpt><trkpt lat="59.4611620903" lon="31.0811805725"><time>2026-09-02T13:41:01Z</time></trkpt><trkpt lat="59.4611620903" lon="31.0811805725"><time>2026-09-02T13:41:03Z</time></trkpt><trkpt lat="59.4611620903" lon="31.0812020302"><time>2026-09-02T13:41:06Z</time></trkpt><trkpt lat="59.4611620903" lon="31.0812020302"><time>2026-09-02T13:41:08Z</time></trkpt><trkpt lat="59.4611620903" lon="31.0812020302"><time>2026-09-02T13:41:11Z</time></trkpt><trkpt lat="59.4611620903" lon="31.0812020302"><time>2026-09-02T13:41:13Z</time></trkpt><trkpt lat="59.4611620903" lon="31.0812020302"><time>2026-09-02T13:41:16Z</time></trkpt><trkpt lat="59.4611620903" lon="31.0812020302"><time>2026-09-02T13:41:18Z</time></trkpt><trkpt lat="59.4611620903" lon="31.0812020302"><time>2026-09-02T13:41:21Z</time></trkpt><trkpt lat="59.4611406326" lon="31.0812020302"><time>2026-09-02T13:41:23Z</time></trkpt><trkpt lat="59.4611406326" lon="31.0812020302"><time>2026-09-02T13:41:26Z</time></trkpt><trkpt lat="59.4611406326" lon="31.0812020302"><time>2026-09-02T13:41:28Z</time></trkpt><trkpt lat="59.4611406326" lon="31.0812020302"><time>2026-09-02T13:41:31Z</time></trkpt><trkpt lat="59.4611406326" lon="31.0812020302"><time>2026-09-02T13:41:33Z</time></trkpt><trkpt lat="59.4611406326" lon="31.0812020302"><time>2026-09-02T13:41:36Z</time></trkpt><trkpt lat="59.4611406326" lon="31.0812020302"><time>2026-09-02T13:41:38Z</time></trkpt><trkpt lat="59.4611406326" lon="31.0812020302"><time>2026-09-02T13:41:41Z</time></trkpt><trkpt lat="59.4611406326" lon="31.0812020302"><time>2026-09-02T13:41:43Z</time></trkpt><trkpt lat="59.4611406326" lon="31.0812020302"><time>2026-09-02T13:41:46Z</time></trkpt><trkpt lat="59.4611406326" lon="31.0812020302"><time>2026-09-02T13:41:48Z</time></trkpt><trkpt lat="59.4611406326" lon="31.0812020302"><time>2026-09-02T13:41:51Z</time></trkpt><trkpt lat="59.4611406326" lon="31.0812020302"><time>2026-09-02T13:41:53Z</time></trkpt><trkpt lat="59.4611406326" lon="31.0812020302"><time>2026-09-02T13:41:56Z</time></trkpt><trkpt lat="59.4611406326" lon="31.0812020302"><time>2026-09-02T13:41:58Z</time></trkpt><trkpt lat="59.4611406326" lon="31.0812020302"><time>2026-09-02T13:42:01Z</time></trkpt><trkpt lat="59.4611406326" lon="31.0812020302"><time>2026-09-02T13:42:03Z</time></trkpt><trkpt lat="59.4611406326" lon="31.0812020302"><time>2026-09-02T13:42:06Z</time></trkpt><trkpt lat="59.4611406326" lon="31.0812020302"><time>2026-09-02T13:42:08Z</time></trkpt><trkpt lat="59.4611406326" lon="31.0812020302"><time>2026-09-02T13:42:11Z</time></trkpt><trkpt lat="59.4611406326" lon="31.0812020302"><time>2026-09-02T13:42:13Z</time></trkpt><trkpt lat="59.4611406326" lon="31.0812020302"><time>2026-09-02T13:42:16Z</time></trkpt><trkpt lat="59.4611406326" lon="31.0812020302"><time>2026-09-02T13:42:18Z</time></trkpt><trkpt lat="59.4611406326" lon="31.0812020302"><time>2026-09-02T13:42:21Z</time></trkpt><trkpt lat="59.4611406326" lon="31.0812020302"><time>2026-09-02T13:42:23Z</time></trkpt><trkpt lat="59.4611406326" lon="31.0812020302"><time>2026-09-02T13:42:26Z</time></trkpt><trkpt lat="59.4611406326" lon="31.0812020302"><time>2026-09-02T13:42:28Z</time></trkpt><trkpt lat="59.4611406326" lon="31.0812020302"><time>2026-09-02T13:42:31Z</time></trkpt><trkpt lat="59.4611406326" lon="31.0812020302"><time>2026-09-02T13:42:33Z</time></trkpt><trkpt lat="59.4611406326" lon="31.0812020302"><time>2026-09-02T13:42:36Z</time></trkpt><trkpt lat="59.4611406326" lon="31.0812020302"><time>2026-09-02T13:42:38Z</time></trkpt><trkpt lat="59.4611406326" lon="31.0812020302"><time>2026-09-02T13:42:41Z</time></trkpt><trkpt lat="59.4611406326" lon="31.0812020302"><time>2026-09-02T13:42:43Z</time></trkpt><trkpt lat="59.4611406326" lon="31.0811805725"><time>2026-09-02T13:42:46Z</time></trkpt><trkpt lat="59.4611191750" lon="31.0812020302"><time>2026-09-02T13:42:48Z</time></trkpt><trkpt lat="59.4611191750" lon="31.0812449455"><time>2026-09-02T13:42:51Z</time></trkpt><trkpt lat="59.4611191750" lon="31.0812878609"><time>2026-09-02T13:42:53Z</time></trkpt><trkpt lat="59.4611406326" lon="31.0813093185"><time>2026-09-02T13:42:56Z</time></trkpt><trkpt lat="59.4611406326" lon="31.0813522339"><time>2026-09-02T13:42:58Z</time></trkpt><trkpt lat="59.4611835480" lon="31.0814166069"><time>2026-09-02T13:43:01Z</time></trkpt><trkpt lat="59.4611835480" lon="31.0814595222"><time>2026-09-02T13:43:03Z</time></trkpt><trkpt lat="59.4611835480" lon="31.0814595222"><time>2026-09-02T13:43:06Z</time></trkpt><trkpt lat="59.4611835480" lon="31.0814595222"><time>2026-09-02T13:43:08Z</time></trkpt><trkpt lat="59.4611835480" lon="31.0814595222"><time>2026-09-02T13:43:11Z</time></trkpt><trkpt lat="59.4612050056" lon="31.0815024376"><time>2026-09-02T13:43:13Z</time></trkpt><trkpt lat="59.4612050056" lon="31.0815453529"><time>2026-09-02T13:43:16Z</time></trkpt><trkpt lat="59.4612050056" lon="31.0815453529"><time>2026-09-02T13:43:18Z</time></trkpt><trkpt lat="59.4612050056" lon="31.0815453529"><time>2026-09-02T13:43:21Z</time></trkpt><trkpt lat="59.4612050056" lon="31.0815882683"><time>2026-09-02T13:43:23Z</time></trkpt><trkpt lat="59.4612050056" lon="31.0816526413"><time>2026-09-02T13:43:26Z</time></trkpt><trkpt lat="59.4612050056" lon="31.0816526413"><time>2026-09-02T13:43:28Z</time></trkpt><trkpt lat="59.4612050056" lon="31.0816526413"><time>2026-09-02T13:43:31Z</time></trkpt><trkpt lat="59.4612050056" lon="31.0816526413"><time>2026-09-02T13:43:33Z</time></trkpt><trkpt lat="59.4612050056" lon="31.0816526413"><time>2026-09-02T13:43:36Z</time></trkpt><trkpt lat="59.4612050056" lon="31.0816526413"><time>2026-09-02T13:43:38Z</time></trkpt><trkpt lat="59.4612050056" lon="31.0816740990"><time>2026-09-02T13:43:41Z</time></trkpt><trkpt lat="59.4612264633" lon="31.0816955566"><time>2026-09-02T13:43:43Z</time></trkpt><trkpt lat="59.4612693787" lon="31.0817599297"><time>2026-09-02T13:43:46Z</time></trkpt><trkpt lat="59.4612693787" lon="31.0817599297"><time>2026-09-02T13:43:48Z</time></trkpt><trkpt lat="59.4612693787" lon="31.0817599297"><time>2026-09-02T13:43:53Z</time></trkpt><trkpt lat="59.4612693787" lon="31.0817599297"><time>2026-09-02T13:43:56Z</time></trkpt><trkpt lat="59.4612693787" lon="31.0817599297"><time>2026-09-02T13:43:58Z</time></trkpt><trkpt lat="59.4612693787" lon="31.0817599297"><time>2026-09-02T13:44:01Z</time></trkpt><trkpt lat="59.4612693787" lon="31.0817813873"><time>2026-09-02T13:44:03Z</time></trkpt><trkpt lat="59.4612908363" lon="31.0817813873"><time>2026-09-02T13:44:06Z</time></trkpt><trkpt lat="59.4612908363" lon="31.0817813873"><time>2026-09-02T13:44:08Z</time></trkpt><trkpt lat="59.4612908363" lon="31.0818243027"><time>2026-09-02T13:44:11Z</time></trkpt><trkpt lat="59.4612908363" lon="31.0818243027"><time>2026-09-02T13:44:13Z</time></trkpt><trkpt lat="59.4612908363" lon="31.0818243027"><time>2026-09-02T13:44:16Z</time></trkpt><trkpt lat="59.4613122940" lon="31.0818886757"><time>2026-09-02T13:44:18Z</time></trkpt><trkpt lat="59.4613122940" lon="31.0818886757"><time>2026-09-02T13:44:21Z</time></trkpt><trkpt lat="59.4613337517" lon="31.0818672180"><time>2026-09-02T13:44:23Z</time></trkpt><trkpt lat="59.4613337517" lon="31.0819101334"><time>2026-09-02T13:44:26Z</time></trkpt><trkpt lat="59.4613552094" lon="31.0820174217"><time>2026-09-02T13:44:28Z</time></trkpt><trkpt lat="59.4613766670" lon="31.0821032524"><time>2026-09-02T13:44:31Z</time></trkpt><trkpt lat="59.4614195824" lon="31.0822105408"><time>2026-09-02T13:44:33Z</time></trkpt><trkpt lat="59.4614195824" lon="31.0822319984"><time>2026-09-02T13:44:36Z</time></trkpt><trkpt lat="59.4614410400" lon="31.0822749138"><time>2026-09-02T13:44:38Z</time></trkpt><trkpt lat="59.4614410400" lon="31.0822749138"><time>2026-09-02T13:44:41Z</time></trkpt><trkpt lat="59.4614410400" lon="31.0822749138"><time>2026-09-02T13:44:43Z</time></trkpt><trkpt lat="59.4614410400" lon="31.0822749138"><time>2026-09-02T13:44:46Z</time></trkpt><trkpt lat="59.4614410400" lon="31.0822749138"><time>2026-09-02T13:44:48Z</time></trkpt><trkpt lat="59.4614410400" lon="31.0822749138"><time>2026-09-02T13:44:51Z</time></trkpt><trkpt lat="59.4614410400" lon="31.0822749138"><time>2026-09-02T13:44:53Z</time></trkpt><trkpt lat="59.4614410400" lon="31.0822749138"><time>2026-09-02T13:44:56Z</time></trkpt><trkpt lat="59.4614410400" lon="31.0822749138"><time>2026-09-02T13:44:58Z</time></trkpt><trkpt lat="59.4614624977" lon="31.0822749138"><time>2026-09-02T13:45:01Z</time></trkpt><trkpt lat="59.4614839554" lon="31.0822749138"><time>2026-09-02T13:45:03Z</time></trkpt><trkpt lat="59.4615054131" lon="31.0822534561"><time>2026-09-02T13:45:06Z</time></trkpt><trkpt lat="59.4615054131" lon="31.0822534561"><time>2026-09-02T13:45:08Z</time></trkpt><trkpt lat="59.4615054131" lon="31.0822534561"><time>2026-09-02T13:45:11Z</time></trkpt><trkpt lat="59.4615268707" lon="31.0822534561"><time>2026-09-02T13:45:13Z</time></trkpt><trkpt lat="59.4615268707" lon="31.0822749138"><time>2026-09-02T13:45:16Z</time></trkpt><trkpt lat="59.4615483284" lon="31.0822963715"><time>2026-09-02T13:45:18Z</time></trkpt><trkpt lat="59.4615483284" lon="31.0823178291"><time>2026-09-02T13:45:21Z</time></trkpt><trkpt lat="59.4615483284" lon="31.0823178291"><time>2026-09-02T13:45:23Z</time></trkpt><trkpt lat="59.4615483284" lon="31.0823178291"><time>2026-09-02T13:45:26Z</time></trkpt><trkpt lat="59.4615483284" lon="31.0823178291"><time>2026-09-02T13:45:28Z</time></trkpt><trkpt lat="59.4615483284" lon="31.0823178291"><time>2026-09-02T13:45:31Z</time></trkpt><trkpt lat="59.4615483284" lon="31.0823178291"><time>2026-09-02T13:45:33Z</time></trkpt><trkpt lat="59.4615483284" lon="31.0823178291"><time>2026-09-02T13:45:36Z</time></trkpt><trkpt lat="59.4615483284" lon="31.0823178291"><time>2026-09-02T13:45:38Z</time></trkpt><trkpt lat="59.4615483284" lon="31.0823178291"><time>2026-09-02T13:45:41Z</time></trkpt><trkpt lat="59.4615483284" lon="31.0823178291"><time>2026-09-02T13:45:43Z</time></trkpt><trkpt lat="59.4615697861" lon="31.0823178291"><time>2026-09-02T13:45:46Z</time></trkpt><trkpt lat="59.4615697861" lon="31.0823178291"><time>2026-09-02T13:45:48Z</time></trkpt><trkpt lat="59.4615697861" lon="31.0823178291"><time>2026-09-02T13:45:51Z</time></trkpt><trkpt lat="59.4615912437" lon="31.0823392868"><time>2026-09-02T13:45:53Z</time></trkpt><trkpt lat="59.4616127014" lon="31.0823607445"><time>2026-09-02T13:45:56Z</time></trkpt><trkpt lat="59.4616341591" lon="31.0823822021"><time>2026-09-02T13:45:58Z</time></trkpt><trkpt lat="59.4616556168" lon="31.0824036598"><time>2026-09-02T13:46:01Z</time></trkpt><trkpt lat="59.4616556168" lon="31.0824036598"><time>2026-09-02T13:46:03Z</time></trkpt><trkpt lat="59.4616770744" lon="31.0824465752"><time>2026-09-02T13:46:06Z</time></trkpt><trkpt lat="59.4617414474" lon="31.0824465752"><time>2026-09-02T13:46:08Z</time></trkpt><trkpt lat="59.4617629051" lon="31.0824680328"><time>2026-09-02T13:46:11Z</time></trkpt><trkpt lat="59.4618058205" lon="31.0824680328"><time>2026-09-02T13:46:13Z</time></trkpt><trkpt lat="59.4618487358" lon="31.0825109482"><time>2026-09-02T13:46:16Z</time></trkpt><trkpt lat="59.4618701935" lon="31.0825109482"><time>2026-09-02T13:46:18Z</time></trkpt><trkpt lat="59.4618916512" lon="31.0824894905"><time>2026-09-02T13:46:21Z</time></trkpt><trkpt lat="59.4619131088" lon="31.0824894905"><time>2026-09-02T13:46:23Z</time></trkpt><trkpt lat="59.4619560242" lon="31.0824894905"><time>2026-09-02T13:46:26Z</time></trkpt><trkpt lat="59.4619560242" lon="31.0825324059"><time>2026-09-02T13:46:28Z</time></trkpt><trkpt lat="59.4619560242" lon="31.0825324059"><time>2026-09-02T13:46:31Z</time></trkpt><trkpt lat="59.4619560242" lon="31.0826182365"><time>2026-09-02T13:46:33Z</time></trkpt><trkpt lat="59.4619560242" lon="31.0826396942"><time>2026-09-02T13:46:36Z</time></trkpt><trkpt lat="59.4619560242" lon="31.0826826096"><time>2026-09-02T13:46:38Z</time></trkpt><trkpt lat="59.4619560242" lon="31.0826826096"><time>2026-09-02T13:46:41Z</time></trkpt><trkpt lat="59.4619560242" lon="31.0827040672"><time>2026-09-02T13:46:43Z</time></trkpt><trkpt lat="59.4619345665" lon="31.0827255249"><time>2026-09-02T13:46:46Z</time></trkpt><trkpt lat="59.4618916512" lon="31.0827684402"><time>2026-09-02T13:46:48Z</time></trkpt><trkpt lat="59.4618916512" lon="31.0828542709"><time>2026-09-02T13:46:51Z</time></trkpt><trkpt lat="59.4618916512" lon="31.0829830170"><time>2026-09-02T13:46:53Z</time></trkpt><trkpt lat="59.4618701935" lon="31.0830044746"><time>2026-09-02T13:46:56Z</time></trkpt><trkpt lat="59.4618272781" lon="31.0829830170"><time>2026-09-02T13:46:58Z</time></trkpt><trkpt lat="59.4618272781" lon="31.0829401016"><time>2026-09-02T13:47:01Z</time></trkpt><trkpt lat="59.4618272781" lon="31.0829401016"><time>2026-09-02T13:47:03Z</time></trkpt><trkpt lat="59.4618058205" lon="31.0829401016"><time>2026-09-02T13:47:06Z</time></trkpt><trkpt lat="59.4618058205" lon="31.0829401016"><time>2026-09-02T13:47:08Z</time></trkpt><trkpt lat="59.4618058205" lon="31.0829401016"><time>2026-09-02T13:47:11Z</time></trkpt><trkpt lat="59.4618058205" lon="31.0829401016"><time>2026-09-02T13:47:13Z</time></trkpt><trkpt lat="59.4618058205" lon="31.0829401016"><time>2026-09-02T13:47:16Z</time></trkpt><trkpt lat="59.4617629051" lon="31.0829186440"><time>2026-09-02T13:47:18Z</time></trkpt><trkpt lat="59.4617414474" lon="31.0829401016"><time>2026-09-02T13:47:21Z</time></trkpt><trkpt lat="59.4617199898" lon="31.0829615593"><time>2026-09-02T13:47:23Z</time></trkpt><trkpt lat="59.4617199898" lon="31.0829615593"><time>2026-09-02T13:47:26Z</time></trkpt><trkpt lat="59.4617199898" lon="31.0829615593"><time>2026-09-02T13:47:28Z</time></trkpt><trkpt lat="59.4617199898" lon="31.0829830170"><time>2026-09-02T13:47:31Z</time></trkpt><trkpt lat="59.4617199898" lon="31.0829830170"><time>2026-09-02T13:47:33Z</time></trkpt><trkpt lat="59.4616985321" lon="31.0829830170"><time>2026-09-02T13:47:36Z</time></trkpt><trkpt lat="59.4617199898" lon="31.0830259323"><time>2026-09-02T13:47:38Z</time></trkpt><trkpt lat="59.4617199898" lon="31.0830259323"><time>2026-09-02T13:47:41Z</time></trkpt><trkpt lat="59.4617199898" lon="31.0830044746"><time>2026-09-02T13:47:43Z</time></trkpt><trkpt lat="59.4616985321" lon="31.0830473900"><time>2026-09-02T13:47:46Z</time></trkpt><trkpt lat="59.4616985321" lon="31.0831332207"><time>2026-09-02T13:47:48Z</time></trkpt><trkpt lat="59.4617199898" lon="31.0831546783"><time>2026-09-02T13:47:51Z</time></trkpt><trkpt lat="59.4617199898" lon="31.0831975937"><time>2026-09-02T13:47:53Z</time></trkpt><trkpt lat="59.4617199898" lon="31.0832405090"><time>2026-09-02T13:47:56Z</time></trkpt><trkpt lat="59.4617199898" lon="31.0833048820"><time>2026-09-02T13:47:58Z</time></trkpt><trkpt lat="59.4617414474" lon="31.0833263397"><time>2026-09-02T13:48:01Z</time></trkpt><trkpt lat="59.4617199898" lon="31.0833263397"><time>2026-09-02T13:48:03Z</time></trkpt><trkpt lat="59.4617199898" lon="31.0833263397"><time>2026-09-02T13:48:06Z</time></trkpt><trkpt lat="59.4617199898" lon="31.0833263397"><time>2026-09-02T13:48:08Z</time></trkpt><trkpt lat="59.4617199898" lon="31.0833048820"><time>2026-09-02T13:48:11Z</time></trkpt><trkpt lat="59.4616985321" lon="31.0831975937"><time>2026-09-02T13:48:13Z</time></trkpt><trkpt lat="59.4616985321" lon="31.0831761360"><time>2026-09-02T13:48:16Z</time></trkpt><trkpt lat="59.4617199898" lon="31.0831332207"><time>2026-09-02T13:48:18Z</time></trkpt><trkpt lat="59.4617199898" lon="31.0830903053"><time>2026-09-02T13:48:21Z</time></trkpt><trkpt lat="59.4617414474" lon="31.0830259323"><time>2026-09-02T13:48:23Z</time></trkpt><trkpt lat="59.4617414474" lon="31.0830259323"><time>2026-09-02T13:48:26Z</time></trkpt><trkpt lat="59.4616985321" lon="31.0829186440"><time>2026-09-02T13:48:28Z</time></trkpt><trkpt lat="59.4616985321" lon="31.0828542709"><time>2026-09-02T13:48:31Z</time></trkpt><trkpt lat="59.4616770744" lon="31.0827898979"><time>2026-09-02T13:48:33Z</time></trkpt><trkpt lat="59.4616556168" lon="31.0827684402"><time>2026-09-02T13:48:36Z</time></trkpt><trkpt lat="59.4616556168" lon="31.0827684402"><time>2026-09-02T13:48:38Z</time></trkpt><trkpt lat="59.4616556168" lon="31.0827684402"><time>2026-09-02T13:48:41Z</time></trkpt><trkpt lat="59.4616556168" lon="31.0827684402"><time>2026-09-02T13:48:43Z</time></trkpt><trkpt lat="59.4616556168" lon="31.0827255249"><time>2026-09-02T13:48:46Z</time></trkpt><trkpt lat="59.4616770744" lon="31.0826611519"><time>2026-09-02T13:48:48Z</time></trkpt><trkpt lat="59.4616985321" lon="31.0826182365"><time>2026-09-02T13:48:51Z</time></trkpt><trkpt lat="59.4617414474" lon="31.0825753212"><time>2026-09-02T13:48:53Z</time></trkpt><trkpt lat="59.4617414474" lon="31.0825753212"><time>2026-09-02T13:48:56Z</time></trkpt><trkpt lat="59.4617414474" lon="31.0825753212"><time>2026-09-02T13:48:58Z</time></trkpt><trkpt lat="59.4617414474" lon="31.0825753212"><time>2026-09-02T13:49:01Z</time></trkpt><trkpt lat="59.4617629051" lon="31.0825538635"><time>2026-09-02T13:49:03Z</time></trkpt><trkpt lat="59.4617629051" lon="31.0825538635"><time>2026-09-02T13:49:06Z</time></trkpt><trkpt lat="59.4617629051" lon="31.0825538635"><time>2026-09-02T13:49:08Z</time></trkpt><trkpt lat="59.4617629051" lon="31.0825538635"><time>2026-09-02T13:49:11Z</time></trkpt><trkpt lat="59.4617629051" lon="31.0825538635"><time>2026-09-02T13:49:13Z</time></trkpt><trkpt lat="59.4617629051" lon="31.0825538635"><time>2026-09-02T13:49:16Z</time></trkpt><trkpt lat="59.4617629051" lon="31.0825538635"><time>2026-09-02T13:49:18Z</time></trkpt><trkpt lat="59.4617629051" lon="31.0825538635"><time>2026-09-02T13:49:21Z</time></trkpt><trkpt lat="59.4617843628" lon="31.0825538635"><time>2026-09-02T13:49:23Z</time></trkpt><trkpt lat="59.4617843628" lon="31.0825538635"><time>2026-09-02T13:49:26Z</time></trkpt><trkpt lat="59.4617629051" lon="31.0825538635"><time>2026-09-02T13:49:28Z</time></trkpt><trkpt lat="59.4617629051" lon="31.0825538635"><time>2026-09-02T13:49:31Z</time></trkpt><trkpt lat="59.4617629051" lon="31.0825538635"><time>2026-09-02T13:49:33Z</time></trkpt><trkpt lat="59.4617629051" lon="31.0825538635"><time>2026-09-02T13:49:36Z</time></trkpt><trkpt lat="59.4617629051" lon="31.0825538635"><time>2026-09-02T13:49:38Z</time></trkpt><trkpt lat="59.4617629051" lon="31.0825538635"><time>2026-09-02T13:49:41Z</time></trkpt><trkpt lat="59.4617629051" lon="31.0825538635"><time>2026-09-02T13:49:43Z</time></trkpt><trkpt lat="59.4617629051" lon="31.0825538635"><time>2026-09-02T13:49:46Z</time></trkpt><trkpt lat="59.4617629051" lon="31.0825538635"><time>2026-09-02T13:49:48Z</time></trkpt><trkpt lat="59.4617843628" lon="31.0825753212"><time>2026-09-02T13:49:51Z</time></trkpt><trkpt lat="59.4617843628" lon="31.0826182365"><time>2026-09-02T13:49:53Z</time></trkpt><trkpt lat="59.4617843628" lon="31.0825967789"><time>2026-09-02T13:49:56Z</time></trkpt><trkpt lat="59.4617843628" lon="31.0825967789"><time>2026-09-02T13:49:58Z</time></trkpt><trkpt lat="59.4617843628" lon="31.0825967789"><time>2026-09-02T13:50:01Z</time></trkpt><trkpt lat="59.4617843628" lon="31.0825967789"><time>2026-09-02T13:50:03Z</time></trkpt><trkpt lat="59.4617843628" lon="31.0825967789"><time>2026-09-02T13:50:06Z</time></trkpt><trkpt lat="59.4618058205" lon="31.0825753212"><time>2026-09-02T13:50:08Z</time></trkpt><trkpt lat="59.4618058205" lon="31.0825753212"><time>2026-09-02T13:50:11Z</time></trkpt><trkpt lat="59.4618058205" lon="31.0825967789"><time>2026-09-02T13:50:13Z</time></trkpt><trkpt lat="59.4618058205" lon="31.0825967789"><time>2026-09-02T13:50:16Z</time></trkpt><trkpt lat="59.4618058205" lon="31.0826182365"><time>2026-09-02T13:50:18Z</time></trkpt><trkpt lat="59.4618058205" lon="31.0826396942"><time>2026-09-02T13:50:21Z</time></trkpt><trkpt lat="59.4618058205" lon="31.0826396942"><time>2026-09-02T13:50:23Z</time></trkpt><trkpt lat="59.4618272781" lon="31.0826826096"><time>2026-09-02T13:50:26Z</time></trkpt><trkpt lat="59.4618487358" lon="31.0827469826"><time>2026-09-02T13:50:28Z</time></trkpt><trkpt lat="59.4618487358" lon="31.0827898979"><time>2026-09-02T13:50:31Z</time></trkpt><trkpt lat="59.4618916512" lon="31.0828328133"><time>2026-09-02T13:50:33Z</time></trkpt><trkpt lat="59.4619131088" lon="31.0828542709"><time>2026-09-02T13:50:36Z</time></trkpt><trkpt lat="59.4619345665" lon="31.0828757286"><time>2026-09-02T13:50:38Z</time></trkpt><trkpt lat="59.4619774818" lon="31.0829401016"><time>2026-09-02T13:50:41Z</time></trkpt><trkpt lat="59.4619989395" lon="31.0830044746"><time>2026-09-02T13:50:43Z</time></trkpt><trkpt lat="59.4620203972" lon="31.0830259323"><time>2026-09-02T13:50:46Z</time></trkpt><trkpt lat="59.4620203972" lon="31.0830259323"><time>2026-09-02T13:50:48Z</time></trkpt><trkpt lat="59.4620203972" lon="31.0830259323"><time>2026-09-02T13:50:51Z</time></trkpt><trkpt lat="59.4620203972" lon="31.0830473900"><time>2026-09-02T13:50:53Z</time></trkpt><trkpt lat="59.4619989395" lon="31.0830473900"><time>2026-09-02T13:50:56Z</time></trkpt><trkpt lat="59.4619989395" lon="31.0830473900"><time>2026-09-02T13:50:58Z</time></trkpt><trkpt lat="59.4619989395" lon="31.0830903053"><time>2026-09-02T13:51:01Z</time></trkpt><trkpt lat="59.4620203972" lon="31.0831332207"><time>2026-09-02T13:51:03Z</time></trkpt><trkpt lat="59.4620203972" lon="31.0831332207"><time>2026-09-02T13:51:06Z</time></trkpt><trkpt lat="59.4620203972" lon="31.0831546783"><time>2026-09-02T13:51:08Z</time></trkpt><trkpt lat="59.4620203972" lon="31.0831546783"><time>2026-09-02T13:51:11Z</time></trkpt><trkpt lat="59.4620203972" lon="31.0831761360"><time>2026-09-02T13:51:13Z</time></trkpt><trkpt lat="59.4620203972" lon="31.0831761360"><time>2026-09-02T13:51:16Z</time></trkpt><trkpt lat="59.4620203972" lon="31.0831761360"><time>2026-09-02T13:51:18Z</time></trkpt><trkpt lat="59.4620203972" lon="31.0831761360"><time>2026-09-02T13:51:21Z</time></trkpt><trkpt lat="59.4620203972" lon="31.0831975937"><time>2026-09-02T13:51:23Z</time></trkpt><trkpt lat="59.4620418549" lon="31.0832190514"><time>2026-09-02T13:51:26Z</time></trkpt><trkpt lat="59.4620847702" lon="31.0832619667"><time>2026-09-02T13:51:28Z</time></trkpt><trkpt lat="59.4620847702" lon="31.0832619667"><time>2026-09-02T13:51:31Z</time></trkpt><trkpt lat="59.4621062279" lon="31.0832619667"><time>2026-09-02T13:51:33Z</time></trkpt><trkpt lat="59.4621062279" lon="31.0832619667"><time>2026-09-02T13:51:36Z</time></trkpt><trkpt lat="59.4621062279" lon="31.0832619667"><time>2026-09-02T13:51:38Z</time></trkpt><trkpt lat="59.4621062279" lon="31.0832619667"><time>2026-09-02T13:51:41Z</time></trkpt><trkpt lat="59.4621062279" lon="31.0832619667"><time>2026-09-02T13:51:43Z</time></trkpt><trkpt lat="59.4621062279" lon="31.0832619667"><time>2026-09-02T13:51:46Z</time></trkpt><trkpt lat="59.4621062279" lon="31.0832619667"><time>2026-09-02T13:51:48Z</time></trkpt><trkpt lat="59.4621062279" lon="31.0832619667"><time>2026-09-02T13:51:51Z</time></trkpt><trkpt lat="59.4621062279" lon="31.0832619667"><time>2026-09-02T13:51:53Z</time></trkpt><trkpt lat="59.4621062279" lon="31.0832619667"><time>2026-09-02T13:51:56Z</time></trkpt><trkpt lat="59.4621062279" lon="31.0832619667"><time>2026-09-02T13:51:58Z</time></trkpt><trkpt lat="59.4621062279" lon="31.0832619667"><time>2026-09-02T13:52:01Z</time></trkpt><trkpt lat="59.4621062279" lon="31.0832619667"><time>2026-09-02T13:52:03Z</time></trkpt><trkpt lat="59.4621062279" lon="31.0832619667"><time>2026-09-02T13:52:06Z</time></trkpt><trkpt lat="59.4621062279" lon="31.0832619667"><time>2026-09-02T13:52:08Z</time></trkpt><trkpt lat="59.4621062279" lon="31.0832619667"><time>2026-09-02T13:52:11Z</time></trkpt><trkpt lat="59.4621062279" lon="31.0832619667"><time>2026-09-02T13:52:13Z</time></trkpt><trkpt lat="59.4621062279" lon="31.0832619667"><time>2026-09-02T13:52:16Z</time></trkpt><trkpt lat="59.4621062279" lon="31.0832619667"><time>2026-09-02T13:52:18Z</time></trkpt><trkpt lat="59.4621062279" lon="31.0832619667"><time>2026-09-02T13:52:21Z</time></trkpt><trkpt lat="59.4621062279" lon="31.0832619667"><time>2026-09-02T13:52:23Z</time></trkpt><trkpt lat="59.4621062279" lon="31.0832619667"><time>2026-09-02T13:52:26Z</time></trkpt><trkpt lat="59.4621062279" lon="31.0832619667"><time>2026-09-02T13:52:28Z</time></trkpt><trkpt lat="59.4621062279" lon="31.0832619667"><time>2026-09-02T13:52:31Z</time></trkpt><trkpt lat="59.4621062279" lon="31.0832619667"><time>2026-09-02T13:52:33Z</time></trkpt><trkpt lat="59.4621062279" lon="31.0832619667"><time>2026-09-02T13:52:36Z</time></trkpt><trkpt lat="59.4621062279" lon="31.0832619667"><time>2026-09-02T13:52:38Z</time></trkpt><trkpt lat="59.4621062279" lon="31.0832619667"><time>2026-09-02T13:52:41Z</time></trkpt><trkpt lat="59.4621062279" lon="31.0832619667"><time>2026-09-02T13:52:43Z</time></trkpt><trkpt lat="59.4621062279" lon="31.0832619667"><time>2026-09-02T13:52:46Z</time></trkpt><trkpt lat="59.4621062279" lon="31.0832619667"><time>2026-09-02T13:52:48Z</time></trkpt><trkpt lat="59.4621062279" lon="31.0832619667"><time>2026-09-02T13:52:51Z</time></trkpt><trkpt lat="59.4621062279" lon="31.0832619667"><time>2026-09-02T13:52:53Z</time></trkpt><trkpt lat="59.4621062279" lon="31.0832619667"><time>2026-09-02T13:52:56Z</time></trkpt><trkpt lat="59.4621062279" lon="31.0832619667"><time>2026-09-02T13:52:58Z</time></trkpt><trkpt lat="59.4621062279" lon="31.0832619667"><time>2026-09-02T13:53:01Z</time></trkpt><trkpt lat="59.4621062279" lon="31.0832619667"><time>2026-09-02T13:53:03Z</time></trkpt><trkpt lat="59.4621062279" lon="31.0832619667"><time>2026-09-02T13:53:06Z</time></trkpt><trkpt lat="59.4621062279" lon="31.0832619667"><time>2026-09-02T13:53:08Z</time></trkpt><trkpt lat="59.4621062279" lon="31.0832619667"><time>2026-09-02T13:53:11Z</time></trkpt><trkpt lat="59.4621062279" lon="31.0832619667"><time>2026-09-02T13:53:13Z</time></trkpt><trkpt lat="59.4621062279" lon="31.0832619667"><time>2026-09-02T13:53:16Z</time></trkpt><trkpt lat="59.4621062279" lon="31.0832619667"><time>2026-09-02T13:53:18Z</time></trkpt><trkpt lat="59.4621062279" lon="31.0832619667"><time>2026-09-02T13:53:21Z</time></trkpt><trkpt lat="59.4621062279" lon="31.0832619667"><time>2026-09-02T13:53:23Z</time></trkpt><trkpt lat="59.4621062279" lon="31.0832619667"><time>2026-09-02T13:53:26Z</time></trkpt><trkpt lat="59.4621062279" lon="31.0832619667"><time>2026-09-02T13:53:28Z</time></trkpt><trkpt lat="59.4621062279" lon="31.0832619667"><time>2026-09-02T13:53:31Z</time></trkpt><trkpt lat="59.4621062279" lon="31.0832619667"><time>2026-09-02T13:53:33Z</time></trkpt><trkpt lat="59.4621062279" lon="31.0832619667"><time>2026-09-02T13:53:36Z</time></trkpt><trkpt lat="59.4621062279" lon="31.0832619667"><time>2026-09-02T13:53:38Z</time></trkpt><trkpt lat="59.4621062279" lon="31.0832619667"><time>2026-09-02T13:53:41Z</time></trkpt><trkpt lat="59.4621062279" lon="31.0832619667"><time>2026-09-02T13:53:43Z</time></trkpt><trkpt lat="59.4621062279" lon="31.0832619667"><time>2026-09-02T13:53:46Z</time></trkpt><trkpt lat="59.4621062279" lon="31.0832619667"><time>2026-09-02T13:53:48Z</time></trkpt><trkpt lat="59.4621062279" lon="31.0832619667"><time>2026-09-02T13:53:51Z</time></trkpt><trkpt lat="59.4621062279" lon="31.0832619667"><time>2026-09-02T13:53:53Z</time></trkpt><trkpt lat="59.4621062279" lon="31.0832619667"><time>2026-09-02T13:53:56Z</time></trkpt><trkpt lat="59.4621062279" lon="31.0832619667"><time>2026-09-02T13:53:58Z</time></trkpt><trkpt lat="59.4621062279" lon="31.0832619667"><time>2026-09-02T13:54:01Z</time></trkpt><trkpt lat="59.4621062279" lon="31.0832619667"><time>2026-09-02T13:54:03Z</time></trkpt><trkpt lat="59.4621062279" lon="31.0832619667"><time>2026-09-02T13:54:06Z</time></trkpt><trkpt lat="59.4621062279" lon="31.0832619667"><time>2026-09-02T13:54:08Z</time></trkpt><trkpt lat="59.4621062279" lon="31.0832619667"><time>2026-09-02T13:54:11Z</time></trkpt><trkpt lat="59.4621062279" lon="31.0832834244"><time>2026-09-02T13:54:13Z</time></trkpt><trkpt lat="59.4621062279" lon="31.0832834244"><time>2026-09-02T13:54:16Z</time></trkpt><trkpt lat="59.4621062279" lon="31.0832834244"><time>2026-09-02T13:54:18Z</time></trkpt><trkpt lat="59.4621062279" lon="31.0832834244"><time>2026-09-02T13:54:21Z</time></trkpt><trkpt lat="59.4621062279" lon="31.0832834244"><time>2026-09-02T13:54:23Z</time></trkpt><trkpt lat="59.4621062279" lon="31.0832834244"><time>2026-09-02T13:54:26Z</time></trkpt><trkpt lat="59.4621062279" lon="31.0832834244"><time>2026-09-02T13:54:28Z</time></trkpt><trkpt lat="59.4621062279" lon="31.0832834244"><time>2026-09-02T13:54:31Z</time></trkpt><trkpt lat="59.4621062279" lon="31.0832834244"><time>2026-09-02T13:54:33Z</time></trkpt><trkpt lat="59.4621062279" lon="31.0832834244"><time>2026-09-02T13:54:36Z</time></trkpt><trkpt lat="59.4621062279" lon="31.0832834244"><time>2026-09-02T13:54:38Z</time></trkpt><trkpt lat="59.4621062279" lon="31.0832834244"><time>2026-09-02T13:54:41Z</time></trkpt><trkpt lat="59.4621062279" lon="31.0832834244"><time>2026-09-02T13:54:43Z</time></trkpt><trkpt lat="59.4621062279" lon="31.0832834244"><time>2026-09-02T13:54:46Z</time></trkpt><trkpt lat="59.4621062279" lon="31.0832834244"><time>2026-09-02T13:54:48Z</time></trkpt><trkpt lat="59.4621062279" lon="31.0832834244"><time>2026-09-02T13:54:51Z</time></trkpt><trkpt lat="59.4621062279" lon="31.0832834244"><time>2026-09-02T13:54:53Z</time></trkpt><trkpt lat="59.4621062279" lon="31.0832834244"><time>2026-09-02T13:54:56Z</time></trkpt><trkpt lat="59.4621062279" lon="31.0832834244"><time>2026-09-02T13:54:58Z</time></trkpt><trkpt lat="59.4621062279" lon="31.0832834244"><time>2026-09-02T13:55:01Z</time></trkpt><trkpt lat="59.4621062279" lon="31.0832834244"><time>2026-09-02T13:55:03Z</time></trkpt><trkpt lat="59.4621062279" lon="31.0832834244"><time>2026-09-02T13:55:06Z</time></trkpt><trkpt lat="59.4621062279" lon="31.0832834244"><time>2026-09-02T13:55:08Z</time></trkpt><trkpt lat="59.4621062279" lon="31.0832834244"><time>2026-09-02T13:55:11Z</time></trkpt><trkpt lat="59.4621062279" lon="31.0832619667"><time>2026-09-02T13:55:13Z</time></trkpt><trkpt lat="59.4621062279" lon="31.0832619667"><time>2026-09-02T13:55:16Z</time></trkpt><trkpt lat="59.4621062279" lon="31.0832619667"><time>2026-09-02T13:55:18Z</time></trkpt><trkpt lat="59.4621062279" lon="31.0832619667"><time>2026-09-02T13:55:21Z</time></trkpt><trkpt lat="59.4621062279" lon="31.0832619667"><time>2026-09-02T13:55:23Z</time></trkpt><trkpt lat="59.4621062279" lon="31.0832619667"><time>2026-09-02T13:55:26Z</time></trkpt><trkpt lat="59.4621062279" lon="31.0832619667"><time>2026-09-02T13:55:28Z</time></trkpt><trkpt lat="59.4621062279" lon="31.0832619667"><time>2026-09-02T13:55:31Z</time></trkpt><trkpt lat="59.4621062279" lon="31.0832619667"><time>2026-09-02T13:55:33Z</time></trkpt><trkpt lat="59.4621062279" lon="31.0832619667"><time>2026-09-02T13:55:36Z</time></trkpt><trkpt lat="59.4621062279" lon="31.0832619667"><time>2026-09-02T13:55:38Z</time></trkpt><trkpt lat="59.4621062279" lon="31.0832619667"><time>2026-09-02T13:55:41Z</time></trkpt><trkpt lat="59.4621062279" lon="31.0832619667"><time>2026-09-02T13:55:43Z</time></trkpt><trkpt lat="59.4621062279" lon="31.0832619667"><time>2026-09-02T13:55:46Z</time></trkpt><trkpt lat="59.4621062279" lon="31.0832619667"><time>2026-09-02T13:55:48Z</time></trkpt><trkpt lat="59.4621062279" lon="31.0832619667"><time>2026-09-02T13:55:51Z</time></trkpt><trkpt lat="59.4621062279" lon="31.0832619667"><time>2026-09-02T13:55:53Z</time></trkpt><trkpt lat="59.4621062279" lon="31.0832619667"><time>2026-09-02T13:55:56Z</time></trkpt><trkpt lat="59.4621062279" lon="31.0832619667"><time>2026-09-02T13:55:58Z</time></trkpt><trkpt lat="59.4621062279" lon="31.0832619667"><time>2026-09-02T13:56:01Z</time></trkpt><trkpt lat="59.4621062279" lon="31.0832619667"><time>2026-09-02T13:56:03Z</time></trkpt><trkpt lat="59.4621062279" lon="31.0832619667"><time>2026-09-02T13:56:06Z</time></trkpt><trkpt lat="59.4621062279" lon="31.0832619667"><time>2026-09-02T13:56:08Z</time></trkpt><trkpt lat="59.4621062279" lon="31.0832619667"><time>2026-09-02T13:56:11Z</time></trkpt><trkpt lat="59.4621062279" lon="31.0832619667"><time>2026-09-02T13:56:13Z</time></trkpt><trkpt lat="59.4621062279" lon="31.0832619667"><time>2026-09-02T13:56:16Z</time></trkpt><trkpt lat="59.4621062279" lon="31.0832619667"><time>2026-09-02T13:56:18Z</time></trkpt><trkpt lat="59.4621062279" lon="31.0832619667"><time>2026-09-02T13:56:21Z</time></trkpt><trkpt lat="59.4621062279" lon="31.0832619667"><time>2026-09-02T13:56:23Z</time></trkpt><trkpt lat="59.4621062279" lon="31.0832619667"><time>2026-09-02T13:56:26Z</time></trkpt><trkpt lat="59.4621062279" lon="31.0832619667"><time>2026-09-02T13:56:28Z</time></trkpt><trkpt lat="59.4621062279" lon="31.0832619667"><time>2026-09-02T13:56:31Z</time></trkpt><trkpt lat="59.4621062279" lon="31.0832619667"><time>2026-09-02T13:56:33Z</time></trkpt><trkpt lat="59.4621062279" lon="31.0832619667"><time>2026-09-02T13:56:36Z</time></trkpt><trkpt lat="59.4621062279" lon="31.0832619667"><time>2026-09-02T13:56:38Z</time></trkpt><trkpt lat="59.4621062279" lon="31.0832619667"><time>2026-09-02T13:56:41Z</time></trkpt><trkpt lat="59.4621062279" lon="31.0832619667"><time>2026-09-02T13:56:43Z</time></trkpt><trkpt lat="59.4621062279" lon="31.0832619667"><time>2026-09-02T13:56:46Z</time></trkpt><trkpt lat="59.4621062279" lon="31.0832619667"><time>2026-09-02T13:56:48Z</time></trkpt><trkpt lat="59.4621062279" lon="31.0832619667"><time>2026-09-02T13:56:51Z</time></trkpt><trkpt lat="59.4621062279" lon="31.0832619667"><time>2026-09-02T13:56:53Z</time></trkpt><trkpt lat="59.4621062279" lon="31.0832619667"><time>2026-09-02T13:56:56Z</time></trkpt><trkpt lat="59.4621062279" lon="31.0832619667"><time>2026-09-02T13:56:58Z</time></trkpt><trkpt lat="59.4621062279" lon="31.0832619667"><time>2026-09-02T13:57:01Z</time></trkpt><trkpt lat="59.4621062279" lon="31.0832619667"><time>2026-09-02T13:57:03Z</time></trkpt><trkpt lat="59.4621062279" lon="31.0832619667"><time>2026-09-02T13:57:06Z</time></trkpt><trkpt lat="59.4621062279" lon="31.0832619667"><time>2026-09-02T13:57:08Z</time></trkpt><trkpt lat="59.4621062279" lon="31.0832619667"><time>2026-09-02T13:57:11Z</time></trkpt><trkpt lat="59.4621062279" lon="31.0832619667"><time>2026-09-02T13:57:13Z</time></trkpt><trkpt lat="59.4621062279" lon="31.0832619667"><time>2026-09-02T13:57:16Z</time></trkpt><trkpt lat="59.4621062279" lon="31.0832619667"><time>2026-09-02T13:57:18Z</time></trkpt><trkpt lat="59.4621062279" lon="31.0832619667"><time>2026-09-02T13:57:21Z</time></trkpt><trkpt lat="59.4621062279" lon="31.0832619667"><time>2026-09-02T13:57:23Z</time></trkpt><trkpt lat="59.4621062279" lon="31.0832619667"><time>2026-09-02T13:57:26Z</time></trkpt><trkpt lat="59.4621062279" lon="31.0832619667"><time>2026-09-02T13:57:28Z</time></trkpt><trkpt lat="59.4621062279" lon="31.0832619667"><time>2026-09-02T13:57:31Z</time></trkpt><trkpt lat="59.4621062279" lon="31.0832619667"><time>2026-09-02T13:57:33Z</time></trkpt><trkpt lat="59.4621062279" lon="31.0832619667"><time>2026-09-02T13:57:36Z</time></trkpt><trkpt lat="59.4621062279" lon="31.0832619667"><time>2026-09-02T13:57:38Z</time></trkpt><trkpt lat="59.4621062279" lon="31.0832619667"><time>2026-09-02T13:57:41Z</time></trkpt><trkpt lat="59.4621062279" lon="31.0832619667"><time>2026-09-02T13:57:43Z</time></trkpt><trkpt lat="59.4621062279" lon="31.0832619667"><time>2026-09-02T13:57:46Z</time></trkpt><trkpt lat="59.4621062279" lon="31.0832619667"><time>2026-09-02T13:57:48Z</time></trkpt><trkpt lat="59.4621062279" lon="31.0832619667"><time>2026-09-02T13:57:51Z</time></trkpt><trkpt lat="59.4621062279" lon="31.0832405090"><time>2026-09-02T13:57:53Z</time></trkpt><trkpt lat="59.4621062279" lon="31.0832405090"><time>2026-09-02T13:57:56Z</time></trkpt><trkpt lat="59.4621062279" lon="31.0832405090"><time>2026-09-02T13:57:58Z</time></trkpt><trkpt lat="59.4621062279" lon="31.0832405090"><time>2026-09-02T13:58:01Z</time></trkpt><trkpt lat="59.4621062279" lon="31.0832405090"><time>2026-09-02T13:58:03Z</time></trkpt><trkpt lat="59.4621062279" lon="31.0832405090"><time>2026-09-02T13:58:06Z</time></trkpt><trkpt lat="59.4621062279" lon="31.0832405090"><time>2026-09-02T13:58:08Z</time></trkpt><trkpt lat="59.4621062279" lon="31.0832405090"><time>2026-09-02T13:58:11Z</time></trkpt><trkpt lat="59.4621062279" lon="31.0832405090"><time>2026-09-02T13:58:13Z</time></trkpt><trkpt lat="59.4621062279" lon="31.0832405090"><time>2026-09-02T13:58:16Z</time></trkpt><trkpt lat="59.4621062279" lon="31.0832405090"><time>2026-09-02T13:58:18Z</time></trkpt><trkpt lat="59.4621062279" lon="31.0832405090"><time>2026-09-02T13:58:21Z</time></trkpt><trkpt lat="59.4621062279" lon="31.0832405090"><time>2026-09-02T13:58:23Z</time></trkpt><trkpt lat="59.4621062279" lon="31.0832405090"><time>2026-09-02T13:58:26Z</time></trkpt><trkpt lat="59.4621062279" lon="31.0832405090"><time>2026-09-02T13:58:28Z</time></trkpt><trkpt lat="59.4621062279" lon="31.0832405090"><time>2026-09-02T13:58:31Z</time></trkpt><trkpt lat="59.4621062279" lon="31.0832405090"><time>2026-09-02T13:58:33Z</time></trkpt><trkpt lat="59.4621062279" lon="31.0832405090"><time>2026-09-02T13:58:36Z</time></trkpt><trkpt lat="59.4621062279" lon="31.0832405090"><time>2026-09-02T13:58:38Z</time></trkpt><trkpt lat="59.4621062279" lon="31.0832405090"><time>2026-09-02T13:58:41Z</time></trkpt><trkpt lat="59.4621062279" lon="31.0832405090"><time>2026-09-02T13:58:43Z</time></trkpt><trkpt lat="59.4621062279" lon="31.0832405090"><time>2026-09-02T13:58:46Z</time></trkpt><trkpt lat="59.4621062279" lon="31.0832405090"><time>2026-09-02T13:58:48Z</time></trkpt><trkpt lat="59.4621062279" lon="31.0832405090"><time>2026-09-02T13:58:51Z</time></trkpt><trkpt lat="59.4621062279" lon="31.0832405090"><time>2026-09-02T13:58:53Z</time></trkpt><trkpt lat="59.4621062279" lon="31.0832405090"><time>2026-09-02T13:58:56Z</time></trkpt><trkpt lat="59.4621062279" lon="31.0832405090"><time>2026-09-02T13:58:58Z</time></trkpt><trkpt lat="59.4621062279" lon="31.0832405090"><time>2026-09-02T13:59:01Z</time></trkpt><trkpt lat="59.4621062279" lon="31.0832405090"><time>2026-09-02T13:59:03Z</time></trkpt><trkpt lat="59.4621062279" lon="31.0832405090"><time>2026-09-02T13:59:06Z</time></trkpt><trkpt lat="59.4621062279" lon="31.0832405090"><time>2026-09-02T13:59:08Z</time></trkpt><trkpt lat="59.4621062279" lon="31.0832405090"><time>2026-09-02T13:59:11Z</time></trkpt><trkpt lat="59.4621062279" lon="31.0832405090"><time>2026-09-02T13:59:13Z</time></trkpt><trkpt lat="59.4621062279" lon="31.0832405090"><time>2026-09-02T13:59:16Z</time></trkpt><trkpt lat="59.4621062279" lon="31.0832405090"><time>2026-09-02T13:59:18Z</time></trkpt><trkpt lat="59.4621062279" lon="31.0832405090"><time>2026-09-02T13:59:21Z</time></trkpt><trkpt lat="59.4621062279" lon="31.0832405090"><time>2026-09-02T13:59:23Z</time></trkpt><trkpt lat="59.4621062279" lon="31.0832405090"><time>2026-09-02T13:59:26Z</time></trkpt><trkpt lat="59.4621062279" lon="31.0832405090"><time>2026-09-02T13:59:28Z</time></trkpt><trkpt lat="59.4621062279" lon="31.0832405090"><time>2026-09-02T13:59:31Z</time></trkpt><trkpt lat="59.4621062279" lon="31.0832405090"><time>2026-09-02T13:59:33Z</time></trkpt><trkpt lat="59.4621062279" lon="31.0832405090"><time>2026-09-02T13:59:36Z</time></trkpt><trkpt lat="59.4621062279" lon="31.0832405090"><time>2026-09-02T13:59:38Z</time></trkpt><trkpt lat="59.4621062279" lon="31.0832405090"><time>2026-09-02T13:59:41Z</time></trkpt><trkpt lat="59.4621062279" lon="31.0832405090"><time>2026-09-02T13:59:43Z</time></trkpt><trkpt lat="59.4621062279" lon="31.0832405090"><time>2026-09-02T13:59:46Z</time></trkpt><trkpt lat="59.4621062279" lon="31.0832405090"><time>2026-09-02T13:59:48Z</time></trkpt><trkpt lat="59.4621062279" lon="31.0832405090"><time>2026-09-02T13:59:51Z</time></trkpt><trkpt lat="59.4621062279" lon="31.0832190514"><time>2026-09-02T13:59:53Z</time></trkpt><trkpt lat="59.4621062279" lon="31.0832190514"><time>2026-09-02T13:59:56Z</time></trkpt><trkpt lat="59.4621062279" lon="31.0832190514"><time>2026-09-02T13:59:58Z</time></trkpt><trkpt lat="59.4621062279" lon="31.0832190514"><time>2026-09-02T14:00:01Z</time></trkpt><trkpt lat="59.4621062279" lon="31.0832190514"><time>2026-09-02T14:00:03Z</time></trkpt><trkpt lat="59.4621062279" lon="31.0832190514"><time>2026-09-02T14:00:06Z</time></trkpt><trkpt lat="59.4621062279" lon="31.0832190514"><time>2026-09-02T14:00:08Z</time></trkpt><trkpt lat="59.4621062279" lon="31.0832190514"><time>2026-09-02T14:00:11Z</time></trkpt><trkpt lat="59.4621062279" lon="31.0832190514"><time>2026-09-02T14:00:13Z</time></trkpt><trkpt lat="59.4621062279" lon="31.0832190514"><time>2026-09-02T14:00:16Z</time></trkpt><trkpt lat="59.4621062279" lon="31.0832190514"><time>2026-09-02T14:00:18Z</time></trkpt><trkpt lat="59.4621062279" lon="31.0832190514"><time>2026-09-02T14:00:21Z</time></trkpt><trkpt lat="59.4621062279" lon="31.0832190514"><time>2026-09-02T14:00:23Z</time></trkpt><trkpt lat="59.4621062279" lon="31.0832190514"><time>2026-09-02T14:00:26Z</time></trkpt><trkpt lat="59.4621062279" lon="31.0832190514"><time>2026-09-02T14:00:28Z</time></trkpt><trkpt lat="59.4621062279" lon="31.0832190514"><time>2026-09-02T14:00:31Z</time></trkpt><trkpt lat="59.4621062279" lon="31.0832190514"><time>2026-09-02T14:00:33Z</time></trkpt><trkpt lat="59.4621062279" lon="31.0832190514"><time>2026-09-02T14:00:36Z</time></trkpt><trkpt lat="59.4621062279" lon="31.0832190514"><time>2026-09-02T14:00:38Z</time></trkpt><trkpt lat="59.4621062279" lon="31.0832190514"><time>2026-09-02T14:00:41Z</time></trkpt><trkpt lat="59.4621062279" lon="31.0832190514"><time>2026-09-02T14:00:43Z</time></trkpt><trkpt lat="59.4621062279" lon="31.0832190514"><time>2026-09-02T14:00:46Z</time></trkpt><trkpt lat="59.4621062279" lon="31.0832190514"><time>2026-09-02T14:00:48Z</time></trkpt><trkpt lat="59.4621062279" lon="31.0832190514"><time>2026-09-02T14:00:51Z</time></trkpt><trkpt lat="59.4621062279" lon="31.0832190514"><time>2026-09-02T14:00:53Z</time></trkpt><trkpt lat="59.4621062279" lon="31.0832190514"><time>2026-09-02T14:00:56Z</time></trkpt><trkpt lat="59.4621062279" lon="31.0832190514"><time>2026-09-02T14:00:58Z</time></trkpt><trkpt lat="59.4621062279" lon="31.0832190514"><time>2026-09-02T14:01:01Z</time></trkpt><trkpt lat="59.4621062279" lon="31.0832190514"><time>2026-09-02T14:01:03Z</time></trkpt><trkpt lat="59.4621062279" lon="31.0832190514"><time>2026-09-02T14:01:06Z</time></trkpt><trkpt lat="59.4621062279" lon="31.0832190514"><time>2026-09-02T14:01:08Z</time></trkpt><trkpt lat="59.4621062279" lon="31.0832190514"><time>2026-09-02T14:01:11Z</time></trkpt><trkpt lat="59.4621062279" lon="31.0832190514"><time>2026-09-02T14:01:13Z</time></trkpt><trkpt lat="59.4621062279" lon="31.0832190514"><time>2026-09-02T14:01:16Z</time></trkpt><trkpt lat="59.4621062279" lon="31.0832190514"><time>2026-09-02T14:01:18Z</time></trkpt><trkpt lat="59.4621062279" lon="31.0832190514"><time>2026-09-02T14:01:21Z</time></trkpt><trkpt lat="59.4621062279" lon="31.0832190514"><time>2026-09-02T14:01:23Z</time></trkpt><trkpt lat="59.4621062279" lon="31.0832190514"><time>2026-09-02T14:01:26Z</time></trkpt><trkpt lat="59.4621062279" lon="31.0832190514"><time>2026-09-02T14:01:28Z</time></trkpt><trkpt lat="59.4621062279" lon="31.0832190514"><time>2026-09-02T14:01:31Z</time></trkpt><trkpt lat="59.4621062279" lon="31.0832190514"><time>2026-09-02T14:01:33Z</time></trkpt><trkpt lat="59.4621062279" lon="31.0832190514"><time>2026-09-02T14:01:36Z</time></trkpt><trkpt lat="59.4621062279" lon="31.0832190514"><time>2026-09-02T14:01:38Z</time></trkpt><trkpt lat="59.4621062279" lon="31.0832190514"><time>2026-09-02T14:01:41Z</time></trkpt><trkpt lat="59.4621062279" lon="31.0832190514"><time>2026-09-02T14:01:43Z</time></trkpt><trkpt lat="59.4621062279" lon="31.0832190514"><time>2026-09-02T14:01:46Z</time></trkpt><trkpt lat="59.4621062279" lon="31.0832190514"><time>2026-09-02T14:01:48Z</time></trkpt><trkpt lat="59.4621062279" lon="31.0832190514"><time>2026-09-02T14:01:51Z</time></trkpt><trkpt lat="59.4621062279" lon="31.0832190514"><time>2026-09-02T14:01:53Z</time></trkpt><trkpt lat="59.4621062279" lon="31.0832190514"><time>2026-09-02T14:01:56Z</time></trkpt><trkpt lat="59.4621062279" lon="31.0832190514"><time>2026-09-02T14:01:58Z</time></trkpt><trkpt lat="59.4621062279" lon="31.0832190514"><time>2026-09-02T14:02:01Z</time></trkpt><trkpt lat="59.4621062279" lon="31.0832190514"><time>2026-09-02T14:02:03Z</time></trkpt><trkpt lat="59.4621062279" lon="31.0832190514"><time>2026-09-02T14:02:06Z</time></trkpt><trkpt lat="59.4621062279" lon="31.0832190514"><time>2026-09-02T14:02:08Z</time></trkpt><trkpt lat="59.4621062279" lon="31.0832190514"><time>2026-09-02T14:02:11Z</time></trkpt><trkpt lat="59.4621062279" lon="31.0832190514"><time>2026-09-02T14:02:13Z</time></trkpt><trkpt lat="59.4621062279" lon="31.0832190514"><time>2026-09-02T14:02:16Z</time></trkpt><trkpt lat="59.4621062279" lon="31.0832190514"><time>2026-09-02T14:02:18Z</time></trkpt><trkpt lat="59.4621062279" lon="31.0832190514"><time>2026-09-02T14:02:21Z</time></trkpt><trkpt lat="59.4621062279" lon="31.0832190514"><time>2026-09-02T14:02:23Z</time></trkpt><trkpt lat="59.4621062279" lon="31.0832190514"><time>2026-09-02T14:02:26Z</time></trkpt><trkpt lat="59.4621062279" lon="31.0832190514"><time>2026-09-02T14:02:28Z</time></trkpt><trkpt lat="59.4621062279" lon="31.0832190514"><time>2026-09-02T14:02:31Z</time></trkpt><trkpt lat="59.4621062279" lon="31.0832190514"><time>2026-09-02T14:02:33Z</time></trkpt><trkpt lat="59.4621062279" lon="31.0832190514"><time>2026-09-02T14:02:36Z</time></trkpt><trkpt lat="59.4621062279" lon="31.0832190514"><time>2026-09-02T14:02:38Z</time></trkpt><trkpt lat="59.4621062279" lon="31.0832190514"><time>2026-09-02T14:02:41Z</time></trkpt><trkpt lat="59.4621062279" lon="31.0832190514"><time>2026-09-02T14:02:46Z</time></trkpt><trkpt lat="59.4621062279" lon="31.0832190514"><time>2026-09-02T14:02:48Z</time></trkpt><trkpt lat="59.4621062279" lon="31.0832190514"><time>2026-09-02T14:02:51Z</time></trkpt><trkpt lat="59.4621062279" lon="31.0832190514"><time>2026-09-02T14:02:53Z</time></trkpt><trkpt lat="59.4621062279" lon="31.0832190514"><time>2026-09-02T14:02:56Z</time></trkpt><trkpt lat="59.4621062279" lon="31.0832190514"><time>2026-09-02T14:02:58Z</time></trkpt><trkpt lat="59.4621062279" lon="31.0832190514"><time>2026-09-02T14:03:01Z</time></trkpt><trkpt lat="59.4621062279" lon="31.0832190514"><time>2026-09-02T14:03:03Z</time></trkpt><trkpt lat="59.4621062279" lon="31.0832190514"><time>2026-09-02T14:03:06Z</time></trkpt><trkpt lat="59.4621062279" lon="31.0832190514"><time>2026-09-02T14:03:08Z</time></trkpt><trkpt lat="59.4621062279" lon="31.0832190514"><time>2026-09-02T14:03:11Z</time></trkpt><trkpt lat="59.4621062279" lon="31.0832190514"><time>2026-09-02T14:03:13Z</time></trkpt><trkpt lat="59.4621062279" lon="31.0832190514"><time>2026-09-02T14:03:16Z</time></trkpt><trkpt lat="59.4621062279" lon="31.0832190514"><time>2026-09-02T14:03:18Z</time></trkpt><trkpt lat="59.4621062279" lon="31.0832190514"><time>2026-09-02T14:03:21Z</time></trkpt><trkpt lat="59.4621062279" lon="31.0832190514"><time>2026-09-02T14:03:23Z</time></trkpt><trkpt lat="59.4621062279" lon="31.0832190514"><time>2026-09-02T14:03:26Z</time></trkpt><trkpt lat="59.4621062279" lon="31.0832190514"><time>2026-09-02T14:03:28Z</time></trkpt><trkpt lat="59.4621062279" lon="31.0832190514"><time>2026-09-02T14:03:31Z</time></trkpt><trkpt lat="59.4621062279" lon="31.0832190514"><time>2026-09-02T14:03:33Z</time></trkpt><trkpt lat="59.4621062279" lon="31.0832190514"><time>2026-09-02T14:03:36Z</time></trkpt><trkpt lat="59.4621062279" lon="31.0832190514"><time>2026-09-02T14:03:38Z</time></trkpt><trkpt lat="59.4621062279" lon="31.0832190514"><time>2026-09-02T14:03:41Z</time></trkpt><trkpt lat="59.4621062279" lon="31.0832190514"><time>2026-09-02T14:03:43Z</time></trkpt><trkpt lat="59.4621062279" lon="31.0832190514"><time>2026-09-02T14:03:46Z</time></trkpt><trkpt lat="59.4621062279" lon="31.0832190514"><time>2026-09-02T14:03:48Z</time></trkpt><trkpt lat="59.4621062279" lon="31.0832190514"><time>2026-09-02T14:03:51Z</time></trkpt><trkpt lat="59.4621062279" lon="31.0832190514"><time>2026-09-02T14:03:53Z</time></trkpt><trkpt lat="59.4621062279" lon="31.0832190514"><time>2026-09-02T14:03:56Z</time></trkpt><trkpt lat="59.4621062279" lon="31.0832190514"><time>2026-09-02T14:03:58Z</time></trkpt><trkpt lat="59.4621062279" lon="31.0832190514"><time>2026-09-02T14:04:01Z</time></trkpt><trkpt lat="59.4621062279" lon="31.0832190514"><time>2026-09-02T14:04:03Z</time></trkpt><trkpt lat="59.4621062279" lon="31.0832190514"><time>2026-09-02T14:04:06Z</time></trkpt><trkpt lat="59.4621062279" lon="31.0832190514"><time>2026-09-02T14:04:08Z</time></trkpt><trkpt lat="59.4621062279" lon="31.0832190514"><time>2026-09-02T14:04:11Z</time></trkpt><trkpt lat="59.4621062279" lon="31.0832190514"><time>2026-09-02T14:04:13Z</time></trkpt><trkpt lat="59.4621062279" lon="31.0832190514"><time>2026-09-02T14:04:16Z</time></trkpt><trkpt lat="59.4621062279" lon="31.0832190514"><time>2026-09-02T14:04:18Z</time></trkpt><trkpt lat="59.4621062279" lon="31.0832190514"><time>2026-09-02T14:04:21Z</time></trkpt><trkpt lat="59.4621062279" lon="31.0832190514"><time>2026-09-02T14:04:23Z</time></trkpt><trkpt lat="59.4621062279" lon="31.0832190514"><time>2026-09-02T14:04:26Z</time></trkpt><trkpt lat="59.4621062279" lon="31.0832190514"><time>2026-09-02T14:04:28Z</time></trkpt><trkpt lat="59.4621062279" lon="31.0832190514"><time>2026-09-02T14:04:31Z</time></trkpt><trkpt lat="59.4621062279" lon="31.0832190514"><time>2026-09-02T14:04:33Z</time></trkpt><trkpt lat="59.4621062279" lon="31.0832190514"><time>2026-09-02T14:04:36Z</time></trkpt><trkpt lat="59.4621062279" lon="31.0832190514"><time>2026-09-02T14:04:38Z</time></trkpt><trkpt lat="59.4621062279" lon="31.0832190514"><time>2026-09-02T14:04:41Z</time></trkpt><trkpt lat="59.4621062279" lon="31.0832190514"><time>2026-09-02T14:04:43Z</time></trkpt><trkpt lat="59.4621062279" lon="31.0832190514"><time>2026-09-02T14:04:46Z</time></trkpt><trkpt lat="59.4621062279" lon="31.0832190514"><time>2026-09-02T14:04:48Z</time></trkpt><trkpt lat="59.4621062279" lon="31.0832190514"><time>2026-09-02T14:04:51Z</time></trkpt><trkpt lat="59.4621062279" lon="31.0832190514"><time>2026-09-02T14:04:53Z</time></trkpt><trkpt lat="59.4621062279" lon="31.0832190514"><time>2026-09-02T14:04:56Z</time></trkpt><trkpt lat="59.4621062279" lon="31.0832190514"><time>2026-09-02T14:04:58Z</time></trkpt><trkpt lat="59.4621062279" lon="31.0832190514"><time>2026-09-02T14:05:01Z</time></trkpt><trkpt lat="59.4621062279" lon="31.0832190514"><time>2026-09-02T14:05:03Z</time></trkpt><trkpt lat="59.4621062279" lon="31.0832190514"><time>2026-09-02T14:05:06Z</time></trkpt><trkpt lat="59.4621062279" lon="31.0832190514"><time>2026-09-02T14:05:08Z</time></trkpt><trkpt lat="59.4621062279" lon="31.0832190514"><time>2026-09-02T14:05:11Z</time></trkpt><trkpt lat="59.4621276855" lon="31.0831975937"><time>2026-09-02T14:05:13Z</time></trkpt><trkpt lat="59.4621276855" lon="31.0831975937"><time>2026-09-02T14:05:16Z</time></trkpt><trkpt lat="59.4621276855" lon="31.0831975937"><time>2026-09-02T14:05:18Z</time></trkpt><trkpt lat="59.4621276855" lon="31.0831975937"><time>2026-09-02T14:05:21Z</time></trkpt><trkpt lat="59.4621276855" lon="31.0831975937"><time>2026-09-02T14:05:23Z</time></trkpt><trkpt lat="59.4621276855" lon="31.0831975937"><time>2026-09-02T14:05:26Z</time></trkpt><trkpt lat="59.4621276855" lon="31.0831975937"><time>2026-09-02T14:05:28Z</time></trkpt><trkpt lat="59.4621276855" lon="31.0831975937"><time>2026-09-02T14:05:31Z</time></trkpt><trkpt lat="59.4621276855" lon="31.0831975937"><time>2026-09-02T14:05:33Z</time></trkpt><trkpt lat="59.4621276855" lon="31.0831975937"><time>2026-09-02T14:05:36Z</time></trkpt><trkpt lat="59.4621276855" lon="31.0831975937"><time>2026-09-02T14:05:38Z</time></trkpt><trkpt lat="59.4620847702" lon="31.0832834244"><time>2026-09-02T14:05:41Z</time></trkpt><trkpt lat="59.4620847702" lon="31.0832834244"><time>2026-09-02T14:05:43Z</time></trkpt><trkpt lat="59.4621062279" lon="31.0833048820"><time>2026-09-02T14:05:46Z</time></trkpt><trkpt lat="59.4621062279" lon="31.0833263397"><time>2026-09-02T14:05:48Z</time></trkpt><trkpt lat="59.4620847702" lon="31.0833477974"><time>2026-09-02T14:05:51Z</time></trkpt><trkpt lat="59.4620847702" lon="31.0833477974"><time>2026-09-02T14:05:53Z</time></trkpt><trkpt lat="59.4620847702" lon="31.0833263397"><time>2026-09-02T14:05:56Z</time></trkpt><trkpt lat="59.4620633125" lon="31.0833263397"><time>2026-09-02T14:05:58Z</time></trkpt><trkpt lat="59.4620418549" lon="31.0833263397"><time>2026-09-02T14:06:01Z</time></trkpt><trkpt lat="59.4620418549" lon="31.0833263397"><time>2026-09-02T14:06:03Z</time></trkpt><trkpt lat="59.4620418549" lon="31.0833263397"><time>2026-09-02T14:06:06Z</time></trkpt><trkpt lat="59.4620418549" lon="31.0833263397"><time>2026-09-02T14:06:08Z</time></trkpt><trkpt lat="59.4620418549" lon="31.0833263397"><time>2026-09-02T14:06:11Z</time></trkpt><trkpt lat="59.4620203972" lon="31.0833048820"><time>2026-09-02T14:06:13Z</time></trkpt><trkpt lat="59.4620203972" lon="31.0832834244"><time>2026-09-02T14:06:16Z</time></trkpt><trkpt lat="59.4619989395" lon="31.0832619667"><time>2026-09-02T14:06:18Z</time></trkpt><trkpt lat="59.4619774818" lon="31.0832619667"><time>2026-09-02T14:06:21Z</time></trkpt><trkpt lat="59.4619774818" lon="31.0832619667"><time>2026-09-02T14:06:23Z</time></trkpt><trkpt lat="59.4619560242" lon="31.0832405090"><time>2026-09-02T14:06:26Z</time></trkpt><trkpt lat="59.4619345665" lon="31.0832405090"><time>2026-09-02T14:06:28Z</time></trkpt><trkpt lat="59.4619131088" lon="31.0832405090"><time>2026-09-02T14:06:31Z</time></trkpt><trkpt lat="59.4618916512" lon="31.0832190514"><time>2026-09-02T14:06:33Z</time></trkpt><trkpt lat="59.4618916512" lon="31.0831975937"><time>2026-09-02T14:06:36Z</time></trkpt><trkpt lat="59.4618701935" lon="31.0831546783"><time>2026-09-02T14:06:38Z</time></trkpt><trkpt lat="59.4618701935" lon="31.0831546783"><time>2026-09-02T14:06:41Z</time></trkpt><trkpt lat="59.4618487358" lon="31.0831546783"><time>2026-09-02T14:06:43Z</time></trkpt><trkpt lat="59.4618058205" lon="31.0831761360"><time>2026-09-02T14:06:46Z</time></trkpt><trkpt lat="59.4617843628" lon="31.0831761360"><time>2026-09-02T14:06:48Z</time></trkpt><trkpt lat="59.4617629051" lon="31.0831546783"><time>2026-09-02T14:06:51Z</time></trkpt><trkpt lat="59.4617199898" lon="31.0831332207"><time>2026-09-02T14:06:53Z</time></trkpt><trkpt lat="59.4616985321" lon="31.0831332207"><time>2026-09-02T14:06:56Z</time></trkpt><trkpt lat="59.4616985321" lon="31.0831117630"><time>2026-09-02T14:06:58Z</time></trkpt><trkpt lat="59.4616985321" lon="31.0831117630"><time>2026-09-02T14:07:01Z</time></trkpt><trkpt lat="59.4616770744" lon="31.0831117630"><time>2026-09-02T14:07:03Z</time></trkpt><trkpt lat="59.4616770744" lon="31.0831117630"><time>2026-09-02T14:07:06Z</time></trkpt><trkpt lat="59.4616556168" lon="31.0830903053"><time>2026-09-02T14:07:08Z</time></trkpt><trkpt lat="59.4616127014" lon="31.0830688477"><time>2026-09-02T14:07:11Z</time></trkpt><trkpt lat="59.4615697861" lon="31.0830688477"><time>2026-09-02T14:07:13Z</time></trkpt><trkpt lat="59.4615268707" lon="31.0831117630"><time>2026-09-02T14:07:16Z</time></trkpt><trkpt lat="59.4614624977" lon="31.0831332207"><time>2026-09-02T14:07:18Z</time></trkpt><trkpt lat="59.4614195824" lon="31.0831761360"><time>2026-09-02T14:07:21Z</time></trkpt><trkpt lat="59.4613766670" lon="31.0832190514"><time>2026-09-02T14:07:23Z</time></trkpt><trkpt lat="59.4613766670" lon="31.0832619667"><time>2026-09-02T14:07:26Z</time></trkpt><trkpt lat="59.4613766670" lon="31.0832834244"><time>2026-09-02T14:07:28Z</time></trkpt><trkpt lat="59.4613552094" lon="31.0832619667"><time>2026-09-02T14:07:31Z</time></trkpt><trkpt lat="59.4613337517" lon="31.0832190514"><time>2026-09-02T14:07:33Z</time></trkpt><trkpt lat="59.4613122940" lon="31.0831975937"><time>2026-09-02T14:07:36Z</time></trkpt><trkpt lat="59.4612908363" lon="31.0831546783"><time>2026-09-02T14:07:38Z</time></trkpt><trkpt lat="59.4612693787" lon="31.0831117630"><time>2026-09-02T14:07:41Z</time></trkpt><trkpt lat="59.4612693787" lon="31.0830688477"><time>2026-09-02T14:07:43Z</time></trkpt><trkpt lat="59.4612693787" lon="31.0830259323"><time>2026-09-02T14:07:46Z</time></trkpt><trkpt lat="59.4612693787" lon="31.0829830170"><time>2026-09-02T14:07:48Z</time></trkpt><trkpt lat="59.4612693787" lon="31.0829615593"><time>2026-09-02T14:07:51Z</time></trkpt><trkpt lat="59.4612693787" lon="31.0829615593"><time>2026-09-02T14:07:53Z</time></trkpt><trkpt lat="59.4612693787" lon="31.0829615593"><time>2026-09-02T14:07:56Z</time></trkpt><trkpt lat="59.4612693787" lon="31.0829401016"><time>2026-09-02T14:07:58Z</time></trkpt><trkpt lat="59.4612693787" lon="31.0829401016"><time>2026-09-02T14:08:01Z</time></trkpt><trkpt lat="59.4612479210" lon="31.0828971863"><time>2026-09-02T14:08:03Z</time></trkpt><trkpt lat="59.4612479210" lon="31.0828757286"><time>2026-09-02T14:08:06Z</time></trkpt><trkpt lat="59.4612479210" lon="31.0828542709"><time>2026-09-02T14:08:08Z</time></trkpt><trkpt lat="59.4612479210" lon="31.0828328133"><time>2026-09-02T14:08:11Z</time></trkpt><trkpt lat="59.4612264633" lon="31.0827898979"><time>2026-09-02T14:08:13Z</time></trkpt><trkpt lat="59.4612264633" lon="31.0827469826"><time>2026-09-02T14:08:16Z</time></trkpt><trkpt lat="59.4612050056" lon="31.0826826096"><time>2026-09-02T14:08:18Z</time></trkpt><trkpt lat="59.4612050056" lon="31.0826182365"><time>2026-09-02T14:08:21Z</time></trkpt><trkpt lat="59.4612050056" lon="31.0825967789"><time>2026-09-02T14:08:23Z</time></trkpt><trkpt lat="59.4611835480" lon="31.0825967789"><time>2026-09-02T14:08:26Z</time></trkpt><trkpt lat="59.4611835480" lon="31.0825967789"><time>2026-09-02T14:08:28Z</time></trkpt><trkpt lat="59.4611835480" lon="31.0825967789"><time>2026-09-02T14:08:31Z</time></trkpt><trkpt lat="59.4611835480" lon="31.0825967789"><time>2026-09-02T14:08:33Z</time></trkpt><trkpt lat="59.4611835480" lon="31.0825967789"><time>2026-09-02T14:08:36Z</time></trkpt><trkpt lat="59.4611835480" lon="31.0825967789"><time>2026-09-02T14:08:38Z</time></trkpt><trkpt lat="59.4611835480" lon="31.0825967789"><time>2026-09-02T14:08:41Z</time></trkpt><trkpt lat="59.4612050056" lon="31.0826396942"><time>2026-09-02T14:08:43Z</time></trkpt><trkpt lat="59.4612050056" lon="31.0826396942"><time>2026-09-02T14:08:46Z</time></trkpt><trkpt lat="59.4612264633" lon="31.0826826096"><time>2026-09-02T14:08:48Z</time></trkpt><trkpt lat="59.4612264633" lon="31.0826826096"><time>2026-09-02T14:08:51Z</time></trkpt><trkpt lat="59.4612264633" lon="31.0826826096"><time>2026-09-02T14:08:53Z</time></trkpt><trkpt lat="59.4612264633" lon="31.0826826096"><time>2026-09-02T14:08:56Z</time></trkpt><trkpt lat="59.4612264633" lon="31.0826826096"><time>2026-09-02T14:08:58Z</time></trkpt><trkpt lat="59.4612264633" lon="31.0826826096"><time>2026-09-02T14:09:01Z</time></trkpt><trkpt lat="59.4612264633" lon="31.0826826096"><time>2026-09-02T14:09:03Z</time></trkpt><trkpt lat="59.4612264633" lon="31.0826826096"><time>2026-09-02T14:09:06Z</time></trkpt><trkpt lat="59.4612264633" lon="31.0826826096"><time>2026-09-02T14:09:08Z</time></trkpt><trkpt lat="59.4612264633" lon="31.0826826096"><time>2026-09-02T14:09:11Z</time></trkpt><trkpt lat="59.4612264633" lon="31.0826826096"><time>2026-09-02T14:09:13Z</time></trkpt><trkpt lat="59.4612264633" lon="31.0826826096"><time>2026-09-02T14:09:16Z</time></trkpt><trkpt lat="59.4612264633" lon="31.0827040672"><time>2026-09-02T14:09:18Z</time></trkpt><trkpt lat="59.4612264633" lon="31.0827040672"><time>2026-09-02T14:09:21Z</time></trkpt><trkpt lat="59.4612264633" lon="31.0827255249"><time>2026-09-02T14:09:23Z</time></trkpt><trkpt lat="59.4612264633" lon="31.0827469826"><time>2026-09-02T14:09:26Z</time></trkpt><trkpt lat="59.4612264633" lon="31.0827898979"><time>2026-09-02T14:09:28Z</time></trkpt><trkpt lat="59.4612050056" lon="31.0828113556"><time>2026-09-02T14:09:31Z</time></trkpt><trkpt lat="59.4612050056" lon="31.0828328133"><time>2026-09-02T14:09:33Z</time></trkpt><trkpt lat="59.4612050056" lon="31.0828542709"><time>2026-09-02T14:09:36Z</time></trkpt><trkpt lat="59.4612050056" lon="31.0828542709"><time>2026-09-02T14:09:38Z</time></trkpt><trkpt lat="59.4611835480" lon="31.0828971863"><time>2026-09-02T14:09:41Z</time></trkpt><trkpt lat="59.4611620903" lon="31.0829186440"><time>2026-09-02T14:09:43Z</time></trkpt><trkpt lat="59.4611406326" lon="31.0829186440"><time>2026-09-02T14:09:46Z</time></trkpt><trkpt lat="59.4611191750" lon="31.0829615593"><time>2026-09-02T14:09:48Z</time></trkpt><trkpt lat="59.4610977173" lon="31.0829830170"><time>2026-09-02T14:09:51Z</time></trkpt><trkpt lat="59.4610762596" lon="31.0830044746"><time>2026-09-02T14:09:53Z</time></trkpt><trkpt lat="59.4610762596" lon="31.0830044746"><time>2026-09-02T14:09:56Z</time></trkpt><trkpt lat="59.4610548019" lon="31.0830473900"><time>2026-09-02T14:09:58Z</time></trkpt><trkpt lat="59.4610548019" lon="31.0830473900"><time>2026-09-02T14:10:01Z</time></trkpt><trkpt lat="59.4610548019" lon="31.0830903053"><time>2026-09-02T14:10:03Z</time></trkpt><trkpt lat="59.4610333443" lon="31.0831546783"><time>2026-09-02T14:10:06Z</time></trkpt><trkpt lat="59.4610118866" lon="31.0832190514"><time>2026-09-02T14:10:08Z</time></trkpt><trkpt lat="59.4610118866" lon="31.0832190514"><time>2026-09-02T14:10:11Z</time></trkpt><trkpt lat="59.4610118866" lon="31.0832405090"><time>2026-09-02T14:10:13Z</time></trkpt><trkpt lat="59.4609904289" lon="31.0832405090"><time>2026-09-02T14:10:16Z</time></trkpt><trkpt lat="59.4609689713" lon="31.0831975937"><time>2026-09-02T14:10:18Z</time></trkpt><trkpt lat="59.4609689713" lon="31.0831761360"><time>2026-09-02T14:10:21Z</time></trkpt><trkpt lat="59.4609475136" lon="31.0831975937"><time>2026-09-02T14:10:23Z</time></trkpt><trkpt lat="59.4609260559" lon="31.0832405090"><time>2026-09-02T14:10:26Z</time></trkpt><trkpt lat="59.4608831406" lon="31.0832619667"><time>2026-09-02T14:10:28Z</time></trkpt><trkpt lat="59.4608616829" lon="31.0832619667"><time>2026-09-02T14:10:31Z</time></trkpt><trkpt lat="59.4608616829" lon="31.0832834244"><time>2026-09-02T14:10:33Z</time></trkpt><trkpt lat="59.4608616829" lon="31.0833048820"><time>2026-09-02T14:10:36Z</time></trkpt><trkpt lat="59.4608402252" lon="31.0833263397"><time>2026-09-02T14:10:38Z</time></trkpt><trkpt lat="59.4608402252" lon="31.0833263397"><time>2026-09-02T14:10:41Z</time></trkpt><trkpt lat="59.4608402252" lon="31.0833692551"><time>2026-09-02T14:10:43Z</time></trkpt><trkpt lat="59.4608187675" lon="31.0833907127"><time>2026-09-02T14:10:46Z</time></trkpt><trkpt lat="59.4608187675" lon="31.0834121704"><time>2026-09-02T14:10:48Z</time></trkpt><trkpt lat="59.4607973099" lon="31.0834336281"><time>2026-09-02T14:10:51Z</time></trkpt><trkpt lat="59.4607973099" lon="31.0834980011"><time>2026-09-02T14:10:53Z</time></trkpt><trkpt lat="59.4607758522" lon="31.0835623741"><time>2026-09-02T14:10:56Z</time></trkpt><trkpt lat="59.4607543945" lon="31.0836267471"><time>2026-09-02T14:10:58Z</time></trkpt><trkpt lat="59.4607543945" lon="31.0836911201"><time>2026-09-02T14:11:01Z</time></trkpt><trkpt lat="59.4607543945" lon="31.0836911201"><time>2026-09-02T14:11:03Z</time></trkpt><trkpt lat="59.4607543945" lon="31.0836482048"><time>2026-09-02T14:11:06Z</time></trkpt><trkpt lat="59.4607114792" lon="31.0836267471"><time>2026-09-02T14:11:08Z</time></trkpt><trkpt lat="59.4607114792" lon="31.0836052895"><time>2026-09-02T14:11:11Z</time></trkpt><trkpt lat="59.4607114792" lon="31.0836052895"><time>2026-09-02T14:11:13Z</time></trkpt><trkpt lat="59.4606900215" lon="31.0836267471"><time>2026-09-02T14:11:16Z</time></trkpt><trkpt lat="59.4606900215" lon="31.0836267471"><time>2026-09-02T14:11:18Z</time></trkpt><trkpt lat="59.4606685638" lon="31.0836482048"><time>2026-09-02T14:11:21Z</time></trkpt><trkpt lat="59.4606471062" lon="31.0836482048"><time>2026-09-02T14:11:23Z</time></trkpt><trkpt lat="59.4606041908" lon="31.0836482048"><time>2026-09-02T14:11:26Z</time></trkpt><trkpt lat="59.4605612755" lon="31.0837125778"><time>2026-09-02T14:11:28Z</time></trkpt><trkpt lat="59.4605183601" lon="31.0837125778"><time>2026-09-02T14:11:31Z</time></trkpt><trkpt lat="59.4604754448" lon="31.0837554932"><time>2026-09-02T14:11:33Z</time></trkpt><trkpt lat="59.4604754448" lon="31.0837769508"><time>2026-09-02T14:11:36Z</time></trkpt><trkpt lat="59.4604325294" lon="31.0838627815"><time>2026-09-02T14:11:38Z</time></trkpt><trkpt lat="59.4603896141" lon="31.0839271545"><time>2026-09-02T14:11:41Z</time></trkpt><trkpt lat="59.4603896141" lon="31.0839486122"><time>2026-09-02T14:11:43Z</time></trkpt><trkpt lat="59.4603896141" lon="31.0839486122"><time>2026-09-02T14:11:46Z</time></trkpt><trkpt lat="59.4603896141" lon="31.0839486122"><time>2026-09-02T14:11:48Z</time></trkpt><trkpt lat="59.4603896141" lon="31.0839486122"><time>2026-09-02T14:11:51Z</time></trkpt><trkpt lat="59.4603896141" lon="31.0839486122"><time>2026-09-02T14:11:53Z</time></trkpt><trkpt lat="59.4603896141" lon="31.0839486122"><time>2026-09-02T14:11:56Z</time></trkpt><trkpt lat="59.4603896141" lon="31.0839486122"><time>2026-09-02T14:11:58Z</time></trkpt><trkpt lat="59.4603896141" lon="31.0839486122"><time>2026-09-02T14:12:01Z</time></trkpt><trkpt lat="59.4603896141" lon="31.0839486122"><time>2026-09-02T14:12:03Z</time></trkpt><trkpt lat="59.4603896141" lon="31.0839486122"><time>2026-09-02T14:12:06Z</time></trkpt><trkpt lat="59.4603896141" lon="31.0839486122"><time>2026-09-02T14:12:08Z</time></trkpt><trkpt lat="59.4603896141" lon="31.0839486122"><time>2026-09-02T14:12:11Z</time></trkpt><trkpt lat="59.4603896141" lon="31.0839700699"><time>2026-09-02T14:12:13Z</time></trkpt><trkpt lat="59.4603681564" lon="31.0839700699"><time>2026-09-02T14:12:16Z</time></trkpt><trkpt lat="59.4603681564" lon="31.0839700699"><time>2026-09-02T14:12:18Z</time></trkpt><trkpt lat="59.4603681564" lon="31.0839700699"><time>2026-09-02T14:12:21Z</time></trkpt><trkpt lat="59.4603681564" lon="31.0840129852"><time>2026-09-02T14:12:23Z</time></trkpt><trkpt lat="59.4603466988" lon="31.0840344429"><time>2026-09-02T14:12:26Z</time></trkpt><trkpt lat="59.4603466988" lon="31.0840344429"><time>2026-09-02T14:12:28Z</time></trkpt><trkpt lat="59.4603466988" lon="31.0840344429"><time>2026-09-02T14:12:31Z</time></trkpt><trkpt lat="59.4603466988" lon="31.0840344429"><time>2026-09-02T14:12:33Z</time></trkpt><trkpt lat="59.4603466988" lon="31.0840344429"><time>2026-09-02T14:12:36Z</time></trkpt><trkpt lat="59.4603037834" lon="31.0840559006"><time>2026-09-02T14:12:38Z</time></trkpt><trkpt lat="59.4602823257" lon="31.0841202736"><time>2026-09-02T14:12:41Z</time></trkpt><trkpt lat="59.4602179527" lon="31.0842061043"><time>2026-09-02T14:12:43Z</time></trkpt><trkpt lat="59.4601964951" lon="31.0842275620"><time>2026-09-02T14:12:46Z</time></trkpt><trkpt lat="59.4601535797" lon="31.0842490196"><time>2026-09-02T14:12:48Z</time></trkpt><trkpt lat="59.4601321220" lon="31.0842919350"><time>2026-09-02T14:12:51Z</time></trkpt><trkpt lat="59.4600677490" lon="31.0843133926"><time>2026-09-02T14:12:53Z</time></trkpt><trkpt lat="59.4600462914" lon="31.0843777657"><time>2026-09-02T14:12:56Z</time></trkpt><trkpt lat="59.4600033760" lon="31.0844421387"><time>2026-09-02T14:12:58Z</time></trkpt><trkpt lat="59.4599819183" lon="31.0844850540"><time>2026-09-02T14:13:01Z</time></trkpt><trkpt lat="59.4599390030" lon="31.0845494270"><time>2026-09-02T14:13:03Z</time></trkpt><trkpt lat="59.4599390030" lon="31.0845923424"><time>2026-09-02T14:13:06Z</time></trkpt><trkpt lat="59.4599175453" lon="31.0846781731"><time>2026-09-02T14:13:08Z</time></trkpt><trkpt lat="59.4598960876" lon="31.0847425461"><time>2026-09-02T14:13:11Z</time></trkpt><trkpt lat="59.4598960876" lon="31.0848498344"><time>2026-09-02T14:13:13Z</time></trkpt><trkpt lat="59.4598960876" lon="31.0848927498"><time>2026-09-02T14:13:16Z</time></trkpt><trkpt lat="59.4599175453" lon="31.0850000381"><time>2026-09-02T14:13:18Z</time></trkpt><trkpt lat="59.4599175453" lon="31.0850644112"><time>2026-09-02T14:13:21Z</time></trkpt><trkpt lat="59.4599175453" lon="31.0851073265"><time>2026-09-02T14:13:23Z</time></trkpt><trkpt lat="59.4599175453" lon="31.0851287842"><time>2026-09-02T14:13:26Z</time></trkpt><trkpt lat="59.4599175453" lon="31.0851931572"><time>2026-09-02T14:13:28Z</time></trkpt><trkpt lat="59.4599175453" lon="31.0851931572"><time>2026-09-02T14:13:31Z</time></trkpt><trkpt lat="59.4599175453" lon="31.0851716995"><time>2026-09-02T14:13:33Z</time></trkpt><trkpt lat="59.4599390030" lon="31.0851073265"><time>2026-09-02T14:13:36Z</time></trkpt><trkpt lat="59.4599390030" lon="31.0850644112"><time>2026-09-02T14:13:38Z</time></trkpt><trkpt lat="59.4599390030" lon="31.0850644112"><time>2026-09-02T14:13:41Z</time></trkpt><trkpt lat="59.4599175453" lon="31.0850858688"><time>2026-09-02T14:13:43Z</time></trkpt><trkpt lat="59.4599390030" lon="31.0850858688"><time>2026-09-02T14:13:46Z</time></trkpt><trkpt lat="59.4599175453" lon="31.0850858688"><time>2026-09-02T14:13:48Z</time></trkpt><trkpt lat="59.4598746300" lon="31.0849571228"><time>2026-09-02T14:13:51Z</time></trkpt><trkpt lat="59.4598102570" lon="31.0848069191"><time>2026-09-02T14:13:53Z</time></trkpt><trkpt lat="59.4597673416" lon="31.0847210884"><time>2026-09-02T14:13:56Z</time></trkpt><trkpt lat="59.4597244263" lon="31.0846567154"><time>2026-09-02T14:13:58Z</time></trkpt><trkpt lat="59.4596815109" lon="31.0846138000"><time>2026-09-02T14:14:01Z</time></trkpt><trkpt lat="59.4596815109" lon="31.0845065117"><time>2026-09-02T14:14:03Z</time></trkpt><trkpt lat="59.4596600533" lon="31.0845065117"><time>2026-09-02T14:14:06Z</time></trkpt><trkpt lat="59.4596171379" lon="31.0844421387"><time>2026-09-02T14:14:08Z</time></trkpt><trkpt lat="59.4596171379" lon="31.0844421387"><time>2026-09-02T14:14:11Z</time></trkpt><trkpt lat="59.4596171379" lon="31.0844421387"><time>2026-09-02T14:14:13Z</time></trkpt><trkpt lat="59.4595742226" lon="31.0844421387"><time>2026-09-02T14:14:16Z</time></trkpt><trkpt lat="59.4595313072" lon="31.0844421387"><time>2026-09-02T14:14:18Z</time></trkpt><trkpt lat="59.4594669342" lon="31.0844635963"><time>2026-09-02T14:14:21Z</time></trkpt><trkpt lat="59.4593811035" lon="31.0844635963"><time>2026-09-02T14:14:23Z</time></trkpt><trkpt lat="59.4593381882" lon="31.0844850540"><time>2026-09-02T14:14:26Z</time></trkpt><trkpt lat="59.4592952728" lon="31.0844850540"><time>2026-09-02T14:14:28Z</time></trkpt><trkpt lat="59.4592952728" lon="31.0844850540"><time>2026-09-02T14:14:31Z</time></trkpt><trkpt lat="59.4592952728" lon="31.0844635963"><time>2026-09-02T14:14:33Z</time></trkpt><trkpt lat="59.4592952728" lon="31.0844206810"><time>2026-09-02T14:14:36Z</time></trkpt><trkpt lat="59.4592738152" lon="31.0843992233"><time>2026-09-02T14:14:38Z</time></trkpt><trkpt lat="59.4592738152" lon="31.0843992233"><time>2026-09-02T14:14:41Z</time></trkpt><trkpt lat="59.4592738152" lon="31.0843992233"><time>2026-09-02T14:14:43Z</time></trkpt><trkpt lat="59.4592738152" lon="31.0843992233"><time>2026-09-02T14:14:46Z</time></trkpt><trkpt lat="59.4592738152" lon="31.0843992233"><time>2026-09-02T14:14:48Z</time></trkpt><trkpt lat="59.4592738152" lon="31.0843992233"><time>2026-09-02T14:14:51Z</time></trkpt><trkpt lat="59.4592738152" lon="31.0843992233"><time>2026-09-02T14:14:53Z</time></trkpt><trkpt lat="59.4592738152" lon="31.0843992233"><time>2026-09-02T14:14:56Z</time></trkpt><trkpt lat="59.4592738152" lon="31.0843992233"><time>2026-09-02T14:14:58Z</time></trkpt><trkpt lat="59.4592738152" lon="31.0843992233"><time>2026-09-02T14:15:01Z</time></trkpt><trkpt lat="59.4592523575" lon="31.0844206810"><time>2026-09-02T14:15:03Z</time></trkpt><trkpt lat="59.4592523575" lon="31.0844206810"><time>2026-09-02T14:15:06Z</time></trkpt><trkpt lat="59.4592523575" lon="31.0843992233"><time>2026-09-02T14:15:08Z</time></trkpt><trkpt lat="59.4592523575" lon="31.0843992233"><time>2026-09-02T14:15:11Z</time></trkpt><trkpt lat="59.4592308998" lon="31.0843992233"><time>2026-09-02T14:15:13Z</time></trkpt><trkpt lat="59.4592308998" lon="31.0843992233"><time>2026-09-02T14:15:16Z</time></trkpt><trkpt lat="59.4592308998" lon="31.0843992233"><time>2026-09-02T14:15:18Z</time></trkpt><trkpt lat="59.4592308998" lon="31.0843992233"><time>2026-09-02T14:15:21Z</time></trkpt><trkpt lat="59.4592308998" lon="31.0843992233"><time>2026-09-02T14:15:23Z</time></trkpt><trkpt lat="59.4592094421" lon="31.0843777657"><time>2026-09-02T14:15:26Z</time></trkpt><trkpt lat="59.4591879845" lon="31.0843563080"><time>2026-09-02T14:15:28Z</time></trkpt><trkpt lat="59.4591450691" lon="31.0843133926"><time>2026-09-02T14:15:31Z</time></trkpt><trkpt lat="59.4590806961" lon="31.0843133926"><time>2026-09-02T14:15:33Z</time></trkpt><trkpt lat="59.4590592384" lon="31.0842704773"><time>2026-09-02T14:15:36Z</time></trkpt><trkpt lat="59.4589734077" lon="31.0842704773"><time>2026-09-02T14:15:38Z</time></trkpt><trkpt lat="59.4588875771" lon="31.0842704773"><time>2026-09-02T14:15:41Z</time></trkpt><trkpt lat="59.4588232040" lon="31.0842704773"><time>2026-09-02T14:15:43Z</time></trkpt><trkpt lat="59.4587588310" lon="31.0842919350"><time>2026-09-02T14:15:48Z</time></trkpt><trkpt lat="59.4587373734" lon="31.0842919350"><time>2026-09-02T14:15:51Z</time></trkpt><trkpt lat="59.4586944580" lon="31.0842919350"><time>2026-09-02T14:15:53Z</time></trkpt><trkpt lat="59.4586730003" lon="31.0842919350"><time>2026-09-02T14:15:56Z</time></trkpt><trkpt lat="59.4586300850" lon="31.0842919350"><time>2026-09-02T14:15:58Z</time></trkpt><trkpt lat="59.4586086273" lon="31.0843348503"><time>2026-09-02T14:16:01Z</time></trkpt><trkpt lat="59.4585442543" lon="31.0843992233"><time>2026-09-02T14:16:03Z</time></trkpt><trkpt lat="59.4585227966" lon="31.0843992233"><time>2026-09-02T14:16:06Z</time></trkpt><trkpt lat="59.4585013390" lon="31.0844206810"><time>2026-09-02T14:16:08Z</time></trkpt><trkpt lat="59.4584798813" lon="31.0844206810"><time>2026-09-02T14:16:11Z</time></trkpt><trkpt lat="59.4584584236" lon="31.0843992233"><time>2026-09-02T14:16:13Z</time></trkpt><trkpt lat="59.4584369659" lon="31.0843777657"><time>2026-09-02T14:16:16Z</time></trkpt><trkpt lat="59.4584584236" lon="31.0843348503"><time>2026-09-02T14:16:18Z</time></trkpt><trkpt lat="59.4585013390" lon="31.0843563080"><time>2026-09-02T14:16:21Z</time></trkpt><trkpt lat="59.4585657120" lon="31.0843992233"><time>2026-09-02T14:16:23Z</time></trkpt><trkpt lat="59.4585871696" lon="31.0844206810"><time>2026-09-02T14:16:26Z</time></trkpt><trkpt lat="59.4585657120" lon="31.0844850540"><time>2026-09-02T14:16:28Z</time></trkpt><trkpt lat="59.4585442543" lon="31.0845279694"><time>2026-09-02T14:16:31Z</time></trkpt><trkpt lat="59.4585013390" lon="31.0845279694"><time>2026-09-02T14:16:33Z</time></trkpt><trkpt lat="59.4584798813" lon="31.0845065117"><time>2026-09-02T14:16:36Z</time></trkpt><trkpt lat="59.4584798813" lon="31.0845065117"><time>2026-09-02T14:16:38Z</time></trkpt><trkpt lat="59.4584798813" lon="31.0845065117"><time>2026-09-02T14:16:41Z</time></trkpt><trkpt lat="59.4585013390" lon="31.0845494270"><time>2026-09-02T14:16:43Z</time></trkpt><trkpt lat="59.4585013390" lon="31.0846352577"><time>2026-09-02T14:16:46Z</time></trkpt><trkpt lat="59.4585442543" lon="31.0847210884"><time>2026-09-02T14:16:48Z</time></trkpt><trkpt lat="59.4585442543" lon="31.0847210884"><time>2026-09-02T14:16:51Z</time></trkpt><trkpt lat="59.4585442543" lon="31.0847210884"><time>2026-09-02T14:16:53Z</time></trkpt><trkpt lat="59.4585442543" lon="31.0847210884"><time>2026-09-02T14:16:56Z</time></trkpt><trkpt lat="59.4585442543" lon="31.0847210884"><time>2026-09-02T14:16:58Z</time></trkpt><trkpt lat="59.4585442543" lon="31.0847210884"><time>2026-09-02T14:17:01Z</time></trkpt><trkpt lat="59.4585442543" lon="31.0847210884"><time>2026-09-02T14:17:03Z</time></trkpt><trkpt lat="59.4585442543" lon="31.0847210884"><time>2026-09-02T14:17:06Z</time></trkpt><trkpt lat="59.4585227966" lon="31.0846996307"><time>2026-09-02T14:17:08Z</time></trkpt><trkpt lat="59.4585013390" lon="31.0846781731"><time>2026-09-02T14:17:11Z</time></trkpt><trkpt lat="59.4584369659" lon="31.0846352577"><time>2026-09-02T14:17:13Z</time></trkpt><trkpt lat="59.4584369659" lon="31.0845923424"><time>2026-09-02T14:17:16Z</time></trkpt><trkpt lat="59.4584155083" lon="31.0845923424"><time>2026-09-02T14:17:18Z</time></trkpt><trkpt lat="59.4584369659" lon="31.0846138000"><time>2026-09-02T14:17:21Z</time></trkpt><trkpt lat="59.4584155083" lon="31.0846781731"><time>2026-09-02T14:17:23Z</time></trkpt><trkpt lat="59.4583940506" lon="31.0846996307"><time>2026-09-02T14:17:26Z</time></trkpt><trkpt lat="59.4583940506" lon="31.0847210884"><time>2026-09-02T14:17:28Z</time></trkpt><trkpt lat="59.4583940506" lon="31.0847210884"><time>2026-09-02T14:17:31Z</time></trkpt><trkpt lat="59.4583940506" lon="31.0847640038"><time>2026-09-02T14:17:33Z</time></trkpt><trkpt lat="59.4583940506" lon="31.0847640038"><time>2026-09-02T14:17:36Z</time></trkpt><trkpt lat="59.4583725929" lon="31.0847854614"><time>2026-09-02T14:17:38Z</time></trkpt><trkpt lat="59.4583725929" lon="31.0847854614"><time>2026-09-02T14:17:41Z</time></trkpt><trkpt lat="59.4583725929" lon="31.0847854614"><time>2026-09-02T14:17:43Z</time></trkpt><trkpt lat="59.4583725929" lon="31.0847854614"><time>2026-09-02T14:17:46Z</time></trkpt><trkpt lat="59.4583725929" lon="31.0847854614"><time>2026-09-02T14:17:48Z</time></trkpt><trkpt lat="59.4583725929" lon="31.0847854614"><time>2026-09-02T14:17:51Z</time></trkpt><trkpt lat="59.4583725929" lon="31.0847854614"><time>2026-09-02T14:17:53Z</time></trkpt><trkpt lat="59.4583511353" lon="31.0847854614"><time>2026-09-02T14:17:56Z</time></trkpt><trkpt lat="59.4583296776" lon="31.0848069191"><time>2026-09-02T14:17:58Z</time></trkpt><trkpt lat="59.4583082199" lon="31.0848283768"><time>2026-09-02T14:18:01Z</time></trkpt><trkpt lat="59.4582653046" lon="31.0848712921"><time>2026-09-02T14:18:03Z</time></trkpt><trkpt lat="59.4582438469" lon="31.0848927498"><time>2026-09-02T14:18:06Z</time></trkpt><trkpt lat="59.4582009315" lon="31.0849142075"><time>2026-09-02T14:18:08Z</time></trkpt><trkpt lat="59.4581580162" lon="31.0849142075"><time>2026-09-02T14:18:11Z</time></trkpt><trkpt lat="59.4581365585" lon="31.0849571228"><time>2026-09-02T14:18:13Z</time></trkpt><trkpt lat="59.4581151009" lon="31.0849571228"><time>2026-09-02T14:18:16Z</time></trkpt><trkpt lat="59.4580721855" lon="31.0850000381"><time>2026-09-02T14:18:18Z</time></trkpt><trkpt lat="59.4580721855" lon="31.0850214958"><time>2026-09-02T14:18:21Z</time></trkpt><trkpt lat="59.4580507278" lon="31.0850429535"><time>2026-09-02T14:18:23Z</time></trkpt><trkpt lat="59.4580507278" lon="31.0850644112"><time>2026-09-02T14:18:26Z</time></trkpt><trkpt lat="59.4580507278" lon="31.0850000381"><time>2026-09-02T14:18:28Z</time></trkpt><trkpt lat="59.4580507278" lon="31.0849785805"><time>2026-09-02T14:18:31Z</time></trkpt><trkpt lat="59.4580507278" lon="31.0849356651"><time>2026-09-02T14:18:33Z</time></trkpt><trkpt lat="59.4580721855" lon="31.0849356651"><time>2026-09-02T14:18:36Z</time></trkpt><trkpt lat="59.4580721855" lon="31.0849356651"><time>2026-09-02T14:18:38Z</time></trkpt><trkpt lat="59.4580721855" lon="31.0849356651"><time>2026-09-02T14:18:41Z</time></trkpt><trkpt lat="59.4580507278" lon="31.0849785805"><time>2026-09-02T14:18:43Z</time></trkpt><trkpt lat="59.4580721855" lon="31.0849785805"><time>2026-09-02T14:18:46Z</time></trkpt><trkpt lat="59.4580721855" lon="31.0850214958"><time>2026-09-02T14:18:48Z</time></trkpt><trkpt lat="59.4580721855" lon="31.0850214958"><time>2026-09-02T14:18:51Z</time></trkpt><trkpt lat="59.4580721855" lon="31.0850000381"><time>2026-09-02T14:18:53Z</time></trkpt><trkpt lat="59.4580721855" lon="31.0850000381"><time>2026-09-02T14:18:56Z</time></trkpt><trkpt lat="59.4580721855" lon="31.0850000381"><time>2026-09-02T14:18:58Z</time></trkpt><trkpt lat="59.4580721855" lon="31.0850000381"><time>2026-09-02T14:19:01Z</time></trkpt><trkpt lat="59.4580721855" lon="31.0850000381"><time>2026-09-02T14:19:03Z</time></trkpt><trkpt lat="59.4580721855" lon="31.0850000381"><time>2026-09-02T14:19:06Z</time></trkpt><trkpt lat="59.4580721855" lon="31.0850000381"><time>2026-09-02T14:19:08Z</time></trkpt><trkpt lat="59.4580721855" lon="31.0850000381"><time>2026-09-02T14:19:11Z</time></trkpt><trkpt lat="59.4580721855" lon="31.0850000381"><time>2026-09-02T14:19:13Z</time></trkpt><trkpt lat="59.4580721855" lon="31.0850000381"><time>2026-09-02T14:19:16Z</time></trkpt><trkpt lat="59.4580721855" lon="31.0850000381"><time>2026-09-02T14:19:18Z</time></trkpt><trkpt lat="59.4580721855" lon="31.0850000381"><time>2026-09-02T14:19:21Z</time></trkpt><trkpt lat="59.4580721855" lon="31.0850000381"><time>2026-09-02T14:19:23Z</time></trkpt><trkpt lat="59.4580721855" lon="31.0850000381"><time>2026-09-02T14:19:26Z</time></trkpt><trkpt lat="59.4580721855" lon="31.0850000381"><time>2026-09-02T14:19:28Z</time></trkpt><trkpt lat="59.4580721855" lon="31.0850000381"><time>2026-09-02T14:19:31Z</time></trkpt><trkpt lat="59.4580721855" lon="31.0850214958"><time>2026-09-02T14:19:33Z</time></trkpt><trkpt lat="59.4580721855" lon="31.0850214958"><time>2026-09-02T14:19:36Z</time></trkpt><trkpt lat="59.4580507278" lon="31.0850214958"><time>2026-09-02T14:19:38Z</time></trkpt><trkpt lat="59.4580292702" lon="31.0850858688"><time>2026-09-02T14:19:41Z</time></trkpt><trkpt lat="59.4580292702" lon="31.0851287842"><time>2026-09-02T14:19:43Z</time></trkpt><trkpt lat="59.4580292702" lon="31.0851716995"><time>2026-09-02T14:19:46Z</time></trkpt><trkpt lat="59.4580292702" lon="31.0851716995"><time>2026-09-02T14:19:48Z</time></trkpt><trkpt lat="59.4580292702" lon="31.0851716995"><time>2026-09-02T14:19:51Z</time></trkpt><trkpt lat="59.4580292702" lon="31.0851931572"><time>2026-09-02T14:19:53Z</time></trkpt><trkpt lat="59.4580292702" lon="31.0851931572"><time>2026-09-02T14:19:56Z</time></trkpt><trkpt lat="59.4580292702" lon="31.0851931572"><time>2026-09-02T14:19:58Z</time></trkpt><trkpt lat="59.4580292702" lon="31.0851931572"><time>2026-09-02T14:20:01Z</time></trkpt><trkpt lat="59.4580292702" lon="31.0851931572"><time>2026-09-02T14:20:03Z</time></trkpt><trkpt lat="59.4580292702" lon="31.0851931572"><time>2026-09-02T14:20:06Z</time></trkpt><trkpt lat="59.4580292702" lon="31.0851931572"><time>2026-09-02T14:20:08Z</time></trkpt><trkpt lat="59.4580292702" lon="31.0852146149"><time>2026-09-02T14:20:11Z</time></trkpt><trkpt lat="59.4580292702" lon="31.0852575302"><time>2026-09-02T14:20:13Z</time></trkpt><trkpt lat="59.4580292702" lon="31.0852789879"><time>2026-09-02T14:20:16Z</time></trkpt><trkpt lat="59.4580507278" lon="31.0853004456"><time>2026-09-02T14:20:18Z</time></trkpt><trkpt lat="59.4580507278" lon="31.0853433609"><time>2026-09-02T14:20:21Z</time></trkpt><trkpt lat="59.4580507278" lon="31.0853433609"><time>2026-09-02T14:20:23Z</time></trkpt><trkpt lat="59.4580507278" lon="31.0853433609"><time>2026-09-02T14:20:26Z</time></trkpt><trkpt lat="59.4580507278" lon="31.0853433609"><time>2026-09-02T14:20:28Z</time></trkpt><trkpt lat="59.4580721855" lon="31.0853648186"><time>2026-09-02T14:20:31Z</time></trkpt><trkpt lat="59.4580721855" lon="31.0854077339"><time>2026-09-02T14:20:33Z</time></trkpt><trkpt lat="59.4580721855" lon="31.0854721069"><time>2026-09-02T14:20:36Z</time></trkpt><trkpt lat="59.4580721855" lon="31.0855150223"><time>2026-09-02T14:20:38Z</time></trkpt><trkpt lat="59.4580721855" lon="31.0855150223"><time>2026-09-02T14:20:41Z</time></trkpt><trkpt lat="59.4580936432" lon="31.0855364799"><time>2026-09-02T14:20:43Z</time></trkpt><trkpt lat="59.4580936432" lon="31.0855793953"><time>2026-09-02T14:20:46Z</time></trkpt><trkpt lat="59.4581151009" lon="31.0856652260"><time>2026-09-02T14:20:48Z</time></trkpt><trkpt lat="59.4580936432" lon="31.0856866837"><time>2026-09-02T14:20:51Z</time></trkpt><trkpt lat="59.4580936432" lon="31.0857081413"><time>2026-09-02T14:20:53Z</time></trkpt><trkpt lat="59.4580936432" lon="31.0857081413"><time>2026-09-02T14:20:56Z</time></trkpt><trkpt lat="59.4580936432" lon="31.0857081413"><time>2026-09-02T14:20:58Z</time></trkpt><trkpt lat="59.4580936432" lon="31.0857081413"><time>2026-09-02T14:21:01Z</time></trkpt><trkpt lat="59.4580936432" lon="31.0857081413"><time>2026-09-02T14:21:03Z</time></trkpt><trkpt lat="59.4580936432" lon="31.0857081413"><time>2026-09-02T14:21:06Z</time></trkpt><trkpt lat="59.4580936432" lon="31.0857081413"><time>2026-09-02T14:21:08Z</time></trkpt><trkpt lat="59.4580936432" lon="31.0857081413"><time>2026-09-02T14:21:11Z</time></trkpt><trkpt lat="59.4580936432" lon="31.0857081413"><time>2026-09-02T14:21:13Z</time></trkpt><trkpt lat="59.4580936432" lon="31.0857081413"><time>2026-09-02T14:21:16Z</time></trkpt><trkpt lat="59.4580936432" lon="31.0857081413"><time>2026-09-02T14:21:18Z</time></trkpt><trkpt lat="59.4581151009" lon="31.0857081413"><time>2026-09-02T14:21:21Z</time></trkpt><trkpt lat="59.4581151009" lon="31.0856866837"><time>2026-09-02T14:21:23Z</time></trkpt><trkpt lat="59.4581151009" lon="31.0856652260"><time>2026-09-02T14:21:26Z</time></trkpt><trkpt lat="59.4581365585" lon="31.0856652260"><time>2026-09-02T14:21:28Z</time></trkpt><trkpt lat="59.4581365585" lon="31.0856652260"><time>2026-09-02T14:21:31Z</time></trkpt><trkpt lat="59.4581365585" lon="31.0856652260"><time>2026-09-02T14:21:33Z</time></trkpt><trkpt lat="59.4581365585" lon="31.0856652260"><time>2026-09-02T14:21:36Z</time></trkpt><trkpt lat="59.4581365585" lon="31.0856652260"><time>2026-09-02T14:21:38Z</time></trkpt><trkpt lat="59.4581365585" lon="31.0856652260"><time>2026-09-02T14:21:41Z</time></trkpt><trkpt lat="59.4581365585" lon="31.0856652260"><time>2026-09-02T14:21:43Z</time></trkpt><trkpt lat="59.4581365585" lon="31.0856866837"><time>2026-09-02T14:21:46Z</time></trkpt><trkpt lat="59.4581365585" lon="31.0856866837"><time>2026-09-02T14:21:48Z</time></trkpt><trkpt lat="59.4581365585" lon="31.0856866837"><time>2026-09-02T14:21:51Z</time></trkpt><trkpt lat="59.4581365585" lon="31.0856866837"><time>2026-09-02T14:21:53Z</time></trkpt><trkpt lat="59.4581365585" lon="31.0856866837"><time>2026-09-02T14:21:56Z</time></trkpt><trkpt lat="59.4581580162" lon="31.0857081413"><time>2026-09-02T14:21:58Z</time></trkpt><trkpt lat="59.4581794739" lon="31.0857295990"><time>2026-09-02T14:22:01Z</time></trkpt><trkpt lat="59.4581794739" lon="31.0857510567"><time>2026-09-02T14:22:03Z</time></trkpt><trkpt lat="59.4581794739" lon="31.0857510567"><time>2026-09-02T14:22:06Z</time></trkpt><trkpt lat="59.4582009315" lon="31.0857510567"><time>2026-09-02T14:22:11Z</time></trkpt><trkpt lat="59.4582223892" lon="31.0858154297"><time>2026-09-02T14:22:13Z</time></trkpt><trkpt lat="59.4582438469" lon="31.0858154297"><time>2026-09-02T14:22:16Z</time></trkpt><trkpt lat="59.4582867622" lon="31.0858798027"><time>2026-09-02T14:22:18Z</time></trkpt><trkpt lat="59.4582653046" lon="31.0858798027"><time>2026-09-02T14:22:21Z</time></trkpt><trkpt lat="59.4582653046" lon="31.0859012604"><time>2026-09-02T14:22:23Z</time></trkpt><trkpt lat="59.4582867622" lon="31.0859227180"><time>2026-09-02T14:22:26Z</time></trkpt><trkpt lat="59.4582653046" lon="31.0859227180"><time>2026-09-02T14:22:28Z</time></trkpt><trkpt lat="59.4582653046" lon="31.0859227180"><time>2026-09-02T14:22:31Z</time></trkpt><trkpt lat="59.4582653046" lon="31.0859227180"><time>2026-09-02T14:22:33Z</time></trkpt><trkpt lat="59.4582653046" lon="31.0859227180"><time>2026-09-02T14:22:36Z</time></trkpt><trkpt lat="59.4582653046" lon="31.0859227180"><time>2026-09-02T14:22:38Z</time></trkpt><trkpt lat="59.4582653046" lon="31.0859227180"><time>2026-09-02T14:22:41Z</time></trkpt><trkpt lat="59.4582653046" lon="31.0859227180"><time>2026-09-02T14:22:43Z</time></trkpt><trkpt lat="59.4582653046" lon="31.0859227180"><time>2026-09-02T14:22:46Z</time></trkpt><trkpt lat="59.4582867622" lon="31.0859441757"><time>2026-09-02T14:22:48Z</time></trkpt><trkpt lat="59.4582867622" lon="31.0859441757"><time>2026-09-02T14:22:51Z</time></trkpt><trkpt lat="59.4582867622" lon="31.0859441757"><time>2026-09-02T14:22:53Z</time></trkpt><trkpt lat="59.4583082199" lon="31.0859441757"><time>2026-09-02T14:22:56Z</time></trkpt><trkpt lat="59.4583082199" lon="31.0859656334"><time>2026-09-02T14:22:58Z</time></trkpt><trkpt lat="59.4583296776" lon="31.0859870911"><time>2026-09-02T14:23:01Z</time></trkpt><trkpt lat="59.4583511353" lon="31.0859870911"><time>2026-09-02T14:23:03Z</time></trkpt><trkpt lat="59.4583511353" lon="31.0859870911"><time>2026-09-02T14:23:06Z</time></trkpt><trkpt lat="59.4583940506" lon="31.0859870911"><time>2026-09-02T14:23:08Z</time></trkpt><trkpt lat="59.4584155083" lon="31.0860514641"><time>2026-09-02T14:23:11Z</time></trkpt><trkpt lat="59.4584369659" lon="31.0861802101"><time>2026-09-02T14:23:13Z</time></trkpt><trkpt lat="59.4584369659" lon="31.0862445831"><time>2026-09-02T14:23:16Z</time></trkpt><trkpt lat="59.4584798813" lon="31.0863089561"><time>2026-09-02T14:23:18Z</time></trkpt><trkpt lat="59.4585013390" lon="31.0863518715"><time>2026-09-02T14:23:21Z</time></trkpt><trkpt lat="59.4585013390" lon="31.0864162445"><time>2026-09-02T14:23:23Z</time></trkpt><trkpt lat="59.4585013390" lon="31.0864806175"><time>2026-09-02T14:23:26Z</time></trkpt><trkpt lat="59.4585227966" lon="31.0865020752"><time>2026-09-02T14:23:28Z</time></trkpt><trkpt lat="59.4585013390" lon="31.0864806175"><time>2026-09-02T14:23:31Z</time></trkpt><trkpt lat="59.4585013390" lon="31.0864806175"><time>2026-09-02T14:23:33Z</time></trkpt><trkpt lat="59.4585013390" lon="31.0865020752"><time>2026-09-02T14:23:36Z</time></trkpt><trkpt lat="59.4585013390" lon="31.0865235329"><time>2026-09-02T14:23:38Z</time></trkpt><trkpt lat="59.4585013390" lon="31.0865235329"><time>2026-09-02T14:23:41Z</time></trkpt><trkpt lat="59.4585013390" lon="31.0865020752"><time>2026-09-02T14:23:43Z</time></trkpt><trkpt lat="59.4585013390" lon="31.0865020752"><time>2026-09-02T14:23:46Z</time></trkpt><trkpt lat="59.4585013390" lon="31.0865020752"><time>2026-09-02T14:23:48Z</time></trkpt><trkpt lat="59.4585013390" lon="31.0865020752"><time>2026-09-02T14:23:51Z</time></trkpt><trkpt lat="59.4585013390" lon="31.0865020752"><time>2026-09-02T14:23:53Z</time></trkpt><trkpt lat="59.4585013390" lon="31.0865020752"><time>2026-09-02T14:23:56Z</time></trkpt><trkpt lat="59.4585013390" lon="31.0865020752"><time>2026-09-02T14:23:58Z</time></trkpt><trkpt lat="59.4585013390" lon="31.0865020752"><time>2026-09-02T14:24:01Z</time></trkpt><trkpt lat="59.4585013390" lon="31.0865020752"><time>2026-09-02T14:24:03Z</time></trkpt><trkpt lat="59.4584798813" lon="31.0865235329"><time>2026-09-02T14:24:06Z</time></trkpt><trkpt lat="59.4584798813" lon="31.0865449905"><time>2026-09-02T14:24:08Z</time></trkpt><trkpt lat="59.4584798813" lon="31.0866093636"><time>2026-09-02T14:24:11Z</time></trkpt><trkpt lat="59.4584584236" lon="31.0867166519"><time>2026-09-02T14:24:13Z</time></trkpt><trkpt lat="59.4584584236" lon="31.0867381096"><time>2026-09-02T14:24:16Z</time></trkpt><trkpt lat="59.4584584236" lon="31.0867381096"><time>2026-09-02T14:24:18Z</time></trkpt><trkpt lat="59.4584584236" lon="31.0867810249"><time>2026-09-02T14:24:21Z</time></trkpt><trkpt lat="59.4584584236" lon="31.0868024826"><time>2026-09-02T14:24:23Z</time></trkpt><trkpt lat="59.4584584236" lon="31.0868239403"><time>2026-09-02T14:24:26Z</time></trkpt><trkpt lat="59.4584798813" lon="31.0868239403"><time>2026-09-02T14:24:28Z</time></trkpt><trkpt lat="59.4585227966" lon="31.0868668556"><time>2026-09-02T14:24:31Z</time></trkpt><trkpt lat="59.4585442543" lon="31.0869312286"><time>2026-09-02T14:24:33Z</time></trkpt><trkpt lat="59.4585442543" lon="31.0869526863"><time>2026-09-02T14:24:36Z</time></trkpt><trkpt lat="59.4585657120" lon="31.0869526863"><time>2026-09-02T14:24:38Z</time></trkpt><trkpt lat="59.4585657120" lon="31.0870170593"><time>2026-09-02T14:24:41Z</time></trkpt><trkpt lat="59.4585442543" lon="31.0871672630"><time>2026-09-02T14:24:43Z</time></trkpt><trkpt lat="59.4585871696" lon="31.0872530937"><time>2026-09-02T14:24:46Z</time></trkpt><trkpt lat="59.4586086273" lon="31.0873603821"><time>2026-09-02T14:24:48Z</time></trkpt><trkpt lat="59.4585871696" lon="31.0873603821"><time>2026-09-02T14:24:51Z</time></trkpt><trkpt lat="59.4585871696" lon="31.0874247551"><time>2026-09-02T14:24:53Z</time></trkpt><trkpt lat="59.4586086273" lon="31.0874462128"><time>2026-09-02T14:24:56Z</time></trkpt><trkpt lat="59.4586086273" lon="31.0875320435"><time>2026-09-02T14:24:58Z</time></trkpt><trkpt lat="59.4586300850" lon="31.0875749588"><time>2026-09-02T14:25:01Z</time></trkpt><trkpt lat="59.4586944580" lon="31.0875964165"><time>2026-09-02T14:25:03Z</time></trkpt><trkpt lat="59.4587373734" lon="31.0876607895"><time>2026-09-02T14:25:06Z</time></trkpt><trkpt lat="59.4587802887" lon="31.0878539085"><time>2026-09-02T14:25:08Z</time></trkpt><trkpt lat="59.4587373734" lon="31.0879182816"><time>2026-09-02T14:25:11Z</time></trkpt><trkpt lat="59.4587802887" lon="31.0879397392"><time>2026-09-02T14:25:13Z</time></trkpt><trkpt lat="59.4588446617" lon="31.0879611969"><time>2026-09-02T14:25:16Z</time></trkpt><trkpt lat="59.4588446617" lon="31.0878968239"><time>2026-09-02T14:25:18Z</time></trkpt><trkpt lat="59.4588446617" lon="31.0877680779"><time>2026-09-02T14:25:21Z</time></trkpt><trkpt lat="59.4588017464" lon="31.0876607895"><time>2026-09-02T14:25:23Z</time></trkpt><trkpt lat="59.4587588310" lon="31.0876393318"><time>2026-09-02T14:25:26Z</time></trkpt><trkpt lat="59.4586730003" lon="31.0875964165"><time>2026-09-02T14:25:28Z</time></trkpt><trkpt lat="59.4586086273" lon="31.0875105858"><time>2026-09-02T14:25:31Z</time></trkpt><trkpt lat="59.4585442543" lon="31.0873389244"><time>2026-09-02T14:25:33Z</time></trkpt><trkpt lat="59.4585442543" lon="31.0872316360"><time>2026-09-02T14:25:36Z</time></trkpt><trkpt lat="59.4585442543" lon="31.0872101784"><time>2026-09-02T14:25:38Z</time></trkpt><trkpt lat="59.4585227966" lon="31.0871672630"><time>2026-09-02T14:25:41Z</time></trkpt><trkpt lat="59.4584798813" lon="31.0871028900"><time>2026-09-02T14:25:43Z</time></trkpt><trkpt lat="59.4584584236" lon="31.0870385170"><time>2026-09-02T14:25:46Z</time></trkpt><trkpt lat="59.4584584236" lon="31.0870170593"><time>2026-09-02T14:25:48Z</time></trkpt><trkpt lat="59.4584369659" lon="31.0870170593"><time>2026-09-02T14:25:51Z</time></trkpt><trkpt lat="59.4584155083" lon="31.0869097710"><time>2026-09-02T14:25:53Z</time></trkpt><trkpt lat="59.4584155083" lon="31.0868668556"><time>2026-09-02T14:25:56Z</time></trkpt><trkpt lat="59.4583940506" lon="31.0868239403"><time>2026-09-02T14:25:58Z</time></trkpt><trkpt lat="59.4583940506" lon="31.0868024826"><time>2026-09-02T14:26:01Z</time></trkpt><trkpt lat="59.4583725929" lon="31.0867810249"><time>2026-09-02T14:26:03Z</time></trkpt><trkpt lat="59.4583725929" lon="31.0867810249"><time>2026-09-02T14:26:06Z</time></trkpt><trkpt lat="59.4583725929" lon="31.0867810249"><time>2026-09-02T14:26:08Z</time></trkpt><trkpt lat="59.4583725929" lon="31.0867381096"><time>2026-09-02T14:26:11Z</time></trkpt><trkpt lat="59.4584155083" lon="31.0866951942"><time>2026-09-02T14:26:13Z</time></trkpt><trkpt lat="59.4584155083" lon="31.0866308212"><time>2026-09-02T14:26:16Z</time></trkpt><trkpt lat="59.4584155083" lon="31.0866093636"><time>2026-09-02T14:26:18Z</time></trkpt><trkpt lat="59.4584155083" lon="31.0866308212"><time>2026-09-02T14:26:21Z</time></trkpt><trkpt lat="59.4583511353" lon="31.0866308212"><time>2026-09-02T14:26:23Z</time></trkpt><trkpt lat="59.4583082199" lon="31.0866737366"><time>2026-09-02T14:26:26Z</time></trkpt><trkpt lat="59.4582867622" lon="31.0866951942"><time>2026-09-02T14:26:28Z</time></trkpt><trkpt lat="59.4583082199" lon="31.0866737366"><time>2026-09-02T14:26:31Z</time></trkpt><trkpt lat="59.4583082199" lon="31.0865664482"><time>2026-09-02T14:26:33Z</time></trkpt><trkpt lat="59.4583082199" lon="31.0865664482"><time>2026-09-02T14:26:36Z</time></trkpt><trkpt lat="59.4582867622" lon="31.0865449905"><time>2026-09-02T14:26:38Z</time></trkpt><trkpt lat="59.4582867622" lon="31.0865449905"><time>2026-09-02T14:26:41Z</time></trkpt><trkpt lat="59.4583082199" lon="31.0865449905"><time>2026-09-02T14:26:43Z</time></trkpt><trkpt lat="59.4583082199" lon="31.0865020752"><time>2026-09-02T14:26:46Z</time></trkpt><trkpt lat="59.4583296776" lon="31.0864162445"><time>2026-09-02T14:26:48Z</time></trkpt><trkpt lat="59.4583296776" lon="31.0863733292"><time>2026-09-02T14:26:51Z</time></trkpt><trkpt lat="59.4583296776" lon="31.0863733292"><time>2026-09-02T14:26:53Z</time></trkpt><trkpt lat="59.4583082199" lon="31.0863733292"><time>2026-09-02T14:26:56Z</time></trkpt><trkpt lat="59.4583082199" lon="31.0863947868"><time>2026-09-02T14:26:58Z</time></trkpt><trkpt lat="59.4582867622" lon="31.0864591599"><time>2026-09-02T14:27:01Z</time></trkpt><trkpt lat="59.4582867622" lon="31.0865235329"><time>2026-09-02T14:27:03Z</time></trkpt><trkpt lat="59.4582653046" lon="31.0865664482"><time>2026-09-02T14:27:06Z</time></trkpt><trkpt lat="59.4582653046" lon="31.0865879059"><time>2026-09-02T14:27:08Z</time></trkpt><trkpt lat="59.4582653046" lon="31.0865879059"><time>2026-09-02T14:27:11Z</time></trkpt><trkpt lat="59.4582867622" lon="31.0866308212"><time>2026-09-02T14:27:13Z</time></trkpt><trkpt lat="59.4583082199" lon="31.0866308212"><time>2026-09-02T14:27:16Z</time></trkpt><trkpt lat="59.4583082199" lon="31.0866308212"><time>2026-09-02T14:27:18Z</time></trkpt><trkpt lat="59.4583082199" lon="31.0866522789"><time>2026-09-02T14:27:21Z</time></trkpt><trkpt lat="59.4582867622" lon="31.0866951942"><time>2026-09-02T14:27:23Z</time></trkpt><trkpt lat="59.4582867622" lon="31.0867166519"><time>2026-09-02T14:27:26Z</time></trkpt><trkpt lat="59.4582653046" lon="31.0867381096"><time>2026-09-02T14:27:28Z</time></trkpt><trkpt lat="59.4582438469" lon="31.0867595673"><time>2026-09-02T14:27:31Z</time></trkpt><trkpt lat="59.4582223892" lon="31.0867810249"><time>2026-09-02T14:27:33Z</time></trkpt><trkpt lat="59.4582223892" lon="31.0867810249"><time>2026-09-02T14:27:36Z</time></trkpt><trkpt lat="59.4582009315" lon="31.0868024826"><time>2026-09-02T14:27:38Z</time></trkpt><trkpt lat="59.4581794739" lon="31.0868239403"><time>2026-09-02T14:27:41Z</time></trkpt><trkpt lat="59.4581580162" lon="31.0868883133"><time>2026-09-02T14:27:43Z</time></trkpt><trkpt lat="59.4581580162" lon="31.0869312286"><time>2026-09-02T14:27:46Z</time></trkpt><trkpt lat="59.4581365585" lon="31.0870385170"><time>2026-09-02T14:27:48Z</time></trkpt><trkpt lat="59.4581580162" lon="31.0870814323"><time>2026-09-02T14:27:51Z</time></trkpt><trkpt lat="59.4581580162" lon="31.0871458054"><time>2026-09-02T14:27:53Z</time></trkpt><trkpt lat="59.4581580162" lon="31.0872101784"><time>2026-09-02T14:27:56Z</time></trkpt><trkpt lat="59.4581580162" lon="31.0872316360"><time>2026-09-02T14:27:58Z</time></trkpt><trkpt lat="59.4581580162" lon="31.0872316360"><time>2026-09-02T14:28:01Z</time></trkpt><trkpt lat="59.4581365585" lon="31.0872101784"><time>2026-09-02T14:28:03Z</time></trkpt><trkpt lat="59.4581365585" lon="31.0872101784"><time>2026-09-02T14:28:06Z</time></trkpt><trkpt lat="59.4581365585" lon="31.0872101784"><time>2026-09-02T14:28:08Z</time></trkpt><trkpt lat="59.4581151009" lon="31.0872101784"><time>2026-09-02T14:28:11Z</time></trkpt><trkpt lat="59.4580936432" lon="31.0872530937"><time>2026-09-02T14:28:13Z</time></trkpt><trkpt lat="59.4580721855" lon="31.0873174667"><time>2026-09-02T14:28:16Z</time></trkpt><trkpt lat="59.4580507278" lon="31.0873603821"><time>2026-09-02T14:28:18Z</time></trkpt><trkpt lat="59.4580292702" lon="31.0874032974"><time>2026-09-02T14:28:21Z</time></trkpt><trkpt lat="59.4580078125" lon="31.0874891281"><time>2026-09-02T14:28:23Z</time></trkpt><trkpt lat="59.4580292702" lon="31.0875320435"><time>2026-09-02T14:28:26Z</time></trkpt><trkpt lat="59.4580292702" lon="31.0876178741"><time>2026-09-02T14:28:28Z</time></trkpt><trkpt lat="59.4580292702" lon="31.0876178741"><time>2026-09-02T14:28:31Z</time></trkpt><trkpt lat="59.4580292702" lon="31.0876393318"><time>2026-09-02T14:28:33Z</time></trkpt><trkpt lat="59.4580292702" lon="31.0876393318"><time>2026-09-02T14:28:36Z</time></trkpt><trkpt lat="59.4580292702" lon="31.0876393318"><time>2026-09-02T14:28:38Z</time></trkpt><trkpt lat="59.4580292702" lon="31.0876393318"><time>2026-09-02T14:28:41Z</time></trkpt><trkpt lat="59.4580292702" lon="31.0876393318"><time>2026-09-02T14:28:43Z</time></trkpt><trkpt lat="59.4580292702" lon="31.0876393318"><time>2026-09-02T14:28:46Z</time></trkpt><trkpt lat="59.4580292702" lon="31.0876393318"><time>2026-09-02T14:28:48Z</time></trkpt><trkpt lat="59.4580292702" lon="31.0876393318"><time>2026-09-02T14:28:51Z</time></trkpt><trkpt lat="59.4580292702" lon="31.0876393318"><time>2026-09-02T14:28:53Z</time></trkpt><trkpt lat="59.4580292702" lon="31.0876393318"><time>2026-09-02T14:28:56Z</time></trkpt><trkpt lat="59.4580292702" lon="31.0876393318"><time>2026-09-02T14:28:58Z</time></trkpt><trkpt lat="59.4580292702" lon="31.0876393318"><time>2026-09-02T14:29:01Z</time></trkpt><trkpt lat="59.4580292702" lon="31.0876393318"><time>2026-09-02T14:29:03Z</time></trkpt><trkpt lat="59.4580292702" lon="31.0876393318"><time>2026-09-02T14:29:06Z</time></trkpt><trkpt lat="59.4580292702" lon="31.0876393318"><time>2026-09-02T14:29:08Z</time></trkpt><trkpt lat="59.4580292702" lon="31.0876393318"><time>2026-09-02T14:29:11Z</time></trkpt><trkpt lat="59.4580292702" lon="31.0876393318"><time>2026-09-02T14:29:13Z</time></trkpt><trkpt lat="59.4580292702" lon="31.0876393318"><time>2026-09-02T14:29:16Z</time></trkpt><trkpt lat="59.4580292702" lon="31.0876393318"><time>2026-09-02T14:29:18Z</time></trkpt><trkpt lat="59.4580292702" lon="31.0876607895"><time>2026-09-02T14:29:21Z</time></trkpt><trkpt lat="59.4580292702" lon="31.0876607895"><time>2026-09-02T14:29:23Z</time></trkpt><trkpt lat="59.4580292702" lon="31.0876393318"><time>2026-09-02T14:29:26Z</time></trkpt><trkpt lat="59.4580292702" lon="31.0876393318"><time>2026-09-02T14:29:28Z</time></trkpt><trkpt lat="59.4580292702" lon="31.0876393318"><time>2026-09-02T14:29:31Z</time></trkpt><trkpt lat="59.4580292702" lon="31.0876393318"><time>2026-09-02T14:29:33Z</time></trkpt><trkpt lat="59.4580292702" lon="31.0876393318"><time>2026-09-02T14:29:36Z</time></trkpt><trkpt lat="59.4580292702" lon="31.0876393318"><time>2026-09-02T14:29:38Z</time></trkpt><trkpt lat="59.4580292702" lon="31.0876393318"><time>2026-09-02T14:29:41Z</time></trkpt><trkpt lat="59.4580292702" lon="31.0876393318"><time>2026-09-02T14:29:43Z</time></trkpt><trkpt lat="59.4580292702" lon="31.0876393318"><time>2026-09-02T14:29:46Z</time></trkpt><trkpt lat="59.4580292702" lon="31.0876607895"><time>2026-09-02T14:29:48Z</time></trkpt><trkpt lat="59.4580292702" lon="31.0876607895"><time>2026-09-02T14:29:51Z</time></trkpt><trkpt lat="59.4580292702" lon="31.0876822472"><time>2026-09-02T14:29:53Z</time></trkpt><trkpt lat="59.4580078125" lon="31.0877037048"><time>2026-09-02T14:29:56Z</time></trkpt><trkpt lat="59.4580078125" lon="31.0877037048"><time>2026-09-02T14:29:58Z</time></trkpt><trkpt lat="59.4580078125" lon="31.0877037048"><time>2026-09-02T14:30:01Z</time></trkpt><trkpt lat="59.4580078125" lon="31.0877037048"><time>2026-09-02T14:30:03Z</time></trkpt><trkpt lat="59.4580078125" lon="31.0877037048"><time>2026-09-02T14:30:06Z</time></trkpt><trkpt lat="59.4580078125" lon="31.0877037048"><time>2026-09-02T14:30:08Z</time></trkpt><trkpt lat="59.4580078125" lon="31.0877037048"><time>2026-09-02T14:30:11Z</time></trkpt><trkpt lat="59.4580078125" lon="31.0877037048"><time>2026-09-02T14:30:13Z</time></trkpt><trkpt lat="59.4580078125" lon="31.0877037048"><time>2026-09-02T14:30:16Z</time></trkpt><trkpt lat="59.4580078125" lon="31.0877037048"><time>2026-09-02T14:30:18Z</time></trkpt><trkpt lat="59.4580078125" lon="31.0877037048"><time>2026-09-02T14:30:21Z</time></trkpt><trkpt lat="59.4580078125" lon="31.0877037048"><time>2026-09-02T14:30:23Z</time></trkpt><trkpt lat="59.4580078125" lon="31.0877251625"><time>2026-09-02T14:30:26Z</time></trkpt><trkpt lat="59.4580078125" lon="31.0877251625"><time>2026-09-02T14:30:28Z</time></trkpt><trkpt lat="59.4580078125" lon="31.0877251625"><time>2026-09-02T14:30:31Z</time></trkpt><trkpt lat="59.4580078125" lon="31.0877251625"><time>2026-09-02T14:30:33Z</time></trkpt><trkpt lat="59.4580078125" lon="31.0877466202"><time>2026-09-02T14:30:36Z</time></trkpt><trkpt lat="59.4580078125" lon="31.0877466202"><time>2026-09-02T14:30:38Z</time></trkpt><trkpt lat="59.4580078125" lon="31.0877466202"><time>2026-09-02T14:30:41Z</time></trkpt><trkpt lat="59.4580078125" lon="31.0878109932"><time>2026-09-02T14:30:43Z</time></trkpt><trkpt lat="59.4580078125" lon="31.0878324509"><time>2026-09-02T14:30:46Z</time></trkpt><trkpt lat="59.4580078125" lon="31.0878539085"><time>2026-09-02T14:30:48Z</time></trkpt><trkpt lat="59.4580078125" lon="31.0878539085"><time>2026-09-02T14:30:51Z</time></trkpt><trkpt lat="59.4580078125" lon="31.0878539085"><time>2026-09-02T14:30:53Z</time></trkpt><trkpt lat="59.4580078125" lon="31.0878539085"><time>2026-09-02T14:30:56Z</time></trkpt><trkpt lat="59.4580078125" lon="31.0878539085"><time>2026-09-02T14:30:58Z</time></trkpt><trkpt lat="59.4580078125" lon="31.0878539085"><time>2026-09-02T14:31:01Z</time></trkpt><trkpt lat="59.4580078125" lon="31.0878539085"><time>2026-09-02T14:31:03Z</time></trkpt><trkpt lat="59.4580078125" lon="31.0878539085"><time>2026-09-02T14:31:06Z</time></trkpt><trkpt lat="59.4580078125" lon="31.0878539085"><time>2026-09-02T14:31:08Z</time></trkpt><trkpt lat="59.4580078125" lon="31.0878539085"><time>2026-09-02T14:31:11Z</time></trkpt><trkpt lat="59.4580078125" lon="31.0878539085"><time>2026-09-02T14:31:13Z</time></trkpt><trkpt lat="59.4580078125" lon="31.0878539085"><time>2026-09-02T14:31:16Z</time></trkpt><trkpt lat="59.4580078125" lon="31.0878753662"><time>2026-09-02T14:31:18Z</time></trkpt><trkpt lat="59.4580078125" lon="31.0878753662"><time>2026-09-02T14:31:21Z</time></trkpt><trkpt lat="59.4580078125" lon="31.0878753662"><time>2026-09-02T14:31:23Z</time></trkpt><trkpt lat="59.4580078125" lon="31.0878753662"><time>2026-09-02T14:31:26Z</time></trkpt><trkpt lat="59.4579863548" lon="31.0878968239"><time>2026-09-02T14:31:28Z</time></trkpt><trkpt lat="59.4579863548" lon="31.0878968239"><time>2026-09-02T14:31:31Z</time></trkpt><trkpt lat="59.4579863548" lon="31.0879182816"><time>2026-09-02T14:31:33Z</time></trkpt><trkpt lat="59.4579863548" lon="31.0879182816"><time>2026-09-02T14:31:36Z</time></trkpt><trkpt lat="59.4579863548" lon="31.0879182816"><time>2026-09-02T14:31:38Z</time></trkpt><trkpt lat="59.4579863548" lon="31.0879182816"><time>2026-09-02T14:31:41Z</time></trkpt><trkpt lat="59.4579863548" lon="31.0879182816"><time>2026-09-02T14:31:43Z</time></trkpt><trkpt lat="59.4579863548" lon="31.0879182816"><time>2026-09-02T14:31:46Z</time></trkpt><trkpt lat="59.4579648972" lon="31.0879182816"><time>2026-09-02T14:31:48Z</time></trkpt><trkpt lat="59.4579648972" lon="31.0879182816"><time>2026-09-02T14:31:51Z</time></trkpt><trkpt lat="59.4579648972" lon="31.0879182816"><time>2026-09-02T14:31:53Z</time></trkpt><trkpt lat="59.4579648972" lon="31.0879182816"><time>2026-09-02T14:31:56Z</time></trkpt><trkpt lat="59.4579648972" lon="31.0879182816"><time>2026-09-02T14:31:58Z</time></trkpt><trkpt lat="59.4579648972" lon="31.0879182816"><time>2026-09-02T14:32:01Z</time></trkpt><trkpt lat="59.4579648972" lon="31.0879182816"><time>2026-09-02T14:32:03Z</time></trkpt><trkpt lat="59.4579648972" lon="31.0879397392"><time>2026-09-02T14:32:06Z</time></trkpt><trkpt lat="59.4579219818" lon="31.0879397392"><time>2026-09-02T14:32:08Z</time></trkpt><trkpt lat="59.4579219818" lon="31.0879397392"><time>2026-09-02T14:32:11Z</time></trkpt><trkpt lat="59.4578790665" lon="31.0879611969"><time>2026-09-02T14:32:13Z</time></trkpt><trkpt lat="59.4578576088" lon="31.0880041122"><time>2026-09-02T14:32:16Z</time></trkpt><trkpt lat="59.4578361511" lon="31.0880470276"><time>2026-09-02T14:32:18Z</time></trkpt><trkpt lat="59.4578361511" lon="31.0880470276"><time>2026-09-02T14:32:21Z</time></trkpt><trkpt lat="59.4578361511" lon="31.0880470276"><time>2026-09-02T14:32:23Z</time></trkpt><trkpt lat="59.4578361511" lon="31.0880470276"><time>2026-09-02T14:32:26Z</time></trkpt><trkpt lat="59.4578361511" lon="31.0880684853"><time>2026-09-02T14:32:28Z</time></trkpt><trkpt lat="59.4578361511" lon="31.0880684853"><time>2026-09-02T14:32:31Z</time></trkpt><trkpt lat="59.4578361511" lon="31.0880684853"><time>2026-09-02T14:32:33Z</time></trkpt><trkpt lat="59.4578361511" lon="31.0880470276"><time>2026-09-02T14:32:36Z</time></trkpt><trkpt lat="59.4578361511" lon="31.0880470276"><time>2026-09-02T14:32:38Z</time></trkpt><trkpt lat="59.4578576088" lon="31.0880255699"><time>2026-09-02T14:32:41Z</time></trkpt><trkpt lat="59.4578361511" lon="31.0880041122"><time>2026-09-02T14:32:43Z</time></trkpt><trkpt lat="59.4578361511" lon="31.0879826546"><time>2026-09-02T14:32:46Z</time></trkpt><trkpt lat="59.4578361511" lon="31.0879826546"><time>2026-09-02T14:32:48Z</time></trkpt><trkpt lat="59.4578361511" lon="31.0879826546"><time>2026-09-02T14:32:51Z</time></trkpt><trkpt lat="59.4578361511" lon="31.0879826546"><time>2026-09-02T14:32:53Z</time></trkpt><trkpt lat="59.4578361511" lon="31.0879611969"><time>2026-09-02T14:32:56Z</time></trkpt><trkpt lat="59.4578361511" lon="31.0879397392"><time>2026-09-02T14:32:58Z</time></trkpt><trkpt lat="59.4578361511" lon="31.0879397392"><time>2026-09-02T14:33:01Z</time></trkpt><trkpt lat="59.4578361511" lon="31.0879182816"><time>2026-09-02T14:33:03Z</time></trkpt><trkpt lat="59.4578361511" lon="31.0879182816"><time>2026-09-02T14:33:06Z</time></trkpt><trkpt lat="59.4578361511" lon="31.0879182816"><time>2026-09-02T14:33:08Z</time></trkpt><trkpt lat="59.4578361511" lon="31.0879182816"><time>2026-09-02T14:33:11Z</time></trkpt><trkpt lat="59.4578361511" lon="31.0879182816"><time>2026-09-02T14:33:13Z</time></trkpt><trkpt lat="59.4578361511" lon="31.0879182816"><time>2026-09-02T14:33:16Z</time></trkpt><trkpt lat="59.4578146935" lon="31.0879182816"><time>2026-09-02T14:33:18Z</time></trkpt><trkpt lat="59.4578146935" lon="31.0879182816"><time>2026-09-02T14:33:21Z</time></trkpt><trkpt lat="59.4577717781" lon="31.0879182816"><time>2026-09-02T14:33:23Z</time></trkpt><trkpt lat="59.4577503204" lon="31.0879397392"><time>2026-09-02T14:33:26Z</time></trkpt><trkpt lat="59.4577288628" lon="31.0879397392"><time>2026-09-02T14:33:28Z</time></trkpt><trkpt lat="59.4577288628" lon="31.0879397392"><time>2026-09-02T14:33:31Z</time></trkpt><trkpt lat="59.4577288628" lon="31.0879182816"><time>2026-09-02T14:33:33Z</time></trkpt><trkpt lat="59.4577288628" lon="31.0879182816"><time>2026-09-02T14:33:36Z</time></trkpt><trkpt lat="59.4577288628" lon="31.0879397392"><time>2026-09-02T14:33:38Z</time></trkpt><trkpt lat="59.4577288628" lon="31.0879611969"><time>2026-09-02T14:33:41Z</time></trkpt><trkpt lat="59.4577288628" lon="31.0879611969"><time>2026-09-02T14:33:43Z</time></trkpt><trkpt lat="59.4577503204" lon="31.0880041122"><time>2026-09-02T14:33:46Z</time></trkpt><trkpt lat="59.4577503204" lon="31.0880470276"><time>2026-09-02T14:33:48Z</time></trkpt><trkpt lat="59.4577503204" lon="31.0880684853"><time>2026-09-02T14:33:51Z</time></trkpt><trkpt lat="59.4577503204" lon="31.0880684853"><time>2026-09-02T14:33:53Z</time></trkpt><trkpt lat="59.4577503204" lon="31.0880684853"><time>2026-09-02T14:33:56Z</time></trkpt><trkpt lat="59.4577503204" lon="31.0880684853"><time>2026-09-02T14:33:58Z</time></trkpt><trkpt lat="59.4577503204" lon="31.0880470276"><time>2026-09-02T14:34:01Z</time></trkpt><trkpt lat="59.4577503204" lon="31.0880470276"><time>2026-09-02T14:34:03Z</time></trkpt><trkpt lat="59.4577503204" lon="31.0880470276"><time>2026-09-02T14:34:06Z</time></trkpt><trkpt lat="59.4577288628" lon="31.0880899429"><time>2026-09-02T14:34:08Z</time></trkpt><trkpt lat="59.4577288628" lon="31.0880899429"><time>2026-09-02T14:34:11Z</time></trkpt><trkpt lat="59.4577288628" lon="31.0880899429"><time>2026-09-02T14:34:13Z</time></trkpt><trkpt lat="59.4577288628" lon="31.0880899429"><time>2026-09-02T14:34:16Z</time></trkpt><trkpt lat="59.4577288628" lon="31.0880899429"><time>2026-09-02T14:34:18Z</time></trkpt><trkpt lat="59.4577288628" lon="31.0880899429"><time>2026-09-02T14:34:21Z</time></trkpt><trkpt lat="59.4577288628" lon="31.0880899429"><time>2026-09-02T14:34:23Z</time></trkpt><trkpt lat="59.4577288628" lon="31.0880899429"><time>2026-09-02T14:34:26Z</time></trkpt><trkpt lat="59.4577288628" lon="31.0880899429"><time>2026-09-02T14:34:28Z</time></trkpt><trkpt lat="59.4577288628" lon="31.0880899429"><time>2026-09-02T14:34:31Z</time></trkpt><trkpt lat="59.4577288628" lon="31.0880899429"><time>2026-09-02T14:34:33Z</time></trkpt><trkpt lat="59.4577288628" lon="31.0880899429"><time>2026-09-02T14:34:36Z</time></trkpt><trkpt lat="59.4577288628" lon="31.0881328583"><time>2026-09-02T14:34:38Z</time></trkpt><trkpt lat="59.4577288628" lon="31.0881328583"><time>2026-09-02T14:34:41Z</time></trkpt><trkpt lat="59.4577503204" lon="31.0881114006"><time>2026-09-02T14:34:43Z</time></trkpt><trkpt lat="59.4577503204" lon="31.0881114006"><time>2026-09-02T14:34:46Z</time></trkpt><trkpt lat="59.4577503204" lon="31.0881114006"><time>2026-09-02T14:34:48Z</time></trkpt><trkpt lat="59.4577503204" lon="31.0881114006"><time>2026-09-02T14:34:51Z</time></trkpt><trkpt lat="59.4577503204" lon="31.0881114006"><time>2026-09-02T14:34:53Z</time></trkpt><trkpt lat="59.4577503204" lon="31.0881114006"><time>2026-09-02T14:34:56Z</time></trkpt><trkpt lat="59.4577503204" lon="31.0881114006"><time>2026-09-02T14:34:58Z</time></trkpt><trkpt lat="59.4577503204" lon="31.0881114006"><time>2026-09-02T14:35:01Z</time></trkpt><trkpt lat="59.4577503204" lon="31.0881114006"><time>2026-09-02T14:35:03Z</time></trkpt><trkpt lat="59.4577503204" lon="31.0881114006"><time>2026-09-02T14:35:06Z</time></trkpt><trkpt lat="59.4577503204" lon="31.0881114006"><time>2026-09-02T14:35:08Z</time></trkpt><trkpt lat="59.4577503204" lon="31.0881114006"><time>2026-09-02T14:35:11Z</time></trkpt><trkpt lat="59.4577503204" lon="31.0881114006"><time>2026-09-02T14:35:13Z</time></trkpt><trkpt lat="59.4577503204" lon="31.0881114006"><time>2026-09-02T14:35:16Z</time></trkpt><trkpt lat="59.4577503204" lon="31.0881114006"><time>2026-09-02T14:35:18Z</time></trkpt><trkpt lat="59.4577503204" lon="31.0881114006"><time>2026-09-02T14:35:21Z</time></trkpt><trkpt lat="59.4577503204" lon="31.0881114006"><time>2026-09-02T14:35:23Z</time></trkpt><trkpt lat="59.4577503204" lon="31.0881114006"><time>2026-09-02T14:35:26Z</time></trkpt><trkpt lat="59.4577503204" lon="31.0881114006"><time>2026-09-02T14:35:28Z</time></trkpt><trkpt lat="59.4577288628" lon="31.0881114006"><time>2026-09-02T14:35:31Z</time></trkpt><trkpt lat="59.4577288628" lon="31.0881114006"><time>2026-09-02T14:35:33Z</time></trkpt><trkpt lat="59.4577288628" lon="31.0881114006"><time>2026-09-02T14:35:36Z</time></trkpt><trkpt lat="59.4577288628" lon="31.0881114006"><time>2026-09-02T14:35:38Z</time></trkpt><trkpt lat="59.4577288628" lon="31.0881114006"><time>2026-09-02T14:35:41Z</time></trkpt><trkpt lat="59.4577288628" lon="31.0881114006"><time>2026-09-02T14:35:43Z</time></trkpt><trkpt lat="59.4577288628" lon="31.0881114006"><time>2026-09-02T14:35:46Z</time></trkpt><trkpt lat="59.4577288628" lon="31.0881114006"><time>2026-09-02T14:35:48Z</time></trkpt><trkpt lat="59.4577288628" lon="31.0881114006"><time>2026-09-02T14:35:51Z</time></trkpt><trkpt lat="59.4577288628" lon="31.0881114006"><time>2026-09-02T14:35:53Z</time></trkpt><trkpt lat="59.4577288628" lon="31.0881114006"><time>2026-09-02T14:35:56Z</time></trkpt><trkpt lat="59.4577503204" lon="31.0881114006"><time>2026-09-02T14:35:58Z</time></trkpt><trkpt lat="59.4577503204" lon="31.0881114006"><time>2026-09-02T14:36:01Z</time></trkpt><trkpt lat="59.4577503204" lon="31.0881114006"><time>2026-09-02T14:36:03Z</time></trkpt><trkpt lat="59.4577503204" lon="31.0881114006"><time>2026-09-02T14:36:06Z</time></trkpt><trkpt lat="59.4577503204" lon="31.0881328583"><time>2026-09-02T14:36:08Z</time></trkpt><trkpt lat="59.4577503204" lon="31.0881328583"><time>2026-09-02T14:36:11Z</time></trkpt><trkpt lat="59.4577503204" lon="31.0881328583"><time>2026-09-02T14:36:13Z</time></trkpt><trkpt lat="59.4577503204" lon="31.0881328583"><time>2026-09-02T14:36:16Z</time></trkpt><trkpt lat="59.4577503204" lon="31.0881328583"><time>2026-09-02T14:36:18Z</time></trkpt><trkpt lat="59.4577503204" lon="31.0881328583"><time>2026-09-02T14:36:21Z</time></trkpt><trkpt lat="59.4577503204" lon="31.0881328583"><time>2026-09-02T14:36:23Z</time></trkpt><trkpt lat="59.4577503204" lon="31.0881328583"><time>2026-09-02T14:36:26Z</time></trkpt><trkpt lat="59.4577503204" lon="31.0881328583"><time>2026-09-02T14:36:28Z</time></trkpt><trkpt lat="59.4577503204" lon="31.0881328583"><time>2026-09-02T14:36:31Z</time></trkpt><trkpt lat="59.4577503204" lon="31.0881328583"><time>2026-09-02T14:36:33Z</time></trkpt><trkpt lat="59.4577503204" lon="31.0881328583"><time>2026-09-02T14:36:36Z</time></trkpt><trkpt lat="59.4577503204" lon="31.0881328583"><time>2026-09-02T14:36:38Z</time></trkpt><trkpt lat="59.4577503204" lon="31.0881543159"><time>2026-09-02T14:36:41Z</time></trkpt><trkpt lat="59.4577503204" lon="31.0881543159"><time>2026-09-02T14:36:43Z</time></trkpt><trkpt lat="59.4577288628" lon="31.0881543159"><time>2026-09-02T14:36:46Z</time></trkpt><trkpt lat="59.4577074051" lon="31.0881757736"><time>2026-09-02T14:36:48Z</time></trkpt><trkpt lat="59.4577074051" lon="31.0881757736"><time>2026-09-02T14:36:51Z</time></trkpt><trkpt lat="59.4577074051" lon="31.0881757736"><time>2026-09-02T14:36:53Z</time></trkpt><trkpt lat="59.4577074051" lon="31.0881757736"><time>2026-09-02T14:36:56Z</time></trkpt><trkpt lat="59.4577074051" lon="31.0881543159"><time>2026-09-02T14:36:58Z</time></trkpt><trkpt lat="59.4576859474" lon="31.0881328583"><time>2026-09-02T14:37:01Z</time></trkpt><trkpt lat="59.4576859474" lon="31.0881328583"><time>2026-09-02T14:37:03Z</time></trkpt><trkpt lat="59.4576859474" lon="31.0880684853"><time>2026-09-02T14:37:06Z</time></trkpt><trkpt lat="59.4576644897" lon="31.0880470276"><time>2026-09-02T14:37:08Z</time></trkpt><trkpt lat="59.4576430321" lon="31.0880470276"><time>2026-09-02T14:37:11Z</time></trkpt><trkpt lat="59.4576001167" lon="31.0880470276"><time>2026-09-02T14:37:13Z</time></trkpt><trkpt lat="59.4576001167" lon="31.0880684853"><time>2026-09-02T14:37:16Z</time></trkpt><trkpt lat="59.4576001167" lon="31.0880899429"><time>2026-09-02T14:37:18Z</time></trkpt><trkpt lat="59.4575786591" lon="31.0880899429"><time>2026-09-02T14:37:21Z</time></trkpt><trkpt lat="59.4575786591" lon="31.0880899429"><time>2026-09-02T14:37:23Z</time></trkpt><trkpt lat="59.4576001167" lon="31.0880684853"><time>2026-09-02T14:37:26Z</time></trkpt><trkpt lat="59.4576001167" lon="31.0880684853"><time>2026-09-02T14:37:28Z</time></trkpt><trkpt lat="59.4576001167" lon="31.0880470276"><time>2026-09-02T14:37:31Z</time></trkpt><trkpt lat="59.4576001167" lon="31.0880470276"><time>2026-09-02T14:37:33Z</time></trkpt><trkpt lat="59.4576001167" lon="31.0880470276"><time>2026-09-02T14:37:36Z</time></trkpt><trkpt lat="59.4576001167" lon="31.0880470276"><time>2026-09-02T14:37:38Z</time></trkpt><trkpt lat="59.4576001167" lon="31.0880470276"><time>2026-09-02T14:37:41Z</time></trkpt><trkpt lat="59.4576001167" lon="31.0880470276"><time>2026-09-02T14:37:43Z</time></trkpt><trkpt lat="59.4576001167" lon="31.0880470276"><time>2026-09-02T14:37:46Z</time></trkpt><trkpt lat="59.4576001167" lon="31.0880470276"><time>2026-09-02T14:37:48Z</time></trkpt><trkpt lat="59.4576001167" lon="31.0880470276"><time>2026-09-02T14:37:51Z</time></trkpt><trkpt lat="59.4576001167" lon="31.0880470276"><time>2026-09-02T14:37:53Z</time></trkpt><trkpt lat="59.4575572014" lon="31.0880470276"><time>2026-09-02T14:37:56Z</time></trkpt><trkpt lat="59.4575572014" lon="31.0880470276"><time>2026-09-02T14:37:58Z</time></trkpt><trkpt lat="59.4575572014" lon="31.0880255699"><time>2026-09-02T14:38:01Z</time></trkpt><trkpt lat="59.4575572014" lon="31.0880041122"><time>2026-09-02T14:38:03Z</time></trkpt><trkpt lat="59.4575572014" lon="31.0880041122"><time>2026-09-02T14:38:06Z</time></trkpt><trkpt lat="59.4575572014" lon="31.0880255699"><time>2026-09-02T14:38:08Z</time></trkpt><trkpt lat="59.4575572014" lon="31.0880255699"><time>2026-09-02T14:38:11Z</time></trkpt><trkpt lat="59.4575572014" lon="31.0880255699"><time>2026-09-02T14:38:13Z</time></trkpt><trkpt lat="59.4575572014" lon="31.0880255699"><time>2026-09-02T14:38:16Z</time></trkpt><trkpt lat="59.4575572014" lon="31.0880255699"><time>2026-09-02T14:38:18Z</time></trkpt><trkpt lat="59.4575572014" lon="31.0880255699"><time>2026-09-02T14:38:21Z</time></trkpt><trkpt lat="59.4575572014" lon="31.0880255699"><time>2026-09-02T14:38:23Z</time></trkpt><trkpt lat="59.4575572014" lon="31.0880255699"><time>2026-09-02T14:38:26Z</time></trkpt><trkpt lat="59.4575572014" lon="31.0880255699"><time>2026-09-02T14:38:28Z</time></trkpt><trkpt lat="59.4575572014" lon="31.0880255699"><time>2026-09-02T14:38:31Z</time></trkpt><trkpt lat="59.4575572014" lon="31.0880255699"><time>2026-09-02T14:38:33Z</time></trkpt><trkpt lat="59.4575572014" lon="31.0880255699"><time>2026-09-02T14:38:36Z</time></trkpt><trkpt lat="59.4575572014" lon="31.0880470276"><time>2026-09-02T14:38:38Z</time></trkpt><trkpt lat="59.4575572014" lon="31.0880255699"><time>2026-09-02T14:38:41Z</time></trkpt><trkpt lat="59.4575572014" lon="31.0880255699"><time>2026-09-02T14:38:43Z</time></trkpt><trkpt lat="59.4575572014" lon="31.0880255699"><time>2026-09-02T14:38:46Z</time></trkpt><trkpt lat="59.4575572014" lon="31.0880255699"><time>2026-09-02T14:38:48Z</time></trkpt><trkpt lat="59.4575572014" lon="31.0880255699"><time>2026-09-02T14:38:51Z</time></trkpt><trkpt lat="59.4575572014" lon="31.0880255699"><time>2026-09-02T14:38:53Z</time></trkpt><trkpt lat="59.4575572014" lon="31.0880255699"><time>2026-09-02T14:38:56Z</time></trkpt><trkpt lat="59.4575572014" lon="31.0880255699"><time>2026-09-02T14:38:58Z</time></trkpt><trkpt lat="59.4575572014" lon="31.0880255699"><time>2026-09-02T14:39:01Z</time></trkpt><trkpt lat="59.4575572014" lon="31.0880255699"><time>2026-09-02T14:39:03Z</time></trkpt><trkpt lat="59.4575572014" lon="31.0880255699"><time>2026-09-02T14:39:06Z</time></trkpt><trkpt lat="59.4575572014" lon="31.0880255699"><time>2026-09-02T14:39:08Z</time></trkpt><trkpt lat="59.4575572014" lon="31.0880255699"><time>2026-09-02T14:39:11Z</time></trkpt><trkpt lat="59.4575572014" lon="31.0880470276"><time>2026-09-02T14:39:13Z</time></trkpt><trkpt lat="59.4575572014" lon="31.0880470276"><time>2026-09-02T14:39:16Z</time></trkpt><trkpt lat="59.4575572014" lon="31.0880684853"><time>2026-09-02T14:39:18Z</time></trkpt><trkpt lat="59.4575572014" lon="31.0880684853"><time>2026-09-02T14:39:21Z</time></trkpt><trkpt lat="59.4575572014" lon="31.0880684853"><time>2026-09-02T14:39:23Z</time></trkpt><trkpt lat="59.4575357437" lon="31.0880684853"><time>2026-09-02T14:39:26Z</time></trkpt><trkpt lat="59.4575357437" lon="31.0880684853"><time>2026-09-02T14:39:28Z</time></trkpt><trkpt lat="59.4575142860" lon="31.0880684853"><time>2026-09-02T14:39:31Z</time></trkpt><trkpt lat="59.4575142860" lon="31.0880684853"><time>2026-09-02T14:39:33Z</time></trkpt><trkpt lat="59.4575142860" lon="31.0880684853"><time>2026-09-02T14:39:36Z</time></trkpt><trkpt lat="59.4574928284" lon="31.0880684853"><time>2026-09-02T14:39:38Z</time></trkpt><trkpt lat="59.4574928284" lon="31.0880684853"><time>2026-09-02T14:39:41Z</time></trkpt><trkpt lat="59.4574928284" lon="31.0880684853"><time>2026-09-02T14:39:43Z</time></trkpt><trkpt lat="59.4574928284" lon="31.0880684853"><time>2026-09-02T14:39:46Z</time></trkpt><trkpt lat="59.4574713707" lon="31.0880684853"><time>2026-09-02T14:39:48Z</time></trkpt><trkpt lat="59.4574713707" lon="31.0880684853"><time>2026-09-02T14:39:51Z</time></trkpt><trkpt lat="59.4574499130" lon="31.0880684853"><time>2026-09-02T14:39:53Z</time></trkpt><trkpt lat="59.4574499130" lon="31.0880684853"><time>2026-09-02T14:39:56Z</time></trkpt><trkpt lat="59.4574499130" lon="31.0880470276"><time>2026-09-02T14:39:58Z</time></trkpt><trkpt lat="59.4574499130" lon="31.0880470276"><time>2026-09-02T14:40:01Z</time></trkpt><trkpt lat="59.4574284554" lon="31.0880684853"><time>2026-09-02T14:40:03Z</time></trkpt><trkpt lat="59.4574069977" lon="31.0880684853"><time>2026-09-02T14:40:06Z</time></trkpt><trkpt lat="59.4573640823" lon="31.0879826546"><time>2026-09-02T14:40:08Z</time></trkpt><trkpt lat="59.4573426247" lon="31.0879182816"><time>2026-09-02T14:40:11Z</time></trkpt><trkpt lat="59.4572782516" lon="31.0878753662"><time>2026-09-02T14:40:13Z</time></trkpt><trkpt lat="59.4572353363" lon="31.0878539085"><time>2026-09-02T14:40:16Z</time></trkpt><trkpt lat="59.4571709633" lon="31.0878324509"><time>2026-09-02T14:40:18Z</time></trkpt><trkpt lat="59.4571495056" lon="31.0878324509"><time>2026-09-02T14:40:21Z</time></trkpt><trkpt lat="59.4570851326" lon="31.0878753662"><time>2026-09-02T14:40:23Z</time></trkpt><trkpt lat="59.4570636749" lon="31.0878753662"><time>2026-09-02T14:40:26Z</time></trkpt><trkpt lat="59.4570422173" lon="31.0879397392"><time>2026-09-02T14:40:28Z</time></trkpt><trkpt lat="59.4570207596" lon="31.0879826546"><time>2026-09-02T14:40:31Z</time></trkpt><trkpt lat="59.4569993019" lon="31.0880255699"><time>2026-09-02T14:40:33Z</time></trkpt><trkpt lat="59.4569778442" lon="31.0880255699"><time>2026-09-02T14:40:36Z</time></trkpt><trkpt lat="59.4569349289" lon="31.0880684853"><time>2026-09-02T14:40:38Z</time></trkpt><trkpt lat="59.4568920135" lon="31.0880899429"><time>2026-09-02T14:40:41Z</time></trkpt><trkpt lat="59.4568276405" lon="31.0881328583"><time>2026-09-02T14:40:43Z</time></trkpt><trkpt lat="59.4568490982" lon="31.0881114006"><time>2026-09-02T14:40:46Z</time></trkpt><trkpt lat="59.4568920135" lon="31.0880470276"><time>2026-09-02T14:40:48Z</time></trkpt><trkpt lat="59.4569134712" lon="31.0879826546"><time>2026-09-02T14:40:51Z</time></trkpt><trkpt lat="59.4569778442" lon="31.0878753662"><time>2026-09-02T14:40:53Z</time></trkpt><trkpt lat="59.4570207596" lon="31.0878539085"><time>2026-09-02T14:40:56Z</time></trkpt><trkpt lat="59.4570636749" lon="31.0878109932"><time>2026-09-02T14:40:58Z</time></trkpt><trkpt lat="59.4570851326" lon="31.0878109932"><time>2026-09-02T14:41:01Z</time></trkpt><trkpt lat="59.4570851326" lon="31.0878109932"><time>2026-09-02T14:41:03Z</time></trkpt><trkpt lat="59.4570851326" lon="31.0878109932"><time>2026-09-02T14:41:06Z</time></trkpt><trkpt lat="59.4570851326" lon="31.0878109932"><time>2026-09-02T14:41:08Z</time></trkpt><trkpt lat="59.4571495056" lon="31.0877895355"><time>2026-09-02T14:41:11Z</time></trkpt><trkpt lat="59.4571709633" lon="31.0877895355"><time>2026-09-02T14:41:13Z</time></trkpt><trkpt lat="59.4572138786" lon="31.0878109932"><time>2026-09-02T14:41:16Z</time></trkpt><trkpt lat="59.4572567940" lon="31.0878753662"><time>2026-09-02T14:41:18Z</time></trkpt><trkpt lat="59.4572997093" lon="31.0879182816"><time>2026-09-02T14:41:21Z</time></trkpt><trkpt lat="59.4572997093" lon="31.0880899429"><time>2026-09-02T14:41:23Z</time></trkpt><trkpt lat="59.4572567940" lon="31.0881757736"><time>2026-09-02T14:41:26Z</time></trkpt><trkpt lat="59.4572138786" lon="31.0881972313"><time>2026-09-02T14:41:28Z</time></trkpt><trkpt lat="59.4571924210" lon="31.0881757736"><time>2026-09-02T14:41:31Z</time></trkpt><trkpt lat="59.4571709633" lon="31.0881543159"><time>2026-09-02T14:41:33Z</time></trkpt><trkpt lat="59.4571495056" lon="31.0881328583"><time>2026-09-02T14:41:36Z</time></trkpt><trkpt lat="59.4571495056" lon="31.0881328583"><time>2026-09-02T14:41:38Z</time></trkpt><trkpt lat="59.4571280479" lon="31.0881543159"><time>2026-09-02T14:41:41Z</time></trkpt><trkpt lat="59.4571280479" lon="31.0881543159"><time>2026-09-02T14:41:43Z</time></trkpt><trkpt lat="59.4571280479" lon="31.0881543159"><time>2026-09-02T14:41:46Z</time></trkpt><trkpt lat="59.4571065903" lon="31.0881543159"><time>2026-09-02T14:41:48Z</time></trkpt><trkpt lat="59.4571065903" lon="31.0881543159"><time>2026-09-02T14:41:51Z</time></trkpt><trkpt lat="59.4570851326" lon="31.0881543159"><time>2026-09-02T14:41:53Z</time></trkpt><trkpt lat="59.4570851326" lon="31.0881543159"><time>2026-09-02T14:41:56Z</time></trkpt><trkpt lat="59.4570636749" lon="31.0881543159"><time>2026-09-02T14:41:58Z</time></trkpt><trkpt lat="59.4570422173" lon="31.0881543159"><time>2026-09-02T14:42:01Z</time></trkpt><trkpt lat="59.4570207596" lon="31.0881757736"><time>2026-09-02T14:42:03Z</time></trkpt><trkpt lat="59.4569563866" lon="31.0881972313"><time>2026-09-02T14:42:06Z</time></trkpt><trkpt lat="59.4568920135" lon="31.0882616043"><time>2026-09-02T14:42:08Z</time></trkpt><trkpt lat="59.4568490982" lon="31.0883045197"><time>2026-09-02T14:42:11Z</time></trkpt><trkpt lat="59.4567847252" lon="31.0883474350"><time>2026-09-02T14:42:13Z</time></trkpt><trkpt lat="59.4567632675" lon="31.0883474350"><time>2026-09-02T14:42:16Z</time></trkpt><trkpt lat="59.4567203522" lon="31.0883045197"><time>2026-09-02T14:42:18Z</time></trkpt><trkpt lat="59.4567203522" lon="31.0883045197"><time>2026-09-02T14:42:21Z</time></trkpt><trkpt lat="59.4567203522" lon="31.0883045197"><time>2026-09-02T14:42:23Z</time></trkpt><trkpt lat="59.4567203522" lon="31.0883045197"><time>2026-09-02T14:42:26Z</time></trkpt><trkpt lat="59.4567203522" lon="31.0883045197"><time>2026-09-02T14:42:28Z</time></trkpt><trkpt lat="59.4567203522" lon="31.0883045197"><time>2026-09-02T14:42:31Z</time></trkpt><trkpt lat="59.4567203522" lon="31.0883045197"><time>2026-09-02T14:42:33Z</time></trkpt><trkpt lat="59.4566774368" lon="31.0883259773"><time>2026-09-02T14:42:36Z</time></trkpt><trkpt lat="59.4566345215" lon="31.0883474350"><time>2026-09-02T14:42:38Z</time></trkpt><trkpt lat="59.4566130638" lon="31.0883474350"><time>2026-09-02T14:42:41Z</time></trkpt><trkpt lat="59.4565701485" lon="31.0883688927"><time>2026-09-02T14:42:43Z</time></trkpt><trkpt lat="59.4565057755" lon="31.0883474350"><time>2026-09-02T14:42:46Z</time></trkpt><trkpt lat="59.4564414024" lon="31.0883259773"><time>2026-09-02T14:42:48Z</time></trkpt><trkpt lat="59.4564414024" lon="31.0883259773"><time>2026-09-02T14:42:51Z</time></trkpt><trkpt lat="59.4564843178" lon="31.0883474350"><time>2026-09-02T14:42:53Z</time></trkpt><trkpt lat="59.4565272331" lon="31.0883474350"><time>2026-09-02T14:42:56Z</time></trkpt><trkpt lat="59.4566130638" lon="31.0883688927"><time>2026-09-02T14:42:58Z</time></trkpt><trkpt lat="59.4566345215" lon="31.0883688927"><time>2026-09-02T14:43:01Z</time></trkpt><trkpt lat="59.4566345215" lon="31.0883688927"><time>2026-09-02T14:43:03Z</time></trkpt><trkpt lat="59.4565916061" lon="31.0883259773"><time>2026-09-02T14:43:06Z</time></trkpt><trkpt lat="59.4565057755" lon="31.0882830620"><time>2026-09-02T14:43:08Z</time></trkpt><trkpt lat="59.4564628601" lon="31.0882616043"><time>2026-09-02T14:43:11Z</time></trkpt><trkpt lat="59.4565057755" lon="31.0881972313"><time>2026-09-02T14:43:16Z</time></trkpt><trkpt lat="59.4565272331" lon="31.0881114006"><time>2026-09-02T14:43:18Z</time></trkpt><trkpt lat="59.4565272331" lon="31.0880684853"><time>2026-09-02T14:43:21Z</time></trkpt><trkpt lat="59.4565272331" lon="31.0880255699"><time>2026-09-02T14:43:23Z</time></trkpt><trkpt lat="59.4565272331" lon="31.0880255699"><time>2026-09-02T14:43:26Z</time></trkpt><trkpt lat="59.4565057755" lon="31.0880255699"><time>2026-09-02T14:43:28Z</time></trkpt><trkpt lat="59.4564843178" lon="31.0880255699"><time>2026-09-02T14:43:31Z</time></trkpt><trkpt lat="59.4564628601" lon="31.0879826546"><time>2026-09-02T14:43:33Z</time></trkpt><trkpt lat="59.4564414024" lon="31.0879397392"><time>2026-09-02T14:43:36Z</time></trkpt><trkpt lat="59.4563984871" lon="31.0879397392"><time>2026-09-02T14:43:38Z</time></trkpt><trkpt lat="59.4563770294" lon="31.0879397392"><time>2026-09-02T14:43:41Z</time></trkpt><trkpt lat="59.4563555717" lon="31.0879397392"><time>2026-09-02T14:43:43Z</time></trkpt><trkpt lat="59.4563555717" lon="31.0879826546"><time>2026-09-02T14:43:46Z</time></trkpt><trkpt lat="59.4563555717" lon="31.0880041122"><time>2026-09-02T14:43:48Z</time></trkpt><trkpt lat="59.4563555717" lon="31.0880041122"><time>2026-09-02T14:43:51Z</time></trkpt><trkpt lat="59.4563555717" lon="31.0880041122"><time>2026-09-02T14:43:53Z</time></trkpt><trkpt lat="59.4563555717" lon="31.0879826546"><time>2026-09-02T14:43:56Z</time></trkpt><trkpt lat="59.4563341141" lon="31.0879826546"><time>2026-09-02T14:43:58Z</time></trkpt><trkpt lat="59.4563341141" lon="31.0879826546"><time>2026-09-02T14:44:01Z</time></trkpt><trkpt lat="59.4563126564" lon="31.0879826546"><time>2026-09-02T14:44:03Z</time></trkpt><trkpt lat="59.4562911987" lon="31.0880255699"><time>2026-09-02T14:44:06Z</time></trkpt><trkpt lat="59.4562268257" lon="31.0880684853"><time>2026-09-02T14:44:08Z</time></trkpt><trkpt lat="59.4561839104" lon="31.0880899429"><time>2026-09-02T14:44:11Z</time></trkpt><trkpt lat="59.4561409950" lon="31.0880255699"><time>2026-09-02T14:44:13Z</time></trkpt><trkpt lat="59.4560980797" lon="31.0879611969"><time>2026-09-02T14:44:16Z</time></trkpt><trkpt lat="59.4560337067" lon="31.0879182816"><time>2026-09-02T14:44:18Z</time></trkpt><trkpt lat="59.4559907913" lon="31.0879182816"><time>2026-09-02T14:44:21Z</time></trkpt><trkpt lat="59.4559264183" lon="31.0879611969"><time>2026-09-02T14:44:23Z</time></trkpt><trkpt lat="59.4559049606" lon="31.0879611969"><time>2026-09-02T14:44:26Z</time></trkpt><trkpt lat="59.4559049606" lon="31.0879611969"><time>2026-09-02T14:44:28Z</time></trkpt><trkpt lat="59.4559049606" lon="31.0879611969"><time>2026-09-02T14:44:31Z</time></trkpt><trkpt lat="59.4559049606" lon="31.0879611969"><time>2026-09-02T14:44:33Z</time></trkpt><trkpt lat="59.4559049606" lon="31.0879611969"><time>2026-09-02T14:44:36Z</time></trkpt><trkpt lat="59.4559049606" lon="31.0879611969"><time>2026-09-02T14:44:38Z</time></trkpt><trkpt lat="59.4559049606" lon="31.0880041122"><time>2026-09-02T14:44:41Z</time></trkpt><trkpt lat="59.4558620453" lon="31.0880255699"><time>2026-09-02T14:44:43Z</time></trkpt><trkpt lat="59.4558405876" lon="31.0880255699"><time>2026-09-02T14:44:46Z</time></trkpt><trkpt lat="59.4558835030" lon="31.0880470276"><time>2026-09-02T14:44:48Z</time></trkpt><trkpt lat="59.4559264183" lon="31.0880255699"><time>2026-09-02T14:44:51Z</time></trkpt><trkpt lat="59.4559264183" lon="31.0879826546"><time>2026-09-02T14:44:53Z</time></trkpt><trkpt lat="59.4559478760" lon="31.0879397392"><time>2026-09-02T14:44:56Z</time></trkpt><trkpt lat="59.4559693336" lon="31.0879397392"><time>2026-09-02T14:44:58Z</time></trkpt><trkpt lat="59.4559693336" lon="31.0879182816"><time>2026-09-02T14:45:01Z</time></trkpt><trkpt lat="59.4559693336" lon="31.0879182816"><time>2026-09-02T14:45:03Z</time></trkpt><trkpt lat="59.4559693336" lon="31.0879182816"><time>2026-09-02T14:45:06Z</time></trkpt><trkpt lat="59.4559693336" lon="31.0879182816"><time>2026-09-02T14:45:08Z</time></trkpt><trkpt lat="59.4559693336" lon="31.0879182816"><time>2026-09-02T14:45:11Z</time></trkpt><trkpt lat="59.4559693336" lon="31.0879182816"><time>2026-09-02T14:45:13Z</time></trkpt><trkpt lat="59.4559693336" lon="31.0879182816"><time>2026-09-02T14:45:16Z</time></trkpt><trkpt lat="59.4559693336" lon="31.0879182816"><time>2026-09-02T14:45:18Z</time></trkpt><trkpt lat="59.4559693336" lon="31.0879397392"><time>2026-09-02T14:45:21Z</time></trkpt><trkpt lat="59.4559478760" lon="31.0878968239"><time>2026-09-02T14:45:23Z</time></trkpt><trkpt lat="59.4558835030" lon="31.0878324509"><time>2026-09-02T14:45:26Z</time></trkpt><trkpt lat="59.4558405876" lon="31.0878109932"><time>2026-09-02T14:45:28Z</time></trkpt><trkpt lat="59.4557976723" lon="31.0878968239"><time>2026-09-02T14:45:31Z</time></trkpt><trkpt lat="59.4557762146" lon="31.0879397392"><time>2026-09-02T14:45:33Z</time></trkpt><trkpt lat="59.4557118416" lon="31.0879397392"><time>2026-09-02T14:45:36Z</time></trkpt><trkpt lat="59.4556689262" lon="31.0879182816"><time>2026-09-02T14:45:38Z</time></trkpt><trkpt lat="59.4556689262" lon="31.0878968239"><time>2026-09-02T14:45:41Z</time></trkpt><trkpt lat="59.4556689262" lon="31.0878968239"><time>2026-09-02T14:45:43Z</time></trkpt><trkpt lat="59.4556689262" lon="31.0879182816"><time>2026-09-02T14:45:46Z</time></trkpt><trkpt lat="59.4556689262" lon="31.0879182816"><time>2026-09-02T14:45:48Z</time></trkpt><trkpt lat="59.4556689262" lon="31.0878753662"><time>2026-09-02T14:45:51Z</time></trkpt><trkpt lat="59.4556903839" lon="31.0878109932"><time>2026-09-02T14:45:53Z</time></trkpt><trkpt lat="59.4556903839" lon="31.0878109932"><time>2026-09-02T14:45:56Z</time></trkpt><trkpt lat="59.4556903839" lon="31.0878109932"><time>2026-09-02T14:45:58Z</time></trkpt><trkpt lat="59.4556903839" lon="31.0878109932"><time>2026-09-02T14:46:01Z</time></trkpt><trkpt lat="59.4556903839" lon="31.0878109932"><time>2026-09-02T14:46:03Z</time></trkpt><trkpt lat="59.4556903839" lon="31.0877895355"><time>2026-09-02T14:46:06Z</time></trkpt><trkpt lat="59.4556260109" lon="31.0876822472"><time>2026-09-02T14:46:08Z</time></trkpt><trkpt lat="59.4555830956" lon="31.0876178741"><time>2026-09-02T14:46:11Z</time></trkpt><trkpt lat="59.4555187225" lon="31.0875964165"><time>2026-09-02T14:46:13Z</time></trkpt><trkpt lat="59.4554758072" lon="31.0875964165"><time>2026-09-02T14:46:16Z</time></trkpt><trkpt lat="59.4554543495" lon="31.0876607895"><time>2026-09-02T14:46:18Z</time></trkpt><trkpt lat="59.4554328918" lon="31.0876822472"><time>2026-09-02T14:46:21Z</time></trkpt><trkpt lat="59.4554114342" lon="31.0876822472"><time>2026-09-02T14:46:23Z</time></trkpt><trkpt lat="59.4553899765" lon="31.0877037048"><time>2026-09-02T14:46:26Z</time></trkpt><trkpt lat="59.4553041458" lon="31.0877895355"><time>2026-09-02T14:46:28Z</time></trkpt><trkpt lat="59.4552826881" lon="31.0877895355"><time>2026-09-02T14:46:31Z</time></trkpt><trkpt lat="59.4552397728" lon="31.0877680779"><time>2026-09-02T14:46:33Z</time></trkpt><trkpt lat="59.4552183151" lon="31.0877466202"><time>2026-09-02T14:46:36Z</time></trkpt><trkpt lat="59.4552183151" lon="31.0877466202"><time>2026-09-02T14:46:38Z</time></trkpt><trkpt lat="59.4552183151" lon="31.0877251625"><time>2026-09-02T14:46:41Z</time></trkpt><trkpt lat="59.4551968575" lon="31.0877037048"><time>2026-09-02T14:46:43Z</time></trkpt><trkpt lat="59.4551968575" lon="31.0877037048"><time>2026-09-02T14:46:46Z</time></trkpt><trkpt lat="59.4551968575" lon="31.0876822472"><time>2026-09-02T14:46:48Z</time></trkpt><trkpt lat="59.4552183151" lon="31.0877251625"><time>2026-09-02T14:46:51Z</time></trkpt><trkpt lat="59.4552397728" lon="31.0877037048"><time>2026-09-02T14:46:53Z</time></trkpt><trkpt lat="59.4552826881" lon="31.0876393318"><time>2026-09-02T14:46:56Z</time></trkpt><trkpt lat="59.4553041458" lon="31.0875320435"><time>2026-09-02T14:46:58Z</time></trkpt><trkpt lat="59.4553041458" lon="31.0874247551"><time>2026-09-02T14:47:01Z</time></trkpt><trkpt lat="59.4553041458" lon="31.0873389244"><time>2026-09-02T14:47:03Z</time></trkpt><trkpt lat="59.4552612305" lon="31.0873174667"><time>2026-09-02T14:47:06Z</time></trkpt><trkpt lat="59.4551968575" lon="31.0872316360"><time>2026-09-02T14:47:08Z</time></trkpt><trkpt lat="59.4551539421" lon="31.0872316360"><time>2026-09-02T14:47:11Z</time></trkpt><trkpt lat="59.4551110268" lon="31.0872101784"><time>2026-09-02T14:47:13Z</time></trkpt><trkpt lat="59.4551110268" lon="31.0871887207"><time>2026-09-02T14:47:16Z</time></trkpt><trkpt lat="59.4550895691" lon="31.0871243477"><time>2026-09-02T14:47:18Z</time></trkpt><trkpt lat="59.4550895691" lon="31.0871243477"><time>2026-09-02T14:47:21Z</time></trkpt><trkpt lat="59.4550681114" lon="31.0871028900"><time>2026-09-02T14:47:23Z</time></trkpt><trkpt lat="59.4550681114" lon="31.0871028900"><time>2026-09-02T14:47:26Z</time></trkpt><trkpt lat="59.4550466537" lon="31.0870814323"><time>2026-09-02T14:47:28Z</time></trkpt><trkpt lat="59.4550466537" lon="31.0870814323"><time>2026-09-02T14:47:31Z</time></trkpt><trkpt lat="59.4550466537" lon="31.0870814323"><time>2026-09-02T14:47:33Z</time></trkpt><trkpt lat="59.4550466537" lon="31.0870814323"><time>2026-09-02T14:47:36Z</time></trkpt><trkpt lat="59.4550466537" lon="31.0871028900"><time>2026-09-02T14:47:38Z</time></trkpt><trkpt lat="59.4550895691" lon="31.0871672630"><time>2026-09-02T14:47:41Z</time></trkpt><trkpt lat="59.4550895691" lon="31.0871672630"><time>2026-09-02T14:47:43Z</time></trkpt><trkpt lat="59.4550681114" lon="31.0871672630"><time>2026-09-02T14:47:46Z</time></trkpt><trkpt lat="59.4550466537" lon="31.0870385170"><time>2026-09-02T14:47:48Z</time></trkpt><trkpt lat="59.4550037384" lon="31.0869312286"><time>2026-09-02T14:47:51Z</time></trkpt><trkpt lat="59.4549822807" lon="31.0868453979"><time>2026-09-02T14:47:53Z</time></trkpt><trkpt lat="59.4549822807" lon="31.0868453979"><time>2026-09-02T14:47:56Z</time></trkpt><trkpt lat="59.4549822807" lon="31.0868453979"><time>2026-09-02T14:47:58Z</time></trkpt><trkpt lat="59.4549822807" lon="31.0868239403"><time>2026-09-02T14:48:01Z</time></trkpt><trkpt lat="59.4549822807" lon="31.0868239403"><time>2026-09-02T14:48:03Z</time></trkpt><trkpt lat="59.4549822807" lon="31.0868024826"><time>2026-09-02T14:48:06Z</time></trkpt><trkpt lat="59.4549822807" lon="31.0868024826"><time>2026-09-02T14:48:08Z</time></trkpt><trkpt lat="59.4549822807" lon="31.0868024826"><time>2026-09-02T14:48:11Z</time></trkpt><trkpt lat="59.4549822807" lon="31.0868453979"><time>2026-09-02T14:48:13Z</time></trkpt><trkpt lat="59.4549822807" lon="31.0868453979"><time>2026-09-02T14:48:16Z</time></trkpt><trkpt lat="59.4549822807" lon="31.0868668556"><time>2026-09-02T14:48:18Z</time></trkpt><trkpt lat="59.4549822807" lon="31.0868668556"><time>2026-09-02T14:48:21Z</time></trkpt><trkpt lat="59.4549822807" lon="31.0868453979"><time>2026-09-02T14:48:23Z</time></trkpt><trkpt lat="59.4549822807" lon="31.0868453979"><time>2026-09-02T14:48:26Z</time></trkpt><trkpt lat="59.4549822807" lon="31.0868453979"><time>2026-09-02T14:48:28Z</time></trkpt><trkpt lat="59.4549822807" lon="31.0868453979"><time>2026-09-02T14:48:31Z</time></trkpt><trkpt lat="59.4549822807" lon="31.0868453979"><time>2026-09-02T14:48:33Z</time></trkpt><trkpt lat="59.4549822807" lon="31.0868453979"><time>2026-09-02T14:48:36Z</time></trkpt><trkpt lat="59.4549822807" lon="31.0868453979"><time>2026-09-02T14:48:38Z</time></trkpt></trkseg></trk></gpx>